<?xml version="1.0" encoding="UTF-8" standalone="no" ?>
<gpx xmlns="http://www.topografix.com/GPX/1/1" xmlns:xsi="http://www.w3.org/2001/XMLSchema-instance" xsi:schemaLocation="http://www.topografix.com/GPX/1/1 http://www.topografix.com/GPX/1/1/gpx.xsd" version="1.1" creator="VisuGPX - https://www.visugpx.com">
  <metadata>
    <name>Bosch eBike Tour: Cabrières</name>
    <desc><![CDATA[Trace vtt départ cabrieres]]></desc>
  </metadata>
  <trk>
    <name><![CDATA[Bosch eBike Tour: Cabrières]]></name>
    <trkseg>
      <trkpt lat="43.57303" lon="3.36358">
        <ele>106.543311</ele>
        <time>2022-02-24T12:45:09.000Z</time>
      </trkpt>
      <trkpt lat="43.57303" lon="3.36359">
        <ele>106.543311</ele>
        <time>2022-02-24T12:52:05.000Z</time>
      </trkpt>
      <trkpt lat="43.57303" lon="3.36359">
        <ele>106.543311</ele>
        <time>2022-02-24T12:52:07.000Z</time>
      </trkpt>
      <trkpt lat="43.57303" lon="3.36362">
        <ele>106.543311</ele>
        <time>2022-02-24T12:52:42.000Z</time>
      </trkpt>
      <trkpt lat="43.57303" lon="3.36362">
        <ele>106.543311</ele>
        <time>2022-02-24T12:52:44.000Z</time>
      </trkpt>
      <trkpt lat="43.573" lon="3.36361">
        <ele>106.543311</ele>
        <time>2022-02-24T12:52:45.000Z</time>
      </trkpt>
      <trkpt lat="43.57298" lon="3.3636">
        <ele>106.543311</ele>
        <time>2022-02-24T12:52:46.000Z</time>
      </trkpt>
      <trkpt lat="43.57297" lon="3.36359">
        <ele>106.543311</ele>
        <time>2022-02-24T12:52:47.000Z</time>
      </trkpt>
      <trkpt lat="43.57295" lon="3.36357">
        <ele>106.543311</ele>
        <time>2022-02-24T12:52:48.000Z</time>
      </trkpt>
      <trkpt lat="43.57293" lon="3.36356">
        <ele>106.543311</ele>
        <time>2022-02-24T12:52:49.000Z</time>
      </trkpt>
      <trkpt lat="43.5729" lon="3.36354">
        <ele>106.543311</ele>
        <time>2022-02-24T12:52:50.000Z</time>
      </trkpt>
      <trkpt lat="43.57286" lon="3.36352">
        <ele>106.543311</ele>
        <time>2022-02-24T12:52:51.000Z</time>
      </trkpt>
      <trkpt lat="43.57283" lon="3.36351">
        <ele>106.543311</ele>
        <time>2022-02-24T12:52:52.000Z</time>
      </trkpt>
      <trkpt lat="43.57278" lon="3.36349">
        <ele>106.543311</ele>
        <time>2022-02-24T12:52:54.000Z</time>
      </trkpt>
      <trkpt lat="43.57273" lon="3.36347">
        <ele>106.543311</ele>
        <time>2022-02-24T12:52:55.000Z</time>
      </trkpt>
      <trkpt lat="43.57269" lon="3.36345">
        <ele>106.543311</ele>
        <time>2022-02-24T12:52:56.000Z</time>
      </trkpt>
      <trkpt lat="43.57264" lon="3.36343">
        <ele>106.543311</ele>
        <time>2022-02-24T12:52:57.000Z</time>
      </trkpt>
      <trkpt lat="43.57258" lon="3.36341">
        <ele>106.543311</ele>
        <time>2022-02-24T12:52:59.000Z</time>
      </trkpt>
      <trkpt lat="43.57252" lon="3.3634">
        <ele>106.543311</ele>
        <time>2022-02-24T12:53:00.000Z</time>
      </trkpt>
      <trkpt lat="43.57246" lon="3.36339">
        <ele>106.543311</ele>
        <time>2022-02-24T12:53:01.000Z</time>
      </trkpt>
      <trkpt lat="43.57241" lon="3.36338">
        <ele>106.543311</ele>
        <time>2022-02-24T12:53:02.000Z</time>
      </trkpt>
      <trkpt lat="43.57235" lon="3.36336">
        <ele>106.543311</ele>
        <time>2022-02-24T12:53:03.000Z</time>
      </trkpt>
      <trkpt lat="43.5723" lon="3.36335">
        <ele>106.543311</ele>
        <time>2022-02-24T12:53:06.000Z</time>
      </trkpt>
      <trkpt lat="43.5721" lon="3.3633">
        <ele>106.591357</ele>
        <time>2022-02-24T12:53:08.000Z</time>
      </trkpt>
      <trkpt lat="43.57195" lon="3.36326">
        <ele>106.673489</ele>
        <time>2022-02-24T12:53:10.000Z</time>
      </trkpt>
      <trkpt lat="43.5718" lon="3.36322">
        <ele>106.751479</ele>
        <time>2022-02-24T12:53:12.000Z</time>
      </trkpt>
      <trkpt lat="43.57177" lon="3.36321">
        <ele>106.767757</ele>
        <time>2022-02-24T12:53:14.000Z</time>
      </trkpt>
      <trkpt lat="43.57167" lon="3.36319">
        <ele>106.822565</ele>
        <time>2022-02-24T12:53:16.000Z</time>
      </trkpt>
      <trkpt lat="43.57161" lon="3.36318">
        <ele>106.853444</ele>
        <time>2022-02-24T12:53:18.000Z</time>
      </trkpt>
      <trkpt lat="43.57156" lon="3.36317">
        <ele>106.877484</ele>
        <time>2022-02-24T12:53:20.000Z</time>
      </trkpt>
      <trkpt lat="43.57153" lon="3.36316">
        <ele>106.896335</ele>
        <time>2022-02-24T12:53:21.000Z</time>
      </trkpt>
      <trkpt lat="43.5715" lon="3.36315">
        <ele>106.914845</ele>
        <time>2022-02-24T12:53:22.000Z</time>
      </trkpt>
      <trkpt lat="43.57146" lon="3.36314">
        <ele>106.932171</ele>
        <time>2022-02-24T12:53:23.000Z</time>
      </trkpt>
      <trkpt lat="43.57143" lon="3.36312">
        <ele>106.949276</ele>
        <time>2022-02-24T12:53:24.000Z</time>
      </trkpt>
      <trkpt lat="43.5714" lon="3.3631">
        <ele>106.969246</ele>
        <time>2022-02-24T12:53:26.000Z</time>
      </trkpt>
      <trkpt lat="43.57138" lon="3.36308">
        <ele>106.980791</ele>
        <time>2022-02-24T12:53:28.000Z</time>
      </trkpt>
      <trkpt lat="43.57127" lon="3.36299">
        <ele>107.049776</ele>
        <time>2022-02-24T12:53:30.000Z</time>
      </trkpt>
      <trkpt lat="43.57122" lon="3.36296">
        <ele>107.07952</ele>
        <time>2022-02-24T12:53:32.000Z</time>
      </trkpt>
      <trkpt lat="43.57118" lon="3.36293">
        <ele>107.099839</ele>
        <time>2022-02-24T12:53:34.000Z</time>
      </trkpt>
      <trkpt lat="43.57115" lon="3.36291">
        <ele>107.119981</ele>
        <time>2022-02-24T12:53:36.000Z</time>
      </trkpt>
      <trkpt lat="43.57112" lon="3.36289">
        <ele>107.138194</ele>
        <time>2022-02-24T12:53:37.000Z</time>
      </trkpt>
      <trkpt lat="43.5711" lon="3.36288">
        <ele>107.149379</ele>
        <time>2022-02-24T12:53:40.000Z</time>
      </trkpt>
      <trkpt lat="43.57102" lon="3.36284">
        <ele>107.192013</ele>
        <time>2022-02-24T12:53:42.000Z</time>
      </trkpt>
      <trkpt lat="43.57089" lon="3.36279">
        <ele>107.263192</ele>
        <time>2022-02-24T12:53:44.000Z</time>
      </trkpt>
      <trkpt lat="43.57087" lon="3.36278">
        <ele>107.277242</ele>
        <time>2022-02-24T12:53:46.000Z</time>
      </trkpt>
      <trkpt lat="43.57079" lon="3.36276">
        <ele>107.318877</ele>
        <time>2022-02-24T12:53:48.000Z</time>
      </trkpt>
      <trkpt lat="43.57071" lon="3.36273">
        <ele>107.362056</ele>
        <time>2022-02-24T12:53:50.000Z</time>
      </trkpt>
      <trkpt lat="43.57063" lon="3.36271">
        <ele>107.4073</ele>
        <time>2022-02-24T12:53:52.000Z</time>
      </trkpt>
      <trkpt lat="43.57053" lon="3.36268">
        <ele>107.456314</ele>
        <time>2022-02-24T12:53:53.000Z</time>
      </trkpt>
      <trkpt lat="43.5705" lon="3.36267">
        <ele>107.472948</ele>
        <time>2022-02-24T12:53:56.000Z</time>
      </trkpt>
      <trkpt lat="43.57031" lon="3.36263">
        <ele>107.941589</ele>
        <time>2022-02-24T12:53:58.000Z</time>
      </trkpt>
      <trkpt lat="43.57028" lon="3.36263">
        <ele>108.039368</ele>
        <time>2022-02-24T12:54:00.000Z</time>
      </trkpt>
      <trkpt lat="43.57007" lon="3.36259">
        <ele>108.632419</ele>
        <time>2022-02-24T12:54:02.000Z</time>
      </trkpt>
      <trkpt lat="43.57006" lon="3.36259">
        <ele>108.676547</ele>
        <time>2022-02-24T12:54:04.000Z</time>
      </trkpt>
      <trkpt lat="43.56995" lon="3.36256">
        <ele>108.986887</ele>
        <time>2022-02-24T12:54:06.000Z</time>
      </trkpt>
      <trkpt lat="43.56977" lon="3.36255">
        <ele>109.499479</ele>
        <time>2022-02-24T12:54:08.000Z</time>
      </trkpt>
      <trkpt lat="43.56971" lon="3.36256">
        <ele>109.687014</ele>
        <time>2022-02-24T12:54:10.000Z</time>
      </trkpt>
      <trkpt lat="43.56969" lon="3.36257">
        <ele>109.730703</ele>
        <time>2022-02-24T12:54:12.000Z</time>
      </trkpt>
      <trkpt lat="43.56954" lon="3.36263">
        <ele>110.18973</ele>
        <time>2022-02-24T12:54:14.000Z</time>
      </trkpt>
      <trkpt lat="43.56952" lon="3.36264">
        <ele>110.235716</ele>
        <time>2022-02-24T12:54:16.000Z</time>
      </trkpt>
      <trkpt lat="43.56945" lon="3.36269">
        <ele>110.452216</ele>
        <time>2022-02-24T12:54:18.000Z</time>
      </trkpt>
      <trkpt lat="43.56935" lon="3.36271">
        <ele>110.763275</ele>
        <time>2022-02-24T12:54:20.000Z</time>
      </trkpt>
      <trkpt lat="43.56933" lon="3.36272">
        <ele>110.820081</ele>
        <time>2022-02-24T12:54:22.000Z</time>
      </trkpt>
      <trkpt lat="43.56925" lon="3.36275">
        <ele>111.045027</ele>
        <time>2022-02-24T12:54:24.000Z</time>
      </trkpt>
      <trkpt lat="43.56916" lon="3.36277">
        <ele>111.312399</ele>
        <time>2022-02-24T12:54:26.000Z</time>
      </trkpt>
      <trkpt lat="43.56907" lon="3.36277">
        <ele>111.572631</ele>
        <time>2022-02-24T12:54:28.000Z</time>
      </trkpt>
      <trkpt lat="43.56895" lon="3.36274">
        <ele>111.907318</ele>
        <time>2022-02-24T12:54:30.000Z</time>
      </trkpt>
      <trkpt lat="43.56892" lon="3.36272">
        <ele>112.022897</ele>
        <time>2022-02-24T12:54:31.000Z</time>
      </trkpt>
      <trkpt lat="43.56889" lon="3.3627">
        <ele>112.119091</ele>
        <time>2022-02-24T12:54:32.000Z</time>
      </trkpt>
      <trkpt lat="43.56886" lon="3.36268">
        <ele>112.221765</ele>
        <time>2022-02-24T12:54:34.000Z</time>
      </trkpt>
      <trkpt lat="43.56882" lon="3.36265">
        <ele>112.347997</ele>
        <time>2022-02-24T12:54:35.000Z</time>
      </trkpt>
      <trkpt lat="43.56879" lon="3.36262">
        <ele>112.43766</ele>
        <time>2022-02-24T12:54:38.000Z</time>
      </trkpt>
      <trkpt lat="43.56865" lon="3.36251">
        <ele>112.781916</ele>
        <time>2022-02-24T12:54:40.000Z</time>
      </trkpt>
      <trkpt lat="43.56861" lon="3.36249">
        <ele>112.849613</ele>
        <time>2022-02-24T12:54:42.000Z</time>
      </trkpt>
      <trkpt lat="43.5685" lon="3.36241">
        <ele>113.049649</ele>
        <time>2022-02-24T12:54:44.000Z</time>
      </trkpt>
      <trkpt lat="43.56845" lon="3.36238">
        <ele>113.136471</ele>
        <time>2022-02-24T12:54:46.000Z</time>
      </trkpt>
      <trkpt lat="43.56842" lon="3.36236">
        <ele>113.191169</ele>
        <time>2022-02-24T12:54:47.000Z</time>
      </trkpt>
      <trkpt lat="43.56839" lon="3.36234">
        <ele>113.230558</ele>
        <time>2022-02-24T12:54:50.000Z</time>
      </trkpt>
      <trkpt lat="43.56833" lon="3.36228">
        <ele>113.360972</ele>
        <time>2022-02-24T12:54:52.000Z</time>
      </trkpt>
      <trkpt lat="43.56826" lon="3.36221">
        <ele>113.500802</ele>
        <time>2022-02-24T12:54:54.000Z</time>
      </trkpt>
      <trkpt lat="43.5682" lon="3.36212">
        <ele>113.632131</ele>
        <time>2022-02-24T12:54:56.000Z</time>
      </trkpt>
      <trkpt lat="43.56813" lon="3.362">
        <ele>113.807947</ele>
        <time>2022-02-24T12:54:58.000Z</time>
      </trkpt>
      <trkpt lat="43.5681" lon="3.36193">
        <ele>113.9038</ele>
        <time>2022-02-24T12:55:00.000Z</time>
      </trkpt>
      <trkpt lat="43.56809" lon="3.36192">
        <ele>113.917925</ele>
        <time>2022-02-24T12:55:02.000Z</time>
      </trkpt>
      <trkpt lat="43.56805" lon="3.36184">
        <ele>114.030379</ele>
        <time>2022-02-24T12:55:04.000Z</time>
      </trkpt>
      <trkpt lat="43.56797" lon="3.3617">
        <ele>114.233911</ele>
        <time>2022-02-24T12:55:06.000Z</time>
      </trkpt>
      <trkpt lat="43.56794" lon="3.36164">
        <ele>114.319533</ele>
        <time>2022-02-24T12:55:08.000Z</time>
      </trkpt>
      <trkpt lat="43.56793" lon="3.36163">
        <ele>114.339107</ele>
        <time>2022-02-24T12:55:10.000Z</time>
      </trkpt>
      <trkpt lat="43.56786" lon="3.36151">
        <ele>114.516728</ele>
        <time>2022-02-24T12:55:12.000Z</time>
      </trkpt>
      <trkpt lat="43.56776" lon="3.36126">
        <ele>114.845788</ele>
        <time>2022-02-24T12:55:14.000Z</time>
      </trkpt>
      <trkpt lat="43.56776" lon="3.36123">
        <ele>114.876003</ele>
        <time>2022-02-24T12:55:16.000Z</time>
      </trkpt>
      <trkpt lat="43.56774" lon="3.36106">
        <ele>115.073884</ele>
        <time>2022-02-24T12:55:18.000Z</time>
      </trkpt>
      <trkpt lat="43.56773" lon="3.36077">
        <ele>115.413278</ele>
        <time>2022-02-24T12:55:20.000Z</time>
      </trkpt>
      <trkpt lat="43.56772" lon="3.36066">
        <ele>115.54449</ele>
        <time>2022-02-24T12:55:22.000Z</time>
      </trkpt>
      <trkpt lat="43.56771" lon="3.36063">
        <ele>115.574051</ele>
        <time>2022-02-24T12:55:24.000Z</time>
      </trkpt>
      <trkpt lat="43.56769" lon="3.36047">
        <ele>115.771032</ele>
        <time>2022-02-24T12:55:26.000Z</time>
      </trkpt>
      <trkpt lat="43.56766" lon="3.36025">
        <ele>116.037705</ele>
        <time>2022-02-24T12:55:28.000Z</time>
      </trkpt>
      <trkpt lat="43.56765" lon="3.36024">
        <ele>116.054082</ele>
        <time>2022-02-24T12:55:30.000Z</time>
      </trkpt>
      <trkpt lat="43.56762" lon="3.36009">
        <ele>116.242103</ele>
        <time>2022-02-24T12:55:32.000Z</time>
      </trkpt>
      <trkpt lat="43.56761" lon="3.36004">
        <ele>116.302534</ele>
        <time>2022-02-24T12:55:34.000Z</time>
      </trkpt>
      <trkpt lat="43.56761" lon="3.36002">
        <ele>116.333266</ele>
        <time>2022-02-24T12:55:35.000Z</time>
      </trkpt>
      <trkpt lat="43.56761" lon="3.35999">
        <ele>116.365676</ele>
        <time>2022-02-24T12:55:36.000Z</time>
      </trkpt>
      <trkpt lat="43.56761" lon="3.35996">
        <ele>116.404656</ele>
        <time>2022-02-24T12:55:37.000Z</time>
      </trkpt>
      <trkpt lat="43.5676" lon="3.35992">
        <ele>116.459968</ele>
        <time>2022-02-24T12:55:39.000Z</time>
      </trkpt>
      <trkpt lat="43.56759" lon="3.35986">
        <ele>116.527301</ele>
        <time>2022-02-24T12:55:40.000Z</time>
      </trkpt>
      <trkpt lat="43.56757" lon="3.3598">
        <ele>116.598552</ele>
        <time>2022-02-24T12:55:41.000Z</time>
      </trkpt>
      <trkpt lat="43.56756" lon="3.35975">
        <ele>116.673608</ele>
        <time>2022-02-24T12:55:42.000Z</time>
      </trkpt>
      <trkpt lat="43.56754" lon="3.35968">
        <ele>116.75207</ele>
        <time>2022-02-24T12:55:43.000Z</time>
      </trkpt>
      <trkpt lat="43.56753" lon="3.35962">
        <ele>116.830533</ele>
        <time>2022-02-24T12:55:44.000Z</time>
      </trkpt>
      <trkpt lat="43.56751" lon="3.35955">
        <ele>116.917497</ele>
        <time>2022-02-24T12:55:46.000Z</time>
      </trkpt>
      <trkpt lat="43.56751" lon="3.35951">
        <ele>116.968061</ele>
        <time>2022-02-24T12:55:48.000Z</time>
      </trkpt>
      <trkpt lat="43.56746" lon="3.35931">
        <ele>117.217654</ele>
        <time>2022-02-24T12:55:49.000Z</time>
      </trkpt>
      <trkpt lat="43.56744" lon="3.35924">
        <ele>117.311049</ele>
        <time>2022-02-24T12:55:50.000Z</time>
      </trkpt>
      <trkpt lat="43.56743" lon="3.35918">
        <ele>117.38108</ele>
        <time>2022-02-24T12:55:51.000Z</time>
      </trkpt>
      <trkpt lat="43.56742" lon="3.35914">
        <ele>117.436952</ele>
        <time>2022-02-24T12:55:52.000Z</time>
      </trkpt>
      <trkpt lat="43.56741" lon="3.35908">
        <ele>117.5066</ele>
        <time>2022-02-24T12:55:54.000Z</time>
      </trkpt>
      <trkpt lat="43.56739" lon="3.35903">
        <ele>117.574401</ele>
        <time>2022-02-24T12:55:55.000Z</time>
      </trkpt>
      <trkpt lat="43.56738" lon="3.35898">
        <ele>117.639426</ele>
        <time>2022-02-24T12:55:56.000Z</time>
      </trkpt>
      <trkpt lat="43.56737" lon="3.35893">
        <ele>117.702652</ele>
        <time>2022-02-24T12:55:57.000Z</time>
      </trkpt>
      <trkpt lat="43.56736" lon="3.35888">
        <ele>117.766526</ele>
        <time>2022-02-24T12:55:58.000Z</time>
      </trkpt>
      <trkpt lat="43.56735" lon="3.35882">
        <ele>117.838931</ele>
        <time>2022-02-24T12:56:00.000Z</time>
      </trkpt>
      <trkpt lat="43.56733" lon="3.35876">
        <ele>117.91512</ele>
        <time>2022-02-24T12:56:01.000Z</time>
      </trkpt>
      <trkpt lat="43.56732" lon="3.3587">
        <ele>117.993583</ele>
        <time>2022-02-24T12:56:02.000Z</time>
      </trkpt>
      <trkpt lat="43.5673" lon="3.35864">
        <ele>118.072184</ele>
        <time>2022-02-24T12:56:03.000Z</time>
      </trkpt>
      <trkpt lat="43.56728" lon="3.35858">
        <ele>118.149687</ele>
        <time>2022-02-24T12:56:04.000Z</time>
      </trkpt>
      <trkpt lat="43.56726" lon="3.35851">
        <ele>118.237172</ele>
        <time>2022-02-24T12:56:06.000Z</time>
      </trkpt>
      <trkpt lat="43.56724" lon="3.35844">
        <ele>118.331412</ele>
        <time>2022-02-24T12:56:08.000Z</time>
      </trkpt>
      <trkpt lat="43.56722" lon="3.35837">
        <ele>118.421736</ele>
        <time>2022-02-24T12:56:09.000Z</time>
      </trkpt>
      <trkpt lat="43.56721" lon="3.3583">
        <ele>118.533144</ele>
        <time>2022-02-24T12:56:10.000Z</time>
      </trkpt>
      <trkpt lat="43.5672" lon="3.35823">
        <ele>118.657335</ele>
        <time>2022-02-24T12:56:11.000Z</time>
      </trkpt>
      <trkpt lat="43.56718" lon="3.35817">
        <ele>118.776788</ele>
        <time>2022-02-24T12:56:12.000Z</time>
      </trkpt>
      <trkpt lat="43.56717" lon="3.3581">
        <ele>118.906346</ele>
        <time>2022-02-24T12:56:13.000Z</time>
      </trkpt>
      <trkpt lat="43.56716" lon="3.35803">
        <ele>119.031128</ele>
        <time>2022-02-24T12:56:14.000Z</time>
      </trkpt>
      <trkpt lat="43.56715" lon="3.35797">
        <ele>119.146402</ele>
        <time>2022-02-24T12:56:15.000Z</time>
      </trkpt>
      <trkpt lat="43.56714" lon="3.35791">
        <ele>119.263455</ele>
        <time>2022-02-24T12:56:16.000Z</time>
      </trkpt>
      <trkpt lat="43.56713" lon="3.35785">
        <ele>119.378939</ele>
        <time>2022-02-24T12:56:17.000Z</time>
      </trkpt>
      <trkpt lat="43.56712" lon="3.35778">
        <ele>119.503721</ele>
        <time>2022-02-24T12:56:18.000Z</time>
      </trkpt>
      <trkpt lat="43.56711" lon="3.35774">
        <ele>119.580966</ele>
        <time>2022-02-24T12:56:20.000Z</time>
      </trkpt>
      <trkpt lat="43.56707" lon="3.35753">
        <ele>119.976259</ele>
        <time>2022-02-24T12:56:21.000Z</time>
      </trkpt>
      <trkpt lat="43.56704" lon="3.35747">
        <ele>120.10891</ele>
        <time>2022-02-24T12:56:22.000Z</time>
      </trkpt>
      <trkpt lat="43.56703" lon="3.35742">
        <ele>120.206489</ele>
        <time>2022-02-24T12:56:24.000Z</time>
      </trkpt>
      <trkpt lat="43.56703" lon="3.35736">
        <ele>120.315155</ele>
        <time>2022-02-24T12:56:25.000Z</time>
      </trkpt>
      <trkpt lat="43.56702" lon="3.35731">
        <ele>120.412872</ele>
        <time>2022-02-24T12:56:26.000Z</time>
      </trkpt>
      <trkpt lat="43.56702" lon="3.35727">
        <ele>120.482556</ele>
        <time>2022-02-24T12:56:28.000Z</time>
      </trkpt>
      <trkpt lat="43.56703" lon="3.3571">
        <ele>120.796297</ele>
        <time>2022-02-24T12:56:29.000Z</time>
      </trkpt>
      <trkpt lat="43.56703" lon="3.35703">
        <ele>120.915494</ele>
        <time>2022-02-24T12:56:30.000Z</time>
      </trkpt>
      <trkpt lat="43.56703" lon="3.35698">
        <ele>121.011387</ele>
        <time>2022-02-24T12:56:31.000Z</time>
      </trkpt>
      <trkpt lat="43.56704" lon="3.35693">
        <ele>121.10728</ele>
        <time>2022-02-24T12:56:32.000Z</time>
      </trkpt>
      <trkpt lat="43.56704" lon="3.35688">
        <ele>121.197456</ele>
        <time>2022-02-24T12:56:33.000Z</time>
      </trkpt>
      <trkpt lat="43.56705" lon="3.35683">
        <ele>121.28599</ele>
        <time>2022-02-24T12:56:34.000Z</time>
      </trkpt>
      <trkpt lat="43.56705" lon="3.35679">
        <ele>121.372771</ele>
        <time>2022-02-24T12:56:35.000Z</time>
      </trkpt>
      <trkpt lat="43.56706" lon="3.35674">
        <ele>121.464356</ele>
        <time>2022-02-24T12:56:36.000Z</time>
      </trkpt>
      <trkpt lat="43.56707" lon="3.35669">
        <ele>121.558255</ele>
        <time>2022-02-24T12:56:37.000Z</time>
      </trkpt>
      <trkpt lat="43.56707" lon="3.35664">
        <ele>121.650363</ele>
        <time>2022-02-24T12:56:38.000Z</time>
      </trkpt>
      <trkpt lat="43.56708" lon="3.35659">
        <ele>121.743749</ele>
        <time>2022-02-24T12:56:39.000Z</time>
      </trkpt>
      <trkpt lat="43.56709" lon="3.35654">
        <ele>121.837647</ele>
        <time>2022-02-24T12:56:40.000Z</time>
      </trkpt>
      <trkpt lat="43.56709" lon="3.35648">
        <ele>121.939012</ele>
        <time>2022-02-24T12:56:41.000Z</time>
      </trkpt>
      <trkpt lat="43.56709" lon="3.35642">
        <ele>122.051331</ele>
        <time>2022-02-24T12:56:43.000Z</time>
      </trkpt>
      <trkpt lat="43.56708" lon="3.35636">
        <ele>122.157799</ele>
        <time>2022-02-24T12:56:44.000Z</time>
      </trkpt>
      <trkpt lat="43.56707" lon="3.3563">
        <ele>122.271294</ele>
        <time>2022-02-24T12:56:45.000Z</time>
      </trkpt>
      <trkpt lat="43.56706" lon="3.35625">
        <ele>122.380143</ele>
        <time>2022-02-24T12:56:46.000Z</time>
      </trkpt>
      <trkpt lat="43.56705" lon="3.35619">
        <ele>122.491861</ele>
        <time>2022-02-24T12:56:47.000Z</time>
      </trkpt>
      <trkpt lat="43.56704" lon="3.35612">
        <ele>122.618192</ele>
        <time>2022-02-24T12:56:49.000Z</time>
      </trkpt>
      <trkpt lat="43.56704" lon="3.35606">
        <ele>122.73397</ele>
        <time>2022-02-24T12:56:50.000Z</time>
      </trkpt>
      <trkpt lat="43.56703" lon="3.35599">
        <ele>122.853595</ele>
        <time>2022-02-24T12:56:51.000Z</time>
      </trkpt>
      <trkpt lat="43.56703" lon="3.35593">
        <ele>122.975048</ele>
        <time>2022-02-24T12:56:53.000Z</time>
      </trkpt>
      <trkpt lat="43.56702" lon="3.35587">
        <ele>123.16834</ele>
        <time>2022-02-24T12:56:54.000Z</time>
      </trkpt>
      <trkpt lat="43.56702" lon="3.35581">
        <ele>123.410179</ele>
        <time>2022-02-24T12:56:55.000Z</time>
      </trkpt>
      <trkpt lat="43.56702" lon="3.35575">
        <ele>123.652017</ele>
        <time>2022-02-24T12:56:56.000Z</time>
      </trkpt>
      <trkpt lat="43.56702" lon="3.35569">
        <ele>123.881764</ele>
        <time>2022-02-24T12:56:57.000Z</time>
      </trkpt>
      <trkpt lat="43.56702" lon="3.35563">
        <ele>124.10748</ele>
        <time>2022-02-24T12:56:58.000Z</time>
      </trkpt>
      <trkpt lat="43.56702" lon="3.35558">
        <ele>124.313043</ele>
        <time>2022-02-24T12:56:59.000Z</time>
      </trkpt>
      <trkpt lat="43.56702" lon="3.35553">
        <ele>124.510544</ele>
        <time>2022-02-24T12:57:00.000Z</time>
      </trkpt>
      <trkpt lat="43.56702" lon="3.35548">
        <ele>124.716107</ele>
        <time>2022-02-24T12:57:01.000Z</time>
      </trkpt>
      <trkpt lat="43.56702" lon="3.35543">
        <ele>124.917639</ele>
        <time>2022-02-24T12:57:02.000Z</time>
      </trkpt>
      <trkpt lat="43.56702" lon="3.35538">
        <ele>125.115141</ele>
        <time>2022-02-24T12:57:03.000Z</time>
      </trkpt>
      <trkpt lat="43.56702" lon="3.35534">
        <ele>125.308612</ele>
        <time>2022-02-24T12:57:04.000Z</time>
      </trkpt>
      <trkpt lat="43.56702" lon="3.35529">
        <ele>125.498052</ele>
        <time>2022-02-24T12:57:05.000Z</time>
      </trkpt>
      <trkpt lat="43.56702" lon="3.35524">
        <ele>125.691523</ele>
        <time>2022-02-24T12:57:06.000Z</time>
      </trkpt>
      <trkpt lat="43.56702" lon="3.35519">
        <ele>125.897086</ele>
        <time>2022-02-24T12:57:07.000Z</time>
      </trkpt>
      <trkpt lat="43.56702" lon="3.35514">
        <ele>126.086526</ele>
        <time>2022-02-24T12:57:08.000Z</time>
      </trkpt>
      <trkpt lat="43.56702" lon="3.35509">
        <ele>126.279997</ele>
        <time>2022-02-24T12:57:09.000Z</time>
      </trkpt>
      <trkpt lat="43.56702" lon="3.35505">
        <ele>126.465406</ele>
        <time>2022-02-24T12:57:10.000Z</time>
      </trkpt>
      <trkpt lat="43.56702" lon="3.355">
        <ele>126.646785</ele>
        <time>2022-02-24T12:57:11.000Z</time>
      </trkpt>
      <trkpt lat="43.56702" lon="3.35496">
        <ele>126.840256</ele>
        <time>2022-02-24T12:57:12.000Z</time>
      </trkpt>
      <trkpt lat="43.56702" lon="3.35491">
        <ele>127.037758</ele>
        <time>2022-02-24T12:57:13.000Z</time>
      </trkpt>
      <trkpt lat="43.56702" lon="3.35486">
        <ele>127.2285</ele>
        <time>2022-02-24T12:57:14.000Z</time>
      </trkpt>
      <trkpt lat="43.56702" lon="3.35481">
        <ele>127.442775</ele>
        <time>2022-02-24T12:57:16.000Z</time>
      </trkpt>
      <trkpt lat="43.56701" lon="3.35475">
        <ele>127.657555</ele>
        <time>2022-02-24T12:57:17.000Z</time>
      </trkpt>
      <trkpt lat="43.56701" lon="3.3547">
        <ele>127.879241</ele>
        <time>2022-02-24T12:57:18.000Z</time>
      </trkpt>
      <trkpt lat="43.56701" lon="3.35464">
        <ele>128.113018</ele>
        <time>2022-02-24T12:57:19.000Z</time>
      </trkpt>
      <trkpt lat="43.56701" lon="3.35458">
        <ele>128.350826</ele>
        <time>2022-02-24T12:57:20.000Z</time>
      </trkpt>
      <trkpt lat="43.56701" lon="3.35453">
        <ele>128.56445</ele>
        <time>2022-02-24T12:57:21.000Z</time>
      </trkpt>
      <trkpt lat="43.56702" lon="3.35447">
        <ele>128.811324</ele>
        <time>2022-02-24T12:57:23.000Z</time>
      </trkpt>
      <trkpt lat="43.56702" lon="3.35441">
        <ele>129.045696</ele>
        <time>2022-02-24T12:57:24.000Z</time>
      </trkpt>
      <trkpt lat="43.56702" lon="3.35435">
        <ele>129.268496</ele>
        <time>2022-02-24T12:57:25.000Z</time>
      </trkpt>
      <trkpt lat="43.56703" lon="3.3543">
        <ele>129.483276</ele>
        <time>2022-02-24T12:57:26.000Z</time>
      </trkpt>
      <trkpt lat="43.56703" lon="3.35425">
        <ele>129.698055</ele>
        <time>2022-02-24T12:57:28.000Z</time>
      </trkpt>
      <trkpt lat="43.56704" lon="3.3542">
        <ele>129.904819</ele>
        <time>2022-02-24T12:57:29.000Z</time>
      </trkpt>
      <trkpt lat="43.56704" lon="3.35415">
        <ele>130.114412</ele>
        <time>2022-02-24T12:57:30.000Z</time>
      </trkpt>
      <trkpt lat="43.56704" lon="3.3541">
        <ele>130.311914</ele>
        <time>2022-02-24T12:57:31.000Z</time>
      </trkpt>
      <trkpt lat="43.56704" lon="3.35405">
        <ele>130.501354</ele>
        <time>2022-02-24T12:57:32.000Z</time>
      </trkpt>
      <trkpt lat="43.56704" lon="3.354">
        <ele>130.698856</ele>
        <time>2022-02-24T12:57:33.000Z</time>
      </trkpt>
      <trkpt lat="43.56703" lon="3.35395">
        <ele>130.897607</ele>
        <time>2022-02-24T12:57:34.000Z</time>
      </trkpt>
      <trkpt lat="43.56703" lon="3.3539">
        <ele>131.088349</ele>
        <time>2022-02-24T12:57:35.000Z</time>
      </trkpt>
      <trkpt lat="43.56702" lon="3.35386">
        <ele>131.283095</ele>
        <time>2022-02-24T12:57:36.000Z</time>
      </trkpt>
      <trkpt lat="43.56702" lon="3.3538">
        <ele>131.496275</ele>
        <time>2022-02-24T12:57:37.000Z</time>
      </trkpt>
      <trkpt lat="43.56701" lon="3.35375">
        <ele>131.722384</ele>
        <time>2022-02-24T12:57:39.000Z</time>
      </trkpt>
      <trkpt lat="43.567" lon="3.35369">
        <ele>131.960359</ele>
        <time>2022-02-24T12:57:40.000Z</time>
      </trkpt>
      <trkpt lat="43.56699" lon="3.35363">
        <ele>132.205313</ele>
        <time>2022-02-24T12:57:41.000Z</time>
      </trkpt>
      <trkpt lat="43.56699" lon="3.35357">
        <ele>132.447249</ele>
        <time>2022-02-24T12:57:42.000Z</time>
      </trkpt>
      <trkpt lat="43.56698" lon="3.35352">
        <ele>132.650166</ele>
        <time>2022-02-24T12:57:44.000Z</time>
      </trkpt>
      <trkpt lat="43.56692" lon="3.35334">
        <ele>133.460844</ele>
        <time>2022-02-24T12:57:46.000Z</time>
      </trkpt>
      <trkpt lat="43.56686" lon="3.35314">
        <ele>134.323234</ele>
        <time>2022-02-24T12:57:48.000Z</time>
      </trkpt>
      <trkpt lat="43.56686" lon="3.35309">
        <ele>134.52486</ele>
        <time>2022-02-24T12:57:49.000Z</time>
      </trkpt>
      <trkpt lat="43.56685" lon="3.35306">
        <ele>134.65904</ele>
        <time>2022-02-24T12:57:50.000Z</time>
      </trkpt>
      <trkpt lat="43.56683" lon="3.35302">
        <ele>134.81511</ele>
        <time>2022-02-24T12:57:51.000Z</time>
      </trkpt>
      <trkpt lat="43.56681" lon="3.35299">
        <ele>134.990664</ele>
        <time>2022-02-24T12:57:52.000Z</time>
      </trkpt>
      <trkpt lat="43.56679" lon="3.35295">
        <ele>135.189421</ele>
        <time>2022-02-24T12:57:53.000Z</time>
      </trkpt>
      <trkpt lat="43.56677" lon="3.35291">
        <ele>135.387825</ele>
        <time>2022-02-24T12:57:54.000Z</time>
      </trkpt>
      <trkpt lat="43.56675" lon="3.35287">
        <ele>135.599157</ele>
        <time>2022-02-24T12:57:55.000Z</time>
      </trkpt>
      <trkpt lat="43.56672" lon="3.35283">
        <ele>135.813704</ele>
        <time>2022-02-24T12:57:56.000Z</time>
      </trkpt>
      <trkpt lat="43.5667" lon="3.35279">
        <ele>136.012462</ele>
        <time>2022-02-24T12:57:57.000Z</time>
      </trkpt>
      <trkpt lat="43.56669" lon="3.35274">
        <ele>136.214636</ele>
        <time>2022-02-24T12:57:58.000Z</time>
      </trkpt>
      <trkpt lat="43.56666" lon="3.3527">
        <ele>136.438986</ele>
        <time>2022-02-24T12:57:59.000Z</time>
      </trkpt>
      <trkpt lat="43.56664" lon="3.35265">
        <ele>136.676727</ele>
        <time>2022-02-24T12:58:01.000Z</time>
      </trkpt>
      <trkpt lat="43.56661" lon="3.35259">
        <ele>136.943408</ele>
        <time>2022-02-24T12:58:02.000Z</time>
      </trkpt>
      <trkpt lat="43.56659" lon="3.35253">
        <ele>137.220142</ele>
        <time>2022-02-24T12:58:04.000Z</time>
      </trkpt>
      <trkpt lat="43.56654" lon="3.35244">
        <ele>137.685877</ele>
        <time>2022-02-24T12:58:05.000Z</time>
      </trkpt>
      <trkpt lat="43.56652" lon="3.35239">
        <ele>137.916881</ele>
        <time>2022-02-24T12:58:07.000Z</time>
      </trkpt>
      <trkpt lat="43.56649" lon="3.35235">
        <ele>138.125024</ele>
        <time>2022-02-24T12:58:09.000Z</time>
      </trkpt>
      <trkpt lat="43.56648" lon="3.35231">
        <ele>138.317019</ele>
        <time>2022-02-24T12:58:10.000Z</time>
      </trkpt>
      <trkpt lat="43.56646" lon="3.35227">
        <ele>138.501392</ele>
        <time>2022-02-24T12:58:11.000Z</time>
      </trkpt>
      <trkpt lat="43.56645" lon="3.35222">
        <ele>138.679602</ele>
        <time>2022-02-24T12:58:13.000Z</time>
      </trkpt>
      <trkpt lat="43.56645" lon="3.35218">
        <ele>138.841692</ele>
        <time>2022-02-24T12:58:14.000Z</time>
      </trkpt>
      <trkpt lat="43.56644" lon="3.35214">
        <ele>139.01572</ele>
        <time>2022-02-24T12:58:15.000Z</time>
      </trkpt>
      <trkpt lat="43.56644" lon="3.3521">
        <ele>139.180303</ele>
        <time>2022-02-24T12:58:16.000Z</time>
      </trkpt>
      <trkpt lat="43.56644" lon="3.35206">
        <ele>139.340871</ele>
        <time>2022-02-24T12:58:17.000Z</time>
      </trkpt>
      <trkpt lat="43.56644" lon="3.35202">
        <ele>139.513482</ele>
        <time>2022-02-24T12:58:18.000Z</time>
      </trkpt>
      <trkpt lat="43.56645" lon="3.35197">
        <ele>139.683529</ele>
        <time>2022-02-24T12:58:20.000Z</time>
      </trkpt>
      <trkpt lat="43.56645" lon="3.35193">
        <ele>139.873494</ele>
        <time>2022-02-24T12:58:21.000Z</time>
      </trkpt>
      <trkpt lat="43.56646" lon="3.35188">
        <ele>140.059472</ele>
        <time>2022-02-24T12:58:22.000Z</time>
      </trkpt>
      <trkpt lat="43.56646" lon="3.35183">
        <ele>140.249437</ele>
        <time>2022-02-24T12:58:23.000Z</time>
      </trkpt>
      <trkpt lat="43.56646" lon="3.35179">
        <ele>140.438835</ele>
        <time>2022-02-24T12:58:25.000Z</time>
      </trkpt>
      <trkpt lat="43.56647" lon="3.35174">
        <ele>140.6288</ele>
        <time>2022-02-24T12:58:26.000Z</time>
      </trkpt>
      <trkpt lat="43.56647" lon="3.3517">
        <ele>140.80681</ele>
        <time>2022-02-24T12:58:27.000Z</time>
      </trkpt>
      <trkpt lat="43.56647" lon="3.35165">
        <ele>140.987449</ele>
        <time>2022-02-24T12:58:28.000Z</time>
      </trkpt>
      <trkpt lat="43.56648" lon="3.3516">
        <ele>141.18539</ele>
        <time>2022-02-24T12:58:30.000Z</time>
      </trkpt>
      <trkpt lat="43.56648" lon="3.35151">
        <ele>141.547347</ele>
        <time>2022-02-24T12:58:31.000Z</time>
      </trkpt>
      <trkpt lat="43.56648" lon="3.35147">
        <ele>141.723972</ele>
        <time>2022-02-24T12:58:33.000Z</time>
      </trkpt>
      <trkpt lat="43.56648" lon="3.35142">
        <ele>141.908626</ele>
        <time>2022-02-24T12:58:34.000Z</time>
      </trkpt>
      <trkpt lat="43.56648" lon="3.35138">
        <ele>142.085251</ele>
        <time>2022-02-24T12:58:35.000Z</time>
      </trkpt>
      <trkpt lat="43.56648" lon="3.35133">
        <ele>142.257862</ele>
        <time>2022-02-24T12:58:36.000Z</time>
      </trkpt>
      <trkpt lat="43.56648" lon="3.35129">
        <ele>142.430473</ele>
        <time>2022-02-24T12:58:37.000Z</time>
      </trkpt>
      <trkpt lat="43.56648" lon="3.35125">
        <ele>142.603084</ele>
        <time>2022-02-24T12:58:38.000Z</time>
      </trkpt>
      <trkpt lat="43.56648" lon="3.35121">
        <ele>142.775694</ele>
        <time>2022-02-24T12:58:39.000Z</time>
      </trkpt>
      <trkpt lat="43.56648" lon="3.35116">
        <ele>142.944291</ele>
        <time>2022-02-24T12:58:40.000Z</time>
      </trkpt>
      <trkpt lat="43.56648" lon="3.35112">
        <ele>143.143259</ele>
        <time>2022-02-24T12:58:42.000Z</time>
      </trkpt>
      <trkpt lat="43.56648" lon="3.35107">
        <ele>143.327266</ele>
        <time>2022-02-24T12:58:43.000Z</time>
      </trkpt>
      <trkpt lat="43.56648" lon="3.35103">
        <ele>143.494545</ele>
        <time>2022-02-24T12:58:44.000Z</time>
      </trkpt>
      <trkpt lat="43.56648" lon="3.351">
        <ele>143.645096</ele>
        <time>2022-02-24T12:58:45.000Z</time>
      </trkpt>
      <trkpt lat="43.56648" lon="3.35096">
        <ele>143.780896</ele>
        <time>2022-02-24T12:58:46.000Z</time>
      </trkpt>
      <trkpt lat="43.56647" lon="3.35093">
        <ele>143.912577</ele>
        <time>2022-02-24T12:58:47.000Z</time>
      </trkpt>
      <trkpt lat="43.56646" lon="3.3509">
        <ele>144.046263</ele>
        <time>2022-02-24T12:58:48.000Z</time>
      </trkpt>
      <trkpt lat="43.56646" lon="3.35087">
        <ele>144.178068</ele>
        <time>2022-02-24T12:58:49.000Z</time>
      </trkpt>
      <trkpt lat="43.56645" lon="3.35084">
        <ele>144.307837</ele>
        <time>2022-02-24T12:58:50.000Z</time>
      </trkpt>
      <trkpt lat="43.56644" lon="3.35081">
        <ele>144.441524</ele>
        <time>2022-02-24T12:58:51.000Z</time>
      </trkpt>
      <trkpt lat="43.56643" lon="3.35078">
        <ele>144.573328</ele>
        <time>2022-02-24T12:58:53.000Z</time>
      </trkpt>
      <trkpt lat="43.56643" lon="3.35075">
        <ele>144.707014</ele>
        <time>2022-02-24T12:58:54.000Z</time>
      </trkpt>
      <trkpt lat="43.56642" lon="3.35072">
        <ele>144.838818</ele>
        <time>2022-02-24T12:58:55.000Z</time>
      </trkpt>
      <trkpt lat="43.56641" lon="3.35069">
        <ele>144.968588</ele>
        <time>2022-02-24T12:58:56.000Z</time>
      </trkpt>
      <trkpt lat="43.5664" lon="3.35067">
        <ele>145.098358</ele>
        <time>2022-02-24T12:58:57.000Z</time>
      </trkpt>
      <trkpt lat="43.5664" lon="3.35064">
        <ele>145.226188</ele>
        <time>2022-02-24T12:58:58.000Z</time>
      </trkpt>
      <trkpt lat="43.56639" lon="3.35061">
        <ele>145.363806</ele>
        <time>2022-02-24T12:58:59.000Z</time>
      </trkpt>
      <trkpt lat="43.56638" lon="3.35057">
        <ele>145.501425</ele>
        <time>2022-02-24T12:59:00.000Z</time>
      </trkpt>
      <trkpt lat="43.56637" lon="3.35054">
        <ele>145.633229</ele>
        <time>2022-02-24T12:59:01.000Z</time>
      </trkpt>
      <trkpt lat="43.56636" lon="3.35051">
        <ele>145.786709</ele>
        <time>2022-02-24T12:59:03.000Z</time>
      </trkpt>
      <trkpt lat="43.56636" lon="3.35048">
        <ele>145.934525</ele>
        <time>2022-02-24T12:59:04.000Z</time>
      </trkpt>
      <trkpt lat="43.56635" lon="3.35044">
        <ele>146.07609</ele>
        <time>2022-02-24T12:59:05.000Z</time>
      </trkpt>
      <trkpt lat="43.56634" lon="3.35041">
        <ele>146.217656</ele>
        <time>2022-02-24T12:59:06.000Z</time>
      </trkpt>
      <trkpt lat="43.56633" lon="3.35038">
        <ele>146.34946</ele>
        <time>2022-02-24T12:59:07.000Z</time>
      </trkpt>
      <trkpt lat="43.56633" lon="3.35035">
        <ele>146.494985</ele>
        <time>2022-02-24T12:59:09.000Z</time>
      </trkpt>
      <trkpt lat="43.56632" lon="3.35031">
        <ele>146.644482</ele>
        <time>2022-02-24T12:59:10.000Z</time>
      </trkpt>
      <trkpt lat="43.56631" lon="3.35028">
        <ele>146.784271</ele>
        <time>2022-02-24T12:59:11.000Z</time>
      </trkpt>
      <trkpt lat="43.5663" lon="3.35025">
        <ele>146.917958</ele>
        <time>2022-02-24T12:59:12.000Z</time>
      </trkpt>
      <trkpt lat="43.5663" lon="3.35022">
        <ele>147.069801</ele>
        <time>2022-02-24T12:59:13.000Z</time>
      </trkpt>
      <trkpt lat="43.56629" lon="3.35018">
        <ele>147.219298</ele>
        <time>2022-02-24T12:59:14.000Z</time>
      </trkpt>
      <trkpt lat="43.56628" lon="3.35015">
        <ele>147.372777</ele>
        <time>2022-02-24T12:59:15.000Z</time>
      </trkpt>
      <trkpt lat="43.56627" lon="3.35012">
        <ele>147.516575</ele>
        <time>2022-02-24T12:59:16.000Z</time>
      </trkpt>
      <trkpt lat="43.56627" lon="3.35008">
        <ele>147.674049</ele>
        <time>2022-02-24T12:59:17.000Z</time>
      </trkpt>
      <trkpt lat="43.56625" lon="3.35004">
        <ele>147.837439</ele>
        <time>2022-02-24T12:59:18.000Z</time>
      </trkpt>
      <trkpt lat="43.56624" lon="3.35001">
        <ele>148.006966</ele>
        <time>2022-02-24T12:59:19.000Z</time>
      </trkpt>
      <trkpt lat="43.56623" lon="3.34997">
        <ele>148.184273</ele>
        <time>2022-02-24T12:59:21.000Z</time>
      </trkpt>
      <trkpt lat="43.56619" lon="3.3499">
        <ele>148.547189</ele>
        <time>2022-02-24T12:59:23.000Z</time>
      </trkpt>
      <trkpt lat="43.56617" lon="3.34986">
        <ele>148.736901</ele>
        <time>2022-02-24T12:59:24.000Z</time>
      </trkpt>
      <trkpt lat="43.56615" lon="3.34983">
        <ele>148.909916</ele>
        <time>2022-02-24T12:59:25.000Z</time>
      </trkpt>
      <trkpt lat="43.56614" lon="3.3498">
        <ele>149.073421</ele>
        <time>2022-02-24T12:59:26.000Z</time>
      </trkpt>
      <trkpt lat="43.56612" lon="3.34977">
        <ele>149.240052</ele>
        <time>2022-02-24T12:59:28.000Z</time>
      </trkpt>
      <trkpt lat="43.56609" lon="3.34973">
        <ele>149.447118</ele>
        <time>2022-02-24T12:59:29.000Z</time>
      </trkpt>
      <trkpt lat="43.56607" lon="3.34969">
        <ele>149.654184</ele>
        <time>2022-02-24T12:59:30.000Z</time>
      </trkpt>
      <trkpt lat="43.56605" lon="3.34964">
        <ele>149.898818</ele>
        <time>2022-02-24T12:59:32.000Z</time>
      </trkpt>
      <trkpt lat="43.56603" lon="3.34959">
        <ele>150.156169</ele>
        <time>2022-02-24T12:59:33.000Z</time>
      </trkpt>
      <trkpt lat="43.56601" lon="3.34954">
        <ele>150.399718</ele>
        <time>2022-02-24T12:59:34.000Z</time>
      </trkpt>
      <trkpt lat="43.56599" lon="3.34948">
        <ele>150.637673</ele>
        <time>2022-02-24T12:59:35.000Z</time>
      </trkpt>
      <trkpt lat="43.56598" lon="3.34943">
        <ele>150.900062</ele>
        <time>2022-02-24T12:59:37.000Z</time>
      </trkpt>
      <trkpt lat="43.56596" lon="3.34937">
        <ele>151.158658</ele>
        <time>2022-02-24T12:59:38.000Z</time>
      </trkpt>
      <trkpt lat="43.56594" lon="3.34931">
        <ele>151.436332</ele>
        <time>2022-02-24T12:59:40.000Z</time>
      </trkpt>
      <trkpt lat="43.56592" lon="3.34925">
        <ele>151.702526</ele>
        <time>2022-02-24T12:59:41.000Z</time>
      </trkpt>
      <trkpt lat="43.5659" lon="3.3492">
        <ele>151.940481</ele>
        <time>2022-02-24T12:59:42.000Z</time>
      </trkpt>
      <trkpt lat="43.56588" lon="3.34915">
        <ele>152.176593</ele>
        <time>2022-02-24T12:59:43.000Z</time>
      </trkpt>
      <trkpt lat="43.56586" lon="3.3491">
        <ele>152.417253</ele>
        <time>2022-02-24T12:59:44.000Z</time>
      </trkpt>
      <trkpt lat="43.56584" lon="3.34905">
        <ele>152.661412</ele>
        <time>2022-02-24T12:59:45.000Z</time>
      </trkpt>
      <trkpt lat="43.56582" lon="3.349">
        <ele>152.908704</ele>
        <time>2022-02-24T12:59:46.000Z</time>
      </trkpt>
      <trkpt lat="43.5658" lon="3.34894">
        <ele>153.1673</ele>
        <time>2022-02-24T12:59:48.000Z</time>
      </trkpt>
      <trkpt lat="43.56578" lon="3.34888">
        <ele>153.359076</ele>
        <time>2022-02-24T12:59:49.000Z</time>
      </trkpt>
      <trkpt lat="43.56577" lon="3.34883">
        <ele>153.325643</ele>
        <time>2022-02-24T12:59:50.000Z</time>
      </trkpt>
      <trkpt lat="43.56575" lon="3.34879">
        <ele>153.301218</ele>
        <time>2022-02-24T12:59:52.000Z</time>
      </trkpt>
      <trkpt lat="43.56571" lon="3.34858">
        <ele>153.182799</ele>
        <time>2022-02-24T12:59:53.000Z</time>
      </trkpt>
      <trkpt lat="43.5657" lon="3.34851">
        <ele>153.142019</ele>
        <time>2022-02-24T12:59:54.000Z</time>
      </trkpt>
      <trkpt lat="43.56569" lon="3.34846">
        <ele>153.114548</ele>
        <time>2022-02-24T12:59:55.000Z</time>
      </trkpt>
      <trkpt lat="43.56569" lon="3.34841">
        <ele>153.089208</ele>
        <time>2022-02-24T12:59:56.000Z</time>
      </trkpt>
      <trkpt lat="43.56568" lon="3.34836">
        <ele>153.061152</ele>
        <time>2022-02-24T12:59:57.000Z</time>
      </trkpt>
      <trkpt lat="43.56568" lon="3.34831">
        <ele>153.033259</ele>
        <time>2022-02-24T13:00:00.000Z</time>
      </trkpt>
      <trkpt lat="43.56568" lon="3.34798">
        <ele>152.855507</ele>
        <time>2022-02-24T13:00:02.000Z</time>
      </trkpt>
      <trkpt lat="43.56569" lon="3.34793">
        <ele>152.825275</ele>
        <time>2022-02-24T13:00:04.000Z</time>
      </trkpt>
      <trkpt lat="43.56571" lon="3.34765">
        <ele>152.674037</ele>
        <time>2022-02-24T13:00:06.000Z</time>
      </trkpt>
      <trkpt lat="43.56572" lon="3.34763">
        <ele>152.662161</ele>
        <time>2022-02-24T13:00:08.000Z</time>
      </trkpt>
      <trkpt lat="43.56575" lon="3.34739">
        <ele>152.524059</ele>
        <time>2022-02-24T13:00:10.000Z</time>
      </trkpt>
      <trkpt lat="43.56576" lon="3.34737">
        <ele>152.512183</ele>
        <time>2022-02-24T13:00:12.000Z</time>
      </trkpt>
      <trkpt lat="43.56581" lon="3.34712">
        <ele>152.375283</ele>
        <time>2022-02-24T13:00:14.000Z</time>
      </trkpt>
      <trkpt lat="43.56582" lon="3.34704">
        <ele>152.326846</ele>
        <time>2022-02-24T13:00:16.000Z</time>
      </trkpt>
      <trkpt lat="43.56582" lon="3.34702">
        <ele>152.31497</ele>
        <time>2022-02-24T13:00:18.000Z</time>
      </trkpt>
      <trkpt lat="43.56587" lon="3.3468">
        <ele>152.194149</ele>
        <time>2022-02-24T13:00:20.000Z</time>
      </trkpt>
      <trkpt lat="43.56587" lon="3.34679">
        <ele>152.184851</ele>
        <time>2022-02-24T13:00:22.000Z</time>
      </trkpt>
      <trkpt lat="43.56589" lon="3.34659">
        <ele>152.07724</ele>
        <time>2022-02-24T13:00:24.000Z</time>
      </trkpt>
      <trkpt lat="43.56587" lon="3.34659">
        <ele>152.065452</ele>
        <time>2022-02-24T13:00:26.000Z</time>
      </trkpt>
      <trkpt lat="43.56586" lon="3.34657">
        <ele>152.054868</ele>
        <time>2022-02-24T13:00:27.000Z</time>
      </trkpt>
      <trkpt lat="43.56586" lon="3.34655">
        <ele>152.040331</ele>
        <time>2022-02-24T13:00:28.000Z</time>
      </trkpt>
      <trkpt lat="43.56587" lon="3.3465">
        <ele>152.014874</ele>
        <time>2022-02-24T13:00:30.000Z</time>
      </trkpt>
      <trkpt lat="43.56596" lon="3.34611">
        <ele>153.228912</ele>
        <time>2022-02-24T13:00:32.000Z</time>
      </trkpt>
      <trkpt lat="43.56597" lon="3.34607">
        <ele>153.379196</ele>
        <time>2022-02-24T13:00:34.000Z</time>
      </trkpt>
      <trkpt lat="43.566" lon="3.34591">
        <ele>153.874325</ele>
        <time>2022-02-24T13:00:36.000Z</time>
      </trkpt>
      <trkpt lat="43.56604" lon="3.34574">
        <ele>154.401126</ele>
        <time>2022-02-24T13:00:37.000Z</time>
      </trkpt>
      <trkpt lat="43.56605" lon="3.34572">
        <ele>154.499889</ele>
        <time>2022-02-24T13:00:38.000Z</time>
      </trkpt>
      <trkpt lat="43.56607" lon="3.34569">
        <ele>154.613233</ele>
        <time>2022-02-24T13:00:39.000Z</time>
      </trkpt>
      <trkpt lat="43.56608" lon="3.34565">
        <ele>154.751985</ele>
        <time>2022-02-24T13:00:41.000Z</time>
      </trkpt>
      <trkpt lat="43.56609" lon="3.3456">
        <ele>154.900746</ele>
        <time>2022-02-24T13:00:42.000Z</time>
      </trkpt>
      <trkpt lat="43.5661" lon="3.34556">
        <ele>155.034845</ele>
        <time>2022-02-24T13:00:44.000Z</time>
      </trkpt>
      <trkpt lat="43.56614" lon="3.34539">
        <ele>155.578472</ele>
        <time>2022-02-24T13:00:46.000Z</time>
      </trkpt>
      <trkpt lat="43.56618" lon="3.34522">
        <ele>156.133625</ele>
        <time>2022-02-24T13:00:47.000Z</time>
      </trkpt>
      <trkpt lat="43.56618" lon="3.3452">
        <ele>156.179416</ele>
        <time>2022-02-24T13:00:48.000Z</time>
      </trkpt>
      <trkpt lat="43.56618" lon="3.34519">
        <ele>156.230916</ele>
        <time>2022-02-24T13:00:49.000Z</time>
      </trkpt>
      <trkpt lat="43.56619" lon="3.34516">
        <ele>156.322496</ele>
        <time>2022-02-24T13:00:50.000Z</time>
      </trkpt>
      <trkpt lat="43.56621" lon="3.34512">
        <ele>156.465492</ele>
        <time>2022-02-24T13:00:51.000Z</time>
      </trkpt>
      <trkpt lat="43.56623" lon="3.34507">
        <ele>156.629251</ele>
        <time>2022-02-24T13:00:53.000Z</time>
      </trkpt>
      <trkpt lat="43.56625" lon="3.34503">
        <ele>156.796811</ele>
        <time>2022-02-24T13:00:54.000Z</time>
      </trkpt>
      <trkpt lat="43.56627" lon="3.34498">
        <ele>156.947468</ele>
        <time>2022-02-24T13:00:55.000Z</time>
      </trkpt>
      <trkpt lat="43.56629" lon="3.34494">
        <ele>157.098124</ele>
        <time>2022-02-24T13:00:56.000Z</time>
      </trkpt>
      <trkpt lat="43.56631" lon="3.3449">
        <ele>157.255894</ele>
        <time>2022-02-24T13:00:57.000Z</time>
      </trkpt>
      <trkpt lat="43.56633" lon="3.34486">
        <ele>157.41127</ele>
        <time>2022-02-24T13:00:58.000Z</time>
      </trkpt>
      <trkpt lat="43.56636" lon="3.34482">
        <ele>157.56904</ele>
        <time>2022-02-24T13:00:59.000Z</time>
      </trkpt>
      <trkpt lat="43.56638" lon="3.34478">
        <ele>157.724275</ele>
        <time>2022-02-24T13:01:00.000Z</time>
      </trkpt>
      <trkpt lat="43.56641" lon="3.34474">
        <ele>157.8884</ele>
        <time>2022-02-24T13:01:02.000Z</time>
      </trkpt>
      <trkpt lat="43.56643" lon="3.34471">
        <ele>158.043952</ele>
        <time>2022-02-24T13:01:03.000Z</time>
      </trkpt>
      <trkpt lat="43.56646" lon="3.34467">
        <ele>158.183274</ele>
        <time>2022-02-24T13:01:04.000Z</time>
      </trkpt>
      <trkpt lat="43.56648" lon="3.34464">
        <ele>158.331607</ele>
        <time>2022-02-24T13:01:05.000Z</time>
      </trkpt>
      <trkpt lat="43.56651" lon="3.34461">
        <ele>158.477167</ele>
        <time>2022-02-24T13:01:06.000Z</time>
      </trkpt>
      <trkpt lat="43.56654" lon="3.34458">
        <ele>158.624653</ele>
        <time>2022-02-24T13:01:08.000Z</time>
      </trkpt>
      <trkpt lat="43.56656" lon="3.34455">
        <ele>158.759655</ele>
        <time>2022-02-24T13:01:09.000Z</time>
      </trkpt>
      <trkpt lat="43.56658" lon="3.34452">
        <ele>158.8968</ele>
        <time>2022-02-24T13:01:10.000Z</time>
      </trkpt>
      <trkpt lat="43.56661" lon="3.34448">
        <ele>159.042838</ele>
        <time>2022-02-24T13:01:11.000Z</time>
      </trkpt>
      <trkpt lat="43.56663" lon="3.34444">
        <ele>159.186132</ele>
        <time>2022-02-24T13:01:12.000Z</time>
      </trkpt>
      <trkpt lat="43.56665" lon="3.34441">
        <ele>159.336788</ele>
        <time>2022-02-24T13:01:13.000Z</time>
      </trkpt>
      <trkpt lat="43.56667" lon="3.34437">
        <ele>159.492163</ele>
        <time>2022-02-24T13:01:14.000Z</time>
      </trkpt>
      <trkpt lat="43.5667" lon="3.34432">
        <ele>159.917746</ele>
        <time>2022-02-24T13:01:15.000Z</time>
      </trkpt>
      <trkpt lat="43.56672" lon="3.34429">
        <ele>160.486731</ele>
        <time>2022-02-24T13:01:16.000Z</time>
      </trkpt>
      <trkpt lat="43.56674" lon="3.34426">
        <ele>160.963424</ele>
        <time>2022-02-24T13:01:17.000Z</time>
      </trkpt>
      <trkpt lat="43.56675" lon="3.34424">
        <ele>161.386204</ele>
        <time>2022-02-24T13:01:18.000Z</time>
      </trkpt>
      <trkpt lat="43.56677" lon="3.34421">
        <ele>161.810087</ele>
        <time>2022-02-24T13:01:19.000Z</time>
      </trkpt>
      <trkpt lat="43.56678" lon="3.34419">
        <ele>162.213429</ele>
        <time>2022-02-24T13:01:20.000Z</time>
      </trkpt>
      <trkpt lat="43.56681" lon="3.34416">
        <ele>162.71552</ele>
        <time>2022-02-24T13:01:21.000Z</time>
      </trkpt>
      <trkpt lat="43.56683" lon="3.34414">
        <ele>163.238549</ele>
        <time>2022-02-24T13:01:23.000Z</time>
      </trkpt>
      <trkpt lat="43.56686" lon="3.34412">
        <ele>163.764074</ele>
        <time>2022-02-24T13:01:24.000Z</time>
      </trkpt>
      <trkpt lat="43.56689" lon="3.3441">
        <ele>164.327447</ele>
        <time>2022-02-24T13:01:25.000Z</time>
      </trkpt>
      <trkpt lat="43.56692" lon="3.34409">
        <ele>164.790334</ele>
        <time>2022-02-24T13:01:27.000Z</time>
      </trkpt>
      <trkpt lat="43.56694" lon="3.34408">
        <ele>165.200328</ele>
        <time>2022-02-24T13:01:28.000Z</time>
      </trkpt>
      <trkpt lat="43.56696" lon="3.34408">
        <ele>165.537586</ele>
        <time>2022-02-24T13:01:29.000Z</time>
      </trkpt>
      <trkpt lat="43.56698" lon="3.34407">
        <ele>165.821932</ele>
        <time>2022-02-24T13:01:30.000Z</time>
      </trkpt>
      <trkpt lat="43.56699" lon="3.34407">
        <ele>166.089766</ele>
        <time>2022-02-24T13:01:31.000Z</time>
      </trkpt>
      <trkpt lat="43.567" lon="3.34406">
        <ele>166.284853</ele>
        <time>2022-02-24T13:01:32.000Z</time>
      </trkpt>
      <trkpt lat="43.56702" lon="3.34406">
        <ele>166.560373</ele>
        <time>2022-02-24T13:01:34.000Z</time>
      </trkpt>
      <trkpt lat="43.56703" lon="3.34406">
        <ele>166.818819</ele>
        <time>2022-02-24T13:01:35.000Z</time>
      </trkpt>
      <trkpt lat="43.56705" lon="3.34405">
        <ele>167.078754</ele>
        <time>2022-02-24T13:01:36.000Z</time>
      </trkpt>
      <trkpt lat="43.56706" lon="3.34405">
        <ele>167.343398</ele>
        <time>2022-02-24T13:01:37.000Z</time>
      </trkpt>
      <trkpt lat="43.56708" lon="3.34404">
        <ele>167.677666</ele>
        <time>2022-02-24T13:01:38.000Z</time>
      </trkpt>
      <trkpt lat="43.56721" lon="3.34398">
        <ele>169.97178</ele>
        <time>2022-02-24T13:02:00.000Z</time>
      </trkpt>
      <trkpt lat="43.56722" lon="3.34397">
        <ele>170.165448</ele>
        <time>2022-02-24T13:02:02.000Z</time>
      </trkpt>
      <trkpt lat="43.56722" lon="3.34396">
        <ele>170.329518</ele>
        <time>2022-02-24T13:02:03.000Z</time>
      </trkpt>
      <trkpt lat="43.56724" lon="3.34395">
        <ele>170.63074</ele>
        <time>2022-02-24T13:02:04.000Z</time>
      </trkpt>
      <trkpt lat="43.56725" lon="3.34394">
        <ele>170.916428</ele>
        <time>2022-02-24T13:02:05.000Z</time>
      </trkpt>
      <trkpt lat="43.56727" lon="3.34393">
        <ele>171.274773</ele>
        <time>2022-02-24T13:02:07.000Z</time>
      </trkpt>
      <trkpt lat="43.5673" lon="3.34391">
        <ele>171.711042</ele>
        <time>2022-02-24T13:02:08.000Z</time>
      </trkpt>
      <trkpt lat="43.56732" lon="3.3439">
        <ele>172.142148</ele>
        <time>2022-02-24T13:02:09.000Z</time>
      </trkpt>
      <trkpt lat="43.56734" lon="3.34389">
        <ele>172.568391</ele>
        <time>2022-02-24T13:02:10.000Z</time>
      </trkpt>
      <trkpt lat="43.56737" lon="3.34388">
        <ele>173.034767</ele>
        <time>2022-02-24T13:02:12.000Z</time>
      </trkpt>
      <trkpt lat="43.5675" lon="3.3438">
        <ele>175.451197</ele>
        <time>2022-02-24T13:02:42.000Z</time>
      </trkpt>
      <trkpt lat="43.5675" lon="3.3438">
        <ele>175.52416</ele>
        <time>2022-02-24T13:02:43.000Z</time>
      </trkpt>
      <trkpt lat="43.56751" lon="3.3438">
        <ele>175.608873</ele>
        <time>2022-02-24T13:02:44.000Z</time>
      </trkpt>
      <trkpt lat="43.56751" lon="3.34379">
        <ele>175.701427</ele>
        <time>2022-02-24T13:02:45.000Z</time>
      </trkpt>
      <trkpt lat="43.56752" lon="3.34378">
        <ele>175.865496</ele>
        <time>2022-02-24T13:02:46.000Z</time>
      </trkpt>
      <trkpt lat="43.56753" lon="3.34377">
        <ele>176.088922</ele>
        <time>2022-02-24T13:02:47.000Z</time>
      </trkpt>
      <trkpt lat="43.56754" lon="3.34377">
        <ele>176.347367</ele>
        <time>2022-02-24T13:02:49.000Z</time>
      </trkpt>
      <trkpt lat="43.56758" lon="3.34377">
        <ele>177.003312</ele>
        <time>2022-02-24T13:02:51.000Z</time>
      </trkpt>
      <trkpt lat="43.5676" lon="3.34376">
        <ele>177.400878</ele>
        <time>2022-02-24T13:02:52.000Z</time>
      </trkpt>
      <trkpt lat="43.56763" lon="3.34376">
        <ele>177.797082</ele>
        <time>2022-02-24T13:02:54.000Z</time>
      </trkpt>
      <trkpt lat="43.56774" lon="3.34375">
        <ele>179.753151</ele>
        <time>2022-02-24T13:03:01.000Z</time>
      </trkpt>
      <trkpt lat="43.56777" lon="3.34375">
        <ele>180.217695</ele>
        <time>2022-02-24T13:03:03.000Z</time>
      </trkpt>
      <trkpt lat="43.5678" lon="3.34375">
        <ele>180.681408</ele>
        <time>2022-02-24T13:03:04.000Z</time>
      </trkpt>
      <trkpt lat="43.56781" lon="3.34375">
        <ele>181.007492</ele>
        <time>2022-02-24T13:03:05.000Z</time>
      </trkpt>
      <trkpt lat="43.56783" lon="3.34375">
        <ele>181.19614</ele>
        <time>2022-02-24T13:03:06.000Z</time>
      </trkpt>
      <trkpt lat="43.56784" lon="3.34375">
        <ele>181.401938</ele>
        <time>2022-02-24T13:03:07.000Z</time>
      </trkpt>
      <trkpt lat="43.56785" lon="3.34375">
        <ele>181.590995</ele>
        <time>2022-02-24T13:03:08.000Z</time>
      </trkpt>
      <trkpt lat="43.56786" lon="3.34375">
        <ele>181.798288</ele>
        <time>2022-02-24T13:03:09.000Z</time>
      </trkpt>
      <trkpt lat="43.56787" lon="3.34375">
        <ele>181.920883</ele>
        <time>2022-02-24T13:03:10.000Z</time>
      </trkpt>
      <trkpt lat="43.56788" lon="3.34374">
        <ele>182.060314</ele>
        <time>2022-02-24T13:03:11.000Z</time>
      </trkpt>
      <trkpt lat="43.56788" lon="3.34374">
        <ele>182.186018</ele>
        <time>2022-02-24T13:03:12.000Z</time>
      </trkpt>
      <trkpt lat="43.56789" lon="3.34374">
        <ele>182.328191</ele>
        <time>2022-02-24T13:03:14.000Z</time>
      </trkpt>
      <trkpt lat="43.5679" lon="3.34374">
        <ele>182.534364</ele>
        <time>2022-02-24T13:03:15.000Z</time>
      </trkpt>
      <trkpt lat="43.56791" lon="3.34374">
        <ele>182.660067</ele>
        <time>2022-02-24T13:03:16.000Z</time>
      </trkpt>
      <trkpt lat="43.56791" lon="3.34375">
        <ele>182.744781</ele>
        <time>2022-02-24T13:03:18.000Z</time>
      </trkpt>
      <trkpt lat="43.56792" lon="3.34375">
        <ele>182.822855</ele>
        <time>2022-02-24T13:03:19.000Z</time>
      </trkpt>
      <trkpt lat="43.56792" lon="3.34375">
        <ele>182.847707</ele>
        <time>2022-02-24T13:03:20.000Z</time>
      </trkpt>
      <trkpt lat="43.56794" lon="3.34374">
        <ele>183.30455</ele>
        <time>2022-02-24T13:03:25.000Z</time>
      </trkpt>
      <trkpt lat="43.56795" lon="3.34374">
        <ele>183.373149</ele>
        <time>2022-02-24T13:03:26.000Z</time>
      </trkpt>
      <trkpt lat="43.56795" lon="3.34374">
        <ele>183.441748</ele>
        <time>2022-02-24T13:03:27.000Z</time>
      </trkpt>
      <trkpt lat="43.56796" lon="3.34374">
        <ele>183.510348</ele>
        <time>2022-02-24T13:03:28.000Z</time>
      </trkpt>
      <trkpt lat="43.56797" lon="3.34374">
        <ele>183.699405</ele>
        <time>2022-02-24T13:03:30.000Z</time>
      </trkpt>
      <trkpt lat="43.56803" lon="3.34376">
        <ele>184.76666</ele>
        <time>2022-02-24T13:03:42.000Z</time>
      </trkpt>
      <trkpt lat="43.56803" lon="3.34376">
        <ele>184.791512</ele>
        <time>2022-02-24T13:03:43.000Z</time>
      </trkpt>
      <trkpt lat="43.56804" lon="3.34376">
        <ele>184.99731</ele>
        <time>2022-02-24T13:03:45.000Z</time>
      </trkpt>
      <trkpt lat="43.56805" lon="3.34376">
        <ele>185.255756</ele>
        <time>2022-02-24T13:03:46.000Z</time>
      </trkpt>
      <trkpt lat="43.56807" lon="3.34376">
        <ele>185.582549</ele>
        <time>2022-02-24T13:03:47.000Z</time>
      </trkpt>
      <trkpt lat="43.56809" lon="3.34377">
        <ele>185.850383</ele>
        <time>2022-02-24T13:03:48.000Z</time>
      </trkpt>
      <trkpt lat="43.56811" lon="3.34378">
        <ele>186.211151</ele>
        <time>2022-02-24T13:03:50.000Z</time>
      </trkpt>
      <trkpt lat="43.56813" lon="3.34379">
        <ele>186.694436</ele>
        <time>2022-02-24T13:03:51.000Z</time>
      </trkpt>
      <trkpt lat="43.56815" lon="3.3438">
        <ele>186.922986</ele>
        <time>2022-02-24T13:03:53.000Z</time>
      </trkpt>
      <trkpt lat="43.56816" lon="3.34381">
        <ele>187.142292</ele>
        <time>2022-02-24T13:03:54.000Z</time>
      </trkpt>
      <trkpt lat="43.56817" lon="3.34382">
        <ele>187.422797</ele>
        <time>2022-02-24T13:03:55.000Z</time>
      </trkpt>
      <trkpt lat="43.56819" lon="3.34383">
        <ele>187.724019</ele>
        <time>2022-02-24T13:03:56.000Z</time>
      </trkpt>
      <trkpt lat="43.5682" lon="3.34384">
        <ele>188.034566</ele>
        <time>2022-02-24T13:03:57.000Z</time>
      </trkpt>
      <trkpt lat="43.56838" lon="3.34394">
        <ele>190.271859</ele>
        <time>2022-02-24T13:04:23.000Z</time>
      </trkpt>
      <trkpt lat="43.56838" lon="3.34395">
        <ele>190.264626</ele>
        <time>2022-02-24T13:04:24.000Z</time>
      </trkpt>
      <trkpt lat="43.56839" lon="3.34395">
        <ele>190.252299</ele>
        <time>2022-02-24T13:04:25.000Z</time>
      </trkpt>
      <trkpt lat="43.56839" lon="3.34395">
        <ele>190.23201</ele>
        <time>2022-02-24T13:04:27.000Z</time>
      </trkpt>
      <trkpt lat="43.5684" lon="3.34396">
        <ele>190.214448</ele>
        <time>2022-02-24T13:04:28.000Z</time>
      </trkpt>
      <trkpt lat="43.56841" lon="3.34396">
        <ele>190.184446</ele>
        <time>2022-02-24T13:04:29.000Z</time>
      </trkpt>
      <trkpt lat="43.56842" lon="3.34396">
        <ele>190.166977</ele>
        <time>2022-02-24T13:04:30.000Z</time>
      </trkpt>
      <trkpt lat="43.56843" lon="3.34396">
        <ele>190.136976</ele>
        <time>2022-02-24T13:04:31.000Z</time>
      </trkpt>
      <trkpt lat="43.56846" lon="3.34395">
        <ele>190.077316</ele>
        <time>2022-02-24T13:04:33.000Z</time>
      </trkpt>
      <trkpt lat="43.56847" lon="3.34393">
        <ele>190.033114</ele>
        <time>2022-02-24T13:04:34.000Z</time>
      </trkpt>
      <trkpt lat="43.56849" lon="3.34392">
        <ele>189.985804</ele>
        <time>2022-02-24T13:04:35.000Z</time>
      </trkpt>
      <trkpt lat="43.5685" lon="3.3439">
        <ele>189.936013</ele>
        <time>2022-02-24T13:04:36.000Z</time>
      </trkpt>
      <trkpt lat="43.5685" lon="3.34386">
        <ele>189.866868</ele>
        <time>2022-02-24T13:04:37.000Z</time>
      </trkpt>
      <trkpt lat="43.56851" lon="3.34382">
        <ele>189.80223</ele>
        <time>2022-02-24T13:04:39.000Z</time>
      </trkpt>
      <trkpt lat="43.56852" lon="3.3438">
        <ele>189.748852</ele>
        <time>2022-02-24T13:04:40.000Z</time>
      </trkpt>
      <trkpt lat="43.56854" lon="3.34375">
        <ele>189.641762</ele>
        <time>2022-02-24T13:04:42.000Z</time>
      </trkpt>
      <trkpt lat="43.56855" lon="3.34372">
        <ele>189.584171</ele>
        <time>2022-02-24T13:04:43.000Z</time>
      </trkpt>
      <trkpt lat="43.56856" lon="3.34369">
        <ele>189.533095</ele>
        <time>2022-02-24T13:04:44.000Z</time>
      </trkpt>
      <trkpt lat="43.56856" lon="3.34368">
        <ele>189.509589</ele>
        <time>2022-02-24T13:04:46.000Z</time>
      </trkpt>
      <trkpt lat="43.56856" lon="3.34347">
        <ele>189.13161</ele>
        <time>2022-02-24T13:09:44.000Z</time>
      </trkpt>
      <trkpt lat="43.56854" lon="3.34343">
        <ele>189.045127</ele>
        <time>2022-02-24T13:09:46.000Z</time>
      </trkpt>
      <trkpt lat="43.56851" lon="3.34337">
        <ele>188.919198</ele>
        <time>2022-02-24T13:09:47.000Z</time>
      </trkpt>
      <trkpt lat="43.5685" lon="3.34336">
        <ele>188.872972</ele>
        <time>2022-02-24T13:09:49.000Z</time>
      </trkpt>
      <trkpt lat="43.56848" lon="3.34334">
        <ele>188.825695</ele>
        <time>2022-02-24T13:09:50.000Z</time>
      </trkpt>
      <trkpt lat="43.56847" lon="3.34334">
        <ele>188.796178</ele>
        <time>2022-02-24T13:09:52.000Z</time>
      </trkpt>
      <trkpt lat="43.5684" lon="3.34331">
        <ele>188.613939</ele>
        <time>2022-02-24T13:09:53.000Z</time>
      </trkpt>
      <trkpt lat="43.56836" lon="3.34328">
        <ele>188.511102</ele>
        <time>2022-02-24T13:09:55.000Z</time>
      </trkpt>
      <trkpt lat="43.56833" lon="3.34327">
        <ele>188.43084</ele>
        <time>2022-02-24T13:09:56.000Z</time>
      </trkpt>
      <trkpt lat="43.56831" lon="3.34325">
        <ele>188.356011</ele>
        <time>2022-02-24T13:09:57.000Z</time>
      </trkpt>
      <trkpt lat="43.56828" lon="3.34323">
        <ele>188.277765</ele>
        <time>2022-02-24T13:09:58.000Z</time>
      </trkpt>
      <trkpt lat="43.56825" lon="3.3432">
        <ele>188.183144</ele>
        <time>2022-02-24T13:09:59.000Z</time>
      </trkpt>
      <trkpt lat="43.56821" lon="3.34316">
        <ele>188.070886</ele>
        <time>2022-02-24T13:10:01.000Z</time>
      </trkpt>
      <trkpt lat="43.56818" lon="3.34312">
        <ele>187.968037</ele>
        <time>2022-02-24T13:10:02.000Z</time>
      </trkpt>
      <trkpt lat="43.56816" lon="3.34307">
        <ele>187.862393</ele>
        <time>2022-02-24T13:10:04.000Z</time>
      </trkpt>
      <trkpt lat="43.56813" lon="3.34303">
        <ele>187.767199</ele>
        <time>2022-02-24T13:10:05.000Z</time>
      </trkpt>
      <trkpt lat="43.56811" lon="3.34299">
        <ele>187.672005</ele>
        <time>2022-02-24T13:10:06.000Z</time>
      </trkpt>
      <trkpt lat="43.5681" lon="3.34297">
        <ele>187.622174</ele>
        <time>2022-02-24T13:10:08.000Z</time>
      </trkpt>
      <trkpt lat="43.56807" lon="3.34287">
        <ele>187.440351</ele>
        <time>2022-02-24T13:10:10.000Z</time>
      </trkpt>
      <trkpt lat="43.56804" lon="3.34275">
        <ele>187.207371</ele>
        <time>2022-02-24T13:10:12.000Z</time>
      </trkpt>
      <trkpt lat="43.56803" lon="3.34271">
        <ele>187.128981</ele>
        <time>2022-02-24T13:10:13.000Z</time>
      </trkpt>
      <trkpt lat="43.56803" lon="3.34268">
        <ele>187.066698</ele>
        <time>2022-02-24T13:10:14.000Z</time>
      </trkpt>
      <trkpt lat="43.56803" lon="3.34264">
        <ele>187.000843</ele>
        <time>2022-02-24T13:10:16.000Z</time>
      </trkpt>
      <trkpt lat="43.56803" lon="3.34261">
        <ele>186.942981</ele>
        <time>2022-02-24T13:10:17.000Z</time>
      </trkpt>
      <trkpt lat="43.56803" lon="3.34257">
        <ele>186.874271</ele>
        <time>2022-02-24T13:10:18.000Z</time>
      </trkpt>
      <trkpt lat="43.56803" lon="3.34252">
        <ele>186.78567</ele>
        <time>2022-02-24T13:10:20.000Z</time>
      </trkpt>
      <trkpt lat="43.56803" lon="3.34247">
        <ele>186.693453</ele>
        <time>2022-02-24T13:10:21.000Z</time>
      </trkpt>
      <trkpt lat="43.56803" lon="3.34242">
        <ele>186.594004</ele>
        <time>2022-02-24T13:10:22.000Z</time>
      </trkpt>
      <trkpt lat="43.56803" lon="3.34235">
        <ele>186.479653</ele>
        <time>2022-02-24T13:10:23.000Z</time>
      </trkpt>
      <trkpt lat="43.56802" lon="3.3423">
        <ele>186.376484</ele>
        <time>2022-02-24T13:10:26.000Z</time>
      </trkpt>
      <trkpt lat="43.56793" lon="3.34191">
        <ele>184.936645</ele>
        <time>2022-02-24T13:10:28.000Z</time>
      </trkpt>
      <trkpt lat="43.56792" lon="3.34187">
        <ele>184.625439</ele>
        <time>2022-02-24T13:10:30.000Z</time>
      </trkpt>
      <trkpt lat="43.5679" lon="3.34157">
        <ele>182.668837</ele>
        <time>2022-02-24T13:10:32.000Z</time>
      </trkpt>
      <trkpt lat="43.56789" lon="3.34154">
        <ele>182.509112</ele>
        <time>2022-02-24T13:10:34.000Z</time>
      </trkpt>
      <trkpt lat="43.56784" lon="3.34127">
        <ele>180.647734</ele>
        <time>2022-02-24T13:10:36.000Z</time>
      </trkpt>
      <trkpt lat="43.56783" lon="3.34124">
        <ele>180.470479</ele>
        <time>2022-02-24T13:10:38.000Z</time>
      </trkpt>
      <trkpt lat="43.56776" lon="3.34096">
        <ele>178.543477</ele>
        <time>2022-02-24T13:10:40.000Z</time>
      </trkpt>
      <trkpt lat="43.56773" lon="3.34085">
        <ele>177.790045</ele>
        <time>2022-02-24T13:10:42.000Z</time>
      </trkpt>
      <trkpt lat="43.56772" lon="3.34083">
        <ele>177.618703</ele>
        <time>2022-02-24T13:10:44.000Z</time>
      </trkpt>
      <trkpt lat="43.56763" lon="3.34066">
        <ele>176.294827</ele>
        <time>2022-02-24T13:10:46.000Z</time>
      </trkpt>
      <trkpt lat="43.56749" lon="3.34042">
        <ele>174.250782</ele>
        <time>2022-02-24T13:10:48.000Z</time>
      </trkpt>
      <trkpt lat="43.56747" lon="3.34041">
        <ele>174.087779</ele>
        <time>2022-02-24T13:10:50.000Z</time>
      </trkpt>
      <trkpt lat="43.56736" lon="3.34035">
        <ele>173.036011</ele>
        <time>2022-02-24T13:10:52.000Z</time>
      </trkpt>
      <trkpt lat="43.56715" lon="3.34023">
        <ele>170.96342</ele>
        <time>2022-02-24T13:10:54.000Z</time>
      </trkpt>
      <trkpt lat="43.56705" lon="3.34016">
        <ele>169.967701</ele>
        <time>2022-02-24T13:10:56.000Z</time>
      </trkpt>
      <trkpt lat="43.56702" lon="3.34014">
        <ele>169.721172</ele>
        <time>2022-02-24T13:10:58.000Z</time>
      </trkpt>
      <trkpt lat="43.56669" lon="3.33991">
        <ele>166.922583</ele>
        <time>2022-02-24T13:11:00.000Z</time>
      </trkpt>
      <trkpt lat="43.56667" lon="3.33989">
        <ele>166.718628</ele>
        <time>2022-02-24T13:11:02.000Z</time>
      </trkpt>
      <trkpt lat="43.56651" lon="3.33979">
        <ele>165.452356</ele>
        <time>2022-02-24T13:11:04.000Z</time>
      </trkpt>
      <trkpt lat="43.56626" lon="3.33973">
        <ele>163.501151</ele>
        <time>2022-02-24T13:11:06.000Z</time>
      </trkpt>
      <trkpt lat="43.56623" lon="3.33973">
        <ele>163.32712</ele>
        <time>2022-02-24T13:11:08.000Z</time>
      </trkpt>
      <trkpt lat="43.56599" lon="3.33973">
        <ele>161.525388</ele>
        <time>2022-02-24T13:11:10.000Z</time>
      </trkpt>
      <trkpt lat="43.56598" lon="3.33971">
        <ele>161.393097</ele>
        <time>2022-02-24T13:11:12.000Z</time>
      </trkpt>
      <trkpt lat="43.56591" lon="3.33944">
        <ele>159.77418</ele>
        <time>2022-02-24T13:11:14.000Z</time>
      </trkpt>
      <trkpt lat="43.5659" lon="3.3393">
        <ele>159.027109</ele>
        <time>2022-02-24T13:11:16.000Z</time>
      </trkpt>
      <trkpt lat="43.5659" lon="3.33926">
        <ele>158.842163</ele>
        <time>2022-02-24T13:11:18.000Z</time>
      </trkpt>
      <trkpt lat="43.56591" lon="3.33903">
        <ele>157.572056</ele>
        <time>2022-02-24T13:11:20.000Z</time>
      </trkpt>
      <trkpt lat="43.56592" lon="3.33865">
        <ele>155.846559</ele>
        <time>2022-02-24T13:11:22.000Z</time>
      </trkpt>
      <trkpt lat="43.56592" lon="3.33862">
        <ele>155.747571</ele>
        <time>2022-02-24T13:11:24.000Z</time>
      </trkpt>
      <trkpt lat="43.5659" lon="3.33827">
        <ele>154.626831</ele>
        <time>2022-02-24T13:11:26.000Z</time>
      </trkpt>
      <trkpt lat="43.5659" lon="3.33824">
        <ele>154.519992</ele>
        <time>2022-02-24T13:11:28.000Z</time>
      </trkpt>
      <trkpt lat="43.56584" lon="3.33786">
        <ele>153.271478</ele>
        <time>2022-02-24T13:11:30.000Z</time>
      </trkpt>
      <trkpt lat="43.56583" lon="3.33783">
        <ele>153.162055</ele>
        <time>2022-02-24T13:11:32.000Z</time>
      </trkpt>
      <trkpt lat="43.5657" lon="3.33754">
        <ele>152.082315</ele>
        <time>2022-02-24T13:11:34.000Z</time>
      </trkpt>
      <trkpt lat="43.56569" lon="3.33752">
        <ele>152.005908</ele>
        <time>2022-02-24T13:11:36.000Z</time>
      </trkpt>
      <trkpt lat="43.56559" lon="3.33746">
        <ele>151.528117</ele>
        <time>2022-02-24T13:11:38.000Z</time>
      </trkpt>
      <trkpt lat="43.56542" lon="3.33734">
        <ele>150.704027</ele>
        <time>2022-02-24T13:11:40.000Z</time>
      </trkpt>
      <trkpt lat="43.56542" lon="3.33732">
        <ele>150.643907</ele>
        <time>2022-02-24T13:11:42.000Z</time>
      </trkpt>
      <trkpt lat="43.5654" lon="3.33715">
        <ele>150.100956</ele>
        <time>2022-02-24T13:11:44.000Z</time>
      </trkpt>
      <trkpt lat="43.5654" lon="3.33714">
        <ele>150.055857</ele>
        <time>2022-02-24T13:11:46.000Z</time>
      </trkpt>
      <trkpt lat="43.56537" lon="3.33699">
        <ele>149.569394</ele>
        <time>2022-02-24T13:11:48.000Z</time>
      </trkpt>
      <trkpt lat="43.56536" lon="3.33693">
        <ele>149.372745</ele>
        <time>2022-02-24T13:11:50.000Z</time>
      </trkpt>
      <trkpt lat="43.56535" lon="3.33692">
        <ele>149.321706</ele>
        <time>2022-02-24T13:11:52.000Z</time>
      </trkpt>
      <trkpt lat="43.56531" lon="3.33675">
        <ele>148.746772</ele>
        <time>2022-02-24T13:11:54.000Z</time>
      </trkpt>
      <trkpt lat="43.56529" lon="3.33669">
        <ele>148.536612</ele>
        <time>2022-02-24T13:11:56.000Z</time>
      </trkpt>
      <trkpt lat="43.56529" lon="3.33667">
        <ele>148.491513</ele>
        <time>2022-02-24T13:11:58.000Z</time>
      </trkpt>
      <trkpt lat="43.56526" lon="3.33652">
        <ele>148.700256</ele>
        <time>2022-02-24T13:12:00.000Z</time>
      </trkpt>
      <trkpt lat="43.56525" lon="3.3365">
        <ele>148.728853</ele>
        <time>2022-02-24T13:12:02.000Z</time>
      </trkpt>
      <trkpt lat="43.56519" lon="3.3364">
        <ele>149.059932</ele>
        <time>2022-02-24T13:12:04.000Z</time>
      </trkpt>
      <trkpt lat="43.56515" lon="3.33638">
        <ele>149.178448</ele>
        <time>2022-02-24T13:12:06.000Z</time>
      </trkpt>
      <trkpt lat="43.56514" lon="3.33637">
        <ele>149.210128</ele>
        <time>2022-02-24T13:12:08.000Z</time>
      </trkpt>
      <trkpt lat="43.56508" lon="3.33629">
        <ele>149.488096</ele>
        <time>2022-02-24T13:12:10.000Z</time>
      </trkpt>
      <trkpt lat="43.56503" lon="3.33619">
        <ele>149.764838</ele>
        <time>2022-02-24T13:12:12.000Z</time>
      </trkpt>
      <trkpt lat="43.56495" lon="3.33604">
        <ele>150.197765</ele>
        <time>2022-02-24T13:12:14.000Z</time>
      </trkpt>
      <trkpt lat="43.56495" lon="3.33602">
        <ele>150.239193</ele>
        <time>2022-02-24T13:12:16.000Z</time>
      </trkpt>
      <trkpt lat="43.56485" lon="3.33588">
        <ele>150.693403</ele>
        <time>2022-02-24T13:12:18.000Z</time>
      </trkpt>
      <trkpt lat="43.56485" lon="3.33587">
        <ele>150.717934</ele>
        <time>2022-02-24T13:12:20.000Z</time>
      </trkpt>
      <trkpt lat="43.56481" lon="3.33579">
        <ele>150.932482</ele>
        <time>2022-02-24T13:12:22.000Z</time>
      </trkpt>
      <trkpt lat="43.56477" lon="3.33569">
        <ele>151.203057</ele>
        <time>2022-02-24T13:12:24.000Z</time>
      </trkpt>
      <trkpt lat="43.56473" lon="3.3356">
        <ele>151.457227</ele>
        <time>2022-02-24T13:12:26.000Z</time>
      </trkpt>
      <trkpt lat="43.56469" lon="3.33551">
        <ele>151.694557</ele>
        <time>2022-02-24T13:12:28.000Z</time>
      </trkpt>
      <trkpt lat="43.56465" lon="3.33539">
        <ele>151.99171</ele>
        <time>2022-02-24T13:12:30.000Z</time>
      </trkpt>
      <trkpt lat="43.56465" lon="3.33538">
        <ele>152.025632</ele>
        <time>2022-02-24T13:12:32.000Z</time>
      </trkpt>
      <trkpt lat="43.56458" lon="3.33522">
        <ele>152.450295</ele>
        <time>2022-02-24T13:12:34.000Z</time>
      </trkpt>
      <trkpt lat="43.56457" lon="3.3352">
        <ele>152.510629</ele>
        <time>2022-02-24T13:12:35.000Z</time>
      </trkpt>
      <trkpt lat="43.56456" lon="3.33519">
        <ele>152.550151</ele>
        <time>2022-02-24T13:12:38.000Z</time>
      </trkpt>
      <trkpt lat="43.56449" lon="3.33508">
        <ele>152.881233</ele>
        <time>2022-02-24T13:12:40.000Z</time>
      </trkpt>
      <trkpt lat="43.56447" lon="3.33505">
        <ele>152.986603</ele>
        <time>2022-02-24T13:12:42.000Z</time>
      </trkpt>
      <trkpt lat="43.56441" lon="3.33495">
        <ele>153.285029</ele>
        <time>2022-02-24T13:12:43.000Z</time>
      </trkpt>
      <trkpt lat="43.56438" lon="3.33491">
        <ele>153.42206</ele>
        <time>2022-02-24T13:12:45.000Z</time>
      </trkpt>
      <trkpt lat="43.56435" lon="3.33487">
        <ele>153.539265</ele>
        <time>2022-02-24T13:12:46.000Z</time>
      </trkpt>
      <trkpt lat="43.56434" lon="3.33484">
        <ele>153.633606</ele>
        <time>2022-02-24T13:12:47.000Z</time>
      </trkpt>
      <trkpt lat="43.56431" lon="3.3348">
        <ele>153.752255</ele>
        <time>2022-02-24T13:12:50.000Z</time>
      </trkpt>
      <trkpt lat="43.56416" lon="3.33453">
        <ele>154.044017</ele>
        <time>2022-02-24T13:12:52.000Z</time>
      </trkpt>
      <trkpt lat="43.56413" lon="3.33447">
        <ele>153.997391</ele>
        <time>2022-02-24T13:12:54.000Z</time>
      </trkpt>
      <trkpt lat="43.56397" lon="3.33419">
        <ele>153.756347</ele>
        <time>2022-02-24T13:12:56.000Z</time>
      </trkpt>
      <trkpt lat="43.5639" lon="3.33409">
        <ele>153.670359</ele>
        <time>2022-02-24T13:12:58.000Z</time>
      </trkpt>
      <trkpt lat="43.56389" lon="3.33407">
        <ele>153.650837</ele>
        <time>2022-02-24T13:13:00.000Z</time>
      </trkpt>
      <trkpt lat="43.5638" lon="3.33389">
        <ele>153.502829</ele>
        <time>2022-02-24T13:13:02.000Z</time>
      </trkpt>
      <trkpt lat="43.56367" lon="3.33359">
        <ele>153.268802</ele>
        <time>2022-02-24T13:13:04.000Z</time>
      </trkpt>
      <trkpt lat="43.56366" lon="3.33357">
        <ele>153.250858</ele>
        <time>2022-02-24T13:13:06.000Z</time>
      </trkpt>
      <trkpt lat="43.56358" lon="3.33332">
        <ele>153.067511</ele>
        <time>2022-02-24T13:13:08.000Z</time>
      </trkpt>
      <trkpt lat="43.56357" lon="3.33329">
        <ele>153.049567</ele>
        <time>2022-02-24T13:13:10.000Z</time>
      </trkpt>
      <trkpt lat="43.56353" lon="3.33316">
        <ele>152.952709</ele>
        <time>2022-02-24T13:13:12.000Z</time>
      </trkpt>
      <trkpt lat="43.56344" lon="3.33293">
        <ele>152.776675</ele>
        <time>2022-02-24T13:13:14.000Z</time>
      </trkpt>
      <trkpt lat="43.56343" lon="3.33291">
        <ele>152.76138</ele>
        <time>2022-02-24T13:13:16.000Z</time>
      </trkpt>
      <trkpt lat="43.56337" lon="3.33279">
        <ele>152.664755</ele>
        <time>2022-02-24T13:13:18.000Z</time>
      </trkpt>
      <trkpt lat="43.56329" lon="3.33257">
        <ele>152.497673</ele>
        <time>2022-02-24T13:13:20.000Z</time>
      </trkpt>
      <trkpt lat="43.56326" lon="3.33247">
        <ele>152.823967</ele>
        <time>2022-02-24T13:13:22.000Z</time>
      </trkpt>
      <trkpt lat="43.56324" lon="3.33237">
        <ele>153.198115</ele>
        <time>2022-02-24T13:13:24.000Z</time>
      </trkpt>
      <trkpt lat="43.56324" lon="3.33234">
        <ele>153.279968</ele>
        <time>2022-02-24T13:13:26.000Z</time>
      </trkpt>
      <trkpt lat="43.56317" lon="3.33203">
        <ele>154.349411</ele>
        <time>2022-02-24T13:13:28.000Z</time>
      </trkpt>
      <trkpt lat="43.56317" lon="3.33201">
        <ele>154.428029</ele>
        <time>2022-02-24T13:13:30.000Z</time>
      </trkpt>
      <trkpt lat="43.56314" lon="3.33186">
        <ele>154.93883</ele>
        <time>2022-02-24T13:13:32.000Z</time>
      </trkpt>
      <trkpt lat="43.56309" lon="3.33161">
        <ele>155.807252</ele>
        <time>2022-02-24T13:13:34.000Z</time>
      </trkpt>
      <trkpt lat="43.56308" lon="3.33159">
        <ele>155.878394</ele>
        <time>2022-02-24T13:13:36.000Z</time>
      </trkpt>
      <trkpt lat="43.56304" lon="3.33136">
        <ele>156.684269</ele>
        <time>2022-02-24T13:13:38.000Z</time>
      </trkpt>
      <trkpt lat="43.56303" lon="3.33133">
        <ele>156.756439</ele>
        <time>2022-02-24T13:13:40.000Z</time>
      </trkpt>
      <trkpt lat="43.56301" lon="3.3312">
        <ele>157.223857</ele>
        <time>2022-02-24T13:13:42.000Z</time>
      </trkpt>
      <trkpt lat="43.56298" lon="3.33105">
        <ele>157.731126</ele>
        <time>2022-02-24T13:13:44.000Z</time>
      </trkpt>
      <trkpt lat="43.56297" lon="3.33088">
        <ele>158.293743</ele>
        <time>2022-02-24T13:13:46.000Z</time>
      </trkpt>
      <trkpt lat="43.56297" lon="3.33081">
        <ele>158.523816</ele>
        <time>2022-02-24T13:13:48.000Z</time>
      </trkpt>
      <trkpt lat="43.56297" lon="3.33079">
        <ele>158.590292</ele>
        <time>2022-02-24T13:13:50.000Z</time>
      </trkpt>
      <trkpt lat="43.563" lon="3.33054">
        <ele>159.440277</ele>
        <time>2022-02-24T13:13:52.000Z</time>
      </trkpt>
      <trkpt lat="43.563" lon="3.33051">
        <ele>159.547524</ele>
        <time>2022-02-24T13:13:53.000Z</time>
      </trkpt>
      <trkpt lat="43.563" lon="3.3305">
        <ele>159.598728</ele>
        <time>2022-02-24T13:13:54.000Z</time>
      </trkpt>
      <trkpt lat="43.56299" lon="3.33047">
        <ele>159.689564</ele>
        <time>2022-02-24T13:13:55.000Z</time>
      </trkpt>
      <trkpt lat="43.56298" lon="3.33044">
        <ele>159.803851</ele>
        <time>2022-02-24T13:13:56.000Z</time>
      </trkpt>
      <trkpt lat="43.56298" lon="3.33039">
        <ele>159.950097</ele>
        <time>2022-02-24T13:13:57.000Z</time>
      </trkpt>
      <trkpt lat="43.56298" lon="3.33034">
        <ele>160.120167</ele>
        <time>2022-02-24T13:13:59.000Z</time>
      </trkpt>
      <trkpt lat="43.56299" lon="3.33023">
        <ele>160.499521</ele>
        <time>2022-02-24T13:14:01.000Z</time>
      </trkpt>
      <trkpt lat="43.56299" lon="3.33017">
        <ele>160.698948</ele>
        <time>2022-02-24T13:14:02.000Z</time>
      </trkpt>
      <trkpt lat="43.56298" lon="3.33012">
        <ele>160.882664</ele>
        <time>2022-02-24T13:14:04.000Z</time>
      </trkpt>
      <trkpt lat="43.56291" lon="3.32994">
        <ele>161.666166</ele>
        <time>2022-02-24T13:14:06.000Z</time>
      </trkpt>
      <trkpt lat="43.56278" lon="3.32971">
        <ele>162.751485</ele>
        <time>2022-02-24T13:14:08.000Z</time>
      </trkpt>
      <trkpt lat="43.56276" lon="3.32969">
        <ele>162.893363</ele>
        <time>2022-02-24T13:14:09.000Z</time>
      </trkpt>
      <trkpt lat="43.56274" lon="3.32968">
        <ele>163.009527</ele>
        <time>2022-02-24T13:14:10.000Z</time>
      </trkpt>
      <trkpt lat="43.56271" lon="3.32966">
        <ele>163.137593</ele>
        <time>2022-02-24T13:14:11.000Z</time>
      </trkpt>
      <trkpt lat="43.56269" lon="3.32964">
        <ele>163.297521</ele>
        <time>2022-02-24T13:14:12.000Z</time>
      </trkpt>
      <trkpt lat="43.56266" lon="3.32961">
        <ele>163.478429</ele>
        <time>2022-02-24T13:14:13.000Z</time>
      </trkpt>
      <trkpt lat="43.56265" lon="3.32957">
        <ele>163.645406</ele>
        <time>2022-02-24T13:14:14.000Z</time>
      </trkpt>
      <trkpt lat="43.56264" lon="3.32953">
        <ele>163.820633</ele>
        <time>2022-02-24T13:14:15.000Z</time>
      </trkpt>
      <trkpt lat="43.56264" lon="3.32948">
        <ele>163.987031</ele>
        <time>2022-02-24T13:14:18.000Z</time>
      </trkpt>
      <trkpt lat="43.56265" lon="3.32928">
        <ele>164.773762</ele>
        <time>2022-02-24T13:14:19.000Z</time>
      </trkpt>
      <trkpt lat="43.56267" lon="3.32922">
        <ele>165.00141</ele>
        <time>2022-02-24T13:14:20.000Z</time>
      </trkpt>
      <trkpt lat="43.56268" lon="3.32918">
        <ele>165.166749</ele>
        <time>2022-02-24T13:14:21.000Z</time>
      </trkpt>
      <trkpt lat="43.56269" lon="3.32914">
        <ele>165.323676</ele>
        <time>2022-02-24T13:14:22.000Z</time>
      </trkpt>
      <trkpt lat="43.56269" lon="3.32909">
        <ele>165.493855</ele>
        <time>2022-02-24T13:14:23.000Z</time>
      </trkpt>
      <trkpt lat="43.56268" lon="3.32904">
        <ele>165.691612</ele>
        <time>2022-02-24T13:14:25.000Z</time>
      </trkpt>
      <trkpt lat="43.56268" lon="3.32898">
        <ele>165.918609</ele>
        <time>2022-02-24T13:14:26.000Z</time>
      </trkpt>
      <trkpt lat="43.56266" lon="3.32892">
        <ele>166.174723</ele>
        <time>2022-02-24T13:14:28.000Z</time>
      </trkpt>
      <trkpt lat="43.56265" lon="3.32885">
        <ele>166.428391</ele>
        <time>2022-02-24T13:14:29.000Z</time>
      </trkpt>
      <trkpt lat="43.56265" lon="3.32879">
        <ele>166.65822</ele>
        <time>2022-02-24T13:14:30.000Z</time>
      </trkpt>
      <trkpt lat="43.56264" lon="3.32874">
        <ele>166.874075</ele>
        <time>2022-02-24T13:14:31.000Z</time>
      </trkpt>
      <trkpt lat="43.56263" lon="3.32868">
        <ele>167.098174</ele>
        <time>2022-02-24T13:14:32.000Z</time>
      </trkpt>
      <trkpt lat="43.56263" lon="3.32862">
        <ele>167.329393</ele>
        <time>2022-02-24T13:14:33.000Z</time>
      </trkpt>
      <trkpt lat="43.56263" lon="3.32855">
        <ele>167.563863</ele>
        <time>2022-02-24T13:14:35.000Z</time>
      </trkpt>
      <trkpt lat="43.56263" lon="3.32849">
        <ele>167.794551</ele>
        <time>2022-02-24T13:14:36.000Z</time>
      </trkpt>
      <trkpt lat="43.56263" lon="3.32846">
        <ele>167.938259</ele>
        <time>2022-02-24T13:14:38.000Z</time>
      </trkpt>
      <trkpt lat="43.56263" lon="3.32825">
        <ele>168.717584</ele>
        <time>2022-02-24T13:14:39.000Z</time>
      </trkpt>
      <trkpt lat="43.56262" lon="3.32818">
        <ele>168.994441</ele>
        <time>2022-02-24T13:14:40.000Z</time>
      </trkpt>
      <trkpt lat="43.56262" lon="3.32813">
        <ele>169.187312</ele>
        <time>2022-02-24T13:14:41.000Z</time>
      </trkpt>
      <trkpt lat="43.56262" lon="3.32808">
        <ele>169.365055</ele>
        <time>2022-02-24T13:14:42.000Z</time>
      </trkpt>
      <trkpt lat="43.56263" lon="3.32803">
        <ele>169.536511</ele>
        <time>2022-02-24T13:14:43.000Z</time>
      </trkpt>
      <trkpt lat="43.56264" lon="3.32799">
        <ele>169.712533</ele>
        <time>2022-02-24T13:14:44.000Z</time>
      </trkpt>
      <trkpt lat="43.56266" lon="3.32794">
        <ele>169.923889</ele>
        <time>2022-02-24T13:14:46.000Z</time>
      </trkpt>
      <trkpt lat="43.56269" lon="3.3279">
        <ele>170.156433</ele>
        <time>2022-02-24T13:14:47.000Z</time>
      </trkpt>
      <trkpt lat="43.56271" lon="3.32785">
        <ele>170.458977</ele>
        <time>2022-02-24T13:14:48.000Z</time>
      </trkpt>
      <trkpt lat="43.56273" lon="3.32779">
        <ele>170.770238</ele>
        <time>2022-02-24T13:14:49.000Z</time>
      </trkpt>
      <trkpt lat="43.56274" lon="3.32773">
        <ele>171.08965</ele>
        <time>2022-02-24T13:14:50.000Z</time>
      </trkpt>
      <trkpt lat="43.56276" lon="3.32767">
        <ele>171.400866</ele>
        <time>2022-02-24T13:14:52.000Z</time>
      </trkpt>
      <trkpt lat="43.56276" lon="3.32761">
        <ele>171.723932</ele>
        <time>2022-02-24T13:14:53.000Z</time>
      </trkpt>
      <trkpt lat="43.56276" lon="3.32755">
        <ele>172.031735</ele>
        <time>2022-02-24T13:14:54.000Z</time>
      </trkpt>
      <trkpt lat="43.56276" lon="3.32749">
        <ele>172.317809</ele>
        <time>2022-02-24T13:14:55.000Z</time>
      </trkpt>
      <trkpt lat="43.56276" lon="3.32744">
        <ele>172.608991</ele>
        <time>2022-02-24T13:14:56.000Z</time>
      </trkpt>
      <trkpt lat="43.56276" lon="3.32738">
        <ele>172.920607</ele>
        <time>2022-02-24T13:14:58.000Z</time>
      </trkpt>
      <trkpt lat="43.56276" lon="3.32731">
        <ele>173.248762</ele>
        <time>2022-02-24T13:14:59.000Z</time>
      </trkpt>
      <trkpt lat="43.56276" lon="3.32725">
        <ele>173.556565</ele>
        <time>2022-02-24T13:15:00.000Z</time>
      </trkpt>
      <trkpt lat="43.56275" lon="3.32719">
        <ele>173.873995</ele>
        <time>2022-02-24T13:15:01.000Z</time>
      </trkpt>
      <trkpt lat="43.56275" lon="3.32713">
        <ele>174.191972</ele>
        <time>2022-02-24T13:15:03.000Z</time>
      </trkpt>
      <trkpt lat="43.56275" lon="3.32707">
        <ele>174.49848</ele>
        <time>2022-02-24T13:15:04.000Z</time>
      </trkpt>
      <trkpt lat="43.56274" lon="3.32701">
        <ele>174.816458</ele>
        <time>2022-02-24T13:15:06.000Z</time>
      </trkpt>
      <trkpt lat="43.56274" lon="3.32694">
        <ele>175.134435</ele>
        <time>2022-02-24T13:15:07.000Z</time>
      </trkpt>
      <trkpt lat="43.56274" lon="3.32688">
        <ele>175.442238</ele>
        <time>2022-02-24T13:15:08.000Z</time>
      </trkpt>
      <trkpt lat="43.56273" lon="3.32682">
        <ele>175.790256</ele>
        <time>2022-02-24T13:15:10.000Z</time>
      </trkpt>
      <trkpt lat="43.56273" lon="3.32675">
        <ele>176.118412</ele>
        <time>2022-02-24T13:15:11.000Z</time>
      </trkpt>
      <trkpt lat="43.56273" lon="3.32669">
        <ele>176.446568</ele>
        <time>2022-02-24T13:15:12.000Z</time>
      </trkpt>
      <trkpt lat="43.56272" lon="3.32663">
        <ele>176.749283</ele>
        <time>2022-02-24T13:15:13.000Z</time>
      </trkpt>
      <trkpt lat="43.56272" lon="3.32657">
        <ele>177.036744</ele>
        <time>2022-02-24T13:15:14.000Z</time>
      </trkpt>
      <trkpt lat="43.56271" lon="3.32652">
        <ele>177.318505</ele>
        <time>2022-02-24T13:15:15.000Z</time>
      </trkpt>
      <trkpt lat="43.56271" lon="3.32647">
        <ele>177.585637</ele>
        <time>2022-02-24T13:15:16.000Z</time>
      </trkpt>
      <trkpt lat="43.56271" lon="3.32642">
        <ele>177.830844</ele>
        <time>2022-02-24T13:15:17.000Z</time>
      </trkpt>
      <trkpt lat="43.56271" lon="3.32637">
        <ele>178.087819</ele>
        <time>2022-02-24T13:15:18.000Z</time>
      </trkpt>
      <trkpt lat="43.5627" lon="3.32632">
        <ele>178.344794</ele>
        <time>2022-02-24T13:15:19.000Z</time>
      </trkpt>
      <trkpt lat="43.5627" lon="3.32627">
        <ele>178.591617</ele>
        <time>2022-02-24T13:15:20.000Z</time>
      </trkpt>
      <trkpt lat="43.56269" lon="3.32622">
        <ele>178.873994</ele>
        <time>2022-02-24T13:15:22.000Z</time>
      </trkpt>
      <trkpt lat="43.56269" lon="3.32615">
        <ele>179.196522</ele>
        <time>2022-02-24T13:15:24.000Z</time>
      </trkpt>
      <trkpt lat="43.56269" lon="3.32611">
        <ele>179.392681</ele>
        <time>2022-02-24T13:15:26.000Z</time>
      </trkpt>
      <trkpt lat="43.56267" lon="3.32593">
        <ele>180.326966</ele>
        <time>2022-02-24T13:15:27.000Z</time>
      </trkpt>
      <trkpt lat="43.56266" lon="3.32587">
        <ele>180.658737</ele>
        <time>2022-02-24T13:15:28.000Z</time>
      </trkpt>
      <trkpt lat="43.56265" lon="3.32577">
        <ele>181.147308</ele>
        <time>2022-02-24T13:15:30.000Z</time>
      </trkpt>
      <trkpt lat="43.56265" lon="3.32572">
        <ele>181.412472</ele>
        <time>2022-02-24T13:15:32.000Z</time>
      </trkpt>
      <trkpt lat="43.56264" lon="3.32568">
        <ele>181.664081</ele>
        <time>2022-02-24T13:15:33.000Z</time>
      </trkpt>
      <trkpt lat="43.56263" lon="3.32563">
        <ele>181.910904</ele>
        <time>2022-02-24T13:15:34.000Z</time>
      </trkpt>
      <trkpt lat="43.56263" lon="3.32557">
        <ele>182.19187</ele>
        <time>2022-02-24T13:15:36.000Z</time>
      </trkpt>
      <trkpt lat="43.56263" lon="3.32551">
        <ele>182.513704</ele>
        <time>2022-02-24T13:15:37.000Z</time>
      </trkpt>
      <trkpt lat="43.56264" lon="3.32545">
        <ele>182.818221</ele>
        <time>2022-02-24T13:15:38.000Z</time>
      </trkpt>
      <trkpt lat="43.56264" lon="3.32539">
        <ele>182.985542</ele>
        <time>2022-02-24T13:15:39.000Z</time>
      </trkpt>
      <trkpt lat="43.56265" lon="3.32533">
        <ele>183.147509</ele>
        <time>2022-02-24T13:15:40.000Z</time>
      </trkpt>
      <trkpt lat="43.56265" lon="3.32527">
        <ele>183.314831</ele>
        <time>2022-02-24T13:15:42.000Z</time>
      </trkpt>
      <trkpt lat="43.56265" lon="3.3252">
        <ele>183.481864</ele>
        <time>2022-02-24T13:15:43.000Z</time>
      </trkpt>
      <trkpt lat="43.56266" lon="3.32514">
        <ele>183.643831</ele>
        <time>2022-02-24T13:15:44.000Z</time>
      </trkpt>
      <trkpt lat="43.56266" lon="3.32509">
        <ele>183.789745</ele>
        <time>2022-02-24T13:15:45.000Z</time>
      </trkpt>
      <trkpt lat="43.56266" lon="3.32503">
        <ele>183.938333</ele>
        <time>2022-02-24T13:15:46.000Z</time>
      </trkpt>
      <trkpt lat="43.56267" lon="3.32497">
        <ele>184.1003</ele>
        <time>2022-02-24T13:15:48.000Z</time>
      </trkpt>
      <trkpt lat="43.56267" lon="3.32494">
        <ele>184.20352</ele>
        <time>2022-02-24T13:15:50.000Z</time>
      </trkpt>
      <trkpt lat="43.56268" lon="3.32475">
        <ele>184.698812</ele>
        <time>2022-02-24T13:15:51.000Z</time>
      </trkpt>
      <trkpt lat="43.56268" lon="3.32468">
        <ele>184.890242</ele>
        <time>2022-02-24T13:15:52.000Z</time>
      </trkpt>
      <trkpt lat="43.56269" lon="3.32463">
        <ele>185.022792</ele>
        <time>2022-02-24T13:15:53.000Z</time>
      </trkpt>
      <trkpt lat="43.56269" lon="3.32459">
        <ele>185.138381</ele>
        <time>2022-02-24T13:15:54.000Z</time>
      </trkpt>
      <trkpt lat="43.56269" lon="3.32454">
        <ele>185.276274</ele>
        <time>2022-02-24T13:15:56.000Z</time>
      </trkpt>
      <trkpt lat="43.56269" lon="3.32449">
        <ele>185.40846</ele>
        <time>2022-02-24T13:15:57.000Z</time>
      </trkpt>
      <trkpt lat="43.5627" lon="3.32444">
        <ele>185.5517</ele>
        <time>2022-02-24T13:15:58.000Z</time>
      </trkpt>
      <trkpt lat="43.56271" lon="3.32438">
        <ele>185.718338</ele>
        <time>2022-02-24T13:16:00.000Z</time>
      </trkpt>
      <trkpt lat="43.56271" lon="3.32431">
        <ele>185.898218</ele>
        <time>2022-02-24T13:16:01.000Z</time>
      </trkpt>
      <trkpt lat="43.56272" lon="3.32425">
        <ele>186.058927</ele>
        <time>2022-02-24T13:16:02.000Z</time>
      </trkpt>
      <trkpt lat="43.56273" lon="3.32419">
        <ele>186.218484</ele>
        <time>2022-02-24T13:16:03.000Z</time>
      </trkpt>
      <trkpt lat="43.56274" lon="3.32414">
        <ele>186.369268</ele>
        <time>2022-02-24T13:16:04.000Z</time>
      </trkpt>
      <trkpt lat="43.56276" lon="3.32408">
        <ele>186.52783</ele>
        <time>2022-02-24T13:16:05.000Z</time>
      </trkpt>
      <trkpt lat="43.56277" lon="3.32403">
        <ele>186.687387</ele>
        <time>2022-02-24T13:16:07.000Z</time>
      </trkpt>
      <trkpt lat="43.56278" lon="3.32397">
        <ele>186.85115</ele>
        <time>2022-02-24T13:16:08.000Z</time>
      </trkpt>
      <trkpt lat="43.56279" lon="3.32391">
        <ele>187.004581</ele>
        <time>2022-02-24T13:16:09.000Z</time>
      </trkpt>
      <trkpt lat="43.56279" lon="3.32386">
        <ele>187.152741</ele>
        <time>2022-02-24T13:16:10.000Z</time>
      </trkpt>
      <trkpt lat="43.5628" lon="3.32381">
        <ele>187.282248</ele>
        <time>2022-02-24T13:16:11.000Z</time>
      </trkpt>
      <trkpt lat="43.5628" lon="3.32376">
        <ele>187.409457</ele>
        <time>2022-02-24T13:16:12.000Z</time>
      </trkpt>
      <trkpt lat="43.5628" lon="3.32372">
        <ele>187.520663</ele>
        <time>2022-02-24T13:16:13.000Z</time>
      </trkpt>
      <trkpt lat="43.56279" lon="3.32369">
        <ele>187.615871</ele>
        <time>2022-02-24T13:16:14.000Z</time>
      </trkpt>
      <trkpt lat="43.56277" lon="3.32367">
        <ele>187.68961</ele>
        <time>2022-02-24T13:16:16.000Z</time>
      </trkpt>
      <trkpt lat="43.56276" lon="3.32367">
        <ele>187.749931</ele>
        <time>2022-02-24T13:16:17.000Z</time>
      </trkpt>
      <trkpt lat="43.56274" lon="3.32367">
        <ele>187.807866</ele>
        <time>2022-02-24T13:16:18.000Z</time>
      </trkpt>
      <trkpt lat="43.56273" lon="3.32369">
        <ele>187.876584</ele>
        <time>2022-02-24T13:16:19.000Z</time>
      </trkpt>
      <trkpt lat="43.56271" lon="3.32371">
        <ele>187.946239</ele>
        <time>2022-02-24T13:16:20.000Z</time>
      </trkpt>
      <trkpt lat="43.5627" lon="3.32373">
        <ele>188.024621</ele>
        <time>2022-02-24T13:16:21.000Z</time>
      </trkpt>
      <trkpt lat="43.56269" lon="3.32376">
        <ele>188.113957</ele>
        <time>2022-02-24T13:16:22.000Z</time>
      </trkpt>
      <trkpt lat="43.56267" lon="3.32379">
        <ele>188.223265</ele>
        <time>2022-02-24T13:16:23.000Z</time>
      </trkpt>
      <trkpt lat="43.56266" lon="3.32383">
        <ele>188.336789</ele>
        <time>2022-02-24T13:16:24.000Z</time>
      </trkpt>
      <trkpt lat="43.56264" lon="3.32387">
        <ele>188.455477</ele>
        <time>2022-02-24T13:16:25.000Z</time>
      </trkpt>
      <trkpt lat="43.56263" lon="3.32391">
        <ele>188.576546</ele>
        <time>2022-02-24T13:16:26.000Z</time>
      </trkpt>
      <trkpt lat="43.56261" lon="3.32395">
        <ele>188.702414</ele>
        <time>2022-02-24T13:16:27.000Z</time>
      </trkpt>
      <trkpt lat="43.5626" lon="3.32398">
        <ele>188.780826</ele>
        <time>2022-02-24T13:16:29.000Z</time>
      </trkpt>
      <trkpt lat="43.56255" lon="3.32412">
        <ele>189.2028</ele>
        <time>2022-02-24T13:16:31.000Z</time>
      </trkpt>
      <trkpt lat="43.56254" lon="3.32417">
        <ele>189.350756</ele>
        <time>2022-02-24T13:16:32.000Z</time>
      </trkpt>
      <trkpt lat="43.56253" lon="3.32421">
        <ele>189.460753</ele>
        <time>2022-02-24T13:16:33.000Z</time>
      </trkpt>
      <trkpt lat="43.56252" lon="3.32424">
        <ele>189.619172</ele>
        <time>2022-02-24T13:16:34.000Z</time>
      </trkpt>
      <trkpt lat="43.56251" lon="3.32427">
        <ele>189.744311</ele>
        <time>2022-02-24T13:16:36.000Z</time>
      </trkpt>
      <trkpt lat="43.56249" lon="3.32438">
        <ele>190.310441</ele>
        <time>2022-02-24T13:16:37.000Z</time>
      </trkpt>
      <trkpt lat="43.56248" lon="3.32443">
        <ele>190.539138</ele>
        <time>2022-02-24T13:16:38.000Z</time>
      </trkpt>
      <trkpt lat="43.56247" lon="3.32447">
        <ele>190.758623</ele>
        <time>2022-02-24T13:16:40.000Z</time>
      </trkpt>
      <trkpt lat="43.56247" lon="3.32451">
        <ele>190.934985</ele>
        <time>2022-02-24T13:16:41.000Z</time>
      </trkpt>
      <trkpt lat="43.56246" lon="3.32454">
        <ele>191.098151</ele>
        <time>2022-02-24T13:16:42.000Z</time>
      </trkpt>
      <trkpt lat="43.56245" lon="3.32458">
        <ele>191.267485</ele>
        <time>2022-02-24T13:16:43.000Z</time>
      </trkpt>
      <trkpt lat="43.56245" lon="3.32462">
        <ele>191.464049</ele>
        <time>2022-02-24T13:16:44.000Z</time>
      </trkpt>
      <trkpt lat="43.56244" lon="3.32467">
        <ele>191.698011</ele>
        <time>2022-02-24T13:16:46.000Z</time>
      </trkpt>
      <trkpt lat="43.56242" lon="3.32471">
        <ele>191.922977</ele>
        <time>2022-02-24T13:16:47.000Z</time>
      </trkpt>
      <trkpt lat="43.56241" lon="3.32475">
        <ele>192.136836</ele>
        <time>2022-02-24T13:16:48.000Z</time>
      </trkpt>
      <trkpt lat="43.5624" lon="3.3248">
        <ele>192.371472</ele>
        <time>2022-02-24T13:16:50.000Z</time>
      </trkpt>
      <trkpt lat="43.56237" lon="3.32489">
        <ele>192.824153</ele>
        <time>2022-02-24T13:16:52.000Z</time>
      </trkpt>
      <trkpt lat="43.56236" lon="3.32493">
        <ele>193.054494</ele>
        <time>2022-02-24T13:16:53.000Z</time>
      </trkpt>
      <trkpt lat="43.56234" lon="3.32497">
        <ele>193.284835</ele>
        <time>2022-02-24T13:16:54.000Z</time>
      </trkpt>
      <trkpt lat="43.56232" lon="3.32502">
        <ele>193.519376</ele>
        <time>2022-02-24T13:16:55.000Z</time>
      </trkpt>
      <trkpt lat="43.5623" lon="3.32506">
        <ele>193.772548</ele>
        <time>2022-02-24T13:16:57.000Z</time>
      </trkpt>
      <trkpt lat="43.56228" lon="3.3251">
        <ele>194.029546</ele>
        <time>2022-02-24T13:16:58.000Z</time>
      </trkpt>
      <trkpt lat="43.56225" lon="3.32514">
        <ele>194.27516</ele>
        <time>2022-02-24T13:16:59.000Z</time>
      </trkpt>
      <trkpt lat="43.56223" lon="3.32518">
        <ele>194.523902</ele>
        <time>2022-02-24T13:17:00.000Z</time>
      </trkpt>
      <trkpt lat="43.5622" lon="3.32521">
        <ele>194.771769</ele>
        <time>2022-02-24T13:17:02.000Z</time>
      </trkpt>
      <trkpt lat="43.56217" lon="3.32523">
        <ele>194.972091</ele>
        <time>2022-02-24T13:17:03.000Z</time>
      </trkpt>
      <trkpt lat="43.56214" lon="3.32524">
        <ele>195.152616</ele>
        <time>2022-02-24T13:17:04.000Z</time>
      </trkpt>
      <trkpt lat="43.56212" lon="3.32524">
        <ele>195.277183</ele>
        <time>2022-02-24T13:17:05.000Z</time>
      </trkpt>
      <trkpt lat="43.56211" lon="3.32523">
        <ele>195.36078</ele>
        <time>2022-02-24T13:17:06.000Z</time>
      </trkpt>
      <trkpt lat="43.56211" lon="3.32521">
        <ele>195.445447</ele>
        <time>2022-02-24T13:17:07.000Z</time>
      </trkpt>
      <trkpt lat="43.56211" lon="3.32519">
        <ele>195.540187</ele>
        <time>2022-02-24T13:17:08.000Z</time>
      </trkpt>
      <trkpt lat="43.56211" lon="3.32516">
        <ele>195.680027</ele>
        <time>2022-02-24T13:17:10.000Z</time>
      </trkpt>
      <trkpt lat="43.56212" lon="3.32513">
        <ele>195.842907</ele>
        <time>2022-02-24T13:17:11.000Z</time>
      </trkpt>
      <trkpt lat="43.56213" lon="3.3251">
        <ele>196.017807</ele>
        <time>2022-02-24T13:17:12.000Z</time>
      </trkpt>
      <trkpt lat="43.56214" lon="3.32506">
        <ele>196.20288</ele>
        <time>2022-02-24T13:17:14.000Z</time>
      </trkpt>
      <trkpt lat="43.56215" lon="3.32503">
        <ele>196.386296</ele>
        <time>2022-02-24T13:17:15.000Z</time>
      </trkpt>
      <trkpt lat="43.56216" lon="3.32499">
        <ele>196.588962</ele>
        <time>2022-02-24T13:17:16.000Z</time>
      </trkpt>
      <trkpt lat="43.56218" lon="3.32494">
        <ele>196.802822</ele>
        <time>2022-02-24T13:17:17.000Z</time>
      </trkpt>
      <trkpt lat="43.56218" lon="3.32492">
        <ele>196.938661</ele>
        <time>2022-02-24T13:17:20.000Z</time>
      </trkpt>
      <trkpt lat="43.56221" lon="3.32478">
        <ele>197.615774</ele>
        <time>2022-02-24T13:17:21.000Z</time>
      </trkpt>
      <trkpt lat="43.56222" lon="3.32473">
        <ele>197.876862</ele>
        <time>2022-02-24T13:17:22.000Z</time>
      </trkpt>
      <trkpt lat="43.56222" lon="3.32469">
        <ele>198.067354</ele>
        <time>2022-02-24T13:17:23.000Z</time>
      </trkpt>
      <trkpt lat="43.56223" lon="3.32465">
        <ele>198.249249</ele>
        <time>2022-02-24T13:17:24.000Z</time>
      </trkpt>
      <trkpt lat="43.56223" lon="3.3246">
        <ele>198.473417</ele>
        <time>2022-02-24T13:17:26.000Z</time>
      </trkpt>
      <trkpt lat="43.56223" lon="3.32456">
        <ele>198.686582</ele>
        <time>2022-02-24T13:17:27.000Z</time>
      </trkpt>
      <trkpt lat="43.56223" lon="3.32451">
        <ele>198.90922</ele>
        <time>2022-02-24T13:17:29.000Z</time>
      </trkpt>
      <trkpt lat="43.56223" lon="3.32446">
        <ele>199.122384</ele>
        <time>2022-02-24T13:17:30.000Z</time>
      </trkpt>
      <trkpt lat="43.56223" lon="3.32441">
        <ele>199.36397</ele>
        <time>2022-02-24T13:17:31.000Z</time>
      </trkpt>
      <trkpt lat="43.56223" lon="3.32437">
        <ele>199.577135</ele>
        <time>2022-02-24T13:17:32.000Z</time>
      </trkpt>
      <trkpt lat="43.56223" lon="3.32432">
        <ele>199.790299</ele>
        <time>2022-02-24T13:17:33.000Z</time>
      </trkpt>
      <trkpt lat="43.56223" lon="3.32428">
        <ele>199.998726</ele>
        <time>2022-02-24T13:17:35.000Z</time>
      </trkpt>
      <trkpt lat="43.56223" lon="3.32423">
        <ele>200.226102</ele>
        <time>2022-02-24T13:17:36.000Z</time>
      </trkpt>
      <trkpt lat="43.56223" lon="3.32418">
        <ele>200.467688</ele>
        <time>2022-02-24T13:17:37.000Z</time>
      </trkpt>
      <trkpt lat="43.56223" lon="3.32412">
        <ele>200.74717</ele>
        <time>2022-02-24T13:17:39.000Z</time>
      </trkpt>
      <trkpt lat="43.56223" lon="3.32407">
        <ele>200.988756</ele>
        <time>2022-02-24T13:17:40.000Z</time>
      </trkpt>
      <trkpt lat="43.56223" lon="3.32402">
        <ele>201.21763</ele>
        <time>2022-02-24T13:17:41.000Z</time>
      </trkpt>
      <trkpt lat="43.56223" lon="3.32398">
        <ele>201.425965</ele>
        <time>2022-02-24T13:17:42.000Z</time>
      </trkpt>
      <trkpt lat="43.56223" lon="3.32393">
        <ele>201.632931</ele>
        <time>2022-02-24T13:17:43.000Z</time>
      </trkpt>
      <trkpt lat="43.56222" lon="3.32389">
        <ele>201.823525</ele>
        <time>2022-02-24T13:17:44.000Z</time>
      </trkpt>
      <trkpt lat="43.56222" lon="3.32385">
        <ele>202.01341</ele>
        <time>2022-02-24T13:17:45.000Z</time>
      </trkpt>
      <trkpt lat="43.56221" lon="3.32381">
        <ele>202.177277</ele>
        <time>2022-02-24T13:17:46.000Z</time>
      </trkpt>
      <trkpt lat="43.5622" lon="3.32378">
        <ele>202.347432</ele>
        <time>2022-02-24T13:17:48.000Z</time>
      </trkpt>
      <trkpt lat="43.56218" lon="3.32376">
        <ele>202.490528</ele>
        <time>2022-02-24T13:17:49.000Z</time>
      </trkpt>
      <trkpt lat="43.56216" lon="3.32375">
        <ele>202.612632</ele>
        <time>2022-02-24T13:17:50.000Z</time>
      </trkpt>
      <trkpt lat="43.56215" lon="3.32376">
        <ele>202.71419</ele>
        <time>2022-02-24T13:17:51.000Z</time>
      </trkpt>
      <trkpt lat="43.56213" lon="3.32378">
        <ele>202.843696</ele>
        <time>2022-02-24T13:17:52.000Z</time>
      </trkpt>
      <trkpt lat="43.56212" lon="3.3238">
        <ele>202.97489</ele>
        <time>2022-02-24T13:17:53.000Z</time>
      </trkpt>
      <trkpt lat="43.56212" lon="3.32383">
        <ele>203.120982</ele>
        <time>2022-02-24T13:17:54.000Z</time>
      </trkpt>
      <trkpt lat="43.56211" lon="3.32387">
        <ele>203.277547</ele>
        <time>2022-02-24T13:17:55.000Z</time>
      </trkpt>
      <trkpt lat="43.5621" lon="3.3239">
        <ele>203.446966</ele>
        <time>2022-02-24T13:17:56.000Z</time>
      </trkpt>
      <trkpt lat="43.56209" lon="3.32394">
        <ele>203.618614</ele>
        <time>2022-02-24T13:17:57.000Z</time>
      </trkpt>
      <trkpt lat="43.56208" lon="3.32397">
        <ele>203.78877</ele>
        <time>2022-02-24T13:17:58.000Z</time>
      </trkpt>
      <trkpt lat="43.56207" lon="3.32401">
        <ele>203.952202</ele>
        <time>2022-02-24T13:17:59.000Z</time>
      </trkpt>
      <trkpt lat="43.56205" lon="3.32404">
        <ele>204.119732</ele>
        <time>2022-02-24T13:18:00.000Z</time>
      </trkpt>
      <trkpt lat="43.56204" lon="3.32408">
        <ele>204.298022</ele>
        <time>2022-02-24T13:18:01.000Z</time>
      </trkpt>
      <trkpt lat="43.56203" lon="3.32411">
        <ele>204.477961</ele>
        <time>2022-02-24T13:18:02.000Z</time>
      </trkpt>
      <trkpt lat="43.56202" lon="3.32415">
        <ele>204.672746</ele>
        <time>2022-02-24T13:18:03.000Z</time>
      </trkpt>
      <trkpt lat="43.56201" lon="3.3242">
        <ele>204.90785</ele>
        <time>2022-02-24T13:18:05.000Z</time>
      </trkpt>
      <trkpt lat="43.562" lon="3.32425">
        <ele>205.132058</ele>
        <time>2022-02-24T13:18:06.000Z</time>
      </trkpt>
      <trkpt lat="43.56199" lon="3.3243">
        <ele>205.358566</ele>
        <time>2022-02-24T13:18:08.000Z</time>
      </trkpt>
      <trkpt lat="43.56197" lon="3.32435">
        <ele>205.587023</ele>
        <time>2022-02-24T13:18:09.000Z</time>
      </trkpt>
      <trkpt lat="43.56196" lon="3.32439">
        <ele>205.787957</ele>
        <time>2022-02-24T13:18:10.000Z</time>
      </trkpt>
      <trkpt lat="43.56195" lon="3.32443">
        <ele>206.014915</ele>
        <time>2022-02-24T13:18:12.000Z</time>
      </trkpt>
      <trkpt lat="43.56194" lon="3.32447">
        <ele>206.2097</ele>
        <time>2022-02-24T13:18:13.000Z</time>
      </trkpt>
      <trkpt lat="43.56192" lon="3.32451">
        <ele>206.39381</ele>
        <time>2022-02-24T13:18:14.000Z</time>
      </trkpt>
      <trkpt lat="43.56191" lon="3.32455">
        <ele>206.576197</ele>
        <time>2022-02-24T13:18:15.000Z</time>
      </trkpt>
      <trkpt lat="43.5619" lon="3.32459">
        <ele>206.760308</ele>
        <time>2022-02-24T13:18:16.000Z</time>
      </trkpt>
      <trkpt lat="43.56189" lon="3.32462">
        <ele>206.936093</ele>
        <time>2022-02-24T13:18:17.000Z</time>
      </trkpt>
      <trkpt lat="43.56187" lon="3.32466">
        <ele>207.126107</ele>
        <time>2022-02-24T13:18:18.000Z</time>
      </trkpt>
      <trkpt lat="43.56186" lon="3.32469">
        <ele>207.289539</ele>
        <time>2022-02-24T13:18:19.000Z</time>
      </trkpt>
      <trkpt lat="43.56185" lon="3.32472">
        <ele>207.447671</ele>
        <time>2022-02-24T13:18:20.000Z</time>
      </trkpt>
      <trkpt lat="43.56184" lon="3.32475">
        <ele>207.598946</ele>
        <time>2022-02-24T13:18:21.000Z</time>
      </trkpt>
      <trkpt lat="43.56183" lon="3.32478">
        <ele>207.766661</ele>
        <time>2022-02-24T13:18:22.000Z</time>
      </trkpt>
      <trkpt lat="43.56181" lon="3.32482">
        <ele>207.941587</ele>
        <time>2022-02-24T13:18:23.000Z</time>
      </trkpt>
      <trkpt lat="43.56179" lon="3.32485">
        <ele>208.120685</ele>
        <time>2022-02-24T13:18:24.000Z</time>
      </trkpt>
      <trkpt lat="43.56178" lon="3.32489">
        <ele>208.324722</ele>
        <time>2022-02-24T13:18:26.000Z</time>
      </trkpt>
      <trkpt lat="43.56176" lon="3.32491">
        <ele>208.467321</ele>
        <time>2022-02-24T13:18:28.000Z</time>
      </trkpt>
      <trkpt lat="43.56169" lon="3.32503">
        <ele>209.172273</ele>
        <time>2022-02-24T13:18:29.000Z</time>
      </trkpt>
      <trkpt lat="43.56166" lon="3.32508">
        <ele>209.447393</ele>
        <time>2022-02-24T13:18:31.000Z</time>
      </trkpt>
      <trkpt lat="43.56164" lon="3.32511">
        <ele>209.640575</ele>
        <time>2022-02-24T13:18:32.000Z</time>
      </trkpt>
      <trkpt lat="43.56162" lon="3.32514">
        <ele>209.830214</ele>
        <time>2022-02-24T13:18:33.000Z</time>
      </trkpt>
      <trkpt lat="43.5616" lon="3.32517">
        <ele>209.997811</ele>
        <time>2022-02-24T13:18:34.000Z</time>
      </trkpt>
      <trkpt lat="43.56159" lon="3.3252">
        <ele>210.158121</ele>
        <time>2022-02-24T13:18:35.000Z</time>
      </trkpt>
      <trkpt lat="43.56157" lon="3.32523">
        <ele>210.322115</ele>
        <time>2022-02-24T13:18:36.000Z</time>
      </trkpt>
      <trkpt lat="43.56156" lon="3.32526">
        <ele>210.478785</ele>
        <time>2022-02-24T13:18:37.000Z</time>
      </trkpt>
      <trkpt lat="43.56154" lon="3.32529">
        <ele>210.639223</ele>
        <time>2022-02-24T13:18:38.000Z</time>
      </trkpt>
      <trkpt lat="43.56153" lon="3.32531">
        <ele>210.792299</ele>
        <time>2022-02-24T13:18:39.000Z</time>
      </trkpt>
      <trkpt lat="43.56151" lon="3.32534">
        <ele>210.968204</ele>
        <time>2022-02-24T13:18:40.000Z</time>
      </trkpt>
      <trkpt lat="43.56149" lon="3.32538">
        <ele>211.157843</ele>
        <time>2022-02-24T13:18:42.000Z</time>
      </trkpt>
      <trkpt lat="43.56147" lon="3.32541">
        <ele>211.351026</ele>
        <time>2022-02-24T13:18:43.000Z</time>
      </trkpt>
      <trkpt lat="43.56145" lon="3.32544">
        <ele>211.540665</ele>
        <time>2022-02-24T13:18:44.000Z</time>
      </trkpt>
      <trkpt lat="43.56143" lon="3.32548">
        <ele>211.760001</ele>
        <time>2022-02-24T13:18:46.000Z</time>
      </trkpt>
      <trkpt lat="43.5614" lon="3.32552">
        <ele>212.00927</ele>
        <time>2022-02-24T13:18:47.000Z</time>
      </trkpt>
      <trkpt lat="43.56138" lon="3.32556">
        <ele>212.254405</ele>
        <time>2022-02-24T13:18:49.000Z</time>
      </trkpt>
      <trkpt lat="43.56135" lon="3.3256">
        <ele>212.526808</ele>
        <time>2022-02-24T13:18:50.000Z</time>
      </trkpt>
      <trkpt lat="43.56132" lon="3.32564">
        <ele>212.834445</ele>
        <time>2022-02-24T13:18:51.000Z</time>
      </trkpt>
      <trkpt lat="43.56129" lon="3.32568">
        <ele>213.142083</ele>
        <time>2022-02-24T13:18:53.000Z</time>
      </trkpt>
      <trkpt lat="43.56127" lon="3.32571">
        <ele>213.44827</ele>
        <time>2022-02-24T13:18:54.000Z</time>
      </trkpt>
      <trkpt lat="43.56125" lon="3.32575">
        <ele>213.72945</ele>
        <time>2022-02-24T13:18:55.000Z</time>
      </trkpt>
      <trkpt lat="43.56122" lon="3.32579">
        <ele>214.032988</ele>
        <time>2022-02-24T13:18:56.000Z</time>
      </trkpt>
      <trkpt lat="43.5612" lon="3.32582">
        <ele>214.297044</ele>
        <time>2022-02-24T13:18:57.000Z</time>
      </trkpt>
      <trkpt lat="43.56117" lon="3.32585">
        <ele>214.58664</ele>
        <time>2022-02-24T13:18:59.000Z</time>
      </trkpt>
      <trkpt lat="43.56114" lon="3.32588">
        <ele>214.866896</ele>
        <time>2022-02-24T13:19:00.000Z</time>
      </trkpt>
      <trkpt lat="43.56112" lon="3.32591">
        <ele>215.136476</ele>
        <time>2022-02-24T13:19:01.000Z</time>
      </trkpt>
      <trkpt lat="43.56109" lon="3.32593">
        <ele>215.393009</ele>
        <time>2022-02-24T13:19:02.000Z</time>
      </trkpt>
      <trkpt lat="43.56106" lon="3.32595">
        <ele>215.630871</ele>
        <time>2022-02-24T13:19:03.000Z</time>
      </trkpt>
      <trkpt lat="43.56104" lon="3.32597">
        <ele>215.844645</ele>
        <time>2022-02-24T13:19:04.000Z</time>
      </trkpt>
      <trkpt lat="43.56102" lon="3.32599">
        <ele>216.052889</ele>
        <time>2022-02-24T13:19:05.000Z</time>
      </trkpt>
      <trkpt lat="43.56099" lon="3.326">
        <ele>216.284087</ele>
        <time>2022-02-24T13:19:06.000Z</time>
      </trkpt>
      <trkpt lat="43.56097" lon="3.32601">
        <ele>216.479051</ele>
        <time>2022-02-24T13:19:07.000Z</time>
      </trkpt>
      <trkpt lat="43.56094" lon="3.32602">
        <ele>216.698916</ele>
        <time>2022-02-24T13:19:08.000Z</time>
      </trkpt>
      <trkpt lat="43.56091" lon="3.32603">
        <ele>216.959222</ele>
        <time>2022-02-24T13:19:09.000Z</time>
      </trkpt>
      <trkpt lat="43.56088" lon="3.32604">
        <ele>217.188557</ele>
        <time>2022-02-24T13:19:10.000Z</time>
      </trkpt>
      <trkpt lat="43.56086" lon="3.32605">
        <ele>217.408422</ele>
        <time>2022-02-24T13:19:11.000Z</time>
      </trkpt>
      <trkpt lat="43.56083" lon="3.32607">
        <ele>217.637756</ele>
        <time>2022-02-24T13:19:12.000Z</time>
      </trkpt>
      <trkpt lat="43.5608" lon="3.32608">
        <ele>217.893797</ele>
        <time>2022-02-24T13:19:14.000Z</time>
      </trkpt>
      <trkpt lat="43.56077" lon="3.32609">
        <ele>218.126991</ele>
        <time>2022-02-24T13:19:15.000Z</time>
      </trkpt>
      <trkpt lat="43.56074" lon="3.32611">
        <ele>218.394579</ele>
        <time>2022-02-24T13:19:16.000Z</time>
      </trkpt>
      <trkpt lat="43.56071" lon="3.32613">
        <ele>218.654611</ele>
        <time>2022-02-24T13:19:18.000Z</time>
      </trkpt>
      <trkpt lat="43.56068" lon="3.32614">
        <ele>218.956595</ele>
        <time>2022-02-24T13:19:19.000Z</time>
      </trkpt>
      <trkpt lat="43.56064" lon="3.32616">
        <ele>219.251016</ele>
        <time>2022-02-24T13:19:20.000Z</time>
      </trkpt>
      <trkpt lat="43.56061" lon="3.32618">
        <ele>219.549835</ele>
        <time>2022-02-24T13:19:22.000Z</time>
      </trkpt>
      <trkpt lat="43.56054" lon="3.32622">
        <ele>220.12765</ele>
        <time>2022-02-24T13:19:24.000Z</time>
      </trkpt>
      <trkpt lat="43.56051" lon="3.32625">
        <ele>220.444803</ele>
        <time>2022-02-24T13:19:25.000Z</time>
      </trkpt>
      <trkpt lat="43.56047" lon="3.32628">
        <ele>220.774863</ele>
        <time>2022-02-24T13:19:27.000Z</time>
      </trkpt>
      <trkpt lat="43.56044" lon="3.32631">
        <ele>221.081421</ele>
        <time>2022-02-24T13:19:28.000Z</time>
      </trkpt>
      <trkpt lat="43.56042" lon="3.32635">
        <ele>221.376939</ele>
        <time>2022-02-24T13:19:29.000Z</time>
      </trkpt>
      <trkpt lat="43.56039" lon="3.32638">
        <ele>221.667014</ele>
        <time>2022-02-24T13:19:30.000Z</time>
      </trkpt>
      <trkpt lat="43.56038" lon="3.32642">
        <ele>221.937499</ele>
        <time>2022-02-24T13:19:31.000Z</time>
      </trkpt>
      <trkpt lat="43.56036" lon="3.32646">
        <ele>222.201367</ele>
        <time>2022-02-24T13:19:32.000Z</time>
      </trkpt>
      <trkpt lat="43.56035" lon="3.32651">
        <ele>222.476804</ele>
        <time>2022-02-24T13:19:34.000Z</time>
      </trkpt>
      <trkpt lat="43.56034" lon="3.32655">
        <ele>222.727461</ele>
        <time>2022-02-24T13:19:35.000Z</time>
      </trkpt>
      <trkpt lat="43.56033" lon="3.32659">
        <ele>222.976224</ele>
        <time>2022-02-24T13:19:36.000Z</time>
      </trkpt>
      <trkpt lat="43.56032" lon="3.32663">
        <ele>223.228715</ele>
        <time>2022-02-24T13:19:38.000Z</time>
      </trkpt>
      <trkpt lat="43.56031" lon="3.32668">
        <ele>223.51157</ele>
        <time>2022-02-24T13:19:39.000Z</time>
      </trkpt>
      <trkpt lat="43.56031" lon="3.32673">
        <ele>223.817285</ele>
        <time>2022-02-24T13:19:40.000Z</time>
      </trkpt>
      <trkpt lat="43.5603" lon="3.32678">
        <ele>224.123424</ele>
        <time>2022-02-24T13:19:41.000Z</time>
      </trkpt>
      <trkpt lat="43.56028" lon="3.32683">
        <ele>224.463353</ele>
        <time>2022-02-24T13:19:43.000Z</time>
      </trkpt>
      <trkpt lat="43.56028" lon="3.32689">
        <ele>224.797757</ele>
        <time>2022-02-24T13:19:44.000Z</time>
      </trkpt>
      <trkpt lat="43.56027" lon="3.32695">
        <ele>225.143665</ele>
        <time>2022-02-24T13:19:46.000Z</time>
      </trkpt>
      <trkpt lat="43.56026" lon="3.32701">
        <ele>225.517079</ele>
        <time>2022-02-24T13:19:48.000Z</time>
      </trkpt>
      <trkpt lat="43.56025" lon="3.32707">
        <ele>225.880267</ele>
        <time>2022-02-24T13:19:49.000Z</time>
      </trkpt>
      <trkpt lat="43.56025" lon="3.32713">
        <ele>226.23765</ele>
        <time>2022-02-24T13:19:50.000Z</time>
      </trkpt>
      <trkpt lat="43.56026" lon="3.3272">
        <ele>226.65157</ele>
        <time>2022-02-24T13:19:52.000Z</time>
      </trkpt>
      <trkpt lat="43.56028" lon="3.32727">
        <ele>227.030613</ele>
        <time>2022-02-24T13:19:53.000Z</time>
      </trkpt>
      <trkpt lat="43.5603" lon="3.32732">
        <ele>227.268551</ele>
        <time>2022-02-24T13:19:54.000Z</time>
      </trkpt>
      <trkpt lat="43.56031" lon="3.32736">
        <ele>227.475273</ele>
        <time>2022-02-24T13:19:55.000Z</time>
      </trkpt>
      <trkpt lat="43.56033" lon="3.3274">
        <ele>227.669511</ele>
        <time>2022-02-24T13:19:56.000Z</time>
      </trkpt>
      <trkpt lat="43.56034" lon="3.32744">
        <ele>227.851396</ele>
        <time>2022-02-24T13:19:57.000Z</time>
      </trkpt>
      <trkpt lat="43.56035" lon="3.32748">
        <ele>228.021417</ele>
        <time>2022-02-24T13:19:58.000Z</time>
      </trkpt>
      <trkpt lat="43.56036" lon="3.32752">
        <ele>228.193749</ele>
        <time>2022-02-24T13:19:59.000Z</time>
      </trkpt>
      <trkpt lat="43.56037" lon="3.32755">
        <ele>228.360436</ele>
        <time>2022-02-24T13:20:00.000Z</time>
      </trkpt>
      <trkpt lat="43.56038" lon="3.32759">
        <ele>228.536845</ele>
        <time>2022-02-24T13:20:01.000Z</time>
      </trkpt>
      <trkpt lat="43.56038" lon="3.32763">
        <ele>228.705073</ele>
        <time>2022-02-24T13:20:02.000Z</time>
      </trkpt>
      <trkpt lat="43.56039" lon="3.32767">
        <ele>228.851509</ele>
        <time>2022-02-24T13:20:03.000Z</time>
      </trkpt>
      <trkpt lat="43.56039" lon="3.3277">
        <ele>228.99712</ele>
        <time>2022-02-24T13:20:04.000Z</time>
      </trkpt>
      <trkpt lat="43.56039" lon="3.32773">
        <ele>229.13517</ele>
        <time>2022-02-24T13:20:05.000Z</time>
      </trkpt>
      <trkpt lat="43.5604" lon="3.32776">
        <ele>229.27322</ele>
        <time>2022-02-24T13:20:06.000Z</time>
      </trkpt>
      <trkpt lat="43.5604" lon="3.3278">
        <ele>229.428055</ele>
        <time>2022-02-24T13:20:08.000Z</time>
      </trkpt>
      <trkpt lat="43.56041" lon="3.32784">
        <ele>229.591299</ele>
        <time>2022-02-24T13:20:09.000Z</time>
      </trkpt>
      <trkpt lat="43.56041" lon="3.32788">
        <ele>229.762258</ele>
        <time>2022-02-24T13:20:10.000Z</time>
      </trkpt>
      <trkpt lat="43.56041" lon="3.32792">
        <ele>229.940812</ele>
        <time>2022-02-24T13:20:11.000Z</time>
      </trkpt>
      <trkpt lat="43.56041" lon="3.32796">
        <ele>230.115114</ele>
        <time>2022-02-24T13:20:12.000Z</time>
      </trkpt>
      <trkpt lat="43.56041" lon="3.328">
        <ele>230.297919</ele>
        <time>2022-02-24T13:20:13.000Z</time>
      </trkpt>
      <trkpt lat="43.56041" lon="3.32805">
        <ele>230.477338</ele>
        <time>2022-02-24T13:20:14.000Z</time>
      </trkpt>
      <trkpt lat="43.5604" lon="3.32809">
        <ele>230.670192</ele>
        <time>2022-02-24T13:20:15.000Z</time>
      </trkpt>
      <trkpt lat="43.56039" lon="3.32813">
        <ele>230.842507</ele>
        <time>2022-02-24T13:20:17.000Z</time>
      </trkpt>
      <trkpt lat="43.56039" lon="3.32817">
        <ele>230.996562</ele>
        <time>2022-02-24T13:20:18.000Z</time>
      </trkpt>
      <trkpt lat="43.56038" lon="3.3282">
        <ele>231.152583</ele>
        <time>2022-02-24T13:20:19.000Z</time>
      </trkpt>
      <trkpt lat="43.56037" lon="3.32823">
        <ele>231.304555</ele>
        <time>2022-02-24T13:20:20.000Z</time>
      </trkpt>
      <trkpt lat="43.56036" lon="3.32827">
        <ele>231.467125</ele>
        <time>2022-02-24T13:20:21.000Z</time>
      </trkpt>
      <trkpt lat="43.56036" lon="3.32831">
        <ele>231.651744</ele>
        <time>2022-02-24T13:20:22.000Z</time>
      </trkpt>
      <trkpt lat="43.56035" lon="3.32836">
        <ele>231.857676</ele>
        <time>2022-02-24T13:20:24.000Z</time>
      </trkpt>
      <trkpt lat="43.56033" lon="3.3284">
        <ele>232.053568</ele>
        <time>2022-02-24T13:20:25.000Z</time>
      </trkpt>
      <trkpt lat="43.56033" lon="3.32844">
        <ele>232.224378</ele>
        <time>2022-02-24T13:20:26.000Z</time>
      </trkpt>
      <trkpt lat="43.56031" lon="3.32848">
        <ele>232.404506</ele>
        <time>2022-02-24T13:20:27.000Z</time>
      </trkpt>
      <trkpt lat="43.5603" lon="3.32852">
        <ele>232.566692</ele>
        <time>2022-02-24T13:20:28.000Z</time>
      </trkpt>
      <trkpt lat="43.56029" lon="3.32855">
        <ele>232.753532</ele>
        <time>2022-02-24T13:20:29.000Z</time>
      </trkpt>
      <trkpt lat="43.56027" lon="3.32859">
        <ele>232.933772</ele>
        <time>2022-02-24T13:20:31.000Z</time>
      </trkpt>
      <trkpt lat="43.56026" lon="3.32863">
        <ele>233.106642</ele>
        <time>2022-02-24T13:20:32.000Z</time>
      </trkpt>
      <trkpt lat="43.56025" lon="3.32866">
        <ele>233.256057</ele>
        <time>2022-02-24T13:20:33.000Z</time>
      </trkpt>
      <trkpt lat="43.56023" lon="3.32868">
        <ele>233.39146</ele>
        <time>2022-02-24T13:20:34.000Z</time>
      </trkpt>
      <trkpt lat="43.56022" lon="3.32871">
        <ele>233.542933</ele>
        <time>2022-02-24T13:20:35.000Z</time>
      </trkpt>
      <trkpt lat="43.5602" lon="3.32874">
        <ele>233.704734</ele>
        <time>2022-02-24T13:20:36.000Z</time>
      </trkpt>
      <trkpt lat="43.56019" lon="3.32878">
        <ele>233.877604</ele>
        <time>2022-02-24T13:20:38.000Z</time>
      </trkpt>
      <trkpt lat="43.56017" lon="3.32881">
        <ele>234.060135</ele>
        <time>2022-02-24T13:20:39.000Z</time>
      </trkpt>
      <trkpt lat="43.56015" lon="3.32885">
        <ele>234.236011</ele>
        <time>2022-02-24T13:20:41.000Z</time>
      </trkpt>
      <trkpt lat="43.56012" lon="3.32891">
        <ele>234.573377</ele>
        <time>2022-02-24T13:20:43.000Z</time>
      </trkpt>
      <trkpt lat="43.56009" lon="3.32894">
        <ele>234.750529</ele>
        <time>2022-02-24T13:20:44.000Z</time>
      </trkpt>
      <trkpt lat="43.56007" lon="3.32896">
        <ele>234.922293</ele>
        <time>2022-02-24T13:20:45.000Z</time>
      </trkpt>
      <trkpt lat="43.56005" lon="3.32898">
        <ele>235.086472</ele>
        <time>2022-02-24T13:20:46.000Z</time>
      </trkpt>
      <trkpt lat="43.56002" lon="3.329">
        <ele>235.264279</ele>
        <time>2022-02-24T13:20:47.000Z</time>
      </trkpt>
      <trkpt lat="43.55999" lon="3.32902">
        <ele>235.45793</ele>
        <time>2022-02-24T13:20:49.000Z</time>
      </trkpt>
      <trkpt lat="43.55996" lon="3.32904">
        <ele>235.677059</ele>
        <time>2022-02-24T13:20:50.000Z</time>
      </trkpt>
      <trkpt lat="43.55992" lon="3.32906">
        <ele>235.889216</ele>
        <time>2022-02-24T13:20:51.000Z</time>
      </trkpt>
      <trkpt lat="43.55989" lon="3.32907">
        <ele>236.075007</ele>
        <time>2022-02-24T13:20:52.000Z</time>
      </trkpt>
      <trkpt lat="43.55986" lon="3.32909">
        <ele>236.290015</ele>
        <time>2022-02-24T13:20:53.000Z</time>
      </trkpt>
      <trkpt lat="43.55983" lon="3.3291">
        <ele>236.474489</ele>
        <time>2022-02-24T13:20:54.000Z</time>
      </trkpt>
      <trkpt lat="43.5598" lon="3.32911">
        <ele>236.643702</ele>
        <time>2022-02-24T13:20:55.000Z</time>
      </trkpt>
      <trkpt lat="43.55977" lon="3.32913">
        <ele>236.828176</ele>
        <time>2022-02-24T13:20:56.000Z</time>
      </trkpt>
      <trkpt lat="43.55974" lon="3.32914">
        <ele>237.000564</ele>
        <time>2022-02-24T13:20:57.000Z</time>
      </trkpt>
      <trkpt lat="43.55971" lon="3.32916">
        <ele>237.194735</ele>
        <time>2022-02-24T13:20:58.000Z</time>
      </trkpt>
      <trkpt lat="43.55968" lon="3.32918">
        <ele>237.388386</ele>
        <time>2022-02-24T13:21:00.000Z</time>
      </trkpt>
      <trkpt lat="43.55965" lon="3.3292">
        <ele>237.510046</ele>
        <time>2022-02-24T13:21:01.000Z</time>
      </trkpt>
      <trkpt lat="43.55962" lon="3.32922">
        <ele>237.517794</ele>
        <time>2022-02-24T13:21:02.000Z</time>
      </trkpt>
      <trkpt lat="43.55959" lon="3.32924">
        <ele>237.525031</ele>
        <time>2022-02-24T13:21:03.000Z</time>
      </trkpt>
      <trkpt lat="43.55956" lon="3.32927">
        <ele>237.533025</ele>
        <time>2022-02-24T13:21:04.000Z</time>
      </trkpt>
      <trkpt lat="43.55953" lon="3.3293">
        <ele>237.541567</ele>
        <time>2022-02-24T13:21:05.000Z</time>
      </trkpt>
      <trkpt lat="43.55951" lon="3.32933">
        <ele>237.549371</ele>
        <time>2022-02-24T13:21:06.000Z</time>
      </trkpt>
      <trkpt lat="43.55948" lon="3.32936">
        <ele>237.558771</ele>
        <time>2022-02-24T13:21:08.000Z</time>
      </trkpt>
      <trkpt lat="43.55944" lon="3.32941">
        <ele>237.569154</ele>
        <time>2022-02-24T13:21:09.000Z</time>
      </trkpt>
      <trkpt lat="43.55942" lon="3.32946">
        <ele>237.579192</ele>
        <time>2022-02-24T13:21:11.000Z</time>
      </trkpt>
      <trkpt lat="43.5594" lon="3.32951">
        <ele>237.58912</ele>
        <time>2022-02-24T13:21:12.000Z</time>
      </trkpt>
      <trkpt lat="43.55937" lon="3.32956">
        <ele>237.598909</ele>
        <time>2022-02-24T13:21:13.000Z</time>
      </trkpt>
      <trkpt lat="43.55935" lon="3.32961">
        <ele>237.607804</ele>
        <time>2022-02-24T13:21:14.000Z</time>
      </trkpt>
      <trkpt lat="43.55933" lon="3.32966">
        <ele>237.618377</ele>
        <time>2022-02-24T13:21:15.000Z</time>
      </trkpt>
      <trkpt lat="43.5593" lon="3.3297">
        <ele>237.628034</ele>
        <time>2022-02-24T13:21:16.000Z</time>
      </trkpt>
      <trkpt lat="43.55927" lon="3.32974">
        <ele>237.637548</ele>
        <time>2022-02-24T13:21:17.000Z</time>
      </trkpt>
      <trkpt lat="43.55924" lon="3.32978">
        <ele>237.647739</ele>
        <time>2022-02-24T13:21:19.000Z</time>
      </trkpt>
      <trkpt lat="43.5592" lon="3.32983">
        <ele>237.65821</ele>
        <time>2022-02-24T13:21:20.000Z</time>
      </trkpt>
      <trkpt lat="43.55917" lon="3.32987">
        <ele>237.66784</ele>
        <time>2022-02-24T13:21:21.000Z</time>
      </trkpt>
      <trkpt lat="43.55915" lon="3.32991">
        <ele>237.676542</ele>
        <time>2022-02-24T13:21:22.000Z</time>
      </trkpt>
      <trkpt lat="43.55912" lon="3.32995">
        <ele>237.685643</ele>
        <time>2022-02-24T13:21:23.000Z</time>
      </trkpt>
      <trkpt lat="43.55911" lon="3.33">
        <ele>237.694975</ele>
        <time>2022-02-24T13:21:25.000Z</time>
      </trkpt>
      <trkpt lat="43.55907" lon="3.3301">
        <ele>237.712885</ele>
        <time>2022-02-24T13:21:27.000Z</time>
      </trkpt>
      <trkpt lat="43.55906" lon="3.33015">
        <ele>237.721677</ele>
        <time>2022-02-24T13:21:28.000Z</time>
      </trkpt>
      <trkpt lat="43.55904" lon="3.3302">
        <ele>237.730316</ele>
        <time>2022-02-24T13:21:29.000Z</time>
      </trkpt>
      <trkpt lat="43.55903" lon="3.33024">
        <ele>237.738654</ele>
        <time>2022-02-24T13:21:30.000Z</time>
      </trkpt>
      <trkpt lat="43.55901" lon="3.33029">
        <ele>237.747237</ele>
        <time>2022-02-24T13:21:31.000Z</time>
      </trkpt>
      <trkpt lat="43.55899" lon="3.33033">
        <ele>237.755702</ele>
        <time>2022-02-24T13:21:32.000Z</time>
      </trkpt>
      <trkpt lat="43.55897" lon="3.33038">
        <ele>237.764311</ele>
        <time>2022-02-24T13:21:33.000Z</time>
      </trkpt>
      <trkpt lat="43.55895" lon="3.33042">
        <ele>237.772635</ele>
        <time>2022-02-24T13:21:34.000Z</time>
      </trkpt>
      <trkpt lat="43.55893" lon="3.33046">
        <ele>237.781075</ele>
        <time>2022-02-24T13:21:35.000Z</time>
      </trkpt>
      <trkpt lat="43.5589" lon="3.33051">
        <ele>237.790331</ele>
        <time>2022-02-24T13:21:36.000Z</time>
      </trkpt>
      <trkpt lat="43.55887" lon="3.33055">
        <ele>237.800011</ele>
        <time>2022-02-24T13:21:37.000Z</time>
      </trkpt>
      <trkpt lat="43.55884" lon="3.33059">
        <ele>237.810201</ele>
        <time>2022-02-24T13:21:38.000Z</time>
      </trkpt>
      <trkpt lat="43.5588" lon="3.33063">
        <ele>237.820567</ele>
        <time>2022-02-24T13:21:39.000Z</time>
      </trkpt>
      <trkpt lat="43.55877" lon="3.33067">
        <ele>237.831198</ele>
        <time>2022-02-24T13:21:41.000Z</time>
      </trkpt>
      <trkpt lat="43.55874" lon="3.33071">
        <ele>237.841829</ele>
        <time>2022-02-24T13:21:42.000Z</time>
      </trkpt>
      <trkpt lat="43.5587" lon="3.33076">
        <ele>237.853084</ele>
        <time>2022-02-24T13:21:43.000Z</time>
      </trkpt>
      <trkpt lat="43.55867" lon="3.33081">
        <ele>237.864417</ele>
        <time>2022-02-24T13:21:45.000Z</time>
      </trkpt>
      <trkpt lat="43.55864" lon="3.33086">
        <ele>237.874894</ele>
        <time>2022-02-24T13:21:46.000Z</time>
      </trkpt>
      <trkpt lat="43.55861" lon="3.33091">
        <ele>237.885645</ele>
        <time>2022-02-24T13:21:47.000Z</time>
      </trkpt>
      <trkpt lat="43.55858" lon="3.33095">
        <ele>237.895301</ele>
        <time>2022-02-24T13:21:48.000Z</time>
      </trkpt>
      <trkpt lat="43.55856" lon="3.331">
        <ele>237.904137</ele>
        <time>2022-02-24T13:21:49.000Z</time>
      </trkpt>
      <trkpt lat="43.55853" lon="3.33104">
        <ele>237.912838</ele>
        <time>2022-02-24T13:21:50.000Z</time>
      </trkpt>
      <trkpt lat="43.55851" lon="3.33108">
        <ele>238.09144</ele>
        <time>2022-02-24T13:21:51.000Z</time>
      </trkpt>
      <trkpt lat="43.55849" lon="3.33112">
        <ele>238.452621</ele>
        <time>2022-02-24T13:21:52.000Z</time>
      </trkpt>
      <trkpt lat="43.55846" lon="3.33117">
        <ele>238.87402</ele>
        <time>2022-02-24T13:21:53.000Z</time>
      </trkpt>
      <trkpt lat="43.55843" lon="3.33123">
        <ele>239.322969</ele>
        <time>2022-02-24T13:21:54.000Z</time>
      </trkpt>
      <trkpt lat="43.55841" lon="3.33128">
        <ele>239.778135</ele>
        <time>2022-02-24T13:21:56.000Z</time>
      </trkpt>
      <trkpt lat="43.55838" lon="3.33133">
        <ele>240.199534</ele>
        <time>2022-02-24T13:21:57.000Z</time>
      </trkpt>
      <trkpt lat="43.55833" lon="3.33142">
        <ele>240.911069</ele>
        <time>2022-02-24T13:21:58.000Z</time>
      </trkpt>
      <trkpt lat="43.55832" lon="3.33146">
        <ele>241.245672</ele>
        <time>2022-02-24T13:22:00.000Z</time>
      </trkpt>
      <trkpt lat="43.55829" lon="3.3315">
        <ele>241.60144</ele>
        <time>2022-02-24T13:22:01.000Z</time>
      </trkpt>
      <trkpt lat="43.55827" lon="3.33154">
        <ele>241.951839</ele>
        <time>2022-02-24T13:22:02.000Z</time>
      </trkpt>
      <trkpt lat="43.55825" lon="3.33158">
        <ele>242.275057</ele>
        <time>2022-02-24T13:22:03.000Z</time>
      </trkpt>
      <trkpt lat="43.55823" lon="3.33163">
        <ele>242.630824</ele>
        <time>2022-02-24T13:22:05.000Z</time>
      </trkpt>
      <trkpt lat="43.55821" lon="3.33166">
        <ele>242.948412</ele>
        <time>2022-02-24T13:22:06.000Z</time>
      </trkpt>
      <trkpt lat="43.55819" lon="3.3317">
        <ele>243.254875</ele>
        <time>2022-02-24T13:22:07.000Z</time>
      </trkpt>
      <trkpt lat="43.55817" lon="3.33174">
        <ele>243.561338</ele>
        <time>2022-02-24T13:22:08.000Z</time>
      </trkpt>
      <trkpt lat="43.55816" lon="3.33178">
        <ele>243.853772</ele>
        <time>2022-02-24T13:22:10.000Z</time>
      </trkpt>
      <trkpt lat="43.55814" lon="3.33182">
        <ele>244.223397</ele>
        <time>2022-02-24T13:22:11.000Z</time>
      </trkpt>
      <trkpt lat="43.55812" lon="3.33187">
        <ele>244.587106</ele>
        <time>2022-02-24T13:22:12.000Z</time>
      </trkpt>
      <trkpt lat="43.55809" lon="3.33193">
        <ele>245.010408</ele>
        <time>2022-02-24T13:22:14.000Z</time>
      </trkpt>
      <trkpt lat="43.55808" lon="3.33198">
        <ele>245.397948</ele>
        <time>2022-02-24T13:22:15.000Z</time>
      </trkpt>
      <trkpt lat="43.55806" lon="3.33202">
        <ele>245.767574</ele>
        <time>2022-02-24T13:22:16.000Z</time>
      </trkpt>
      <trkpt lat="43.55804" lon="3.33207">
        <ele>246.120838</ele>
        <time>2022-02-24T13:22:17.000Z</time>
      </trkpt>
      <trkpt lat="43.55803" lon="3.33212">
        <ele>246.484048</ele>
        <time>2022-02-24T13:22:19.000Z</time>
      </trkpt>
      <trkpt lat="43.55801" lon="3.33217">
        <ele>246.862287</ele>
        <time>2022-02-24T13:22:20.000Z</time>
      </trkpt>
      <trkpt lat="43.558" lon="3.33223">
        <ele>247.240525</ele>
        <time>2022-02-24T13:22:21.000Z</time>
      </trkpt>
      <trkpt lat="43.55798" lon="3.33228">
        <ele>247.647331</ele>
        <time>2022-02-24T13:22:23.000Z</time>
      </trkpt>
      <trkpt lat="43.55796" lon="3.33233">
        <ele>248.006811</ele>
        <time>2022-02-24T13:22:24.000Z</time>
      </trkpt>
      <trkpt lat="43.55795" lon="3.33238">
        <ele>248.35388</ele>
        <time>2022-02-24T13:22:25.000Z</time>
      </trkpt>
      <trkpt lat="43.55793" lon="3.33242">
        <ele>248.688624</ele>
        <time>2022-02-24T13:22:26.000Z</time>
      </trkpt>
      <trkpt lat="43.55792" lon="3.33247">
        <ele>249.027371</ele>
        <time>2022-02-24T13:22:27.000Z</time>
      </trkpt>
      <trkpt lat="43.5579" lon="3.33251">
        <ele>249.355987</ele>
        <time>2022-02-24T13:22:28.000Z</time>
      </trkpt>
      <trkpt lat="43.55789" lon="3.33255">
        <ele>249.678501</ele>
        <time>2022-02-24T13:22:29.000Z</time>
      </trkpt>
      <trkpt lat="43.55787" lon="3.3326">
        <ele>250.025571</ele>
        <time>2022-02-24T13:22:31.000Z</time>
      </trkpt>
      <trkpt lat="43.55786" lon="3.33265">
        <ele>250.343288</ele>
        <time>2022-02-24T13:22:32.000Z</time>
      </trkpt>
      <trkpt lat="43.55785" lon="3.33269">
        <ele>250.671905</ele>
        <time>2022-02-24T13:22:33.000Z</time>
      </trkpt>
      <trkpt lat="43.55784" lon="3.33273">
        <ele>250.986459</ele>
        <time>2022-02-24T13:22:34.000Z</time>
      </trkpt>
      <trkpt lat="43.55782" lon="3.33278">
        <ele>251.355842</ele>
        <time>2022-02-24T13:22:36.000Z</time>
      </trkpt>
      <trkpt lat="43.55781" lon="3.33283">
        <ele>251.702515</ele>
        <time>2022-02-24T13:22:37.000Z</time>
      </trkpt>
      <trkpt lat="43.5578" lon="3.33287">
        <ele>252.00762</ele>
        <time>2022-02-24T13:22:38.000Z</time>
      </trkpt>
      <trkpt lat="43.55778" lon="3.33292">
        <ele>252.342364</ele>
        <time>2022-02-24T13:22:40.000Z</time>
      </trkpt>
      <trkpt lat="43.55777" lon="3.33296">
        <ele>252.670981</ele>
        <time>2022-02-24T13:22:41.000Z</time>
      </trkpt>
      <trkpt lat="43.55775" lon="3.33301">
        <ele>253.005726</ele>
        <time>2022-02-24T13:22:42.000Z</time>
      </trkpt>
      <trkpt lat="43.55774" lon="3.33305">
        <ele>253.329778</ele>
        <time>2022-02-24T13:22:43.000Z</time>
      </trkpt>
      <trkpt lat="43.55773" lon="3.3331">
        <ele>253.631587</ele>
        <time>2022-02-24T13:22:45.000Z</time>
      </trkpt>
      <trkpt lat="43.55772" lon="3.33314">
        <ele>253.92416</ele>
        <time>2022-02-24T13:22:46.000Z</time>
      </trkpt>
      <trkpt lat="43.5577" lon="3.33318">
        <ele>254.240599</ele>
        <time>2022-02-24T13:22:47.000Z</time>
      </trkpt>
      <trkpt lat="43.55769" lon="3.33322">
        <ele>254.533035</ele>
        <time>2022-02-24T13:22:48.000Z</time>
      </trkpt>
      <trkpt lat="43.55767" lon="3.33325">
        <ele>254.726292</ele>
        <time>2022-02-24T13:22:49.000Z</time>
      </trkpt>
      <trkpt lat="43.55766" lon="3.33329">
        <ele>254.801335</ele>
        <time>2022-02-24T13:22:50.000Z</time>
      </trkpt>
      <trkpt lat="43.55764" lon="3.33333">
        <ele>254.879532</ele>
        <time>2022-02-24T13:22:51.000Z</time>
      </trkpt>
      <trkpt lat="43.55763" lon="3.33336">
        <ele>254.954575</ele>
        <time>2022-02-24T13:22:52.000Z</time>
      </trkpt>
      <trkpt lat="43.55761" lon="3.3334">
        <ele>255.038005</ele>
        <time>2022-02-24T13:22:53.000Z</time>
      </trkpt>
      <trkpt lat="43.55759" lon="3.33344">
        <ele>255.12595</ele>
        <time>2022-02-24T13:22:55.000Z</time>
      </trkpt>
      <trkpt lat="43.55757" lon="3.33348">
        <ele>255.215264</ele>
        <time>2022-02-24T13:22:56.000Z</time>
      </trkpt>
      <trkpt lat="43.55755" lon="3.33352">
        <ele>255.301693</ele>
        <time>2022-02-24T13:22:57.000Z</time>
      </trkpt>
      <trkpt lat="43.55753" lon="3.33356">
        <ele>255.389639</ele>
        <time>2022-02-24T13:22:59.000Z</time>
      </trkpt>
      <trkpt lat="43.55751" lon="3.3336">
        <ele>255.47012</ele>
        <time>2022-02-24T13:23:00.000Z</time>
      </trkpt>
      <trkpt lat="43.5575" lon="3.33363">
        <ele>255.540515</ele>
        <time>2022-02-24T13:23:01.000Z</time>
      </trkpt>
      <trkpt lat="43.55748" lon="3.33367">
        <ele>255.619543</ele>
        <time>2022-02-24T13:23:03.000Z</time>
      </trkpt>
      <trkpt lat="43.55746" lon="3.33371">
        <ele>255.702972</ele>
        <time>2022-02-24T13:23:04.000Z</time>
      </trkpt>
      <trkpt lat="43.55743" lon="3.33375">
        <ele>255.799553</ele>
        <time>2022-02-24T13:23:05.000Z</time>
      </trkpt>
      <trkpt lat="43.55741" lon="3.33379">
        <ele>255.89325</ele>
        <time>2022-02-24T13:23:06.000Z</time>
      </trkpt>
      <trkpt lat="43.55738" lon="3.33383">
        <ele>255.994709</ele>
        <time>2022-02-24T13:23:07.000Z</time>
      </trkpt>
      <trkpt lat="43.55736" lon="3.33387">
        <ele>256.078436</ele>
        <time>2022-02-24T13:23:08.000Z</time>
      </trkpt>
      <trkpt lat="43.55734" lon="3.3339">
        <ele>256.161176</ele>
        <time>2022-02-24T13:23:09.000Z</time>
      </trkpt>
      <trkpt lat="43.55732" lon="3.33393">
        <ele>256.242623</ele>
        <time>2022-02-24T13:23:10.000Z</time>
      </trkpt>
      <trkpt lat="43.55729" lon="3.33396">
        <ele>256.32407</ele>
        <time>2022-02-24T13:23:11.000Z</time>
      </trkpt>
      <trkpt lat="43.55727" lon="3.334">
        <ele>256.415221</ele>
        <time>2022-02-24T13:23:13.000Z</time>
      </trkpt>
      <trkpt lat="43.55724" lon="3.33403">
        <ele>256.506371</ele>
        <time>2022-02-24T13:23:14.000Z</time>
      </trkpt>
      <trkpt lat="43.55722" lon="3.33406">
        <ele>256.584781</ele>
        <time>2022-02-24T13:23:15.000Z</time>
      </trkpt>
      <trkpt lat="43.55719" lon="3.33409">
        <ele>256.663703</ele>
        <time>2022-02-24T13:23:16.000Z</time>
      </trkpt>
      <trkpt lat="43.55717" lon="3.33413">
        <ele>256.751796</ele>
        <time>2022-02-24T13:23:18.000Z</time>
      </trkpt>
      <trkpt lat="43.55715" lon="3.33416">
        <ele>256.837177</ele>
        <time>2022-02-24T13:23:19.000Z</time>
      </trkpt>
      <trkpt lat="43.55713" lon="3.3342">
        <ele>256.914766</ele>
        <time>2022-02-24T13:23:20.000Z</time>
      </trkpt>
      <trkpt lat="43.55711" lon="3.33423">
        <ele>256.986699</ele>
        <time>2022-02-24T13:23:21.000Z</time>
      </trkpt>
      <trkpt lat="43.55709" lon="3.33427">
        <ele>257.068673</ele>
        <time>2022-02-24T13:23:23.000Z</time>
      </trkpt>
      <trkpt lat="43.55708" lon="3.33431">
        <ele>257.150622</ele>
        <time>2022-02-24T13:23:24.000Z</time>
      </trkpt>
      <trkpt lat="43.55705" lon="3.33434">
        <ele>257.230333</ele>
        <time>2022-02-24T13:23:25.000Z</time>
      </trkpt>
      <trkpt lat="43.55703" lon="3.33435">
        <ele>257.290467</ele>
        <time>2022-02-24T13:23:27.000Z</time>
      </trkpt>
      <trkpt lat="43.55701" lon="3.33435">
        <ele>257.330407</ele>
        <time>2022-02-24T13:23:28.000Z</time>
      </trkpt>
      <trkpt lat="43.55701" lon="3.33434">
        <ele>257.356862</ele>
        <time>2022-02-24T13:23:29.000Z</time>
      </trkpt>
      <trkpt lat="43.557" lon="3.33432">
        <ele>257.385746</ele>
        <time>2022-02-24T13:23:30.000Z</time>
      </trkpt>
      <trkpt lat="43.557" lon="3.3343">
        <ele>257.420082</ele>
        <time>2022-02-24T13:23:31.000Z</time>
      </trkpt>
      <trkpt lat="43.55701" lon="3.33428">
        <ele>257.466185</ele>
        <time>2022-02-24T13:23:33.000Z</time>
      </trkpt>
      <trkpt lat="43.55702" lon="3.33425">
        <ele>257.519711</ele>
        <time>2022-02-24T13:23:34.000Z</time>
      </trkpt>
      <trkpt lat="43.55703" lon="3.33422">
        <ele>257.579179</ele>
        <time>2022-02-24T13:23:35.000Z</time>
      </trkpt>
      <trkpt lat="43.55703" lon="3.33419">
        <ele>257.637857</ele>
        <time>2022-02-24T13:23:36.000Z</time>
      </trkpt>
      <trkpt lat="43.55705" lon="3.33415">
        <ele>257.707828</ele>
        <time>2022-02-24T13:23:37.000Z</time>
      </trkpt>
      <trkpt lat="43.55706" lon="3.33412">
        <ele>257.781775</ele>
        <time>2022-02-24T13:23:38.000Z</time>
      </trkpt>
      <trkpt lat="43.55707" lon="3.33407">
        <ele>257.872357</ele>
        <time>2022-02-24T13:23:40.000Z</time>
      </trkpt>
      <trkpt lat="43.55708" lon="3.33403">
        <ele>257.953061</ele>
        <time>2022-02-24T13:23:41.000Z</time>
      </trkpt>
      <trkpt lat="43.55709" lon="3.33399">
        <ele>258.033288</ele>
        <time>2022-02-24T13:23:42.000Z</time>
      </trkpt>
      <trkpt lat="43.55709" lon="3.33394">
        <ele>258.118552</ele>
        <time>2022-02-24T13:23:43.000Z</time>
      </trkpt>
      <trkpt lat="43.55709" lon="3.3339">
        <ele>258.196618</ele>
        <time>2022-02-24T13:23:45.000Z</time>
      </trkpt>
      <trkpt lat="43.55708" lon="3.33385">
        <ele>258.282366</ele>
        <time>2022-02-24T13:23:46.000Z</time>
      </trkpt>
      <trkpt lat="43.55706" lon="3.33381">
        <ele>258.370312</ele>
        <time>2022-02-24T13:23:47.000Z</time>
      </trkpt>
      <trkpt lat="43.55703" lon="3.33377">
        <ele>258.462587</ele>
        <time>2022-02-24T13:23:48.000Z</time>
      </trkpt>
      <trkpt lat="43.55701" lon="3.33373">
        <ele>258.565184</ele>
        <time>2022-02-24T13:23:50.000Z</time>
      </trkpt>
      <trkpt lat="43.55698" lon="3.33369">
        <ele>258.674794</ele>
        <time>2022-02-24T13:23:52.000Z</time>
      </trkpt>
      <trkpt lat="43.55692" lon="3.33361">
        <ele>258.874975</ele>
        <time>2022-02-24T13:23:54.000Z</time>
      </trkpt>
      <trkpt lat="43.55689" lon="3.33357">
        <ele>258.977184</ele>
        <time>2022-02-24T13:23:55.000Z</time>
      </trkpt>
      <trkpt lat="43.55686" lon="3.33353">
        <ele>259.077521</ele>
        <time>2022-02-24T13:23:56.000Z</time>
      </trkpt>
      <trkpt lat="43.55683" lon="3.3335">
        <ele>259.17241</ele>
        <time>2022-02-24T13:23:57.000Z</time>
      </trkpt>
      <trkpt lat="43.5568" lon="3.33346">
        <ele>259.031042</ele>
        <time>2022-02-24T13:23:58.000Z</time>
      </trkpt>
      <trkpt lat="43.55677" lon="3.33342">
        <ele>258.880753</ele>
        <time>2022-02-24T13:23:59.000Z</time>
      </trkpt>
      <trkpt lat="43.55674" lon="3.33338">
        <ele>258.73655</ele>
        <time>2022-02-24T13:24:00.000Z</time>
      </trkpt>
      <trkpt lat="43.55671" lon="3.33334">
        <ele>258.596325</ele>
        <time>2022-02-24T13:24:01.000Z</time>
      </trkpt>
      <trkpt lat="43.55668" lon="3.33331">
        <ele>258.446117</ele>
        <time>2022-02-24T13:24:02.000Z</time>
      </trkpt>
      <trkpt lat="43.55664" lon="3.33328">
        <ele>258.301812</ele>
        <time>2022-02-24T13:24:03.000Z</time>
      </trkpt>
      <trkpt lat="43.5566" lon="3.33325">
        <ele>258.144935</ele>
        <time>2022-02-24T13:24:04.000Z</time>
      </trkpt>
      <trkpt lat="43.55656" lon="3.33322">
        <ele>257.980862</ele>
        <time>2022-02-24T13:24:05.000Z</time>
      </trkpt>
      <trkpt lat="43.55652" lon="3.3332">
        <ele>257.819888</ele>
        <time>2022-02-24T13:24:07.000Z</time>
      </trkpt>
      <trkpt lat="43.55648" lon="3.33318">
        <ele>257.6617</ele>
        <time>2022-02-24T13:24:08.000Z</time>
      </trkpt>
      <trkpt lat="43.55643" lon="3.33316">
        <ele>257.495059</ele>
        <time>2022-02-24T13:24:09.000Z</time>
      </trkpt>
      <trkpt lat="43.55637" lon="3.33314">
        <ele>257.284546</ele>
        <time>2022-02-24T13:24:11.000Z</time>
      </trkpt>
      <trkpt lat="43.55632" lon="3.33312">
        <ele>257.078044</ele>
        <time>2022-02-24T13:24:13.000Z</time>
      </trkpt>
      <trkpt lat="43.55626" lon="3.33311">
        <ele>256.872068</ele>
        <time>2022-02-24T13:24:14.000Z</time>
      </trkpt>
      <trkpt lat="43.55621" lon="3.33309">
        <ele>256.691899</ele>
        <time>2022-02-24T13:24:15.000Z</time>
      </trkpt>
      <trkpt lat="43.55616" lon="3.33308">
        <ele>256.516105</ele>
        <time>2022-02-24T13:24:16.000Z</time>
      </trkpt>
      <trkpt lat="43.5561" lon="3.33307">
        <ele>256.311927</ele>
        <time>2022-02-24T13:24:17.000Z</time>
      </trkpt>
      <trkpt lat="43.55605" lon="3.33306">
        <ele>256.132215</ele>
        <time>2022-02-24T13:24:18.000Z</time>
      </trkpt>
      <trkpt lat="43.556" lon="3.33305">
        <ele>255.952046</ele>
        <time>2022-02-24T13:24:19.000Z</time>
      </trkpt>
      <trkpt lat="43.55595" lon="3.33303">
        <ele>255.761426</ele>
        <time>2022-02-24T13:24:21.000Z</time>
      </trkpt>
      <trkpt lat="43.5559" lon="3.33302">
        <ele>255.582136</ele>
        <time>2022-02-24T13:24:22.000Z</time>
      </trkpt>
      <trkpt lat="43.55586" lon="3.33301">
        <ele>255.445607</ele>
        <time>2022-02-24T13:24:24.000Z</time>
      </trkpt>
      <trkpt lat="43.55571" lon="3.33298">
        <ele>254.915524</ele>
        <time>2022-02-24T13:24:26.000Z</time>
      </trkpt>
      <trkpt lat="43.5556" lon="3.33295">
        <ele>254.514494</ele>
        <time>2022-02-24T13:24:28.000Z</time>
      </trkpt>
      <trkpt lat="43.5556" lon="3.33294">
        <ele>254.482251</ele>
        <time>2022-02-24T13:24:29.000Z</time>
      </trkpt>
      <trkpt lat="43.55558" lon="3.33294">
        <ele>254.411908</ele>
        <time>2022-02-24T13:24:30.000Z</time>
      </trkpt>
      <trkpt lat="43.55553" lon="3.33291">
        <ele>254.251899</ele>
        <time>2022-02-24T13:24:32.000Z</time>
      </trkpt>
      <trkpt lat="43.55545" lon="3.33285">
        <ele>253.914568</ele>
        <time>2022-02-24T13:24:34.000Z</time>
      </trkpt>
      <trkpt lat="43.55541" lon="3.33281">
        <ele>253.729376</ele>
        <time>2022-02-24T13:24:35.000Z</time>
      </trkpt>
      <trkpt lat="43.55538" lon="3.33276">
        <ele>253.568649</ele>
        <time>2022-02-24T13:24:36.000Z</time>
      </trkpt>
      <trkpt lat="43.55535" lon="3.33271">
        <ele>253.406568</ele>
        <time>2022-02-24T13:24:37.000Z</time>
      </trkpt>
      <trkpt lat="43.55533" lon="3.33266">
        <ele>253.243611</ele>
        <time>2022-02-24T13:24:38.000Z</time>
      </trkpt>
      <trkpt lat="43.55531" lon="3.3326">
        <ele>253.078427</ele>
        <time>2022-02-24T13:24:40.000Z</time>
      </trkpt>
      <trkpt lat="43.55528" lon="3.33254">
        <ele>252.897397</ele>
        <time>2022-02-24T13:24:41.000Z</time>
      </trkpt>
      <trkpt lat="43.55526" lon="3.33248">
        <ele>252.814363</ele>
        <time>2022-02-24T13:24:42.000Z</time>
      </trkpt>
      <trkpt lat="43.55524" lon="3.33243">
        <ele>252.83025</ele>
        <time>2022-02-24T13:24:43.000Z</time>
      </trkpt>
      <trkpt lat="43.55521" lon="3.33238">
        <ele>252.846362</ele>
        <time>2022-02-24T13:24:44.000Z</time>
      </trkpt>
      <trkpt lat="43.55519" lon="3.33233">
        <ele>252.861143</ele>
        <time>2022-02-24T13:24:45.000Z</time>
      </trkpt>
      <trkpt lat="43.55517" lon="3.33229">
        <ele>252.874689</ele>
        <time>2022-02-24T13:24:46.000Z</time>
      </trkpt>
      <trkpt lat="43.55515" lon="3.33224">
        <ele>252.889038</ele>
        <time>2022-02-24T13:24:47.000Z</time>
      </trkpt>
      <trkpt lat="43.55513" lon="3.3322">
        <ele>252.902751</ele>
        <time>2022-02-24T13:24:48.000Z</time>
      </trkpt>
      <trkpt lat="43.5551" lon="3.33216">
        <ele>252.917799</ele>
        <time>2022-02-24T13:24:49.000Z</time>
      </trkpt>
      <trkpt lat="43.55507" lon="3.33214">
        <ele>252.931089</ele>
        <time>2022-02-24T13:24:52.000Z</time>
      </trkpt>
      <trkpt lat="43.55491" lon="3.33209">
        <ele>252.991019</ele>
        <time>2022-02-24T13:24:54.000Z</time>
      </trkpt>
      <trkpt lat="43.55464" lon="3.33205">
        <ele>253.087446</ele>
        <time>2022-02-24T13:24:56.000Z</time>
      </trkpt>
      <trkpt lat="43.55455" lon="3.33207">
        <ele>253.119745</ele>
        <time>2022-02-24T13:24:58.000Z</time>
      </trkpt>
      <trkpt lat="43.55454" lon="3.33207">
        <ele>253.12532</ele>
        <time>2022-02-24T13:25:00.000Z</time>
      </trkpt>
      <trkpt lat="43.55442" lon="3.33211">
        <ele>253.170019</ele>
        <time>2022-02-24T13:25:01.000Z</time>
      </trkpt>
      <trkpt lat="43.55438" lon="3.33213">
        <ele>253.186415</ele>
        <time>2022-02-24T13:25:02.000Z</time>
      </trkpt>
      <trkpt lat="43.55433" lon="3.33215">
        <ele>253.203513</ele>
        <time>2022-02-24T13:25:04.000Z</time>
      </trkpt>
      <trkpt lat="43.5543" lon="3.33216">
        <ele>253.21642</ele>
        <time>2022-02-24T13:25:05.000Z</time>
      </trkpt>
      <trkpt lat="43.55428" lon="3.33217">
        <ele>253.2225</ele>
        <time>2022-02-24T13:25:06.000Z</time>
      </trkpt>
      <trkpt lat="43.55428" lon="3.33217">
        <ele>253.225525</ele>
        <time>2022-02-24T13:25:07.000Z</time>
      </trkpt>
      <trkpt lat="43.55427" lon="3.33215">
        <ele>253.230153</ele>
        <time>2022-02-24T13:25:08.000Z</time>
      </trkpt>
      <trkpt lat="43.55427" lon="3.33212">
        <ele>253.236501</ele>
        <time>2022-02-24T13:25:09.000Z</time>
      </trkpt>
      <trkpt lat="43.55427" lon="3.33209">
        <ele>253.24535</ele>
        <time>2022-02-24T13:25:10.000Z</time>
      </trkpt>
      <trkpt lat="43.55426" lon="3.33205">
        <ele>253.255816</ele>
        <time>2022-02-24T13:25:11.000Z</time>
      </trkpt>
      <trkpt lat="43.55425" lon="3.33201">
        <ele>253.26773</ele>
        <time>2022-02-24T13:25:12.000Z</time>
      </trkpt>
      <trkpt lat="43.55424" lon="3.33196">
        <ele>253.281661</ele>
        <time>2022-02-24T13:25:13.000Z</time>
      </trkpt>
      <trkpt lat="43.55423" lon="3.33191">
        <ele>253.295735</ele>
        <time>2022-02-24T13:25:14.000Z</time>
      </trkpt>
      <trkpt lat="43.55421" lon="3.33185">
        <ele>253.311902</ele>
        <time>2022-02-24T13:25:15.000Z</time>
      </trkpt>
      <trkpt lat="43.5542" lon="3.33179">
        <ele>253.32922</ele>
        <time>2022-02-24T13:25:16.000Z</time>
      </trkpt>
      <trkpt lat="43.55418" lon="3.33173">
        <ele>253.347024</ele>
        <time>2022-02-24T13:25:17.000Z</time>
      </trkpt>
      <trkpt lat="43.55416" lon="3.33167">
        <ele>253.365072</ele>
        <time>2022-02-24T13:25:19.000Z</time>
      </trkpt>
      <trkpt lat="43.55414" lon="3.33161">
        <ele>253.380862</ele>
        <time>2022-02-24T13:25:20.000Z</time>
      </trkpt>
      <trkpt lat="43.55413" lon="3.33156">
        <ele>253.394931</ele>
        <time>2022-02-24T13:25:21.000Z</time>
      </trkpt>
      <trkpt lat="43.55407" lon="3.33142">
        <ele>253.438042</ele>
        <time>2022-02-24T13:25:28.000Z</time>
      </trkpt>
      <trkpt lat="43.55407" lon="3.33141">
        <ele>253.439365</ele>
        <time>2022-02-24T13:25:29.000Z</time>
      </trkpt>
      <trkpt lat="43.55407" lon="3.33141">
        <ele>253.440717</ele>
        <time>2022-02-24T13:25:30.000Z</time>
      </trkpt>
      <trkpt lat="43.55406" lon="3.3314">
        <ele>253.443288</ele>
        <time>2022-02-24T13:25:31.000Z</time>
      </trkpt>
      <trkpt lat="43.55407" lon="3.33138">
        <ele>253.449401</ele>
        <time>2022-02-24T13:25:32.000Z</time>
      </trkpt>
      <trkpt lat="43.55408" lon="3.33136">
        <ele>253.456897</ele>
        <time>2022-02-24T13:25:33.000Z</time>
      </trkpt>
      <trkpt lat="43.55409" lon="3.33133">
        <ele>253.492763</ele>
        <time>2022-02-24T13:25:34.000Z</time>
      </trkpt>
      <trkpt lat="43.5541" lon="3.33131">
        <ele>253.654404</ele>
        <time>2022-02-24T13:25:35.000Z</time>
      </trkpt>
      <trkpt lat="43.55412" lon="3.33127">
        <ele>253.848541</ele>
        <time>2022-02-24T13:25:37.000Z</time>
      </trkpt>
      <trkpt lat="43.55414" lon="3.33118">
        <ele>254.332132</ele>
        <time>2022-02-24T13:25:39.000Z</time>
      </trkpt>
      <trkpt lat="43.55415" lon="3.33112">
        <ele>254.636635</ele>
        <time>2022-02-24T13:25:41.000Z</time>
      </trkpt>
      <trkpt lat="43.55416" lon="3.33106">
        <ele>254.929742</ele>
        <time>2022-02-24T13:25:42.000Z</time>
      </trkpt>
      <trkpt lat="43.55417" lon="3.331">
        <ele>255.227654</ele>
        <time>2022-02-24T13:25:43.000Z</time>
      </trkpt>
      <trkpt lat="43.55418" lon="3.33095">
        <ele>255.506404</ele>
        <time>2022-02-24T13:25:44.000Z</time>
      </trkpt>
      <trkpt lat="43.55419" lon="3.3309">
        <ele>255.751146</ele>
        <time>2022-02-24T13:25:45.000Z</time>
      </trkpt>
      <trkpt lat="43.5542" lon="3.33086">
        <ele>255.984708</ele>
        <time>2022-02-24T13:25:46.000Z</time>
      </trkpt>
      <trkpt lat="43.5542" lon="3.33081">
        <ele>256.209992</ele>
        <time>2022-02-24T13:25:47.000Z</time>
      </trkpt>
      <trkpt lat="43.5542" lon="3.33077">
        <ele>256.425415</ele>
        <time>2022-02-24T13:25:48.000Z</time>
      </trkpt>
      <trkpt lat="43.55421" lon="3.33072">
        <ele>256.660567</ele>
        <time>2022-02-24T13:25:50.000Z</time>
      </trkpt>
      <trkpt lat="43.55421" lon="3.33067">
        <ele>256.890784</ele>
        <time>2022-02-24T13:25:51.000Z</time>
      </trkpt>
      <trkpt lat="43.55421" lon="3.33063">
        <ele>257.125234</ele>
        <time>2022-02-24T13:25:52.000Z</time>
      </trkpt>
      <trkpt lat="43.55422" lon="3.33058">
        <ele>257.350518</ele>
        <time>2022-02-24T13:25:53.000Z</time>
      </trkpt>
      <trkpt lat="43.55422" lon="3.33054">
        <ele>257.58567</ele>
        <time>2022-02-24T13:25:54.000Z</time>
      </trkpt>
      <trkpt lat="43.55423" lon="3.33051">
        <ele>257.727481</ele>
        <time>2022-02-24T13:25:56.000Z</time>
      </trkpt>
      <trkpt lat="43.55424" lon="3.33038">
        <ele>258.367979</ele>
        <time>2022-02-24T13:25:57.000Z</time>
      </trkpt>
      <trkpt lat="43.55424" lon="3.33033">
        <ele>258.608066</ele>
        <time>2022-02-24T13:25:58.000Z</time>
      </trkpt>
      <trkpt lat="43.55425" lon="3.3303">
        <ele>258.789043</ele>
        <time>2022-02-24T13:25:59.000Z</time>
      </trkpt>
      <trkpt lat="43.55425" lon="3.33026">
        <ele>258.96511</ele>
        <time>2022-02-24T13:26:00.000Z</time>
      </trkpt>
      <trkpt lat="43.55425" lon="3.33024">
        <ele>259.092328</ele>
        <time>2022-02-24T13:26:02.000Z</time>
      </trkpt>
      <trkpt lat="43.55427" lon="3.33012">
        <ele>259.697421</ele>
        <time>2022-02-24T13:26:03.000Z</time>
      </trkpt>
      <trkpt lat="43.55428" lon="3.33007">
        <ele>259.921266</ele>
        <time>2022-02-24T13:26:04.000Z</time>
      </trkpt>
      <trkpt lat="43.55428" lon="3.33004">
        <ele>260.094177</ele>
        <time>2022-02-24T13:26:05.000Z</time>
      </trkpt>
      <trkpt lat="43.55429" lon="3.33001">
        <ele>260.267087</ele>
        <time>2022-02-24T13:26:06.000Z</time>
      </trkpt>
      <trkpt lat="43.5543" lon="3.32997">
        <ele>260.461916</ele>
        <time>2022-02-24T13:26:08.000Z</time>
      </trkpt>
      <trkpt lat="43.55431" lon="3.32993">
        <ele>260.658546</ele>
        <time>2022-02-24T13:26:09.000Z</time>
      </trkpt>
      <trkpt lat="43.55431" lon="3.32989">
        <ele>260.859953</ele>
        <time>2022-02-24T13:26:10.000Z</time>
      </trkpt>
      <trkpt lat="43.55433" lon="3.32985">
        <ele>261.077197</ele>
        <time>2022-02-24T13:26:12.000Z</time>
      </trkpt>
      <trkpt lat="43.55434" lon="3.32981">
        <ele>261.294442</ele>
        <time>2022-02-24T13:26:13.000Z</time>
      </trkpt>
      <trkpt lat="43.55435" lon="3.32977">
        <ele>261.518776</ele>
        <time>2022-02-24T13:26:14.000Z</time>
      </trkpt>
      <trkpt lat="43.55436" lon="3.32973">
        <ele>261.731367</ele>
        <time>2022-02-24T13:26:15.000Z</time>
      </trkpt>
      <trkpt lat="43.55437" lon="3.32969">
        <ele>261.946486</ele>
        <time>2022-02-24T13:26:16.000Z</time>
      </trkpt>
      <trkpt lat="43.55439" lon="3.32965">
        <ele>262.16588</ele>
        <time>2022-02-24T13:26:17.000Z</time>
      </trkpt>
      <trkpt lat="43.5544" lon="3.32961">
        <ele>262.394099</ele>
        <time>2022-02-24T13:26:18.000Z</time>
      </trkpt>
      <trkpt lat="43.55442" lon="3.32956">
        <ele>262.652128</ele>
        <time>2022-02-24T13:26:20.000Z</time>
      </trkpt>
      <trkpt lat="43.55444" lon="3.32951">
        <ele>262.928272</ele>
        <time>2022-02-24T13:26:21.000Z</time>
      </trkpt>
      <trkpt lat="43.55445" lon="3.32946">
        <ele>263.183461</ele>
        <time>2022-02-24T13:26:22.000Z</time>
      </trkpt>
      <trkpt lat="43.55447" lon="3.32942">
        <ele>263.429587</ele>
        <time>2022-02-24T13:26:23.000Z</time>
      </trkpt>
      <trkpt lat="43.55448" lon="3.32938">
        <ele>263.662253</ele>
        <time>2022-02-24T13:26:24.000Z</time>
      </trkpt>
      <trkpt lat="43.5545" lon="3.32933">
        <ele>263.920281</ele>
        <time>2022-02-24T13:26:25.000Z</time>
      </trkpt>
      <trkpt lat="43.55451" lon="3.32928">
        <ele>264.184595</ele>
        <time>2022-02-24T13:26:27.000Z</time>
      </trkpt>
      <trkpt lat="43.55453" lon="3.32923">
        <ele>264.458091</ele>
        <time>2022-02-24T13:26:28.000Z</time>
      </trkpt>
      <trkpt lat="43.55454" lon="3.3292">
        <ele>264.628362</ele>
        <time>2022-02-24T13:26:30.000Z</time>
      </trkpt>
      <trkpt lat="43.5546" lon="3.32904">
        <ele>265.492047</ele>
        <time>2022-02-24T13:26:31.000Z</time>
      </trkpt>
      <trkpt lat="43.55462" lon="3.32898">
        <ele>265.824361</ele>
        <time>2022-02-24T13:26:33.000Z</time>
      </trkpt>
      <trkpt lat="43.55463" lon="3.32894">
        <ele>266.022882</ele>
        <time>2022-02-24T13:26:34.000Z</time>
      </trkpt>
      <trkpt lat="43.55464" lon="3.32892">
        <ele>266.146555</ele>
        <time>2022-02-24T13:26:36.000Z</time>
      </trkpt>
      <trkpt lat="43.55469" lon="3.32878">
        <ele>266.765037</ele>
        <time>2022-02-24T13:26:38.000Z</time>
      </trkpt>
      <trkpt lat="43.55471" lon="3.32872">
        <ele>267.067915</ele>
        <time>2022-02-24T13:26:39.000Z</time>
      </trkpt>
      <trkpt lat="43.55473" lon="3.32868">
        <ele>267.26909</ele>
        <time>2022-02-24T13:26:40.000Z</time>
      </trkpt>
      <trkpt lat="43.55474" lon="3.32864">
        <ele>267.446524</ele>
        <time>2022-02-24T13:26:42.000Z</time>
      </trkpt>
      <trkpt lat="43.55475" lon="3.3286">
        <ele>267.60827</ele>
        <time>2022-02-24T13:26:43.000Z</time>
      </trkpt>
      <trkpt lat="43.55477" lon="3.32853">
        <ele>267.934134</ele>
        <time>2022-02-24T13:26:45.000Z</time>
      </trkpt>
      <trkpt lat="43.55478" lon="3.32849">
        <ele>268.133458</ele>
        <time>2022-02-24T13:26:46.000Z</time>
      </trkpt>
      <trkpt lat="43.5548" lon="3.32844">
        <ele>268.343462</ele>
        <time>2022-02-24T13:26:47.000Z</time>
      </trkpt>
      <trkpt lat="43.55482" lon="3.32839">
        <ele>268.582827</ele>
        <time>2022-02-24T13:26:49.000Z</time>
      </trkpt>
      <trkpt lat="43.55483" lon="3.32834">
        <ele>268.816185</ele>
        <time>2022-02-24T13:26:50.000Z</time>
      </trkpt>
      <trkpt lat="43.55485" lon="3.32829">
        <ele>269.047921</ele>
        <time>2022-02-24T13:26:51.000Z</time>
      </trkpt>
      <trkpt lat="43.55486" lon="3.32825">
        <ele>269.269545</ele>
        <time>2022-02-24T13:26:52.000Z</time>
      </trkpt>
      <trkpt lat="43.55488" lon="3.3282">
        <ele>269.49898</ele>
        <time>2022-02-24T13:26:53.000Z</time>
      </trkpt>
      <trkpt lat="43.55489" lon="3.32815">
        <ele>269.720603</ele>
        <time>2022-02-24T13:26:54.000Z</time>
      </trkpt>
      <trkpt lat="43.55491" lon="3.3281">
        <ele>269.952339</ele>
        <time>2022-02-24T13:26:55.000Z</time>
      </trkpt>
      <trkpt lat="43.55492" lon="3.32805">
        <ele>270.182008</ele>
        <time>2022-02-24T13:26:57.000Z</time>
      </trkpt>
      <trkpt lat="43.55493" lon="3.32799">
        <ele>270.417428</ele>
        <time>2022-02-24T13:26:58.000Z</time>
      </trkpt>
      <trkpt lat="43.55494" lon="3.32794">
        <ele>270.65117</ele>
        <time>2022-02-24T13:26:59.000Z</time>
      </trkpt>
      <trkpt lat="43.55495" lon="3.32789">
        <ele>270.868265</ele>
        <time>2022-02-24T13:27:00.000Z</time>
      </trkpt>
      <trkpt lat="43.55496" lon="3.32784">
        <ele>271.096674</ele>
        <time>2022-02-24T13:27:01.000Z</time>
      </trkpt>
      <trkpt lat="43.55496" lon="3.32778">
        <ele>271.326816</ele>
        <time>2022-02-24T13:27:03.000Z</time>
      </trkpt>
      <trkpt lat="43.55496" lon="3.32773">
        <ele>271.560004</ele>
        <time>2022-02-24T13:27:04.000Z</time>
      </trkpt>
      <trkpt lat="43.55496" lon="3.32767">
        <ele>271.798582</ele>
        <time>2022-02-24T13:27:05.000Z</time>
      </trkpt>
      <trkpt lat="43.55495" lon="3.32762">
        <ele>272.022822</ele>
        <time>2022-02-24T13:27:06.000Z</time>
      </trkpt>
      <trkpt lat="43.55494" lon="3.32757">
        <ele>272.239917</ele>
        <time>2022-02-24T13:27:07.000Z</time>
      </trkpt>
      <trkpt lat="43.55493" lon="3.32752">
        <ele>272.457405</ele>
        <time>2022-02-24T13:27:08.000Z</time>
      </trkpt>
      <trkpt lat="43.55492" lon="3.32747">
        <ele>272.66868</ele>
        <time>2022-02-24T13:27:09.000Z</time>
      </trkpt>
      <trkpt lat="43.55491" lon="3.32743">
        <ele>272.871012</ele>
        <time>2022-02-24T13:27:10.000Z</time>
      </trkpt>
      <trkpt lat="43.55489" lon="3.32739">
        <ele>273.081016</ele>
        <time>2022-02-24T13:27:11.000Z</time>
      </trkpt>
      <trkpt lat="43.55487" lon="3.32734">
        <ele>273.294541</ele>
        <time>2022-02-24T13:27:12.000Z</time>
      </trkpt>
      <trkpt lat="43.55486" lon="3.3273">
        <ele>273.48825</ele>
        <time>2022-02-24T13:27:13.000Z</time>
      </trkpt>
      <trkpt lat="43.55484" lon="3.32726">
        <ele>273.705406</ele>
        <time>2022-02-24T13:27:14.000Z</time>
      </trkpt>
      <trkpt lat="43.55482" lon="3.32721">
        <ele>273.929889</ele>
        <time>2022-02-24T13:27:15.000Z</time>
      </trkpt>
      <trkpt lat="43.55479" lon="3.32715">
        <ele>274.210204</ele>
        <time>2022-02-24T13:27:17.000Z</time>
      </trkpt>
      <trkpt lat="43.55478" lon="3.3271">
        <ele>274.460902</ele>
        <time>2022-02-24T13:27:18.000Z</time>
      </trkpt>
      <trkpt lat="43.55476" lon="3.32705">
        <ele>274.707808</ele>
        <time>2022-02-24T13:27:19.000Z</time>
      </trkpt>
      <trkpt lat="43.55474" lon="3.327">
        <ele>274.939696</ele>
        <time>2022-02-24T13:27:21.000Z</time>
      </trkpt>
      <trkpt lat="43.55472" lon="3.32696">
        <ele>275.156853</ele>
        <time>2022-02-24T13:27:22.000Z</time>
      </trkpt>
      <trkpt lat="43.5547" lon="3.32691">
        <ele>275.374009</ele>
        <time>2022-02-24T13:27:23.000Z</time>
      </trkpt>
      <trkpt lat="43.55468" lon="3.32687">
        <ele>275.56496</ele>
        <time>2022-02-24T13:27:24.000Z</time>
      </trkpt>
      <trkpt lat="43.55467" lon="3.32684">
        <ele>275.751291</ele>
        <time>2022-02-24T13:27:25.000Z</time>
      </trkpt>
      <trkpt lat="43.55465" lon="3.3268">
        <ele>275.938487</ele>
        <time>2022-02-24T13:27:26.000Z</time>
      </trkpt>
      <trkpt lat="43.55464" lon="3.32675">
        <ele>276.144648</ele>
        <time>2022-02-24T13:27:27.000Z</time>
      </trkpt>
      <trkpt lat="43.55462" lon="3.32671">
        <ele>276.351756</ele>
        <time>2022-02-24T13:27:29.000Z</time>
      </trkpt>
      <trkpt lat="43.55461" lon="3.32666">
        <ele>276.52109</ele>
        <time>2022-02-24T13:27:30.000Z</time>
      </trkpt>
      <trkpt lat="43.5546" lon="3.32662">
        <ele>276.68472</ele>
        <time>2022-02-24T13:27:31.000Z</time>
      </trkpt>
      <trkpt lat="43.5546" lon="3.32658">
        <ele>276.823184</ele>
        <time>2022-02-24T13:27:32.000Z</time>
      </trkpt>
      <trkpt lat="43.55459" lon="3.32654">
        <ele>276.962286</ele>
        <time>2022-02-24T13:27:34.000Z</time>
      </trkpt>
      <trkpt lat="43.55459" lon="3.3265">
        <ele>277.097891</ele>
        <time>2022-02-24T13:27:35.000Z</time>
      </trkpt>
      <trkpt lat="43.55458" lon="3.32646">
        <ele>277.233497</ele>
        <time>2022-02-24T13:27:36.000Z</time>
      </trkpt>
      <trkpt lat="43.55458" lon="3.32643">
        <ele>277.367694</ele>
        <time>2022-02-24T13:27:37.000Z</time>
      </trkpt>
      <trkpt lat="43.55458" lon="3.32638">
        <ele>277.512486</ele>
        <time>2022-02-24T13:27:38.000Z</time>
      </trkpt>
      <trkpt lat="43.55458" lon="3.32634">
        <ele>277.68553</ele>
        <time>2022-02-24T13:27:40.000Z</time>
      </trkpt>
      <trkpt lat="43.55459" lon="3.32629">
        <ele>277.863178</ele>
        <time>2022-02-24T13:27:41.000Z</time>
      </trkpt>
      <trkpt lat="43.55459" lon="3.32623">
        <ele>278.054873</ele>
        <time>2022-02-24T13:27:42.000Z</time>
      </trkpt>
      <trkpt lat="43.55459" lon="3.32618">
        <ele>278.238511</ele>
        <time>2022-02-24T13:27:43.000Z</time>
      </trkpt>
      <trkpt lat="43.55459" lon="3.32613">
        <ele>278.397429</ele>
        <time>2022-02-24T13:27:45.000Z</time>
      </trkpt>
      <trkpt lat="43.5546" lon="3.32609">
        <ele>278.543527</ele>
        <time>2022-02-24T13:27:46.000Z</time>
      </trkpt>
      <trkpt lat="43.5546" lon="3.32605">
        <ele>278.693126</ele>
        <time>2022-02-24T13:27:47.000Z</time>
      </trkpt>
      <trkpt lat="43.5546" lon="3.326">
        <ele>278.862638</ele>
        <time>2022-02-24T13:27:49.000Z</time>
      </trkpt>
      <trkpt lat="43.5546" lon="3.32595">
        <ele>279.036298</ele>
        <time>2022-02-24T13:27:50.000Z</time>
      </trkpt>
      <trkpt lat="43.5546" lon="3.32589">
        <ele>279.255252</ele>
        <time>2022-02-24T13:27:52.000Z</time>
      </trkpt>
      <trkpt lat="43.5546" lon="3.32577">
        <ele>279.69669</ele>
        <time>2022-02-24T13:27:54.000Z</time>
      </trkpt>
      <trkpt lat="43.5546" lon="3.3257">
        <ele>279.926238</ele>
        <time>2022-02-24T13:27:55.000Z</time>
      </trkpt>
      <trkpt lat="43.5546" lon="3.32565">
        <ele>280.124542</ele>
        <time>2022-02-24T13:27:56.000Z</time>
      </trkpt>
      <trkpt lat="43.5546" lon="3.3256">
        <ele>280.294054</ele>
        <time>2022-02-24T13:27:57.000Z</time>
      </trkpt>
      <trkpt lat="43.5546" lon="3.32556">
        <ele>280.443653</ele>
        <time>2022-02-24T13:27:58.000Z</time>
      </trkpt>
      <trkpt lat="43.55459" lon="3.32552">
        <ele>280.582754</ele>
        <time>2022-02-24T13:27:59.000Z</time>
      </trkpt>
      <trkpt lat="43.55459" lon="3.32547">
        <ele>280.735855</ele>
        <time>2022-02-24T13:28:01.000Z</time>
      </trkpt>
      <trkpt lat="43.55458" lon="3.32542">
        <ele>280.913503</ele>
        <time>2022-02-24T13:28:03.000Z</time>
      </trkpt>
      <trkpt lat="43.55458" lon="3.32537">
        <ele>281.094202</ele>
        <time>2022-02-24T13:28:04.000Z</time>
      </trkpt>
      <trkpt lat="43.55458" lon="3.32531">
        <ele>281.328095</ele>
        <time>2022-02-24T13:28:05.000Z</time>
      </trkpt>
      <trkpt lat="43.55457" lon="3.32524">
        <ele>281.574868</ele>
        <time>2022-02-24T13:28:06.000Z</time>
      </trkpt>
      <trkpt lat="43.55456" lon="3.32516">
        <ele>281.848925</ele>
        <time>2022-02-24T13:28:08.000Z</time>
      </trkpt>
      <trkpt lat="43.55455" lon="3.32508">
        <ele>282.151625</ele>
        <time>2022-02-24T13:28:09.000Z</time>
      </trkpt>
      <trkpt lat="43.55455" lon="3.325">
        <ele>282.429827</ele>
        <time>2022-02-24T13:28:11.000Z</time>
      </trkpt>
      <trkpt lat="43.55454" lon="3.32493">
        <ele>282.67238</ele>
        <time>2022-02-24T13:28:12.000Z</time>
      </trkpt>
      <trkpt lat="43.55454" lon="3.32487">
        <ele>282.888683</ele>
        <time>2022-02-24T13:28:13.000Z</time>
      </trkpt>
      <trkpt lat="43.55453" lon="3.32481">
        <ele>283.09092</ele>
        <time>2022-02-24T13:28:14.000Z</time>
      </trkpt>
      <trkpt lat="43.55453" lon="3.32476">
        <ele>283.286129</ele>
        <time>2022-02-24T13:28:15.000Z</time>
      </trkpt>
      <trkpt lat="43.55452" lon="3.3247">
        <ele>283.476382</ele>
        <time>2022-02-24T13:28:16.000Z</time>
      </trkpt>
      <trkpt lat="43.55451" lon="3.32466">
        <ele>283.64688</ele>
        <time>2022-02-24T13:28:17.000Z</time>
      </trkpt>
      <trkpt lat="43.5545" lon="3.32462">
        <ele>283.800241</ele>
        <time>2022-02-24T13:28:19.000Z</time>
      </trkpt>
      <trkpt lat="43.5545" lon="3.32458">
        <ele>283.935285</ele>
        <time>2022-02-24T13:28:20.000Z</time>
      </trkpt>
      <trkpt lat="43.55449" lon="3.32454">
        <ele>284.068263</ele>
        <time>2022-02-24T13:28:21.000Z</time>
      </trkpt>
      <trkpt lat="43.55448" lon="3.3245">
        <ele>284.212769</ele>
        <time>2022-02-24T13:28:22.000Z</time>
      </trkpt>
      <trkpt lat="43.55446" lon="3.32446">
        <ele>284.380336</ele>
        <time>2022-02-24T13:28:23.000Z</time>
      </trkpt>
      <trkpt lat="43.55444" lon="3.32442">
        <ele>284.560658</ele>
        <time>2022-02-24T13:28:25.000Z</time>
      </trkpt>
      <trkpt lat="43.55441" lon="3.32438">
        <ele>284.778384</ele>
        <time>2022-02-24T13:28:26.000Z</time>
      </trkpt>
      <trkpt lat="43.55438" lon="3.32435">
        <ele>284.956877</ele>
        <time>2022-02-24T13:28:27.000Z</time>
      </trkpt>
      <trkpt lat="43.55434" lon="3.32433">
        <ele>285.118997</ele>
        <time>2022-02-24T13:28:28.000Z</time>
      </trkpt>
      <trkpt lat="43.55431" lon="3.32432">
        <ele>285.267661</ele>
        <time>2022-02-24T13:28:29.000Z</time>
      </trkpt>
      <trkpt lat="43.55428" lon="3.32431">
        <ele>285.415937</ele>
        <time>2022-02-24T13:28:31.000Z</time>
      </trkpt>
      <trkpt lat="43.55425" lon="3.3243">
        <ele>285.541789</ele>
        <time>2022-02-24T13:28:32.000Z</time>
      </trkpt>
      <trkpt lat="43.55421" lon="3.3243">
        <ele>285.671038</ele>
        <time>2022-02-24T13:28:33.000Z</time>
      </trkpt>
      <trkpt lat="43.55419" lon="3.3243">
        <ele>285.779322</ele>
        <time>2022-02-24T13:28:34.000Z</time>
      </trkpt>
      <trkpt lat="43.55416" lon="3.3243">
        <ele>285.891811</ele>
        <time>2022-02-24T13:28:35.000Z</time>
      </trkpt>
      <trkpt lat="43.55414" lon="3.3243">
        <ele>285.987791</ele>
        <time>2022-02-24T13:28:36.000Z</time>
      </trkpt>
      <trkpt lat="43.55412" lon="3.32431">
        <ele>286.084007</ele>
        <time>2022-02-24T13:28:38.000Z</time>
      </trkpt>
      <trkpt lat="43.55409" lon="3.32431">
        <ele>286.19682</ele>
        <time>2022-02-24T13:28:39.000Z</time>
      </trkpt>
      <trkpt lat="43.55406" lon="3.32432">
        <ele>286.322671</ele>
        <time>2022-02-24T13:28:40.000Z</time>
      </trkpt>
      <trkpt lat="43.55403" lon="3.32432">
        <ele>286.453043</ele>
        <time>2022-02-24T13:28:41.000Z</time>
      </trkpt>
      <trkpt lat="43.554" lon="3.32433">
        <ele>286.579292</ele>
        <time>2022-02-24T13:28:42.000Z</time>
      </trkpt>
      <trkpt lat="43.55397" lon="3.32433">
        <ele>286.69319</ele>
        <time>2022-02-24T13:28:43.000Z</time>
      </trkpt>
      <trkpt lat="43.55394" lon="3.32434">
        <ele>286.803516</ele>
        <time>2022-02-24T13:28:44.000Z</time>
      </trkpt>
      <trkpt lat="43.55391" lon="3.32435">
        <ele>286.936824</ele>
        <time>2022-02-24T13:28:45.000Z</time>
      </trkpt>
      <trkpt lat="43.55389" lon="3.32436">
        <ele>287.054962</ele>
        <time>2022-02-24T13:28:46.000Z</time>
      </trkpt>
      <trkpt lat="43.55385" lon="3.32438">
        <ele>287.203626</ele>
        <time>2022-02-24T13:28:47.000Z</time>
      </trkpt>
      <trkpt lat="43.55382" lon="3.32439">
        <ele>287.353237</ele>
        <time>2022-02-24T13:28:49.000Z</time>
      </trkpt>
      <trkpt lat="43.55379" lon="3.32441">
        <ele>287.490053</ele>
        <time>2022-02-24T13:28:50.000Z</time>
      </trkpt>
      <trkpt lat="43.55376" lon="3.32442">
        <ele>287.609151</ele>
        <time>2022-02-24T13:28:51.000Z</time>
      </trkpt>
      <trkpt lat="43.55373" lon="3.32443">
        <ele>287.721563</ele>
        <time>2022-02-24T13:28:53.000Z</time>
      </trkpt>
      <trkpt lat="43.55368" lon="3.32445">
        <ele>287.935329</ele>
        <time>2022-02-24T13:28:55.000Z</time>
      </trkpt>
      <trkpt lat="43.55366" lon="3.32445">
        <ele>288.048786</ele>
        <time>2022-02-24T13:28:56.000Z</time>
      </trkpt>
      <trkpt lat="43.55363" lon="3.32446">
        <ele>288.173874</ele>
        <time>2022-02-24T13:28:57.000Z</time>
      </trkpt>
      <trkpt lat="43.5536" lon="3.32445">
        <ele>288.303018</ele>
        <time>2022-02-24T13:28:58.000Z</time>
      </trkpt>
      <trkpt lat="43.55357" lon="3.32445">
        <ele>288.411973</ele>
        <time>2022-02-24T13:28:59.000Z</time>
      </trkpt>
      <trkpt lat="43.55354" lon="3.32445">
        <ele>288.541398</ele>
        <time>2022-02-24T13:29:00.000Z</time>
      </trkpt>
      <trkpt lat="43.55351" lon="3.32444">
        <ele>288.654493</ele>
        <time>2022-02-24T13:29:01.000Z</time>
      </trkpt>
      <trkpt lat="43.55349" lon="3.32444">
        <ele>288.763448</ele>
        <time>2022-02-24T13:29:02.000Z</time>
      </trkpt>
      <trkpt lat="43.55346" lon="3.32444">
        <ele>288.893119</ele>
        <time>2022-02-24T13:29:03.000Z</time>
      </trkpt>
      <trkpt lat="43.55343" lon="3.32443">
        <ele>289.001445</ele>
        <time>2022-02-24T13:29:04.000Z</time>
      </trkpt>
      <trkpt lat="43.5534" lon="3.32444">
        <ele>289.131116</ele>
        <time>2022-02-24T13:29:05.000Z</time>
      </trkpt>
      <trkpt lat="43.55337" lon="3.32445">
        <ele>289.251242</ele>
        <time>2022-02-24T13:29:06.000Z</time>
      </trkpt>
      <trkpt lat="43.55335" lon="3.32447">
        <ele>289.376714</ele>
        <time>2022-02-24T13:29:07.000Z</time>
      </trkpt>
      <trkpt lat="43.55332" lon="3.3245">
        <ele>289.498655</ele>
        <time>2022-02-24T13:29:08.000Z</time>
      </trkpt>
      <trkpt lat="43.5533" lon="3.32454">
        <ele>289.645544</ele>
        <time>2022-02-24T13:29:10.000Z</time>
      </trkpt>
      <trkpt lat="43.55329" lon="3.32458">
        <ele>289.784623</ele>
        <time>2022-02-24T13:29:11.000Z</time>
      </trkpt>
      <trkpt lat="43.55328" lon="3.32462">
        <ele>289.914703</ele>
        <time>2022-02-24T13:29:12.000Z</time>
      </trkpt>
      <trkpt lat="43.55328" lon="3.32467">
        <ele>290.051546</ele>
        <time>2022-02-24T13:29:13.000Z</time>
      </trkpt>
      <trkpt lat="43.55328" lon="3.32471">
        <ele>290.181335</ele>
        <time>2022-02-24T13:29:14.000Z</time>
      </trkpt>
      <trkpt lat="43.55328" lon="3.32476">
        <ele>290.314143</ele>
        <time>2022-02-24T13:29:15.000Z</time>
      </trkpt>
      <trkpt lat="43.55328" lon="3.3248">
        <ele>290.431858</ele>
        <time>2022-02-24T13:29:16.000Z</time>
      </trkpt>
      <trkpt lat="43.55328" lon="3.32483">
        <ele>290.5375</ele>
        <time>2022-02-24T13:29:17.000Z</time>
      </trkpt>
      <trkpt lat="43.55328" lon="3.32486">
        <ele>290.634088</ele>
        <time>2022-02-24T13:29:18.000Z</time>
      </trkpt>
      <trkpt lat="43.55328" lon="3.3249">
        <ele>290.736712</ele>
        <time>2022-02-24T13:29:20.000Z</time>
      </trkpt>
      <trkpt lat="43.55328" lon="3.32493">
        <ele>290.849626</ele>
        <time>2022-02-24T13:29:21.000Z</time>
      </trkpt>
      <trkpt lat="43.55327" lon="3.32497">
        <ele>290.959556</ele>
        <time>2022-02-24T13:29:22.000Z</time>
      </trkpt>
      <trkpt lat="43.55327" lon="3.32501">
        <ele>291.093405</ele>
        <time>2022-02-24T13:29:23.000Z</time>
      </trkpt>
      <trkpt lat="43.55327" lon="3.32506">
        <ele>291.229804</ele>
        <time>2022-02-24T13:29:24.000Z</time>
      </trkpt>
      <trkpt lat="43.55326" lon="3.3251">
        <ele>291.37259</ele>
        <time>2022-02-24T13:29:25.000Z</time>
      </trkpt>
      <trkpt lat="43.55325" lon="3.32515">
        <ele>291.524195</ele>
        <time>2022-02-24T13:29:26.000Z</time>
      </trkpt>
      <trkpt lat="43.55324" lon="3.32521">
        <ele>291.699321</ele>
        <time>2022-02-24T13:29:27.000Z</time>
      </trkpt>
      <trkpt lat="43.55323" lon="3.32526">
        <ele>291.869803</ele>
        <time>2022-02-24T13:29:28.000Z</time>
      </trkpt>
      <trkpt lat="43.55321" lon="3.32532">
        <ele>292.047177</ele>
        <time>2022-02-24T13:29:30.000Z</time>
      </trkpt>
      <trkpt lat="43.55315" lon="3.32556">
        <ele>292.753325</ele>
        <time>2022-02-24T13:29:31.000Z</time>
      </trkpt>
      <trkpt lat="43.55313" lon="3.32561">
        <ele>292.862878</ele>
        <time>2022-02-24T13:29:33.000Z</time>
      </trkpt>
      <trkpt lat="43.55312" lon="3.32565">
        <ele>292.960693</ele>
        <time>2022-02-24T13:29:34.000Z</time>
      </trkpt>
      <trkpt lat="43.5531" lon="3.32569">
        <ele>293.061829</ele>
        <time>2022-02-24T13:29:35.000Z</time>
      </trkpt>
      <trkpt lat="43.55308" lon="3.32575">
        <ele>293.219607</ele>
        <time>2022-02-24T13:29:36.000Z</time>
      </trkpt>
      <trkpt lat="43.55306" lon="3.3258">
        <ele>293.328469</ele>
        <time>2022-02-24T13:29:38.000Z</time>
      </trkpt>
      <trkpt lat="43.55299" lon="3.32598">
        <ele>293.780911</ele>
        <time>2022-02-24T13:29:39.000Z</time>
      </trkpt>
      <trkpt lat="43.55296" lon="3.326">
        <ele>293.878353</ele>
        <time>2022-02-24T13:29:41.000Z</time>
      </trkpt>
      <trkpt lat="43.55294" lon="3.32603">
        <ele>293.957031</ele>
        <time>2022-02-24T13:29:42.000Z</time>
      </trkpt>
      <trkpt lat="43.55292" lon="3.32606">
        <ele>294.059642</ele>
        <time>2022-02-24T13:29:43.000Z</time>
      </trkpt>
      <trkpt lat="43.55289" lon="3.32611">
        <ele>294.182812</ele>
        <time>2022-02-24T13:29:45.000Z</time>
      </trkpt>
      <trkpt lat="43.55287" lon="3.32616">
        <ele>294.302511</ele>
        <time>2022-02-24T13:29:46.000Z</time>
      </trkpt>
      <trkpt lat="43.55285" lon="3.3262">
        <ele>294.434476</ele>
        <time>2022-02-24T13:29:47.000Z</time>
      </trkpt>
      <trkpt lat="43.55282" lon="3.32625">
        <ele>294.554071</ele>
        <time>2022-02-24T13:29:48.000Z</time>
      </trkpt>
      <trkpt lat="43.5528" lon="3.3263">
        <ele>294.687759</ele>
        <time>2022-02-24T13:29:49.000Z</time>
      </trkpt>
      <trkpt lat="43.55277" lon="3.32635">
        <ele>294.819655</ele>
        <time>2022-02-24T13:29:50.000Z</time>
      </trkpt>
      <trkpt lat="43.55274" lon="3.32639">
        <ele>294.949912</ele>
        <time>2022-02-24T13:29:51.000Z</time>
      </trkpt>
      <trkpt lat="43.55271" lon="3.32644">
        <ele>295.091178</ele>
        <time>2022-02-24T13:29:53.000Z</time>
      </trkpt>
      <trkpt lat="43.55268" lon="3.32649">
        <ele>295.22558</ele>
        <time>2022-02-24T13:29:54.000Z</time>
      </trkpt>
      <trkpt lat="43.55265" lon="3.32654">
        <ele>295.37449</ele>
        <time>2022-02-24T13:29:55.000Z</time>
      </trkpt>
      <trkpt lat="43.55262" lon="3.32658">
        <ele>295.510915</ele>
        <time>2022-02-24T13:29:56.000Z</time>
      </trkpt>
      <trkpt lat="43.55259" lon="3.32663">
        <ele>295.645317</ele>
        <time>2022-02-24T13:29:57.000Z</time>
      </trkpt>
      <trkpt lat="43.55256" lon="3.32668">
        <ele>295.78334</ele>
        <time>2022-02-24T13:29:59.000Z</time>
      </trkpt>
      <trkpt lat="43.55252" lon="3.32672">
        <ele>295.919765</ele>
        <time>2022-02-24T13:30:00.000Z</time>
      </trkpt>
      <trkpt lat="43.55249" lon="3.32677">
        <ele>296.070267</ele>
        <time>2022-02-24T13:30:01.000Z</time>
      </trkpt>
      <trkpt lat="43.55246" lon="3.32682">
        <ele>296.219178</ele>
        <time>2022-02-24T13:30:02.000Z</time>
      </trkpt>
      <trkpt lat="43.55242" lon="3.32687">
        <ele>296.365538</ele>
        <time>2022-02-24T13:30:03.000Z</time>
      </trkpt>
      <trkpt lat="43.55239" lon="3.32692">
        <ele>296.49994</ele>
        <time>2022-02-24T13:30:04.000Z</time>
      </trkpt>
      <trkpt lat="43.55236" lon="3.32696">
        <ele>296.630138</ele>
        <time>2022-02-24T13:30:05.000Z</time>
      </trkpt>
      <trkpt lat="43.55233" lon="3.327">
        <ele>296.748461</ele>
        <time>2022-02-24T13:30:06.000Z</time>
      </trkpt>
      <trkpt lat="43.55231" lon="3.32704">
        <ele>296.859358</ele>
        <time>2022-02-24T13:30:07.000Z</time>
      </trkpt>
      <trkpt lat="43.55228" lon="3.32708">
        <ele>296.984575</ele>
        <time>2022-02-24T13:30:09.000Z</time>
      </trkpt>
      <trkpt lat="43.55226" lon="3.32713">
        <ele>297.113138</ele>
        <time>2022-02-24T13:30:10.000Z</time>
      </trkpt>
      <trkpt lat="43.55223" lon="3.32718">
        <ele>297.241555</ele>
        <time>2022-02-24T13:30:12.000Z</time>
      </trkpt>
      <trkpt lat="43.55222" lon="3.32721">
        <ele>297.325991</ele>
        <time>2022-02-24T13:30:14.000Z</time>
      </trkpt>
      <trkpt lat="43.55214" lon="3.32734">
        <ele>297.697262</ele>
        <time>2022-02-24T13:30:15.000Z</time>
      </trkpt>
      <trkpt lat="43.55211" lon="3.3274">
        <ele>297.852023</ele>
        <time>2022-02-24T13:30:16.000Z</time>
      </trkpt>
      <trkpt lat="43.55209" lon="3.32745">
        <ele>297.965705</ele>
        <time>2022-02-24T13:30:17.000Z</time>
      </trkpt>
      <trkpt lat="43.55207" lon="3.32749">
        <ele>297.989018</ele>
        <time>2022-02-24T13:30:18.000Z</time>
      </trkpt>
      <trkpt lat="43.55205" lon="3.32753">
        <ele>298.014244</ele>
        <time>2022-02-24T13:30:19.000Z</time>
      </trkpt>
      <trkpt lat="43.55204" lon="3.32756">
        <ele>298.03663</ele>
        <time>2022-02-24T13:30:20.000Z</time>
      </trkpt>
      <trkpt lat="43.55202" lon="3.3276">
        <ele>298.061883</ele>
        <time>2022-02-24T13:30:21.000Z</time>
      </trkpt>
      <trkpt lat="43.552" lon="3.32764">
        <ele>298.087579</ele>
        <time>2022-02-24T13:30:22.000Z</time>
      </trkpt>
      <trkpt lat="43.55198" lon="3.32769">
        <ele>298.114171</ele>
        <time>2022-02-24T13:30:23.000Z</time>
      </trkpt>
      <trkpt lat="43.55196" lon="3.32773">
        <ele>298.142127</ele>
        <time>2022-02-24T13:30:25.000Z</time>
      </trkpt>
      <trkpt lat="43.55195" lon="3.32778">
        <ele>298.167325</ele>
        <time>2022-02-24T13:30:26.000Z</time>
      </trkpt>
      <trkpt lat="43.55193" lon="3.32782">
        <ele>298.192379</ele>
        <time>2022-02-24T13:30:27.000Z</time>
      </trkpt>
      <trkpt lat="43.55191" lon="3.32786">
        <ele>298.215692</ele>
        <time>2022-02-24T13:30:28.000Z</time>
      </trkpt>
      <trkpt lat="43.5519" lon="3.3279">
        <ele>298.241367</ele>
        <time>2022-02-24T13:30:29.000Z</time>
      </trkpt>
      <trkpt lat="43.55188" lon="3.32795">
        <ele>298.27071</ele>
        <time>2022-02-24T13:30:30.000Z</time>
      </trkpt>
      <trkpt lat="43.55186" lon="3.328">
        <ele>298.304239</ele>
        <time>2022-02-24T13:30:31.000Z</time>
      </trkpt>
      <trkpt lat="43.55183" lon="3.32806">
        <ele>298.341083</ele>
        <time>2022-02-24T13:30:33.000Z</time>
      </trkpt>
      <trkpt lat="43.5518" lon="3.32812">
        <ele>298.37743</ele>
        <time>2022-02-24T13:30:34.000Z</time>
      </trkpt>
      <trkpt lat="43.55176" lon="3.32817">
        <ele>298.417553</ele>
        <time>2022-02-24T13:30:35.000Z</time>
      </trkpt>
      <trkpt lat="43.55172" lon="3.32822">
        <ele>298.456621</ele>
        <time>2022-02-24T13:30:36.000Z</time>
      </trkpt>
      <trkpt lat="43.55168" lon="3.32826">
        <ele>298.493801</ele>
        <time>2022-02-24T13:30:38.000Z</time>
      </trkpt>
      <trkpt lat="43.55159" lon="3.32832">
        <ele>298.566275</ele>
        <time>2022-02-24T13:30:40.000Z</time>
      </trkpt>
      <trkpt lat="43.55154" lon="3.32835">
        <ele>298.605204</ele>
        <time>2022-02-24T13:30:41.000Z</time>
      </trkpt>
      <trkpt lat="43.55149" lon="3.32837">
        <ele>298.640504</ele>
        <time>2022-02-24T13:30:42.000Z</time>
      </trkpt>
      <trkpt lat="43.55145" lon="3.32839">
        <ele>298.677587</ele>
        <time>2022-02-24T13:30:43.000Z</time>
      </trkpt>
      <trkpt lat="43.5514" lon="3.3284">
        <ele>298.714866</ele>
        <time>2022-02-24T13:30:45.000Z</time>
      </trkpt>
      <trkpt lat="43.55135" lon="3.32842">
        <ele>298.751219</ele>
        <time>2022-02-24T13:30:46.000Z</time>
      </trkpt>
      <trkpt lat="43.5513" lon="3.32842">
        <ele>298.781859</ele>
        <time>2022-02-24T13:30:48.000Z</time>
      </trkpt>
      <trkpt lat="43.55113" lon="3.3284">
        <ele>298.907531</ele>
        <time>2022-02-24T13:30:50.000Z</time>
      </trkpt>
      <trkpt lat="43.55095" lon="3.32833">
        <ele>299.045606</ele>
        <time>2022-02-24T13:30:52.000Z</time>
      </trkpt>
      <trkpt lat="43.55084" lon="3.32824">
        <ele>299.14105</ele>
        <time>2022-02-24T13:30:54.000Z</time>
      </trkpt>
      <trkpt lat="43.55073" lon="3.32807">
        <ele>299.260599</ele>
        <time>2022-02-24T13:30:56.000Z</time>
      </trkpt>
      <trkpt lat="43.55072" lon="3.32805">
        <ele>299.271748</ele>
        <time>2022-02-24T13:30:58.000Z</time>
      </trkpt>
      <trkpt lat="43.55065" lon="3.32784">
        <ele>299.415995</ele>
        <time>2022-02-24T13:31:00.000Z</time>
      </trkpt>
      <trkpt lat="43.55064" lon="3.32782">
        <ele>299.429212</ele>
        <time>2022-02-24T13:31:02.000Z</time>
      </trkpt>
      <trkpt lat="43.55058" lon="3.3276">
        <ele>299.573544</ele>
        <time>2022-02-24T13:31:04.000Z</time>
      </trkpt>
      <trkpt lat="43.55056" lon="3.32752">
        <ele>299.631662</ele>
        <time>2022-02-24T13:31:06.000Z</time>
      </trkpt>
      <trkpt lat="43.55055" lon="3.3275">
        <ele>299.646374</ele>
        <time>2022-02-24T13:31:08.000Z</time>
      </trkpt>
      <trkpt lat="43.55048" lon="3.32725">
        <ele>299.810789</ele>
        <time>2022-02-24T13:31:10.000Z</time>
      </trkpt>
      <trkpt lat="43.55048" lon="3.32722">
        <ele>299.827736</ele>
        <time>2022-02-24T13:31:12.000Z</time>
      </trkpt>
      <trkpt lat="43.55041" lon="3.32698">
        <ele>299.988359</ele>
        <time>2022-02-24T13:31:14.000Z</time>
      </trkpt>
      <trkpt lat="43.55038" lon="3.32688">
        <ele>300.052794</ele>
        <time>2022-02-24T13:31:16.000Z</time>
      </trkpt>
      <trkpt lat="43.55038" lon="3.32686">
        <ele>300.067694</ele>
        <time>2022-02-24T13:31:18.000Z</time>
      </trkpt>
      <trkpt lat="43.5503" lon="3.32658">
        <ele>300.254331</ele>
        <time>2022-02-24T13:31:20.000Z</time>
      </trkpt>
      <trkpt lat="43.55029" lon="3.32656">
        <ele>300.269043</ele>
        <time>2022-02-24T13:31:22.000Z</time>
      </trkpt>
      <trkpt lat="43.55022" lon="3.32632">
        <ele>300.429153</ele>
        <time>2022-02-24T13:31:24.000Z</time>
      </trkpt>
      <trkpt lat="43.5502" lon="3.32623">
        <ele>300.487283</ele>
        <time>2022-02-24T13:31:26.000Z</time>
      </trkpt>
      <trkpt lat="43.5502" lon="3.32621">
        <ele>300.501774</ele>
        <time>2022-02-24T13:31:28.000Z</time>
      </trkpt>
      <trkpt lat="43.55019" lon="3.32592">
        <ele>300.680044</ele>
        <time>2022-02-24T13:31:30.000Z</time>
      </trkpt>
      <trkpt lat="43.55019" lon="3.32589">
        <ele>300.694927</ele>
        <time>2022-02-24T13:31:32.000Z</time>
      </trkpt>
      <trkpt lat="43.55019" lon="3.32575">
        <ele>300.786341</ele>
        <time>2022-02-24T13:31:34.000Z</time>
      </trkpt>
      <trkpt lat="43.5502" lon="3.32559">
        <ele>300.904463</ele>
        <time>2022-02-24T13:31:36.000Z</time>
      </trkpt>
      <trkpt lat="43.55019" lon="3.3254">
        <ele>301.043482</ele>
        <time>2022-02-24T13:31:38.000Z</time>
      </trkpt>
      <trkpt lat="43.55017" lon="3.32531">
        <ele>301.117399</ele>
        <time>2022-02-24T13:31:40.000Z</time>
      </trkpt>
      <trkpt lat="43.55016" lon="3.32529">
        <ele>301.134252</ele>
        <time>2022-02-24T13:31:42.000Z</time>
      </trkpt>
      <trkpt lat="43.55002" lon="3.32507">
        <ele>301.36007</ele>
        <time>2022-02-24T13:31:44.000Z</time>
      </trkpt>
      <trkpt lat="43.55001" lon="3.32506">
        <ele>301.381107</ele>
        <time>2022-02-24T13:31:46.000Z</time>
      </trkpt>
      <trkpt lat="43.54987" lon="3.32483">
        <ele>301.607502</ele>
        <time>2022-02-24T13:31:48.000Z</time>
      </trkpt>
      <trkpt lat="43.54986" lon="3.32481">
        <ele>301.627763</ele>
        <time>2022-02-24T13:31:50.000Z</time>
      </trkpt>
      <trkpt lat="43.54982" lon="3.32466">
        <ele>301.753963</ele>
        <time>2022-02-24T13:31:52.000Z</time>
      </trkpt>
      <trkpt lat="43.54976" lon="3.32438">
        <ele>301.970728</ele>
        <time>2022-02-24T13:31:54.000Z</time>
      </trkpt>
      <trkpt lat="43.54976" lon="3.32436">
        <ele>301.989616</ele>
        <time>2022-02-24T13:31:56.000Z</time>
      </trkpt>
      <trkpt lat="43.54974" lon="3.32409">
        <ele>302.193484</ele>
        <time>2022-02-24T13:31:58.000Z</time>
      </trkpt>
      <trkpt lat="43.54974" lon="3.32407">
        <ele>302.211891</ele>
        <time>2022-02-24T13:32:00.000Z</time>
      </trkpt>
      <trkpt lat="43.54975" lon="3.3238">
        <ele>302.416808</ele>
        <time>2022-02-24T13:32:02.000Z</time>
      </trkpt>
      <trkpt lat="43.54975" lon="3.32378">
        <ele>302.435215</ele>
        <time>2022-02-24T13:32:04.000Z</time>
      </trkpt>
      <trkpt lat="43.54976" lon="3.32351">
        <ele>302.640173</ele>
        <time>2022-02-24T13:32:06.000Z</time>
      </trkpt>
      <trkpt lat="43.54976" lon="3.32341">
        <ele>302.718539</ele>
        <time>2022-02-24T13:32:08.000Z</time>
      </trkpt>
      <trkpt lat="43.54977" lon="3.32329">
        <ele>302.770833</ele>
        <time>2022-02-24T13:32:10.000Z</time>
      </trkpt>
      <trkpt lat="43.54976" lon="3.32316">
        <ele>302.829271</ele>
        <time>2022-02-24T13:32:12.000Z</time>
      </trkpt>
      <trkpt lat="43.54976" lon="3.32313">
        <ele>302.841568</ele>
        <time>2022-02-24T13:32:14.000Z</time>
      </trkpt>
      <trkpt lat="43.54971" lon="3.32278">
        <ele>302.997007</ele>
        <time>2022-02-24T13:32:16.000Z</time>
      </trkpt>
      <trkpt lat="43.5497" lon="3.32276">
        <ele>303.009188</ele>
        <time>2022-02-24T13:32:18.000Z</time>
      </trkpt>
      <trkpt lat="43.54966" lon="3.32258">
        <ele>303.088898</ele>
        <time>2022-02-24T13:32:20.000Z</time>
      </trkpt>
      <trkpt lat="43.54957" lon="3.32228">
        <ele>303.232663</ele>
        <time>2022-02-24T13:32:22.000Z</time>
      </trkpt>
      <trkpt lat="43.54956" lon="3.32226">
        <ele>303.243867</ele>
        <time>2022-02-24T13:32:24.000Z</time>
      </trkpt>
      <trkpt lat="43.54946" lon="3.32201">
        <ele>303.36874</ele>
        <time>2022-02-24T13:32:26.000Z</time>
      </trkpt>
      <trkpt lat="43.54945" lon="3.32199">
        <ele>303.379766</ele>
        <time>2022-02-24T13:32:28.000Z</time>
      </trkpt>
      <trkpt lat="43.54937" lon="3.32187">
        <ele>303.450924</ele>
        <time>2022-02-24T13:32:30.000Z</time>
      </trkpt>
      <trkpt lat="43.5493" lon="3.32173">
        <ele>303.525683</ele>
        <time>2022-02-24T13:32:32.000Z</time>
      </trkpt>
      <trkpt lat="43.54924" lon="3.32161">
        <ele>303.591501</ele>
        <time>2022-02-24T13:32:34.000Z</time>
      </trkpt>
      <trkpt lat="43.54919" lon="3.32148">
        <ele>303.652678</ele>
        <time>2022-02-24T13:32:36.000Z</time>
      </trkpt>
      <trkpt lat="43.54915" lon="3.32137">
        <ele>303.708585</ele>
        <time>2022-02-24T13:32:38.000Z</time>
      </trkpt>
      <trkpt lat="43.54912" lon="3.32125">
        <ele>303.763131</ele>
        <time>2022-02-24T13:32:40.000Z</time>
      </trkpt>
      <trkpt lat="43.5491" lon="3.32119">
        <ele>303.790591</ele>
        <time>2022-02-24T13:32:42.000Z</time>
      </trkpt>
      <trkpt lat="43.5491" lon="3.32118">
        <ele>303.798859</ele>
        <time>2022-02-24T13:32:44.000Z</time>
      </trkpt>
      <trkpt lat="43.54906" lon="3.32098">
        <ele>303.99043</ele>
        <time>2022-02-24T13:32:46.000Z</time>
      </trkpt>
      <trkpt lat="43.54906" lon="3.32095">
        <ele>304.013547</ele>
        <time>2022-02-24T13:32:47.000Z</time>
      </trkpt>
      <trkpt lat="43.54906" lon="3.32093">
        <ele>304.034462</ele>
        <time>2022-02-24T13:32:48.000Z</time>
      </trkpt>
      <trkpt lat="43.54906" lon="3.32091">
        <ele>304.052763</ele>
        <time>2022-02-24T13:32:49.000Z</time>
      </trkpt>
      <trkpt lat="43.54906" lon="3.3209">
        <ele>304.063358</ele>
        <time>2022-02-24T13:32:51.000Z</time>
      </trkpt>
      <trkpt lat="43.54905" lon="3.32082">
        <ele>304.146085</ele>
        <time>2022-02-24T13:32:53.000Z</time>
      </trkpt>
      <trkpt lat="43.54904" lon="3.32078">
        <ele>304.188535</ele>
        <time>2022-02-24T13:32:54.000Z</time>
      </trkpt>
      <trkpt lat="43.54903" lon="3.32074">
        <ele>304.222052</ele>
        <time>2022-02-24T13:32:55.000Z</time>
      </trkpt>
      <trkpt lat="43.54903" lon="3.32071">
        <ele>304.251434</ele>
        <time>2022-02-24T13:32:56.000Z</time>
      </trkpt>
      <trkpt lat="43.54902" lon="3.32068">
        <ele>304.286338</ele>
        <time>2022-02-24T13:32:58.000Z</time>
      </trkpt>
      <trkpt lat="43.54903" lon="3.32065">
        <ele>304.310747</ele>
        <time>2022-02-24T13:33:00.000Z</time>
      </trkpt>
      <trkpt lat="43.54907" lon="3.32053">
        <ele>304.436543</ele>
        <time>2022-02-24T13:33:01.000Z</time>
      </trkpt>
      <trkpt lat="43.54909" lon="3.32049">
        <ele>304.488032</ele>
        <time>2022-02-24T13:33:02.000Z</time>
      </trkpt>
      <trkpt lat="43.54911" lon="3.32046">
        <ele>304.528795</ele>
        <time>2022-02-24T13:33:03.000Z</time>
      </trkpt>
      <trkpt lat="43.54913" lon="3.32044">
        <ele>304.56176</ele>
        <time>2022-02-24T13:33:04.000Z</time>
      </trkpt>
      <trkpt lat="43.54915" lon="3.32041">
        <ele>304.601275</ele>
        <time>2022-02-24T13:33:05.000Z</time>
      </trkpt>
      <trkpt lat="43.54918" lon="3.32038">
        <ele>304.65331</ele>
        <time>2022-02-24T13:33:07.000Z</time>
      </trkpt>
      <trkpt lat="43.54921" lon="3.32035">
        <ele>304.7043</ele>
        <time>2022-02-24T13:33:08.000Z</time>
      </trkpt>
      <trkpt lat="43.54924" lon="3.32031">
        <ele>304.754199</ele>
        <time>2022-02-24T13:33:09.000Z</time>
      </trkpt>
      <trkpt lat="43.54927" lon="3.32027">
        <ele>304.811269</ele>
        <time>2022-02-24T13:33:10.000Z</time>
      </trkpt>
      <trkpt lat="43.54931" lon="3.32023">
        <ele>304.868226</ele>
        <time>2022-02-24T13:33:11.000Z</time>
      </trkpt>
      <trkpt lat="43.54934" lon="3.3202">
        <ele>304.922922</ele>
        <time>2022-02-24T13:33:12.000Z</time>
      </trkpt>
      <trkpt lat="43.54938" lon="3.32017">
        <ele>304.983642</ele>
        <time>2022-02-24T13:33:14.000Z</time>
      </trkpt>
      <trkpt lat="43.54942" lon="3.32013">
        <ele>305.043832</ele>
        <time>2022-02-24T13:33:15.000Z</time>
      </trkpt>
      <trkpt lat="43.54945" lon="3.32009">
        <ele>305.107284</ele>
        <time>2022-02-24T13:33:16.000Z</time>
      </trkpt>
      <trkpt lat="43.54949" lon="3.32006">
        <ele>305.169654</ele>
        <time>2022-02-24T13:33:17.000Z</time>
      </trkpt>
      <trkpt lat="43.54953" lon="3.32002">
        <ele>305.227203</ele>
        <time>2022-02-24T13:33:18.000Z</time>
      </trkpt>
      <trkpt lat="43.54957" lon="3.31997">
        <ele>305.302142</ele>
        <time>2022-02-24T13:33:20.000Z</time>
      </trkpt>
      <trkpt lat="43.54962" lon="3.31993">
        <ele>305.378212</ele>
        <time>2022-02-24T13:33:21.000Z</time>
      </trkpt>
      <trkpt lat="43.54966" lon="3.31988">
        <ele>305.452567</ele>
        <time>2022-02-24T13:33:23.000Z</time>
      </trkpt>
      <trkpt lat="43.5497" lon="3.31982">
        <ele>305.525064</ele>
        <time>2022-02-24T13:33:24.000Z</time>
      </trkpt>
      <trkpt lat="43.54974" lon="3.31977">
        <ele>305.594187</ele>
        <time>2022-02-24T13:33:25.000Z</time>
      </trkpt>
      <trkpt lat="43.54977" lon="3.31973">
        <ele>305.656137</ele>
        <time>2022-02-24T13:33:26.000Z</time>
      </trkpt>
      <trkpt lat="43.54981" lon="3.31969">
        <ele>305.717155</ele>
        <time>2022-02-24T13:33:27.000Z</time>
      </trkpt>
      <trkpt lat="43.54984" lon="3.31965">
        <ele>305.776536</ele>
        <time>2022-02-24T13:33:28.000Z</time>
      </trkpt>
      <trkpt lat="43.54988" lon="3.3196">
        <ele>305.842464</ele>
        <time>2022-02-24T13:33:29.000Z</time>
      </trkpt>
      <trkpt lat="43.54992" lon="3.31956">
        <ele>305.913729</ele>
        <time>2022-02-24T13:33:31.000Z</time>
      </trkpt>
      <trkpt lat="43.54996" lon="3.31951">
        <ele>305.984399</ele>
        <time>2022-02-24T13:33:32.000Z</time>
      </trkpt>
      <trkpt lat="43.55001" lon="3.31947">
        <ele>306.061046</ele>
        <time>2022-02-24T13:33:34.000Z</time>
      </trkpt>
      <trkpt lat="43.55005" lon="3.31942">
        <ele>306.137116</ele>
        <time>2022-02-24T13:33:35.000Z</time>
      </trkpt>
      <trkpt lat="43.5501" lon="3.31938">
        <ele>306.244192</ele>
        <time>2022-02-24T13:33:36.000Z</time>
      </trkpt>
      <trkpt lat="43.55013" lon="3.31935">
        <ele>306.492471</ele>
        <time>2022-02-24T13:33:38.000Z</time>
      </trkpt>
      <trkpt lat="43.55029" lon="3.3192">
        <ele>307.81536</ele>
        <time>2022-02-24T13:33:39.000Z</time>
      </trkpt>
      <trkpt lat="43.55032" lon="3.31918">
        <ele>308.056295</ele>
        <time>2022-02-24T13:33:41.000Z</time>
      </trkpt>
      <trkpt lat="43.55035" lon="3.31916">
        <ele>308.31083</ele>
        <time>2022-02-24T13:33:42.000Z</time>
      </trkpt>
      <trkpt lat="43.55039" lon="3.31913">
        <ele>308.592086</ele>
        <time>2022-02-24T13:33:43.000Z</time>
      </trkpt>
      <trkpt lat="43.55043" lon="3.31911">
        <ele>308.86954</ele>
        <time>2022-02-24T13:33:44.000Z</time>
      </trkpt>
      <trkpt lat="43.55047" lon="3.31909">
        <ele>309.148859</ele>
        <time>2022-02-24T13:33:45.000Z</time>
      </trkpt>
      <trkpt lat="43.55051" lon="3.31907">
        <ele>309.432124</ele>
        <time>2022-02-24T13:33:46.000Z</time>
      </trkpt>
      <trkpt lat="43.55055" lon="3.31904">
        <ele>309.77095</ele>
        <time>2022-02-24T13:33:48.000Z</time>
      </trkpt>
      <trkpt lat="43.55059" lon="3.31901">
        <ele>310.079074</ele>
        <time>2022-02-24T13:33:49.000Z</time>
      </trkpt>
      <trkpt lat="43.55064" lon="3.31899">
        <ele>310.383573</ele>
        <time>2022-02-24T13:33:50.000Z</time>
      </trkpt>
      <trkpt lat="43.55068" lon="3.31897">
        <ele>310.686364</ele>
        <time>2022-02-24T13:33:51.000Z</time>
      </trkpt>
      <trkpt lat="43.55072" lon="3.31895">
        <ele>310.963819</ele>
        <time>2022-02-24T13:33:53.000Z</time>
      </trkpt>
      <trkpt lat="43.55075" lon="3.31893">
        <ele>311.224505</ele>
        <time>2022-02-24T13:33:54.000Z</time>
      </trkpt>
      <trkpt lat="43.55079" lon="3.31891">
        <ele>311.471339</ele>
        <time>2022-02-24T13:33:55.000Z</time>
      </trkpt>
      <trkpt lat="43.55082" lon="3.31889">
        <ele>311.716455</ele>
        <time>2022-02-24T13:33:56.000Z</time>
      </trkpt>
      <trkpt lat="43.55085" lon="3.31888">
        <ele>311.966366</ele>
        <time>2022-02-24T13:33:57.000Z</time>
      </trkpt>
      <trkpt lat="43.55089" lon="3.31886">
        <ele>312.238685</ele>
        <time>2022-02-24T13:33:59.000Z</time>
      </trkpt>
      <trkpt lat="43.55093" lon="3.31884">
        <ele>312.512638</ele>
        <time>2022-02-24T13:34:00.000Z</time>
      </trkpt>
      <trkpt lat="43.55097" lon="3.31882">
        <ele>312.784957</ele>
        <time>2022-02-24T13:34:01.000Z</time>
      </trkpt>
      <trkpt lat="43.551" lon="3.3188">
        <ele>313.03179</ele>
        <time>2022-02-24T13:34:02.000Z</time>
      </trkpt>
      <trkpt lat="43.55104" lon="3.31878">
        <ele>313.313799</ele>
        <time>2022-02-24T13:34:03.000Z</time>
      </trkpt>
      <trkpt lat="43.55108" lon="3.31877">
        <ele>313.587752</ele>
        <time>2022-02-24T13:34:04.000Z</time>
      </trkpt>
      <trkpt lat="43.55112" lon="3.31875">
        <ele>313.888904</ele>
        <time>2022-02-24T13:34:06.000Z</time>
      </trkpt>
      <trkpt lat="43.55117" lon="3.31873">
        <ele>314.207874</ele>
        <time>2022-02-24T13:34:07.000Z</time>
      </trkpt>
      <trkpt lat="43.55121" lon="3.31871">
        <ele>314.529416</ele>
        <time>2022-02-24T13:34:08.000Z</time>
      </trkpt>
      <trkpt lat="43.55125" lon="3.3187">
        <ele>314.771678</ele>
        <time>2022-02-24T13:34:10.000Z</time>
      </trkpt>
      <trkpt lat="43.55141" lon="3.31865">
        <ele>315.910079</ele>
        <time>2022-02-24T13:34:11.000Z</time>
      </trkpt>
      <trkpt lat="43.55146" lon="3.31863">
        <ele>316.232061</ele>
        <time>2022-02-24T13:34:12.000Z</time>
      </trkpt>
      <trkpt lat="43.55149" lon="3.31861">
        <ele>316.50438</ele>
        <time>2022-02-24T13:34:14.000Z</time>
      </trkpt>
      <trkpt lat="43.55154" lon="3.3186">
        <ele>316.794138</ele>
        <time>2022-02-24T13:34:15.000Z</time>
      </trkpt>
      <trkpt lat="43.55158" lon="3.3186">
        <ele>317.059209</ele>
        <time>2022-02-24T13:34:16.000Z</time>
      </trkpt>
      <trkpt lat="43.55162" lon="3.3186">
        <ele>317.364218</ele>
        <time>2022-02-24T13:34:17.000Z</time>
      </trkpt>
      <trkpt lat="43.55167" lon="3.3186">
        <ele>317.676353</ele>
        <time>2022-02-24T13:34:18.000Z</time>
      </trkpt>
      <trkpt lat="43.55171" lon="3.3186">
        <ele>317.962086</ele>
        <time>2022-02-24T13:34:19.000Z</time>
      </trkpt>
      <trkpt lat="43.55175" lon="3.31861">
        <ele>318.276992</ele>
        <time>2022-02-24T13:34:20.000Z</time>
      </trkpt>
      <trkpt lat="43.5518" lon="3.31862">
        <ele>318.58821</ele>
        <time>2022-02-24T13:34:21.000Z</time>
      </trkpt>
      <trkpt lat="43.55184" lon="3.31863">
        <ele>318.844864</ele>
        <time>2022-02-24T13:34:22.000Z</time>
      </trkpt>
      <trkpt lat="43.55188" lon="3.31864">
        <ele>319.100834</ele>
        <time>2022-02-24T13:34:23.000Z</time>
      </trkpt>
      <trkpt lat="43.55191" lon="3.31864">
        <ele>319.354598</ele>
        <time>2022-02-24T13:34:24.000Z</time>
      </trkpt>
      <trkpt lat="43.55195" lon="3.31863">
        <ele>319.610567</ele>
        <time>2022-02-24T13:34:25.000Z</time>
      </trkpt>
      <trkpt lat="43.55199" lon="3.31861">
        <ele>319.899059</ele>
        <time>2022-02-24T13:34:26.000Z</time>
      </trkpt>
      <trkpt lat="43.55206" lon="3.3186">
        <ele>320.339903</ele>
        <time>2022-02-24T13:34:28.000Z</time>
      </trkpt>
      <trkpt lat="43.5521" lon="3.31859">
        <ele>320.595277</ele>
        <time>2022-02-24T13:34:30.000Z</time>
      </trkpt>
      <trkpt lat="43.55227" lon="3.31856">
        <ele>321.752824</ele>
        <time>2022-02-24T13:34:31.000Z</time>
      </trkpt>
      <trkpt lat="43.5523" lon="3.31854">
        <ele>321.97966</ele>
        <time>2022-02-24T13:34:32.000Z</time>
      </trkpt>
      <trkpt lat="43.55232" lon="3.31852">
        <ele>322.161178</ele>
        <time>2022-02-24T13:34:33.000Z</time>
      </trkpt>
      <trkpt lat="43.55235" lon="3.31851">
        <ele>322.346637</ele>
        <time>2022-02-24T13:34:34.000Z</time>
      </trkpt>
      <trkpt lat="43.55238" lon="3.31852">
        <ele>322.555644</ele>
        <time>2022-02-24T13:34:36.000Z</time>
      </trkpt>
      <trkpt lat="43.55252" lon="3.31857">
        <ele>323.545908</ele>
        <time>2022-02-24T13:34:37.000Z</time>
      </trkpt>
      <trkpt lat="43.55256" lon="3.31859">
        <ele>323.783244</ele>
        <time>2022-02-24T13:34:39.000Z</time>
      </trkpt>
      <trkpt lat="43.55265" lon="3.31863">
        <ele>324.470658</ele>
        <time>2022-02-24T13:34:41.000Z</time>
      </trkpt>
      <trkpt lat="43.5527" lon="3.31863">
        <ele>324.751459</ele>
        <time>2022-02-24T13:34:42.000Z</time>
      </trkpt>
      <trkpt lat="43.55272" lon="3.31862">
        <ele>324.938114</ele>
        <time>2022-02-24T13:34:43.000Z</time>
      </trkpt>
      <trkpt lat="43.55274" lon="3.31861">
        <ele>325.08931</ele>
        <time>2022-02-24T13:34:44.000Z</time>
      </trkpt>
      <trkpt lat="43.55276" lon="3.31858">
        <ele>325.235472</ele>
        <time>2022-02-24T13:34:45.000Z</time>
      </trkpt>
      <trkpt lat="43.55277" lon="3.31856">
        <ele>325.392879</ele>
        <time>2022-02-24T13:34:47.000Z</time>
      </trkpt>
      <trkpt lat="43.55278" lon="3.31852">
        <ele>325.568645</ele>
        <time>2022-02-24T13:34:48.000Z</time>
      </trkpt>
      <trkpt lat="43.55279" lon="3.31849">
        <ele>325.732444</ele>
        <time>2022-02-24T13:34:49.000Z</time>
      </trkpt>
      <trkpt lat="43.55279" lon="3.31846">
        <ele>325.898183</ele>
        <time>2022-02-24T13:34:50.000Z</time>
      </trkpt>
      <trkpt lat="43.55279" lon="3.31842">
        <ele>326.057868</ele>
        <time>2022-02-24T13:34:51.000Z</time>
      </trkpt>
      <trkpt lat="43.55279" lon="3.31839">
        <ele>326.228411</ele>
        <time>2022-02-24T13:34:52.000Z</time>
      </trkpt>
      <trkpt lat="43.55279" lon="3.31836">
        <ele>326.388096</ele>
        <time>2022-02-24T13:34:53.000Z</time>
      </trkpt>
      <trkpt lat="43.55279" lon="3.31832">
        <ele>326.538103</ele>
        <time>2022-02-24T13:34:54.000Z</time>
      </trkpt>
      <trkpt lat="43.55279" lon="3.3183">
        <ele>326.673593</ele>
        <time>2022-02-24T13:34:55.000Z</time>
      </trkpt>
      <trkpt lat="43.55278" lon="3.31827">
        <ele>326.811691</ele>
        <time>2022-02-24T13:34:56.000Z</time>
      </trkpt>
      <trkpt lat="43.55278" lon="3.31824">
        <ele>326.957329</ele>
        <time>2022-02-24T13:34:57.000Z</time>
      </trkpt>
      <trkpt lat="43.55277" lon="3.31821">
        <ele>327.107209</ele>
        <time>2022-02-24T13:34:58.000Z</time>
      </trkpt>
      <trkpt lat="43.55275" lon="3.31818">
        <ele>327.2688</ele>
        <time>2022-02-24T13:35:00.000Z</time>
      </trkpt>
      <trkpt lat="43.55274" lon="3.31815">
        <ele>327.440181</ele>
        <time>2022-02-24T13:35:01.000Z</time>
      </trkpt>
      <trkpt lat="43.55273" lon="3.31812">
        <ele>327.594864</ele>
        <time>2022-02-24T13:35:02.000Z</time>
      </trkpt>
      <trkpt lat="43.55273" lon="3.31809">
        <ele>327.747231</ele>
        <time>2022-02-24T13:35:03.000Z</time>
      </trkpt>
      <trkpt lat="43.55273" lon="3.31806">
        <ele>327.902077</ele>
        <time>2022-02-24T13:35:04.000Z</time>
      </trkpt>
      <trkpt lat="43.55273" lon="3.31803">
        <ele>328.047245</ele>
        <time>2022-02-24T13:35:05.000Z</time>
      </trkpt>
      <trkpt lat="43.55273" lon="3.318">
        <ele>328.192413</ele>
        <time>2022-02-24T13:35:06.000Z</time>
      </trkpt>
      <trkpt lat="43.55273" lon="3.31797">
        <ele>328.34242</ele>
        <time>2022-02-24T13:35:07.000Z</time>
      </trkpt>
      <trkpt lat="43.55273" lon="3.31794">
        <ele>328.487588</ele>
        <time>2022-02-24T13:35:09.000Z</time>
      </trkpt>
      <trkpt lat="43.55273" lon="3.31791">
        <ele>328.608562</ele>
        <time>2022-02-24T13:35:10.000Z</time>
      </trkpt>
      <trkpt lat="43.55273" lon="3.31788">
        <ele>328.763408</ele>
        <time>2022-02-24T13:35:52.000Z</time>
      </trkpt>
      <trkpt lat="43.55274" lon="3.31782">
        <ele>329.058617</ele>
        <time>2022-02-24T13:35:54.000Z</time>
      </trkpt>
      <trkpt lat="43.55275" lon="3.31779">
        <ele>329.226999</ele>
        <time>2022-02-24T13:35:55.000Z</time>
      </trkpt>
      <trkpt lat="43.55275" lon="3.31778">
        <ele>329.290882</ele>
        <time>2022-02-24T13:35:56.000Z</time>
      </trkpt>
      <trkpt lat="43.55276" lon="3.31777">
        <ele>329.337912</ele>
        <time>2022-02-24T13:35:57.000Z</time>
      </trkpt>
      <trkpt lat="43.55275" lon="3.31777">
        <ele>329.392933</ele>
        <time>2022-02-24T13:35:58.000Z</time>
      </trkpt>
      <trkpt lat="43.55274" lon="3.31776">
        <ele>329.465007</ele>
        <time>2022-02-24T13:35:59.000Z</time>
      </trkpt>
      <trkpt lat="43.55275" lon="3.31773">
        <ele>329.588457</ele>
        <time>2022-02-24T13:36:00.000Z</time>
      </trkpt>
      <trkpt lat="43.55278" lon="3.31769">
        <ele>329.848457</ele>
        <time>2022-02-24T13:36:02.000Z</time>
      </trkpt>
      <trkpt lat="43.5528" lon="3.31765">
        <ele>330.112962</ele>
        <time>2022-02-24T13:36:03.000Z</time>
      </trkpt>
      <trkpt lat="43.55283" lon="3.31761">
        <ele>330.37047</ele>
        <time>2022-02-24T13:36:04.000Z</time>
      </trkpt>
      <trkpt lat="43.55285" lon="3.31757">
        <ele>330.198886</ele>
        <time>2022-02-24T13:36:05.000Z</time>
      </trkpt>
      <trkpt lat="43.55288" lon="3.31753">
        <ele>329.978214</ele>
        <time>2022-02-24T13:36:06.000Z</time>
      </trkpt>
      <trkpt lat="43.5529" lon="3.31748">
        <ele>329.737571</ele>
        <time>2022-02-24T13:36:07.000Z</time>
      </trkpt>
      <trkpt lat="43.55293" lon="3.31744">
        <ele>329.526795</ele>
        <time>2022-02-24T13:36:08.000Z</time>
      </trkpt>
      <trkpt lat="43.55295" lon="3.31739">
        <ele>329.28298</ele>
        <time>2022-02-24T13:36:10.000Z</time>
      </trkpt>
      <trkpt lat="43.55298" lon="3.31735">
        <ele>329.068974</ele>
        <time>2022-02-24T13:36:11.000Z</time>
      </trkpt>
      <trkpt lat="43.55299" lon="3.31732">
        <ele>328.897636</ele>
        <time>2022-02-24T13:36:12.000Z</time>
      </trkpt>
      <trkpt lat="43.55301" lon="3.31729">
        <ele>328.756085</ele>
        <time>2022-02-24T13:36:14.000Z</time>
      </trkpt>
      <trkpt lat="43.55305" lon="3.31722">
        <ele>328.393993</ele>
        <time>2022-02-24T13:37:18.000Z</time>
      </trkpt>
      <trkpt lat="43.55306" lon="3.31718">
        <ele>328.214503</ele>
        <time>2022-02-24T13:37:20.000Z</time>
      </trkpt>
      <trkpt lat="43.55307" lon="3.31717">
        <ele>328.171583</ele>
        <time>2022-02-24T13:37:22.000Z</time>
      </trkpt>
      <trkpt lat="43.55308" lon="3.31706">
        <ele>327.736511</ele>
        <time>2022-02-24T13:37:24.000Z</time>
      </trkpt>
      <trkpt lat="43.55309" lon="3.31704">
        <ele>327.621681</ele>
        <time>2022-02-24T13:37:25.000Z</time>
      </trkpt>
      <trkpt lat="43.5531" lon="3.31701">
        <ele>327.510582</ele>
        <time>2022-02-24T13:37:26.000Z</time>
      </trkpt>
      <trkpt lat="43.55311" lon="3.31699">
        <ele>327.387787</ele>
        <time>2022-02-24T13:37:27.000Z</time>
      </trkpt>
      <trkpt lat="43.55313" lon="3.31697">
        <ele>327.258506</ele>
        <time>2022-02-24T13:37:28.000Z</time>
      </trkpt>
      <trkpt lat="43.55316" lon="3.31696">
        <ele>327.101692</ele>
        <time>2022-02-24T13:37:29.000Z</time>
      </trkpt>
      <trkpt lat="43.55319" lon="3.31696">
        <ele>326.932969</ele>
        <time>2022-02-24T13:37:31.000Z</time>
      </trkpt>
      <trkpt lat="43.55322" lon="3.31696">
        <ele>326.759031</ele>
        <time>2022-02-24T13:37:32.000Z</time>
      </trkpt>
      <trkpt lat="43.55325" lon="3.31696">
        <ele>326.568269</ele>
        <time>2022-02-24T13:37:33.000Z</time>
      </trkpt>
      <trkpt lat="43.5533" lon="3.31695">
        <ele>326.285921</ele>
        <time>2022-02-24T13:37:34.000Z</time>
      </trkpt>
      <trkpt lat="43.55338" lon="3.31692">
        <ele>325.869455</ele>
        <time>2022-02-24T13:37:36.000Z</time>
      </trkpt>
      <trkpt lat="43.55343" lon="3.3169">
        <ele>325.5725</ele>
        <time>2022-02-24T13:37:38.000Z</time>
      </trkpt>
      <trkpt lat="43.55378" lon="3.31669">
        <ele>323.431316</ele>
        <time>2022-02-24T13:37:40.000Z</time>
      </trkpt>
      <trkpt lat="43.55388" lon="3.31666">
        <ele>322.83818</ele>
        <time>2022-02-24T13:37:42.000Z</time>
      </trkpt>
      <trkpt lat="43.5539" lon="3.31666">
        <ele>322.708589</ele>
        <time>2022-02-24T13:37:44.000Z</time>
      </trkpt>
      <trkpt lat="43.55416" lon="3.31658">
        <ele>321.218009</ele>
        <time>2022-02-24T13:37:46.000Z</time>
      </trkpt>
      <trkpt lat="43.55423" lon="3.31651">
        <ele>320.735372</ele>
        <time>2022-02-24T13:37:48.000Z</time>
      </trkpt>
      <trkpt lat="43.55425" lon="3.31649">
        <ele>320.614271</ele>
        <time>2022-02-24T13:37:50.000Z</time>
      </trkpt>
      <trkpt lat="43.55444" lon="3.31616">
        <ele>317.897648</ele>
        <time>2022-02-24T13:37:52.000Z</time>
      </trkpt>
      <trkpt lat="43.55445" lon="3.31613">
        <ele>317.66744</ele>
        <time>2022-02-24T13:37:54.000Z</time>
      </trkpt>
      <trkpt lat="43.55456" lon="3.31584">
        <ele>315.348672</ele>
        <time>2022-02-24T13:37:56.000Z</time>
      </trkpt>
      <trkpt lat="43.55457" lon="3.31582">
        <ele>315.211889</ele>
        <time>2022-02-24T13:37:58.000Z</time>
      </trkpt>
      <trkpt lat="43.55463" lon="3.31567">
        <ele>313.977182</ele>
        <time>2022-02-24T13:38:00.000Z</time>
      </trkpt>
      <trkpt lat="43.55467" lon="3.31557">
        <ele>313.198682</ele>
        <time>2022-02-24T13:38:02.000Z</time>
      </trkpt>
      <trkpt lat="43.55471" lon="3.31545">
        <ele>312.2366</ele>
        <time>2022-02-24T13:38:04.000Z</time>
      </trkpt>
      <trkpt lat="43.55472" lon="3.31542">
        <ele>312.032538</ele>
        <time>2022-02-24T13:38:06.000Z</time>
      </trkpt>
      <trkpt lat="43.55477" lon="3.31524">
        <ele>310.684104</ele>
        <time>2022-02-24T13:38:08.000Z</time>
      </trkpt>
      <trkpt lat="43.55483" lon="3.31502">
        <ele>309.049305</ele>
        <time>2022-02-24T13:38:10.000Z</time>
      </trkpt>
      <trkpt lat="43.55487" lon="3.31494">
        <ele>308.329607</ele>
        <time>2022-02-24T13:38:12.000Z</time>
      </trkpt>
      <trkpt lat="43.55488" lon="3.31491">
        <ele>308.136826</ele>
        <time>2022-02-24T13:38:14.000Z</time>
      </trkpt>
      <trkpt lat="43.55504" lon="3.31462">
        <ele>305.564739</ele>
        <time>2022-02-24T13:38:16.000Z</time>
      </trkpt>
      <trkpt lat="43.5551" lon="3.31451">
        <ele>304.652581</ele>
        <time>2022-02-24T13:38:18.000Z</time>
      </trkpt>
      <trkpt lat="43.55511" lon="3.31449">
        <ele>304.436121</ele>
        <time>2022-02-24T13:38:20.000Z</time>
      </trkpt>
      <trkpt lat="43.55532" lon="3.31421">
        <ele>302.233374</ele>
        <time>2022-02-24T13:38:22.000Z</time>
      </trkpt>
      <trkpt lat="43.55534" lon="3.31419">
        <ele>302.103949</ele>
        <time>2022-02-24T13:38:24.000Z</time>
      </trkpt>
      <trkpt lat="43.55547" lon="3.31405">
        <ele>301.277206</ele>
        <time>2022-02-24T13:38:26.000Z</time>
      </trkpt>
      <trkpt lat="43.55564" lon="3.31383">
        <ele>300.051514</ele>
        <time>2022-02-24T13:38:28.000Z</time>
      </trkpt>
      <trkpt lat="43.55564" lon="3.3138">
        <ele>299.969407</ele>
        <time>2022-02-24T13:38:30.000Z</time>
      </trkpt>
      <trkpt lat="43.55563" lon="3.31364">
        <ele>299.374573</ele>
        <time>2022-02-24T13:38:32.000Z</time>
      </trkpt>
      <trkpt lat="43.55562" lon="3.31333">
        <ele>298.196423</ele>
        <time>2022-02-24T13:38:34.000Z</time>
      </trkpt>
      <trkpt lat="43.55561" lon="3.3133">
        <ele>298.071674</ele>
        <time>2022-02-24T13:38:36.000Z</time>
      </trkpt>
      <trkpt lat="43.55556" lon="3.31292">
        <ele>296.652311</ele>
        <time>2022-02-24T13:38:38.000Z</time>
      </trkpt>
      <trkpt lat="43.55557" lon="3.31289">
        <ele>296.527441</ele>
        <time>2022-02-24T13:38:40.000Z</time>
      </trkpt>
      <trkpt lat="43.55562" lon="3.31258">
        <ele>295.324192</ele>
        <time>2022-02-24T13:38:42.000Z</time>
      </trkpt>
      <trkpt lat="43.55559" lon="3.3125">
        <ele>294.991329</ele>
        <time>2022-02-24T13:38:44.000Z</time>
      </trkpt>
      <trkpt lat="43.55558" lon="3.31248">
        <ele>294.897269</ele>
        <time>2022-02-24T13:38:46.000Z</time>
      </trkpt>
      <trkpt lat="43.5555" lon="3.31232">
        <ele>294.174868</ele>
        <time>2022-02-24T13:38:48.000Z</time>
      </trkpt>
      <trkpt lat="43.55537" lon="3.31202">
        <ele>293.390592</ele>
        <time>2022-02-24T13:38:50.000Z</time>
      </trkpt>
      <trkpt lat="43.55537" lon="3.31199">
        <ele>293.351538</ele>
        <time>2022-02-24T13:38:52.000Z</time>
      </trkpt>
      <trkpt lat="43.55534" lon="3.31183">
        <ele>293.119016</ele>
        <time>2022-02-24T13:38:54.000Z</time>
      </trkpt>
      <trkpt lat="43.55529" lon="3.31165">
        <ele>292.852514</ele>
        <time>2022-02-24T13:38:56.000Z</time>
      </trkpt>
      <trkpt lat="43.5552" lon="3.31139">
        <ele>292.459513</ele>
        <time>2022-02-24T13:38:58.000Z</time>
      </trkpt>
      <trkpt lat="43.55516" lon="3.31129">
        <ele>292.30584</ele>
        <time>2022-02-24T13:39:00.000Z</time>
      </trkpt>
      <trkpt lat="43.55516" lon="3.31127">
        <ele>292.268784</ele>
        <time>2022-02-24T13:39:02.000Z</time>
      </trkpt>
      <trkpt lat="43.5551" lon="3.31109">
        <ele>291.994312</ele>
        <time>2022-02-24T13:39:04.000Z</time>
      </trkpt>
      <trkpt lat="43.55503" lon="3.31089">
        <ele>291.694184</ele>
        <time>2022-02-24T13:39:06.000Z</time>
      </trkpt>
      <trkpt lat="43.55495" lon="3.31073">
        <ele>291.4174</ele>
        <time>2022-02-24T13:39:08.000Z</time>
      </trkpt>
      <trkpt lat="43.55483" lon="3.31048">
        <ele>291.009611</ele>
        <time>2022-02-24T13:39:10.000Z</time>
      </trkpt>
      <trkpt lat="43.55482" lon="3.31046">
        <ele>290.969173</ele>
        <time>2022-02-24T13:39:12.000Z</time>
      </trkpt>
      <trkpt lat="43.55469" lon="3.31015">
        <ele>290.471291</ele>
        <time>2022-02-24T13:39:14.000Z</time>
      </trkpt>
      <trkpt lat="43.55468" lon="3.31012">
        <ele>290.427715</ele>
        <time>2022-02-24T13:39:16.000Z</time>
      </trkpt>
      <trkpt lat="43.55463" lon="3.30976">
        <ele>289.449872</ele>
        <time>2022-02-24T13:39:18.000Z</time>
      </trkpt>
      <trkpt lat="43.55463" lon="3.30972">
        <ele>289.31889</ele>
        <time>2022-02-24T13:39:20.000Z</time>
      </trkpt>
      <trkpt lat="43.55461" lon="3.30927">
        <ele>287.788107</ele>
        <time>2022-02-24T13:39:22.000Z</time>
      </trkpt>
      <trkpt lat="43.55461" lon="3.30924">
        <ele>287.670611</ele>
        <time>2022-02-24T13:39:24.000Z</time>
      </trkpt>
      <trkpt lat="43.55455" lon="3.30891">
        <ele>286.503464</ele>
        <time>2022-02-24T13:39:26.000Z</time>
      </trkpt>
      <trkpt lat="43.55455" lon="3.30888">
        <ele>286.421598</ele>
        <time>2022-02-24T13:39:28.000Z</time>
      </trkpt>
      <trkpt lat="43.55453" lon="3.3087">
        <ele>285.79141</ele>
        <time>2022-02-24T13:39:30.000Z</time>
      </trkpt>
      <trkpt lat="43.55447" lon="3.30864">
        <ele>285.45397</ele>
        <time>2022-02-24T13:39:32.000Z</time>
      </trkpt>
      <trkpt lat="43.55445" lon="3.30863">
        <ele>285.361408</ele>
        <time>2022-02-24T13:39:34.000Z</time>
      </trkpt>
      <trkpt lat="43.55423" lon="3.30853">
        <ele>284.263475</ele>
        <time>2022-02-24T13:39:36.000Z</time>
      </trkpt>
      <trkpt lat="43.55421" lon="3.30852">
        <ele>284.184471</ele>
        <time>2022-02-24T13:39:38.000Z</time>
      </trkpt>
      <trkpt lat="43.55409" lon="3.3085">
        <ele>283.585793</ele>
        <time>2022-02-24T13:39:40.000Z</time>
      </trkpt>
      <trkpt lat="43.55402" lon="3.30852">
        <ele>283.276158</ele>
        <time>2022-02-24T13:39:42.000Z</time>
      </trkpt>
      <trkpt lat="43.55401" lon="3.30852">
        <ele>283.219266</ele>
        <time>2022-02-24T13:39:44.000Z</time>
      </trkpt>
      <trkpt lat="43.55391" lon="3.30861">
        <ele>282.663122</ele>
        <time>2022-02-24T13:39:45.000Z</time>
      </trkpt>
      <trkpt lat="43.55386" lon="3.3086">
        <ele>282.423641</ele>
        <time>2022-02-24T13:39:46.000Z</time>
      </trkpt>
      <trkpt lat="43.5538" lon="3.30857">
        <ele>282.093275</ele>
        <time>2022-02-24T13:39:48.000Z</time>
      </trkpt>
      <trkpt lat="43.55375" lon="3.30856">
        <ele>281.873536</ele>
        <time>2022-02-24T13:39:50.000Z</time>
      </trkpt>
      <trkpt lat="43.55356" lon="3.30853">
        <ele>280.557527</ele>
        <time>2022-02-24T13:39:52.000Z</time>
      </trkpt>
      <trkpt lat="43.55341" lon="3.30853">
        <ele>279.477619</ele>
        <time>2022-02-24T13:39:54.000Z</time>
      </trkpt>
      <trkpt lat="43.5533" lon="3.30853">
        <ele>278.680505</ele>
        <time>2022-02-24T13:39:55.000Z</time>
      </trkpt>
      <trkpt lat="43.5533" lon="3.30853">
        <ele>278.651048</ele>
        <time>2022-02-24T13:39:56.000Z</time>
      </trkpt>
      <trkpt lat="43.5533" lon="3.30851">
        <ele>278.562162</ele>
        <time>2022-02-24T13:39:58.000Z</time>
      </trkpt>
      <trkpt lat="43.55329" lon="3.30847">
        <ele>278.312977</ele>
        <time>2022-02-24T13:40:00.000Z</time>
      </trkpt>
      <trkpt lat="43.55323" lon="3.30827">
        <ele>277.17826</ele>
        <time>2022-02-24T13:40:02.000Z</time>
      </trkpt>
      <trkpt lat="43.55317" lon="3.30805">
        <ele>275.941223</ele>
        <time>2022-02-24T13:40:04.000Z</time>
      </trkpt>
      <trkpt lat="43.55311" lon="3.30787">
        <ele>274.920883</ele>
        <time>2022-02-24T13:40:06.000Z</time>
      </trkpt>
      <trkpt lat="43.55305" lon="3.30763">
        <ele>273.550718</ele>
        <time>2022-02-24T13:40:08.000Z</time>
      </trkpt>
      <trkpt lat="43.55304" lon="3.30761">
        <ele>273.446812</ele>
        <time>2022-02-24T13:40:10.000Z</time>
      </trkpt>
      <trkpt lat="43.55302" lon="3.30747">
        <ele>272.698043</ele>
        <time>2022-02-24T13:40:12.000Z</time>
      </trkpt>
      <trkpt lat="43.55302" lon="3.30746">
        <ele>272.616323</ele>
        <time>2022-02-24T13:40:14.000Z</time>
      </trkpt>
      <trkpt lat="43.553" lon="3.30728">
        <ele>271.705623</ele>
        <time>2022-02-24T13:40:16.000Z</time>
      </trkpt>
      <trkpt lat="43.553" lon="3.3073">
        <ele>271.626592</ele>
        <time>2022-02-24T13:40:17.000Z</time>
      </trkpt>
      <trkpt lat="43.55302" lon="3.30722">
        <ele>271.182089</ele>
        <time>2022-02-24T13:40:32.000Z</time>
      </trkpt>
      <trkpt lat="43.55303" lon="3.30722">
        <ele>271.149099</ele>
        <time>2022-02-24T13:40:33.000Z</time>
      </trkpt>
      <trkpt lat="43.55304" lon="3.30721">
        <ele>271.085458</ele>
        <time>2022-02-24T13:40:34.000Z</time>
      </trkpt>
      <trkpt lat="43.55307" lon="3.30721">
        <ele>270.868005</ele>
        <time>2022-02-24T13:45:26.000Z</time>
      </trkpt>
      <trkpt lat="43.5531" lon="3.30723">
        <ele>270.636059</ele>
        <time>2022-02-24T13:45:28.000Z</time>
      </trkpt>
      <trkpt lat="43.5531" lon="3.30722">
        <ele>270.585064</ele>
        <time>2022-02-24T13:45:30.000Z</time>
      </trkpt>
      <trkpt lat="43.55319" lon="3.30721">
        <ele>269.973118</ele>
        <time>2022-02-24T13:45:32.000Z</time>
      </trkpt>
      <trkpt lat="43.55324" lon="3.3072">
        <ele>269.577575</ele>
        <time>2022-02-24T13:45:34.000Z</time>
      </trkpt>
      <trkpt lat="43.55326" lon="3.30719">
        <ele>269.435071</ele>
        <time>2022-02-24T13:45:36.000Z</time>
      </trkpt>
      <trkpt lat="43.5534" lon="3.30712">
        <ele>268.023009</ele>
        <time>2022-02-24T13:45:38.000Z</time>
      </trkpt>
      <trkpt lat="43.55363" lon="3.30698">
        <ele>264.740173</ele>
        <time>2022-02-24T13:45:40.000Z</time>
      </trkpt>
      <trkpt lat="43.55365" lon="3.30697">
        <ele>264.458862</ele>
        <time>2022-02-24T13:45:42.000Z</time>
      </trkpt>
      <trkpt lat="43.55386" lon="3.30681">
        <ele>261.339482</ele>
        <time>2022-02-24T13:45:44.000Z</time>
      </trkpt>
      <trkpt lat="43.55388" lon="3.3068">
        <ele>261.102969</ele>
        <time>2022-02-24T13:45:46.000Z</time>
      </trkpt>
      <trkpt lat="43.55397" lon="3.30671">
        <ele>259.613837</ele>
        <time>2022-02-24T13:45:48.000Z</time>
      </trkpt>
      <trkpt lat="43.55405" lon="3.30662">
        <ele>258.236399</ele>
        <time>2022-02-24T13:45:50.000Z</time>
      </trkpt>
      <trkpt lat="43.55405" lon="3.30661">
        <ele>258.170143</ele>
        <time>2022-02-24T13:45:52.000Z</time>
      </trkpt>
      <trkpt lat="43.55401" lon="3.30656">
        <ele>257.407359</ele>
        <time>2022-02-24T13:45:54.000Z</time>
      </trkpt>
      <trkpt lat="43.55401" lon="3.30656">
        <ele>257.311628</ele>
        <time>2022-02-24T13:45:56.000Z</time>
      </trkpt>
      <trkpt lat="43.55387" lon="3.30662">
        <ele>255.485758</ele>
        <time>2022-02-24T13:45:58.000Z</time>
      </trkpt>
      <trkpt lat="43.55385" lon="3.30662">
        <ele>255.228919</ele>
        <time>2022-02-24T13:46:00.000Z</time>
      </trkpt>
      <trkpt lat="43.55372" lon="3.30664">
        <ele>253.427578</ele>
        <time>2022-02-24T13:46:02.000Z</time>
      </trkpt>
      <trkpt lat="43.55346" lon="3.30665">
        <ele>250.136253</ele>
        <time>2022-02-24T13:46:04.000Z</time>
      </trkpt>
      <trkpt lat="43.55345" lon="3.30665">
        <ele>249.939435</ele>
        <time>2022-02-24T13:46:06.000Z</time>
      </trkpt>
      <trkpt lat="43.55337" lon="3.30658">
        <ele>248.736419</ele>
        <time>2022-02-24T13:46:08.000Z</time>
      </trkpt>
      <trkpt lat="43.55337" lon="3.30658">
        <ele>248.659444</ele>
        <time>2022-02-24T13:46:10.000Z</time>
      </trkpt>
      <trkpt lat="43.55349" lon="3.30648">
        <ele>246.894155</ele>
        <time>2022-02-24T13:46:12.000Z</time>
      </trkpt>
      <trkpt lat="43.55357" lon="3.30641">
        <ele>245.581493</ele>
        <time>2022-02-24T13:46:14.000Z</time>
      </trkpt>
      <trkpt lat="43.55368" lon="3.30631">
        <ele>244.014878</ele>
        <time>2022-02-24T13:46:16.000Z</time>
      </trkpt>
      <trkpt lat="43.55372" lon="3.30628">
        <ele>243.573052</ele>
        <time>2022-02-24T13:46:18.000Z</time>
      </trkpt>
      <trkpt lat="43.55403" lon="3.30591">
        <ele>238.789099</ele>
        <time>2022-02-24T13:46:20.000Z</time>
      </trkpt>
      <trkpt lat="43.55405" lon="3.30589">
        <ele>238.462609</ele>
        <time>2022-02-24T13:46:22.000Z</time>
      </trkpt>
      <trkpt lat="43.55421" lon="3.30554">
        <ele>234.956027</ele>
        <time>2022-02-24T13:46:24.000Z</time>
      </trkpt>
      <trkpt lat="43.55425" lon="3.30539">
        <ele>233.586441</ele>
        <time>2022-02-24T13:46:26.000Z</time>
      </trkpt>
      <trkpt lat="43.55431" lon="3.30525">
        <ele>232.212273</ele>
        <time>2022-02-24T13:46:28.000Z</time>
      </trkpt>
      <trkpt lat="43.55433" lon="3.30522">
        <ele>231.95768</ele>
        <time>2022-02-24T13:46:30.000Z</time>
      </trkpt>
      <trkpt lat="43.55436" lon="3.30501">
        <ele>230.127292</ele>
        <time>2022-02-24T13:46:32.000Z</time>
      </trkpt>
      <trkpt lat="43.55435" lon="3.30501">
        <ele>229.997828</ele>
        <time>2022-02-24T13:46:34.000Z</time>
      </trkpt>
      <trkpt lat="43.55423" lon="3.30501">
        <ele>228.573851</ele>
        <time>2022-02-24T13:46:36.000Z</time>
      </trkpt>
      <trkpt lat="43.55422" lon="3.305">
        <ele>228.447894</ele>
        <time>2022-02-24T13:46:38.000Z</time>
      </trkpt>
      <trkpt lat="43.55423" lon="3.30489">
        <ele>227.448932</ele>
        <time>2022-02-24T13:46:40.000Z</time>
      </trkpt>
      <trkpt lat="43.55424" lon="3.30487">
        <ele>227.205538</ele>
        <time>2022-02-24T13:46:42.000Z</time>
      </trkpt>
      <trkpt lat="43.55444" lon="3.30464">
        <ele>224.205246</ele>
        <time>2022-02-24T13:46:44.000Z</time>
      </trkpt>
      <trkpt lat="43.55445" lon="3.30461">
        <ele>223.814914</ele>
        <time>2022-02-24T13:46:46.000Z</time>
      </trkpt>
      <trkpt lat="43.55453" lon="3.30447">
        <ele>221.769374</ele>
        <time>2022-02-24T13:46:48.000Z</time>
      </trkpt>
      <trkpt lat="43.55455" lon="3.30438">
        <ele>220.726848</ele>
        <time>2022-02-24T13:46:50.000Z</time>
      </trkpt>
      <trkpt lat="43.55452" lon="3.30435">
        <ele>220.140354</ele>
        <time>2022-02-24T13:46:52.000Z</time>
      </trkpt>
      <trkpt lat="43.55447" lon="3.30438">
        <ele>219.28211</ele>
        <time>2022-02-24T13:46:54.000Z</time>
      </trkpt>
      <trkpt lat="43.55446" lon="3.30439">
        <ele>219.075853</ele>
        <time>2022-02-24T13:46:56.000Z</time>
      </trkpt>
      <trkpt lat="43.55439" lon="3.3044">
        <ele>217.866052</ele>
        <time>2022-02-24T13:46:58.000Z</time>
      </trkpt>
      <trkpt lat="43.55435" lon="3.30433">
        <ele>216.946313</ele>
        <time>2022-02-24T13:47:00.000Z</time>
      </trkpt>
      <trkpt lat="43.55441" lon="3.30425">
        <ele>215.583577</ele>
        <time>2022-02-24T13:47:02.000Z</time>
      </trkpt>
      <trkpt lat="43.55443" lon="3.30422">
        <ele>215.126459</ele>
        <time>2022-02-24T13:47:04.000Z</time>
      </trkpt>
      <trkpt lat="43.55454" lon="3.30402">
        <ele>212.234035</ele>
        <time>2022-02-24T13:47:06.000Z</time>
      </trkpt>
      <trkpt lat="43.55464" lon="3.30381">
        <ele>209.379739</ele>
        <time>2022-02-24T13:47:08.000Z</time>
      </trkpt>
      <trkpt lat="43.55464" lon="3.30381">
        <ele>209.315381</ele>
        <time>2022-02-24T13:47:10.000Z</time>
      </trkpt>
      <trkpt lat="43.55454" lon="3.30384">
        <ele>207.71992</ele>
        <time>2022-02-24T13:47:12.000Z</time>
      </trkpt>
      <trkpt lat="43.55452" lon="3.30385">
        <ele>207.397981</ele>
        <time>2022-02-24T13:47:14.000Z</time>
      </trkpt>
      <trkpt lat="43.55435" lon="3.30391">
        <ele>204.574672</ele>
        <time>2022-02-24T13:47:16.000Z</time>
      </trkpt>
      <trkpt lat="43.55434" lon="3.30391">
        <ele>204.510315</ele>
        <time>2022-02-24T13:47:18.000Z</time>
      </trkpt>
      <trkpt lat="43.55432" lon="3.30389">
        <ele>204.060619</ele>
        <time>2022-02-24T13:47:42.000Z</time>
      </trkpt>
      <trkpt lat="43.55434" lon="3.30385">
        <ele>203.543881</ele>
        <time>2022-02-24T13:47:44.000Z</time>
      </trkpt>
      <trkpt lat="43.55439" lon="3.30379">
        <ele>202.502326</ele>
        <time>2022-02-24T13:47:46.000Z</time>
      </trkpt>
      <trkpt lat="43.55441" lon="3.30376">
        <ele>201.946248</ele>
        <time>2022-02-24T13:47:48.000Z</time>
      </trkpt>
      <trkpt lat="43.55443" lon="3.30374">
        <ele>201.616021</ele>
        <time>2022-02-24T13:47:50.000Z</time>
      </trkpt>
      <trkpt lat="43.5545" lon="3.30363">
        <ele>199.847236</ele>
        <time>2022-02-24T13:47:52.000Z</time>
      </trkpt>
      <trkpt lat="43.55459" lon="3.30351">
        <ele>197.912562</ele>
        <time>2022-02-24T13:47:53.000Z</time>
      </trkpt>
      <trkpt lat="43.55462" lon="3.30349">
        <ele>197.456041</ele>
        <time>2022-02-24T13:47:55.000Z</time>
      </trkpt>
      <trkpt lat="43.55465" lon="3.30342">
        <ele>196.610224</ele>
        <time>2022-02-24T13:47:57.000Z</time>
      </trkpt>
      <trkpt lat="43.55467" lon="3.30339">
        <ele>196.09884</ele>
        <time>2022-02-24T13:47:58.000Z</time>
      </trkpt>
      <trkpt lat="43.55468" lon="3.30335">
        <ele>195.705444</ele>
        <time>2022-02-24T13:47:59.000Z</time>
      </trkpt>
      <trkpt lat="43.5547" lon="3.30331">
        <ele>195.492587</ele>
        <time>2022-02-24T13:48:01.000Z</time>
      </trkpt>
      <trkpt lat="43.55472" lon="3.30327">
        <ele>195.288178</ele>
        <time>2022-02-24T13:48:02.000Z</time>
      </trkpt>
      <trkpt lat="43.55473" lon="3.30323">
        <ele>195.095594</ele>
        <time>2022-02-24T13:48:03.000Z</time>
      </trkpt>
      <trkpt lat="43.55475" lon="3.3032">
        <ele>194.927281</ele>
        <time>2022-02-24T13:48:04.000Z</time>
      </trkpt>
      <trkpt lat="43.55476" lon="3.30317">
        <ele>194.773662</ele>
        <time>2022-02-24T13:48:05.000Z</time>
      </trkpt>
      <trkpt lat="43.55476" lon="3.30314">
        <ele>194.643839</ele>
        <time>2022-02-24T13:48:06.000Z</time>
      </trkpt>
      <trkpt lat="43.55477" lon="3.30312">
        <ele>194.538569</ele>
        <time>2022-02-24T13:48:07.000Z</time>
      </trkpt>
      <trkpt lat="43.55476" lon="3.30308">
        <ele>194.389658</ele>
        <time>2022-02-24T13:48:10.000Z</time>
      </trkpt>
      <trkpt lat="43.55476" lon="3.30307">
        <ele>194.330872</ele>
        <time>2022-02-24T13:48:11.000Z</time>
      </trkpt>
      <trkpt lat="43.55475" lon="3.30306">
        <ele>194.231435</ele>
        <time>2022-02-24T13:48:12.000Z</time>
      </trkpt>
      <trkpt lat="43.55474" lon="3.30304">
        <ele>194.126643</ele>
        <time>2022-02-24T13:48:13.000Z</time>
      </trkpt>
      <trkpt lat="43.55473" lon="3.30302">
        <ele>194.0149</ele>
        <time>2022-02-24T13:48:14.000Z</time>
      </trkpt>
      <trkpt lat="43.55471" lon="3.303">
        <ele>193.882317</ele>
        <time>2022-02-24T13:48:15.000Z</time>
      </trkpt>
      <trkpt lat="43.5547" lon="3.30298">
        <ele>193.75422</ele>
        <time>2022-02-24T13:48:16.000Z</time>
      </trkpt>
      <trkpt lat="43.55468" lon="3.30295">
        <ele>193.59299</ele>
        <time>2022-02-24T13:48:18.000Z</time>
      </trkpt>
      <trkpt lat="43.55465" lon="3.30293">
        <ele>193.415901</ele>
        <time>2022-02-24T13:48:19.000Z</time>
      </trkpt>
      <trkpt lat="43.55463" lon="3.30291">
        <ele>193.238813</ele>
        <time>2022-02-24T13:48:20.000Z</time>
      </trkpt>
      <trkpt lat="43.55461" lon="3.30288">
        <ele>193.061724</ele>
        <time>2022-02-24T13:48:21.000Z</time>
      </trkpt>
      <trkpt lat="43.55458" lon="3.30286">
        <ele>192.884635</ele>
        <time>2022-02-24T13:48:22.000Z</time>
      </trkpt>
      <trkpt lat="43.55456" lon="3.30283">
        <ele>192.676495</ele>
        <time>2022-02-24T13:48:24.000Z</time>
      </trkpt>
      <trkpt lat="43.55453" lon="3.30279">
        <ele>192.429936</ele>
        <time>2022-02-24T13:48:26.000Z</time>
      </trkpt>
      <trkpt lat="43.55442" lon="3.30261">
        <ele>191.401578</ele>
        <time>2022-02-24T13:48:28.000Z</time>
      </trkpt>
      <trkpt lat="43.55431" lon="3.3025">
        <ele>190.564677</ele>
        <time>2022-02-24T13:48:30.000Z</time>
      </trkpt>
      <trkpt lat="43.55427" lon="3.30249">
        <ele>190.300337</ele>
        <time>2022-02-24T13:48:32.000Z</time>
      </trkpt>
      <trkpt lat="43.55425" lon="3.30248">
        <ele>190.170097</ele>
        <time>2022-02-24T13:48:34.000Z</time>
      </trkpt>
      <trkpt lat="43.55419" lon="3.30243">
        <ele>189.757026</ele>
        <time>2022-02-24T13:48:36.000Z</time>
      </trkpt>
      <trkpt lat="43.55411" lon="3.30237">
        <ele>189.185668</ele>
        <time>2022-02-24T13:48:38.000Z</time>
      </trkpt>
      <trkpt lat="43.55407" lon="3.30234">
        <ele>188.93495</ele>
        <time>2022-02-24T13:48:39.000Z</time>
      </trkpt>
      <trkpt lat="43.55405" lon="3.30232">
        <ele>188.779729</ele>
        <time>2022-02-24T13:48:40.000Z</time>
      </trkpt>
      <trkpt lat="43.55404" lon="3.3023">
        <ele>188.645293</ele>
        <time>2022-02-24T13:48:42.000Z</time>
      </trkpt>
      <trkpt lat="43.55402" lon="3.30228">
        <ele>188.536512</ele>
        <time>2022-02-24T13:48:44.000Z</time>
      </trkpt>
      <trkpt lat="43.55397" lon="3.30225">
        <ele>188.152904</ele>
        <time>2022-02-24T13:48:45.000Z</time>
      </trkpt>
      <trkpt lat="43.55394" lon="3.30225">
        <ele>187.968185</ele>
        <time>2022-02-24T13:48:46.000Z</time>
      </trkpt>
      <trkpt lat="43.55391" lon="3.30225">
        <ele>187.800885</ele>
        <time>2022-02-24T13:48:47.000Z</time>
      </trkpt>
      <trkpt lat="43.55389" lon="3.30226">
        <ele>187.676003</ele>
        <time>2022-02-24T13:48:48.000Z</time>
      </trkpt>
      <trkpt lat="43.55387" lon="3.30228">
        <ele>187.541571</ele>
        <time>2022-02-24T13:48:49.000Z</time>
      </trkpt>
      <trkpt lat="43.55385" lon="3.3023">
        <ele>187.397468</ele>
        <time>2022-02-24T13:48:51.000Z</time>
      </trkpt>
      <trkpt lat="43.55383" lon="3.30232">
        <ele>187.217658</ele>
        <time>2022-02-24T13:48:52.000Z</time>
      </trkpt>
      <trkpt lat="43.5538" lon="3.30235">
        <ele>187.017973</ele>
        <time>2022-02-24T13:48:53.000Z</time>
      </trkpt>
      <trkpt lat="43.55378" lon="3.30237">
        <ele>186.823357</ele>
        <time>2022-02-24T13:48:55.000Z</time>
      </trkpt>
      <trkpt lat="43.55375" lon="3.3024">
        <ele>186.618578</ele>
        <time>2022-02-24T13:48:56.000Z</time>
      </trkpt>
      <trkpt lat="43.55373" lon="3.30242">
        <ele>186.477041</ele>
        <time>2022-02-24T13:48:58.000Z</time>
      </trkpt>
      <trkpt lat="43.55364" lon="3.30251">
        <ele>185.776655</ele>
        <time>2022-02-24T13:48:59.000Z</time>
      </trkpt>
      <trkpt lat="43.5536" lon="3.30256">
        <ele>185.46027</ele>
        <time>2022-02-24T13:49:02.000Z</time>
      </trkpt>
      <trkpt lat="43.55349" lon="3.30268">
        <ele>184.649358</ele>
        <time>2022-02-24T13:49:03.000Z</time>
      </trkpt>
      <trkpt lat="43.55345" lon="3.30272">
        <ele>184.39837</ele>
        <time>2022-02-24T13:49:06.000Z</time>
      </trkpt>
      <trkpt lat="43.55334" lon="3.30282">
        <ele>183.822887</ele>
        <time>2022-02-24T13:49:08.000Z</time>
      </trkpt>
      <trkpt lat="43.5532" lon="3.30286">
        <ele>183.167135</ele>
        <time>2022-02-24T13:49:10.000Z</time>
      </trkpt>
      <trkpt lat="43.55318" lon="3.30284">
        <ele>183.05426</ele>
        <time>2022-02-24T13:49:12.000Z</time>
      </trkpt>
      <trkpt lat="43.55315" lon="3.30281">
        <ele>182.908101</ele>
        <time>2022-02-24T13:49:13.000Z</time>
      </trkpt>
      <trkpt lat="43.55313" lon="3.3028">
        <ele>182.774378</ele>
        <time>2022-02-24T13:49:15.000Z</time>
      </trkpt>
      <trkpt lat="43.5531" lon="3.30278">
        <ele>182.644241</ele>
        <time>2022-02-24T13:49:16.000Z</time>
      </trkpt>
      <trkpt lat="43.55307" lon="3.30277">
        <ele>182.487282</ele>
        <time>2022-02-24T13:49:17.000Z</time>
      </trkpt>
      <trkpt lat="43.55302" lon="3.30277">
        <ele>182.295695</ele>
        <time>2022-02-24T13:49:19.000Z</time>
      </trkpt>
      <trkpt lat="43.55298" lon="3.30277">
        <ele>182.104534</ele>
        <time>2022-02-24T13:49:20.000Z</time>
      </trkpt>
      <trkpt lat="43.55293" lon="3.30278">
        <ele>181.880355</ele>
        <time>2022-02-24T13:49:21.000Z</time>
      </trkpt>
      <trkpt lat="43.55288" lon="3.30279">
        <ele>181.63195</ele>
        <time>2022-02-24T13:49:23.000Z</time>
      </trkpt>
      <trkpt lat="43.55279" lon="3.30281">
        <ele>181.21261</ele>
        <time>2022-02-24T13:49:25.000Z</time>
      </trkpt>
      <trkpt lat="43.55275" lon="3.30282">
        <ele>181.018065</ele>
        <time>2022-02-24T13:49:26.000Z</time>
      </trkpt>
      <trkpt lat="43.5527" lon="3.30283">
        <ele>180.822878</ele>
        <time>2022-02-24T13:49:28.000Z</time>
      </trkpt>
      <trkpt lat="43.55268" lon="3.30284">
        <ele>180.69961</ele>
        <time>2022-02-24T13:49:30.000Z</time>
      </trkpt>
      <trkpt lat="43.55253" lon="3.30284">
        <ele>180.021474</ele>
        <time>2022-02-24T13:49:32.000Z</time>
      </trkpt>
      <trkpt lat="43.55247" lon="3.30284">
        <ele>179.761745</ele>
        <time>2022-02-24T13:49:34.000Z</time>
      </trkpt>
      <trkpt lat="43.55245" lon="3.30285">
        <ele>179.655786</ele>
        <time>2022-02-24T13:49:36.000Z</time>
      </trkpt>
      <trkpt lat="43.55235" lon="3.30289">
        <ele>179.202809</ele>
        <time>2022-02-24T13:49:38.000Z</time>
      </trkpt>
      <trkpt lat="43.5523" lon="3.30293">
        <ele>178.916144</ele>
        <time>2022-02-24T13:49:40.000Z</time>
      </trkpt>
      <trkpt lat="43.55225" lon="3.30295">
        <ele>178.671801</ele>
        <time>2022-02-24T13:49:42.000Z</time>
      </trkpt>
      <trkpt lat="43.55211" lon="3.30303">
        <ele>177.985294</ele>
        <time>2022-02-24T13:49:44.000Z</time>
      </trkpt>
      <trkpt lat="43.55188" lon="3.30312">
        <ele>176.912557</ele>
        <time>2022-02-24T13:49:46.000Z</time>
      </trkpt>
      <trkpt lat="43.5518" lon="3.30314">
        <ele>176.506186</ele>
        <time>2022-02-24T13:49:48.000Z</time>
      </trkpt>
      <trkpt lat="43.55177" lon="3.30314">
        <ele>176.34302</ele>
        <time>2022-02-24T13:49:50.000Z</time>
      </trkpt>
      <trkpt lat="43.55151" lon="3.30316">
        <ele>174.501309</ele>
        <time>2022-02-24T13:49:52.000Z</time>
      </trkpt>
      <trkpt lat="43.55143" lon="3.30319">
        <ele>173.889746</ele>
        <time>2022-02-24T13:49:54.000Z</time>
      </trkpt>
      <trkpt lat="43.55141" lon="3.30321">
        <ele>173.746557</ele>
        <time>2022-02-24T13:49:56.000Z</time>
      </trkpt>
      <trkpt lat="43.55135" lon="3.30338">
        <ele>172.771206</ele>
        <time>2022-02-24T13:49:58.000Z</time>
      </trkpt>
      <trkpt lat="43.55129" lon="3.30371">
        <ele>170.974117</ele>
        <time>2022-02-24T13:50:00.000Z</time>
      </trkpt>
      <trkpt lat="43.55126" lon="3.30382">
        <ele>170.390708</ele>
        <time>2022-02-24T13:50:02.000Z</time>
      </trkpt>
      <trkpt lat="43.55125" lon="3.30385">
        <ele>170.22392</ele>
        <time>2022-02-24T13:50:04.000Z</time>
      </trkpt>
      <trkpt lat="43.55114" lon="3.30399">
        <ele>169.20233</ele>
        <time>2022-02-24T13:50:06.000Z</time>
      </trkpt>
      <trkpt lat="43.55095" lon="3.30407">
        <ele>167.753835</ele>
        <time>2022-02-24T13:50:08.000Z</time>
      </trkpt>
      <trkpt lat="43.55093" lon="3.30404">
        <ele>167.556717</ele>
        <time>2022-02-24T13:50:10.000Z</time>
      </trkpt>
      <trkpt lat="43.55085" lon="3.30388">
        <ele>166.536532</ele>
        <time>2022-02-24T13:50:12.000Z</time>
      </trkpt>
      <trkpt lat="43.55076" lon="3.30368">
        <ele>165.319184</ele>
        <time>2022-02-24T13:50:14.000Z</time>
      </trkpt>
      <trkpt lat="43.55062" lon="3.30337">
        <ele>163.512424</ele>
        <time>2022-02-24T13:50:16.000Z</time>
      </trkpt>
      <trkpt lat="43.55061" lon="3.30334">
        <ele>163.337217</ele>
        <time>2022-02-24T13:50:18.000Z</time>
      </trkpt>
      <trkpt lat="43.55051" lon="3.30316">
        <ele>162.345875</ele>
        <time>2022-02-24T13:50:20.000Z</time>
      </trkpt>
      <trkpt lat="43.55039" lon="3.30298">
        <ele>161.287281</ele>
        <time>2022-02-24T13:50:22.000Z</time>
      </trkpt>
      <trkpt lat="43.55024" lon="3.30272">
        <ele>159.843213</ele>
        <time>2022-02-24T13:50:24.000Z</time>
      </trkpt>
      <trkpt lat="43.55024" lon="3.30268">
        <ele>159.662081</ele>
        <time>2022-02-24T13:50:26.000Z</time>
      </trkpt>
      <trkpt lat="43.55023" lon="3.30246">
        <ele>158.68807</ele>
        <time>2022-02-24T13:50:28.000Z</time>
      </trkpt>
      <trkpt lat="43.55024" lon="3.3022">
        <ele>157.560161</ele>
        <time>2022-02-24T13:50:30.000Z</time>
      </trkpt>
      <trkpt lat="43.55026" lon="3.30185">
        <ele>155.99129</ele>
        <time>2022-02-24T13:50:32.000Z</time>
      </trkpt>
      <trkpt lat="43.55027" lon="3.30173">
        <ele>155.456978</ele>
        <time>2022-02-24T13:50:34.000Z</time>
      </trkpt>
      <trkpt lat="43.55027" lon="3.30169">
        <ele>155.305358</ele>
        <time>2022-02-24T13:50:36.000Z</time>
      </trkpt>
      <trkpt lat="43.55028" lon="3.3013">
        <ele>153.569762</ele>
        <time>2022-02-24T13:50:38.000Z</time>
      </trkpt>
      <trkpt lat="43.55028" lon="3.30125">
        <ele>153.354074</ele>
        <time>2022-02-24T13:50:40.000Z</time>
      </trkpt>
      <trkpt lat="43.55029" lon="3.30101">
        <ele>151.790047</ele>
        <time>2022-02-24T13:50:42.000Z</time>
      </trkpt>
      <trkpt lat="43.55033" lon="3.30074">
        <ele>149.706684</ele>
        <time>2022-02-24T13:50:44.000Z</time>
      </trkpt>
      <trkpt lat="43.55038" lon="3.30053">
        <ele>147.95353</ele>
        <time>2022-02-24T13:50:46.000Z</time>
      </trkpt>
      <trkpt lat="43.55045" lon="3.30027">
        <ele>145.812434</ele>
        <time>2022-02-24T13:50:48.000Z</time>
      </trkpt>
      <trkpt lat="43.55047" lon="3.30024">
        <ele>145.552059</ele>
        <time>2022-02-24T13:50:50.000Z</time>
      </trkpt>
      <trkpt lat="43.55056" lon="3.29997">
        <ele>143.169688</ele>
        <time>2022-02-24T13:50:52.000Z</time>
      </trkpt>
      <trkpt lat="43.55062" lon="3.29984">
        <ele>141.942469</ele>
        <time>2022-02-24T13:50:54.000Z</time>
      </trkpt>
      <trkpt lat="43.55068" lon="3.2997">
        <ele>140.703995</ele>
        <time>2022-02-24T13:50:56.000Z</time>
      </trkpt>
      <trkpt lat="43.55067" lon="3.29952">
        <ele>139.345207</ele>
        <time>2022-02-24T13:50:58.000Z</time>
      </trkpt>
      <trkpt lat="43.5506" lon="3.29935">
        <ele>137.785008</ele>
        <time>2022-02-24T13:51:00.000Z</time>
      </trkpt>
      <trkpt lat="43.55058" lon="3.29931">
        <ele>137.398971</ele>
        <time>2022-02-24T13:51:02.000Z</time>
      </trkpt>
      <trkpt lat="43.55046" lon="3.29902">
        <ele>134.804689</ele>
        <time>2022-02-24T13:51:04.000Z</time>
      </trkpt>
      <trkpt lat="43.55038" lon="3.2988">
        <ele>133.399067</ele>
        <time>2022-02-24T13:51:06.000Z</time>
      </trkpt>
      <trkpt lat="43.55037" lon="3.29867">
        <ele>133.168877</ele>
        <time>2022-02-24T13:51:08.000Z</time>
      </trkpt>
      <trkpt lat="43.55037" lon="3.29867">
        <ele>133.158612</ele>
        <time>2022-02-24T13:51:10.000Z</time>
      </trkpt>
      <trkpt lat="43.55038" lon="3.2987">
        <ele>133.104351</ele>
        <time>2022-02-24T13:51:12.000Z</time>
      </trkpt>
      <trkpt lat="43.55036" lon="3.29868">
        <ele>133.041398</ele>
        <time>2022-02-24T13:51:14.000Z</time>
      </trkpt>
      <trkpt lat="43.55035" lon="3.29867">
        <ele>133.018301</ele>
        <time>2022-02-24T13:51:16.000Z</time>
      </trkpt>
      <trkpt lat="43.55029" lon="3.2985">
        <ele>132.680633</ele>
        <time>2022-02-24T13:51:18.000Z</time>
      </trkpt>
      <trkpt lat="43.55025" lon="3.29844">
        <ele>132.540459</ele>
        <time>2022-02-24T13:51:20.000Z</time>
      </trkpt>
      <trkpt lat="43.55022" lon="3.29836">
        <ele>132.376777</ele>
        <time>2022-02-24T13:51:22.000Z</time>
      </trkpt>
      <trkpt lat="43.55021" lon="3.29833">
        <ele>132.318383</ele>
        <time>2022-02-24T13:51:24.000Z</time>
      </trkpt>
      <trkpt lat="43.55008" lon="3.29802">
        <ele>131.706138</ele>
        <time>2022-02-24T13:51:26.000Z</time>
      </trkpt>
      <trkpt lat="43.55007" lon="3.29799">
        <ele>131.639497</ele>
        <time>2022-02-24T13:51:28.000Z</time>
      </trkpt>
      <trkpt lat="43.54995" lon="3.29773">
        <ele>131.100806</ele>
        <time>2022-02-24T13:51:30.000Z</time>
      </trkpt>
      <trkpt lat="43.5499" lon="3.29763">
        <ele>130.889801</ele>
        <time>2022-02-24T13:51:32.000Z</time>
      </trkpt>
      <trkpt lat="43.54985" lon="3.29753">
        <ele>130.679724</ele>
        <time>2022-02-24T13:51:34.000Z</time>
      </trkpt>
      <trkpt lat="43.54981" lon="3.29742">
        <ele>130.465057</ele>
        <time>2022-02-24T13:51:36.000Z</time>
      </trkpt>
      <trkpt lat="43.54981" lon="3.29739">
        <ele>130.40493</ele>
        <time>2022-02-24T13:51:38.000Z</time>
      </trkpt>
      <trkpt lat="43.5497" lon="3.29707">
        <ele>129.789452</ele>
        <time>2022-02-24T13:51:40.000Z</time>
      </trkpt>
      <trkpt lat="43.54965" lon="3.29697">
        <ele>129.586965</ele>
        <time>2022-02-24T13:51:42.000Z</time>
      </trkpt>
      <trkpt lat="43.54963" lon="3.29695">
        <ele>129.52362</ele>
        <time>2022-02-24T13:51:44.000Z</time>
      </trkpt>
      <trkpt lat="43.54953" lon="3.2968">
        <ele>129.213286</ele>
        <time>2022-02-24T13:51:46.000Z</time>
      </trkpt>
      <trkpt lat="43.54936" lon="3.29658">
        <ele>129.467708</ele>
        <time>2022-02-24T13:51:48.000Z</time>
      </trkpt>
      <trkpt lat="43.5493" lon="3.29651">
        <ele>129.556024</ele>
        <time>2022-02-24T13:51:50.000Z</time>
      </trkpt>
      <trkpt lat="43.54923" lon="3.29643">
        <ele>129.656144</ele>
        <time>2022-02-24T13:51:52.000Z</time>
      </trkpt>
      <trkpt lat="43.54922" lon="3.29641">
        <ele>129.678958</ele>
        <time>2022-02-24T13:51:54.000Z</time>
      </trkpt>
      <trkpt lat="43.54905" lon="3.29615">
        <ele>129.950957</ele>
        <time>2022-02-24T13:51:56.000Z</time>
      </trkpt>
      <trkpt lat="43.54903" lon="3.29614">
        <ele>129.972188</ele>
        <time>2022-02-24T13:51:58.000Z</time>
      </trkpt>
      <trkpt lat="43.54887" lon="3.296">
        <ele>130.18603</ele>
        <time>2022-02-24T13:52:00.000Z</time>
      </trkpt>
      <trkpt lat="43.54885" lon="3.29599">
        <ele>130.207757</ele>
        <time>2022-02-24T13:52:02.000Z</time>
      </trkpt>
      <trkpt lat="43.54873" lon="3.29594">
        <ele>130.33883</ele>
        <time>2022-02-24T13:52:04.000Z</time>
      </trkpt>
      <trkpt lat="43.54853" lon="3.29584">
        <ele>130.573024</ele>
        <time>2022-02-24T13:52:06.000Z</time>
      </trkpt>
      <trkpt lat="43.54845" lon="3.2958">
        <ele>130.662566</ele>
        <time>2022-02-24T13:52:08.000Z</time>
      </trkpt>
      <trkpt lat="43.54844" lon="3.29579">
        <ele>130.684537</ele>
        <time>2022-02-24T13:52:10.000Z</time>
      </trkpt>
      <trkpt lat="43.54824" lon="3.29568">
        <ele>130.918887</ele>
        <time>2022-02-24T13:52:12.000Z</time>
      </trkpt>
      <trkpt lat="43.54817" lon="3.29564">
        <ele>130.996729</ele>
        <time>2022-02-24T13:52:14.000Z</time>
      </trkpt>
      <trkpt lat="43.54815" lon="3.29563">
        <ele>131.019584</ele>
        <time>2022-02-24T13:52:16.000Z</time>
      </trkpt>
      <trkpt lat="43.54795" lon="3.29551">
        <ele>131.710303</ele>
        <time>2022-02-24T13:52:18.000Z</time>
      </trkpt>
      <trkpt lat="43.54794" lon="3.2955">
        <ele>131.844545</ele>
        <time>2022-02-24T13:52:20.000Z</time>
      </trkpt>
      <trkpt lat="43.54784" lon="3.29546">
        <ele>132.533895</ele>
        <time>2022-02-24T13:52:22.000Z</time>
      </trkpt>
      <trkpt lat="43.54771" lon="3.29542">
        <ele>133.375341</ele>
        <time>2022-02-24T13:52:24.000Z</time>
      </trkpt>
      <trkpt lat="43.5477" lon="3.29542">
        <ele>133.45027</ele>
        <time>2022-02-24T13:52:26.000Z</time>
      </trkpt>
      <trkpt lat="43.54756" lon="3.29539">
        <ele>134.402211</ele>
        <time>2022-02-24T13:52:28.000Z</time>
      </trkpt>
      <trkpt lat="43.54749" lon="3.29539">
        <ele>134.863404</ele>
        <time>2022-02-24T13:52:30.000Z</time>
      </trkpt>
      <trkpt lat="43.54747" lon="3.29539">
        <ele>135.043831</ele>
        <time>2022-02-24T13:52:31.000Z</time>
      </trkpt>
      <trkpt lat="43.54746" lon="3.29539">
        <ele>135.090858</ele>
        <time>2022-02-24T13:52:32.000Z</time>
      </trkpt>
      <trkpt lat="43.54746" lon="3.29539">
        <ele>135.111483</ele>
        <time>2022-02-24T13:52:34.000Z</time>
      </trkpt>
      <trkpt lat="43.54746" lon="3.29539">
        <ele>135.15851</ele>
        <time>2022-02-24T13:52:36.000Z</time>
      </trkpt>
      <trkpt lat="43.54737" lon="3.2954">
        <ele>135.747287</ele>
        <time>2022-02-24T13:52:37.000Z</time>
      </trkpt>
      <trkpt lat="43.54732" lon="3.2954">
        <ele>136.054719</ele>
        <time>2022-02-24T13:52:38.000Z</time>
      </trkpt>
      <trkpt lat="43.54727" lon="3.29539">
        <ele>136.383055</ele>
        <time>2022-02-24T13:52:40.000Z</time>
      </trkpt>
      <trkpt lat="43.54722" lon="3.29538">
        <ele>136.718441</ele>
        <time>2022-02-24T13:52:41.000Z</time>
      </trkpt>
      <trkpt lat="43.54718" lon="3.29538">
        <ele>137.026788</ele>
        <time>2022-02-24T13:52:42.000Z</time>
      </trkpt>
      <trkpt lat="43.54714" lon="3.29537">
        <ele>137.281874</ele>
        <time>2022-02-24T13:52:43.000Z</time>
      </trkpt>
      <trkpt lat="43.54709" lon="3.29537">
        <ele>137.590221</ele>
        <time>2022-02-24T13:52:45.000Z</time>
      </trkpt>
      <trkpt lat="43.54705" lon="3.29536">
        <ele>137.892334</ele>
        <time>2022-02-24T13:52:46.000Z</time>
      </trkpt>
      <trkpt lat="43.547" lon="3.29536">
        <ele>138.201593</ele>
        <time>2022-02-24T13:52:47.000Z</time>
      </trkpt>
      <trkpt lat="43.54696" lon="3.29535">
        <ele>138.484919</ele>
        <time>2022-02-24T13:52:48.000Z</time>
      </trkpt>
      <trkpt lat="43.54691" lon="3.29534">
        <ele>138.822536</ele>
        <time>2022-02-24T13:52:50.000Z</time>
      </trkpt>
      <trkpt lat="43.54686" lon="3.29533">
        <ele>139.155096</ele>
        <time>2022-02-24T13:52:52.000Z</time>
      </trkpt>
      <trkpt lat="43.54682" lon="3.29532">
        <ele>139.440773</ele>
        <time>2022-02-24T13:52:53.000Z</time>
      </trkpt>
      <trkpt lat="43.54678" lon="3.29531">
        <ele>139.698422</ele>
        <time>2022-02-24T13:52:54.000Z</time>
      </trkpt>
      <trkpt lat="43.54676" lon="3.2953">
        <ele>139.854842</ele>
        <time>2022-02-24T13:52:56.000Z</time>
      </trkpt>
      <trkpt lat="43.54664" lon="3.29526">
        <ele>140.670002</ele>
        <time>2022-02-24T13:52:58.000Z</time>
      </trkpt>
      <trkpt lat="43.54661" lon="3.29525">
        <ele>140.880132</ele>
        <time>2022-02-24T13:53:00.000Z</time>
      </trkpt>
      <trkpt lat="43.54652" lon="3.29521">
        <ele>141.502383</ele>
        <time>2022-02-24T13:53:02.000Z</time>
      </trkpt>
      <trkpt lat="43.54648" lon="3.29519">
        <ele>141.77968</ele>
        <time>2022-02-24T13:53:04.000Z</time>
      </trkpt>
      <trkpt lat="43.54646" lon="3.29517">
        <ele>141.976046</ele>
        <time>2022-02-24T13:53:05.000Z</time>
      </trkpt>
      <trkpt lat="43.54644" lon="3.29516">
        <ele>142.119986</ele>
        <time>2022-02-24T13:53:06.000Z</time>
      </trkpt>
      <trkpt lat="43.54643" lon="3.29515">
        <ele>142.203082</ele>
        <time>2022-02-24T13:53:08.000Z</time>
      </trkpt>
      <trkpt lat="43.54636" lon="3.2951">
        <ele>142.721669</ele>
        <time>2022-02-24T13:53:10.000Z</time>
      </trkpt>
      <trkpt lat="43.54632" lon="3.29508">
        <ele>142.970603</ele>
        <time>2022-02-24T13:53:11.000Z</time>
      </trkpt>
      <trkpt lat="43.5463" lon="3.29506">
        <ele>143.140607</ele>
        <time>2022-02-24T13:53:12.000Z</time>
      </trkpt>
      <trkpt lat="43.54627" lon="3.29505">
        <ele>143.295871</ele>
        <time>2022-02-24T13:53:14.000Z</time>
      </trkpt>
      <trkpt lat="43.54624" lon="3.29503">
        <ele>143.463357</ele>
        <time>2022-02-24T13:53:16.000Z</time>
      </trkpt>
      <trkpt lat="43.54622" lon="3.29502">
        <ele>143.565943</ele>
        <time>2022-02-24T13:53:18.000Z</time>
      </trkpt>
      <trkpt lat="43.54613" lon="3.29496">
        <ele>144.060931</ele>
        <time>2022-02-24T13:53:19.000Z</time>
      </trkpt>
      <trkpt lat="43.5461" lon="3.29495">
        <ele>144.207231</ele>
        <time>2022-02-24T13:53:20.000Z</time>
      </trkpt>
      <trkpt lat="43.54608" lon="3.29494">
        <ele>144.329655</ele>
        <time>2022-02-24T13:53:22.000Z</time>
      </trkpt>
      <trkpt lat="43.54607" lon="3.29493">
        <ele>144.389966</ele>
        <time>2022-02-24T13:53:24.000Z</time>
      </trkpt>
      <trkpt lat="43.54599" lon="3.29489">
        <ele>144.834793</ele>
        <time>2022-02-24T13:53:26.000Z</time>
      </trkpt>
      <trkpt lat="43.54596" lon="3.29487">
        <ele>144.996262</ele>
        <time>2022-02-24T13:53:27.000Z</time>
      </trkpt>
      <trkpt lat="43.54594" lon="3.29486">
        <ele>145.104845</ele>
        <time>2022-02-24T13:53:28.000Z</time>
      </trkpt>
      <trkpt lat="43.54592" lon="3.29485">
        <ele>145.208881</ele>
        <time>2022-02-24T13:53:29.000Z</time>
      </trkpt>
      <trkpt lat="43.5459" lon="3.29484">
        <ele>145.310125</ele>
        <time>2022-02-24T13:53:30.000Z</time>
      </trkpt>
      <trkpt lat="43.54588" lon="3.29482">
        <ele>145.435285</ele>
        <time>2022-02-24T13:53:32.000Z</time>
      </trkpt>
      <trkpt lat="43.54585" lon="3.29481">
        <ele>145.560826</ele>
        <time>2022-02-24T13:53:33.000Z</time>
      </trkpt>
      <trkpt lat="43.54583" lon="3.29479">
        <ele>145.692477</ele>
        <time>2022-02-24T13:53:34.000Z</time>
      </trkpt>
      <trkpt lat="43.5458" lon="3.29477">
        <ele>145.843378</ele>
        <time>2022-02-24T13:53:36.000Z</time>
      </trkpt>
      <trkpt lat="43.54578" lon="3.29475">
        <ele>145.991139</ele>
        <time>2022-02-24T13:53:37.000Z</time>
      </trkpt>
      <trkpt lat="43.54575" lon="3.29473">
        <ele>146.137623</ele>
        <time>2022-02-24T13:53:38.000Z</time>
      </trkpt>
      <trkpt lat="43.54572" lon="3.29471">
        <ele>146.311184</ele>
        <time>2022-02-24T13:53:40.000Z</time>
      </trkpt>
      <trkpt lat="43.5457" lon="3.2947">
        <ele>146.420172</ele>
        <time>2022-02-24T13:53:42.000Z</time>
      </trkpt>
      <trkpt lat="43.54561" lon="3.29463">
        <ele>146.949731</ele>
        <time>2022-02-24T13:53:44.000Z</time>
      </trkpt>
      <trkpt lat="43.54556" lon="3.29459">
        <ele>147.228875</ele>
        <time>2022-02-24T13:53:46.000Z</time>
      </trkpt>
      <trkpt lat="43.54552" lon="3.29457">
        <ele>147.405854</ele>
        <time>2022-02-24T13:53:47.000Z</time>
      </trkpt>
      <trkpt lat="43.5455" lon="3.29455">
        <ele>147.555852</ele>
        <time>2022-02-24T13:53:48.000Z</time>
      </trkpt>
      <trkpt lat="43.54547" lon="3.29453">
        <ele>147.71197</ele>
        <time>2022-02-24T13:53:50.000Z</time>
      </trkpt>
      <trkpt lat="43.54545" lon="3.29451">
        <ele>147.85131</ele>
        <time>2022-02-24T13:53:51.000Z</time>
      </trkpt>
      <trkpt lat="43.54543" lon="3.29448">
        <ele>147.994884</ele>
        <time>2022-02-24T13:53:52.000Z</time>
      </trkpt>
      <trkpt lat="43.5454" lon="3.29446">
        <ele>148.136311</ele>
        <time>2022-02-24T13:53:53.000Z</time>
      </trkpt>
      <trkpt lat="43.54538" lon="3.29443">
        <ele>148.264566</ele>
        <time>2022-02-24T13:53:54.000Z</time>
      </trkpt>
      <trkpt lat="43.54536" lon="3.29441">
        <ele>148.402979</ele>
        <time>2022-02-24T13:53:55.000Z</time>
      </trkpt>
      <trkpt lat="43.54535" lon="3.29437">
        <ele>148.552255</ele>
        <time>2022-02-24T13:53:56.000Z</time>
      </trkpt>
      <trkpt lat="43.54533" lon="3.29434">
        <ele>148.71589</ele>
        <time>2022-02-24T13:53:57.000Z</time>
      </trkpt>
      <trkpt lat="43.54531" lon="3.29429">
        <ele>148.8881</ele>
        <time>2022-02-24T13:53:59.000Z</time>
      </trkpt>
      <trkpt lat="43.5453" lon="3.29425">
        <ele>149.066841</ele>
        <time>2022-02-24T13:54:00.000Z</time>
      </trkpt>
      <trkpt lat="43.54529" lon="3.29422">
        <ele>149.180469</ele>
        <time>2022-02-24T13:54:02.000Z</time>
      </trkpt>
      <trkpt lat="43.54528" lon="3.29407">
        <ele>149.730478</ele>
        <time>2022-02-24T13:54:04.000Z</time>
      </trkpt>
      <trkpt lat="43.54528" lon="3.29401">
        <ele>149.950609</ele>
        <time>2022-02-24T13:54:05.000Z</time>
      </trkpt>
      <trkpt lat="43.54528" lon="3.29396">
        <ele>150.110093</ele>
        <time>2022-02-24T13:54:06.000Z</time>
      </trkpt>
      <trkpt lat="43.54528" lon="3.29392">
        <ele>150.262961</ele>
        <time>2022-02-24T13:54:07.000Z</time>
      </trkpt>
      <trkpt lat="43.54529" lon="3.29387">
        <ele>150.430152</ele>
        <time>2022-02-24T13:54:08.000Z</time>
      </trkpt>
      <trkpt lat="43.54529" lon="3.29383">
        <ele>150.59376</ele>
        <time>2022-02-24T13:54:09.000Z</time>
      </trkpt>
      <trkpt lat="43.5453" lon="3.29378">
        <ele>150.764535</ele>
        <time>2022-02-24T13:54:10.000Z</time>
      </trkpt>
      <trkpt lat="43.5453" lon="3.29372">
        <ele>150.995974</ele>
        <time>2022-02-24T13:54:12.000Z</time>
      </trkpt>
      <trkpt lat="43.54531" lon="3.29365">
        <ele>151.237456</ele>
        <time>2022-02-24T13:54:13.000Z</time>
      </trkpt>
      <trkpt lat="43.54532" lon="3.29359">
        <ele>151.482498</ele>
        <time>2022-02-24T13:54:15.000Z</time>
      </trkpt>
      <trkpt lat="43.54532" lon="3.29352">
        <ele>151.705371</ele>
        <time>2022-02-24T13:54:16.000Z</time>
      </trkpt>
      <trkpt lat="43.54533" lon="3.29346">
        <ele>151.932628</ele>
        <time>2022-02-24T13:54:17.000Z</time>
      </trkpt>
      <trkpt lat="43.54534" lon="3.2934">
        <ele>152.142413</ele>
        <time>2022-02-24T13:54:18.000Z</time>
      </trkpt>
      <trkpt lat="43.54535" lon="3.29334">
        <ele>152.210206</ele>
        <time>2022-02-24T13:54:20.000Z</time>
      </trkpt>
      <trkpt lat="43.54536" lon="3.29327">
        <ele>152.275189</ele>
        <time>2022-02-24T13:54:21.000Z</time>
      </trkpt>
      <trkpt lat="43.54537" lon="3.2932">
        <ele>152.339552</ele>
        <time>2022-02-24T13:54:22.000Z</time>
      </trkpt>
      <trkpt lat="43.54539" lon="3.29313">
        <ele>152.409596</ele>
        <time>2022-02-24T13:54:24.000Z</time>
      </trkpt>
      <trkpt lat="43.54541" lon="3.29306">
        <ele>152.485975</ele>
        <time>2022-02-24T13:54:25.000Z</time>
      </trkpt>
      <trkpt lat="43.54543" lon="3.293">
        <ele>152.554118</ele>
        <time>2022-02-24T13:54:26.000Z</time>
      </trkpt>
      <trkpt lat="43.54545" lon="3.29293">
        <ele>152.622664</ele>
        <time>2022-02-24T13:54:27.000Z</time>
      </trkpt>
      <trkpt lat="43.54548" lon="3.29287">
        <ele>152.686947</ele>
        <time>2022-02-24T13:54:28.000Z</time>
      </trkpt>
      <trkpt lat="43.5455" lon="3.29281">
        <ele>152.754714</ele>
        <time>2022-02-24T13:54:29.000Z</time>
      </trkpt>
      <trkpt lat="43.54552" lon="3.29276">
        <ele>152.81668</ele>
        <time>2022-02-24T13:54:30.000Z</time>
      </trkpt>
      <trkpt lat="43.54555" lon="3.2927">
        <ele>152.884446</ele>
        <time>2022-02-24T13:54:32.000Z</time>
      </trkpt>
      <trkpt lat="43.54558" lon="3.29264">
        <ele>152.95059</ele>
        <time>2022-02-24T13:54:33.000Z</time>
      </trkpt>
      <trkpt lat="43.54561" lon="3.29258">
        <ele>153.014331</ele>
        <time>2022-02-24T13:54:34.000Z</time>
      </trkpt>
      <trkpt lat="43.54563" lon="3.29253">
        <ele>153.074161</ele>
        <time>2022-02-24T13:54:35.000Z</time>
      </trkpt>
      <trkpt lat="43.54566" lon="3.29248">
        <ele>153.133223</ele>
        <time>2022-02-24T13:54:36.000Z</time>
      </trkpt>
      <trkpt lat="43.54569" lon="3.29243">
        <ele>153.197091</ele>
        <time>2022-02-24T13:54:37.000Z</time>
      </trkpt>
      <trkpt lat="43.54572" lon="3.29238">
        <ele>153.267187</ele>
        <time>2022-02-24T13:54:39.000Z</time>
      </trkpt>
      <trkpt lat="43.54575" lon="3.29232">
        <ele>153.331714</ele>
        <time>2022-02-24T13:54:40.000Z</time>
      </trkpt>
      <trkpt lat="43.54578" lon="3.29227">
        <ele>153.394123</ele>
        <time>2022-02-24T13:54:41.000Z</time>
      </trkpt>
      <trkpt lat="43.54582" lon="3.29222">
        <ele>153.462037</ele>
        <time>2022-02-24T13:54:43.000Z</time>
      </trkpt>
      <trkpt lat="43.54585" lon="3.29217">
        <ele>153.525173</ele>
        <time>2022-02-24T13:54:44.000Z</time>
      </trkpt>
      <trkpt lat="43.54588" lon="3.29212">
        <ele>153.592371</ele>
        <time>2022-02-24T13:54:46.000Z</time>
      </trkpt>
      <trkpt lat="43.54591" lon="3.29207">
        <ele>153.655507</ele>
        <time>2022-02-24T13:54:47.000Z</time>
      </trkpt>
      <trkpt lat="43.54594" lon="3.29202">
        <ele>153.71779</ele>
        <time>2022-02-24T13:54:48.000Z</time>
      </trkpt>
      <trkpt lat="43.54598" lon="3.29197">
        <ele>153.780925</ele>
        <time>2022-02-24T13:54:49.000Z</time>
      </trkpt>
      <trkpt lat="43.54601" lon="3.29192">
        <ele>153.838889</ele>
        <time>2022-02-24T13:54:50.000Z</time>
      </trkpt>
      <trkpt lat="43.54604" lon="3.29188">
        <ele>153.903289</ele>
        <time>2022-02-24T13:54:52.000Z</time>
      </trkpt>
      <trkpt lat="43.54607" lon="3.29183">
        <ele>153.968621</ele>
        <time>2022-02-24T13:54:53.000Z</time>
      </trkpt>
      <trkpt lat="43.54611" lon="3.29178">
        <ele>154.03582</ele>
        <time>2022-02-24T13:54:55.000Z</time>
      </trkpt>
      <trkpt lat="43.54614" lon="3.29173">
        <ele>154.10022</ele>
        <time>2022-02-24T13:54:56.000Z</time>
      </trkpt>
      <trkpt lat="43.54618" lon="3.29168">
        <ele>154.1707</ele>
        <time>2022-02-24T13:54:57.000Z</time>
      </trkpt>
      <trkpt lat="43.54622" lon="3.29163">
        <ele>154.238262</ele>
        <time>2022-02-24T13:54:58.000Z</time>
      </trkpt>
      <trkpt lat="43.54626" lon="3.29159">
        <ele>154.303937</ele>
        <time>2022-02-24T13:55:00.000Z</time>
      </trkpt>
      <trkpt lat="43.5463" lon="3.29155">
        <ele>154.376962</ele>
        <time>2022-02-24T13:55:01.000Z</time>
      </trkpt>
      <trkpt lat="43.54635" lon="3.29151">
        <ele>154.442932</ele>
        <time>2022-02-24T13:55:02.000Z</time>
      </trkpt>
      <trkpt lat="43.54638" lon="3.29148">
        <ele>154.495352</ele>
        <time>2022-02-24T13:55:04.000Z</time>
      </trkpt>
      <trkpt lat="43.54658" lon="3.29127">
        <ele>156.129507</ele>
        <time>2022-02-24T13:55:06.000Z</time>
      </trkpt>
      <trkpt lat="43.54661" lon="3.29122">
        <ele>156.439015</ele>
        <time>2022-02-24T13:55:08.000Z</time>
      </trkpt>
      <trkpt lat="43.54667" lon="3.29109">
        <ele>157.226195</ele>
        <time>2022-02-24T13:55:10.000Z</time>
      </trkpt>
      <trkpt lat="43.54672" lon="3.29094">
        <ele>158.056276</ele>
        <time>2022-02-24T13:55:12.000Z</time>
      </trkpt>
      <trkpt lat="43.54672" lon="3.29089">
        <ele>158.302668</ele>
        <time>2022-02-24T13:55:13.000Z</time>
      </trkpt>
      <trkpt lat="43.54673" lon="3.29085">
        <ele>158.521032</ele>
        <time>2022-02-24T13:55:14.000Z</time>
      </trkpt>
      <trkpt lat="43.54674" lon="3.2908">
        <ele>158.783778</ele>
        <time>2022-02-24T13:55:16.000Z</time>
      </trkpt>
      <trkpt lat="43.54675" lon="3.29077">
        <ele>158.969428</ele>
        <time>2022-02-24T13:55:18.000Z</time>
      </trkpt>
      <trkpt lat="43.54682" lon="3.29062">
        <ele>159.835294</ele>
        <time>2022-02-24T13:55:19.000Z</time>
      </trkpt>
      <trkpt lat="43.54684" lon="3.29057">
        <ele>160.157102</ele>
        <time>2022-02-24T13:55:21.000Z</time>
      </trkpt>
      <trkpt lat="43.54687" lon="3.29053">
        <ele>160.413843</ele>
        <time>2022-02-24T13:55:22.000Z</time>
      </trkpt>
      <trkpt lat="43.54689" lon="3.29049">
        <ele>160.650132</ele>
        <time>2022-02-24T13:55:23.000Z</time>
      </trkpt>
      <trkpt lat="43.54691" lon="3.29045">
        <ele>160.894832</ele>
        <time>2022-02-24T13:55:25.000Z</time>
      </trkpt>
      <trkpt lat="43.54692" lon="3.29041">
        <ele>161.135311</ele>
        <time>2022-02-24T13:55:26.000Z</time>
      </trkpt>
      <trkpt lat="43.54694" lon="3.29037">
        <ele>161.396468</ele>
        <time>2022-02-24T13:55:27.000Z</time>
      </trkpt>
      <trkpt lat="43.54696" lon="3.29032">
        <ele>161.641168</ele>
        <time>2022-02-24T13:55:29.000Z</time>
      </trkpt>
      <trkpt lat="43.54701" lon="3.29029">
        <ele>162.002042</ele>
        <time>2022-02-24T13:55:31.000Z</time>
      </trkpt>
      <trkpt lat="43.54703" lon="3.2903">
        <ele>162.149174</ele>
        <time>2022-02-24T13:55:33.000Z</time>
      </trkpt>
      <trkpt lat="43.54705" lon="3.29032">
        <ele>162.326627</ele>
        <time>2022-02-24T13:55:34.000Z</time>
      </trkpt>
      <trkpt lat="43.54707" lon="3.29036">
        <ele>162.538545</ele>
        <time>2022-02-24T13:55:36.000Z</time>
      </trkpt>
      <trkpt lat="43.54709" lon="3.2904">
        <ele>162.796083</ele>
        <time>2022-02-24T13:55:37.000Z</time>
      </trkpt>
      <trkpt lat="43.5471" lon="3.29044">
        <ele>163.049313</ele>
        <time>2022-02-24T13:55:38.000Z</time>
      </trkpt>
      <trkpt lat="43.54712" lon="3.29048">
        <ele>163.285602</ele>
        <time>2022-02-24T13:55:39.000Z</time>
      </trkpt>
      <trkpt lat="43.54714" lon="3.29052">
        <ele>163.530301</ele>
        <time>2022-02-24T13:55:40.000Z</time>
      </trkpt>
      <trkpt lat="43.54716" lon="3.29056">
        <ele>163.77078</ele>
        <time>2022-02-24T13:55:41.000Z</time>
      </trkpt>
      <trkpt lat="43.54718" lon="3.2906">
        <ele>164.011258</ele>
        <time>2022-02-24T13:55:42.000Z</time>
      </trkpt>
      <trkpt lat="43.5472" lon="3.29064">
        <ele>164.24339</ele>
        <time>2022-02-24T13:55:44.000Z</time>
      </trkpt>
      <trkpt lat="43.54722" lon="3.29068">
        <ele>164.492341</ele>
        <time>2022-02-24T13:55:45.000Z</time>
      </trkpt>
      <trkpt lat="43.54724" lon="3.29072">
        <ele>164.74908</ele>
        <time>2022-02-24T13:55:46.000Z</time>
      </trkpt>
      <trkpt lat="43.54727" lon="3.29077">
        <ele>165.035152</ele>
        <time>2022-02-24T13:55:48.000Z</time>
      </trkpt>
      <trkpt lat="43.54729" lon="3.29081">
        <ele>165.29585</ele>
        <time>2022-02-24T13:55:49.000Z</time>
      </trkpt>
      <trkpt lat="43.54731" lon="3.29085">
        <ele>165.54479</ele>
        <time>2022-02-24T13:55:50.000Z</time>
      </trkpt>
      <trkpt lat="43.54734" lon="3.29088">
        <ele>165.781566</ele>
        <time>2022-02-24T13:55:51.000Z</time>
      </trkpt>
      <trkpt lat="43.54736" lon="3.29092">
        <ele>166.030505</ele>
        <time>2022-02-24T13:55:52.000Z</time>
      </trkpt>
      <trkpt lat="43.54738" lon="3.29095">
        <ele>166.246383</ele>
        <time>2022-02-24T13:55:53.000Z</time>
      </trkpt>
      <trkpt lat="43.5474" lon="3.29099">
        <ele>166.48769</ele>
        <time>2022-02-24T13:55:54.000Z</time>
      </trkpt>
      <trkpt lat="43.54742" lon="3.29103">
        <ele>166.740509</ele>
        <time>2022-02-24T13:55:56.000Z</time>
      </trkpt>
      <trkpt lat="43.54745" lon="3.29107">
        <ele>167.00096</ele>
        <time>2022-02-24T13:55:57.000Z</time>
      </trkpt>
      <trkpt lat="43.54747" lon="3.29111">
        <ele>167.152132</ele>
        <time>2022-02-24T13:55:58.000Z</time>
      </trkpt>
      <trkpt lat="43.54749" lon="3.29114">
        <ele>167.297914</ele>
        <time>2022-02-24T13:55:59.000Z</time>
      </trkpt>
      <trkpt lat="43.5475" lon="3.29116">
        <ele>167.392392</ele>
        <time>2022-02-24T13:56:02.000Z</time>
      </trkpt>
      <trkpt lat="43.54756" lon="3.29128">
        <ele>167.864794</ele>
        <time>2022-02-24T13:56:03.000Z</time>
      </trkpt>
      <trkpt lat="43.54758" lon="3.29132">
        <ele>168.037637</ele>
        <time>2022-02-24T13:56:04.000Z</time>
      </trkpt>
      <trkpt lat="43.54759" lon="3.29134">
        <ele>168.124016</ele>
        <time>2022-02-24T13:56:06.000Z</time>
      </trkpt>
      <trkpt lat="43.54764" lon="3.29143">
        <ele>168.488969</ele>
        <time>2022-02-24T13:56:08.000Z</time>
      </trkpt>
      <trkpt lat="43.54766" lon="3.29145">
        <ele>168.607743</ele>
        <time>2022-02-24T13:56:10.000Z</time>
      </trkpt>
      <trkpt lat="43.5477" lon="3.29154">
        <ele>168.932215</ele>
        <time>2022-02-24T13:56:11.000Z</time>
      </trkpt>
      <trkpt lat="43.54771" lon="3.29157">
        <ele>169.070401</ele>
        <time>2022-02-24T13:56:12.000Z</time>
      </trkpt>
      <trkpt lat="43.54771" lon="3.2916">
        <ele>169.1505</ele>
        <time>2022-02-24T13:56:14.000Z</time>
      </trkpt>
      <trkpt lat="43.54774" lon="3.29168">
        <ele>169.443627</ele>
        <time>2022-02-24T13:56:15.000Z</time>
      </trkpt>
      <trkpt lat="43.54775" lon="3.29172">
        <ele>169.576951</ele>
        <time>2022-02-24T13:56:16.000Z</time>
      </trkpt>
      <trkpt lat="43.54776" lon="3.29175">
        <ele>169.72346</ele>
        <time>2022-02-24T13:56:18.000Z</time>
      </trkpt>
      <trkpt lat="43.54778" lon="3.29178">
        <ele>169.832579</ele>
        <time>2022-02-24T13:56:19.000Z</time>
      </trkpt>
      <trkpt lat="43.54779" lon="3.29181">
        <ele>169.948655</ele>
        <time>2022-02-24T13:56:20.000Z</time>
      </trkpt>
      <trkpt lat="43.5478" lon="3.29183">
        <ele>170.027766</ele>
        <time>2022-02-24T13:56:22.000Z</time>
      </trkpt>
      <trkpt lat="43.54786" lon="3.2919">
        <ele>170.408054</ele>
        <time>2022-02-24T13:56:23.000Z</time>
      </trkpt>
      <trkpt lat="43.54789" lon="3.29193">
        <ele>170.546956</ele>
        <time>2022-02-24T13:56:24.000Z</time>
      </trkpt>
      <trkpt lat="43.54791" lon="3.29195">
        <ele>170.649341</ele>
        <time>2022-02-24T13:56:25.000Z</time>
      </trkpt>
      <trkpt lat="43.54792" lon="3.29196">
        <ele>170.750029</ele>
        <time>2022-02-24T13:56:26.000Z</time>
      </trkpt>
      <trkpt lat="43.54794" lon="3.29198">
        <ele>170.847578</ele>
        <time>2022-02-24T13:56:27.000Z</time>
      </trkpt>
      <trkpt lat="43.54797" lon="3.29199">
        <ele>170.961902</ele>
        <time>2022-02-24T13:56:29.000Z</time>
      </trkpt>
      <trkpt lat="43.54799" lon="3.292">
        <ele>171.077531</ele>
        <time>2022-02-24T13:56:30.000Z</time>
      </trkpt>
      <trkpt lat="43.54801" lon="3.29201">
        <ele>171.173645</ele>
        <time>2022-02-24T13:56:31.000Z</time>
      </trkpt>
      <trkpt lat="43.54803" lon="3.29203">
        <ele>171.287969</ele>
        <time>2022-02-24T13:56:32.000Z</time>
      </trkpt>
      <trkpt lat="43.54805" lon="3.29204">
        <ele>171.402293</ele>
        <time>2022-02-24T13:56:33.000Z</time>
      </trkpt>
      <trkpt lat="43.54808" lon="3.29205">
        <ele>171.516617</ele>
        <time>2022-02-24T13:56:34.000Z</time>
      </trkpt>
      <trkpt lat="43.5481" lon="3.29207">
        <ele>171.648956</ele>
        <time>2022-02-24T13:56:35.000Z</time>
      </trkpt>
      <trkpt lat="43.54813" lon="3.29209">
        <ele>171.768971</ele>
        <time>2022-02-24T13:56:36.000Z</time>
      </trkpt>
      <trkpt lat="43.54815" lon="3.2921">
        <ele>171.86652</ele>
        <time>2022-02-24T13:56:38.000Z</time>
      </trkpt>
      <trkpt lat="43.54825" lon="3.29217">
        <ele>172.399131</ele>
        <time>2022-02-24T13:56:40.000Z</time>
      </trkpt>
      <trkpt lat="43.54829" lon="3.2922">
        <ele>172.61822</ele>
        <time>2022-02-24T13:56:41.000Z</time>
      </trkpt>
      <trkpt lat="43.54832" lon="3.29223">
        <ele>172.795429</ele>
        <time>2022-02-24T13:56:43.000Z</time>
      </trkpt>
      <trkpt lat="43.54836" lon="3.29225">
        <ele>172.972335</ele>
        <time>2022-02-24T13:56:44.000Z</time>
      </trkpt>
      <trkpt lat="43.54839" lon="3.29227">
        <ele>173.128604</ele>
        <time>2022-02-24T13:56:45.000Z</time>
      </trkpt>
      <trkpt lat="43.54842" lon="3.29229">
        <ele>173.28601</ele>
        <time>2022-02-24T13:56:46.000Z</time>
      </trkpt>
      <trkpt lat="43.54845" lon="3.29232">
        <ele>173.443871</ele>
        <time>2022-02-24T13:56:47.000Z</time>
      </trkpt>
      <trkpt lat="43.54848" lon="3.29234">
        <ele>173.605767</ele>
        <time>2022-02-24T13:56:49.000Z</time>
      </trkpt>
      <trkpt lat="43.54852" lon="3.29236">
        <ele>173.781433</ele>
        <time>2022-02-24T13:56:50.000Z</time>
      </trkpt>
      <trkpt lat="43.54855" lon="3.29239">
        <ele>173.97366</ele>
        <time>2022-02-24T13:56:51.000Z</time>
      </trkpt>
      <trkpt lat="43.54858" lon="3.2924">
        <ele>174.10633</ele>
        <time>2022-02-24T13:56:54.000Z</time>
      </trkpt>
      <trkpt lat="43.54872" lon="3.29247">
        <ele>174.797867</ele>
        <time>2022-02-24T13:56:55.000Z</time>
      </trkpt>
      <trkpt lat="43.54878" lon="3.2925">
        <ele>175.062052</ele>
        <time>2022-02-24T13:56:56.000Z</time>
      </trkpt>
      <trkpt lat="43.54881" lon="3.29252">
        <ele>175.249123</ele>
        <time>2022-02-24T13:56:57.000Z</time>
      </trkpt>
      <trkpt lat="43.54885" lon="3.29254">
        <ele>175.380674</ele>
        <time>2022-02-24T13:56:58.000Z</time>
      </trkpt>
      <trkpt lat="43.54888" lon="3.29256">
        <ele>175.51001</ele>
        <time>2022-02-24T13:57:00.000Z</time>
      </trkpt>
      <trkpt lat="43.54892" lon="3.29258">
        <ele>175.642472</ele>
        <time>2022-02-24T13:57:01.000Z</time>
      </trkpt>
      <trkpt lat="43.54895" lon="3.29261">
        <ele>175.772888</ele>
        <time>2022-02-24T13:57:02.000Z</time>
      </trkpt>
      <trkpt lat="43.54899" lon="3.29263">
        <ele>175.917879</ele>
        <time>2022-02-24T13:57:04.000Z</time>
      </trkpt>
      <trkpt lat="43.54902" lon="3.29265">
        <ele>176.019083</ele>
        <time>2022-02-24T13:57:06.000Z</time>
      </trkpt>
      <trkpt lat="43.54916" lon="3.29274">
        <ele>176.554144</ele>
        <time>2022-02-24T13:57:08.000Z</time>
      </trkpt>
      <trkpt lat="43.54921" lon="3.29278">
        <ele>176.774388</ele>
        <time>2022-02-24T13:57:10.000Z</time>
      </trkpt>
      <trkpt lat="43.54926" lon="3.2928">
        <ele>176.93397</ele>
        <time>2022-02-24T13:57:11.000Z</time>
      </trkpt>
      <trkpt lat="43.54933" lon="3.29285">
        <ele>177.215779</ele>
        <time>2022-02-24T13:57:13.000Z</time>
      </trkpt>
      <trkpt lat="43.54937" lon="3.29288">
        <ele>177.361862</ele>
        <time>2022-02-24T13:57:14.000Z</time>
      </trkpt>
      <trkpt lat="43.5494" lon="3.2929">
        <ele>177.491198</ele>
        <time>2022-02-24T13:57:15.000Z</time>
      </trkpt>
      <trkpt lat="43.54944" lon="3.29292">
        <ele>177.618991</ele>
        <time>2022-02-24T13:57:16.000Z</time>
      </trkpt>
      <trkpt lat="43.54947" lon="3.29293">
        <ele>177.754451</ele>
        <time>2022-02-24T13:57:18.000Z</time>
      </trkpt>
      <trkpt lat="43.54952" lon="3.29295">
        <ele>177.90217</ele>
        <time>2022-02-24T13:57:19.000Z</time>
      </trkpt>
      <trkpt lat="43.54956" lon="3.29295">
        <ele>178.048555</ele>
        <time>2022-02-24T13:57:20.000Z</time>
      </trkpt>
      <trkpt lat="43.5496" lon="3.29296">
        <ele>178.203718</ele>
        <time>2022-02-24T13:57:22.000Z</time>
      </trkpt>
      <trkpt lat="43.54963" lon="3.29296">
        <ele>178.296741</ele>
        <time>2022-02-24T13:57:24.000Z</time>
      </trkpt>
      <trkpt lat="43.54977" lon="3.29295">
        <ele>178.782584</ele>
        <time>2022-02-24T13:57:25.000Z</time>
      </trkpt>
      <trkpt lat="43.54983" lon="3.29295">
        <ele>178.992909</ele>
        <time>2022-02-24T13:57:27.000Z</time>
      </trkpt>
      <trkpt lat="43.54987" lon="3.29296">
        <ele>179.124164</ele>
        <time>2022-02-24T13:57:28.000Z</time>
      </trkpt>
      <trkpt lat="43.54991" lon="3.29296">
        <ele>179.258575</ele>
        <time>2022-02-24T13:57:30.000Z</time>
      </trkpt>
      <trkpt lat="43.54994" lon="3.29296">
        <ele>179.362017</ele>
        <time>2022-02-24T13:57:31.000Z</time>
      </trkpt>
      <trkpt lat="43.54998" lon="3.29296">
        <ele>179.492986</ele>
        <time>2022-02-24T13:57:32.000Z</time>
      </trkpt>
      <trkpt lat="43.55001" lon="3.29297">
        <ele>179.613761</ele>
        <time>2022-02-24T13:57:33.000Z</time>
      </trkpt>
      <trkpt lat="43.55004" lon="3.29297">
        <ele>179.717353</ele>
        <time>2022-02-24T13:57:34.000Z</time>
      </trkpt>
      <trkpt lat="43.55007" lon="3.29298">
        <ele>179.811177</ele>
        <time>2022-02-24T13:57:35.000Z</time>
      </trkpt>
      <trkpt lat="43.5501" lon="3.29298">
        <ele>179.905794</ele>
        <time>2022-02-24T13:57:36.000Z</time>
      </trkpt>
      <trkpt lat="43.55013" lon="3.29299">
        <ele>180.01153</ele>
        <time>2022-02-24T13:57:37.000Z</time>
      </trkpt>
      <trkpt lat="43.55016" lon="3.293">
        <ele>180.119716</ele>
        <time>2022-02-24T13:57:38.000Z</time>
      </trkpt>
      <trkpt lat="43.55019" lon="3.29301">
        <ele>180.252105</ele>
        <time>2022-02-24T13:57:40.000Z</time>
      </trkpt>
      <trkpt lat="43.55023" lon="3.29301">
        <ele>180.370499</ele>
        <time>2022-02-24T13:57:41.000Z</time>
      </trkpt>
      <trkpt lat="43.55026" lon="3.29302">
        <ele>180.488894</ele>
        <time>2022-02-24T13:57:42.000Z</time>
      </trkpt>
      <trkpt lat="43.5503" lon="3.29303">
        <ele>180.61008</ele>
        <time>2022-02-24T13:57:43.000Z</time>
      </trkpt>
      <trkpt lat="43.55033" lon="3.29303">
        <ele>180.727841</ele>
        <time>2022-02-24T13:57:44.000Z</time>
      </trkpt>
      <trkpt lat="43.55036" lon="3.29304">
        <ele>180.835652</ele>
        <time>2022-02-24T13:57:45.000Z</time>
      </trkpt>
      <trkpt lat="43.55039" lon="3.29304">
        <ele>180.926442</ele>
        <time>2022-02-24T13:57:46.000Z</time>
      </trkpt>
      <trkpt lat="43.55042" lon="3.29305">
        <ele>181.034253</ele>
        <time>2022-02-24T13:57:47.000Z</time>
      </trkpt>
      <trkpt lat="43.55045" lon="3.29305">
        <ele>181.151776</ele>
        <time>2022-02-24T13:57:49.000Z</time>
      </trkpt>
      <trkpt lat="43.55049" lon="3.29305">
        <ele>181.26898</ele>
        <time>2022-02-24T13:57:50.000Z</time>
      </trkpt>
      <trkpt lat="43.55052" lon="3.29305">
        <ele>181.389522</ele>
        <time>2022-02-24T13:57:51.000Z</time>
      </trkpt>
      <trkpt lat="43.55055" lon="3.29305">
        <ele>181.50539</ele>
        <time>2022-02-24T13:57:52.000Z</time>
      </trkpt>
      <trkpt lat="43.55058" lon="3.29305">
        <ele>181.666445</ele>
        <time>2022-02-24T13:57:53.000Z</time>
      </trkpt>
      <trkpt lat="43.55061" lon="3.29305">
        <ele>181.801697</ele>
        <time>2022-02-24T13:57:54.000Z</time>
      </trkpt>
      <trkpt lat="43.55064" lon="3.29305">
        <ele>181.962709</ele>
        <time>2022-02-24T13:57:56.000Z</time>
      </trkpt>
      <trkpt lat="43.55067" lon="3.29305">
        <ele>182.139463</ele>
        <time>2022-02-24T13:57:57.000Z</time>
      </trkpt>
      <trkpt lat="43.55071" lon="3.29306">
        <ele>182.300651</ele>
        <time>2022-02-24T13:57:58.000Z</time>
      </trkpt>
      <trkpt lat="43.55074" lon="3.29306">
        <ele>182.458681</ele>
        <time>2022-02-24T13:57:59.000Z</time>
      </trkpt>
      <trkpt lat="43.55077" lon="3.29307">
        <ele>182.622485</ele>
        <time>2022-02-24T13:58:00.000Z</time>
      </trkpt>
      <trkpt lat="43.5508" lon="3.29308">
        <ele>182.781943</ele>
        <time>2022-02-24T13:58:01.000Z</time>
      </trkpt>
      <trkpt lat="43.55083" lon="3.29309">
        <ele>182.946481</ele>
        <time>2022-02-24T13:58:02.000Z</time>
      </trkpt>
      <trkpt lat="43.55086" lon="3.2931">
        <ele>183.106781</ele>
        <time>2022-02-24T13:58:03.000Z</time>
      </trkpt>
      <trkpt lat="43.55088" lon="3.29311">
        <ele>183.257958</ele>
        <time>2022-02-24T13:58:04.000Z</time>
      </trkpt>
      <trkpt lat="43.55091" lon="3.29313">
        <ele>183.412105</ele>
        <time>2022-02-24T13:58:05.000Z</time>
      </trkpt>
      <trkpt lat="43.55094" lon="3.29314">
        <ele>183.560635</ele>
        <time>2022-02-24T13:58:07.000Z</time>
      </trkpt>
      <trkpt lat="43.55099" lon="3.29316">
        <ele>183.841644</ele>
        <time>2022-02-24T13:58:09.000Z</time>
      </trkpt>
      <trkpt lat="43.55105" lon="3.29316">
        <ele>184.158496</ele>
        <time>2022-02-24T13:58:11.000Z</time>
      </trkpt>
      <trkpt lat="43.55108" lon="3.29315">
        <ele>184.320604</ele>
        <time>2022-02-24T13:58:12.000Z</time>
      </trkpt>
      <trkpt lat="43.55111" lon="3.29315">
        <ele>184.478635</ele>
        <time>2022-02-24T13:58:13.000Z</time>
      </trkpt>
      <trkpt lat="43.55114" lon="3.29314">
        <ele>184.641788</ele>
        <time>2022-02-24T13:58:14.000Z</time>
      </trkpt>
      <trkpt lat="43.55117" lon="3.29313">
        <ele>184.799234</ele>
        <time>2022-02-24T13:58:15.000Z</time>
      </trkpt>
      <trkpt lat="43.55121" lon="3.29313">
        <ele>184.961823</ele>
        <time>2022-02-24T13:58:16.000Z</time>
      </trkpt>
      <trkpt lat="43.55124" lon="3.29312">
        <ele>185.143206</ele>
        <time>2022-02-24T13:58:17.000Z</time>
      </trkpt>
      <trkpt lat="43.55128" lon="3.29311">
        <ele>185.343462</ele>
        <time>2022-02-24T13:58:19.000Z</time>
      </trkpt>
      <trkpt lat="43.55132" lon="3.2931">
        <ele>185.563192</ele>
        <time>2022-02-24T13:58:21.000Z</time>
      </trkpt>
      <trkpt lat="43.55136" lon="3.2931">
        <ele>185.781856</ele>
        <time>2022-02-24T13:58:22.000Z</time>
      </trkpt>
      <trkpt lat="43.5514" lon="3.29309">
        <ele>185.979548</ele>
        <time>2022-02-24T13:58:23.000Z</time>
      </trkpt>
      <trkpt lat="43.55144" lon="3.29309">
        <ele>186.176918</ele>
        <time>2022-02-24T13:58:24.000Z</time>
      </trkpt>
      <trkpt lat="43.55147" lon="3.2931">
        <ele>186.359328</ele>
        <time>2022-02-24T13:58:26.000Z</time>
      </trkpt>
      <trkpt lat="43.55153" lon="3.29312">
        <ele>186.643745</ele>
        <time>2022-02-24T13:58:28.000Z</time>
      </trkpt>
      <trkpt lat="43.55155" lon="3.29313">
        <ele>186.797892</ele>
        <time>2022-02-24T13:58:29.000Z</time>
      </trkpt>
      <trkpt lat="43.55158" lon="3.29315">
        <ele>186.970945</ele>
        <time>2022-02-24T13:58:31.000Z</time>
      </trkpt>
      <trkpt lat="43.55161" lon="3.29317">
        <ele>187.130112</ele>
        <time>2022-02-24T13:58:32.000Z</time>
      </trkpt>
      <trkpt lat="43.55164" lon="3.29319">
        <ele>187.289279</ele>
        <time>2022-02-24T13:58:33.000Z</time>
      </trkpt>
      <trkpt lat="43.55166" lon="3.29321">
        <ele>187.44389</ele>
        <time>2022-02-24T13:58:34.000Z</time>
      </trkpt>
      <trkpt lat="43.55169" lon="3.29323">
        <ele>187.585095</ele>
        <time>2022-02-24T13:58:35.000Z</time>
      </trkpt>
      <trkpt lat="43.55171" lon="3.29325">
        <ele>187.724329</ele>
        <time>2022-02-24T13:58:36.000Z</time>
      </trkpt>
      <trkpt lat="43.55173" lon="3.29327">
        <ele>187.861667</ele>
        <time>2022-02-24T13:58:37.000Z</time>
      </trkpt>
      <trkpt lat="43.55175" lon="3.29329">
        <ele>187.997188</ele>
        <time>2022-02-24T13:58:38.000Z</time>
      </trkpt>
      <trkpt lat="43.55177" lon="3.2933">
        <ele>188.116895</ele>
        <time>2022-02-24T13:58:39.000Z</time>
      </trkpt>
      <trkpt lat="43.55179" lon="3.29332">
        <ele>188.236602</ele>
        <time>2022-02-24T13:58:41.000Z</time>
      </trkpt>
      <trkpt lat="43.55181" lon="3.29334">
        <ele>188.337423</ele>
        <time>2022-02-24T13:58:42.000Z</time>
      </trkpt>
      <trkpt lat="43.55183" lon="3.29335">
        <ele>188.449298</ele>
        <time>2022-02-24T13:58:43.000Z</time>
      </trkpt>
      <trkpt lat="43.55184" lon="3.29337">
        <ele>188.543885</ele>
        <time>2022-02-24T13:58:44.000Z</time>
      </trkpt>
      <trkpt lat="43.55186" lon="3.29338">
        <ele>188.652416</ele>
        <time>2022-02-24T13:58:45.000Z</time>
      </trkpt>
      <trkpt lat="43.55188" lon="3.29339">
        <ele>188.781511</ele>
        <time>2022-02-24T13:58:46.000Z</time>
      </trkpt>
      <trkpt lat="43.55191" lon="3.29341">
        <ele>188.912477</ele>
        <time>2022-02-24T13:58:47.000Z</time>
      </trkpt>
      <trkpt lat="43.55193" lon="3.29343">
        <ele>189.071644</ele>
        <time>2022-02-24T13:58:48.000Z</time>
      </trkpt>
      <trkpt lat="43.55196" lon="3.29345">
        <ele>189.252704</ele>
        <time>2022-02-24T13:58:49.000Z</time>
      </trkpt>
      <trkpt lat="43.55199" lon="3.29347">
        <ele>189.427427</ele>
        <time>2022-02-24T13:58:50.000Z</time>
      </trkpt>
      <trkpt lat="43.55203" lon="3.29349">
        <ele>189.625659</ele>
        <time>2022-02-24T13:58:51.000Z</time>
      </trkpt>
      <trkpt lat="43.55206" lon="3.29351">
        <ele>189.819138</ele>
        <time>2022-02-24T13:58:52.000Z</time>
      </trkpt>
      <trkpt lat="43.55208" lon="3.29353">
        <ele>189.931012</ele>
        <time>2022-02-24T13:58:54.000Z</time>
      </trkpt>
      <trkpt lat="43.55217" lon="3.2936">
        <ele>190.474883</ele>
        <time>2022-02-24T13:58:55.000Z</time>
      </trkpt>
      <trkpt lat="43.5522" lon="3.29362">
        <ele>190.653138</ele>
        <time>2022-02-24T13:58:56.000Z</time>
      </trkpt>
      <trkpt lat="43.55222" lon="3.29364">
        <ele>190.772845</ele>
        <time>2022-02-24T13:58:57.000Z</time>
      </trkpt>
      <trkpt lat="43.55224" lon="3.29366">
        <ele>190.683101</ele>
        <time>2022-02-24T13:58:58.000Z</time>
      </trkpt>
      <trkpt lat="43.55226" lon="3.29367">
        <ele>190.50319</ele>
        <time>2022-02-24T13:58:59.000Z</time>
      </trkpt>
      <trkpt lat="43.55228" lon="3.29369">
        <ele>190.326419</ele>
        <time>2022-02-24T13:59:00.000Z</time>
      </trkpt>
      <trkpt lat="43.5523" lon="3.29371">
        <ele>190.117159</ele>
        <time>2022-02-24T13:59:02.000Z</time>
      </trkpt>
      <trkpt lat="43.55241" lon="3.29381">
        <ele>189.117755</ele>
        <time>2022-02-24T13:59:44.000Z</time>
      </trkpt>
      <trkpt lat="43.55242" lon="3.29381">
        <ele>189.031887</ele>
        <time>2022-02-24T13:59:46.000Z</time>
      </trkpt>
      <trkpt lat="43.55248" lon="3.29376">
        <ele>188.509666</ele>
        <time>2022-02-24T13:59:48.000Z</time>
      </trkpt>
      <trkpt lat="43.55256" lon="3.29367">
        <ele>187.693078</ele>
        <time>2022-02-24T13:59:50.000Z</time>
      </trkpt>
      <trkpt lat="43.55258" lon="3.29365">
        <ele>187.486667</ele>
        <time>2022-02-24T13:59:51.000Z</time>
      </trkpt>
      <trkpt lat="43.5526" lon="3.29364">
        <ele>187.333154</ele>
        <time>2022-02-24T13:59:52.000Z</time>
      </trkpt>
      <trkpt lat="43.55263" lon="3.29364">
        <ele>187.097879</ele>
        <time>2022-02-24T13:59:53.000Z</time>
      </trkpt>
      <trkpt lat="43.55265" lon="3.29363">
        <ele>186.912721</ele>
        <time>2022-02-24T13:59:54.000Z</time>
      </trkpt>
      <trkpt lat="43.55268" lon="3.29361">
        <ele>186.69743</ele>
        <time>2022-02-24T13:59:56.000Z</time>
      </trkpt>
      <trkpt lat="43.55278" lon="3.2935">
        <ele>185.672478</ele>
        <time>2022-02-24T13:59:57.000Z</time>
      </trkpt>
      <trkpt lat="43.5528" lon="3.29347">
        <ele>185.420529</ele>
        <time>2022-02-24T13:59:59.000Z</time>
      </trkpt>
      <trkpt lat="43.55285" lon="3.29342">
        <ele>184.994813</ele>
        <time>2022-02-24T14:00:01.000Z</time>
      </trkpt>
      <trkpt lat="43.55287" lon="3.2934">
        <ele>184.752869</ele>
        <time>2022-02-24T14:00:02.000Z</time>
      </trkpt>
      <trkpt lat="43.5529" lon="3.29338">
        <ele>184.492783</ele>
        <time>2022-02-24T14:00:03.000Z</time>
      </trkpt>
      <trkpt lat="43.55293" lon="3.29336">
        <ele>184.263401</ele>
        <time>2022-02-24T14:00:04.000Z</time>
      </trkpt>
      <trkpt lat="43.55296" lon="3.29335">
        <ele>184.04364</ele>
        <time>2022-02-24T14:00:05.000Z</time>
      </trkpt>
      <trkpt lat="43.55298" lon="3.29335">
        <ele>183.867397</ele>
        <time>2022-02-24T14:00:06.000Z</time>
      </trkpt>
      <trkpt lat="43.55301" lon="3.29334">
        <ele>183.655949</ele>
        <time>2022-02-24T14:00:07.000Z</time>
      </trkpt>
      <trkpt lat="43.55303" lon="3.29334">
        <ele>183.476408</ele>
        <time>2022-02-24T14:00:08.000Z</time>
      </trkpt>
      <trkpt lat="43.55306" lon="3.29335">
        <ele>183.262926</ele>
        <time>2022-02-24T14:00:10.000Z</time>
      </trkpt>
      <trkpt lat="43.55308" lon="3.29336">
        <ele>183.052229</ele>
        <time>2022-02-24T14:00:11.000Z</time>
      </trkpt>
      <trkpt lat="43.55311" lon="3.29337">
        <ele>182.79579</ele>
        <time>2022-02-24T14:00:12.000Z</time>
      </trkpt>
      <trkpt lat="43.55315" lon="3.2934">
        <ele>182.5002</ele>
        <time>2022-02-24T14:00:14.000Z</time>
      </trkpt>
      <trkpt lat="43.55338" lon="3.29351">
        <ele>180.537197</ele>
        <time>2022-02-24T14:00:16.000Z</time>
      </trkpt>
      <trkpt lat="43.55346" lon="3.29354">
        <ele>179.960289</ele>
        <time>2022-02-24T14:00:18.000Z</time>
      </trkpt>
      <trkpt lat="43.5537" lon="3.29359">
        <ele>178.034699</ele>
        <time>2022-02-24T14:00:20.000Z</time>
      </trkpt>
      <trkpt lat="43.55372" lon="3.29358">
        <ele>177.885951</ele>
        <time>2022-02-24T14:00:22.000Z</time>
      </trkpt>
      <trkpt lat="43.55383" lon="3.29358">
        <ele>176.988226</ele>
        <time>2022-02-24T14:00:24.000Z</time>
      </trkpt>
      <trkpt lat="43.55384" lon="3.29363">
        <ele>176.728396</ele>
        <time>2022-02-24T14:00:26.000Z</time>
      </trkpt>
      <trkpt lat="43.55383" lon="3.29367">
        <ele>176.363078</ele>
        <time>2022-02-24T14:00:28.000Z</time>
      </trkpt>
      <trkpt lat="43.55383" lon="3.29368">
        <ele>176.24852</ele>
        <time>2022-02-24T14:00:30.000Z</time>
      </trkpt>
      <trkpt lat="43.55382" lon="3.29371">
        <ele>176.024983</ele>
        <time>2022-02-24T14:00:32.000Z</time>
      </trkpt>
      <trkpt lat="43.55381" lon="3.29372">
        <ele>175.834861</ele>
        <time>2022-02-24T14:00:33.000Z</time>
      </trkpt>
      <trkpt lat="43.55379" lon="3.29373">
        <ele>175.600988</ele>
        <time>2022-02-24T14:00:34.000Z</time>
      </trkpt>
      <trkpt lat="43.55376" lon="3.29374">
        <ele>175.316259</ele>
        <time>2022-02-24T14:00:35.000Z</time>
      </trkpt>
      <trkpt lat="43.55374" lon="3.29376">
        <ele>175.00758</ele>
        <time>2022-02-24T14:00:36.000Z</time>
      </trkpt>
      <trkpt lat="43.55371" lon="3.2938">
        <ele>174.578171</ele>
        <time>2022-02-24T14:00:38.000Z</time>
      </trkpt>
      <trkpt lat="43.55368" lon="3.29383">
        <ele>174.134953</ele>
        <time>2022-02-24T14:00:39.000Z</time>
      </trkpt>
      <trkpt lat="43.55366" lon="3.29387">
        <ele>173.739554</ele>
        <time>2022-02-24T14:00:40.000Z</time>
      </trkpt>
      <trkpt lat="43.55364" lon="3.29391">
        <ele>173.319206</ele>
        <time>2022-02-24T14:00:42.000Z</time>
      </trkpt>
      <trkpt lat="43.55361" lon="3.29396">
        <ele>172.872549</ele>
        <time>2022-02-24T14:00:43.000Z</time>
      </trkpt>
      <trkpt lat="43.55359" lon="3.294">
        <ele>172.470947</ele>
        <time>2022-02-24T14:00:44.000Z</time>
      </trkpt>
      <trkpt lat="43.55357" lon="3.29404">
        <ele>172.02429</ele>
        <time>2022-02-24T14:00:45.000Z</time>
      </trkpt>
      <trkpt lat="43.55354" lon="3.29409">
        <ele>171.518514</ele>
        <time>2022-02-24T14:00:46.000Z</time>
      </trkpt>
      <trkpt lat="43.55352" lon="3.29414">
        <ele>171.012738</ele>
        <time>2022-02-24T14:00:47.000Z</time>
      </trkpt>
      <trkpt lat="43.55349" lon="3.29419">
        <ele>170.5255</ele>
        <time>2022-02-24T14:00:48.000Z</time>
      </trkpt>
      <trkpt lat="43.55347" lon="3.29425">
        <ele>169.986041</ele>
        <time>2022-02-24T14:00:49.000Z</time>
      </trkpt>
      <trkpt lat="43.55344" lon="3.2943">
        <ele>169.460551</ele>
        <time>2022-02-24T14:00:50.000Z</time>
      </trkpt>
      <trkpt lat="43.55342" lon="3.29435">
        <ele>168.966407</ele>
        <time>2022-02-24T14:00:51.000Z</time>
      </trkpt>
      <trkpt lat="43.55339" lon="3.29441">
        <ele>168.472263</ele>
        <time>2022-02-24T14:00:52.000Z</time>
      </trkpt>
      <trkpt lat="43.55338" lon="3.29446">
        <ele>168.007121</ele>
        <time>2022-02-24T14:00:54.000Z</time>
      </trkpt>
      <trkpt lat="43.5533" lon="3.29467">
        <ele>166.046731</ele>
        <time>2022-02-24T14:00:56.000Z</time>
      </trkpt>
      <trkpt lat="43.55327" lon="3.29476">
        <ele>165.27159</ele>
        <time>2022-02-24T14:00:57.000Z</time>
      </trkpt>
      <trkpt lat="43.55324" lon="3.29487">
        <ele>164.348483</ele>
        <time>2022-02-24T14:00:59.000Z</time>
      </trkpt>
      <trkpt lat="43.55323" lon="3.29493">
        <ele>163.867017</ele>
        <time>2022-02-24T14:01:00.000Z</time>
      </trkpt>
      <trkpt lat="43.55322" lon="3.29499">
        <ele>163.317685</ele>
        <time>2022-02-24T14:01:02.000Z</time>
      </trkpt>
      <trkpt lat="43.5532" lon="3.29506">
        <ele>162.753171</ele>
        <time>2022-02-24T14:01:03.000Z</time>
      </trkpt>
      <trkpt lat="43.55319" lon="3.29512">
        <ele>162.230665</ele>
        <time>2022-02-24T14:01:04.000Z</time>
      </trkpt>
      <trkpt lat="43.55317" lon="3.29518">
        <ele>161.684641</ele>
        <time>2022-02-24T14:01:06.000Z</time>
      </trkpt>
      <trkpt lat="43.55315" lon="3.29524">
        <ele>161.154447</ele>
        <time>2022-02-24T14:01:07.000Z</time>
      </trkpt>
      <trkpt lat="43.55314" lon="3.29531">
        <ele>160.616552</ele>
        <time>2022-02-24T14:01:08.000Z</time>
      </trkpt>
      <trkpt lat="43.55313" lon="3.29537">
        <ele>160.064604</ele>
        <time>2022-02-24T14:01:09.000Z</time>
      </trkpt>
      <trkpt lat="43.55312" lon="3.29544">
        <ele>159.507363</ele>
        <time>2022-02-24T14:01:10.000Z</time>
      </trkpt>
      <trkpt lat="43.5531" lon="3.29551">
        <ele>158.915994</ele>
        <time>2022-02-24T14:01:12.000Z</time>
      </trkpt>
      <trkpt lat="43.55309" lon="3.29558">
        <ele>158.34292</ele>
        <time>2022-02-24T14:01:14.000Z</time>
      </trkpt>
      <trkpt lat="43.55308" lon="3.29564">
        <ele>157.838038</ele>
        <time>2022-02-24T14:01:15.000Z</time>
      </trkpt>
      <trkpt lat="43.55307" lon="3.29569">
        <ele>157.393066</ele>
        <time>2022-02-24T14:01:16.000Z</time>
      </trkpt>
      <trkpt lat="43.55307" lon="3.29574">
        <ele>156.96187</ele>
        <time>2022-02-24T14:01:17.000Z</time>
      </trkpt>
      <trkpt lat="43.55306" lon="3.29579">
        <ele>156.582152</ele>
        <time>2022-02-24T14:01:18.000Z</time>
      </trkpt>
      <trkpt lat="43.55306" lon="3.29584">
        <ele>156.281615</ele>
        <time>2022-02-24T14:01:19.000Z</time>
      </trkpt>
      <trkpt lat="43.55305" lon="3.29588">
        <ele>155.998342</ele>
        <time>2022-02-24T14:01:20.000Z</time>
      </trkpt>
      <trkpt lat="43.55304" lon="3.29591">
        <ele>155.747129</ele>
        <time>2022-02-24T14:01:21.000Z</time>
      </trkpt>
      <trkpt lat="43.55303" lon="3.29595">
        <ele>155.524127</ele>
        <time>2022-02-24T14:01:22.000Z</time>
      </trkpt>
      <trkpt lat="43.55302" lon="3.29598">
        <ele>155.283752</ele>
        <time>2022-02-24T14:01:23.000Z</time>
      </trkpt>
      <trkpt lat="43.553" lon="3.29601">
        <ele>154.997318</ele>
        <time>2022-02-24T14:01:25.000Z</time>
      </trkpt>
      <trkpt lat="43.55298" lon="3.29604">
        <ele>154.731518</ele>
        <time>2022-02-24T14:01:26.000Z</time>
      </trkpt>
      <trkpt lat="43.55296" lon="3.29607">
        <ele>154.453534</ele>
        <time>2022-02-24T14:01:27.000Z</time>
      </trkpt>
      <trkpt lat="43.55294" lon="3.2961">
        <ele>154.202458</ele>
        <time>2022-02-24T14:01:28.000Z</time>
      </trkpt>
      <trkpt lat="43.55292" lon="3.29612">
        <ele>153.92875</ele>
        <time>2022-02-24T14:01:29.000Z</time>
      </trkpt>
      <trkpt lat="43.5529" lon="3.29615">
        <ele>153.687069</ele>
        <time>2022-02-24T14:01:30.000Z</time>
      </trkpt>
      <trkpt lat="43.55288" lon="3.29618">
        <ele>153.386394</ele>
        <time>2022-02-24T14:01:31.000Z</time>
      </trkpt>
      <trkpt lat="43.55285" lon="3.29621">
        <ele>153.061193</ele>
        <time>2022-02-24T14:01:32.000Z</time>
      </trkpt>
      <trkpt lat="43.55283" lon="3.29625">
        <ele>152.750901</ele>
        <time>2022-02-24T14:01:33.000Z</time>
      </trkpt>
      <trkpt lat="43.5528" lon="3.2963">
        <ele>152.306823</ele>
        <time>2022-02-24T14:01:34.000Z</time>
      </trkpt>
      <trkpt lat="43.55277" lon="3.29635">
        <ele>151.911725</ele>
        <time>2022-02-24T14:01:36.000Z</time>
      </trkpt>
      <trkpt lat="43.55265" lon="3.29662">
        <ele>149.808228</ele>
        <time>2022-02-24T14:01:38.000Z</time>
      </trkpt>
      <trkpt lat="43.55261" lon="3.29671">
        <ele>149.073489</ele>
        <time>2022-02-24T14:01:39.000Z</time>
      </trkpt>
      <trkpt lat="43.55257" lon="3.29675">
        <ele>148.575688</ele>
        <time>2022-02-24T14:01:40.000Z</time>
      </trkpt>
      <trkpt lat="43.55254" lon="3.29678">
        <ele>148.287726</ele>
        <time>2022-02-24T14:01:42.000Z</time>
      </trkpt>
      <trkpt lat="43.55244" lon="3.29687">
        <ele>147.161848</ele>
        <time>2022-02-24T14:01:43.000Z</time>
      </trkpt>
      <trkpt lat="43.5524" lon="3.29691">
        <ele>146.734854</ele>
        <time>2022-02-24T14:01:44.000Z</time>
      </trkpt>
      <trkpt lat="43.55238" lon="3.29695">
        <ele>146.381322</ele>
        <time>2022-02-24T14:01:45.000Z</time>
      </trkpt>
      <trkpt lat="43.55233" lon="3.29698">
        <ele>145.948985</ele>
        <time>2022-02-24T14:01:46.000Z</time>
      </trkpt>
      <trkpt lat="43.55227" lon="3.29702">
        <ele>145.315351</ele>
        <time>2022-02-24T14:01:48.000Z</time>
      </trkpt>
      <trkpt lat="43.55222" lon="3.29705">
        <ele>144.807975</ele>
        <time>2022-02-24T14:01:50.000Z</time>
      </trkpt>
      <trkpt lat="43.55196" lon="3.29722">
        <ele>142.142871</ele>
        <time>2022-02-24T14:01:52.000Z</time>
      </trkpt>
      <trkpt lat="43.55188" lon="3.29728">
        <ele>141.349745</ele>
        <time>2022-02-24T14:01:54.000Z</time>
      </trkpt>
      <trkpt lat="43.55187" lon="3.2973">
        <ele>141.137583</ele>
        <time>2022-02-24T14:01:56.000Z</time>
      </trkpt>
      <trkpt lat="43.55174" lon="3.29741">
        <ele>139.98689</ele>
        <time>2022-02-24T14:01:58.000Z</time>
      </trkpt>
      <trkpt lat="43.55172" lon="3.29743">
        <ele>139.92292</ele>
        <time>2022-02-24T14:02:00.000Z</time>
      </trkpt>
      <trkpt lat="43.55172" lon="3.29743">
        <ele>139.909631</ele>
        <time>2022-02-24T14:02:02.000Z</time>
      </trkpt>
      <trkpt lat="43.55168" lon="3.29746">
        <ele>139.788999</ele>
        <time>2022-02-24T14:02:03.000Z</time>
      </trkpt>
      <trkpt lat="43.55167" lon="3.29746">
        <ele>139.744881</ele>
        <time>2022-02-24T14:02:04.000Z</time>
      </trkpt>
      <trkpt lat="43.55166" lon="3.29747">
        <ele>139.721601</ele>
        <time>2022-02-24T14:02:05.000Z</time>
      </trkpt>
      <trkpt lat="43.55165" lon="3.29748">
        <ele>139.692442</ele>
        <time>2022-02-24T14:02:06.000Z</time>
      </trkpt>
      <trkpt lat="43.55164" lon="3.29749">
        <ele>139.64805</ele>
        <time>2022-02-24T14:02:07.000Z</time>
      </trkpt>
      <trkpt lat="43.55162" lon="3.29751">
        <ele>139.581763</ele>
        <time>2022-02-24T14:02:08.000Z</time>
      </trkpt>
      <trkpt lat="43.5516" lon="3.29754">
        <ele>139.496456</ele>
        <time>2022-02-24T14:02:10.000Z</time>
      </trkpt>
      <trkpt lat="43.55157" lon="3.29757">
        <ele>139.402012</ele>
        <time>2022-02-24T14:02:11.000Z</time>
      </trkpt>
      <trkpt lat="43.55154" lon="3.29761">
        <ele>139.282114</ele>
        <time>2022-02-24T14:02:12.000Z</time>
      </trkpt>
      <trkpt lat="43.5515" lon="3.29766">
        <ele>139.117123</ele>
        <time>2022-02-24T14:02:14.000Z</time>
      </trkpt>
      <trkpt lat="43.55146" lon="3.29771">
        <ele>138.982607</ele>
        <time>2022-02-24T14:02:15.000Z</time>
      </trkpt>
      <trkpt lat="43.55144" lon="3.29774">
        <ele>138.894592</ele>
        <time>2022-02-24T14:02:16.000Z</time>
      </trkpt>
      <trkpt lat="43.55142" lon="3.29776">
        <ele>138.824523</ele>
        <time>2022-02-24T14:02:17.000Z</time>
      </trkpt>
      <trkpt lat="43.5514" lon="3.29778">
        <ele>138.753122</ele>
        <time>2022-02-24T14:02:18.000Z</time>
      </trkpt>
      <trkpt lat="43.55138" lon="3.29781">
        <ele>138.655193</ele>
        <time>2022-02-24T14:02:20.000Z</time>
      </trkpt>
      <trkpt lat="43.55136" lon="3.29783">
        <ele>138.585125</ele>
        <time>2022-02-24T14:02:22.000Z</time>
      </trkpt>
      <trkpt lat="43.55114" lon="3.29825">
        <ele>137.524155</ele>
        <time>2022-02-24T14:03:16.000Z</time>
      </trkpt>
      <trkpt lat="43.55114" lon="3.29826">
        <ele>137.509823</ele>
        <time>2022-02-24T14:03:17.000Z</time>
      </trkpt>
      <trkpt lat="43.55114" lon="3.29826">
        <ele>137.499586</ele>
        <time>2022-02-24T14:03:18.000Z</time>
      </trkpt>
      <trkpt lat="43.55114" lon="3.29828">
        <ele>137.466828</ele>
        <time>2022-02-24T14:03:19.000Z</time>
      </trkpt>
      <trkpt lat="43.55114" lon="3.29829">
        <ele>137.438165</ele>
        <time>2022-02-24T14:03:21.000Z</time>
      </trkpt>
      <trkpt lat="43.55114" lon="3.29831">
        <ele>137.409502</ele>
        <time>2022-02-24T14:03:22.000Z</time>
      </trkpt>
      <trkpt lat="43.55116" lon="3.29839">
        <ele>137.225103</ele>
        <time>2022-02-24T14:04:00.000Z</time>
      </trkpt>
      <trkpt lat="43.55117" lon="3.29839">
        <ele>137.192968</ele>
        <time>2022-02-24T14:04:02.000Z</time>
      </trkpt>
      <trkpt lat="43.55119" lon="3.29839">
        <ele>137.149376</ele>
        <time>2022-02-24T14:04:04.000Z</time>
      </trkpt>
      <trkpt lat="43.5512" lon="3.29839">
        <ele>137.114502</ele>
        <time>2022-02-24T14:04:05.000Z</time>
      </trkpt>
      <trkpt lat="43.55121" lon="3.29838">
        <ele>137.080282</ele>
        <time>2022-02-24T14:04:06.000Z</time>
      </trkpt>
      <trkpt lat="43.55122" lon="3.29837">
        <ele>137.039584</ele>
        <time>2022-02-24T14:04:08.000Z</time>
      </trkpt>
      <trkpt lat="43.55124" lon="3.29836">
        <ele>137.002372</ele>
        <time>2022-02-24T14:04:09.000Z</time>
      </trkpt>
      <trkpt lat="43.55125" lon="3.29835">
        <ele>136.953391</ele>
        <time>2022-02-24T14:04:10.000Z</time>
      </trkpt>
      <trkpt lat="43.55127" lon="3.29833">
        <ele>136.888284</ele>
        <time>2022-02-24T14:04:11.000Z</time>
      </trkpt>
      <trkpt lat="43.5513" lon="3.2983">
        <ele>136.794086</ele>
        <time>2022-02-24T14:04:13.000Z</time>
      </trkpt>
      <trkpt lat="43.55133" lon="3.29827">
        <ele>136.689419</ele>
        <time>2022-02-24T14:04:14.000Z</time>
      </trkpt>
      <trkpt lat="43.55137" lon="3.29824">
        <ele>136.551861</ele>
        <time>2022-02-24T14:04:16.000Z</time>
      </trkpt>
      <trkpt lat="43.55151" lon="3.29812">
        <ele>136.099917</ele>
        <time>2022-02-24T14:04:18.000Z</time>
      </trkpt>
      <trkpt lat="43.55167" lon="3.29801">
        <ele>135.576476</ele>
        <time>2022-02-24T14:04:20.000Z</time>
      </trkpt>
      <trkpt lat="43.55173" lon="3.29798">
        <ele>135.396123</ele>
        <time>2022-02-24T14:04:22.000Z</time>
      </trkpt>
      <trkpt lat="43.55177" lon="3.29796">
        <ele>135.28389</ele>
        <time>2022-02-24T14:04:24.000Z</time>
      </trkpt>
      <trkpt lat="43.55188" lon="3.2979">
        <ele>135.015557</ele>
        <time>2022-02-24T14:04:26.000Z</time>
      </trkpt>
      <trkpt lat="43.55194" lon="3.29786">
        <ele>135.059146</ele>
        <time>2022-02-24T14:04:28.000Z</time>
      </trkpt>
      <trkpt lat="43.55203" lon="3.29781">
        <ele>135.126668</ele>
        <time>2022-02-24T14:04:30.000Z</time>
      </trkpt>
      <trkpt lat="43.55209" lon="3.29778">
        <ele>135.170488</ele>
        <time>2022-02-24T14:04:32.000Z</time>
      </trkpt>
      <trkpt lat="43.55213" lon="3.29777">
        <ele>135.195621</ele>
        <time>2022-02-24T14:04:33.000Z</time>
      </trkpt>
      <trkpt lat="43.55218" lon="3.29774">
        <ele>135.231772</ele>
        <time>2022-02-24T14:04:36.000Z</time>
      </trkpt>
      <trkpt lat="43.55235" lon="3.29765">
        <ele>135.354261</ele>
        <time>2022-02-24T14:04:38.000Z</time>
      </trkpt>
      <trkpt lat="43.55241" lon="3.29762">
        <ele>135.398403</ele>
        <time>2022-02-24T14:04:40.000Z</time>
      </trkpt>
      <trkpt lat="43.55251" lon="3.29757">
        <ele>135.474796</ele>
        <time>2022-02-24T14:04:42.000Z</time>
      </trkpt>
      <trkpt lat="43.55261" lon="3.29754">
        <ele>135.539717</ele>
        <time>2022-02-24T14:04:44.000Z</time>
      </trkpt>
      <trkpt lat="43.55274" lon="3.29751">
        <ele>135.631917</ele>
        <time>2022-02-24T14:04:46.000Z</time>
      </trkpt>
      <trkpt lat="43.55279" lon="3.2975">
        <ele>135.666174</ele>
        <time>2022-02-24T14:04:48.000Z</time>
      </trkpt>
      <trkpt lat="43.5528" lon="3.2975">
        <ele>135.673688</ele>
        <time>2022-02-24T14:04:50.000Z</time>
      </trkpt>
      <trkpt lat="43.55289" lon="3.29749">
        <ele>135.733745</ele>
        <time>2022-02-24T14:04:52.000Z</time>
      </trkpt>
      <trkpt lat="43.55303" lon="3.29749">
        <ele>135.829861</ele>
        <time>2022-02-24T14:04:54.000Z</time>
      </trkpt>
      <trkpt lat="43.55304" lon="3.29749">
        <ele>135.837375</ele>
        <time>2022-02-24T14:04:56.000Z</time>
      </trkpt>
      <trkpt lat="43.55317" lon="3.2975">
        <ele>135.926125</ele>
        <time>2022-02-24T14:04:58.000Z</time>
      </trkpt>
      <trkpt lat="43.55322" lon="3.2975">
        <ele>135.962937</ele>
        <time>2022-02-24T14:05:00.000Z</time>
      </trkpt>
      <trkpt lat="43.55323" lon="3.2975">
        <ele>135.970435</ele>
        <time>2022-02-24T14:05:02.000Z</time>
      </trkpt>
      <trkpt lat="43.55332" lon="3.2975">
        <ele>136.027796</ele>
        <time>2022-02-24T14:05:04.000Z</time>
      </trkpt>
      <trkpt lat="43.55345" lon="3.29748">
        <ele>136.11899</ele>
        <time>2022-02-24T14:05:06.000Z</time>
      </trkpt>
      <trkpt lat="43.55346" lon="3.29747">
        <ele>136.124641</ele>
        <time>2022-02-24T14:05:08.000Z</time>
      </trkpt>
      <trkpt lat="43.55354" lon="3.29743">
        <ele>136.180821</ele>
        <time>2022-02-24T14:05:10.000Z</time>
      </trkpt>
      <trkpt lat="43.5536" lon="3.29737">
        <ele>136.272238</ele>
        <time>2022-02-24T14:05:12.000Z</time>
      </trkpt>
      <trkpt lat="43.55371" lon="3.29724">
        <ele>136.950298</ele>
        <time>2022-02-24T14:05:14.000Z</time>
      </trkpt>
      <trkpt lat="43.55373" lon="3.29722">
        <ele>137.066185</ele>
        <time>2022-02-24T14:05:15.000Z</time>
      </trkpt>
      <trkpt lat="43.55374" lon="3.29722">
        <ele>137.118574</ele>
        <time>2022-02-24T14:05:16.000Z</time>
      </trkpt>
      <trkpt lat="43.55375" lon="3.29723">
        <ele>137.178208</ele>
        <time>2022-02-24T14:05:17.000Z</time>
      </trkpt>
      <trkpt lat="43.55377" lon="3.29723">
        <ele>137.267045</ele>
        <time>2022-02-24T14:05:18.000Z</time>
      </trkpt>
      <trkpt lat="43.5538" lon="3.29722">
        <ele>137.401808</ele>
        <time>2022-02-24T14:05:19.000Z</time>
      </trkpt>
      <trkpt lat="43.55383" lon="3.29719">
        <ele>137.553846</ele>
        <time>2022-02-24T14:05:20.000Z</time>
      </trkpt>
      <trkpt lat="43.55386" lon="3.29716">
        <ele>137.726957</ele>
        <time>2022-02-24T14:05:21.000Z</time>
      </trkpt>
      <trkpt lat="43.55389" lon="3.29713">
        <ele>137.92515</ele>
        <time>2022-02-24T14:05:23.000Z</time>
      </trkpt>
      <trkpt lat="43.55393" lon="3.29709">
        <ele>138.142448</ele>
        <time>2022-02-24T14:05:24.000Z</time>
      </trkpt>
      <trkpt lat="43.55396" lon="3.29705">
        <ele>138.346411</ele>
        <time>2022-02-24T14:05:25.000Z</time>
      </trkpt>
      <trkpt lat="43.55399" lon="3.29702">
        <ele>138.527797</ele>
        <time>2022-02-24T14:05:26.000Z</time>
      </trkpt>
      <trkpt lat="43.55403" lon="3.29698">
        <ele>138.728033</ele>
        <time>2022-02-24T14:05:27.000Z</time>
      </trkpt>
      <trkpt lat="43.55406" lon="3.29695">
        <ele>138.92999</ele>
        <time>2022-02-24T14:05:28.000Z</time>
      </trkpt>
      <trkpt lat="43.5541" lon="3.29691">
        <ele>139.168428</ele>
        <time>2022-02-24T14:05:30.000Z</time>
      </trkpt>
      <trkpt lat="43.55414" lon="3.29687">
        <ele>139.387696</ele>
        <time>2022-02-24T14:05:31.000Z</time>
      </trkpt>
      <trkpt lat="43.55418" lon="3.29683">
        <ele>139.592125</ele>
        <time>2022-02-24T14:05:32.000Z</time>
      </trkpt>
      <trkpt lat="43.55421" lon="3.29679">
        <ele>139.802316</ele>
        <time>2022-02-24T14:05:34.000Z</time>
      </trkpt>
      <trkpt lat="43.55425" lon="3.29676">
        <ele>140.000509</ele>
        <time>2022-02-24T14:05:35.000Z</time>
      </trkpt>
      <trkpt lat="43.55428" lon="3.29672">
        <ele>140.179765</ele>
        <time>2022-02-24T14:05:36.000Z</time>
      </trkpt>
      <trkpt lat="43.55431" lon="3.29669">
        <ele>140.362697</ele>
        <time>2022-02-24T14:05:37.000Z</time>
      </trkpt>
      <trkpt lat="43.55433" lon="3.29667">
        <ele>140.489717</ele>
        <time>2022-02-24T14:05:40.000Z</time>
      </trkpt>
      <trkpt lat="43.55443" lon="3.29658">
        <ele>141.066692</ele>
        <time>2022-02-24T14:05:41.000Z</time>
      </trkpt>
      <trkpt lat="43.55447" lon="3.29654">
        <ele>141.278296</ele>
        <time>2022-02-24T14:05:42.000Z</time>
      </trkpt>
      <trkpt lat="43.5545" lon="3.29652">
        <ele>141.430216</ele>
        <time>2022-02-24T14:05:43.000Z</time>
      </trkpt>
      <trkpt lat="43.55452" lon="3.29649">
        <ele>141.564945</ele>
        <time>2022-02-24T14:05:45.000Z</time>
      </trkpt>
      <trkpt lat="43.55454" lon="3.29647">
        <ele>141.702509</ele>
        <time>2022-02-24T14:05:46.000Z</time>
      </trkpt>
      <trkpt lat="43.55456" lon="3.29644">
        <ele>141.843044</ele>
        <time>2022-02-24T14:05:47.000Z</time>
      </trkpt>
      <trkpt lat="43.55458" lon="3.2964">
        <ele>141.999366</ele>
        <time>2022-02-24T14:05:48.000Z</time>
      </trkpt>
      <trkpt lat="43.5546" lon="3.29635">
        <ele>142.196553</ele>
        <time>2022-02-24T14:05:50.000Z</time>
      </trkpt>
      <trkpt lat="43.55462" lon="3.29629">
        <ele>142.420422</ele>
        <time>2022-02-24T14:05:51.000Z</time>
      </trkpt>
      <trkpt lat="43.55463" lon="3.29625">
        <ele>142.565287</ele>
        <time>2022-02-24T14:05:54.000Z</time>
      </trkpt>
      <trkpt lat="43.55468" lon="3.29605">
        <ele>143.291268</ele>
        <time>2022-02-24T14:05:56.000Z</time>
      </trkpt>
      <trkpt lat="43.55469" lon="3.296">
        <ele>143.450423</ele>
        <time>2022-02-24T14:05:58.000Z</time>
      </trkpt>
      <trkpt lat="43.5547" lon="3.29591">
        <ele>143.763612</ele>
        <time>2022-02-24T14:06:00.000Z</time>
      </trkpt>
      <trkpt lat="43.55471" lon="3.29579">
        <ele>144.153259</ele>
        <time>2022-02-24T14:06:02.000Z</time>
      </trkpt>
      <trkpt lat="43.5547" lon="3.29574">
        <ele>144.319766</ele>
        <time>2022-02-24T14:06:04.000Z</time>
      </trkpt>
      <trkpt lat="43.5547" lon="3.29572">
        <ele>144.406456</ele>
        <time>2022-02-24T14:06:06.000Z</time>
      </trkpt>
      <trkpt lat="43.55468" lon="3.29562">
        <ele>144.526475</ele>
        <time>2022-02-24T14:06:08.000Z</time>
      </trkpt>
      <trkpt lat="43.55468" lon="3.29559">
        <ele>144.414026</ele>
        <time>2022-02-24T14:06:09.000Z</time>
      </trkpt>
      <trkpt lat="43.55468" lon="3.29556">
        <ele>144.332813</ele>
        <time>2022-02-24T14:06:11.000Z</time>
      </trkpt>
      <trkpt lat="43.55469" lon="3.29554">
        <ele>144.262888</ele>
        <time>2022-02-24T14:06:12.000Z</time>
      </trkpt>
      <trkpt lat="43.55469" lon="3.29552">
        <ele>144.210021</ele>
        <time>2022-02-24T14:06:14.000Z</time>
      </trkpt>
      <trkpt lat="43.55472" lon="3.29548">
        <ele>144.022684</ele>
        <time>2022-02-24T14:06:16.000Z</time>
      </trkpt>
      <trkpt lat="43.55476" lon="3.29543">
        <ele>143.814776</ele>
        <time>2022-02-24T14:06:17.000Z</time>
      </trkpt>
      <trkpt lat="43.55477" lon="3.29543">
        <ele>143.746527</ele>
        <time>2022-02-24T14:06:18.000Z</time>
      </trkpt>
      <trkpt lat="43.55478" lon="3.29543">
        <ele>143.69443</ele>
        <time>2022-02-24T14:06:20.000Z</time>
      </trkpt>
      <trkpt lat="43.55483" lon="3.29542">
        <ele>143.495553</ele>
        <time>2022-02-24T14:06:22.000Z</time>
      </trkpt>
      <trkpt lat="43.55489" lon="3.29542">
        <ele>143.219425</ele>
        <time>2022-02-24T14:06:24.000Z</time>
      </trkpt>
      <trkpt lat="43.55491" lon="3.29542">
        <ele>143.150393</ele>
        <time>2022-02-24T14:06:26.000Z</time>
      </trkpt>
      <trkpt lat="43.55494" lon="3.29541">
        <ele>143.003319</ele>
        <time>2022-02-24T14:06:28.000Z</time>
      </trkpt>
      <trkpt lat="43.55499" lon="3.2954">
        <ele>142.785563</ele>
        <time>2022-02-24T14:06:30.000Z</time>
      </trkpt>
      <trkpt lat="43.55501" lon="3.2954">
        <ele>142.720611</ele>
        <time>2022-02-24T14:06:32.000Z</time>
      </trkpt>
      <trkpt lat="43.55506" lon="3.29539">
        <ele>142.49141</ele>
        <time>2022-02-24T14:06:34.000Z</time>
      </trkpt>
      <trkpt lat="43.55509" lon="3.29539">
        <ele>142.375038</ele>
        <time>2022-02-24T14:06:35.000Z</time>
      </trkpt>
      <trkpt lat="43.55512" lon="3.2954">
        <ele>142.258498</ele>
        <time>2022-02-24T14:06:37.000Z</time>
      </trkpt>
      <trkpt lat="43.55515" lon="3.2954">
        <ele>142.128857</ele>
        <time>2022-02-24T14:06:38.000Z</time>
      </trkpt>
      <trkpt lat="43.55518" lon="3.2954">
        <ele>141.994661</ele>
        <time>2022-02-24T14:06:39.000Z</time>
      </trkpt>
      <trkpt lat="43.55521" lon="3.29541">
        <ele>141.847289</ele>
        <time>2022-02-24T14:06:40.000Z</time>
      </trkpt>
      <trkpt lat="43.55525" lon="3.29542">
        <ele>141.659494</ele>
        <time>2022-02-24T14:06:42.000Z</time>
      </trkpt>
      <trkpt lat="43.55528" lon="3.29545">
        <ele>141.497954</ele>
        <time>2022-02-24T14:06:44.000Z</time>
      </trkpt>
      <trkpt lat="43.55543" lon="3.29569">
        <ele>140.524993</ele>
        <time>2022-02-24T14:06:46.000Z</time>
      </trkpt>
      <trkpt lat="43.55545" lon="3.29573">
        <ele>140.360562</ele>
        <time>2022-02-24T14:06:48.000Z</time>
      </trkpt>
      <trkpt lat="43.55554" lon="3.29584">
        <ele>139.846686</ele>
        <time>2022-02-24T14:06:50.000Z</time>
      </trkpt>
      <trkpt lat="43.55571" lon="3.2959">
        <ele>139.114604</ele>
        <time>2022-02-24T14:06:52.000Z</time>
      </trkpt>
      <trkpt lat="43.55573" lon="3.29589">
        <ele>139.009687</ele>
        <time>2022-02-24T14:06:54.000Z</time>
      </trkpt>
      <trkpt lat="43.55583" lon="3.29583">
        <ele>138.5398</ele>
        <time>2022-02-24T14:06:56.000Z</time>
      </trkpt>
      <trkpt lat="43.55593" lon="3.29571">
        <ele>137.984044</ele>
        <time>2022-02-24T14:06:58.000Z</time>
      </trkpt>
      <trkpt lat="43.55595" lon="3.29565">
        <ele>137.752733</ele>
        <time>2022-02-24T14:07:00.000Z</time>
      </trkpt>
      <trkpt lat="43.55596" lon="3.29563">
        <ele>137.692016</ele>
        <time>2022-02-24T14:07:02.000Z</time>
      </trkpt>
      <trkpt lat="43.556" lon="3.29553">
        <ele>137.311194</ele>
        <time>2022-02-24T14:07:03.000Z</time>
      </trkpt>
      <trkpt lat="43.55603" lon="3.2955">
        <ele>137.185</ele>
        <time>2022-02-24T14:07:04.000Z</time>
      </trkpt>
      <trkpt lat="43.55605" lon="3.29549">
        <ele>137.082768</ele>
        <time>2022-02-24T14:07:05.000Z</time>
      </trkpt>
      <trkpt lat="43.55607" lon="3.29549">
        <ele>136.9994</ele>
        <time>2022-02-24T14:07:06.000Z</time>
      </trkpt>
      <trkpt lat="43.5561" lon="3.29549">
        <ele>136.883028</ele>
        <time>2022-02-24T14:07:07.000Z</time>
      </trkpt>
      <trkpt lat="43.55613" lon="3.29549">
        <ele>136.99708</ele>
        <time>2022-02-24T14:07:08.000Z</time>
      </trkpt>
      <trkpt lat="43.55616" lon="3.29549">
        <ele>137.149646</ele>
        <time>2022-02-24T14:07:10.000Z</time>
      </trkpt>
      <trkpt lat="43.55621" lon="3.2955">
        <ele>137.318681</ele>
        <time>2022-02-24T14:07:11.000Z</time>
      </trkpt>
      <trkpt lat="43.55625" lon="3.29551">
        <ele>137.499967</ele>
        <time>2022-02-24T14:07:12.000Z</time>
      </trkpt>
      <trkpt lat="43.55629" lon="3.29551">
        <ele>137.668728</ele>
        <time>2022-02-24T14:07:13.000Z</time>
      </trkpt>
      <trkpt lat="43.55633" lon="3.29552">
        <ele>137.809112</ele>
        <time>2022-02-24T14:07:14.000Z</time>
      </trkpt>
      <trkpt lat="43.55636" lon="3.29552">
        <ele>137.9455</ele>
        <time>2022-02-24T14:07:16.000Z</time>
      </trkpt>
      <trkpt lat="43.55643" lon="3.29552">
        <ele>138.221739</ele>
        <time>2022-02-24T14:07:17.000Z</time>
      </trkpt>
      <trkpt lat="43.55646" lon="3.29552">
        <ele>138.341871</ele>
        <time>2022-02-24T14:07:19.000Z</time>
      </trkpt>
      <trkpt lat="43.55652" lon="3.29551">
        <ele>138.558533</ele>
        <time>2022-02-24T14:07:20.000Z</time>
      </trkpt>
      <trkpt lat="43.55654" lon="3.29551">
        <ele>138.663262</ele>
        <time>2022-02-24T14:07:22.000Z</time>
      </trkpt>
      <trkpt lat="43.55657" lon="3.29551">
        <ele>138.787904</ele>
        <time>2022-02-24T14:07:23.000Z</time>
      </trkpt>
      <trkpt lat="43.55661" lon="3.2955">
        <ele>138.941019</ele>
        <time>2022-02-24T14:07:24.000Z</time>
      </trkpt>
      <trkpt lat="43.55666" lon="3.29549">
        <ele>139.141937</ele>
        <time>2022-02-24T14:07:25.000Z</time>
      </trkpt>
      <trkpt lat="43.55671" lon="3.29549">
        <ele>139.322176</ele>
        <time>2022-02-24T14:07:27.000Z</time>
      </trkpt>
      <trkpt lat="43.55676" lon="3.29549">
        <ele>139.522528</ele>
        <time>2022-02-24T14:07:28.000Z</time>
      </trkpt>
      <trkpt lat="43.55679" lon="3.29548">
        <ele>139.66112</ele>
        <time>2022-02-24T14:07:30.000Z</time>
      </trkpt>
      <trkpt lat="43.55695" lon="3.29544">
        <ele>140.325907</ele>
        <time>2022-02-24T14:07:31.000Z</time>
      </trkpt>
      <trkpt lat="43.557" lon="3.29542">
        <ele>140.502848</ele>
        <time>2022-02-24T14:07:32.000Z</time>
      </trkpt>
      <trkpt lat="43.55703" lon="3.29541">
        <ele>140.630985</ele>
        <time>2022-02-24T14:07:33.000Z</time>
      </trkpt>
      <trkpt lat="43.55705" lon="3.29541">
        <ele>140.739423</ele>
        <time>2022-02-24T14:07:34.000Z</time>
      </trkpt>
      <trkpt lat="43.55708" lon="3.29541">
        <ele>140.859835</ele>
        <time>2022-02-24T14:07:35.000Z</time>
      </trkpt>
      <trkpt lat="43.55711" lon="3.29542">
        <ele>140.968892</ele>
        <time>2022-02-24T14:07:36.000Z</time>
      </trkpt>
      <trkpt lat="43.55714" lon="3.29543">
        <ele>141.093156</ele>
        <time>2022-02-24T14:07:38.000Z</time>
      </trkpt>
      <trkpt lat="43.55718" lon="3.29544">
        <ele>141.239038</ele>
        <time>2022-02-24T14:07:39.000Z</time>
      </trkpt>
      <trkpt lat="43.55721" lon="3.29546">
        <ele>141.367793</ele>
        <time>2022-02-24T14:07:40.000Z</time>
      </trkpt>
      <trkpt lat="43.55724" lon="3.29547">
        <ele>141.498371</ele>
        <time>2022-02-24T14:07:41.000Z</time>
      </trkpt>
      <trkpt lat="43.55727" lon="3.29549">
        <ele>141.626109</ele>
        <time>2022-02-24T14:07:42.000Z</time>
      </trkpt>
      <trkpt lat="43.55732" lon="3.29552">
        <ele>141.868321</ele>
        <time>2022-02-24T14:07:43.000Z</time>
      </trkpt>
      <trkpt lat="43.55736" lon="3.29553">
        <ele>142.017849</ele>
        <time>2022-02-24T14:07:45.000Z</time>
      </trkpt>
      <trkpt lat="43.55739" lon="3.29555">
        <ele>142.164697</ele>
        <time>2022-02-24T14:07:47.000Z</time>
      </trkpt>
      <trkpt lat="43.55743" lon="3.29557">
        <ele>142.323745</ele>
        <time>2022-02-24T14:07:48.000Z</time>
      </trkpt>
      <trkpt lat="43.55747" lon="3.29558">
        <ele>142.497421</ele>
        <time>2022-02-24T14:07:49.000Z</time>
      </trkpt>
      <trkpt lat="43.55751" lon="3.2956">
        <ele>142.671097</ele>
        <time>2022-02-24T14:07:51.000Z</time>
      </trkpt>
      <trkpt lat="43.55756" lon="3.29561">
        <ele>142.844773</ele>
        <time>2022-02-24T14:07:52.000Z</time>
      </trkpt>
      <trkpt lat="43.55759" lon="3.29563">
        <ele>143.002998</ele>
        <time>2022-02-24T14:07:53.000Z</time>
      </trkpt>
      <trkpt lat="43.55763" lon="3.29564">
        <ele>143.16045</ele>
        <time>2022-02-24T14:07:54.000Z</time>
      </trkpt>
      <trkpt lat="43.55767" lon="3.29566">
        <ele>143.306331</ele>
        <time>2022-02-24T14:07:55.000Z</time>
      </trkpt>
      <trkpt lat="43.5577" lon="3.29567">
        <ele>143.434069</ele>
        <time>2022-02-24T14:07:56.000Z</time>
      </trkpt>
      <trkpt lat="43.55773" lon="3.29569">
        <ele>143.582609</ele>
        <time>2022-02-24T14:07:57.000Z</time>
      </trkpt>
      <trkpt lat="43.55777" lon="3.29571">
        <ele>143.729457</ele>
        <time>2022-02-24T14:07:59.000Z</time>
      </trkpt>
      <trkpt lat="43.5578" lon="3.29573">
        <ele>143.861599</ele>
        <time>2022-02-24T14:08:00.000Z</time>
      </trkpt>
      <trkpt lat="43.55783" lon="3.29575">
        <ele>143.999847</ele>
        <time>2022-02-24T14:08:01.000Z</time>
      </trkpt>
      <trkpt lat="43.55786" lon="3.29577">
        <ele>144.210234</ele>
        <time>2022-02-24T14:08:02.000Z</time>
      </trkpt>
      <trkpt lat="43.55789" lon="3.29578">
        <ele>144.528004</ele>
        <time>2022-02-24T14:08:03.000Z</time>
      </trkpt>
      <trkpt lat="43.55792" lon="3.2958">
        <ele>144.83206</ele>
        <time>2022-02-24T14:08:04.000Z</time>
      </trkpt>
      <trkpt lat="43.55795" lon="3.29581">
        <ele>145.14746</ele>
        <time>2022-02-24T14:08:05.000Z</time>
      </trkpt>
      <trkpt lat="43.55798" lon="3.29583">
        <ele>145.426908</ele>
        <time>2022-02-24T14:08:06.000Z</time>
      </trkpt>
      <trkpt lat="43.55801" lon="3.29585">
        <ele>145.740988</ele>
        <time>2022-02-24T14:08:08.000Z</time>
      </trkpt>
      <trkpt lat="43.55803" lon="3.29586">
        <ele>146.028883</ele>
        <time>2022-02-24T14:08:09.000Z</time>
      </trkpt>
      <trkpt lat="43.55806" lon="3.29588">
        <ele>146.316778</ele>
        <time>2022-02-24T14:08:10.000Z</time>
      </trkpt>
      <trkpt lat="43.55809" lon="3.2959">
        <ele>146.606022</ele>
        <time>2022-02-24T14:08:12.000Z</time>
      </trkpt>
      <trkpt lat="43.55811" lon="3.29592">
        <ele>146.897011</ele>
        <time>2022-02-24T14:08:13.000Z</time>
      </trkpt>
      <trkpt lat="43.55814" lon="3.29594">
        <ele>147.181949</ele>
        <time>2022-02-24T14:08:14.000Z</time>
      </trkpt>
      <trkpt lat="43.55817" lon="3.29595">
        <ele>147.452514</ele>
        <time>2022-02-24T14:08:15.000Z</time>
      </trkpt>
      <trkpt lat="43.55819" lon="3.29597">
        <ele>147.691144</ele>
        <time>2022-02-24T14:08:16.000Z</time>
      </trkpt>
      <trkpt lat="43.55822" lon="3.29598">
        <ele>147.95628</ele>
        <time>2022-02-24T14:08:17.000Z</time>
      </trkpt>
      <trkpt lat="43.55824" lon="3.29598">
        <ele>148.181016</ele>
        <time>2022-02-24T14:08:18.000Z</time>
      </trkpt>
      <trkpt lat="43.55826" lon="3.29598">
        <ele>148.402824</ele>
        <time>2022-02-24T14:08:20.000Z</time>
      </trkpt>
      <trkpt lat="43.55829" lon="3.29598">
        <ele>148.624632</ele>
        <time>2022-02-24T14:08:21.000Z</time>
      </trkpt>
      <trkpt lat="43.5583" lon="3.29597">
        <ele>148.8175</ele>
        <time>2022-02-24T14:08:22.000Z</time>
      </trkpt>
      <trkpt lat="43.55832" lon="3.29596">
        <ele>149.034909</ele>
        <time>2022-02-24T14:08:23.000Z</time>
      </trkpt>
      <trkpt lat="43.55834" lon="3.29593">
        <ele>149.286965</ele>
        <time>2022-02-24T14:08:25.000Z</time>
      </trkpt>
      <trkpt lat="43.55835" lon="3.2959">
        <ele>149.520891</ele>
        <time>2022-02-24T14:08:26.000Z</time>
      </trkpt>
      <trkpt lat="43.55836" lon="3.29587">
        <ele>149.73997</ele>
        <time>2022-02-24T14:08:27.000Z</time>
      </trkpt>
      <trkpt lat="43.55836" lon="3.29584">
        <ele>149.94174</ele>
        <time>2022-02-24T14:08:28.000Z</time>
      </trkpt>
      <trkpt lat="43.55835" lon="3.29581">
        <ele>150.174306</ele>
        <time>2022-02-24T14:08:30.000Z</time>
      </trkpt>
      <trkpt lat="43.55834" lon="3.29578">
        <ele>150.418835</ele>
        <time>2022-02-24T14:08:31.000Z</time>
      </trkpt>
      <trkpt lat="43.55833" lon="3.29575">
        <ele>150.646575</ele>
        <time>2022-02-24T14:08:32.000Z</time>
      </trkpt>
      <trkpt lat="43.55831" lon="3.29572">
        <ele>150.894668</ele>
        <time>2022-02-24T14:08:33.000Z</time>
      </trkpt>
      <trkpt lat="43.5583" lon="3.29569">
        <ele>151.136934</ele>
        <time>2022-02-24T14:08:34.000Z</time>
      </trkpt>
      <trkpt lat="43.55828" lon="3.29566">
        <ele>151.430181</ele>
        <time>2022-02-24T14:08:36.000Z</time>
      </trkpt>
      <trkpt lat="43.55826" lon="3.29563">
        <ele>151.702189</ele>
        <time>2022-02-24T14:08:37.000Z</time>
      </trkpt>
      <trkpt lat="43.55824" lon="3.2956">
        <ele>151.984674</ele>
        <time>2022-02-24T14:08:38.000Z</time>
      </trkpt>
      <trkpt lat="43.55822" lon="3.29557">
        <ele>152.238264</ele>
        <time>2022-02-24T14:08:39.000Z</time>
      </trkpt>
      <trkpt lat="43.55821" lon="3.29554">
        <ele>152.497428</ele>
        <time>2022-02-24T14:08:40.000Z</time>
      </trkpt>
      <trkpt lat="43.5582" lon="3.2955">
        <ele>152.763488</ele>
        <time>2022-02-24T14:08:42.000Z</time>
      </trkpt>
      <trkpt lat="43.5582" lon="3.29547">
        <ele>153.007005</ele>
        <time>2022-02-24T14:08:43.000Z</time>
      </trkpt>
      <trkpt lat="43.55821" lon="3.29544">
        <ele>153.226287</ele>
        <time>2022-02-24T14:08:44.000Z</time>
      </trkpt>
      <trkpt lat="43.55822" lon="3.29541">
        <ele>153.434924</ele>
        <time>2022-02-24T14:08:45.000Z</time>
      </trkpt>
      <trkpt lat="43.55824" lon="3.2954">
        <ele>153.645088</ele>
        <time>2022-02-24T14:08:47.000Z</time>
      </trkpt>
      <trkpt lat="43.55827" lon="3.29539">
        <ele>153.974182</ele>
        <time>2022-02-24T14:08:50.000Z</time>
      </trkpt>
      <trkpt lat="43.55834" lon="3.29541">
        <ele>154.645942</ele>
        <time>2022-02-24T14:08:51.000Z</time>
      </trkpt>
      <trkpt lat="43.55837" lon="3.29542">
        <ele>154.945829</ele>
        <time>2022-02-24T14:08:52.000Z</time>
      </trkpt>
      <trkpt lat="43.5584" lon="3.29543">
        <ele>155.177355</ele>
        <time>2022-02-24T14:08:53.000Z</time>
      </trkpt>
      <trkpt lat="43.55841" lon="3.29544">
        <ele>155.372593</ele>
        <time>2022-02-24T14:08:54.000Z</time>
      </trkpt>
      <trkpt lat="43.55843" lon="3.29545">
        <ele>155.56783</ele>
        <time>2022-02-24T14:08:55.000Z</time>
      </trkpt>
      <trkpt lat="43.55846" lon="3.29545">
        <ele>155.791378</ele>
        <time>2022-02-24T14:08:56.000Z</time>
      </trkpt>
      <trkpt lat="43.55848" lon="3.29546">
        <ele>156.014925</ele>
        <time>2022-02-24T14:08:57.000Z</time>
      </trkpt>
      <trkpt lat="43.5585" lon="3.29546">
        <ele>156.236733</ele>
        <time>2022-02-24T14:08:58.000Z</time>
      </trkpt>
      <trkpt lat="43.55853" lon="3.29546">
        <ele>156.457557</ele>
        <time>2022-02-24T14:09:00.000Z</time>
      </trkpt>
      <trkpt lat="43.55855" lon="3.29546">
        <ele>156.717158</ele>
        <time>2022-02-24T14:09:01.000Z</time>
      </trkpt>
      <trkpt lat="43.55858" lon="3.29546">
        <ele>156.969197</ele>
        <time>2022-02-24T14:09:02.000Z</time>
      </trkpt>
      <trkpt lat="43.55861" lon="3.29545">
        <ele>157.270788</ele>
        <time>2022-02-24T14:09:04.000Z</time>
      </trkpt>
      <trkpt lat="43.55864" lon="3.29544">
        <ele>157.533356</ele>
        <time>2022-02-24T14:09:05.000Z</time>
      </trkpt>
      <trkpt lat="43.55867" lon="3.29543">
        <ele>157.828115</ele>
        <time>2022-02-24T14:09:06.000Z</time>
      </trkpt>
      <trkpt lat="43.5587" lon="3.29542">
        <ele>158.13543</ele>
        <time>2022-02-24T14:09:08.000Z</time>
      </trkpt>
      <trkpt lat="43.55873" lon="3.29541">
        <ele>158.435317</ele>
        <time>2022-02-24T14:09:09.000Z</time>
      </trkpt>
      <trkpt lat="43.55876" lon="3.2954">
        <ele>158.748483</ele>
        <time>2022-02-24T14:09:10.000Z</time>
      </trkpt>
      <trkpt lat="43.55879" lon="3.29538">
        <ele>159.059854</ele>
        <time>2022-02-24T14:09:11.000Z</time>
      </trkpt>
      <trkpt lat="43.55882" lon="3.29536">
        <ele>159.420957</ele>
        <time>2022-02-24T14:09:13.000Z</time>
      </trkpt>
      <trkpt lat="43.55886" lon="3.29534">
        <ele>159.76816</ele>
        <time>2022-02-24T14:09:15.000Z</time>
      </trkpt>
      <trkpt lat="43.55889" lon="3.29533">
        <ele>160.079531</ele>
        <time>2022-02-24T14:09:16.000Z</time>
      </trkpt>
      <trkpt lat="43.55892" lon="3.29531">
        <ele>160.3973</ele>
        <time>2022-02-24T14:09:17.000Z</time>
      </trkpt>
      <trkpt lat="43.55895" lon="3.2953">
        <ele>160.671854</ele>
        <time>2022-02-24T14:09:18.000Z</time>
      </trkpt>
      <trkpt lat="43.55897" lon="3.29528">
        <ele>160.937362</ele>
        <time>2022-02-24T14:09:19.000Z</time>
      </trkpt>
      <trkpt lat="43.559" lon="3.29527">
        <ele>161.211916</ele>
        <time>2022-02-24T14:09:20.000Z</time>
      </trkpt>
      <trkpt lat="43.55903" lon="3.29526">
        <ele>161.547848</ele>
        <time>2022-02-24T14:09:21.000Z</time>
      </trkpt>
      <trkpt lat="43.55905" lon="3.29525">
        <ele>161.9269</ele>
        <time>2022-02-24T14:09:22.000Z</time>
      </trkpt>
      <trkpt lat="43.55908" lon="3.29523">
        <ele>162.319088</ele>
        <time>2022-02-24T14:09:23.000Z</time>
      </trkpt>
      <trkpt lat="43.55911" lon="3.29522">
        <ele>162.711276</ele>
        <time>2022-02-24T14:09:24.000Z</time>
      </trkpt>
      <trkpt lat="43.55913" lon="3.29521">
        <ele>163.058838</ele>
        <time>2022-02-24T14:09:25.000Z</time>
      </trkpt>
      <trkpt lat="43.55915" lon="3.29519">
        <ele>163.4064</ele>
        <time>2022-02-24T14:09:26.000Z</time>
      </trkpt>
      <trkpt lat="43.55918" lon="3.29518">
        <ele>163.800003</ele>
        <time>2022-02-24T14:09:27.000Z</time>
      </trkpt>
      <trkpt lat="43.5592" lon="3.29516">
        <ele>164.151728</ele>
        <time>2022-02-24T14:09:28.000Z</time>
      </trkpt>
      <trkpt lat="43.55922" lon="3.29515">
        <ele>164.495369</ele>
        <time>2022-02-24T14:09:29.000Z</time>
      </trkpt>
      <trkpt lat="43.55925" lon="3.29514">
        <ele>164.835339</ele>
        <time>2022-02-24T14:09:30.000Z</time>
      </trkpt>
      <trkpt lat="43.55927" lon="3.29512">
        <ele>165.241608</ele>
        <time>2022-02-24T14:09:31.000Z</time>
      </trkpt>
      <trkpt lat="43.5593" lon="3.2951">
        <ele>165.64838</ele>
        <time>2022-02-24T14:09:33.000Z</time>
      </trkpt>
      <trkpt lat="43.55933" lon="3.29508">
        <ele>166.072066</ele>
        <time>2022-02-24T14:09:34.000Z</time>
      </trkpt>
      <trkpt lat="43.55935" lon="3.29506">
        <ele>166.505589</ele>
        <time>2022-02-24T14:09:35.000Z</time>
      </trkpt>
      <trkpt lat="43.55938" lon="3.29504">
        <ele>166.943727</ele>
        <time>2022-02-24T14:09:37.000Z</time>
      </trkpt>
      <trkpt lat="43.55941" lon="3.29501">
        <ele>167.387774</ele>
        <time>2022-02-24T14:09:38.000Z</time>
      </trkpt>
      <trkpt lat="43.55943" lon="3.29499">
        <ele>167.831821</ele>
        <time>2022-02-24T14:09:39.000Z</time>
      </trkpt>
      <trkpt lat="43.55946" lon="3.29497">
        <ele>168.265344</ele>
        <time>2022-02-24T14:09:40.000Z</time>
      </trkpt>
      <trkpt lat="43.55949" lon="3.29494">
        <ele>168.697832</ele>
        <time>2022-02-24T14:09:41.000Z</time>
      </trkpt>
      <trkpt lat="43.55951" lon="3.29492">
        <ele>169.153042</ele>
        <time>2022-02-24T14:09:43.000Z</time>
      </trkpt>
      <trkpt lat="43.55956" lon="3.29487">
        <ele>169.989492</ele>
        <time>2022-02-24T14:09:44.000Z</time>
      </trkpt>
      <trkpt lat="43.55959" lon="3.29485">
        <ele>170.42198</ele>
        <time>2022-02-24T14:09:46.000Z</time>
      </trkpt>
      <trkpt lat="43.55962" lon="3.29482">
        <ele>170.923542</ele>
        <time>2022-02-24T14:09:48.000Z</time>
      </trkpt>
      <trkpt lat="43.55965" lon="3.2948">
        <ele>171.367589</ele>
        <time>2022-02-24T14:09:49.000Z</time>
      </trkpt>
      <trkpt lat="43.55967" lon="3.29477">
        <ele>171.794587</ele>
        <time>2022-02-24T14:09:50.000Z</time>
      </trkpt>
      <trkpt lat="43.5597" lon="3.29475">
        <ele>172.175891</ele>
        <time>2022-02-24T14:09:51.000Z</time>
      </trkpt>
      <trkpt lat="43.55972" lon="3.29473">
        <ele>172.55176</ele>
        <time>2022-02-24T14:09:52.000Z</time>
      </trkpt>
      <trkpt lat="43.55974" lon="3.29471">
        <ele>172.933065</ele>
        <time>2022-02-24T14:09:53.000Z</time>
      </trkpt>
      <trkpt lat="43.55976" lon="3.29469">
        <ele>173.263462</ele>
        <time>2022-02-24T14:09:54.000Z</time>
      </trkpt>
      <trkpt lat="43.55978" lon="3.29467">
        <ele>173.58788</ele>
        <time>2022-02-24T14:09:55.000Z</time>
      </trkpt>
      <trkpt lat="43.5598" lon="3.29465">
        <ele>173.958505</ele>
        <time>2022-02-24T14:09:56.000Z</time>
      </trkpt>
      <trkpt lat="43.55983" lon="3.29463">
        <ele>174.324084</ele>
        <time>2022-02-24T14:09:57.000Z</time>
      </trkpt>
      <trkpt lat="43.55985" lon="3.29462">
        <ele>174.680204</ele>
        <time>2022-02-24T14:09:58.000Z</time>
      </trkpt>
      <trkpt lat="43.55987" lon="3.2946">
        <ele>175.027766</ele>
        <time>2022-02-24T14:09:59.000Z</time>
      </trkpt>
      <trkpt lat="43.55989" lon="3.2946">
        <ele>175.336037</ele>
        <time>2022-02-24T14:10:00.000Z</time>
      </trkpt>
      <trkpt lat="43.55991" lon="3.2946">
        <ele>175.61706</ele>
        <time>2022-02-24T14:10:01.000Z</time>
      </trkpt>
      <trkpt lat="43.55993" lon="3.29462">
        <ele>175.898573</ele>
        <time>2022-02-24T14:10:03.000Z</time>
      </trkpt>
      <trkpt lat="43.55994" lon="3.29465">
        <ele>176.226524</ele>
        <time>2022-02-24T14:10:04.000Z</time>
      </trkpt>
      <trkpt lat="43.55995" lon="3.29469">
        <ele>176.632624</ele>
        <time>2022-02-24T14:10:05.000Z</time>
      </trkpt>
      <trkpt lat="43.55995" lon="3.29473">
        <ele>177.066981</ele>
        <time>2022-02-24T14:10:06.000Z</time>
      </trkpt>
      <trkpt lat="43.55995" lon="3.29479">
        <ele>177.58094</ele>
        <time>2022-02-24T14:10:07.000Z</time>
      </trkpt>
      <trkpt lat="43.55994" lon="3.29483">
        <ele>178.055075</ele>
        <time>2022-02-24T14:10:08.000Z</time>
      </trkpt>
      <trkpt lat="43.55994" lon="3.29488">
        <ele>178.489433</ele>
        <time>2022-02-24T14:10:09.000Z</time>
      </trkpt>
      <trkpt lat="43.55994" lon="3.29493">
        <ele>178.993433</ele>
        <time>2022-02-24T14:10:11.000Z</time>
      </trkpt>
      <trkpt lat="43.55993" lon="3.29497">
        <ele>179.446197</ele>
        <time>2022-02-24T14:10:12.000Z</time>
      </trkpt>
      <trkpt lat="43.55993" lon="3.29502">
        <ele>179.929912</ele>
        <time>2022-02-24T14:10:14.000Z</time>
      </trkpt>
      <trkpt lat="43.55992" lon="3.29506">
        <ele>180.394142</ele>
        <time>2022-02-24T14:10:15.000Z</time>
      </trkpt>
      <trkpt lat="43.55991" lon="3.29511">
        <ele>180.845482</ele>
        <time>2022-02-24T14:10:16.000Z</time>
      </trkpt>
      <trkpt lat="43.5599" lon="3.29515">
        <ele>181.290277</ele>
        <time>2022-02-24T14:10:17.000Z</time>
      </trkpt>
      <trkpt lat="43.55989" lon="3.29519">
        <ele>181.744783</ele>
        <time>2022-02-24T14:10:18.000Z</time>
      </trkpt>
      <trkpt lat="43.55989" lon="3.29524">
        <ele>182.215715</ele>
        <time>2022-02-24T14:10:19.000Z</time>
      </trkpt>
      <trkpt lat="43.55988" lon="3.29529">
        <ele>182.70555</ele>
        <time>2022-02-24T14:10:20.000Z</time>
      </trkpt>
      <trkpt lat="43.55987" lon="3.29533">
        <ele>183.147109</ele>
        <time>2022-02-24T14:10:22.000Z</time>
      </trkpt>
      <trkpt lat="43.55985" lon="3.29541">
        <ele>184.000117</ele>
        <time>2022-02-24T14:10:24.000Z</time>
      </trkpt>
      <trkpt lat="43.55984" lon="3.29545">
        <ele>184.415866</ele>
        <time>2022-02-24T14:10:25.000Z</time>
      </trkpt>
      <trkpt lat="43.55983" lon="3.29553">
        <ele>185.205148</ele>
        <time>2022-02-24T14:10:27.000Z</time>
      </trkpt>
      <trkpt lat="43.55983" lon="3.29557">
        <ele>185.656489</ele>
        <time>2022-02-24T14:10:28.000Z</time>
      </trkpt>
      <trkpt lat="43.55982" lon="3.29561">
        <ele>186.061053</ele>
        <time>2022-02-24T14:10:29.000Z</time>
      </trkpt>
      <trkpt lat="43.55982" lon="3.29565">
        <ele>186.188189</ele>
        <time>2022-02-24T14:10:30.000Z</time>
      </trkpt>
      <trkpt lat="43.55982" lon="3.29569">
        <ele>186.146522</ele>
        <time>2022-02-24T14:10:31.000Z</time>
      </trkpt>
      <trkpt lat="43.55982" lon="3.29573">
        <ele>186.103758</ele>
        <time>2022-02-24T14:10:32.000Z</time>
      </trkpt>
      <trkpt lat="43.55982" lon="3.29577">
        <ele>186.060994</ele>
        <time>2022-02-24T14:10:33.000Z</time>
      </trkpt>
      <trkpt lat="43.55982" lon="3.29581">
        <ele>186.018231</ele>
        <time>2022-02-24T14:10:34.000Z</time>
      </trkpt>
      <trkpt lat="43.55983" lon="3.29585">
        <ele>185.965252</ele>
        <time>2022-02-24T14:10:36.000Z</time>
      </trkpt>
      <trkpt lat="43.55983" lon="3.2959">
        <ele>185.911183</ele>
        <time>2022-02-24T14:10:37.000Z</time>
      </trkpt>
      <trkpt lat="43.55983" lon="3.29595">
        <ele>185.856358</ele>
        <time>2022-02-24T14:10:39.000Z</time>
      </trkpt>
      <trkpt lat="43.55983" lon="3.29604">
        <ele>185.759758</ele>
        <time>2022-02-24T14:10:40.000Z</time>
      </trkpt>
      <trkpt lat="43.55984" lon="3.29609">
        <ele>185.711134</ele>
        <time>2022-02-24T14:10:42.000Z</time>
      </trkpt>
      <trkpt lat="43.55984" lon="3.29613">
        <ele>185.66251</ele>
        <time>2022-02-24T14:10:43.000Z</time>
      </trkpt>
      <trkpt lat="43.55985" lon="3.29617">
        <ele>185.61606</ele>
        <time>2022-02-24T14:10:44.000Z</time>
      </trkpt>
      <trkpt lat="43.55985" lon="3.29622">
        <ele>185.566319</ele>
        <time>2022-02-24T14:10:45.000Z</time>
      </trkpt>
      <trkpt lat="43.55986" lon="3.29626">
        <ele>185.519063</ele>
        <time>2022-02-24T14:10:46.000Z</time>
      </trkpt>
      <trkpt lat="43.55987" lon="3.2963">
        <ele>185.475673</ele>
        <time>2022-02-24T14:10:47.000Z</time>
      </trkpt>
      <trkpt lat="43.55988" lon="3.29633">
        <ele>185.432833</ele>
        <time>2022-02-24T14:10:48.000Z</time>
      </trkpt>
      <trkpt lat="43.55989" lon="3.29635">
        <ele>185.404859</ele>
        <time>2022-02-24T14:10:50.000Z</time>
      </trkpt>
      <trkpt lat="43.55991" lon="3.29644">
        <ele>185.306099</ele>
        <time>2022-02-24T14:10:52.000Z</time>
      </trkpt>
      <trkpt lat="43.55996" lon="3.29653">
        <ele>185.185797</ele>
        <time>2022-02-24T14:10:54.000Z</time>
      </trkpt>
      <trkpt lat="43.55997" lon="3.29655">
        <ele>185.153825</ele>
        <time>2022-02-24T14:10:55.000Z</time>
      </trkpt>
      <trkpt lat="43.55998" lon="3.29657">
        <ele>185.123746</ele>
        <time>2022-02-24T14:10:57.000Z</time>
      </trkpt>
      <trkpt lat="43.55999" lon="3.29659">
        <ele>185.098498</ele>
        <time>2022-02-24T14:10:58.000Z</time>
      </trkpt>
      <trkpt lat="43.56001" lon="3.29661">
        <ele>185.072679</ele>
        <time>2022-02-24T14:10:59.000Z</time>
      </trkpt>
      <trkpt lat="43.56002" lon="3.29663">
        <ele>185.045043</ele>
        <time>2022-02-24T14:11:00.000Z</time>
      </trkpt>
      <trkpt lat="43.56003" lon="3.29665">
        <ele>185.015735</ele>
        <time>2022-02-24T14:11:02.000Z</time>
      </trkpt>
      <trkpt lat="43.56004" lon="3.29666">
        <ele>184.995313</ele>
        <time>2022-02-24T14:11:04.000Z</time>
      </trkpt>
      <trkpt lat="43.56007" lon="3.29674">
        <ele>184.894968</ele>
        <time>2022-02-24T14:11:05.000Z</time>
      </trkpt>
      <trkpt lat="43.56009" lon="3.29677">
        <ele>184.853179</ele>
        <time>2022-02-24T14:11:06.000Z</time>
      </trkpt>
      <trkpt lat="43.5601" lon="3.2968">
        <ele>184.822206</ele>
        <time>2022-02-24T14:11:07.000Z</time>
      </trkpt>
      <trkpt lat="43.5601" lon="3.29682">
        <ele>184.793839</ele>
        <time>2022-02-24T14:11:08.000Z</time>
      </trkpt>
      <trkpt lat="43.56012" lon="3.29684">
        <ele>184.760958</ele>
        <time>2022-02-24T14:11:09.000Z</time>
      </trkpt>
      <trkpt lat="43.56012" lon="3.29686">
        <ele>184.738558</ele>
        <time>2022-02-24T14:11:12.000Z</time>
      </trkpt>
      <trkpt lat="43.56017" lon="3.29694">
        <ele>184.624852</ele>
        <time>2022-02-24T14:11:13.000Z</time>
      </trkpt>
      <trkpt lat="43.56019" lon="3.29698">
        <ele>184.578637</ele>
        <time>2022-02-24T14:11:14.000Z</time>
      </trkpt>
      <trkpt lat="43.5602" lon="3.297">
        <ele>184.542196</ele>
        <time>2022-02-24T14:11:15.000Z</time>
      </trkpt>
      <trkpt lat="43.56022" lon="3.29703">
        <ele>184.505623</ele>
        <time>2022-02-24T14:11:17.000Z</time>
      </trkpt>
      <trkpt lat="43.56023" lon="3.29705">
        <ele>184.473291</ele>
        <time>2022-02-24T14:11:18.000Z</time>
      </trkpt>
      <trkpt lat="43.56025" lon="3.29707">
        <ele>184.435761</ele>
        <time>2022-02-24T14:11:19.000Z</time>
      </trkpt>
      <trkpt lat="43.56027" lon="3.29709">
        <ele>184.397518</ele>
        <time>2022-02-24T14:11:20.000Z</time>
      </trkpt>
      <trkpt lat="43.56029" lon="3.29712">
        <ele>184.358542</ele>
        <time>2022-02-24T14:11:21.000Z</time>
      </trkpt>
      <trkpt lat="43.56031" lon="3.29714">
        <ele>184.321708</ele>
        <time>2022-02-24T14:11:22.000Z</time>
      </trkpt>
      <trkpt lat="43.56033" lon="3.29716">
        <ele>184.286204</ele>
        <time>2022-02-24T14:11:23.000Z</time>
      </trkpt>
      <trkpt lat="43.56035" lon="3.29717">
        <ele>184.259155</ele>
        <time>2022-02-24T14:11:26.000Z</time>
      </trkpt>
      <trkpt lat="43.56043" lon="3.29723">
        <ele>184.116535</ele>
        <time>2022-02-24T14:11:27.000Z</time>
      </trkpt>
      <trkpt lat="43.56046" lon="3.29725">
        <ele>184.067035</ele>
        <time>2022-02-24T14:11:28.000Z</time>
      </trkpt>
      <trkpt lat="43.56048" lon="3.29726">
        <ele>184.030202</ele>
        <time>2022-02-24T14:11:29.000Z</time>
      </trkpt>
      <trkpt lat="43.5605" lon="3.29727">
        <ele>183.999433</ele>
        <time>2022-02-24T14:11:30.000Z</time>
      </trkpt>
      <trkpt lat="43.56053" lon="3.29728">
        <ele>183.949725</ele>
        <time>2022-02-24T14:11:32.000Z</time>
      </trkpt>
      <trkpt lat="43.56056" lon="3.2973">
        <ele>183.900653</ele>
        <time>2022-02-24T14:11:33.000Z</time>
      </trkpt>
      <trkpt lat="43.56059" lon="3.29732">
        <ele>183.854284</ele>
        <time>2022-02-24T14:11:34.000Z</time>
      </trkpt>
      <trkpt lat="43.56062" lon="3.29734">
        <ele>183.809244</ele>
        <time>2022-02-24T14:11:35.000Z</time>
      </trkpt>
      <trkpt lat="43.56064" lon="3.29736">
        <ele>183.768108</ele>
        <time>2022-02-24T14:11:36.000Z</time>
      </trkpt>
      <trkpt lat="43.56066" lon="3.29739">
        <ele>183.72312</ele>
        <time>2022-02-24T14:11:38.000Z</time>
      </trkpt>
      <trkpt lat="43.56068" lon="3.29742">
        <ele>183.675168</ele>
        <time>2022-02-24T14:11:39.000Z</time>
      </trkpt>
      <trkpt lat="43.56069" lon="3.29746">
        <ele>183.626684</ele>
        <time>2022-02-24T14:11:40.000Z</time>
      </trkpt>
      <trkpt lat="43.56069" lon="3.29751">
        <ele>183.569666</ele>
        <time>2022-02-24T14:11:42.000Z</time>
      </trkpt>
      <trkpt lat="43.56069" lon="3.29756">
        <ele>183.514509</ele>
        <time>2022-02-24T14:11:43.000Z</time>
      </trkpt>
      <trkpt lat="43.56068" lon="3.29761">
        <ele>183.414336</ele>
        <time>2022-02-24T14:11:44.000Z</time>
      </trkpt>
      <trkpt lat="43.56066" lon="3.29766">
        <ele>183.298588</ele>
        <time>2022-02-24T14:11:45.000Z</time>
      </trkpt>
      <trkpt lat="43.56065" lon="3.29771">
        <ele>183.189612</ele>
        <time>2022-02-24T14:11:46.000Z</time>
      </trkpt>
      <trkpt lat="43.56064" lon="3.29775">
        <ele>183.086016</ele>
        <time>2022-02-24T14:11:47.000Z</time>
      </trkpt>
      <trkpt lat="43.56063" lon="3.29779">
        <ele>182.985694</ele>
        <time>2022-02-24T14:11:48.000Z</time>
      </trkpt>
      <trkpt lat="43.56062" lon="3.29784">
        <ele>182.872675</ele>
        <time>2022-02-24T14:11:50.000Z</time>
      </trkpt>
      <trkpt lat="43.56061" lon="3.29788">
        <ele>182.767064</ele>
        <time>2022-02-24T14:11:51.000Z</time>
      </trkpt>
      <trkpt lat="43.56061" lon="3.29797">
        <ele>182.574313</ele>
        <time>2022-02-24T14:11:52.000Z</time>
      </trkpt>
      <trkpt lat="43.56062" lon="3.29801">
        <ele>182.469675</ele>
        <time>2022-02-24T14:11:54.000Z</time>
      </trkpt>
      <trkpt lat="43.56064" lon="3.29804">
        <ele>182.396995</ele>
        <time>2022-02-24T14:11:56.000Z</time>
      </trkpt>
      <trkpt lat="43.56069" lon="3.29816">
        <ele>182.056719</ele>
        <time>2022-02-24T14:11:57.000Z</time>
      </trkpt>
      <trkpt lat="43.56072" lon="3.29822">
        <ele>181.895065</ele>
        <time>2022-02-24T14:11:58.000Z</time>
      </trkpt>
      <trkpt lat="43.56074" lon="3.29827">
        <ele>181.764928</ele>
        <time>2022-02-24T14:11:59.000Z</time>
      </trkpt>
      <trkpt lat="43.56076" lon="3.29831">
        <ele>181.647397</ele>
        <time>2022-02-24T14:12:00.000Z</time>
      </trkpt>
      <trkpt lat="43.56078" lon="3.29836">
        <ele>181.536479</ele>
        <time>2022-02-24T14:12:01.000Z</time>
      </trkpt>
      <trkpt lat="43.56079" lon="3.2984">
        <ele>181.416531</ele>
        <time>2022-02-24T14:12:02.000Z</time>
      </trkpt>
      <trkpt lat="43.56081" lon="3.29846">
        <ele>181.268826</ele>
        <time>2022-02-24T14:12:04.000Z</time>
      </trkpt>
      <trkpt lat="43.56084" lon="3.29852">
        <ele>181.101554</ele>
        <time>2022-02-24T14:12:06.000Z</time>
      </trkpt>
      <trkpt lat="43.56088" lon="3.29857">
        <ele>180.927178</ele>
        <time>2022-02-24T14:12:07.000Z</time>
      </trkpt>
      <trkpt lat="43.56092" lon="3.29863">
        <ele>180.74696</ele>
        <time>2022-02-24T14:12:08.000Z</time>
      </trkpt>
      <trkpt lat="43.56099" lon="3.29869">
        <ele>180.492773</ele>
        <time>2022-02-24T14:12:10.000Z</time>
      </trkpt>
      <trkpt lat="43.56103" lon="3.29873">
        <ele>180.334987</ele>
        <time>2022-02-24T14:12:12.000Z</time>
      </trkpt>
      <trkpt lat="43.5613" lon="3.29898">
        <ele>179.301483</ele>
        <time>2022-02-24T14:12:14.000Z</time>
      </trkpt>
      <trkpt lat="43.56132" lon="3.299">
        <ele>179.238538</ele>
        <time>2022-02-24T14:12:16.000Z</time>
      </trkpt>
      <trkpt lat="43.5614" lon="3.29911">
        <ele>178.871847</ele>
        <time>2022-02-24T14:12:18.000Z</time>
      </trkpt>
      <trkpt lat="43.56154" lon="3.29928">
        <ele>178.271347</ele>
        <time>2022-02-24T14:12:20.000Z</time>
      </trkpt>
      <trkpt lat="43.5616" lon="3.29933">
        <ele>178.054795</ele>
        <time>2022-02-24T14:12:22.000Z</time>
      </trkpt>
      <trkpt lat="43.56162" lon="3.29935">
        <ele>177.999892</ele>
        <time>2022-02-24T14:12:24.000Z</time>
      </trkpt>
      <trkpt lat="43.56182" lon="3.29949">
        <ele>177.22441</ele>
        <time>2022-02-24T14:12:26.000Z</time>
      </trkpt>
      <trkpt lat="43.56184" lon="3.2995">
        <ele>177.154906</ele>
        <time>2022-02-24T14:12:28.000Z</time>
      </trkpt>
      <trkpt lat="43.56202" lon="3.2995">
        <ele>176.528483</ele>
        <time>2022-02-24T14:12:30.000Z</time>
      </trkpt>
      <trkpt lat="43.56203" lon="3.29949">
        <ele>176.470102</ele>
        <time>2022-02-24T14:12:32.000Z</time>
      </trkpt>
      <trkpt lat="43.56207" lon="3.29935">
        <ele>176.105273</ele>
        <time>2022-02-24T14:12:34.000Z</time>
      </trkpt>
      <trkpt lat="43.56208" lon="3.29907">
        <ele>175.373203</ele>
        <time>2022-02-24T14:12:36.000Z</time>
      </trkpt>
      <trkpt lat="43.56208" lon="3.29903">
        <ele>175.273339</ele>
        <time>2022-02-24T14:12:38.000Z</time>
      </trkpt>
      <trkpt lat="43.56204" lon="3.29871">
        <ele>174.451199</ele>
        <time>2022-02-24T14:12:40.000Z</time>
      </trkpt>
      <trkpt lat="43.56204" lon="3.29867">
        <ele>174.349243</ele>
        <time>2022-02-24T14:12:42.000Z</time>
      </trkpt>
      <trkpt lat="43.56203" lon="3.29848">
        <ele>173.869241</ele>
        <time>2022-02-24T14:12:44.000Z</time>
      </trkpt>
      <trkpt lat="43.56202" lon="3.29828">
        <ele>173.356905</ele>
        <time>2022-02-24T14:12:46.000Z</time>
      </trkpt>
      <trkpt lat="43.56202" lon="3.29799">
        <ele>172.641795</ele>
        <time>2022-02-24T14:12:48.000Z</time>
      </trkpt>
      <trkpt lat="43.56202" lon="3.29796">
        <ele>172.553057</ele>
        <time>2022-02-24T14:12:50.000Z</time>
      </trkpt>
      <trkpt lat="43.56202" lon="3.29768">
        <ele>171.838083</ele>
        <time>2022-02-24T14:12:52.000Z</time>
      </trkpt>
      <trkpt lat="43.56202" lon="3.29764">
        <ele>171.746809</ele>
        <time>2022-02-24T14:12:54.000Z</time>
      </trkpt>
      <trkpt lat="43.56203" lon="3.29735">
        <ele>171.515794</ele>
        <time>2022-02-24T14:12:56.000Z</time>
      </trkpt>
      <trkpt lat="43.56203" lon="3.29732">
        <ele>171.517675</ele>
        <time>2022-02-24T14:12:58.000Z</time>
      </trkpt>
      <trkpt lat="43.56204" lon="3.29706">
        <ele>171.532739</ele>
        <time>2022-02-24T14:13:00.000Z</time>
      </trkpt>
      <trkpt lat="43.56204" lon="3.29702">
        <ele>171.534591</ele>
        <time>2022-02-24T14:13:02.000Z</time>
      </trkpt>
      <trkpt lat="43.56207" lon="3.29687">
        <ele>171.543595</ele>
        <time>2022-02-24T14:13:04.000Z</time>
      </trkpt>
      <trkpt lat="43.56211" lon="3.29671">
        <ele>171.553157</ele>
        <time>2022-02-24T14:13:06.000Z</time>
      </trkpt>
      <trkpt lat="43.56217" lon="3.29649">
        <ele>171.566802</ele>
        <time>2022-02-24T14:13:08.000Z</time>
      </trkpt>
      <trkpt lat="43.56218" lon="3.29646">
        <ele>171.568678</ele>
        <time>2022-02-24T14:13:10.000Z</time>
      </trkpt>
      <trkpt lat="43.56221" lon="3.29631">
        <ele>171.577631</ele>
        <time>2022-02-24T14:13:12.000Z</time>
      </trkpt>
      <trkpt lat="43.56229" lon="3.29607">
        <ele>171.592566</ele>
        <time>2022-02-24T14:13:14.000Z</time>
      </trkpt>
      <trkpt lat="43.5623" lon="3.29604">
        <ele>171.594324</ele>
        <time>2022-02-24T14:13:16.000Z</time>
      </trkpt>
      <trkpt lat="43.56236" lon="3.29592">
        <ele>171.60287</ele>
        <time>2022-02-24T14:13:18.000Z</time>
      </trkpt>
      <trkpt lat="43.56247" lon="3.29571">
        <ele>171.617369</ele>
        <time>2022-02-24T14:13:20.000Z</time>
      </trkpt>
      <trkpt lat="43.56248" lon="3.29569">
        <ele>171.619079</ele>
        <time>2022-02-24T14:13:22.000Z</time>
      </trkpt>
      <trkpt lat="43.56256" lon="3.29548">
        <ele>171.632557</ele>
        <time>2022-02-24T14:13:24.000Z</time>
      </trkpt>
      <trkpt lat="43.56257" lon="3.29545">
        <ele>171.63422</ele>
        <time>2022-02-24T14:13:26.000Z</time>
      </trkpt>
      <trkpt lat="43.56263" lon="3.29523">
        <ele>171.659763</ele>
        <time>2022-02-24T14:13:28.000Z</time>
      </trkpt>
      <trkpt lat="43.56263" lon="3.2952">
        <ele>171.677733</ele>
        <time>2022-02-24T14:13:30.000Z</time>
      </trkpt>
      <trkpt lat="43.5627" lon="3.29499">
        <ele>171.820261</ele>
        <time>2022-02-24T14:13:32.000Z</time>
      </trkpt>
      <trkpt lat="43.56271" lon="3.29497">
        <ele>171.839357</ele>
        <time>2022-02-24T14:13:34.000Z</time>
      </trkpt>
      <trkpt lat="43.56286" lon="3.29482">
        <ele>171.995763</ele>
        <time>2022-02-24T14:13:36.000Z</time>
      </trkpt>
      <trkpt lat="43.56288" lon="3.2948">
        <ele>172.016077</ele>
        <time>2022-02-24T14:13:38.000Z</time>
      </trkpt>
      <trkpt lat="43.56302" lon="3.29465">
        <ele>172.171586</ele>
        <time>2022-02-24T14:13:40.000Z</time>
      </trkpt>
      <trkpt lat="43.56306" lon="3.29458">
        <ele>172.22976</ele>
        <time>2022-02-24T14:13:42.000Z</time>
      </trkpt>
      <trkpt lat="43.56308" lon="3.29456">
        <ele>172.247521</ele>
        <time>2022-02-24T14:13:44.000Z</time>
      </trkpt>
      <trkpt lat="43.56312" lon="3.29441">
        <ele>172.345378</ele>
        <time>2022-02-24T14:13:46.000Z</time>
      </trkpt>
      <trkpt lat="43.56315" lon="3.29417">
        <ele>172.500056</ele>
        <time>2022-02-24T14:13:48.000Z</time>
      </trkpt>
      <trkpt lat="43.56312" lon="3.29409">
        <ele>172.553991</ele>
        <time>2022-02-24T14:13:50.000Z</time>
      </trkpt>
      <trkpt lat="43.56309" lon="3.29401">
        <ele>172.611484</ele>
        <time>2022-02-24T14:13:52.000Z</time>
      </trkpt>
      <trkpt lat="43.56308" lon="3.29399">
        <ele>172.62928</ele>
        <time>2022-02-24T14:13:54.000Z</time>
      </trkpt>
      <trkpt lat="43.56305" lon="3.29379">
        <ele>172.758061</ele>
        <time>2022-02-24T14:13:56.000Z</time>
      </trkpt>
      <trkpt lat="43.56306" lon="3.29378">
        <ele>172.773251</ele>
        <time>2022-02-24T14:13:58.000Z</time>
      </trkpt>
      <trkpt lat="43.56322" lon="3.29374">
        <ele>172.909836</ele>
        <time>2022-02-24T14:14:00.000Z</time>
      </trkpt>
      <trkpt lat="43.56324" lon="3.29374">
        <ele>172.933186</ele>
        <time>2022-02-24T14:14:02.000Z</time>
      </trkpt>
      <trkpt lat="43.56343" lon="3.29378">
        <ele>173.096305</ele>
        <time>2022-02-24T14:14:04.000Z</time>
      </trkpt>
      <trkpt lat="43.56345" lon="3.29379">
        <ele>173.115555</ele>
        <time>2022-02-24T14:14:06.000Z</time>
      </trkpt>
      <trkpt lat="43.56353" lon="3.29388">
        <ele>173.21781</ele>
        <time>2022-02-24T14:14:08.000Z</time>
      </trkpt>
      <trkpt lat="43.56367" lon="3.29401">
        <ele>173.762849</ele>
        <time>2022-02-24T14:14:10.000Z</time>
      </trkpt>
      <trkpt lat="43.56371" lon="3.294">
        <ele>173.905411</ele>
        <time>2022-02-24T14:14:12.000Z</time>
      </trkpt>
      <trkpt lat="43.56372" lon="3.29399">
        <ele>173.960964</ele>
        <time>2022-02-24T14:14:14.000Z</time>
      </trkpt>
      <trkpt lat="43.56388" lon="3.29388">
        <ele>174.543825</ele>
        <time>2022-02-24T14:14:16.000Z</time>
      </trkpt>
      <trkpt lat="43.56395" lon="3.29386">
        <ele>174.787023</ele>
        <time>2022-02-24T14:14:18.000Z</time>
      </trkpt>
      <trkpt lat="43.56397" lon="3.29386">
        <ele>174.84038</ele>
        <time>2022-02-24T14:14:20.000Z</time>
      </trkpt>
      <trkpt lat="43.56405" lon="3.29385">
        <ele>175.119228</ele>
        <time>2022-02-24T14:14:21.000Z</time>
      </trkpt>
      <trkpt lat="43.56408" lon="3.29384">
        <ele>175.226596</ele>
        <time>2022-02-24T14:14:22.000Z</time>
      </trkpt>
      <trkpt lat="43.56413" lon="3.29384">
        <ele>175.366845</ele>
        <time>2022-02-24T14:14:24.000Z</time>
      </trkpt>
      <trkpt lat="43.56418" lon="3.29384">
        <ele>175.543738</ele>
        <time>2022-02-24T14:14:26.000Z</time>
      </trkpt>
      <trkpt lat="43.56424" lon="3.29384">
        <ele>175.737172</ele>
        <time>2022-02-24T14:14:27.000Z</time>
      </trkpt>
      <trkpt lat="43.56429" lon="3.29384">
        <ele>175.913916</ele>
        <time>2022-02-24T14:14:28.000Z</time>
      </trkpt>
      <trkpt lat="43.56434" lon="3.29384">
        <ele>176.090727</ele>
        <time>2022-02-24T14:14:30.000Z</time>
      </trkpt>
      <trkpt lat="43.56438" lon="3.29383">
        <ele>176.220986</ele>
        <time>2022-02-24T14:14:32.000Z</time>
      </trkpt>
      <trkpt lat="43.56458" lon="3.29381">
        <ele>176.869739</ele>
        <time>2022-02-24T14:14:34.000Z</time>
      </trkpt>
      <trkpt lat="43.56464" lon="3.29381">
        <ele>177.086986</ele>
        <time>2022-02-24T14:14:35.000Z</time>
      </trkpt>
      <trkpt lat="43.56469" lon="3.2938">
        <ele>177.254355</ele>
        <time>2022-02-24T14:14:36.000Z</time>
      </trkpt>
      <trkpt lat="43.56473" lon="3.2938">
        <ele>177.392124</ele>
        <time>2022-02-24T14:14:37.000Z</time>
      </trkpt>
      <trkpt lat="43.56478" lon="3.29379">
        <ele>177.560605</ele>
        <time>2022-02-24T14:14:38.000Z</time>
      </trkpt>
      <trkpt lat="43.56485" lon="3.29377">
        <ele>177.794345</ele>
        <time>2022-02-24T14:14:40.000Z</time>
      </trkpt>
      <trkpt lat="43.56494" lon="3.29374">
        <ele>178.10692</ele>
        <time>2022-02-24T14:14:42.000Z</time>
      </trkpt>
      <trkpt lat="43.56498" lon="3.29372">
        <ele>178.241702</ele>
        <time>2022-02-24T14:14:44.000Z</time>
      </trkpt>
      <trkpt lat="43.56511" lon="3.29362">
        <ele>178.749713</ele>
        <time>2022-02-24T14:14:46.000Z</time>
      </trkpt>
      <trkpt lat="43.56528" lon="3.29344">
        <ele>179.205263</ele>
        <time>2022-02-24T14:14:48.000Z</time>
      </trkpt>
      <trkpt lat="43.56529" lon="3.29342">
        <ele>179.206363</ele>
        <time>2022-02-24T14:14:50.000Z</time>
      </trkpt>
      <trkpt lat="43.56535" lon="3.29322">
        <ele>179.217878</ele>
        <time>2022-02-24T14:14:52.000Z</time>
      </trkpt>
      <trkpt lat="43.56536" lon="3.2932">
        <ele>179.219398</ele>
        <time>2022-02-24T14:14:54.000Z</time>
      </trkpt>
      <trkpt lat="43.56538" lon="3.29306">
        <ele>179.226474</ele>
        <time>2022-02-24T14:14:56.000Z</time>
      </trkpt>
      <trkpt lat="43.5654" lon="3.29287">
        <ele>179.23685</ele>
        <time>2022-02-24T14:14:58.000Z</time>
      </trkpt>
      <trkpt lat="43.5654" lon="3.2928">
        <ele>179.240457</ele>
        <time>2022-02-24T14:15:00.000Z</time>
      </trkpt>
      <trkpt lat="43.56542" lon="3.29272">
        <ele>179.244865</ele>
        <time>2022-02-24T14:15:02.000Z</time>
      </trkpt>
      <trkpt lat="43.56547" lon="3.29266">
        <ele>179.249601</ele>
        <time>2022-02-24T14:15:04.000Z</time>
      </trkpt>
      <trkpt lat="43.56554" lon="3.29266">
        <ele>179.254493</ele>
        <time>2022-02-24T14:15:06.000Z</time>
      </trkpt>
      <trkpt lat="43.56556" lon="3.29268">
        <ele>179.256345</ele>
        <time>2022-02-24T14:15:08.000Z</time>
      </trkpt>
      <trkpt lat="43.56565" lon="3.29281">
        <ele>179.265579</ele>
        <time>2022-02-24T14:15:10.000Z</time>
      </trkpt>
      <trkpt lat="43.56573" lon="3.29301">
        <ele>179.277303</ele>
        <time>2022-02-24T14:15:12.000Z</time>
      </trkpt>
      <trkpt lat="43.56573" lon="3.29304">
        <ele>179.278791</ele>
        <time>2022-02-24T14:15:14.000Z</time>
      </trkpt>
      <trkpt lat="43.56577" lon="3.29327">
        <ele>179.291406</ele>
        <time>2022-02-24T14:15:16.000Z</time>
      </trkpt>
      <trkpt lat="43.56579" lon="3.29329">
        <ele>179.29319</ele>
        <time>2022-02-24T14:15:18.000Z</time>
      </trkpt>
      <trkpt lat="43.56582" lon="3.29331">
        <ele>179.295091</ele>
        <time>2022-02-24T14:15:19.000Z</time>
      </trkpt>
      <trkpt lat="43.56584" lon="3.29334">
        <ele>179.297585</ele>
        <time>2022-02-24T14:15:20.000Z</time>
      </trkpt>
      <trkpt lat="43.56586" lon="3.29336">
        <ele>179.29935</ele>
        <time>2022-02-24T14:15:22.000Z</time>
      </trkpt>
      <trkpt lat="43.566" lon="3.2934">
        <ele>179.309308</ele>
        <time>2022-02-24T14:15:24.000Z</time>
      </trkpt>
      <trkpt lat="43.56619" lon="3.29343">
        <ele>179.323415</ele>
        <time>2022-02-24T14:15:26.000Z</time>
      </trkpt>
      <trkpt lat="43.56621" lon="3.29343">
        <ele>179.324495</ele>
        <time>2022-02-24T14:15:28.000Z</time>
      </trkpt>
      <trkpt lat="43.56638" lon="3.29342">
        <ele>179.389272</ele>
        <time>2022-02-24T14:15:30.000Z</time>
      </trkpt>
      <trkpt lat="43.5664" lon="3.29342">
        <ele>179.398208</ele>
        <time>2022-02-24T14:15:32.000Z</time>
      </trkpt>
      <trkpt lat="43.5665" lon="3.29343">
        <ele>179.455794</ele>
        <time>2022-02-24T14:15:34.000Z</time>
      </trkpt>
      <trkpt lat="43.56661" lon="3.29345">
        <ele>179.517469</ele>
        <time>2022-02-24T14:15:36.000Z</time>
      </trkpt>
      <trkpt lat="43.56678" lon="3.29347">
        <ele>179.609577</ele>
        <time>2022-02-24T14:15:38.000Z</time>
      </trkpt>
      <trkpt lat="43.5668" lon="3.29347">
        <ele>179.62021</ele>
        <time>2022-02-24T14:15:40.000Z</time>
      </trkpt>
      <trkpt lat="43.56697" lon="3.2935">
        <ele>179.718778</ele>
        <time>2022-02-24T14:15:42.000Z</time>
      </trkpt>
      <trkpt lat="43.56699" lon="3.2935">
        <ele>179.727157</ele>
        <time>2022-02-24T14:15:44.000Z</time>
      </trkpt>
      <trkpt lat="43.56716" lon="3.2935">
        <ele>179.824802</ele>
        <time>2022-02-24T14:15:46.000Z</time>
      </trkpt>
      <trkpt lat="43.56718" lon="3.29349">
        <ele>179.835969</ele>
        <time>2022-02-24T14:15:48.000Z</time>
      </trkpt>
      <trkpt lat="43.56736" lon="3.29348">
        <ele>179.935963</ele>
        <time>2022-02-24T14:15:50.000Z</time>
      </trkpt>
      <trkpt lat="43.56738" lon="3.29348">
        <ele>179.948802</ele>
        <time>2022-02-24T14:15:52.000Z</time>
      </trkpt>
      <trkpt lat="43.5675" lon="3.29348">
        <ele>180.014654</ele>
        <time>2022-02-24T14:15:54.000Z</time>
      </trkpt>
      <trkpt lat="43.56763" lon="3.29347">
        <ele>180.085098</ele>
        <time>2022-02-24T14:15:56.000Z</time>
      </trkpt>
      <trkpt lat="43.56781" lon="3.29342">
        <ele>180.186617</ele>
        <time>2022-02-24T14:15:58.000Z</time>
      </trkpt>
      <trkpt lat="43.56783" lon="3.29341">
        <ele>180.197964</ele>
        <time>2022-02-24T14:16:00.000Z</time>
      </trkpt>
      <trkpt lat="43.56793" lon="3.29333">
        <ele>180.265672</ele>
        <time>2022-02-24T14:16:02.000Z</time>
      </trkpt>
      <trkpt lat="43.56811" lon="3.29317">
        <ele>180.359705</ele>
        <time>2022-02-24T14:16:04.000Z</time>
      </trkpt>
      <trkpt lat="43.56812" lon="3.29315">
        <ele>180.365718</ele>
        <time>2022-02-24T14:16:06.000Z</time>
      </trkpt>
      <trkpt lat="43.56825" lon="3.29293">
        <ele>180.425005</ele>
        <time>2022-02-24T14:16:08.000Z</time>
      </trkpt>
      <trkpt lat="43.56826" lon="3.2929">
        <ele>180.432779</ele>
        <time>2022-02-24T14:16:10.000Z</time>
      </trkpt>
      <trkpt lat="43.56828" lon="3.29273">
        <ele>180.470441</ele>
        <time>2022-02-24T14:16:12.000Z</time>
      </trkpt>
      <trkpt lat="43.56828" lon="3.29254">
        <ele>180.511811</ele>
        <time>2022-02-24T14:16:14.000Z</time>
      </trkpt>
      <trkpt lat="43.56824" lon="3.29236">
        <ele>180.550171</ele>
        <time>2022-02-24T14:16:16.000Z</time>
      </trkpt>
      <trkpt lat="43.56819" lon="3.2922">
        <ele>180.587625</ele>
        <time>2022-02-24T14:16:18.000Z</time>
      </trkpt>
      <trkpt lat="43.56812" lon="3.29205">
        <ele>180.624845</ele>
        <time>2022-02-24T14:16:20.000Z</time>
      </trkpt>
      <trkpt lat="43.56802" lon="3.29185">
        <ele>180.67753</ele>
        <time>2022-02-24T14:16:22.000Z</time>
      </trkpt>
      <trkpt lat="43.56797" lon="3.29179">
        <ele>180.698263</ele>
        <time>2022-02-24T14:16:24.000Z</time>
      </trkpt>
      <trkpt lat="43.56796" lon="3.29176">
        <ele>180.704341</ele>
        <time>2022-02-24T14:16:26.000Z</time>
      </trkpt>
      <trkpt lat="43.56791" lon="3.29149">
        <ele>180.764489</ele>
        <time>2022-02-24T14:16:28.000Z</time>
      </trkpt>
      <trkpt lat="43.5679" lon="3.29146">
        <ele>180.771606</ele>
        <time>2022-02-24T14:16:30.000Z</time>
      </trkpt>
      <trkpt lat="43.56789" lon="3.2913">
        <ele>180.8049</ele>
        <time>2022-02-24T14:16:32.000Z</time>
      </trkpt>
      <trkpt lat="43.56787" lon="3.29115">
        <ele>180.838753</ele>
        <time>2022-02-24T14:16:34.000Z</time>
      </trkpt>
      <trkpt lat="43.56785" lon="3.29099">
        <ele>181.129215</ele>
        <time>2022-02-24T14:16:36.000Z</time>
      </trkpt>
      <trkpt lat="43.56785" lon="3.29097">
        <ele>181.290582</ele>
        <time>2022-02-24T14:16:38.000Z</time>
      </trkpt>
      <trkpt lat="43.56784" lon="3.29085">
        <ele>182.031174</ele>
        <time>2022-02-24T14:16:40.000Z</time>
      </trkpt>
      <trkpt lat="43.56782" lon="3.29073">
        <ele>182.882284</ele>
        <time>2022-02-24T14:16:42.000Z</time>
      </trkpt>
      <trkpt lat="43.56781" lon="3.29061">
        <ele>183.635864</ele>
        <time>2022-02-24T14:16:43.000Z</time>
      </trkpt>
      <trkpt lat="43.56782" lon="3.29059">
        <ele>183.821946</ele>
        <time>2022-02-24T14:16:44.000Z</time>
      </trkpt>
      <trkpt lat="43.56783" lon="3.29056">
        <ele>184.040774</ele>
        <time>2022-02-24T14:16:46.000Z</time>
      </trkpt>
      <trkpt lat="43.56784" lon="3.29052">
        <ele>184.266477</ele>
        <time>2022-02-24T14:16:47.000Z</time>
      </trkpt>
      <trkpt lat="43.56784" lon="3.29049">
        <ele>184.52346</ele>
        <time>2022-02-24T14:16:48.000Z</time>
      </trkpt>
      <trkpt lat="43.56784" lon="3.29044">
        <ele>184.818323</ele>
        <time>2022-02-24T14:16:49.000Z</time>
      </trkpt>
      <trkpt lat="43.56784" lon="3.2904">
        <ele>185.113185</ele>
        <time>2022-02-24T14:16:50.000Z</time>
      </trkpt>
      <trkpt lat="43.56784" lon="3.29035">
        <ele>185.408048</ele>
        <time>2022-02-24T14:16:51.000Z</time>
      </trkpt>
      <trkpt lat="43.56784" lon="3.2903">
        <ele>185.729121</ele>
        <time>2022-02-24T14:16:52.000Z</time>
      </trkpt>
      <trkpt lat="43.56784" lon="3.29025">
        <ele>186.044809</ele>
        <time>2022-02-24T14:16:53.000Z</time>
      </trkpt>
      <trkpt lat="43.56784" lon="3.2902">
        <ele>186.372434</ele>
        <time>2022-02-24T14:16:54.000Z</time>
      </trkpt>
      <trkpt lat="43.56784" lon="3.29016">
        <ele>186.680401</ele>
        <time>2022-02-24T14:16:55.000Z</time>
      </trkpt>
      <trkpt lat="43.56784" lon="3.29011">
        <ele>187.001474</ele>
        <time>2022-02-24T14:16:56.000Z</time>
      </trkpt>
      <trkpt lat="43.56784" lon="3.29006">
        <ele>187.302889</ele>
        <time>2022-02-24T14:16:57.000Z</time>
      </trkpt>
      <trkpt lat="43.56784" lon="3.29002">
        <ele>187.597752</ele>
        <time>2022-02-24T14:16:58.000Z</time>
      </trkpt>
      <trkpt lat="43.56784" lon="3.28997">
        <ele>187.912272</ele>
        <time>2022-02-24T14:17:00.000Z</time>
      </trkpt>
      <trkpt lat="43.56784" lon="3.28992">
        <ele>188.239897</ele>
        <time>2022-02-24T14:17:01.000Z</time>
      </trkpt>
      <trkpt lat="43.56784" lon="3.28987">
        <ele>188.560969</ele>
        <time>2022-02-24T14:17:02.000Z</time>
      </trkpt>
      <trkpt lat="43.56784" lon="3.28982">
        <ele>188.868937</ele>
        <time>2022-02-24T14:17:03.000Z</time>
      </trkpt>
      <trkpt lat="43.56784" lon="3.28978">
        <ele>189.178097</ele>
        <time>2022-02-24T14:17:04.000Z</time>
      </trkpt>
      <trkpt lat="43.56784" lon="3.28973">
        <ele>189.481675</ele>
        <time>2022-02-24T14:17:06.000Z</time>
      </trkpt>
      <trkpt lat="43.56784" lon="3.28968">
        <ele>189.78309</ele>
        <time>2022-02-24T14:17:07.000Z</time>
      </trkpt>
      <trkpt lat="43.56785" lon="3.28964">
        <ele>190.086668</ele>
        <time>2022-02-24T14:17:08.000Z</time>
      </trkpt>
      <trkpt lat="43.56785" lon="3.28959">
        <ele>190.403262</ele>
        <time>2022-02-24T14:17:10.000Z</time>
      </trkpt>
      <trkpt lat="43.56785" lon="3.28954">
        <ele>190.698124</ele>
        <time>2022-02-24T14:17:11.000Z</time>
      </trkpt>
      <trkpt lat="43.56785" lon="3.2895">
        <ele>190.979882</ele>
        <time>2022-02-24T14:17:12.000Z</time>
      </trkpt>
      <trkpt lat="43.56786" lon="3.28946">
        <ele>191.276955</ele>
        <time>2022-02-24T14:17:13.000Z</time>
      </trkpt>
      <trkpt lat="43.56786" lon="3.28941">
        <ele>191.574028</ele>
        <time>2022-02-24T14:17:14.000Z</time>
      </trkpt>
      <trkpt lat="43.56786" lon="3.28937">
        <ele>191.870136</ele>
        <time>2022-02-24T14:17:15.000Z</time>
      </trkpt>
      <trkpt lat="43.56787" lon="3.28933">
        <ele>192.095838</ele>
        <time>2022-02-24T14:17:18.000Z</time>
      </trkpt>
      <trkpt lat="43.56789" lon="3.2892">
        <ele>193.01093</ele>
        <time>2022-02-24T14:17:19.000Z</time>
      </trkpt>
      <trkpt lat="43.5679" lon="3.28914">
        <ele>193.418783</ele>
        <time>2022-02-24T14:17:20.000Z</time>
      </trkpt>
      <trkpt lat="43.56791" lon="3.28909">
        <ele>193.701175</ele>
        <time>2022-02-24T14:17:21.000Z</time>
      </trkpt>
      <trkpt lat="43.56792" lon="3.28906">
        <ele>193.935412</ele>
        <time>2022-02-24T14:17:22.000Z</time>
      </trkpt>
      <trkpt lat="43.56792" lon="3.28903">
        <ele>194.135702</ele>
        <time>2022-02-24T14:17:23.000Z</time>
      </trkpt>
      <trkpt lat="43.56793" lon="3.289">
        <ele>194.32684</ele>
        <time>2022-02-24T14:17:24.000Z</time>
      </trkpt>
      <trkpt lat="43.56794" lon="3.28898">
        <ele>194.505917</ele>
        <time>2022-02-24T14:17:25.000Z</time>
      </trkpt>
      <trkpt lat="43.56795" lon="3.28895">
        <ele>194.708884</ele>
        <time>2022-02-24T14:17:26.000Z</time>
      </trkpt>
      <trkpt lat="43.56796" lon="3.28893">
        <ele>194.900022</ele>
        <time>2022-02-24T14:17:27.000Z</time>
      </trkpt>
      <trkpt lat="43.56797" lon="3.2889">
        <ele>195.106539</ele>
        <time>2022-02-24T14:17:28.000Z</time>
      </trkpt>
      <trkpt lat="43.56798" lon="3.28886">
        <ele>195.360256</ele>
        <time>2022-02-24T14:17:30.000Z</time>
      </trkpt>
      <trkpt lat="43.56799" lon="3.28882">
        <ele>195.616263</ele>
        <time>2022-02-24T14:17:31.000Z</time>
      </trkpt>
      <trkpt lat="43.568" lon="3.28879">
        <ele>195.875918</ele>
        <time>2022-02-24T14:17:32.000Z</time>
      </trkpt>
      <trkpt lat="43.56802" lon="3.28875">
        <ele>196.188629</ele>
        <time>2022-02-24T14:17:34.000Z</time>
      </trkpt>
      <trkpt lat="43.56803" lon="3.2887">
        <ele>196.50134</ele>
        <time>2022-02-24T14:17:35.000Z</time>
      </trkpt>
      <trkpt lat="43.56805" lon="3.28866">
        <ele>196.790659</ele>
        <time>2022-02-24T14:17:36.000Z</time>
      </trkpt>
      <trkpt lat="43.56806" lon="3.28863">
        <ele>197.078643</ele>
        <time>2022-02-24T14:17:37.000Z</time>
      </trkpt>
      <trkpt lat="43.56807" lon="3.28859">
        <ele>197.394056</ele>
        <time>2022-02-24T14:17:39.000Z</time>
      </trkpt>
      <trkpt lat="43.56809" lon="3.28856">
        <ele>197.731399</ele>
        <time>2022-02-24T14:17:40.000Z</time>
      </trkpt>
      <trkpt lat="43.5681" lon="3.28852">
        <ele>198.063778</ele>
        <time>2022-02-24T14:17:41.000Z</time>
      </trkpt>
      <trkpt lat="43.56811" lon="3.28849">
        <ele>198.393267</ele>
        <time>2022-02-24T14:17:42.000Z</time>
      </trkpt>
      <trkpt lat="43.56812" lon="3.28845">
        <ele>198.701843</ele>
        <time>2022-02-24T14:17:43.000Z</time>
      </trkpt>
      <trkpt lat="43.56813" lon="3.28842">
        <ele>198.996762</ele>
        <time>2022-02-24T14:17:44.000Z</time>
      </trkpt>
      <trkpt lat="43.56813" lon="3.28839">
        <ele>199.296333</ele>
        <time>2022-02-24T14:17:45.000Z</time>
      </trkpt>
      <trkpt lat="43.56814" lon="3.28836">
        <ele>199.583031</ele>
        <time>2022-02-24T14:17:46.000Z</time>
      </trkpt>
      <trkpt lat="43.56815" lon="3.28833">
        <ele>199.882601</ele>
        <time>2022-02-24T14:17:47.000Z</time>
      </trkpt>
      <trkpt lat="43.56816" lon="3.28829">
        <ele>200.210661</ele>
        <time>2022-02-24T14:17:49.000Z</time>
      </trkpt>
      <trkpt lat="43.56817" lon="3.28825">
        <ele>200.53872</ele>
        <time>2022-02-24T14:17:50.000Z</time>
      </trkpt>
      <trkpt lat="43.56817" lon="3.28822">
        <ele>200.855051</ele>
        <time>2022-02-24T14:17:51.000Z</time>
      </trkpt>
      <trkpt lat="43.56818" lon="3.28818">
        <ele>201.163748</ele>
        <time>2022-02-24T14:17:52.000Z</time>
      </trkpt>
      <trkpt lat="43.56818" lon="3.28815">
        <ele>201.4861</ele>
        <time>2022-02-24T14:17:53.000Z</time>
      </trkpt>
      <trkpt lat="43.56817" lon="3.28811">
        <ele>201.769009</ele>
        <time>2022-02-24T14:17:55.000Z</time>
      </trkpt>
      <trkpt lat="43.56816" lon="3.28809">
        <ele>202.038874</ele>
        <time>2022-02-24T14:17:56.000Z</time>
      </trkpt>
      <trkpt lat="43.56815" lon="3.28807">
        <ele>202.258466</ele>
        <time>2022-02-24T14:17:57.000Z</time>
      </trkpt>
      <trkpt lat="43.56813" lon="3.28806">
        <ele>202.451828</ele>
        <time>2022-02-24T14:17:58.000Z</time>
      </trkpt>
      <trkpt lat="43.56812" lon="3.28806">
        <ele>202.632401</ele>
        <time>2022-02-24T14:17:59.000Z</time>
      </trkpt>
      <trkpt lat="43.56811" lon="3.28807">
        <ele>202.781908</ele>
        <time>2022-02-24T14:18:00.000Z</time>
      </trkpt>
      <trkpt lat="43.5681" lon="3.28808">
        <ele>202.96534</ele>
        <time>2022-02-24T14:18:02.000Z</time>
      </trkpt>
      <trkpt lat="43.56809" lon="3.2881">
        <ele>203.1911</ele>
        <time>2022-02-24T14:18:03.000Z</time>
      </trkpt>
      <trkpt lat="43.56807" lon="3.28813">
        <ele>203.445146</ele>
        <time>2022-02-24T14:18:04.000Z</time>
      </trkpt>
      <trkpt lat="43.56806" lon="3.28815">
        <ele>203.727937</ele>
        <time>2022-02-24T14:18:05.000Z</time>
      </trkpt>
      <trkpt lat="43.56804" lon="3.28818">
        <ele>204.031315</ele>
        <time>2022-02-24T14:18:07.000Z</time>
      </trkpt>
      <trkpt lat="43.56803" lon="3.28821">
        <ele>204.341993</ele>
        <time>2022-02-24T14:18:08.000Z</time>
      </trkpt>
      <trkpt lat="43.56801" lon="3.28823">
        <ele>204.631547</ele>
        <time>2022-02-24T14:18:09.000Z</time>
      </trkpt>
      <trkpt lat="43.568" lon="3.28826">
        <ele>204.934926</ele>
        <time>2022-02-24T14:18:10.000Z</time>
      </trkpt>
      <trkpt lat="43.56798" lon="3.28829">
        <ele>205.266974</ele>
        <time>2022-02-24T14:18:12.000Z</time>
      </trkpt>
      <trkpt lat="43.56796" lon="3.28833">
        <ele>205.627416</ele>
        <time>2022-02-24T14:18:13.000Z</time>
      </trkpt>
      <trkpt lat="43.56794" lon="3.28836">
        <ele>206.008961</ele>
        <time>2022-02-24T14:18:14.000Z</time>
      </trkpt>
      <trkpt lat="43.56793" lon="3.28838">
        <ele>206.256377</ele>
        <time>2022-02-24T14:18:16.000Z</time>
      </trkpt>
      <trkpt lat="43.56788" lon="3.28849">
        <ele>207.427511</ele>
        <time>2022-02-24T14:18:18.000Z</time>
      </trkpt>
      <trkpt lat="43.56785" lon="3.28854">
        <ele>207.943497</ele>
        <time>2022-02-24T14:18:19.000Z</time>
      </trkpt>
      <trkpt lat="43.56784" lon="3.28858">
        <ele>208.275545</ele>
        <time>2022-02-24T14:18:20.000Z</time>
      </trkpt>
      <trkpt lat="43.56782" lon="3.2886">
        <ele>208.553333</ele>
        <time>2022-02-24T14:18:21.000Z</time>
      </trkpt>
      <trkpt lat="43.56781" lon="3.28862">
        <ele>208.792338</ele>
        <time>2022-02-24T14:18:22.000Z</time>
      </trkpt>
      <trkpt lat="43.56779" lon="3.28863">
        <ele>208.996581</ele>
        <time>2022-02-24T14:18:23.000Z</time>
      </trkpt>
      <trkpt lat="43.56778" lon="3.28863">
        <ele>209.180281</ele>
        <time>2022-02-24T14:18:24.000Z</time>
      </trkpt>
      <trkpt lat="43.56776" lon="3.28863">
        <ele>209.326919</ele>
        <time>2022-02-24T14:18:25.000Z</time>
      </trkpt>
      <trkpt lat="43.56775" lon="3.28862">
        <ele>209.469141</ele>
        <time>2022-02-24T14:18:26.000Z</time>
      </trkpt>
      <trkpt lat="43.56775" lon="3.28861">
        <ele>209.611209</ele>
        <time>2022-02-24T14:18:27.000Z</time>
      </trkpt>
      <trkpt lat="43.56774" lon="3.28859">
        <ele>209.783588</ele>
        <time>2022-02-24T14:18:28.000Z</time>
      </trkpt>
      <trkpt lat="43.56774" lon="3.28857">
        <ele>209.957833</ele>
        <time>2022-02-24T14:18:29.000Z</time>
      </trkpt>
      <trkpt lat="43.56774" lon="3.28855">
        <ele>210.132079</ele>
        <time>2022-02-24T14:18:30.000Z</time>
      </trkpt>
      <trkpt lat="43.56775" lon="3.28853">
        <ele>210.329691</ele>
        <time>2022-02-24T14:18:31.000Z</time>
      </trkpt>
      <trkpt lat="43.56775" lon="3.28851">
        <ele>210.535765</ele>
        <time>2022-02-24T14:18:32.000Z</time>
      </trkpt>
      <trkpt lat="43.56776" lon="3.28848">
        <ele>210.789904</ele>
        <time>2022-02-24T14:18:34.000Z</time>
      </trkpt>
      <trkpt lat="43.56777" lon="3.28844">
        <ele>211.138339</ele>
        <time>2022-02-24T14:18:36.000Z</time>
      </trkpt>
      <trkpt lat="43.56778" lon="3.2884">
        <ele>211.530737</ele>
        <time>2022-02-24T14:18:37.000Z</time>
      </trkpt>
      <trkpt lat="43.5678" lon="3.28836">
        <ele>211.924074</ele>
        <time>2022-02-24T14:18:38.000Z</time>
      </trkpt>
      <trkpt lat="43.56781" lon="3.28832">
        <ele>212.32959</ele>
        <time>2022-02-24T14:18:40.000Z</time>
      </trkpt>
      <trkpt lat="43.56782" lon="3.28827">
        <ele>212.722926</ele>
        <time>2022-02-24T14:18:41.000Z</time>
      </trkpt>
      <trkpt lat="43.56783" lon="3.28823">
        <ele>213.112013</ele>
        <time>2022-02-24T14:18:42.000Z</time>
      </trkpt>
      <trkpt lat="43.56784" lon="3.28819">
        <ele>213.498792</ele>
        <time>2022-02-24T14:18:43.000Z</time>
      </trkpt>
      <trkpt lat="43.56784" lon="3.28815">
        <ele>213.857303</ele>
        <time>2022-02-24T14:18:44.000Z</time>
      </trkpt>
      <trkpt lat="43.56785" lon="3.28811">
        <ele>214.226365</ele>
        <time>2022-02-24T14:18:45.000Z</time>
      </trkpt>
      <trkpt lat="43.56785" lon="3.28807">
        <ele>214.586791</ele>
        <time>2022-02-24T14:18:46.000Z</time>
      </trkpt>
      <trkpt lat="43.56786" lon="3.28802">
        <ele>214.973136</ele>
        <time>2022-02-24T14:18:47.000Z</time>
      </trkpt>
      <trkpt lat="43.56786" lon="3.28798">
        <ele>215.347763</ele>
        <time>2022-02-24T14:18:48.000Z</time>
      </trkpt>
      <trkpt lat="43.56786" lon="3.28794">
        <ele>215.713677</ele>
        <time>2022-02-24T14:18:49.000Z</time>
      </trkpt>
      <trkpt lat="43.56786" lon="3.2879">
        <ele>216.079592</ele>
        <time>2022-02-24T14:18:51.000Z</time>
      </trkpt>
      <trkpt lat="43.56785" lon="3.28785">
        <ele>216.465937</ele>
        <time>2022-02-24T14:18:52.000Z</time>
      </trkpt>
      <trkpt lat="43.56785" lon="3.28781">
        <ele>216.826363</ele>
        <time>2022-02-24T14:18:53.000Z</time>
      </trkpt>
      <trkpt lat="43.56784" lon="3.28777">
        <ele>217.178156</ele>
        <time>2022-02-24T14:18:54.000Z</time>
      </trkpt>
      <trkpt lat="43.56784" lon="3.28773">
        <ele>217.521321</ele>
        <time>2022-02-24T14:18:55.000Z</time>
      </trkpt>
      <trkpt lat="43.56784" lon="3.28769">
        <ele>217.863009</ele>
        <time>2022-02-24T14:18:56.000Z</time>
      </trkpt>
      <trkpt lat="43.56783" lon="3.28765">
        <ele>218.232937</ele>
        <time>2022-02-24T14:18:57.000Z</time>
      </trkpt>
      <trkpt lat="43.56782" lon="3.28761">
        <ele>218.577695</ele>
        <time>2022-02-24T14:18:58.000Z</time>
      </trkpt>
      <trkpt lat="43.56781" lon="3.28757">
        <ele>218.906768</ele>
        <time>2022-02-24T14:19:00.000Z</time>
      </trkpt>
      <trkpt lat="43.56781" lon="3.28754">
        <ele>219.187785</ele>
        <time>2022-02-24T14:19:01.000Z</time>
      </trkpt>
      <trkpt lat="43.5678" lon="3.2875">
        <ele>219.494352</ele>
        <time>2022-02-24T14:19:02.000Z</time>
      </trkpt>
      <trkpt lat="43.56779" lon="3.28746">
        <ele>219.802724</ele>
        <time>2022-02-24T14:19:03.000Z</time>
      </trkpt>
      <trkpt lat="43.56778" lon="3.28742">
        <ele>220.10054</ele>
        <time>2022-02-24T14:19:04.000Z</time>
      </trkpt>
      <trkpt lat="43.56776" lon="3.28738">
        <ele>220.395569</ele>
        <time>2022-02-24T14:19:05.000Z</time>
      </trkpt>
      <trkpt lat="43.56775" lon="3.28735">
        <ele>220.673228</ele>
        <time>2022-02-24T14:19:06.000Z</time>
      </trkpt>
      <trkpt lat="43.56774" lon="3.28731">
        <ele>220.955034</ele>
        <time>2022-02-24T14:19:07.000Z</time>
      </trkpt>
      <trkpt lat="43.56773" lon="3.28728">
        <ele>221.205287</ele>
        <time>2022-02-24T14:19:08.000Z</time>
      </trkpt>
      <trkpt lat="43.56773" lon="3.28724">
        <ele>221.486304</ele>
        <time>2022-02-24T14:19:10.000Z</time>
      </trkpt>
      <trkpt lat="43.56772" lon="3.2872">
        <ele>221.774303</ele>
        <time>2022-02-24T14:19:11.000Z</time>
      </trkpt>
      <trkpt lat="43.56772" lon="3.28717">
        <ele>222.030807</ele>
        <time>2022-02-24T14:19:12.000Z</time>
      </trkpt>
      <trkpt lat="43.56772" lon="3.28713">
        <ele>222.278257</ele>
        <time>2022-02-24T14:19:13.000Z</time>
      </trkpt>
      <trkpt lat="43.56772" lon="3.2871">
        <ele>222.520312</ele>
        <time>2022-02-24T14:19:14.000Z</time>
      </trkpt>
      <trkpt lat="43.56773" lon="3.28707">
        <ele>222.752968</ele>
        <time>2022-02-24T14:19:15.000Z</time>
      </trkpt>
      <trkpt lat="43.56774" lon="3.28704">
        <ele>222.984777</ele>
        <time>2022-02-24T14:19:17.000Z</time>
      </trkpt>
      <trkpt lat="43.56775" lon="3.28702">
        <ele>223.233042</ele>
        <time>2022-02-24T14:19:18.000Z</time>
      </trkpt>
      <trkpt lat="43.56777" lon="3.28699">
        <ele>223.469275</ele>
        <time>2022-02-24T14:19:19.000Z</time>
      </trkpt>
      <trkpt lat="43.56779" lon="3.28697">
        <ele>223.763347</ele>
        <time>2022-02-24T14:19:21.000Z</time>
      </trkpt>
      <trkpt lat="43.56782" lon="3.28695">
        <ele>224.07829</ele>
        <time>2022-02-24T14:19:22.000Z</time>
      </trkpt>
      <trkpt lat="43.56785" lon="3.28693">
        <ele>224.404039</ele>
        <time>2022-02-24T14:19:24.000Z</time>
      </trkpt>
      <trkpt lat="43.56788" lon="3.28692">
        <ele>224.691274</ele>
        <time>2022-02-24T14:19:25.000Z</time>
      </trkpt>
      <trkpt lat="43.56791" lon="3.28691">
        <ele>224.998185</ele>
        <time>2022-02-24T14:19:26.000Z</time>
      </trkpt>
      <trkpt lat="43.56794" lon="3.2869">
        <ele>225.311688</ele>
        <time>2022-02-24T14:19:27.000Z</time>
      </trkpt>
      <trkpt lat="43.56797" lon="3.2869">
        <ele>225.614429</ele>
        <time>2022-02-24T14:19:28.000Z</time>
      </trkpt>
      <trkpt lat="43.568" lon="3.2869">
        <ele>225.926153</ele>
        <time>2022-02-24T14:19:29.000Z</time>
      </trkpt>
      <trkpt lat="43.56803" lon="3.2869">
        <ele>226.227491</ele>
        <time>2022-02-24T14:19:30.000Z</time>
      </trkpt>
      <trkpt lat="43.56806" lon="3.2869">
        <ele>226.579128</ele>
        <time>2022-02-24T14:19:31.000Z</time>
      </trkpt>
      <trkpt lat="43.5681" lon="3.2869">
        <ele>226.920723</ele>
        <time>2022-02-24T14:19:33.000Z</time>
      </trkpt>
      <trkpt lat="43.56815" lon="3.2869">
        <ele>227.493313</ele>
        <time>2022-02-24T14:19:35.000Z</time>
      </trkpt>
      <trkpt lat="43.56818" lon="3.2869">
        <ele>227.764517</ele>
        <time>2022-02-24T14:19:36.000Z</time>
      </trkpt>
      <trkpt lat="43.56821" lon="3.2869">
        <ele>228.036113</ele>
        <time>2022-02-24T14:19:37.000Z</time>
      </trkpt>
      <trkpt lat="43.56826" lon="3.28691">
        <ele>228.569273</ele>
        <time>2022-02-24T14:19:39.000Z</time>
      </trkpt>
      <trkpt lat="43.56829" lon="3.28691">
        <ele>228.842036</ele>
        <time>2022-02-24T14:19:40.000Z</time>
      </trkpt>
      <trkpt lat="43.56832" lon="3.28691">
        <ele>229.145563</ele>
        <time>2022-02-24T14:19:42.000Z</time>
      </trkpt>
      <trkpt lat="43.56835" lon="3.28692">
        <ele>229.499827</ele>
        <time>2022-02-24T14:19:43.000Z</time>
      </trkpt>
      <trkpt lat="43.56838" lon="3.28693">
        <ele>229.808202</ele>
        <time>2022-02-24T14:19:44.000Z</time>
      </trkpt>
      <trkpt lat="43.56841" lon="3.28694">
        <ele>230.1264</ele>
        <time>2022-02-24T14:19:45.000Z</time>
      </trkpt>
      <trkpt lat="43.56844" lon="3.28695">
        <ele>230.434775</ele>
        <time>2022-02-24T14:19:46.000Z</time>
      </trkpt>
      <trkpt lat="43.56848" lon="3.28696">
        <ele>230.793791</ele>
        <time>2022-02-24T14:19:48.000Z</time>
      </trkpt>
      <trkpt lat="43.56851" lon="3.28697">
        <ele>231.144566</ele>
        <time>2022-02-24T14:19:49.000Z</time>
      </trkpt>
      <trkpt lat="43.56855" lon="3.28698">
        <ele>231.493751</ele>
        <time>2022-02-24T14:19:51.000Z</time>
      </trkpt>
      <trkpt lat="43.56858" lon="3.28699">
        <ele>231.811949</ele>
        <time>2022-02-24T14:19:52.000Z</time>
      </trkpt>
      <trkpt lat="43.56861" lon="3.28699">
        <ele>232.1554</ele>
        <time>2022-02-24T14:19:53.000Z</time>
      </trkpt>
      <trkpt lat="43.56865" lon="3.28699">
        <ele>232.496917</ele>
        <time>2022-02-24T14:19:54.000Z</time>
      </trkpt>
      <trkpt lat="43.56868" lon="3.28698">
        <ele>232.815114</ele>
        <time>2022-02-24T14:19:55.000Z</time>
      </trkpt>
      <trkpt lat="43.5687" lon="3.28697">
        <ele>233.116301</ele>
        <time>2022-02-24T14:19:56.000Z</time>
      </trkpt>
      <trkpt lat="43.56873" lon="3.28694">
        <ele>233.407227</ele>
        <time>2022-02-24T14:19:57.000Z</time>
      </trkpt>
      <trkpt lat="43.56875" lon="3.28691">
        <ele>233.720338</ele>
        <time>2022-02-24T14:19:58.000Z</time>
      </trkpt>
      <trkpt lat="43.56876" lon="3.28687">
        <ele>234.022573</ele>
        <time>2022-02-24T14:19:59.000Z</time>
      </trkpt>
      <trkpt lat="43.56877" lon="3.28683">
        <ele>234.306919</ele>
        <time>2022-02-24T14:20:00.000Z</time>
      </trkpt>
      <trkpt lat="43.56878" lon="3.2868">
        <ele>234.564792</ele>
        <time>2022-02-24T14:20:01.000Z</time>
      </trkpt>
      <trkpt lat="43.56878" lon="3.28676">
        <ele>234.83407</ele>
        <time>2022-02-24T14:20:03.000Z</time>
      </trkpt>
      <trkpt lat="43.56877" lon="3.28673">
        <ele>235.084757</ele>
        <time>2022-02-24T14:20:04.000Z</time>
      </trkpt>
      <trkpt lat="43.56877" lon="3.2867">
        <ele>235.328262</ele>
        <time>2022-02-24T14:20:05.000Z</time>
      </trkpt>
      <trkpt lat="43.56876" lon="3.28666">
        <ele>235.570312</ele>
        <time>2022-02-24T14:20:06.000Z</time>
      </trkpt>
      <trkpt lat="43.56876" lon="3.28663">
        <ele>235.83741</ele>
        <time>2022-02-24T14:20:07.000Z</time>
      </trkpt>
      <trkpt lat="43.56875" lon="3.28659">
        <ele>236.111457</ele>
        <time>2022-02-24T14:20:08.000Z</time>
      </trkpt>
      <trkpt lat="43.56874" lon="3.28655">
        <ele>236.396812</ele>
        <time>2022-02-24T14:20:09.000Z</time>
      </trkpt>
      <trkpt lat="43.56873" lon="3.28652">
        <ele>236.684807</ele>
        <time>2022-02-24T14:20:10.000Z</time>
      </trkpt>
      <trkpt lat="43.56873" lon="3.28648">
        <ele>236.94239</ele>
        <time>2022-02-24T14:20:11.000Z</time>
      </trkpt>
      <trkpt lat="43.56871" lon="3.28644">
        <ele>237.179301</ele>
        <time>2022-02-24T14:20:12.000Z</time>
      </trkpt>
      <trkpt lat="43.5687" lon="3.2864">
        <ele>237.410846</ele>
        <time>2022-02-24T14:20:14.000Z</time>
      </trkpt>
      <trkpt lat="43.56869" lon="3.28637">
        <ele>237.645541</ele>
        <time>2022-02-24T14:20:15.000Z</time>
      </trkpt>
      <trkpt lat="43.56868" lon="3.28633">
        <ele>237.87174</ele>
        <time>2022-02-24T14:20:16.000Z</time>
      </trkpt>
      <trkpt lat="43.56866" lon="3.28629">
        <ele>238.111335</ele>
        <time>2022-02-24T14:20:17.000Z</time>
      </trkpt>
      <trkpt lat="43.56865" lon="3.28626">
        <ele>238.350862</ele>
        <time>2022-02-24T14:20:18.000Z</time>
      </trkpt>
      <trkpt lat="43.56863" lon="3.28624">
        <ele>238.56062</ele>
        <time>2022-02-24T14:20:19.000Z</time>
      </trkpt>
      <trkpt lat="43.5686" lon="3.28622">
        <ele>238.759218</ele>
        <time>2022-02-24T14:20:20.000Z</time>
      </trkpt>
      <trkpt lat="43.56858" lon="3.28623">
        <ele>238.912028</ele>
        <time>2022-02-24T14:20:22.000Z</time>
      </trkpt>
      <trkpt lat="43.56857" lon="3.28624">
        <ele>239.053558</ele>
        <time>2022-02-24T14:20:23.000Z</time>
      </trkpt>
      <trkpt lat="43.56856" lon="3.28626">
        <ele>239.189888</ele>
        <time>2022-02-24T14:20:24.000Z</time>
      </trkpt>
      <trkpt lat="43.56855" lon="3.28629">
        <ele>239.358772</ele>
        <time>2022-02-24T14:20:25.000Z</time>
      </trkpt>
      <trkpt lat="43.56854" lon="3.28632">
        <ele>239.574349</ele>
        <time>2022-02-24T14:20:27.000Z</time>
      </trkpt>
      <trkpt lat="43.56853" lon="3.28636">
        <ele>239.809044</ele>
        <time>2022-02-24T14:20:28.000Z</time>
      </trkpt>
      <trkpt lat="43.56851" lon="3.28639">
        <ele>240.071603</ele>
        <time>2022-02-24T14:20:29.000Z</time>
      </trkpt>
      <trkpt lat="43.56849" lon="3.28642">
        <ele>240.30668</ele>
        <time>2022-02-24T14:20:30.000Z</time>
      </trkpt>
      <trkpt lat="43.56846" lon="3.28645">
        <ele>240.566479</ele>
        <time>2022-02-24T14:20:31.000Z</time>
      </trkpt>
      <trkpt lat="43.56844" lon="3.28647">
        <ele>240.793949</ele>
        <time>2022-02-24T14:20:32.000Z</time>
      </trkpt>
      <trkpt lat="43.56841" lon="3.28647">
        <ele>241.011628</ele>
        <time>2022-02-24T14:20:33.000Z</time>
      </trkpt>
      <trkpt lat="43.56838" lon="3.28647">
        <ele>241.227683</ele>
        <time>2022-02-24T14:20:35.000Z</time>
      </trkpt>
      <trkpt lat="43.56836" lon="3.28646">
        <ele>241.420369</ele>
        <time>2022-02-24T14:20:36.000Z</time>
      </trkpt>
      <trkpt lat="43.56834" lon="3.28645">
        <ele>241.618967</ele>
        <time>2022-02-24T14:20:37.000Z</time>
      </trkpt>
      <trkpt lat="43.56831" lon="3.28643">
        <ele>241.833155</ele>
        <time>2022-02-24T14:20:38.000Z</time>
      </trkpt>
      <trkpt lat="43.56829" lon="3.2864">
        <ele>242.096671</ele>
        <time>2022-02-24T14:20:40.000Z</time>
      </trkpt>
      <trkpt lat="43.56826" lon="3.28637">
        <ele>242.409499</ele>
        <time>2022-02-24T14:20:41.000Z</time>
      </trkpt>
      <trkpt lat="43.56823" lon="3.28633">
        <ele>242.670459</ele>
        <time>2022-02-24T14:20:42.000Z</time>
      </trkpt>
      <trkpt lat="43.56821" lon="3.2863">
        <ele>242.925854</ele>
        <time>2022-02-24T14:20:44.000Z</time>
      </trkpt>
      <trkpt lat="43.56819" lon="3.28627">
        <ele>243.199418</ele>
        <time>2022-02-24T14:20:45.000Z</time>
      </trkpt>
      <trkpt lat="43.56817" lon="3.28623">
        <ele>243.468722</ele>
        <time>2022-02-24T14:20:46.000Z</time>
      </trkpt>
      <trkpt lat="43.56814" lon="3.2862">
        <ele>243.733823</ele>
        <time>2022-02-24T14:20:47.000Z</time>
      </trkpt>
      <trkpt lat="43.56812" lon="3.28617">
        <ele>243.994783</ele>
        <time>2022-02-24T14:20:48.000Z</time>
      </trkpt>
      <trkpt lat="43.5681" lon="3.28613">
        <ele>244.259885</ele>
        <time>2022-02-24T14:20:49.000Z</time>
      </trkpt>
      <trkpt lat="43.56807" lon="3.2861">
        <ele>244.524986</ele>
        <time>2022-02-24T14:20:51.000Z</time>
      </trkpt>
      <trkpt lat="43.56805" lon="3.28607">
        <ele>244.790088</ele>
        <time>2022-02-24T14:20:52.000Z</time>
      </trkpt>
      <trkpt lat="43.56803" lon="3.28604">
        <ele>245.051048</ele>
        <time>2022-02-24T14:20:53.000Z</time>
      </trkpt>
      <trkpt lat="43.56801" lon="3.28601">
        <ele>245.286126</ele>
        <time>2022-02-24T14:20:54.000Z</time>
      </trkpt>
      <trkpt lat="43.56799" lon="3.28597">
        <ele>245.551228</ele>
        <time>2022-02-24T14:20:55.000Z</time>
      </trkpt>
      <trkpt lat="43.56796" lon="3.28594">
        <ele>245.802456</ele>
        <time>2022-02-24T14:20:57.000Z</time>
      </trkpt>
      <trkpt lat="43.56794" lon="3.28591">
        <ele>246.063416</ele>
        <time>2022-02-24T14:20:58.000Z</time>
      </trkpt>
      <trkpt lat="43.56792" lon="3.28588">
        <ele>246.324376</ele>
        <time>2022-02-24T14:20:59.000Z</time>
      </trkpt>
      <trkpt lat="43.56789" lon="3.28585">
        <ele>246.581258</ele>
        <time>2022-02-24T14:21:00.000Z</time>
      </trkpt>
      <trkpt lat="43.56787" lon="3.28582">
        <ele>246.854637</ele>
        <time>2022-02-24T14:21:01.000Z</time>
      </trkpt>
      <trkpt lat="43.56784" lon="3.28578">
        <ele>247.14669</ele>
        <time>2022-02-24T14:21:03.000Z</time>
      </trkpt>
      <trkpt lat="43.56781" lon="3.28575">
        <ele>247.417484</ele>
        <time>2022-02-24T14:21:04.000Z</time>
      </trkpt>
      <trkpt lat="43.56779" lon="3.28573">
        <ele>247.662547</ele>
        <time>2022-02-24T14:21:05.000Z</time>
      </trkpt>
      <trkpt lat="43.56777" lon="3.28569">
        <ele>247.923508</ele>
        <time>2022-02-24T14:21:06.000Z</time>
      </trkpt>
      <trkpt lat="43.56775" lon="3.28567">
        <ele>248.164779</ele>
        <time>2022-02-24T14:21:07.000Z</time>
      </trkpt>
      <trkpt lat="43.56773" lon="3.28564">
        <ele>248.378576</ele>
        <time>2022-02-24T14:21:08.000Z</time>
      </trkpt>
      <trkpt lat="43.5677" lon="3.28561">
        <ele>248.631447</ele>
        <time>2022-02-24T14:21:10.000Z</time>
      </trkpt>
      <trkpt lat="43.56768" lon="3.28558">
        <ele>248.927434</ele>
        <time>2022-02-24T14:21:12.000Z</time>
      </trkpt>
      <trkpt lat="43.56765" lon="3.28554">
        <ele>249.217647</ele>
        <time>2022-02-24T14:21:13.000Z</time>
      </trkpt>
      <trkpt lat="43.56762" lon="3.2855">
        <ele>249.517627</ele>
        <time>2022-02-24T14:21:14.000Z</time>
      </trkpt>
      <trkpt lat="43.56761" lon="3.28548">
        <ele>249.688356</ele>
        <time>2022-02-24T14:21:16.000Z</time>
      </trkpt>
      <trkpt lat="43.56753" lon="3.28538">
        <ele>250.558629</ele>
        <time>2022-02-24T14:21:17.000Z</time>
      </trkpt>
      <trkpt lat="43.56749" lon="3.28534">
        <ele>250.936928</ele>
        <time>2022-02-24T14:21:18.000Z</time>
      </trkpt>
      <trkpt lat="43.56747" lon="3.2853">
        <ele>251.197021</ele>
        <time>2022-02-24T14:21:19.000Z</time>
      </trkpt>
      <trkpt lat="43.56745" lon="3.28527">
        <ele>251.215937</ele>
        <time>2022-02-24T14:21:20.000Z</time>
      </trkpt>
      <trkpt lat="43.56743" lon="3.28524">
        <ele>251.237225</ele>
        <time>2022-02-24T14:21:22.000Z</time>
      </trkpt>
      <trkpt lat="43.56741" lon="3.28522">
        <ele>251.251589</ele>
        <time>2022-02-24T14:21:24.000Z</time>
      </trkpt>
      <trkpt lat="43.56734" lon="3.2851">
        <ele>251.320062</ele>
        <time>2022-02-24T14:21:26.000Z</time>
      </trkpt>
      <trkpt lat="43.56732" lon="3.28507">
        <ele>251.33539</ele>
        <time>2022-02-24T14:21:28.000Z</time>
      </trkpt>
      <trkpt lat="43.56728" lon="3.28498">
        <ele>251.386121</ele>
        <time>2022-02-24T14:21:30.000Z</time>
      </trkpt>
      <trkpt lat="43.56726" lon="3.28496">
        <ele>251.39889</ele>
        <time>2022-02-24T14:21:32.000Z</time>
      </trkpt>
      <trkpt lat="43.56723" lon="3.28489">
        <ele>251.43361</ele>
        <time>2022-02-24T14:21:34.000Z</time>
      </trkpt>
      <trkpt lat="43.56722" lon="3.28487">
        <ele>251.445309</ele>
        <time>2022-02-24T14:21:35.000Z</time>
      </trkpt>
      <trkpt lat="43.56722" lon="3.28486">
        <ele>251.452755</ele>
        <time>2022-02-24T14:21:36.000Z</time>
      </trkpt>
      <trkpt lat="43.56718" lon="3.28486">
        <ele>251.478886</ele>
        <time>2022-02-24T14:27:26.000Z</time>
      </trkpt>
      <trkpt lat="43.56717" lon="3.28487">
        <ele>251.483642</ele>
        <time>2022-02-24T14:27:30.000Z</time>
      </trkpt>
      <trkpt lat="43.56712" lon="3.285">
        <ele>251.54876</ele>
        <time>2022-02-24T14:27:32.000Z</time>
      </trkpt>
      <trkpt lat="43.56703" lon="3.28524">
        <ele>251.671595</ele>
        <time>2022-02-24T14:27:34.000Z</time>
      </trkpt>
      <trkpt lat="43.56699" lon="3.28534">
        <ele>251.721672</ele>
        <time>2022-02-24T14:27:36.000Z</time>
      </trkpt>
      <trkpt lat="43.56694" lon="3.28545">
        <ele>251.780174</ele>
        <time>2022-02-24T14:27:38.000Z</time>
      </trkpt>
      <trkpt lat="43.56693" lon="3.28547">
        <ele>251.793351</ele>
        <time>2022-02-24T14:27:40.000Z</time>
      </trkpt>
      <trkpt lat="43.56684" lon="3.28563">
        <ele>251.88729</ele>
        <time>2022-02-24T14:27:42.000Z</time>
      </trkpt>
      <trkpt lat="43.56673" lon="3.28577">
        <ele>251.978132</ele>
        <time>2022-02-24T14:27:44.000Z</time>
      </trkpt>
      <trkpt lat="43.56665" lon="3.28588">
        <ele>252.050463</ele>
        <time>2022-02-24T14:27:46.000Z</time>
      </trkpt>
      <trkpt lat="43.56657" lon="3.28596">
        <ele>252.110169</ele>
        <time>2022-02-24T14:27:48.000Z</time>
      </trkpt>
      <trkpt lat="43.56652" lon="3.28601">
        <ele>252.145228</ele>
        <time>2022-02-24T14:27:50.000Z</time>
      </trkpt>
      <trkpt lat="43.56643" lon="3.28612">
        <ele>252.224823</ele>
        <time>2022-02-24T14:27:52.000Z</time>
      </trkpt>
      <trkpt lat="43.56641" lon="3.28613">
        <ele>252.234127</ele>
        <time>2022-02-24T14:27:54.000Z</time>
      </trkpt>
      <trkpt lat="43.56629" lon="3.28625">
        <ele>252.369328</ele>
        <time>2022-02-24T14:27:56.000Z</time>
      </trkpt>
      <trkpt lat="43.56628" lon="3.28626">
        <ele>252.398457</ele>
        <time>2022-02-24T14:27:58.000Z</time>
      </trkpt>
      <trkpt lat="43.56615" lon="3.28633">
        <ele>252.69577</ele>
        <time>2022-02-24T14:28:00.000Z</time>
      </trkpt>
      <trkpt lat="43.56612" lon="3.28635">
        <ele>252.767113</ele>
        <time>2022-02-24T14:28:02.000Z</time>
      </trkpt>
      <trkpt lat="43.5661" lon="3.28636">
        <ele>252.832189</ele>
        <time>2022-02-24T14:28:03.000Z</time>
      </trkpt>
      <trkpt lat="43.56607" lon="3.28638">
        <ele>252.897266</ele>
        <time>2022-02-24T14:28:04.000Z</time>
      </trkpt>
      <trkpt lat="43.56604" lon="3.2864">
        <ele>252.962303</ele>
        <time>2022-02-24T14:28:06.000Z</time>
      </trkpt>
      <trkpt lat="43.56601" lon="3.28642">
        <ele>253.038143</ele>
        <time>2022-02-24T14:28:07.000Z</time>
      </trkpt>
      <trkpt lat="43.56598" lon="3.28644">
        <ele>253.115675</ele>
        <time>2022-02-24T14:28:08.000Z</time>
      </trkpt>
      <trkpt lat="43.56595" lon="3.28647">
        <ele>253.200329</ele>
        <time>2022-02-24T14:28:09.000Z</time>
      </trkpt>
      <trkpt lat="43.56593" lon="3.2865">
        <ele>253.280969</ele>
        <time>2022-02-24T14:28:10.000Z</time>
      </trkpt>
      <trkpt lat="43.5659" lon="3.28654">
        <ele>253.362176</ele>
        <time>2022-02-24T14:28:11.000Z</time>
      </trkpt>
      <trkpt lat="43.56587" lon="3.28658">
        <ele>253.449564</ele>
        <time>2022-02-24T14:28:13.000Z</time>
      </trkpt>
      <trkpt lat="43.56585" lon="3.28662">
        <ele>253.538129</ele>
        <time>2022-02-24T14:28:14.000Z</time>
      </trkpt>
      <trkpt lat="43.56582" lon="3.28666">
        <ele>253.625186</ele>
        <time>2022-02-24T14:28:15.000Z</time>
      </trkpt>
      <trkpt lat="43.56579" lon="3.2867">
        <ele>253.712574</ele>
        <time>2022-02-24T14:28:17.000Z</time>
      </trkpt>
      <trkpt lat="43.56577" lon="3.28673">
        <ele>253.798797</ele>
        <time>2022-02-24T14:28:18.000Z</time>
      </trkpt>
      <trkpt lat="43.56574" lon="3.28678">
        <ele>253.895505</ele>
        <time>2022-02-24T14:28:20.000Z</time>
      </trkpt>
      <trkpt lat="43.5657" lon="3.28682">
        <ele>253.993776</ele>
        <time>2022-02-24T14:28:21.000Z</time>
      </trkpt>
      <trkpt lat="43.56567" lon="3.28686">
        <ele>254.089323</ele>
        <time>2022-02-24T14:28:22.000Z</time>
      </trkpt>
      <trkpt lat="43.56565" lon="3.2869">
        <ele>254.176711</ele>
        <time>2022-02-24T14:28:23.000Z</time>
      </trkpt>
      <trkpt lat="43.56562" lon="3.28694">
        <ele>254.262934</ele>
        <time>2022-02-24T14:28:24.000Z</time>
      </trkpt>
      <trkpt lat="43.56559" lon="3.28697">
        <ele>254.345281</ele>
        <time>2022-02-24T14:28:25.000Z</time>
      </trkpt>
      <trkpt lat="43.56557" lon="3.28701">
        <ele>254.425921</ele>
        <time>2022-02-24T14:28:26.000Z</time>
      </trkpt>
      <trkpt lat="43.56554" lon="3.28704">
        <ele>254.498943</ele>
        <time>2022-02-24T14:28:27.000Z</time>
      </trkpt>
      <trkpt lat="43.56552" lon="3.28707">
        <ele>254.571966</ele>
        <time>2022-02-24T14:28:28.000Z</time>
      </trkpt>
      <trkpt lat="43.5655" lon="3.2871">
        <ele>254.646147</ele>
        <time>2022-02-24T14:28:29.000Z</time>
      </trkpt>
      <trkpt lat="43.56548" lon="3.28714">
        <ele>254.711927</ele>
        <time>2022-02-24T14:28:30.000Z</time>
      </trkpt>
      <trkpt lat="43.56546" lon="3.28717">
        <ele>254.787285</ele>
        <time>2022-02-24T14:28:31.000Z</time>
      </trkpt>
      <trkpt lat="43.56543" lon="3.28721">
        <ele>254.872576</ele>
        <time>2022-02-24T14:28:33.000Z</time>
      </trkpt>
      <trkpt lat="43.56541" lon="3.28725">
        <ele>254.947374</ele>
        <time>2022-02-24T14:28:34.000Z</time>
      </trkpt>
      <trkpt lat="43.5654" lon="3.28729">
        <ele>255.020845</ele>
        <time>2022-02-24T14:28:36.000Z</time>
      </trkpt>
      <trkpt lat="43.56538" lon="3.28732">
        <ele>255.089132</ele>
        <time>2022-02-24T14:28:37.000Z</time>
      </trkpt>
      <trkpt lat="43.56536" lon="3.28735">
        <ele>255.156157</ele>
        <time>2022-02-24T14:28:38.000Z</time>
      </trkpt>
      <trkpt lat="43.56532" lon="3.28742">
        <ele>255.290007</ele>
        <time>2022-02-24T14:28:40.000Z</time>
      </trkpt>
      <trkpt lat="43.56531" lon="3.28746">
        <ele>255.368787</ele>
        <time>2022-02-24T14:28:42.000Z</time>
      </trkpt>
      <trkpt lat="43.56529" lon="3.28751">
        <ele>255.449996</ele>
        <time>2022-02-24T14:28:43.000Z</time>
      </trkpt>
      <trkpt lat="43.56527" lon="3.28756">
        <ele>255.544346</ele>
        <time>2022-02-24T14:28:44.000Z</time>
      </trkpt>
      <trkpt lat="43.56525" lon="3.28761">
        <ele>255.637577</ele>
        <time>2022-02-24T14:28:46.000Z</time>
      </trkpt>
      <trkpt lat="43.56509" lon="3.28793">
        <ele>256.263769</ele>
        <time>2022-02-24T14:28:48.000Z</time>
      </trkpt>
      <trkpt lat="43.56506" lon="3.28799">
        <ele>256.269659</ele>
        <time>2022-02-24T14:28:50.000Z</time>
      </trkpt>
      <trkpt lat="43.56499" lon="3.28815">
        <ele>255.840898</ele>
        <time>2022-02-24T14:28:52.000Z</time>
      </trkpt>
      <trkpt lat="43.56486" lon="3.28836">
        <ele>255.235945</ele>
        <time>2022-02-24T14:28:54.000Z</time>
      </trkpt>
      <trkpt lat="43.56484" lon="3.28836">
        <ele>255.176381</ele>
        <time>2022-02-24T14:28:56.000Z</time>
      </trkpt>
      <trkpt lat="43.56466" lon="3.28846">
        <ele>254.558798</ele>
        <time>2022-02-24T14:28:58.000Z</time>
      </trkpt>
      <trkpt lat="43.56459" lon="3.28856">
        <ele>254.272076</ele>
        <time>2022-02-24T14:29:00.000Z</time>
      </trkpt>
      <trkpt lat="43.56458" lon="3.28858">
        <ele>254.196159</ele>
        <time>2022-02-24T14:29:02.000Z</time>
      </trkpt>
      <trkpt lat="43.56437" lon="3.28893">
        <ele>253.191724</ele>
        <time>2022-02-24T14:29:04.000Z</time>
      </trkpt>
      <trkpt lat="43.56427" lon="3.28904">
        <ele>252.815518</ele>
        <time>2022-02-24T14:29:06.000Z</time>
      </trkpt>
      <trkpt lat="43.56418" lon="3.28913">
        <ele>252.453036</ele>
        <time>2022-02-24T14:29:08.000Z</time>
      </trkpt>
      <trkpt lat="43.56416" lon="3.28915">
        <ele>252.369321</ele>
        <time>2022-02-24T14:29:10.000Z</time>
      </trkpt>
      <trkpt lat="43.56403" lon="3.28926">
        <ele>251.903523</ele>
        <time>2022-02-24T14:29:12.000Z</time>
      </trkpt>
      <trkpt lat="43.5639" lon="3.28936">
        <ele>251.447359</ele>
        <time>2022-02-24T14:29:14.000Z</time>
      </trkpt>
      <trkpt lat="43.56379" lon="3.28943">
        <ele>251.068708</ele>
        <time>2022-02-24T14:29:16.000Z</time>
      </trkpt>
      <trkpt lat="43.56368" lon="3.28949">
        <ele>250.658176</ele>
        <time>2022-02-24T14:29:18.000Z</time>
      </trkpt>
      <trkpt lat="43.56363" lon="3.28952">
        <ele>250.362699</ele>
        <time>2022-02-24T14:29:20.000Z</time>
      </trkpt>
      <trkpt lat="43.56361" lon="3.28952">
        <ele>250.299609</ele>
        <time>2022-02-24T14:29:22.000Z</time>
      </trkpt>
      <trkpt lat="43.56347" lon="3.28963">
        <ele>249.434999</ele>
        <time>2022-02-24T14:29:24.000Z</time>
      </trkpt>
      <trkpt lat="43.56344" lon="3.28964">
        <ele>249.280429</ele>
        <time>2022-02-24T14:29:25.000Z</time>
      </trkpt>
      <trkpt lat="43.56342" lon="3.28966">
        <ele>249.179335</ele>
        <time>2022-02-24T14:29:26.000Z</time>
      </trkpt>
      <trkpt lat="43.5634" lon="3.28968">
        <ele>249.057127</ele>
        <time>2022-02-24T14:29:27.000Z</time>
      </trkpt>
      <trkpt lat="43.56337" lon="3.28969">
        <ele>248.871213</ele>
        <time>2022-02-24T14:29:28.000Z</time>
      </trkpt>
      <trkpt lat="43.56332" lon="3.28971">
        <ele>248.601102</ele>
        <time>2022-02-24T14:29:30.000Z</time>
      </trkpt>
      <trkpt lat="43.56329" lon="3.28973">
        <ele>248.415188</ele>
        <time>2022-02-24T14:29:32.000Z</time>
      </trkpt>
      <trkpt lat="43.56315" lon="3.28979">
        <ele>247.677876</ele>
        <time>2022-02-24T14:29:34.000Z</time>
      </trkpt>
      <trkpt lat="43.56304" lon="3.28988">
        <ele>246.997546</ele>
        <time>2022-02-24T14:29:36.000Z</time>
      </trkpt>
      <trkpt lat="43.56301" lon="3.28991">
        <ele>246.786527</ele>
        <time>2022-02-24T14:29:37.000Z</time>
      </trkpt>
      <trkpt lat="43.56299" lon="3.28994">
        <ele>246.654892</ele>
        <time>2022-02-24T14:29:38.000Z</time>
      </trkpt>
      <trkpt lat="43.56297" lon="3.28996">
        <ele>246.532683</ele>
        <time>2022-02-24T14:29:39.000Z</time>
      </trkpt>
      <trkpt lat="43.56295" lon="3.28997">
        <ele>246.436203</ele>
        <time>2022-02-24T14:29:40.000Z</time>
      </trkpt>
      <trkpt lat="43.56294" lon="3.28998">
        <ele>246.349439</ele>
        <time>2022-02-24T14:29:41.000Z</time>
      </trkpt>
      <trkpt lat="43.56292" lon="3.28999">
        <ele>246.245976</ele>
        <time>2022-02-24T14:29:42.000Z</time>
      </trkpt>
      <trkpt lat="43.56291" lon="3.29">
        <ele>246.161648</ele>
        <time>2022-02-24T14:29:44.000Z</time>
      </trkpt>
      <trkpt lat="43.56285" lon="3.29012">
        <ele>245.62681</ele>
        <time>2022-02-24T14:29:46.000Z</time>
      </trkpt>
      <trkpt lat="43.56284" lon="3.29016">
        <ele>245.455602</ele>
        <time>2022-02-24T14:29:48.000Z</time>
      </trkpt>
      <trkpt lat="43.56284" lon="3.29018">
        <ele>245.396874</ele>
        <time>2022-02-24T14:29:50.000Z</time>
      </trkpt>
      <trkpt lat="43.56281" lon="3.29036">
        <ele>244.703339</ele>
        <time>2022-02-24T14:29:52.000Z</time>
      </trkpt>
      <trkpt lat="43.56281" lon="3.29038">
        <ele>244.635882</ele>
        <time>2022-02-24T14:29:54.000Z</time>
      </trkpt>
      <trkpt lat="43.56278" lon="3.29056">
        <ele>243.937621</ele>
        <time>2022-02-24T14:29:56.000Z</time>
      </trkpt>
      <trkpt lat="43.56276" lon="3.2906">
        <ele>243.729789</ele>
        <time>2022-02-24T14:29:58.000Z</time>
      </trkpt>
      <trkpt lat="43.56273" lon="3.29065">
        <ele>243.49622</ele>
        <time>2022-02-24T14:30:00.000Z</time>
      </trkpt>
      <trkpt lat="43.56271" lon="3.29066">
        <ele>243.423189</ele>
        <time>2022-02-24T14:30:02.000Z</time>
      </trkpt>
      <trkpt lat="43.56259" lon="3.29074">
        <ele>242.694371</ele>
        <time>2022-02-24T14:30:04.000Z</time>
      </trkpt>
      <trkpt lat="43.56255" lon="3.29075">
        <ele>242.472387</ele>
        <time>2022-02-24T14:30:06.000Z</time>
      </trkpt>
      <trkpt lat="43.56254" lon="3.29075">
        <ele>242.430041</ele>
        <time>2022-02-24T14:30:08.000Z</time>
      </trkpt>
      <trkpt lat="43.56249" lon="3.2908">
        <ele>242.113585</ele>
        <time>2022-02-24T14:30:10.000Z</time>
      </trkpt>
      <trkpt lat="43.56244" lon="3.29086">
        <ele>241.758393</ele>
        <time>2022-02-24T14:30:12.000Z</time>
      </trkpt>
      <trkpt lat="43.56237" lon="3.29097">
        <ele>240.967</ele>
        <time>2022-02-24T14:30:14.000Z</time>
      </trkpt>
      <trkpt lat="43.56236" lon="3.29098">
        <ele>240.844817</ele>
        <time>2022-02-24T14:30:16.000Z</time>
      </trkpt>
      <trkpt lat="43.56232" lon="3.29104">
        <ele>240.218747</ele>
        <time>2022-02-24T14:30:17.000Z</time>
      </trkpt>
      <trkpt lat="43.56229" lon="3.2911">
        <ele>239.634292</ele>
        <time>2022-02-24T14:30:18.000Z</time>
      </trkpt>
      <trkpt lat="43.56226" lon="3.29115">
        <ele>239.170916</ele>
        <time>2022-02-24T14:30:20.000Z</time>
      </trkpt>
      <trkpt lat="43.56223" lon="3.2912">
        <ele>238.637511</ele>
        <time>2022-02-24T14:30:21.000Z</time>
      </trkpt>
      <trkpt lat="43.56221" lon="3.29122">
        <ele>238.281631</ele>
        <time>2022-02-24T14:30:23.000Z</time>
      </trkpt>
      <trkpt lat="43.56218" lon="3.29125">
        <ele>237.961178</ele>
        <time>2022-02-24T14:30:24.000Z</time>
      </trkpt>
      <trkpt lat="43.56216" lon="3.29128">
        <ele>237.620182</ele>
        <time>2022-02-24T14:30:25.000Z</time>
      </trkpt>
      <trkpt lat="43.56213" lon="3.29131">
        <ele>237.233544</ele>
        <time>2022-02-24T14:30:26.000Z</time>
      </trkpt>
      <trkpt lat="43.56211" lon="3.29135">
        <ele>236.822618</ele>
        <time>2022-02-24T14:30:27.000Z</time>
      </trkpt>
      <trkpt lat="43.56208" lon="3.29138">
        <ele>236.435976</ele>
        <time>2022-02-24T14:30:28.000Z</time>
      </trkpt>
      <trkpt lat="43.56206" lon="3.29142">
        <ele>236.0195</ele>
        <time>2022-02-24T14:30:29.000Z</time>
      </trkpt>
      <trkpt lat="43.56203" lon="3.29146">
        <ele>235.557369</ele>
        <time>2022-02-24T14:30:30.000Z</time>
      </trkpt>
      <trkpt lat="43.56199" lon="3.29151">
        <ele>234.995949</ele>
        <time>2022-02-24T14:30:32.000Z</time>
      </trkpt>
      <trkpt lat="43.56196" lon="3.29157">
        <ele>234.385035</ele>
        <time>2022-02-24T14:30:33.000Z</time>
      </trkpt>
      <trkpt lat="43.56193" lon="3.29163">
        <ele>233.813374</ele>
        <time>2022-02-24T14:30:34.000Z</time>
      </trkpt>
      <trkpt lat="43.5619" lon="3.29169">
        <ele>233.253199</ele>
        <time>2022-02-24T14:30:35.000Z</time>
      </trkpt>
      <trkpt lat="43.56187" lon="3.29175">
        <ele>232.699746</ele>
        <time>2022-02-24T14:30:36.000Z</time>
      </trkpt>
      <trkpt lat="43.56184" lon="3.29182">
        <ele>232.068321</ele>
        <time>2022-02-24T14:30:38.000Z</time>
      </trkpt>
      <trkpt lat="43.56182" lon="3.29189">
        <ele>231.47313</ele>
        <time>2022-02-24T14:30:40.000Z</time>
      </trkpt>
      <trkpt lat="43.56173" lon="3.29216">
        <ele>229.121074</ele>
        <time>2022-02-24T14:30:41.000Z</time>
      </trkpt>
      <trkpt lat="43.56169" lon="3.29227">
        <ele>228.120861</ele>
        <time>2022-02-24T14:30:43.000Z</time>
      </trkpt>
      <trkpt lat="43.56166" lon="3.29234">
        <ele>227.489511</ele>
        <time>2022-02-24T14:30:44.000Z</time>
      </trkpt>
      <trkpt lat="43.56165" lon="3.29241">
        <ele>226.940956</ele>
        <time>2022-02-24T14:30:46.000Z</time>
      </trkpt>
      <trkpt lat="43.56163" lon="3.29247">
        <ele>226.437549</ele>
        <time>2022-02-24T14:30:47.000Z</time>
      </trkpt>
      <trkpt lat="43.56162" lon="3.29252">
        <ele>225.94911</ele>
        <time>2022-02-24T14:30:48.000Z</time>
      </trkpt>
      <trkpt lat="43.5616" lon="3.29259">
        <ele>225.363664</ele>
        <time>2022-02-24T14:30:49.000Z</time>
      </trkpt>
      <trkpt lat="43.56158" lon="3.29267">
        <ele>224.731265</ele>
        <time>2022-02-24T14:30:51.000Z</time>
      </trkpt>
      <trkpt lat="43.56157" lon="3.29275">
        <ele>224.106586</ele>
        <time>2022-02-24T14:30:52.000Z</time>
      </trkpt>
      <trkpt lat="43.56156" lon="3.2928">
        <ele>223.65388</ele>
        <time>2022-02-24T14:30:54.000Z</time>
      </trkpt>
      <trkpt lat="43.56153" lon="3.29304">
        <ele>221.707442</ele>
        <time>2022-02-24T14:30:55.000Z</time>
      </trkpt>
      <trkpt lat="43.56152" lon="3.29312">
        <ele>220.932114</ele>
        <time>2022-02-24T14:30:56.000Z</time>
      </trkpt>
      <trkpt lat="43.56151" lon="3.29317">
        <ele>220.426997</ele>
        <time>2022-02-24T14:30:57.000Z</time>
      </trkpt>
      <trkpt lat="43.5615" lon="3.29322">
        <ele>219.96992</ele>
        <time>2022-02-24T14:30:58.000Z</time>
      </trkpt>
      <trkpt lat="43.5615" lon="3.29326">
        <ele>219.544783</ele>
        <time>2022-02-24T14:30:59.000Z</time>
      </trkpt>
      <trkpt lat="43.56149" lon="3.2933">
        <ele>219.09023</ele>
        <time>2022-02-24T14:31:00.000Z</time>
      </trkpt>
      <trkpt lat="43.56147" lon="3.29335">
        <ele>218.583611</ele>
        <time>2022-02-24T14:31:02.000Z</time>
      </trkpt>
      <trkpt lat="43.56145" lon="3.29341">
        <ele>217.873864</ele>
        <time>2022-02-24T14:31:03.000Z</time>
      </trkpt>
      <trkpt lat="43.56142" lon="3.29349">
        <ele>217.082878</ele>
        <time>2022-02-24T14:31:05.000Z</time>
      </trkpt>
      <trkpt lat="43.5614" lon="3.29355">
        <ele>216.335216</ele>
        <time>2022-02-24T14:31:06.000Z</time>
      </trkpt>
      <trkpt lat="43.56137" lon="3.29362">
        <ele>215.558279</ele>
        <time>2022-02-24T14:31:07.000Z</time>
      </trkpt>
      <trkpt lat="43.56134" lon="3.29367">
        <ele>214.894745</ele>
        <time>2022-02-24T14:31:08.000Z</time>
      </trkpt>
      <trkpt lat="43.56131" lon="3.29373">
        <ele>214.279609</ele>
        <time>2022-02-24T14:31:09.000Z</time>
      </trkpt>
      <trkpt lat="43.56129" lon="3.29377">
        <ele>213.703687</ele>
        <time>2022-02-24T14:31:10.000Z</time>
      </trkpt>
      <trkpt lat="43.56127" lon="3.29382">
        <ele>213.152368</ele>
        <time>2022-02-24T14:31:11.000Z</time>
      </trkpt>
      <trkpt lat="43.56125" lon="3.29387">
        <ele>212.638595</ele>
        <time>2022-02-24T14:31:12.000Z</time>
      </trkpt>
      <trkpt lat="43.56123" lon="3.29391">
        <ele>212.062672</ele>
        <time>2022-02-24T14:31:14.000Z</time>
      </trkpt>
      <trkpt lat="43.5612" lon="3.29396">
        <ele>211.455422</ele>
        <time>2022-02-24T14:31:15.000Z</time>
      </trkpt>
      <trkpt lat="43.56117" lon="3.29401">
        <ele>210.855994</ele>
        <time>2022-02-24T14:31:16.000Z</time>
      </trkpt>
      <trkpt lat="43.56115" lon="3.29406">
        <ele>210.295923</ele>
        <time>2022-02-24T14:31:17.000Z</time>
      </trkpt>
      <trkpt lat="43.56112" lon="3.29409">
        <ele>209.724861</ele>
        <time>2022-02-24T14:31:19.000Z</time>
      </trkpt>
      <trkpt lat="43.56109" lon="3.29413">
        <ele>209.19007</ele>
        <time>2022-02-24T14:31:20.000Z</time>
      </trkpt>
      <trkpt lat="43.56105" lon="3.29417">
        <ele>208.638512</ele>
        <time>2022-02-24T14:31:21.000Z</time>
      </trkpt>
      <trkpt lat="43.56102" lon="3.2942">
        <ele>208.110035</ele>
        <time>2022-02-24T14:31:22.000Z</time>
      </trkpt>
      <trkpt lat="43.56099" lon="3.29423">
        <ele>207.564776</ele>
        <time>2022-02-24T14:31:23.000Z</time>
      </trkpt>
      <trkpt lat="43.56097" lon="3.29427">
        <ele>207.053678</ele>
        <time>2022-02-24T14:31:25.000Z</time>
      </trkpt>
      <trkpt lat="43.56094" lon="3.2943">
        <ele>206.566056</ele>
        <time>2022-02-24T14:31:26.000Z</time>
      </trkpt>
      <trkpt lat="43.56091" lon="3.29434">
        <ele>206.048054</ele>
        <time>2022-02-24T14:31:28.000Z</time>
      </trkpt>
      <trkpt lat="43.56088" lon="3.29438">
        <ele>205.456649</ele>
        <time>2022-02-24T14:31:29.000Z</time>
      </trkpt>
      <trkpt lat="43.56085" lon="3.29443">
        <ele>204.867813</ele>
        <time>2022-02-24T14:31:30.000Z</time>
      </trkpt>
      <trkpt lat="43.56083" lon="3.29447">
        <ele>204.313949</ele>
        <time>2022-02-24T14:31:31.000Z</time>
      </trkpt>
      <trkpt lat="43.5608" lon="3.29451">
        <ele>203.78387</ele>
        <time>2022-02-24T14:31:32.000Z</time>
      </trkpt>
      <trkpt lat="43.56077" lon="3.29455">
        <ele>203.244605</ele>
        <time>2022-02-24T14:31:33.000Z</time>
      </trkpt>
      <trkpt lat="43.56075" lon="3.29459">
        <ele>202.683323</ele>
        <time>2022-02-24T14:31:34.000Z</time>
      </trkpt>
      <trkpt lat="43.56072" lon="3.29464">
        <ele>202.019884</ele>
        <time>2022-02-24T14:31:35.000Z</time>
      </trkpt>
      <trkpt lat="43.56068" lon="3.2947">
        <ele>201.260043</ele>
        <time>2022-02-24T14:31:36.000Z</time>
      </trkpt>
      <trkpt lat="43.56064" lon="3.29477">
        <ele>200.393544</ele>
        <time>2022-02-24T14:31:38.000Z</time>
      </trkpt>
      <trkpt lat="43.5606" lon="3.29483">
        <ele>199.55629</ele>
        <time>2022-02-24T14:31:39.000Z</time>
      </trkpt>
      <trkpt lat="43.56056" lon="3.29489">
        <ele>198.78494</ele>
        <time>2022-02-24T14:31:40.000Z</time>
      </trkpt>
      <trkpt lat="43.56052" lon="3.29494">
        <ele>198.094015</ele>
        <time>2022-02-24T14:31:41.000Z</time>
      </trkpt>
      <trkpt lat="43.56049" lon="3.29499">
        <ele>197.48151</ele>
        <time>2022-02-24T14:31:42.000Z</time>
      </trkpt>
      <trkpt lat="43.56047" lon="3.29503">
        <ele>196.810689</ele>
        <time>2022-02-24T14:31:43.000Z</time>
      </trkpt>
      <trkpt lat="43.56044" lon="3.29506">
        <ele>196.102141</ele>
        <time>2022-02-24T14:31:44.000Z</time>
      </trkpt>
      <trkpt lat="43.56042" lon="3.2951">
        <ele>195.42618</ele>
        <time>2022-02-24T14:31:45.000Z</time>
      </trkpt>
      <trkpt lat="43.56039" lon="3.29513">
        <ele>194.671476</ele>
        <time>2022-02-24T14:31:46.000Z</time>
      </trkpt>
      <trkpt lat="43.56037" lon="3.29517">
        <ele>193.916771</ele>
        <time>2022-02-24T14:31:47.000Z</time>
      </trkpt>
      <trkpt lat="43.56035" lon="3.2952">
        <ele>193.210178</ele>
        <time>2022-02-24T14:31:48.000Z</time>
      </trkpt>
      <trkpt lat="43.56032" lon="3.29524">
        <ele>192.490489</ele>
        <time>2022-02-24T14:31:49.000Z</time>
      </trkpt>
      <trkpt lat="43.5603" lon="3.29527">
        <ele>191.844861</ele>
        <time>2022-02-24T14:31:50.000Z</time>
      </trkpt>
      <trkpt lat="43.56028" lon="3.29531">
        <ele>191.136312</ele>
        <time>2022-02-24T14:31:52.000Z</time>
      </trkpt>
      <trkpt lat="43.56026" lon="3.29535">
        <ele>190.416622</ele>
        <time>2022-02-24T14:31:53.000Z</time>
      </trkpt>
      <trkpt lat="43.56023" lon="3.29539">
        <ele>189.609582</ele>
        <time>2022-02-24T14:31:55.000Z</time>
      </trkpt>
      <trkpt lat="43.56021" lon="3.29543">
        <ele>188.878623</ele>
        <time>2022-02-24T14:31:56.000Z</time>
      </trkpt>
      <trkpt lat="43.56018" lon="3.29547">
        <ele>187.997396</ele>
        <time>2022-02-24T14:31:58.000Z</time>
      </trkpt>
      <trkpt lat="43.56015" lon="3.29552">
        <ele>187.025916</ele>
        <time>2022-02-24T14:31:59.000Z</time>
      </trkpt>
      <trkpt lat="43.56012" lon="3.29556">
        <ele>186.112265</ele>
        <time>2022-02-24T14:32:00.000Z</time>
      </trkpt>
      <trkpt lat="43.56009" lon="3.29561">
        <ele>185.173997</ele>
        <time>2022-02-24T14:32:01.000Z</time>
      </trkpt>
      <trkpt lat="43.56006" lon="3.29566">
        <ele>184.322791</ele>
        <time>2022-02-24T14:32:02.000Z</time>
      </trkpt>
      <trkpt lat="43.56004" lon="3.2957">
        <ele>183.569611</ele>
        <time>2022-02-24T14:32:03.000Z</time>
      </trkpt>
      <trkpt lat="43.56001" lon="3.29574">
        <ele>182.792405</ele>
        <time>2022-02-24T14:32:05.000Z</time>
      </trkpt>
      <trkpt lat="43.55999" lon="3.29578">
        <ele>182.11081</ele>
        <time>2022-02-24T14:32:06.000Z</time>
      </trkpt>
      <trkpt lat="43.55997" lon="3.29581">
        <ele>181.402259</ele>
        <time>2022-02-24T14:32:07.000Z</time>
      </trkpt>
      <trkpt lat="43.55995" lon="3.29584">
        <ele>180.747257</ele>
        <time>2022-02-24T14:32:08.000Z</time>
      </trkpt>
      <trkpt lat="43.55993" lon="3.29587">
        <ele>180.102483</ele>
        <time>2022-02-24T14:32:10.000Z</time>
      </trkpt>
      <trkpt lat="43.5599" lon="3.2959">
        <ele>179.487291</ele>
        <time>2022-02-24T14:32:11.000Z</time>
      </trkpt>
      <trkpt lat="43.55988" lon="3.29592">
        <ele>178.962521</ele>
        <time>2022-02-24T14:32:12.000Z</time>
      </trkpt>
      <trkpt lat="43.55986" lon="3.29595">
        <ele>178.447604</ele>
        <time>2022-02-24T14:32:13.000Z</time>
      </trkpt>
      <trkpt lat="43.55985" lon="3.29597">
        <ele>177.979699</ele>
        <time>2022-02-24T14:32:14.000Z</time>
      </trkpt>
      <trkpt lat="43.55984" lon="3.296">
        <ele>177.536987</ele>
        <time>2022-02-24T14:32:15.000Z</time>
      </trkpt>
      <trkpt lat="43.55984" lon="3.29598">
        <ele>177.244883</ele>
        <time>2022-02-24T14:34:59.000Z</time>
      </trkpt>
      <trkpt lat="43.55984" lon="3.29597">
        <ele>177.156302</ele>
        <time>2022-02-24T14:35:00.000Z</time>
      </trkpt>
      <trkpt lat="43.55984" lon="3.29597">
        <ele>177.055662</ele>
        <time>2022-02-24T14:35:01.000Z</time>
      </trkpt>
      <trkpt lat="43.55983" lon="3.29596">
        <ele>176.962911</ele>
        <time>2022-02-24T14:35:03.000Z</time>
      </trkpt>
      <trkpt lat="43.55983" lon="3.29597">
        <ele>176.867075</ele>
        <time>2022-02-24T14:35:04.000Z</time>
      </trkpt>
      <trkpt lat="43.55982" lon="3.29598">
        <ele>176.592111</ele>
        <time>2022-02-24T14:35:05.000Z</time>
      </trkpt>
      <trkpt lat="43.55981" lon="3.29601">
        <ele>176.241847</ele>
        <time>2022-02-24T14:35:06.000Z</time>
      </trkpt>
      <trkpt lat="43.5598" lon="3.29603">
        <ele>175.835</ele>
        <time>2022-02-24T14:35:07.000Z</time>
      </trkpt>
      <trkpt lat="43.55979" lon="3.29605">
        <ele>175.378173</ele>
        <time>2022-02-24T14:35:08.000Z</time>
      </trkpt>
      <trkpt lat="43.55977" lon="3.29607">
        <ele>174.863256</ele>
        <time>2022-02-24T14:35:09.000Z</time>
      </trkpt>
      <trkpt lat="43.55975" lon="3.2961">
        <ele>174.348339</ele>
        <time>2022-02-24T14:35:10.000Z</time>
      </trkpt>
      <trkpt lat="43.55973" lon="3.29612">
        <ele>173.778322</ele>
        <time>2022-02-24T14:35:12.000Z</time>
      </trkpt>
      <trkpt lat="43.55971" lon="3.29615">
        <ele>173.212</ele>
        <time>2022-02-24T14:35:14.000Z</time>
      </trkpt>
      <trkpt lat="43.55967" lon="3.2962">
        <ele>172.121715</ele>
        <time>2022-02-24T14:35:16.000Z</time>
      </trkpt>
      <trkpt lat="43.55966" lon="3.29623">
        <ele>171.65381</ele>
        <time>2022-02-24T14:35:17.000Z</time>
      </trkpt>
      <trkpt lat="43.55965" lon="3.29625">
        <ele>171.259201</ele>
        <time>2022-02-24T14:35:18.000Z</time>
      </trkpt>
      <trkpt lat="43.55964" lon="3.29627">
        <ele>170.864371</ele>
        <time>2022-02-24T14:35:19.000Z</time>
      </trkpt>
      <trkpt lat="43.55962" lon="3.29629">
        <ele>170.481822</ele>
        <time>2022-02-24T14:35:21.000Z</time>
      </trkpt>
      <trkpt lat="43.55961" lon="3.29631">
        <ele>170.098476</ele>
        <time>2022-02-24T14:35:22.000Z</time>
      </trkpt>
      <trkpt lat="43.5596" lon="3.29633">
        <ele>169.762003</ele>
        <time>2022-02-24T14:35:23.000Z</time>
      </trkpt>
      <trkpt lat="43.55959" lon="3.29634">
        <ele>169.441862</ele>
        <time>2022-02-24T14:35:24.000Z</time>
      </trkpt>
      <trkpt lat="43.55957" lon="3.29635">
        <ele>169.095795</ele>
        <time>2022-02-24T14:35:25.000Z</time>
      </trkpt>
      <trkpt lat="43.55956" lon="3.29636">
        <ele>168.762561</ele>
        <time>2022-02-24T14:35:26.000Z</time>
      </trkpt>
      <trkpt lat="43.55954" lon="3.29637">
        <ele>168.439963</ele>
        <time>2022-02-24T14:35:27.000Z</time>
      </trkpt>
      <trkpt lat="43.55953" lon="3.29637">
        <ele>168.188454</ele>
        <time>2022-02-24T14:35:28.000Z</time>
      </trkpt>
      <trkpt lat="43.55952" lon="3.29638">
        <ele>167.881434</ele>
        <time>2022-02-24T14:35:29.000Z</time>
      </trkpt>
      <trkpt lat="43.55951" lon="3.29638">
        <ele>167.636511</ele>
        <time>2022-02-24T14:35:30.000Z</time>
      </trkpt>
      <trkpt lat="43.55949" lon="3.29638">
        <ele>167.330914</ele>
        <time>2022-02-24T14:35:31.000Z</time>
      </trkpt>
      <trkpt lat="43.55948" lon="3.29638">
        <ele>167.024961</ele>
        <time>2022-02-24T14:35:32.000Z</time>
      </trkpt>
      <trkpt lat="43.55946" lon="3.29637">
        <ele>166.717941</ele>
        <time>2022-02-24T14:35:33.000Z</time>
      </trkpt>
      <trkpt lat="43.55944" lon="3.29637">
        <ele>166.391637</ele>
        <time>2022-02-24T14:35:34.000Z</time>
      </trkpt>
      <trkpt lat="43.55943" lon="3.29637">
        <ele>166.000069</ele>
        <time>2022-02-24T14:35:35.000Z</time>
      </trkpt>
      <trkpt lat="43.5594" lon="3.29637">
        <ele>165.529398</ele>
        <time>2022-02-24T14:35:37.000Z</time>
      </trkpt>
      <trkpt lat="43.55938" lon="3.29636">
        <ele>164.996415</ele>
        <time>2022-02-24T14:35:38.000Z</time>
      </trkpt>
      <trkpt lat="43.55935" lon="3.29636">
        <ele>164.360549</ele>
        <time>2022-02-24T14:35:39.000Z</time>
      </trkpt>
      <trkpt lat="43.55932" lon="3.29635">
        <ele>163.742969</ele>
        <time>2022-02-24T14:35:41.000Z</time>
      </trkpt>
      <trkpt lat="43.55928" lon="3.29635">
        <ele>163.108647</ele>
        <time>2022-02-24T14:35:42.000Z</time>
      </trkpt>
      <trkpt lat="43.55925" lon="3.29634">
        <ele>162.494607</ele>
        <time>2022-02-24T14:35:43.000Z</time>
      </trkpt>
      <trkpt lat="43.55922" lon="3.29634">
        <ele>161.861489</ele>
        <time>2022-02-24T14:35:44.000Z</time>
      </trkpt>
      <trkpt lat="43.5592" lon="3.29634">
        <ele>161.309635</ele>
        <time>2022-02-24T14:35:45.000Z</time>
      </trkpt>
      <trkpt lat="43.55917" lon="3.29633">
        <ele>160.838964</ele>
        <time>2022-02-24T14:35:46.000Z</time>
      </trkpt>
      <trkpt lat="43.55915" lon="3.29633">
        <ele>160.490939</ele>
        <time>2022-02-24T14:35:47.000Z</time>
      </trkpt>
      <trkpt lat="43.55913" lon="3.29633">
        <ele>160.234183</ele>
        <time>2022-02-24T14:35:49.000Z</time>
      </trkpt>
      <trkpt lat="43.55911" lon="3.29632">
        <ele>159.977426</ele>
        <time>2022-02-24T14:35:50.000Z</time>
      </trkpt>
      <trkpt lat="43.55898" lon="3.29627">
        <ele>158.516131</ele>
        <time>2022-02-24T14:36:41.000Z</time>
      </trkpt>
      <trkpt lat="43.55897" lon="3.29627">
        <ele>158.424311</ele>
        <time>2022-02-24T14:36:42.000Z</time>
      </trkpt>
      <trkpt lat="43.55896" lon="3.29628">
        <ele>158.290148</ele>
        <time>2022-02-24T14:36:43.000Z</time>
      </trkpt>
      <trkpt lat="43.55891" lon="3.2963">
        <ele>157.7198</ele>
        <time>2022-02-24T14:38:00.000Z</time>
      </trkpt>
      <trkpt lat="43.5589" lon="3.29629">
        <ele>157.628531</ele>
        <time>2022-02-24T14:38:02.000Z</time>
      </trkpt>
      <trkpt lat="43.55882" lon="3.29624">
        <ele>156.577512</ele>
        <time>2022-02-24T14:38:04.000Z</time>
      </trkpt>
      <trkpt lat="43.5588" lon="3.29624">
        <ele>156.443637</ele>
        <time>2022-02-24T14:38:06.000Z</time>
      </trkpt>
      <trkpt lat="43.55869" lon="3.29623">
        <ele>155.134707</ele>
        <time>2022-02-24T14:38:08.000Z</time>
      </trkpt>
      <trkpt lat="43.55866" lon="3.29625">
        <ele>154.809254</ele>
        <time>2022-02-24T14:38:09.000Z</time>
      </trkpt>
      <trkpt lat="43.55863" lon="3.29625">
        <ele>154.521285</ele>
        <time>2022-02-24T14:38:10.000Z</time>
      </trkpt>
      <trkpt lat="43.5586" lon="3.29624">
        <ele>154.168681</ele>
        <time>2022-02-24T14:38:11.000Z</time>
      </trkpt>
      <trkpt lat="43.55856" lon="3.29622">
        <ele>153.735063</ele>
        <time>2022-02-24T14:38:13.000Z</time>
      </trkpt>
      <trkpt lat="43.55852" lon="3.29621">
        <ele>153.254555</ele>
        <time>2022-02-24T14:38:14.000Z</time>
      </trkpt>
      <trkpt lat="43.55848" lon="3.2962">
        <ele>152.829944</ele>
        <time>2022-02-24T14:38:15.000Z</time>
      </trkpt>
      <trkpt lat="43.55845" lon="3.2962">
        <ele>152.40899</ele>
        <time>2022-02-24T14:38:17.000Z</time>
      </trkpt>
      <trkpt lat="43.55841" lon="3.2962">
        <ele>152.030283</ele>
        <time>2022-02-24T14:38:18.000Z</time>
      </trkpt>
      <trkpt lat="43.55838" lon="3.29619">
        <ele>151.716111</ele>
        <time>2022-02-24T14:38:19.000Z</time>
      </trkpt>
      <trkpt lat="43.55836" lon="3.29617">
        <ele>151.387408</ele>
        <time>2022-02-24T14:38:20.000Z</time>
      </trkpt>
      <trkpt lat="43.55833" lon="3.29614">
        <ele>151.031692</ele>
        <time>2022-02-24T14:38:21.000Z</time>
      </trkpt>
      <trkpt lat="43.5583" lon="3.29612">
        <ele>150.666408</ele>
        <time>2022-02-24T14:38:22.000Z</time>
      </trkpt>
      <trkpt lat="43.55827" lon="3.29608">
        <ele>150.196911</ele>
        <time>2022-02-24T14:38:24.000Z</time>
      </trkpt>
      <trkpt lat="43.55823" lon="3.29605">
        <ele>149.690893</ele>
        <time>2022-02-24T14:38:25.000Z</time>
      </trkpt>
      <trkpt lat="43.55819" lon="3.29601">
        <ele>149.180375</ele>
        <time>2022-02-24T14:38:26.000Z</time>
      </trkpt>
      <trkpt lat="43.55814" lon="3.29597">
        <ele>148.532876</ele>
        <time>2022-02-24T14:38:28.000Z</time>
      </trkpt>
      <trkpt lat="43.55809" lon="3.29592">
        <ele>147.834189</ele>
        <time>2022-02-24T14:38:30.000Z</time>
      </trkpt>
      <trkpt lat="43.55806" lon="3.2959">
        <ele>147.446029</ele>
        <time>2022-02-24T14:38:32.000Z</time>
      </trkpt>
      <trkpt lat="43.55791" lon="3.29579">
        <ele>145.596645</ele>
        <time>2022-02-24T14:39:52.000Z</time>
      </trkpt>
      <trkpt lat="43.55788" lon="3.29579">
        <ele>145.249936</ele>
        <time>2022-02-24T14:39:54.000Z</time>
      </trkpt>
      <trkpt lat="43.55787" lon="3.29578">
        <ele>145.158667</ele>
        <time>2022-02-24T14:39:56.000Z</time>
      </trkpt>
      <trkpt lat="43.55782" lon="3.29574">
        <ele>144.43689</ele>
        <time>2022-02-24T14:39:58.000Z</time>
      </trkpt>
      <trkpt lat="43.55775" lon="3.29569">
        <ele>143.579688</ele>
        <time>2022-02-24T14:39:59.000Z</time>
      </trkpt>
      <trkpt lat="43.55772" lon="3.29568">
        <ele>143.230387</ele>
        <time>2022-02-24T14:40:01.000Z</time>
      </trkpt>
      <trkpt lat="43.55769" lon="3.29568">
        <ele>142.973631</ele>
        <time>2022-02-24T14:40:02.000Z</time>
      </trkpt>
      <trkpt lat="43.55767" lon="3.29568">
        <ele>142.685215</ele>
        <time>2022-02-24T14:40:03.000Z</time>
      </trkpt>
      <trkpt lat="43.55764" lon="3.29567">
        <ele>142.380938</ele>
        <time>2022-02-24T14:40:04.000Z</time>
      </trkpt>
      <trkpt lat="43.55761" lon="3.29566">
        <ele>141.992241</ele>
        <time>2022-02-24T14:40:05.000Z</time>
      </trkpt>
      <trkpt lat="43.55757" lon="3.29564">
        <ele>141.590793</ele>
        <time>2022-02-24T14:40:06.000Z</time>
      </trkpt>
      <trkpt lat="43.55753" lon="3.29563">
        <ele>141.159035</ele>
        <time>2022-02-24T14:40:07.000Z</time>
      </trkpt>
      <trkpt lat="43.5575" lon="3.29562">
        <ele>140.730573</ele>
        <time>2022-02-24T14:40:08.000Z</time>
      </trkpt>
      <trkpt lat="43.55745" lon="3.29561">
        <ele>140.704932</ele>
        <time>2022-02-24T14:40:09.000Z</time>
      </trkpt>
      <trkpt lat="43.55741" lon="3.29561">
        <ele>140.720727</ele>
        <time>2022-02-24T14:40:11.000Z</time>
      </trkpt>
      <trkpt lat="43.55736" lon="3.29561">
        <ele>140.736156</ele>
        <time>2022-02-24T14:40:12.000Z</time>
      </trkpt>
      <trkpt lat="43.55732" lon="3.29561">
        <ele>140.750552</ele>
        <time>2022-02-24T14:40:13.000Z</time>
      </trkpt>
      <trkpt lat="43.55728" lon="3.29561">
        <ele>140.763917</ele>
        <time>2022-02-24T14:40:14.000Z</time>
      </trkpt>
      <trkpt lat="43.55725" lon="3.29561">
        <ele>140.775579</ele>
        <time>2022-02-24T14:40:15.000Z</time>
      </trkpt>
      <trkpt lat="43.55721" lon="3.29561">
        <ele>140.787231</ele>
        <time>2022-02-24T14:40:17.000Z</time>
      </trkpt>
      <trkpt lat="43.55718" lon="3.29561">
        <ele>140.799235</ele>
        <time>2022-02-24T14:40:18.000Z</time>
      </trkpt>
      <trkpt lat="43.55715" lon="3.2956">
        <ele>140.808176</ele>
        <time>2022-02-24T14:40:19.000Z</time>
      </trkpt>
      <trkpt lat="43.55713" lon="3.2956">
        <ele>140.816062</ele>
        <time>2022-02-24T14:40:20.000Z</time>
      </trkpt>
      <trkpt lat="43.55711" lon="3.29561">
        <ele>140.82396</ele>
        <time>2022-02-24T14:40:21.000Z</time>
      </trkpt>
      <trkpt lat="43.55709" lon="3.29561">
        <ele>140.830476</ele>
        <time>2022-02-24T14:40:22.000Z</time>
      </trkpt>
      <trkpt lat="43.55707" lon="3.29561">
        <ele>140.836992</ele>
        <time>2022-02-24T14:40:23.000Z</time>
      </trkpt>
      <trkpt lat="43.55705" lon="3.2956">
        <ele>140.843507</ele>
        <time>2022-02-24T14:40:24.000Z</time>
      </trkpt>
      <trkpt lat="43.55703" lon="3.2956">
        <ele>140.849013</ele>
        <time>2022-02-24T14:40:25.000Z</time>
      </trkpt>
      <trkpt lat="43.55701" lon="3.2956">
        <ele>140.855599</ele>
        <time>2022-02-24T14:40:27.000Z</time>
      </trkpt>
      <trkpt lat="43.557" lon="3.29559">
        <ele>140.862339</ele>
        <time>2022-02-24T14:40:28.000Z</time>
      </trkpt>
      <trkpt lat="43.55697" lon="3.29558">
        <ele>140.871658</ele>
        <time>2022-02-24T14:48:54.000Z</time>
      </trkpt>
      <trkpt lat="43.55697" lon="3.29559">
        <ele>140.873683</ele>
        <time>2022-02-24T14:48:55.000Z</time>
      </trkpt>
      <trkpt lat="43.55696" lon="3.29559">
        <ele>140.875243</ele>
        <time>2022-02-24T14:48:56.000Z</time>
      </trkpt>
      <trkpt lat="43.55695" lon="3.29559">
        <ele>140.879045</ele>
        <time>2022-02-24T14:48:57.000Z</time>
      </trkpt>
      <trkpt lat="43.55694" lon="3.29559">
        <ele>140.883224</ele>
        <time>2022-02-24T14:48:58.000Z</time>
      </trkpt>
      <trkpt lat="43.55692" lon="3.2956">
        <ele>140.888513</ele>
        <time>2022-02-24T14:48:59.000Z</time>
      </trkpt>
      <trkpt lat="43.55691" lon="3.2956">
        <ele>140.893707</ele>
        <time>2022-02-24T14:49:00.000Z</time>
      </trkpt>
      <trkpt lat="43.55689" lon="3.2956">
        <ele>140.899196</ele>
        <time>2022-02-24T14:49:01.000Z</time>
      </trkpt>
      <trkpt lat="43.55687" lon="3.2956">
        <ele>140.907081</ele>
        <time>2022-02-24T14:49:02.000Z</time>
      </trkpt>
      <trkpt lat="43.55685" lon="3.2956">
        <ele>140.914625</ele>
        <time>2022-02-24T14:49:04.000Z</time>
      </trkpt>
      <trkpt lat="43.55682" lon="3.2956">
        <ele>140.925295</ele>
        <time>2022-02-24T14:49:05.000Z</time>
      </trkpt>
      <trkpt lat="43.55678" lon="3.29559">
        <ele>140.937041</ele>
        <time>2022-02-24T14:49:07.000Z</time>
      </trkpt>
      <trkpt lat="43.55675" lon="3.29558">
        <ele>140.949242</ele>
        <time>2022-02-24T14:49:08.000Z</time>
      </trkpt>
      <trkpt lat="43.55671" lon="3.29557">
        <ele>140.962548</ele>
        <time>2022-02-24T14:49:09.000Z</time>
      </trkpt>
      <trkpt lat="43.55668" lon="3.29556">
        <ele>140.974574</ele>
        <time>2022-02-24T14:49:10.000Z</time>
      </trkpt>
      <trkpt lat="43.55664" lon="3.29555">
        <ele>140.985543</ele>
        <time>2022-02-24T14:49:11.000Z</time>
      </trkpt>
      <trkpt lat="43.55661" lon="3.29554">
        <ele>140.996181</ele>
        <time>2022-02-24T14:49:12.000Z</time>
      </trkpt>
      <trkpt lat="43.55658" lon="3.29553">
        <ele>141.007037</ele>
        <time>2022-02-24T14:49:13.000Z</time>
      </trkpt>
      <trkpt lat="43.55655" lon="3.29552">
        <ele>141.018818</ele>
        <time>2022-02-24T14:49:15.000Z</time>
      </trkpt>
      <trkpt lat="43.55652" lon="3.29552">
        <ele>141.029513</ele>
        <time>2022-02-24T14:49:16.000Z</time>
      </trkpt>
      <trkpt lat="43.55649" lon="3.29551">
        <ele>141.039869</ele>
        <time>2022-02-24T14:49:17.000Z</time>
      </trkpt>
      <trkpt lat="43.55646" lon="3.29551">
        <ele>141.050519</ele>
        <time>2022-02-24T14:49:18.000Z</time>
      </trkpt>
      <trkpt lat="43.55642" lon="3.2955">
        <ele>141.063579</ele>
        <time>2022-02-24T14:49:20.000Z</time>
      </trkpt>
      <trkpt lat="43.55639" lon="3.2955">
        <ele>141.075241</ele>
        <time>2022-02-24T14:49:21.000Z</time>
      </trkpt>
      <trkpt lat="43.55635" lon="3.2955">
        <ele>141.086895</ele>
        <time>2022-02-24T14:49:22.000Z</time>
      </trkpt>
      <trkpt lat="43.55631" lon="3.2955">
        <ele>141.100269</ele>
        <time>2022-02-24T14:49:24.000Z</time>
      </trkpt>
      <trkpt lat="43.55628" lon="3.2955">
        <ele>141.110598</ele>
        <time>2022-02-24T14:49:25.000Z</time>
      </trkpt>
      <trkpt lat="43.55625" lon="3.29549">
        <ele>141.122274</ele>
        <time>2022-02-24T14:49:26.000Z</time>
      </trkpt>
      <trkpt lat="43.55622" lon="3.29549">
        <ele>141.132909</ele>
        <time>2022-02-24T14:49:27.000Z</time>
      </trkpt>
      <trkpt lat="43.55619" lon="3.29549">
        <ele>141.143189</ele>
        <time>2022-02-24T14:49:28.000Z</time>
      </trkpt>
      <trkpt lat="43.55616" lon="3.29549">
        <ele>141.152442</ele>
        <time>2022-02-24T14:49:29.000Z</time>
      </trkpt>
      <trkpt lat="43.55613" lon="3.29549">
        <ele>141.161695</ele>
        <time>2022-02-24T14:49:30.000Z</time>
      </trkpt>
      <trkpt lat="43.55611" lon="3.2955">
        <ele>141.168323</ele>
        <time>2022-02-24T14:49:32.000Z</time>
      </trkpt>
      <trkpt lat="43.55603" lon="3.29554">
        <ele>141.197929</ele>
        <time>2022-02-24T14:49:33.000Z</time>
      </trkpt>
      <trkpt lat="43.556" lon="3.29557">
        <ele>141.210361</ele>
        <time>2022-02-24T14:49:34.000Z</time>
      </trkpt>
      <trkpt lat="43.55598" lon="3.29559">
        <ele>141.219531</ele>
        <time>2022-02-24T14:49:35.000Z</time>
      </trkpt>
      <trkpt lat="43.55598" lon="3.29561">
        <ele>141.225498</ele>
        <time>2022-02-24T14:49:37.000Z</time>
      </trkpt>
      <trkpt lat="43.55593" lon="3.29571">
        <ele>141.255061</ele>
        <time>2022-02-24T14:49:39.000Z</time>
      </trkpt>
      <trkpt lat="43.5559" lon="3.29575">
        <ele>141.267927</ele>
        <time>2022-02-24T14:49:40.000Z</time>
      </trkpt>
      <trkpt lat="43.55587" lon="3.29577">
        <ele>141.279937</ele>
        <time>2022-02-24T14:49:41.000Z</time>
      </trkpt>
      <trkpt lat="43.55584" lon="3.29579">
        <ele>141.290559</ele>
        <time>2022-02-24T14:49:42.000Z</time>
      </trkpt>
      <trkpt lat="43.55581" lon="3.29581">
        <ele>141.301769</ele>
        <time>2022-02-24T14:49:44.000Z</time>
      </trkpt>
      <trkpt lat="43.55578" lon="3.29583">
        <ele>141.336583</ele>
        <time>2022-02-24T14:49:45.000Z</time>
      </trkpt>
      <trkpt lat="43.55574" lon="3.29584">
        <ele>141.39027</ele>
        <time>2022-02-24T14:49:46.000Z</time>
      </trkpt>
      <trkpt lat="43.5557" lon="3.29585">
        <ele>141.442035</ele>
        <time>2022-02-24T14:49:48.000Z</time>
      </trkpt>
      <trkpt lat="43.55566" lon="3.29585">
        <ele>141.492966</ele>
        <time>2022-02-24T14:49:49.000Z</time>
      </trkpt>
      <trkpt lat="43.55562" lon="3.29584">
        <ele>141.544557</ele>
        <time>2022-02-24T14:49:50.000Z</time>
      </trkpt>
      <trkpt lat="43.55558" lon="3.29582">
        <ele>141.599699</ele>
        <time>2022-02-24T14:49:52.000Z</time>
      </trkpt>
      <trkpt lat="43.55555" lon="3.2958">
        <ele>141.648242</ele>
        <time>2022-02-24T14:49:53.000Z</time>
      </trkpt>
      <trkpt lat="43.55553" lon="3.29577">
        <ele>141.692977</ele>
        <time>2022-02-24T14:49:54.000Z</time>
      </trkpt>
      <trkpt lat="43.5555" lon="3.29574">
        <ele>141.735999</ele>
        <time>2022-02-24T14:49:55.000Z</time>
      </trkpt>
      <trkpt lat="43.55549" lon="3.2957">
        <ele>141.776115</ele>
        <time>2022-02-24T14:49:56.000Z</time>
      </trkpt>
      <trkpt lat="43.55547" lon="3.29567">
        <ele>141.816244</ele>
        <time>2022-02-24T14:49:57.000Z</time>
      </trkpt>
      <trkpt lat="43.55545" lon="3.29563">
        <ele>141.861014</ele>
        <time>2022-02-24T14:49:59.000Z</time>
      </trkpt>
      <trkpt lat="43.55543" lon="3.29559">
        <ele>141.907392</ele>
        <time>2022-02-24T14:50:01.000Z</time>
      </trkpt>
      <trkpt lat="43.55541" lon="3.29555">
        <ele>141.952963</ele>
        <time>2022-02-24T14:50:02.000Z</time>
      </trkpt>
      <trkpt lat="43.5554" lon="3.29553">
        <ele>141.978882</ele>
        <time>2022-02-24T14:50:04.000Z</time>
      </trkpt>
      <trkpt lat="43.55532" lon="3.29543">
        <ele>142.124829</ele>
        <time>2022-02-24T14:50:06.000Z</time>
      </trkpt>
      <trkpt lat="43.55529" lon="3.29542">
        <ele>142.164148</ele>
        <time>2022-02-24T14:50:08.000Z</time>
      </trkpt>
      <trkpt lat="43.55519" lon="3.29538">
        <ele>142.30274</ele>
        <time>2022-02-24T14:50:10.000Z</time>
      </trkpt>
      <trkpt lat="43.55516" lon="3.29537">
        <ele>142.344402</ele>
        <time>2022-02-24T14:50:12.000Z</time>
      </trkpt>
      <trkpt lat="43.55515" lon="3.29537">
        <ele>142.353819</ele>
        <time>2022-02-24T14:50:14.000Z</time>
      </trkpt>
      <trkpt lat="43.55506" lon="3.29537">
        <ele>142.476925</ele>
        <time>2022-02-24T14:50:16.000Z</time>
      </trkpt>
      <trkpt lat="43.55506" lon="3.29537">
        <ele>142.482277</ele>
        <time>2022-02-24T14:50:18.000Z</time>
      </trkpt>
      <trkpt lat="43.55502" lon="3.29537">
        <ele>142.538511</ele>
        <time>2022-02-24T14:50:20.000Z</time>
      </trkpt>
      <trkpt lat="43.55493" lon="3.29538">
        <ele>142.649641</ele>
        <time>2022-02-24T14:50:22.000Z</time>
      </trkpt>
      <trkpt lat="43.55492" lon="3.29538">
        <ele>142.66052</ele>
        <time>2022-02-24T14:50:24.000Z</time>
      </trkpt>
      <trkpt lat="43.55484" lon="3.29539">
        <ele>142.773625</ele>
        <time>2022-02-24T14:50:26.000Z</time>
      </trkpt>
      <trkpt lat="43.55483" lon="3.29539">
        <ele>142.784374</ele>
        <time>2022-02-24T14:50:28.000Z</time>
      </trkpt>
      <trkpt lat="43.55476" lon="3.29541">
        <ele>142.887725</ele>
        <time>2022-02-24T14:50:30.000Z</time>
      </trkpt>
      <trkpt lat="43.55473" lon="3.29543">
        <ele>142.930102</ele>
        <time>2022-02-24T14:50:32.000Z</time>
      </trkpt>
      <trkpt lat="43.5547" lon="3.29545">
        <ele>142.975886</ele>
        <time>2022-02-24T14:50:34.000Z</time>
      </trkpt>
      <trkpt lat="43.5547" lon="3.29546">
        <ele>142.986124</ele>
        <time>2022-02-24T14:50:36.000Z</time>
      </trkpt>
      <trkpt lat="43.55468" lon="3.29555">
        <ele>143.075679</ele>
        <time>2022-02-24T14:50:38.000Z</time>
      </trkpt>
      <trkpt lat="43.55468" lon="3.29572">
        <ele>143.234717</ele>
        <time>2022-02-24T14:50:40.000Z</time>
      </trkpt>
      <trkpt lat="43.55468" lon="3.29573">
        <ele>143.250233</ele>
        <time>2022-02-24T14:50:42.000Z</time>
      </trkpt>
      <trkpt lat="43.55468" lon="3.29585">
        <ele>143.36382</ele>
        <time>2022-02-24T14:50:44.000Z</time>
      </trkpt>
      <trkpt lat="43.55468" lon="3.2959">
        <ele>143.414246</ele>
        <time>2022-02-24T14:50:45.000Z</time>
      </trkpt>
      <trkpt lat="43.55468" lon="3.29595">
        <ele>143.463992</ele>
        <time>2022-02-24T14:50:46.000Z</time>
      </trkpt>
      <trkpt lat="43.55467" lon="3.29601">
        <ele>143.523153</ele>
        <time>2022-02-24T14:50:48.000Z</time>
      </trkpt>
      <trkpt lat="43.55467" lon="3.29605">
        <ele>143.561176</ele>
        <time>2022-02-24T14:50:50.000Z</time>
      </trkpt>
      <trkpt lat="43.55462" lon="3.29624">
        <ele>143.602871</ele>
        <time>2022-02-24T14:50:51.000Z</time>
      </trkpt>
      <trkpt lat="43.5546" lon="3.29631">
        <ele>143.393122</ele>
        <time>2022-02-24T14:50:52.000Z</time>
      </trkpt>
      <trkpt lat="43.55457" lon="3.29637">
        <ele>143.18756</ele>
        <time>2022-02-24T14:50:54.000Z</time>
      </trkpt>
      <trkpt lat="43.55452" lon="3.29643">
        <ele>142.963802</ele>
        <time>2022-02-24T14:50:55.000Z</time>
      </trkpt>
      <trkpt lat="43.55448" lon="3.29648">
        <ele>142.744517</ele>
        <time>2022-02-24T14:50:58.000Z</time>
      </trkpt>
      <trkpt lat="43.55419" lon="3.29679">
        <ele>141.366966</ele>
        <time>2022-02-24T14:51:00.000Z</time>
      </trkpt>
      <trkpt lat="43.55409" lon="3.29691">
        <ele>140.860885</ele>
        <time>2022-02-24T14:51:02.000Z</time>
      </trkpt>
      <trkpt lat="43.55407" lon="3.29692">
        <ele>140.777066</ele>
        <time>2022-02-24T14:51:04.000Z</time>
      </trkpt>
      <trkpt lat="43.55386" lon="3.29709">
        <ele>139.887088</ele>
        <time>2022-02-24T14:51:06.000Z</time>
      </trkpt>
      <trkpt lat="43.55384" lon="3.29711">
        <ele>139.805979</ele>
        <time>2022-02-24T14:51:08.000Z</time>
      </trkpt>
      <trkpt lat="43.55374" lon="3.29721">
        <ele>139.326968</ele>
        <time>2022-02-24T14:51:10.000Z</time>
      </trkpt>
      <trkpt lat="43.55367" lon="3.29735">
        <ele>138.865126</ele>
        <time>2022-02-24T14:51:12.000Z</time>
      </trkpt>
      <trkpt lat="43.5537" lon="3.29749">
        <ele>138.464482</ele>
        <time>2022-02-24T14:51:14.000Z</time>
      </trkpt>
      <trkpt lat="43.55371" lon="3.29749">
        <ele>138.418867</ele>
        <time>2022-02-24T14:51:16.000Z</time>
      </trkpt>
      <trkpt lat="43.55383" lon="3.29755">
        <ele>137.932058</ele>
        <time>2022-02-24T14:51:18.000Z</time>
      </trkpt>
      <trkpt lat="43.55386" lon="3.29756">
        <ele>137.803561</ele>
        <time>2022-02-24T14:51:19.000Z</time>
      </trkpt>
      <trkpt lat="43.55389" lon="3.29756">
        <ele>137.716908</ele>
        <time>2022-02-24T14:51:20.000Z</time>
      </trkpt>
      <trkpt lat="43.55391" lon="3.29756">
        <ele>137.630255</ele>
        <time>2022-02-24T14:51:21.000Z</time>
      </trkpt>
      <trkpt lat="43.55393" lon="3.29756">
        <ele>137.542577</ele>
        <time>2022-02-24T14:51:22.000Z</time>
      </trkpt>
      <trkpt lat="43.55395" lon="3.29757">
        <ele>137.468523</ele>
        <time>2022-02-24T14:51:24.000Z</time>
      </trkpt>
      <trkpt lat="43.55406" lon="3.29761">
        <ele>137.048858</ele>
        <time>2022-02-24T14:51:25.000Z</time>
      </trkpt>
      <trkpt lat="43.55411" lon="3.29763">
        <ele>137.103025</ele>
        <time>2022-02-24T14:51:26.000Z</time>
      </trkpt>
      <trkpt lat="43.55413" lon="3.29764">
        <ele>137.290476</ele>
        <time>2022-02-24T14:51:28.000Z</time>
      </trkpt>
      <trkpt lat="43.55423" lon="3.29768">
        <ele>137.980282</ele>
        <time>2022-02-24T14:51:29.000Z</time>
      </trkpt>
      <trkpt lat="43.55426" lon="3.2977">
        <ele>138.227896</ele>
        <time>2022-02-24T14:51:30.000Z</time>
      </trkpt>
      <trkpt lat="43.5543" lon="3.29771">
        <ele>138.473944</ele>
        <time>2022-02-24T14:51:32.000Z</time>
      </trkpt>
      <trkpt lat="43.55432" lon="3.29772">
        <ele>138.641734</ele>
        <time>2022-02-24T14:51:34.000Z</time>
      </trkpt>
      <trkpt lat="43.55444" lon="3.29777">
        <ele>139.471354</ele>
        <time>2022-02-24T14:51:36.000Z</time>
      </trkpt>
      <trkpt lat="43.55447" lon="3.29778">
        <ele>139.713259</ele>
        <time>2022-02-24T14:51:38.000Z</time>
      </trkpt>
      <trkpt lat="43.55458" lon="3.29781">
        <ele>140.465875</ele>
        <time>2022-02-24T14:51:40.000Z</time>
      </trkpt>
      <trkpt lat="43.5546" lon="3.29782">
        <ele>140.645717</ele>
        <time>2022-02-24T14:51:42.000Z</time>
      </trkpt>
      <trkpt lat="43.55469" lon="3.29782">
        <ele>141.224745</ele>
        <time>2022-02-24T14:51:44.000Z</time>
      </trkpt>
      <trkpt lat="43.55471" lon="3.29782">
        <ele>141.411122</ele>
        <time>2022-02-24T14:51:46.000Z</time>
      </trkpt>
      <trkpt lat="43.55481" lon="3.29782">
        <ele>142.06597</ele>
        <time>2022-02-24T14:51:48.000Z</time>
      </trkpt>
      <trkpt lat="43.55484" lon="3.29781">
        <ele>142.252146</ele>
        <time>2022-02-24T14:51:50.000Z</time>
      </trkpt>
      <trkpt lat="43.55496" lon="3.29782">
        <ele>143.093322</ele>
        <time>2022-02-24T14:51:52.000Z</time>
      </trkpt>
      <trkpt lat="43.55497" lon="3.29782">
        <ele>143.176638</ele>
        <time>2022-02-24T14:51:54.000Z</time>
      </trkpt>
      <trkpt lat="43.55508" lon="3.29785">
        <ele>143.973094</ele>
        <time>2022-02-24T14:51:56.000Z</time>
      </trkpt>
      <trkpt lat="43.55512" lon="3.29786">
        <ele>144.191454</ele>
        <time>2022-02-24T14:51:58.000Z</time>
      </trkpt>
      <trkpt lat="43.55516" lon="3.29787">
        <ele>144.510558</ele>
        <time>2022-02-24T14:52:00.000Z</time>
      </trkpt>
      <trkpt lat="43.55517" lon="3.29787">
        <ele>144.59462</ele>
        <time>2022-02-24T14:52:02.000Z</time>
      </trkpt>
      <trkpt lat="43.55529" lon="3.29791">
        <ele>145.458971</ele>
        <time>2022-02-24T14:52:04.000Z</time>
      </trkpt>
      <trkpt lat="43.5553" lon="3.29792">
        <ele>145.515013</ele>
        <time>2022-02-24T14:52:06.000Z</time>
      </trkpt>
      <trkpt lat="43.55535" lon="3.29793">
        <ele>145.837965</ele>
        <time>2022-02-24T14:52:08.000Z</time>
      </trkpt>
      <trkpt lat="43.55542" lon="3.29798">
        <ele>146.410539</ele>
        <time>2022-02-24T14:52:10.000Z</time>
      </trkpt>
      <trkpt lat="43.55545" lon="3.29799">
        <ele>146.604789</ele>
        <time>2022-02-24T14:52:12.000Z</time>
      </trkpt>
      <trkpt lat="43.55546" lon="3.29799">
        <ele>146.661933</ele>
        <time>2022-02-24T14:52:14.000Z</time>
      </trkpt>
      <trkpt lat="43.55553" lon="3.29804">
        <ele>147.236001</ele>
        <time>2022-02-24T14:52:16.000Z</time>
      </trkpt>
      <trkpt lat="43.55555" lon="3.29805">
        <ele>147.327865</ele>
        <time>2022-02-24T14:52:17.000Z</time>
      </trkpt>
      <trkpt lat="43.55555" lon="3.29805">
        <ele>147.378389</ele>
        <time>2022-02-24T14:52:20.000Z</time>
      </trkpt>
      <trkpt lat="43.55562" lon="3.29808">
        <ele>147.854092</ele>
        <time>2022-02-24T14:52:22.000Z</time>
      </trkpt>
      <trkpt lat="43.55564" lon="3.29809">
        <ele>147.994261</ele>
        <time>2022-02-24T14:52:23.000Z</time>
      </trkpt>
      <trkpt lat="43.55565" lon="3.2981">
        <ele>148.111565</ele>
        <time>2022-02-24T14:52:24.000Z</time>
      </trkpt>
      <trkpt lat="43.55567" lon="3.29811">
        <ele>148.222413</ele>
        <time>2022-02-24T14:52:26.000Z</time>
      </trkpt>
      <trkpt lat="43.55569" lon="3.29812">
        <ele>148.364439</ele>
        <time>2022-02-24T14:52:27.000Z</time>
      </trkpt>
      <trkpt lat="43.5557" lon="3.29813">
        <ele>148.477185</ele>
        <time>2022-02-24T14:52:30.000Z</time>
      </trkpt>
      <trkpt lat="43.55576" lon="3.29816">
        <ele>148.878439</ele>
        <time>2022-02-24T14:52:32.000Z</time>
      </trkpt>
      <trkpt lat="43.55581" lon="3.29819">
        <ele>149.29549</ele>
        <time>2022-02-24T14:52:34.000Z</time>
      </trkpt>
      <trkpt lat="43.55586" lon="3.29821">
        <ele>149.789949</ele>
        <time>2022-02-24T14:52:36.000Z</time>
      </trkpt>
      <trkpt lat="43.55592" lon="3.29823">
        <ele>150.353925</ele>
        <time>2022-02-24T14:52:38.000Z</time>
      </trkpt>
      <trkpt lat="43.55593" lon="3.29824">
        <ele>150.507922</ele>
        <time>2022-02-24T14:52:40.000Z</time>
      </trkpt>
      <trkpt lat="43.55598" lon="3.29825">
        <ele>151.04278</ele>
        <time>2022-02-24T14:52:42.000Z</time>
      </trkpt>
      <trkpt lat="43.55602" lon="3.29825">
        <ele>151.354248</ele>
        <time>2022-02-24T14:52:44.000Z</time>
      </trkpt>
      <trkpt lat="43.55604" lon="3.29826">
        <ele>151.626107</ele>
        <time>2022-02-24T14:52:46.000Z</time>
      </trkpt>
      <trkpt lat="43.55606" lon="3.29826">
        <ele>151.775973</ele>
        <time>2022-02-24T14:52:48.000Z</time>
      </trkpt>
      <trkpt lat="43.55613" lon="3.29826">
        <ele>152.494527</ele>
        <time>2022-02-24T14:52:50.000Z</time>
      </trkpt>
      <trkpt lat="43.55616" lon="3.29826">
        <ele>152.804648</ele>
        <time>2022-02-24T14:52:51.000Z</time>
      </trkpt>
      <trkpt lat="43.55619" lon="3.29826">
        <ele>153.074964</ele>
        <time>2022-02-24T14:52:52.000Z</time>
      </trkpt>
      <trkpt lat="43.55621" lon="3.29825">
        <ele>153.26581</ele>
        <time>2022-02-24T14:52:54.000Z</time>
      </trkpt>
      <trkpt lat="43.55626" lon="3.29824">
        <ele>153.805729</ele>
        <time>2022-02-24T14:52:56.000Z</time>
      </trkpt>
      <trkpt lat="43.55634" lon="3.29821">
        <ele>154.621226</ele>
        <time>2022-02-24T14:52:58.000Z</time>
      </trkpt>
      <trkpt lat="43.55636" lon="3.29821">
        <ele>154.854818</ele>
        <time>2022-02-24T14:53:00.000Z</time>
      </trkpt>
      <trkpt lat="43.55641" lon="3.29819">
        <ele>155.330049</ele>
        <time>2022-02-24T14:53:02.000Z</time>
      </trkpt>
      <trkpt lat="43.55648" lon="3.29817">
        <ele>156.070965</ele>
        <time>2022-02-24T14:53:04.000Z</time>
      </trkpt>
      <trkpt lat="43.5565" lon="3.29816">
        <ele>156.265476</ele>
        <time>2022-02-24T14:53:06.000Z</time>
      </trkpt>
      <trkpt lat="43.55655" lon="3.29815">
        <ele>156.72912</ele>
        <time>2022-02-24T14:53:08.000Z</time>
      </trkpt>
      <trkpt lat="43.5566" lon="3.29814">
        <ele>157.233304</ele>
        <time>2022-02-24T14:53:10.000Z</time>
      </trkpt>
      <trkpt lat="43.55667" lon="3.29813">
        <ele>158.000515</ele>
        <time>2022-02-24T14:53:12.000Z</time>
      </trkpt>
      <trkpt lat="43.5567" lon="3.29812">
        <ele>158.274674</ele>
        <time>2022-02-24T14:53:14.000Z</time>
      </trkpt>
      <trkpt lat="43.55671" lon="3.29812">
        <ele>158.344903</ele>
        <time>2022-02-24T14:53:16.000Z</time>
      </trkpt>
      <trkpt lat="43.55679" lon="3.2981">
        <ele>159.232686</ele>
        <time>2022-02-24T14:53:18.000Z</time>
      </trkpt>
      <trkpt lat="43.55683" lon="3.29809">
        <ele>159.576884</ele>
        <time>2022-02-24T14:53:20.000Z</time>
      </trkpt>
      <trkpt lat="43.55684" lon="3.29809">
        <ele>159.659614</ele>
        <time>2022-02-24T14:53:22.000Z</time>
      </trkpt>
      <trkpt lat="43.5569" lon="3.29807">
        <ele>160.287017</ele>
        <time>2022-02-24T14:53:24.000Z</time>
      </trkpt>
      <trkpt lat="43.55695" lon="3.29805">
        <ele>160.868978</ele>
        <time>2022-02-24T14:53:26.000Z</time>
      </trkpt>
      <trkpt lat="43.55703" lon="3.29803">
        <ele>161.652257</ele>
        <time>2022-02-24T14:53:28.000Z</time>
      </trkpt>
      <trkpt lat="43.55706" lon="3.29802">
        <ele>161.915325</ele>
        <time>2022-02-24T14:53:30.000Z</time>
      </trkpt>
      <trkpt lat="43.55709" lon="3.29802">
        <ele>162.269363</ele>
        <time>2022-02-24T14:53:32.000Z</time>
      </trkpt>
      <trkpt lat="43.5571" lon="3.29801">
        <ele>162.340701</ele>
        <time>2022-02-24T14:53:34.000Z</time>
      </trkpt>
      <trkpt lat="43.5572" lon="3.298">
        <ele>163.335415</ele>
        <time>2022-02-24T14:53:36.000Z</time>
      </trkpt>
      <trkpt lat="43.55721" lon="3.298">
        <ele>163.415577</ele>
        <time>2022-02-24T14:53:38.000Z</time>
      </trkpt>
      <trkpt lat="43.5573" lon="3.298">
        <ele>164.403565</ele>
        <time>2022-02-24T14:53:40.000Z</time>
      </trkpt>
      <trkpt lat="43.55734" lon="3.298">
        <ele>164.754711</ele>
        <time>2022-02-24T14:53:42.000Z</time>
      </trkpt>
      <trkpt lat="43.55735" lon="3.298">
        <ele>164.827858</ele>
        <time>2022-02-24T14:53:44.000Z</time>
      </trkpt>
      <trkpt lat="43.55745" lon="3.29803">
        <ele>165.871517</ele>
        <time>2022-02-24T14:53:46.000Z</time>
      </trkpt>
      <trkpt lat="43.55746" lon="3.29803">
        <ele>165.954248</ele>
        <time>2022-02-24T14:53:48.000Z</time>
      </trkpt>
      <trkpt lat="43.55751" lon="3.29805">
        <ele>166.456743</ele>
        <time>2022-02-24T14:53:50.000Z</time>
      </trkpt>
      <trkpt lat="43.55758" lon="3.29808">
        <ele>167.261364</ele>
        <time>2022-02-24T14:53:52.000Z</time>
      </trkpt>
      <trkpt lat="43.55761" lon="3.2981">
        <ele>167.264882</ele>
        <time>2022-02-24T14:53:54.000Z</time>
      </trkpt>
      <trkpt lat="43.55762" lon="3.2981">
        <ele>167.256825</ele>
        <time>2022-02-24T14:53:56.000Z</time>
      </trkpt>
      <trkpt lat="43.55766" lon="3.29814">
        <ele>167.212571</ele>
        <time>2022-02-24T14:53:58.000Z</time>
      </trkpt>
      <trkpt lat="43.55771" lon="3.29821">
        <ele>167.14683</ele>
        <time>2022-02-24T14:54:00.000Z</time>
      </trkpt>
      <trkpt lat="43.55771" lon="3.29821">
        <ele>167.143003</ele>
        <time>2022-02-24T14:54:02.000Z</time>
      </trkpt>
      <trkpt lat="43.55774" lon="3.29827">
        <ele>167.10136</ele>
        <time>2022-02-24T14:54:04.000Z</time>
      </trkpt>
      <trkpt lat="43.55773" lon="3.29827">
        <ele>167.096514</ele>
        <time>2022-02-24T14:54:06.000Z</time>
      </trkpt>
      <trkpt lat="43.55771" lon="3.29829">
        <ele>167.069556</ele>
        <time>2022-02-24T14:54:08.000Z</time>
      </trkpt>
      <trkpt lat="43.55765" lon="3.29828">
        <ele>167.01711</ele>
        <time>2022-02-24T14:54:09.000Z</time>
      </trkpt>
      <trkpt lat="43.55763" lon="3.29827">
        <ele>167.000996</ele>
        <time>2022-02-24T14:54:10.000Z</time>
      </trkpt>
      <trkpt lat="43.55761" lon="3.29826">
        <ele>166.978438</ele>
        <time>2022-02-24T14:54:12.000Z</time>
      </trkpt>
      <trkpt lat="43.5576" lon="3.29826">
        <ele>166.968001</ele>
        <time>2022-02-24T14:54:14.000Z</time>
      </trkpt>
      <trkpt lat="43.5575" lon="3.29824">
        <ele>166.872481</ele>
        <time>2022-02-24T14:54:15.000Z</time>
      </trkpt>
      <trkpt lat="43.55745" lon="3.29823">
        <ele>166.830091</ele>
        <time>2022-02-24T14:54:16.000Z</time>
      </trkpt>
      <trkpt lat="43.55742" lon="3.29823">
        <ele>166.79887</ele>
        <time>2022-02-24T14:54:17.000Z</time>
      </trkpt>
      <trkpt lat="43.55738" lon="3.29823">
        <ele>166.76767</ele>
        <time>2022-02-24T14:54:18.000Z</time>
      </trkpt>
      <trkpt lat="43.55734" lon="3.29824">
        <ele>166.725135</ele>
        <time>2022-02-24T14:54:20.000Z</time>
      </trkpt>
      <trkpt lat="43.5573" lon="3.29825">
        <ele>166.689645</ele>
        <time>2022-02-24T14:54:22.000Z</time>
      </trkpt>
      <trkpt lat="43.55706" lon="3.29832">
        <ele>166.470877</ele>
        <time>2022-02-24T14:54:24.000Z</time>
      </trkpt>
      <trkpt lat="43.55702" lon="3.29833">
        <ele>166.431075</ele>
        <time>2022-02-24T14:54:26.000Z</time>
      </trkpt>
      <trkpt lat="43.55681" lon="3.29841">
        <ele>166.230851</ele>
        <time>2022-02-24T14:54:28.000Z</time>
      </trkpt>
      <trkpt lat="43.5568" lon="3.29842">
        <ele>166.216523</ele>
        <time>2022-02-24T14:54:30.000Z</time>
      </trkpt>
      <trkpt lat="43.55669" lon="3.29846">
        <ele>166.114644</ele>
        <time>2022-02-24T14:54:32.000Z</time>
      </trkpt>
      <trkpt lat="43.55658" lon="3.29851">
        <ele>166.008506</ele>
        <time>2022-02-24T14:54:34.000Z</time>
      </trkpt>
      <trkpt lat="43.55645" lon="3.29856">
        <ele>165.880738</ele>
        <time>2022-02-24T14:54:36.000Z</time>
      </trkpt>
      <trkpt lat="43.55644" lon="3.29857">
        <ele>165.870302</ele>
        <time>2022-02-24T14:54:38.000Z</time>
      </trkpt>
      <trkpt lat="43.55637" lon="3.2986">
        <ele>165.80763</ele>
        <time>2022-02-24T14:54:40.000Z</time>
      </trkpt>
      <trkpt lat="43.55634" lon="3.29857">
        <ele>165.777039</ele>
        <time>2022-02-24T14:54:42.000Z</time>
      </trkpt>
      <trkpt lat="43.55632" lon="3.29859">
        <ele>165.749529</ele>
        <time>2022-02-24T14:54:44.000Z</time>
      </trkpt>
      <trkpt lat="43.55627" lon="3.29861">
        <ele>165.708545</ele>
        <time>2022-02-24T14:54:46.000Z</time>
      </trkpt>
      <trkpt lat="43.55612" lon="3.29868">
        <ele>166.571393</ele>
        <time>2022-02-24T14:54:48.000Z</time>
      </trkpt>
      <trkpt lat="43.55597" lon="3.29879">
        <ele>168.365452</ele>
        <time>2022-02-24T14:54:50.000Z</time>
      </trkpt>
      <trkpt lat="43.55592" lon="3.2988">
        <ele>168.814286</ele>
        <time>2022-02-24T14:54:51.000Z</time>
      </trkpt>
      <trkpt lat="43.55589" lon="3.29881">
        <ele>169.177764</ele>
        <time>2022-02-24T14:54:54.000Z</time>
      </trkpt>
      <trkpt lat="43.55575" lon="3.29885">
        <ele>170.695517</ele>
        <time>2022-02-24T14:54:56.000Z</time>
      </trkpt>
      <trkpt lat="43.55568" lon="3.29887">
        <ele>171.396413</ele>
        <time>2022-02-24T14:54:57.000Z</time>
      </trkpt>
      <trkpt lat="43.55564" lon="3.29889">
        <ele>171.892673</ele>
        <time>2022-02-24T14:54:59.000Z</time>
      </trkpt>
      <trkpt lat="43.5556" lon="3.2989">
        <ele>172.305614</ele>
        <time>2022-02-24T14:55:00.000Z</time>
      </trkpt>
      <trkpt lat="43.55558" lon="3.29891">
        <ele>172.554646</ele>
        <time>2022-02-24T14:55:02.000Z</time>
      </trkpt>
      <trkpt lat="43.5555" lon="3.29894">
        <ele>173.382523</ele>
        <time>2022-02-24T14:55:04.000Z</time>
      </trkpt>
      <trkpt lat="43.55541" lon="3.29897">
        <ele>174.373321</ele>
        <time>2022-02-24T14:55:06.000Z</time>
      </trkpt>
      <trkpt lat="43.55538" lon="3.29898">
        <ele>174.666345</ele>
        <time>2022-02-24T14:55:07.000Z</time>
      </trkpt>
      <trkpt lat="43.55537" lon="3.299">
        <ele>174.869434</ele>
        <time>2022-02-24T14:55:08.000Z</time>
      </trkpt>
      <trkpt lat="43.55536" lon="3.29902">
        <ele>175.066586</ele>
        <time>2022-02-24T14:55:09.000Z</time>
      </trkpt>
      <trkpt lat="43.55535" lon="3.29904">
        <ele>175.247101</ele>
        <time>2022-02-24T14:55:10.000Z</time>
      </trkpt>
      <trkpt lat="43.55534" lon="3.29906">
        <ele>175.454939</ele>
        <time>2022-02-24T14:55:11.000Z</time>
      </trkpt>
      <trkpt lat="43.55535" lon="3.2991">
        <ele>175.701995</ele>
        <time>2022-02-24T14:55:13.000Z</time>
      </trkpt>
      <trkpt lat="43.55537" lon="3.29913">
        <ele>175.991969</ele>
        <time>2022-02-24T14:55:15.000Z</time>
      </trkpt>
      <trkpt lat="43.55539" lon="3.29915">
        <ele>176.278321</ele>
        <time>2022-02-24T14:55:16.000Z</time>
      </trkpt>
      <trkpt lat="43.55541" lon="3.29919">
        <ele>176.605641</ele>
        <time>2022-02-24T14:55:18.000Z</time>
      </trkpt>
      <trkpt lat="43.55543" lon="3.29923">
        <ele>176.975708</ele>
        <time>2022-02-24T14:55:19.000Z</time>
      </trkpt>
      <trkpt lat="43.55545" lon="3.29926">
        <ele>177.375225</ele>
        <time>2022-02-24T14:55:20.000Z</time>
      </trkpt>
      <trkpt lat="43.55548" lon="3.29929">
        <ele>177.743998</ele>
        <time>2022-02-24T14:55:21.000Z</time>
      </trkpt>
      <trkpt lat="43.55551" lon="3.29932">
        <ele>178.08538</ele>
        <time>2022-02-24T14:55:22.000Z</time>
      </trkpt>
      <trkpt lat="43.55554" lon="3.29934">
        <ele>178.435187</ele>
        <time>2022-02-24T14:55:24.000Z</time>
      </trkpt>
      <trkpt lat="43.55557" lon="3.29935">
        <ele>178.809957</ele>
        <time>2022-02-24T14:55:25.000Z</time>
      </trkpt>
      <trkpt lat="43.55561" lon="3.29937">
        <ele>179.190504</ele>
        <time>2022-02-24T14:55:26.000Z</time>
      </trkpt>
      <trkpt lat="43.55564" lon="3.29938">
        <ele>179.557153</ele>
        <time>2022-02-24T14:55:27.000Z</time>
      </trkpt>
      <trkpt lat="43.55568" lon="3.29938">
        <ele>179.918074</ele>
        <time>2022-02-24T14:55:28.000Z</time>
      </trkpt>
      <trkpt lat="43.55571" lon="3.29939">
        <ele>180.245761</ele>
        <time>2022-02-24T14:55:29.000Z</time>
      </trkpt>
      <trkpt lat="43.55574" lon="3.29939">
        <ele>180.561101</ele>
        <time>2022-02-24T14:55:30.000Z</time>
      </trkpt>
      <trkpt lat="43.55577" lon="3.29939">
        <ele>180.886661</ele>
        <time>2022-02-24T14:55:31.000Z</time>
      </trkpt>
      <trkpt lat="43.5558" lon="3.29939">
        <ele>181.201725</ele>
        <time>2022-02-24T14:55:32.000Z</time>
      </trkpt>
      <trkpt lat="43.55583" lon="3.29939">
        <ele>181.527286</ele>
        <time>2022-02-24T14:55:33.000Z</time>
      </trkpt>
      <trkpt lat="43.55587" lon="3.29939">
        <ele>181.926323</ele>
        <time>2022-02-24T14:55:35.000Z</time>
      </trkpt>
      <trkpt lat="43.5559" lon="3.29939">
        <ele>182.325578</ele>
        <time>2022-02-24T14:55:36.000Z</time>
      </trkpt>
      <trkpt lat="43.55595" lon="3.29939">
        <ele>182.766539</ele>
        <time>2022-02-24T14:55:37.000Z</time>
      </trkpt>
      <trkpt lat="43.55599" lon="3.29939">
        <ele>183.207763</ele>
        <time>2022-02-24T14:55:39.000Z</time>
      </trkpt>
      <trkpt lat="43.55603" lon="3.29939">
        <ele>183.607381</ele>
        <time>2022-02-24T14:55:40.000Z</time>
      </trkpt>
      <trkpt lat="43.55607" lon="3.2994">
        <ele>184.019382</ele>
        <time>2022-02-24T14:55:41.000Z</time>
      </trkpt>
      <trkpt lat="43.5561" lon="3.29941">
        <ele>184.422963</ele>
        <time>2022-02-24T14:55:42.000Z</time>
      </trkpt>
      <trkpt lat="43.55614" lon="3.29942">
        <ele>184.796474</ele>
        <time>2022-02-24T14:55:44.000Z</time>
      </trkpt>
      <trkpt lat="43.55618" lon="3.29943">
        <ele>185.160932</ele>
        <time>2022-02-24T14:55:45.000Z</time>
      </trkpt>
      <trkpt lat="43.5562" lon="3.29943">
        <ele>185.386163</ele>
        <time>2022-02-24T14:55:47.000Z</time>
      </trkpt>
      <trkpt lat="43.55631" lon="3.29948">
        <ele>186.440012</ele>
        <time>2022-02-24T14:55:48.000Z</time>
      </trkpt>
      <trkpt lat="43.55635" lon="3.2995">
        <ele>186.814313</ele>
        <time>2022-02-24T14:55:49.000Z</time>
      </trkpt>
      <trkpt lat="43.55637" lon="3.29951">
        <ele>187.068601</ele>
        <time>2022-02-24T14:55:50.000Z</time>
      </trkpt>
      <trkpt lat="43.5564" lon="3.29951">
        <ele>187.292067</ele>
        <time>2022-02-24T14:55:51.000Z</time>
      </trkpt>
      <trkpt lat="43.55642" lon="3.29952">
        <ele>187.555442</ele>
        <time>2022-02-24T14:55:52.000Z</time>
      </trkpt>
      <trkpt lat="43.55645" lon="3.29953">
        <ele>187.855374</ele>
        <time>2022-02-24T14:55:54.000Z</time>
      </trkpt>
      <trkpt lat="43.55648" lon="3.29954">
        <ele>188.107915</ele>
        <time>2022-02-24T14:55:55.000Z</time>
      </trkpt>
      <trkpt lat="43.55654" lon="3.29956">
        <ele>188.663858</ele>
        <time>2022-02-24T14:55:57.000Z</time>
      </trkpt>
      <trkpt lat="43.55657" lon="3.29956">
        <ele>188.950506</ele>
        <time>2022-02-24T14:55:58.000Z</time>
      </trkpt>
      <trkpt lat="43.5566" lon="3.29957">
        <ele>189.245422</ele>
        <time>2022-02-24T14:55:59.000Z</time>
      </trkpt>
      <trkpt lat="43.55663" lon="3.29958">
        <ele>189.530112</ele>
        <time>2022-02-24T14:56:00.000Z</time>
      </trkpt>
      <trkpt lat="43.55666" lon="3.29958">
        <ele>189.852247</ele>
        <time>2022-02-24T14:56:01.000Z</time>
      </trkpt>
      <trkpt lat="43.5567" lon="3.29959">
        <ele>190.221256</ele>
        <time>2022-02-24T14:56:03.000Z</time>
      </trkpt>
      <trkpt lat="43.55674" lon="3.29959">
        <ele>190.581598</ele>
        <time>2022-02-24T14:56:04.000Z</time>
      </trkpt>
      <trkpt lat="43.55678" lon="3.2996">
        <ele>190.947396</ele>
        <time>2022-02-24T14:56:05.000Z</time>
      </trkpt>
      <trkpt lat="43.55682" lon="3.29962">
        <ele>191.359757</ele>
        <time>2022-02-24T14:56:07.000Z</time>
      </trkpt>
      <trkpt lat="43.55686" lon="3.29964">
        <ele>191.74054</ele>
        <time>2022-02-24T14:56:08.000Z</time>
      </trkpt>
      <trkpt lat="43.5569" lon="3.29966">
        <ele>192.121323</ele>
        <time>2022-02-24T14:56:09.000Z</time>
      </trkpt>
      <trkpt lat="43.55693" lon="3.29968">
        <ele>192.46441</ele>
        <time>2022-02-24T14:56:10.000Z</time>
      </trkpt>
      <trkpt lat="43.55696" lon="3.29969">
        <ele>192.778685</ele>
        <time>2022-02-24T14:56:11.000Z</time>
      </trkpt>
      <trkpt lat="43.55699" lon="3.29971">
        <ele>193.081697</ele>
        <time>2022-02-24T14:56:12.000Z</time>
      </trkpt>
      <trkpt lat="43.55702" lon="3.29972">
        <ele>193.391189</ele>
        <time>2022-02-24T14:56:13.000Z</time>
      </trkpt>
      <trkpt lat="43.55706" lon="3.29974">
        <ele>193.725467</ele>
        <time>2022-02-24T14:56:14.000Z</time>
      </trkpt>
      <trkpt lat="43.55709" lon="3.29975">
        <ele>194.032767</ele>
        <time>2022-02-24T14:56:15.000Z</time>
      </trkpt>
      <trkpt lat="43.55712" lon="3.29977">
        <ele>194.331128</ele>
        <time>2022-02-24T14:56:16.000Z</time>
      </trkpt>
      <trkpt lat="43.55715" lon="3.29978">
        <ele>194.676408</ele>
        <time>2022-02-24T14:56:18.000Z</time>
      </trkpt>
      <trkpt lat="43.55718" lon="3.29979">
        <ele>194.970679</ele>
        <time>2022-02-24T14:56:19.000Z</time>
      </trkpt>
      <trkpt lat="43.55721" lon="3.2998">
        <ele>195.27401</ele>
        <time>2022-02-24T14:56:20.000Z</time>
      </trkpt>
      <trkpt lat="43.55724" lon="3.29982">
        <ele>195.566453</ele>
        <time>2022-02-24T14:56:22.000Z</time>
      </trkpt>
      <trkpt lat="43.55726" lon="3.29982">
        <ele>195.747527</ele>
        <time>2022-02-24T14:56:24.000Z</time>
      </trkpt>
      <trkpt lat="43.55733" lon="3.29984">
        <ele>196.413213</ele>
        <time>2022-02-24T14:56:26.000Z</time>
      </trkpt>
      <trkpt lat="43.55742" lon="3.29987">
        <ele>197.261069</ele>
        <time>2022-02-24T14:56:28.000Z</time>
      </trkpt>
      <trkpt lat="43.55743" lon="3.29987">
        <ele>197.406452</ele>
        <time>2022-02-24T14:56:30.000Z</time>
      </trkpt>
      <trkpt lat="43.55747" lon="3.29988">
        <ele>197.738842</ele>
        <time>2022-02-24T14:56:32.000Z</time>
      </trkpt>
      <trkpt lat="43.55748" lon="3.29989">
        <ele>197.816945</ele>
        <time>2022-02-24T14:56:34.000Z</time>
      </trkpt>
      <trkpt lat="43.55751" lon="3.2999">
        <ele>198.157645</ele>
        <time>2022-02-24T14:56:36.000Z</time>
      </trkpt>
      <trkpt lat="43.55751" lon="3.29991">
        <ele>198.200536</ele>
        <time>2022-02-24T14:56:38.000Z</time>
      </trkpt>
      <trkpt lat="43.55754" lon="3.29992">
        <ele>198.47475</ele>
        <time>2022-02-24T14:56:40.000Z</time>
      </trkpt>
      <trkpt lat="43.55755" lon="3.29993">
        <ele>198.517641</ele>
        <time>2022-02-24T14:56:42.000Z</time>
      </trkpt>
      <trkpt lat="43.55758" lon="3.29995">
        <ele>198.900803</ele>
        <time>2022-02-24T14:56:44.000Z</time>
      </trkpt>
      <trkpt lat="43.5576" lon="3.29996">
        <ele>199.100602</ele>
        <time>2022-02-24T14:56:46.000Z</time>
      </trkpt>
      <trkpt lat="43.55762" lon="3.29998">
        <ele>199.32574</ele>
        <time>2022-02-24T14:56:48.000Z</time>
      </trkpt>
      <trkpt lat="43.55763" lon="3.29998">
        <ele>199.37228</ele>
        <time>2022-02-24T14:56:50.000Z</time>
      </trkpt>
      <trkpt lat="43.55768" lon="3.30004">
        <ele>200.051856</ele>
        <time>2022-02-24T14:56:52.000Z</time>
      </trkpt>
      <trkpt lat="43.5577" lon="3.30006">
        <ele>200.22638</ele>
        <time>2022-02-24T14:56:53.000Z</time>
      </trkpt>
      <trkpt lat="43.55771" lon="3.30008">
        <ele>200.409252</ele>
        <time>2022-02-24T14:56:55.000Z</time>
      </trkpt>
      <trkpt lat="43.55773" lon="3.3001">
        <ele>200.64195</ele>
        <time>2022-02-24T14:56:56.000Z</time>
      </trkpt>
      <trkpt lat="43.55774" lon="3.30011">
        <ele>200.778396</ele>
        <time>2022-02-24T14:56:58.000Z</time>
      </trkpt>
      <trkpt lat="43.55782" lon="3.30018">
        <ele>201.573319</ele>
        <time>2022-02-24T14:57:00.000Z</time>
      </trkpt>
      <trkpt lat="43.55785" lon="3.30022">
        <ele>201.789052</ele>
        <time>2022-02-24T14:57:02.000Z</time>
      </trkpt>
      <trkpt lat="43.55787" lon="3.30023">
        <ele>201.900455</ele>
        <time>2022-02-24T14:57:03.000Z</time>
      </trkpt>
      <trkpt lat="43.55789" lon="3.30024">
        <ele>201.985236</ele>
        <time>2022-02-24T14:57:05.000Z</time>
      </trkpt>
      <trkpt lat="43.5579" lon="3.30025">
        <ele>202.071685</ele>
        <time>2022-02-24T14:57:06.000Z</time>
      </trkpt>
      <trkpt lat="43.55792" lon="3.30027">
        <ele>202.170471</ele>
        <time>2022-02-24T14:57:08.000Z</time>
      </trkpt>
      <trkpt lat="43.55793" lon="3.30029">
        <ele>202.271033</ele>
        <time>2022-02-24T14:57:10.000Z</time>
      </trkpt>
      <trkpt lat="43.55795" lon="3.3003">
        <ele>202.365309</ele>
        <time>2022-02-24T14:57:11.000Z</time>
      </trkpt>
      <trkpt lat="43.55796" lon="3.30032">
        <ele>202.459586</ele>
        <time>2022-02-24T14:57:12.000Z</time>
      </trkpt>
      <trkpt lat="43.55798" lon="3.30033">
        <ele>202.558372</ele>
        <time>2022-02-24T14:57:13.000Z</time>
      </trkpt>
      <trkpt lat="43.558" lon="3.30035">
        <ele>202.670751</ele>
        <time>2022-02-24T14:57:15.000Z</time>
      </trkpt>
      <trkpt lat="43.55801" lon="3.30038">
        <ele>202.779498</ele>
        <time>2022-02-24T14:57:16.000Z</time>
      </trkpt>
      <trkpt lat="43.55803" lon="3.3004">
        <ele>202.890903</ele>
        <time>2022-02-24T14:57:17.000Z</time>
      </trkpt>
      <trkpt lat="43.55804" lon="3.30042">
        <ele>203.008487</ele>
        <time>2022-02-24T14:57:18.000Z</time>
      </trkpt>
      <trkpt lat="43.55806" lon="3.30044">
        <ele>203.125373</ele>
        <time>2022-02-24T14:57:19.000Z</time>
      </trkpt>
      <trkpt lat="43.55807" lon="3.30047">
        <ele>203.245076</ele>
        <time>2022-02-24T14:57:20.000Z</time>
      </trkpt>
      <trkpt lat="43.55809" lon="3.3005">
        <ele>203.370549</ele>
        <time>2022-02-24T14:57:21.000Z</time>
      </trkpt>
      <trkpt lat="43.5581" lon="3.30052">
        <ele>203.502057</ele>
        <time>2022-02-24T14:57:22.000Z</time>
      </trkpt>
      <trkpt lat="43.55812" lon="3.30056">
        <ele>203.639531</ele>
        <time>2022-02-24T14:57:23.000Z</time>
      </trkpt>
      <trkpt lat="43.55813" lon="3.30059">
        <ele>203.789497</ele>
        <time>2022-02-24T14:57:25.000Z</time>
      </trkpt>
      <trkpt lat="43.55815" lon="3.30063">
        <ele>203.939464</ele>
        <time>2022-02-24T14:57:26.000Z</time>
      </trkpt>
      <trkpt lat="43.55816" lon="3.30066">
        <ele>204.069083</ele>
        <time>2022-02-24T14:57:27.000Z</time>
      </trkpt>
      <trkpt lat="43.55817" lon="3.30069">
        <ele>204.199705</ele>
        <time>2022-02-24T14:57:28.000Z</time>
      </trkpt>
      <trkpt lat="43.55819" lon="3.30072">
        <ele>204.349672</ele>
        <time>2022-02-24T14:57:30.000Z</time>
      </trkpt>
      <trkpt lat="43.55822" lon="3.30079">
        <ele>204.636653</ele>
        <time>2022-02-24T14:57:32.000Z</time>
      </trkpt>
      <trkpt lat="43.55823" lon="3.30082">
        <ele>204.777209</ele>
        <time>2022-02-24T14:57:33.000Z</time>
      </trkpt>
      <trkpt lat="43.55825" lon="3.30085">
        <ele>204.920592</ele>
        <time>2022-02-24T14:57:35.000Z</time>
      </trkpt>
      <trkpt lat="43.55827" lon="3.30089">
        <ele>205.081875</ele>
        <time>2022-02-24T14:57:36.000Z</time>
      </trkpt>
      <trkpt lat="43.55828" lon="3.30092">
        <ele>205.231842</ele>
        <time>2022-02-24T14:57:37.000Z</time>
      </trkpt>
      <trkpt lat="43.5583" lon="3.30096">
        <ele>205.381808</ele>
        <time>2022-02-24T14:57:38.000Z</time>
      </trkpt>
      <trkpt lat="43.55831" lon="3.30099">
        <ele>205.53496</ele>
        <time>2022-02-24T14:57:39.000Z</time>
      </trkpt>
      <trkpt lat="43.55833" lon="3.30103">
        <ele>205.700244</ele>
        <time>2022-02-24T14:57:40.000Z</time>
      </trkpt>
      <trkpt lat="43.55834" lon="3.30107">
        <ele>205.856604</ele>
        <time>2022-02-24T14:57:41.000Z</time>
      </trkpt>
      <trkpt lat="43.55835" lon="3.30111">
        <ele>206.000694</ele>
        <time>2022-02-24T14:57:42.000Z</time>
      </trkpt>
      <trkpt lat="43.55837" lon="3.30114">
        <ele>206.1596</ele>
        <time>2022-02-24T14:57:43.000Z</time>
      </trkpt>
      <trkpt lat="43.55838" lon="3.30117">
        <ele>206.255014</ele>
        <time>2022-02-24T14:57:45.000Z</time>
      </trkpt>
      <trkpt lat="43.55843" lon="3.30129">
        <ele>206.782247</ele>
        <time>2022-02-24T14:57:47.000Z</time>
      </trkpt>
      <trkpt lat="43.55845" lon="3.30133">
        <ele>206.977519</ele>
        <time>2022-02-24T14:57:48.000Z</time>
      </trkpt>
      <trkpt lat="43.55846" lon="3.30137">
        <ele>207.124323</ele>
        <time>2022-02-24T14:57:49.000Z</time>
      </trkpt>
      <trkpt lat="43.55848" lon="3.3014">
        <ele>207.271126</ele>
        <time>2022-02-24T14:57:50.000Z</time>
      </trkpt>
      <trkpt lat="43.55849" lon="3.30144">
        <ele>207.424278</ele>
        <time>2022-02-24T14:57:52.000Z</time>
      </trkpt>
      <trkpt lat="43.55851" lon="3.30148">
        <ele>207.592781</ele>
        <time>2022-02-24T14:57:53.000Z</time>
      </trkpt>
      <trkpt lat="43.55853" lon="3.30152">
        <ele>207.74914</ele>
        <time>2022-02-24T14:57:54.000Z</time>
      </trkpt>
      <trkpt lat="43.55854" lon="3.30156">
        <ele>207.921828</ele>
        <time>2022-02-24T14:57:56.000Z</time>
      </trkpt>
      <trkpt lat="43.55856" lon="3.3016">
        <ele>208.093569</ele>
        <time>2022-02-24T14:57:57.000Z</time>
      </trkpt>
      <trkpt lat="43.55857" lon="3.30164">
        <ele>208.253157</ele>
        <time>2022-02-24T14:57:58.000Z</time>
      </trkpt>
      <trkpt lat="43.55859" lon="3.30167">
        <ele>208.406309</ele>
        <time>2022-02-24T14:57:59.000Z</time>
      </trkpt>
      <trkpt lat="43.5586" lon="3.30171">
        <ele>208.556275</ele>
        <time>2022-02-24T14:58:00.000Z</time>
      </trkpt>
      <trkpt lat="43.55862" lon="3.30174">
        <ele>208.702708</ele>
        <time>2022-02-24T14:58:01.000Z</time>
      </trkpt>
      <trkpt lat="43.55864" lon="3.30177">
        <ele>208.852445</ele>
        <time>2022-02-24T14:58:02.000Z</time>
      </trkpt>
      <trkpt lat="43.55865" lon="3.30179">
        <ele>208.942135</ele>
        <time>2022-02-24T14:58:04.000Z</time>
      </trkpt>
      <trkpt lat="43.55871" lon="3.30189">
        <ele>209.42139</ele>
        <time>2022-02-24T14:58:05.000Z</time>
      </trkpt>
      <trkpt lat="43.55873" lon="3.30193">
        <ele>209.594705</ele>
        <time>2022-02-24T14:58:06.000Z</time>
      </trkpt>
      <trkpt lat="43.55874" lon="3.30196">
        <ele>209.726108</ele>
        <time>2022-02-24T14:58:07.000Z</time>
      </trkpt>
      <trkpt lat="43.55875" lon="3.30198">
        <ele>209.82766</ele>
        <time>2022-02-24T14:58:08.000Z</time>
      </trkpt>
      <trkpt lat="43.55877" lon="3.302">
        <ele>209.939064</ele>
        <time>2022-02-24T14:58:09.000Z</time>
      </trkpt>
      <trkpt lat="43.55878" lon="3.30202">
        <ele>210.04023</ele>
        <time>2022-02-24T14:58:10.000Z</time>
      </trkpt>
      <trkpt lat="43.5588" lon="3.30204">
        <ele>210.144752</ele>
        <time>2022-02-24T14:58:12.000Z</time>
      </trkpt>
      <trkpt lat="43.55881" lon="3.30207">
        <ele>210.261637</ele>
        <time>2022-02-24T14:58:13.000Z</time>
      </trkpt>
      <trkpt lat="43.55882" lon="3.30209">
        <ele>210.381609</ele>
        <time>2022-02-24T14:58:14.000Z</time>
      </trkpt>
      <trkpt lat="43.55883" lon="3.30212">
        <ele>210.489475</ele>
        <time>2022-02-24T14:58:15.000Z</time>
      </trkpt>
      <trkpt lat="43.55885" lon="3.30215">
        <ele>210.600509</ele>
        <time>2022-02-24T14:58:16.000Z</time>
      </trkpt>
      <trkpt lat="43.55886" lon="3.30217">
        <ele>210.702696</ele>
        <time>2022-02-24T14:58:17.000Z</time>
      </trkpt>
      <trkpt lat="43.55887" lon="3.3022">
        <ele>210.80037</ele>
        <time>2022-02-24T14:58:18.000Z</time>
      </trkpt>
      <trkpt lat="43.55888" lon="3.30223">
        <ele>210.924765</ele>
        <time>2022-02-24T14:58:20.000Z</time>
      </trkpt>
      <trkpt lat="43.5589" lon="3.30226">
        <ele>211.037047</ele>
        <time>2022-02-24T14:58:21.000Z</time>
      </trkpt>
      <trkpt lat="43.55891" lon="3.30228">
        <ele>211.140487</ele>
        <time>2022-02-24T14:58:22.000Z</time>
      </trkpt>
      <trkpt lat="43.55892" lon="3.30232">
        <ele>211.273085</ele>
        <time>2022-02-24T14:58:24.000Z</time>
      </trkpt>
      <trkpt lat="43.55894" lon="3.30235">
        <ele>211.406016</ele>
        <time>2022-02-24T14:58:26.000Z</time>
      </trkpt>
      <trkpt lat="43.55895" lon="3.30237">
        <ele>211.485247</ele>
        <time>2022-02-24T14:58:28.000Z</time>
      </trkpt>
      <trkpt lat="43.55899" lon="3.30248">
        <ele>211.900469</ele>
        <time>2022-02-24T14:58:30.000Z</time>
      </trkpt>
      <trkpt lat="43.559" lon="3.30252">
        <ele>212.062857</ele>
        <time>2022-02-24T14:58:32.000Z</time>
      </trkpt>
      <trkpt lat="43.55901" lon="3.30255">
        <ele>212.149255</ele>
        <time>2022-02-24T14:58:34.000Z</time>
      </trkpt>
      <trkpt lat="43.55903" lon="3.30262">
        <ele>212.394335</ele>
        <time>2022-02-24T14:58:35.000Z</time>
      </trkpt>
      <trkpt lat="43.55904" lon="3.30265">
        <ele>212.499587</ele>
        <time>2022-02-24T14:58:36.000Z</time>
      </trkpt>
      <trkpt lat="43.55904" lon="3.30267">
        <ele>212.578818</ele>
        <time>2022-02-24T14:58:37.000Z</time>
      </trkpt>
      <trkpt lat="43.55905" lon="3.30269">
        <ele>212.641693</ele>
        <time>2022-02-24T14:58:38.000Z</time>
      </trkpt>
      <trkpt lat="43.55905" lon="3.30271">
        <ele>212.7099</ele>
        <time>2022-02-24T14:58:39.000Z</time>
      </trkpt>
      <trkpt lat="43.55906" lon="3.30273">
        <ele>212.804231</ele>
        <time>2022-02-24T14:58:41.000Z</time>
      </trkpt>
      <trkpt lat="43.55906" lon="3.30276">
        <ele>212.88973</ele>
        <time>2022-02-24T14:58:42.000Z</time>
      </trkpt>
      <trkpt lat="43.55907" lon="3.30278">
        <ele>212.985037</ele>
        <time>2022-02-24T14:58:44.000Z</time>
      </trkpt>
      <trkpt lat="43.55907" lon="3.3028">
        <ele>213.053244</ele>
        <time>2022-02-24T14:58:46.000Z</time>
      </trkpt>
      <trkpt lat="43.55908" lon="3.30292">
        <ele>213.435733</ele>
        <time>2022-02-24T14:58:47.000Z</time>
      </trkpt>
      <trkpt lat="43.55908" lon="3.30297">
        <ele>213.596031</ele>
        <time>2022-02-24T14:58:48.000Z</time>
      </trkpt>
      <trkpt lat="43.55908" lon="3.303">
        <ele>213.709576</ele>
        <time>2022-02-24T14:58:49.000Z</time>
      </trkpt>
      <trkpt lat="43.55908" lon="3.30303">
        <ele>213.821312</ele>
        <time>2022-02-24T14:58:50.000Z</time>
      </trkpt>
      <trkpt lat="43.55909" lon="3.30307">
        <ele>213.933048</ele>
        <time>2022-02-24T14:58:51.000Z</time>
      </trkpt>
      <trkpt lat="43.55909" lon="3.3031">
        <ele>214.041492</ele>
        <time>2022-02-24T14:58:52.000Z</time>
      </trkpt>
      <trkpt lat="43.55909" lon="3.30313">
        <ele>214.152561</ele>
        <time>2022-02-24T14:58:53.000Z</time>
      </trkpt>
      <trkpt lat="43.5591" lon="3.30317">
        <ele>214.27831</ele>
        <time>2022-02-24T14:58:54.000Z</time>
      </trkpt>
      <trkpt lat="43.55911" lon="3.30321">
        <ele>214.420108</ele>
        <time>2022-02-24T14:58:55.000Z</time>
      </trkpt>
      <trkpt lat="43.55912" lon="3.30325">
        <ele>214.564031</ele>
        <time>2022-02-24T14:58:56.000Z</time>
      </trkpt>
      <trkpt lat="43.55913" lon="3.3033">
        <ele>214.724162</ele>
        <time>2022-02-24T14:58:57.000Z</time>
      </trkpt>
      <trkpt lat="43.55914" lon="3.30334">
        <ele>214.889104</ele>
        <time>2022-02-24T14:58:58.000Z</time>
      </trkpt>
      <trkpt lat="43.55915" lon="3.30339">
        <ele>215.040598</ele>
        <time>2022-02-24T14:58:59.000Z</time>
      </trkpt>
      <trkpt lat="43.55915" lon="3.30343">
        <ele>215.194301</ele>
        <time>2022-02-24T14:59:00.000Z</time>
      </trkpt>
      <trkpt lat="43.55916" lon="3.30347">
        <ele>215.342558</ele>
        <time>2022-02-24T14:59:01.000Z</time>
      </trkpt>
      <trkpt lat="43.55917" lon="3.30352">
        <ele>215.490816</ele>
        <time>2022-02-24T14:59:02.000Z</time>
      </trkpt>
      <trkpt lat="43.55918" lon="3.30357">
        <ele>215.670727</ele>
        <time>2022-02-24T14:59:03.000Z</time>
      </trkpt>
      <trkpt lat="43.55919" lon="3.30363">
        <ele>215.881035</ele>
        <time>2022-02-24T14:59:05.000Z</time>
      </trkpt>
      <trkpt lat="43.55919" lon="3.3037">
        <ele>216.117692</ele>
        <time>2022-02-24T14:59:06.000Z</time>
      </trkpt>
      <trkpt lat="43.5592" lon="3.30377">
        <ele>216.347061</ele>
        <time>2022-02-24T14:59:08.000Z</time>
      </trkpt>
      <trkpt lat="43.55921" lon="3.30383">
        <ele>216.554082</ele>
        <time>2022-02-24T14:59:10.000Z</time>
      </trkpt>
      <trkpt lat="43.55921" lon="3.30389">
        <ele>216.742003</ele>
        <time>2022-02-24T14:59:11.000Z</time>
      </trkpt>
      <trkpt lat="43.55922" lon="3.30395">
        <ele>216.942851</ele>
        <time>2022-02-24T14:59:12.000Z</time>
      </trkpt>
      <trkpt lat="43.55922" lon="3.30402">
        <ele>217.182808</ele>
        <time>2022-02-24T14:59:14.000Z</time>
      </trkpt>
      <trkpt lat="43.55923" lon="3.30409">
        <ele>217.41287</ele>
        <time>2022-02-24T14:59:15.000Z</time>
      </trkpt>
      <trkpt lat="43.55924" lon="3.30415">
        <ele>217.627394</ele>
        <time>2022-02-24T14:59:16.000Z</time>
      </trkpt>
      <trkpt lat="43.55924" lon="3.30421">
        <ele>217.828242</ele>
        <time>2022-02-24T14:59:18.000Z</time>
      </trkpt>
      <trkpt lat="43.55924" lon="3.30427">
        <ele>218.026135</ele>
        <time>2022-02-24T14:59:19.000Z</time>
      </trkpt>
      <trkpt lat="43.55925" lon="3.30433">
        <ele>218.21738</ele>
        <time>2022-02-24T14:59:20.000Z</time>
      </trkpt>
      <trkpt lat="43.55925" lon="3.30438">
        <ele>218.392011</ele>
        <time>2022-02-24T14:59:21.000Z</time>
      </trkpt>
      <trkpt lat="43.55925" lon="3.30443">
        <ele>218.560002</ele>
        <time>2022-02-24T14:59:22.000Z</time>
      </trkpt>
      <trkpt lat="43.55926" lon="3.30448">
        <ele>218.720895</ele>
        <time>2022-02-24T14:59:23.000Z</time>
      </trkpt>
      <trkpt lat="43.55926" lon="3.30452">
        <ele>218.872301</ele>
        <time>2022-02-24T14:59:24.000Z</time>
      </trkpt>
      <trkpt lat="43.55927" lon="3.30456">
        <ele>219.18456</ele>
        <time>2022-02-24T14:59:25.000Z</time>
      </trkpt>
      <trkpt lat="43.55927" lon="3.30461">
        <ele>219.596523</ele>
        <time>2022-02-24T14:59:27.000Z</time>
      </trkpt>
      <trkpt lat="43.55928" lon="3.30465">
        <ele>219.980607</ele>
        <time>2022-02-24T14:59:28.000Z</time>
      </trkpt>
      <trkpt lat="43.55928" lon="3.3047">
        <ele>220.383704</ele>
        <time>2022-02-24T14:59:30.000Z</time>
      </trkpt>
      <trkpt lat="43.55928" lon="3.30474">
        <ele>220.786802</ele>
        <time>2022-02-24T14:59:31.000Z</time>
      </trkpt>
      <trkpt lat="43.55929" lon="3.30479">
        <ele>221.198725</ele>
        <time>2022-02-24T14:59:32.000Z</time>
      </trkpt>
      <trkpt lat="43.55929" lon="3.30483">
        <ele>221.619478</ele>
        <time>2022-02-24T14:59:33.000Z</time>
      </trkpt>
      <trkpt lat="43.5593" lon="3.30489">
        <ele>222.102098</ele>
        <time>2022-02-24T14:59:34.000Z</time>
      </trkpt>
      <trkpt lat="43.5593" lon="3.30494">
        <ele>222.574761</ele>
        <time>2022-02-24T14:59:35.000Z</time>
      </trkpt>
      <trkpt lat="43.5593" lon="3.30499">
        <ele>223.039694</ele>
        <time>2022-02-24T14:59:36.000Z</time>
      </trkpt>
      <trkpt lat="43.55931" lon="3.30505">
        <ele>223.51347</ele>
        <time>2022-02-24T14:59:37.000Z</time>
      </trkpt>
      <trkpt lat="43.55931" lon="3.3051">
        <ele>223.984697</ele>
        <time>2022-02-24T14:59:38.000Z</time>
      </trkpt>
      <trkpt lat="43.55931" lon="3.30516">
        <ele>224.518162</ele>
        <time>2022-02-24T14:59:40.000Z</time>
      </trkpt>
      <trkpt lat="43.5593" lon="3.30523">
        <ele>225.169063</ele>
        <time>2022-02-24T14:59:42.000Z</time>
      </trkpt>
      <trkpt lat="43.5593" lon="3.3053">
        <ele>225.735747</ele>
        <time>2022-02-24T14:59:43.000Z</time>
      </trkpt>
      <trkpt lat="43.55929" lon="3.30535">
        <ele>226.251957</ele>
        <time>2022-02-24T14:59:44.000Z</time>
      </trkpt>
      <trkpt lat="43.55928" lon="3.30541">
        <ele>226.768166</ele>
        <time>2022-02-24T14:59:45.000Z</time>
      </trkpt>
      <trkpt lat="43.55927" lon="3.30547">
        <ele>227.290952</ele>
        <time>2022-02-24T14:59:47.000Z</time>
      </trkpt>
      <trkpt lat="43.55927" lon="3.30552">
        <ele>227.789715</ele>
        <time>2022-02-24T14:59:48.000Z</time>
      </trkpt>
      <trkpt lat="43.55926" lon="3.30557">
        <ele>228.254648</ele>
        <time>2022-02-24T14:59:49.000Z</time>
      </trkpt>
      <trkpt lat="43.55926" lon="3.30563">
        <ele>228.746115</ele>
        <time>2022-02-24T14:59:51.000Z</time>
      </trkpt>
      <trkpt lat="43.55925" lon="3.30568">
        <ele>229.209914</ele>
        <time>2022-02-24T14:59:52.000Z</time>
      </trkpt>
      <trkpt lat="43.55925" lon="3.30573">
        <ele>229.654468</ele>
        <time>2022-02-24T14:59:53.000Z</time>
      </trkpt>
      <trkpt lat="43.55925" lon="3.30578">
        <ele>230.099022</ele>
        <time>2022-02-24T14:59:54.000Z</time>
      </trkpt>
      <trkpt lat="43.55925" lon="3.30583">
        <ele>230.561359</ele>
        <time>2022-02-24T14:59:56.000Z</time>
      </trkpt>
      <trkpt lat="43.55925" lon="3.30589">
        <ele>231.077042</ele>
        <time>2022-02-24T14:59:57.000Z</time>
      </trkpt>
      <trkpt lat="43.55925" lon="3.30593">
        <ele>231.379339</ele>
        <time>2022-02-24T15:00:00.000Z</time>
      </trkpt>
      <trkpt lat="43.55927" lon="3.30608">
        <ele>232.764049</ele>
        <time>2022-02-24T15:00:01.000Z</time>
      </trkpt>
      <trkpt lat="43.55927" lon="3.30618">
        <ele>233.623219</ele>
        <time>2022-02-24T15:00:04.000Z</time>
      </trkpt>
      <trkpt lat="43.5593" lon="3.3063">
        <ele>234.718243</ele>
        <time>2022-02-24T15:00:05.000Z</time>
      </trkpt>
      <trkpt lat="43.5593" lon="3.30635">
        <ele>235.249801</ele>
        <time>2022-02-24T15:00:07.000Z</time>
      </trkpt>
      <trkpt lat="43.55931" lon="3.3064">
        <ele>235.653134</ele>
        <time>2022-02-24T15:00:08.000Z</time>
      </trkpt>
      <trkpt lat="43.55932" lon="3.30643">
        <ele>235.950616</ele>
        <time>2022-02-24T15:00:09.000Z</time>
      </trkpt>
      <trkpt lat="43.55932" lon="3.30646">
        <ele>236.202272</ele>
        <time>2022-02-24T15:00:10.000Z</time>
      </trkpt>
      <trkpt lat="43.55932" lon="3.30649">
        <ele>236.451222</ele>
        <time>2022-02-24T15:00:11.000Z</time>
      </trkpt>
      <trkpt lat="43.55932" lon="3.30652">
        <ele>236.700172</ele>
        <time>2022-02-24T15:00:12.000Z</time>
      </trkpt>
      <trkpt lat="43.55932" lon="3.30654">
        <ele>236.949122</ele>
        <time>2022-02-24T15:00:13.000Z</time>
      </trkpt>
      <trkpt lat="43.55932" lon="3.30657">
        <ele>237.206964</ele>
        <time>2022-02-24T15:00:14.000Z</time>
      </trkpt>
      <trkpt lat="43.55932" lon="3.3066">
        <ele>237.464805</ele>
        <time>2022-02-24T15:00:15.000Z</time>
      </trkpt>
      <trkpt lat="43.55932" lon="3.30663">
        <ele>237.734065</ele>
        <time>2022-02-24T15:00:16.000Z</time>
      </trkpt>
      <trkpt lat="43.55931" lon="3.30666">
        <ele>238.014023</ele>
        <time>2022-02-24T15:00:17.000Z</time>
      </trkpt>
      <trkpt lat="43.55931" lon="3.30669">
        <ele>238.276494</ele>
        <time>2022-02-24T15:00:18.000Z</time>
      </trkpt>
      <trkpt lat="43.5593" lon="3.30672">
        <ele>238.56521</ele>
        <time>2022-02-24T15:00:19.000Z</time>
      </trkpt>
      <trkpt lat="43.5593" lon="3.30676">
        <ele>238.862405</ele>
        <time>2022-02-24T15:00:20.000Z</time>
      </trkpt>
      <trkpt lat="43.55929" lon="3.30678">
        <ele>239.138297</ele>
        <time>2022-02-24T15:00:21.000Z</time>
      </trkpt>
      <trkpt lat="43.55928" lon="3.30681">
        <ele>239.435213</ele>
        <time>2022-02-24T15:00:22.000Z</time>
      </trkpt>
      <trkpt lat="43.55927" lon="3.30684">
        <ele>239.698561</ele>
        <time>2022-02-24T15:00:23.000Z</time>
      </trkpt>
      <trkpt lat="43.55926" lon="3.30687">
        <ele>239.966163</ele>
        <time>2022-02-24T15:00:24.000Z</time>
      </trkpt>
      <trkpt lat="43.55925" lon="3.3069">
        <ele>240.254858</ele>
        <time>2022-02-24T15:00:25.000Z</time>
      </trkpt>
      <trkpt lat="43.55924" lon="3.30693">
        <ele>240.583132</ele>
        <time>2022-02-24T15:00:26.000Z</time>
      </trkpt>
      <trkpt lat="43.55924" lon="3.30697">
        <ele>240.88885</ele>
        <time>2022-02-24T15:00:27.000Z</time>
      </trkpt>
      <trkpt lat="43.55923" lon="3.307">
        <ele>241.234935</ele>
        <time>2022-02-24T15:00:28.000Z</time>
      </trkpt>
      <trkpt lat="43.55922" lon="3.30704">
        <ele>241.635723</ele>
        <time>2022-02-24T15:00:29.000Z</time>
      </trkpt>
      <trkpt lat="43.55921" lon="3.30708">
        <ele>242.103316</ele>
        <time>2022-02-24T15:00:31.000Z</time>
      </trkpt>
      <trkpt lat="43.5592" lon="3.30713">
        <ele>242.594351</ele>
        <time>2022-02-24T15:00:32.000Z</time>
      </trkpt>
      <trkpt lat="43.5592" lon="3.30717">
        <ele>243.075298</ele>
        <time>2022-02-24T15:00:33.000Z</time>
      </trkpt>
      <trkpt lat="43.55919" lon="3.30722">
        <ele>243.565044</ele>
        <time>2022-02-24T15:00:35.000Z</time>
      </trkpt>
      <trkpt lat="43.55919" lon="3.30726">
        <ele>244.045946</ele>
        <time>2022-02-24T15:00:36.000Z</time>
      </trkpt>
      <trkpt lat="43.55919" lon="3.30731">
        <ele>244.526848</ele>
        <time>2022-02-24T15:00:37.000Z</time>
      </trkpt>
      <trkpt lat="43.55919" lon="3.30735">
        <ele>244.962805</ele>
        <time>2022-02-24T15:00:38.000Z</time>
      </trkpt>
      <trkpt lat="43.55919" lon="3.3074">
        <ele>245.419522</ele>
        <time>2022-02-24T15:00:39.000Z</time>
      </trkpt>
      <trkpt lat="43.55919" lon="3.30742">
        <ele>245.71016</ele>
        <time>2022-02-24T15:00:42.000Z</time>
      </trkpt>
      <trkpt lat="43.55919" lon="3.30753">
        <ele>246.82229</ele>
        <time>2022-02-24T15:00:44.000Z</time>
      </trkpt>
      <trkpt lat="43.5592" lon="3.30765">
        <ele>248.082258</ele>
        <time>2022-02-24T15:00:45.000Z</time>
      </trkpt>
      <trkpt lat="43.5592" lon="3.30768">
        <ele>248.404035</ele>
        <time>2022-02-24T15:00:47.000Z</time>
      </trkpt>
      <trkpt lat="43.5592" lon="3.3077">
        <ele>248.629418</ele>
        <time>2022-02-24T15:00:48.000Z</time>
      </trkpt>
      <trkpt lat="43.5592" lon="3.30772">
        <ele>248.805102</ele>
        <time>2022-02-24T15:00:50.000Z</time>
      </trkpt>
      <trkpt lat="43.55922" lon="3.30779">
        <ele>249.513182</ele>
        <time>2022-02-24T15:00:51.000Z</time>
      </trkpt>
      <trkpt lat="43.55923" lon="3.30781">
        <ele>249.796855</ele>
        <time>2022-02-24T15:00:53.000Z</time>
      </trkpt>
      <trkpt lat="43.55923" lon="3.30783">
        <ele>250.002228</ele>
        <time>2022-02-24T15:00:54.000Z</time>
      </trkpt>
      <trkpt lat="43.55924" lon="3.30785">
        <ele>250.247745</ele>
        <time>2022-02-24T15:00:56.000Z</time>
      </trkpt>
      <trkpt lat="43.55924" lon="3.30787">
        <ele>250.497146</ele>
        <time>2022-02-24T15:00:57.000Z</time>
      </trkpt>
      <trkpt lat="43.55925" lon="3.3079">
        <ele>250.799926</ele>
        <time>2022-02-24T15:00:59.000Z</time>
      </trkpt>
      <trkpt lat="43.55926" lon="3.30793">
        <ele>251.087828</ele>
        <time>2022-02-24T15:01:00.000Z</time>
      </trkpt>
      <trkpt lat="43.55927" lon="3.30795">
        <ele>251.390607</ele>
        <time>2022-02-24T15:01:02.000Z</time>
      </trkpt>
      <trkpt lat="43.55927" lon="3.30798">
        <ele>251.722419</ele>
        <time>2022-02-24T15:01:04.000Z</time>
      </trkpt>
      <trkpt lat="43.55928" lon="3.30801">
        <ele>252.039697</ele>
        <time>2022-02-24T15:01:05.000Z</time>
      </trkpt>
      <trkpt lat="43.55929" lon="3.30804">
        <ele>252.371509</ele>
        <time>2022-02-24T15:01:06.000Z</time>
      </trkpt>
      <trkpt lat="43.5593" lon="3.30807">
        <ele>252.703321</ele>
        <time>2022-02-24T15:01:07.000Z</time>
      </trkpt>
      <trkpt lat="43.55931" lon="3.3081">
        <ele>253.052311</ele>
        <time>2022-02-24T15:01:09.000Z</time>
      </trkpt>
      <trkpt lat="43.55932" lon="3.30813">
        <ele>253.401301</ele>
        <time>2022-02-24T15:01:10.000Z</time>
      </trkpt>
      <trkpt lat="43.55933" lon="3.30816">
        <ele>253.723392</ele>
        <time>2022-02-24T15:01:11.000Z</time>
      </trkpt>
      <trkpt lat="43.55933" lon="3.30819">
        <ele>254.035804</ele>
        <time>2022-02-24T15:01:12.000Z</time>
      </trkpt>
      <trkpt lat="43.55935" lon="3.30822">
        <ele>254.357316</ele>
        <time>2022-02-24T15:01:13.000Z</time>
      </trkpt>
      <trkpt lat="43.55936" lon="3.30825">
        <ele>254.694976</ele>
        <time>2022-02-24T15:01:15.000Z</time>
      </trkpt>
      <trkpt lat="43.55936" lon="3.30827">
        <ele>255.002423</ele>
        <time>2022-02-24T15:01:16.000Z</time>
      </trkpt>
      <trkpt lat="43.55938" lon="3.3083">
        <ele>255.331192</ele>
        <time>2022-02-24T15:01:17.000Z</time>
      </trkpt>
      <trkpt lat="43.55939" lon="3.30833">
        <ele>255.652704</ele>
        <time>2022-02-24T15:01:19.000Z</time>
      </trkpt>
      <trkpt lat="43.5594" lon="3.30836">
        <ele>255.990364</ele>
        <time>2022-02-24T15:01:21.000Z</time>
      </trkpt>
      <trkpt lat="43.55941" lon="3.30838">
        <ele>256.258903</ele>
        <time>2022-02-24T15:01:22.000Z</time>
      </trkpt>
      <trkpt lat="43.55941" lon="3.30839">
        <ele>256.415108</ele>
        <time>2022-02-24T15:01:24.000Z</time>
      </trkpt>
      <trkpt lat="43.55943" lon="3.30848">
        <ele>257.33842</ele>
        <time>2022-02-24T15:01:26.000Z</time>
      </trkpt>
      <trkpt lat="43.55944" lon="3.30851">
        <ele>257.703228</ele>
        <time>2022-02-24T15:01:27.000Z</time>
      </trkpt>
      <trkpt lat="43.55945" lon="3.30853">
        <ele>257.897226</ele>
        <time>2022-02-24T15:01:29.000Z</time>
      </trkpt>
      <trkpt lat="43.55951" lon="3.3086">
        <ele>259.046999</ele>
        <time>2022-02-24T15:03:26.000Z</time>
      </trkpt>
      <trkpt lat="43.55951" lon="3.3086">
        <ele>259.098898</ele>
        <time>2022-02-24T15:03:28.000Z</time>
      </trkpt>
      <trkpt lat="43.55954" lon="3.30869">
        <ele>260.123882</ele>
        <time>2022-02-24T15:03:30.000Z</time>
      </trkpt>
      <trkpt lat="43.55954" lon="3.3087">
        <ele>260.233472</ele>
        <time>2022-02-24T15:03:32.000Z</time>
      </trkpt>
      <trkpt lat="43.55957" lon="3.30876">
        <ele>260.915098</ele>
        <time>2022-02-24T15:03:33.000Z</time>
      </trkpt>
      <trkpt lat="43.55957" lon="3.30876">
        <ele>260.980308</ele>
        <time>2022-02-24T15:03:35.000Z</time>
      </trkpt>
      <trkpt lat="43.55959" lon="3.30881">
        <ele>261.56633</ele>
        <time>2022-02-24T15:03:36.000Z</time>
      </trkpt>
      <trkpt lat="43.5596" lon="3.30884">
        <ele>261.934115</ele>
        <time>2022-02-24T15:03:37.000Z</time>
      </trkpt>
      <trkpt lat="43.5596" lon="3.30888">
        <ele>262.342964</ele>
        <time>2022-02-24T15:03:38.000Z</time>
      </trkpt>
      <trkpt lat="43.55961" lon="3.30892">
        <ele>262.731269</ele>
        <time>2022-02-24T15:03:39.000Z</time>
      </trkpt>
      <trkpt lat="43.55961" lon="3.30896">
        <ele>263.107407</ele>
        <time>2022-02-24T15:03:40.000Z</time>
      </trkpt>
      <trkpt lat="43.55961" lon="3.30899">
        <ele>263.505981</ele>
        <time>2022-02-24T15:03:41.000Z</time>
      </trkpt>
      <trkpt lat="43.55961" lon="3.30903">
        <ele>263.879656</ele>
        <time>2022-02-24T15:03:42.000Z</time>
      </trkpt>
      <trkpt lat="43.55961" lon="3.30906">
        <ele>264.242951</ele>
        <time>2022-02-24T15:03:43.000Z</time>
      </trkpt>
      <trkpt lat="43.55961" lon="3.30916">
        <ele>265.199615</ele>
        <time>2022-02-24T15:03:59.000Z</time>
      </trkpt>
      <trkpt lat="43.55961" lon="3.30916">
        <ele>265.261895</ele>
        <time>2022-02-24T15:04:00.000Z</time>
      </trkpt>
      <trkpt lat="43.55961" lon="3.30917">
        <ele>265.334554</ele>
        <time>2022-02-24T15:04:01.000Z</time>
      </trkpt>
      <trkpt lat="43.55961" lon="3.30918">
        <ele>265.427085</ele>
        <time>2022-02-24T15:04:02.000Z</time>
      </trkpt>
      <trkpt lat="43.55962" lon="3.30919">
        <ele>265.545647</ele>
        <time>2022-02-24T15:04:03.000Z</time>
      </trkpt>
      <trkpt lat="43.55962" lon="3.3092">
        <ele>265.659825</ele>
        <time>2022-02-24T15:04:04.000Z</time>
      </trkpt>
      <trkpt lat="43.55961" lon="3.30921">
        <ele>265.778387</ele>
        <time>2022-02-24T15:04:06.000Z</time>
      </trkpt>
      <trkpt lat="43.5596" lon="3.30922">
        <ele>265.979236</ele>
        <time>2022-02-24T15:04:07.000Z</time>
      </trkpt>
      <trkpt lat="43.55959" lon="3.30923">
        <ele>266.211156</ele>
        <time>2022-02-24T15:04:08.000Z</time>
      </trkpt>
      <trkpt lat="43.55957" lon="3.30925">
        <ele>266.502803</ele>
        <time>2022-02-24T15:04:09.000Z</time>
      </trkpt>
      <trkpt lat="43.55955" lon="3.30928">
        <ele>266.785364</ele>
        <time>2022-02-24T15:04:11.000Z</time>
      </trkpt>
      <trkpt lat="43.55953" lon="3.30931">
        <ele>266.879026</ele>
        <time>2022-02-24T15:04:12.000Z</time>
      </trkpt>
      <trkpt lat="43.55951" lon="3.30934">
        <ele>266.97094</ele>
        <time>2022-02-24T15:04:13.000Z</time>
      </trkpt>
      <trkpt lat="43.5595" lon="3.30937">
        <ele>267.050567</ele>
        <time>2022-02-24T15:04:14.000Z</time>
      </trkpt>
      <trkpt lat="43.55949" lon="3.3094">
        <ele>267.125611</ele>
        <time>2022-02-24T15:04:15.000Z</time>
      </trkpt>
      <trkpt lat="43.55948" lon="3.30943">
        <ele>267.192902</ele>
        <time>2022-02-24T15:04:16.000Z</time>
      </trkpt>
      <trkpt lat="43.55947" lon="3.30946">
        <ele>267.284729</ele>
        <time>2022-02-24T15:04:18.000Z</time>
      </trkpt>
      <trkpt lat="43.55946" lon="3.3095">
        <ele>267.372737</ele>
        <time>2022-02-24T15:04:19.000Z</time>
      </trkpt>
      <trkpt lat="43.55945" lon="3.30953">
        <ele>267.447648</ele>
        <time>2022-02-24T15:04:20.000Z</time>
      </trkpt>
      <trkpt lat="43.55946" lon="3.30955">
        <ele>267.508964</ele>
        <time>2022-02-24T15:04:21.000Z</time>
      </trkpt>
      <trkpt lat="43.55946" lon="3.30957">
        <ele>267.558135</ele>
        <time>2022-02-24T15:04:22.000Z</time>
      </trkpt>
      <trkpt lat="43.55948" lon="3.30959">
        <ele>267.614558</ele>
        <time>2022-02-24T15:04:23.000Z</time>
      </trkpt>
      <trkpt lat="43.55949" lon="3.30961">
        <ele>267.679376</ele>
        <time>2022-02-24T15:04:24.000Z</time>
      </trkpt>
      <trkpt lat="43.55951" lon="3.30963">
        <ele>267.745775</ele>
        <time>2022-02-24T15:04:26.000Z</time>
      </trkpt>
      <trkpt lat="43.55952" lon="3.30965">
        <ele>267.8145</ele>
        <time>2022-02-24T15:04:27.000Z</time>
      </trkpt>
      <trkpt lat="43.55954" lon="3.30967">
        <ele>267.889197</ele>
        <time>2022-02-24T15:04:28.000Z</time>
      </trkpt>
      <trkpt lat="43.55956" lon="3.30969">
        <ele>267.978285</ele>
        <time>2022-02-24T15:04:29.000Z</time>
      </trkpt>
      <trkpt lat="43.55958" lon="3.30972">
        <ele>268.060284</ele>
        <time>2022-02-24T15:04:31.000Z</time>
      </trkpt>
      <trkpt lat="43.5596" lon="3.30974">
        <ele>268.133397</ele>
        <time>2022-02-24T15:04:32.000Z</time>
      </trkpt>
      <trkpt lat="43.55961" lon="3.30976">
        <ele>268.198907</ele>
        <time>2022-02-24T15:04:33.000Z</time>
      </trkpt>
      <trkpt lat="43.55962" lon="3.30979">
        <ele>268.257761</ele>
        <time>2022-02-24T15:04:34.000Z</time>
      </trkpt>
      <trkpt lat="43.55962" lon="3.30981">
        <ele>268.325052</ele>
        <time>2022-02-24T15:04:35.000Z</time>
      </trkpt>
      <trkpt lat="43.55963" lon="3.30984">
        <ele>268.38351</ele>
        <time>2022-02-24T15:04:36.000Z</time>
      </trkpt>
      <trkpt lat="43.55963" lon="3.30986">
        <ele>268.442571</ele>
        <time>2022-02-24T15:04:37.000Z</time>
      </trkpt>
      <trkpt lat="43.55964" lon="3.30989">
        <ele>268.501633</ele>
        <time>2022-02-24T15:04:38.000Z</time>
      </trkpt>
      <trkpt lat="43.55964" lon="3.30991">
        <ele>268.562949</ele>
        <time>2022-02-24T15:04:39.000Z</time>
      </trkpt>
      <trkpt lat="43.55964" lon="3.30994">
        <ele>268.626523</ele>
        <time>2022-02-24T15:04:40.000Z</time>
      </trkpt>
      <trkpt lat="43.55965" lon="3.30997">
        <ele>268.694852</ele>
        <time>2022-02-24T15:04:42.000Z</time>
      </trkpt>
      <trkpt lat="43.55966" lon="3.30999">
        <ele>268.764029</ele>
        <time>2022-02-24T15:04:43.000Z</time>
      </trkpt>
      <trkpt lat="43.55967" lon="3.31001">
        <ele>268.816605</ele>
        <time>2022-02-24T15:04:44.000Z</time>
      </trkpt>
      <trkpt lat="43.55969" lon="3.31002">
        <ele>268.861231</ele>
        <time>2022-02-24T15:04:46.000Z</time>
      </trkpt>
      <trkpt lat="43.55973" lon="3.31006">
        <ele>269.027986</ele>
        <time>2022-02-24T15:04:48.000Z</time>
      </trkpt>
      <trkpt lat="43.55979" lon="3.31011">
        <ele>269.256238</ele>
        <time>2022-02-24T15:04:49.000Z</time>
      </trkpt>
      <trkpt lat="43.55981" lon="3.31014">
        <ele>269.355418</ele>
        <time>2022-02-24T15:04:51.000Z</time>
      </trkpt>
      <trkpt lat="43.55983" lon="3.31017">
        <ele>269.428485</ele>
        <time>2022-02-24T15:04:52.000Z</time>
      </trkpt>
      <trkpt lat="43.55984" lon="3.31019">
        <ele>269.492057</ele>
        <time>2022-02-24T15:04:53.000Z</time>
      </trkpt>
      <trkpt lat="43.55985" lon="3.31021">
        <ele>269.550911</ele>
        <time>2022-02-24T15:04:54.000Z</time>
      </trkpt>
      <trkpt lat="43.55986" lon="3.31024">
        <ele>269.624385</ele>
        <time>2022-02-24T15:04:56.000Z</time>
      </trkpt>
      <trkpt lat="43.55986" lon="3.31027">
        <ele>269.689547</ele>
        <time>2022-02-24T15:04:57.000Z</time>
      </trkpt>
      <trkpt lat="43.55988" lon="3.31029">
        <ele>269.759</ele>
        <time>2022-02-24T15:04:58.000Z</time>
      </trkpt>
      <trkpt lat="43.55988" lon="3.31032">
        <ele>269.819942</ele>
        <time>2022-02-24T15:04:59.000Z</time>
      </trkpt>
      <trkpt lat="43.55989" lon="3.31034">
        <ele>269.878796</ele>
        <time>2022-02-24T15:05:00.000Z</time>
      </trkpt>
      <trkpt lat="43.5599" lon="3.31036">
        <ele>269.930033</ele>
        <time>2022-02-24T15:05:01.000Z</time>
      </trkpt>
      <trkpt lat="43.55994" lon="3.31044">
        <ele>270.174764</ele>
        <time>2022-02-24T15:06:20.000Z</time>
      </trkpt>
      <trkpt lat="43.55994" lon="3.31044">
        <ele>270.174764</ele>
        <time>2022-02-24T15:06:21.000Z</time>
      </trkpt>
      <trkpt lat="43.55995" lon="3.31045">
        <ele>270.188308</ele>
        <time>2022-02-24T15:06:22.000Z</time>
      </trkpt>
      <trkpt lat="43.55996" lon="3.31045">
        <ele>270.211642</ele>
        <time>2022-02-24T15:06:23.000Z</time>
      </trkpt>
      <trkpt lat="43.55996" lon="3.31045">
        <ele>270.238033</ele>
        <time>2022-02-24T15:06:25.000Z</time>
      </trkpt>
      <trkpt lat="43.55998" lon="3.31045">
        <ele>270.276511</ele>
        <time>2022-02-24T15:06:26.000Z</time>
      </trkpt>
      <trkpt lat="43.55999" lon="3.31045">
        <ele>270.33704</ele>
        <time>2022-02-24T15:06:28.000Z</time>
      </trkpt>
      <trkpt lat="43.56001" lon="3.31045">
        <ele>270.385675</ele>
        <time>2022-02-24T15:06:29.000Z</time>
      </trkpt>
      <trkpt lat="43.56003" lon="3.31045">
        <ele>270.446555</ele>
        <time>2022-02-24T15:06:30.000Z</time>
      </trkpt>
      <trkpt lat="43.56005" lon="3.31045">
        <ele>270.507084</ele>
        <time>2022-02-24T15:06:31.000Z</time>
      </trkpt>
      <trkpt lat="43.56006" lon="3.31045">
        <ele>270.554835</ele>
        <time>2022-02-24T15:06:32.000Z</time>
      </trkpt>
      <trkpt lat="43.56008" lon="3.31044">
        <ele>270.615364</ele>
        <time>2022-02-24T15:06:33.000Z</time>
      </trkpt>
      <trkpt lat="43.5601" lon="3.31044">
        <ele>270.676025</ele>
        <time>2022-02-24T15:06:34.000Z</time>
      </trkpt>
      <trkpt lat="43.56013" lon="3.31044">
        <ele>270.762256</ele>
        <time>2022-02-24T15:06:35.000Z</time>
      </trkpt>
      <trkpt lat="43.56016" lon="3.31044">
        <ele>270.861372</ele>
        <time>2022-02-24T15:06:36.000Z</time>
      </trkpt>
      <trkpt lat="43.56019" lon="3.31043">
        <ele>270.969707</ele>
        <time>2022-02-24T15:06:37.000Z</time>
      </trkpt>
      <trkpt lat="43.56023" lon="3.31043">
        <ele>271.090677</ele>
        <time>2022-02-24T15:06:39.000Z</time>
      </trkpt>
      <trkpt lat="43.56027" lon="3.31043">
        <ele>271.211647</ele>
        <time>2022-02-24T15:06:40.000Z</time>
      </trkpt>
      <trkpt lat="43.56031" lon="3.31043">
        <ele>271.345431</ele>
        <time>2022-02-24T15:06:41.000Z</time>
      </trkpt>
      <trkpt lat="43.56035" lon="3.31043">
        <ele>271.479452</ele>
        <time>2022-02-24T15:06:42.000Z</time>
      </trkpt>
      <trkpt lat="43.5604" lon="3.31042">
        <ele>271.627354</ele>
        <time>2022-02-24T15:06:44.000Z</time>
      </trkpt>
      <trkpt lat="43.56045" lon="3.3104">
        <ele>271.799588</ele>
        <time>2022-02-24T15:06:45.000Z</time>
      </trkpt>
      <trkpt lat="43.5605" lon="3.31039">
        <ele>271.962477</ele>
        <time>2022-02-24T15:06:46.000Z</time>
      </trkpt>
      <trkpt lat="43.56055" lon="3.31037">
        <ele>272.125871</ele>
        <time>2022-02-24T15:06:47.000Z</time>
      </trkpt>
      <trkpt lat="43.5606" lon="3.31036">
        <ele>272.274396</ele>
        <time>2022-02-24T15:06:48.000Z</time>
      </trkpt>
      <trkpt lat="43.56064" lon="3.31034">
        <ele>272.415101</ele>
        <time>2022-02-24T15:06:49.000Z</time>
      </trkpt>
      <trkpt lat="43.56068" lon="3.31032">
        <ele>272.507389</ele>
        <time>2022-02-24T15:06:50.000Z</time>
      </trkpt>
      <trkpt lat="43.56072" lon="3.3103">
        <ele>272.575791</ele>
        <time>2022-02-24T15:06:51.000Z</time>
      </trkpt>
      <trkpt lat="43.56076" lon="3.31029">
        <ele>272.648431</ele>
        <time>2022-02-24T15:06:52.000Z</time>
      </trkpt>
      <trkpt lat="43.5608" lon="3.31028">
        <ele>272.725483</ele>
        <time>2022-02-24T15:06:54.000Z</time>
      </trkpt>
      <trkpt lat="43.56085" lon="3.31027">
        <ele>272.809762</ele>
        <time>2022-02-24T15:06:55.000Z</time>
      </trkpt>
      <trkpt lat="43.56091" lon="3.31027">
        <ele>272.898997</ele>
        <time>2022-02-24T15:06:56.000Z</time>
      </trkpt>
      <trkpt lat="43.56096" lon="3.31027">
        <ele>272.983135</ele>
        <time>2022-02-24T15:06:57.000Z</time>
      </trkpt>
      <trkpt lat="43.56101" lon="3.31026">
        <ele>273.067757</ele>
        <time>2022-02-24T15:06:58.000Z</time>
      </trkpt>
      <trkpt lat="43.56106" lon="3.31024">
        <ele>273.158256</ele>
        <time>2022-02-24T15:06:59.000Z</time>
      </trkpt>
      <trkpt lat="43.56111" lon="3.31023">
        <ele>273.248187</ele>
        <time>2022-02-24T15:07:01.000Z</time>
      </trkpt>
      <trkpt lat="43.56116" lon="3.31023">
        <ele>273.332254</ele>
        <time>2022-02-24T15:07:02.000Z</time>
      </trkpt>
      <trkpt lat="43.56121" lon="3.31023">
        <ele>273.409598</ele>
        <time>2022-02-24T15:07:03.000Z</time>
      </trkpt>
      <trkpt lat="43.56125" lon="3.31023">
        <ele>273.473494</ele>
        <time>2022-02-24T15:07:04.000Z</time>
      </trkpt>
      <trkpt lat="43.56128" lon="3.31024">
        <ele>273.524296</ele>
        <time>2022-02-24T15:07:06.000Z</time>
      </trkpt>
      <trkpt lat="43.5613" lon="3.31026">
        <ele>273.569999</ele>
        <time>2022-02-24T15:07:07.000Z</time>
      </trkpt>
      <trkpt lat="43.56132" lon="3.31029">
        <ele>273.617627</ele>
        <time>2022-02-24T15:07:09.000Z</time>
      </trkpt>
      <trkpt lat="43.56136" lon="3.31036">
        <ele>273.728342</ele>
        <time>2022-02-24T15:07:11.000Z</time>
      </trkpt>
      <trkpt lat="43.56138" lon="3.3104">
        <ele>273.794435</ele>
        <time>2022-02-24T15:07:12.000Z</time>
      </trkpt>
      <trkpt lat="43.56141" lon="3.31044">
        <ele>273.855693</ele>
        <time>2022-02-24T15:07:13.000Z</time>
      </trkpt>
      <trkpt lat="43.56143" lon="3.31048">
        <ele>273.918858</ele>
        <time>2022-02-24T15:07:15.000Z</time>
      </trkpt>
      <trkpt lat="43.56146" lon="3.31052">
        <ele>273.988173</ele>
        <time>2022-02-24T15:07:16.000Z</time>
      </trkpt>
      <trkpt lat="43.56148" lon="3.31057">
        <ele>274.051339</ele>
        <time>2022-02-24T15:07:17.000Z</time>
      </trkpt>
      <trkpt lat="43.5615" lon="3.3106">
        <ele>274.111549</ele>
        <time>2022-02-24T15:07:18.000Z</time>
      </trkpt>
      <trkpt lat="43.56152" lon="3.31064">
        <ele>274.170936</ele>
        <time>2022-02-24T15:07:19.000Z</time>
      </trkpt>
      <trkpt lat="43.56155" lon="3.31068">
        <ele>274.233143</ele>
        <time>2022-02-24T15:07:20.000Z</time>
      </trkpt>
      <trkpt lat="43.56157" lon="3.31072">
        <ele>274.296309</ele>
        <time>2022-02-24T15:07:21.000Z</time>
      </trkpt>
      <trkpt lat="43.56159" lon="3.31077">
        <ele>274.357664</ele>
        <time>2022-02-24T15:07:23.000Z</time>
      </trkpt>
      <trkpt lat="43.56161" lon="3.31081">
        <ele>274.424749</ele>
        <time>2022-02-24T15:07:24.000Z</time>
      </trkpt>
      <trkpt lat="43.56163" lon="3.31086">
        <ele>274.495872</ele>
        <time>2022-02-24T15:07:26.000Z</time>
      </trkpt>
      <trkpt lat="43.56166" lon="3.31092">
        <ele>274.578831</ele>
        <time>2022-02-24T15:07:27.000Z</time>
      </trkpt>
      <trkpt lat="43.56169" lon="3.31097">
        <ele>274.664653</ele>
        <time>2022-02-24T15:07:29.000Z</time>
      </trkpt>
      <trkpt lat="43.56172" lon="3.31103">
        <ele>274.744578</ele>
        <time>2022-02-24T15:07:30.000Z</time>
      </trkpt>
      <trkpt lat="43.56175" lon="3.31108">
        <ele>274.82251</ele>
        <time>2022-02-24T15:07:31.000Z</time>
      </trkpt>
      <trkpt lat="43.56177" lon="3.31113">
        <ele>274.892733</ele>
        <time>2022-02-24T15:07:32.000Z</time>
      </trkpt>
      <trkpt lat="43.56179" lon="3.31118">
        <ele>274.969678</ele>
        <time>2022-02-24T15:07:33.000Z</time>
      </trkpt>
      <trkpt lat="43.56182" lon="3.31122">
        <ele>275.036763</ele>
        <time>2022-02-24T15:07:34.000Z</time>
      </trkpt>
      <trkpt lat="43.56184" lon="3.31127">
        <ele>275.098118</ele>
        <time>2022-02-24T15:07:35.000Z</time>
      </trkpt>
      <trkpt lat="43.56186" lon="3.31131">
        <ele>275.165203</ele>
        <time>2022-02-24T15:07:37.000Z</time>
      </trkpt>
      <trkpt lat="43.5619" lon="3.3114">
        <ele>275.290535</ele>
        <time>2022-02-24T15:07:39.000Z</time>
      </trkpt>
      <trkpt lat="43.56195" lon="3.31149">
        <ele>275.428715</ele>
        <time>2022-02-24T15:07:41.000Z</time>
      </trkpt>
      <trkpt lat="43.56197" lon="3.31154">
        <ele>275.497218</ele>
        <time>2022-02-24T15:07:42.000Z</time>
      </trkpt>
      <trkpt lat="43.562" lon="3.31158">
        <ele>275.622762</ele>
        <time>2022-02-24T15:07:43.000Z</time>
      </trkpt>
      <trkpt lat="43.56203" lon="3.31162">
        <ele>275.761205</ele>
        <time>2022-02-24T15:07:45.000Z</time>
      </trkpt>
      <trkpt lat="43.56206" lon="3.31165">
        <ele>275.892501</ele>
        <time>2022-02-24T15:07:46.000Z</time>
      </trkpt>
      <trkpt lat="43.56208" lon="3.31169">
        <ele>276.010352</ele>
        <time>2022-02-24T15:07:47.000Z</time>
      </trkpt>
      <trkpt lat="43.56211" lon="3.31172">
        <ele>276.122116</ele>
        <time>2022-02-24T15:07:48.000Z</time>
      </trkpt>
      <trkpt lat="43.56213" lon="3.31174">
        <ele>276.19101</ele>
        <time>2022-02-24T15:07:50.000Z</time>
      </trkpt>
      <trkpt lat="43.56221" lon="3.31184">
        <ele>276.537468</ele>
        <time>2022-02-24T15:07:51.000Z</time>
      </trkpt>
      <trkpt lat="43.56224" lon="3.31187">
        <ele>276.665142</ele>
        <time>2022-02-24T15:07:52.000Z</time>
      </trkpt>
      <trkpt lat="43.56226" lon="3.3119">
        <ele>276.75954</ele>
        <time>2022-02-24T15:07:54.000Z</time>
      </trkpt>
      <trkpt lat="43.56228" lon="3.31192">
        <ele>276.84853</ele>
        <time>2022-02-24T15:07:55.000Z</time>
      </trkpt>
      <trkpt lat="43.56231" lon="3.31195">
        <ele>276.945889</ele>
        <time>2022-02-24T15:07:57.000Z</time>
      </trkpt>
      <trkpt lat="43.56233" lon="3.31198">
        <ele>277.049548</ele>
        <time>2022-02-24T15:07:58.000Z</time>
      </trkpt>
      <trkpt lat="43.56235" lon="3.31201">
        <ele>277.144409</ele>
        <time>2022-02-24T15:07:59.000Z</time>
      </trkpt>
      <trkpt lat="43.56237" lon="3.31204">
        <ele>277.242884</ele>
        <time>2022-02-24T15:08:01.000Z</time>
      </trkpt>
      <trkpt lat="43.56239" lon="3.31207">
        <ele>277.339541</ele>
        <time>2022-02-24T15:08:02.000Z</time>
      </trkpt>
      <trkpt lat="43.56241" lon="3.3121">
        <ele>277.433077</ele>
        <time>2022-02-24T15:08:03.000Z</time>
      </trkpt>
      <trkpt lat="43.56242" lon="3.31213">
        <ele>277.522701</ele>
        <time>2022-02-24T15:08:04.000Z</time>
      </trkpt>
      <trkpt lat="43.56245" lon="3.31216">
        <ele>277.614588</ele>
        <time>2022-02-24T15:08:05.000Z</time>
      </trkpt>
      <trkpt lat="43.56247" lon="3.31218">
        <ele>277.701593</ele>
        <time>2022-02-24T15:08:06.000Z</time>
      </trkpt>
      <trkpt lat="43.56249" lon="3.31221">
        <ele>277.784642</ele>
        <time>2022-02-24T15:08:07.000Z</time>
      </trkpt>
      <trkpt lat="43.56251" lon="3.31223">
        <ele>277.876222</ele>
        <time>2022-02-24T15:08:09.000Z</time>
      </trkpt>
      <trkpt lat="43.56255" lon="3.31227">
        <ele>278.039474</ele>
        <time>2022-02-24T15:08:11.000Z</time>
      </trkpt>
      <trkpt lat="43.56257" lon="3.31229">
        <ele>278.125903</ele>
        <time>2022-02-24T15:08:12.000Z</time>
      </trkpt>
      <trkpt lat="43.56259" lon="3.31231">
        <ele>278.202951</ele>
        <time>2022-02-24T15:08:13.000Z</time>
      </trkpt>
      <trkpt lat="43.56261" lon="3.31233">
        <ele>278.283979</ele>
        <time>2022-02-24T15:08:14.000Z</time>
      </trkpt>
      <trkpt lat="43.56263" lon="3.31235">
        <ele>278.363946</ele>
        <time>2022-02-24T15:08:15.000Z</time>
      </trkpt>
      <trkpt lat="43.56265" lon="3.31237">
        <ele>278.451545</ele>
        <time>2022-02-24T15:08:17.000Z</time>
      </trkpt>
      <trkpt lat="43.56267" lon="3.31239">
        <ele>278.53118</ele>
        <time>2022-02-24T15:08:18.000Z</time>
      </trkpt>
      <trkpt lat="43.56269" lon="3.31241">
        <ele>278.60419</ele>
        <time>2022-02-24T15:08:19.000Z</time>
      </trkpt>
      <trkpt lat="43.56271" lon="3.31243">
        <ele>278.675955</ele>
        <time>2022-02-24T15:08:20.000Z</time>
      </trkpt>
      <trkpt lat="43.56273" lon="3.31245">
        <ele>278.741603</ele>
        <time>2022-02-24T15:08:21.000Z</time>
      </trkpt>
      <trkpt lat="43.56274" lon="3.31247">
        <ele>278.812179</ele>
        <time>2022-02-24T15:08:22.000Z</time>
      </trkpt>
      <trkpt lat="43.56276" lon="3.31249">
        <ele>278.884475</ele>
        <time>2022-02-24T15:08:23.000Z</time>
      </trkpt>
      <trkpt lat="43.56278" lon="3.31251">
        <ele>278.966938</ele>
        <time>2022-02-24T15:08:24.000Z</time>
      </trkpt>
      <trkpt lat="43.56279" lon="3.31254">
        <ele>279.049987</ele>
        <time>2022-02-24T15:08:26.000Z</time>
      </trkpt>
      <trkpt lat="43.56281" lon="3.31256">
        <ele>279.13463</ele>
        <time>2022-02-24T15:08:27.000Z</time>
      </trkpt>
      <trkpt lat="43.56283" lon="3.31258">
        <ele>279.216119</ele>
        <time>2022-02-24T15:08:28.000Z</time>
      </trkpt>
      <trkpt lat="43.56285" lon="3.3126">
        <ele>279.283368</ele>
        <time>2022-02-24T15:08:29.000Z</time>
      </trkpt>
      <trkpt lat="43.56287" lon="3.31262">
        <ele>279.359021</ele>
        <time>2022-02-24T15:08:30.000Z</time>
      </trkpt>
      <trkpt lat="43.56289" lon="3.31264">
        <ele>279.428467</ele>
        <time>2022-02-24T15:08:31.000Z</time>
      </trkpt>
      <trkpt lat="43.5629" lon="3.31265">
        <ele>279.493236</ele>
        <time>2022-02-24T15:08:32.000Z</time>
      </trkpt>
      <trkpt lat="43.56292" lon="3.31266">
        <ele>279.558005</ele>
        <time>2022-02-24T15:08:34.000Z</time>
      </trkpt>
      <trkpt lat="43.56294" lon="3.31267">
        <ele>279.624439</ele>
        <time>2022-02-24T15:08:35.000Z</time>
      </trkpt>
      <trkpt lat="43.56296" lon="3.31268">
        <ele>279.69181</ele>
        <time>2022-02-24T15:08:37.000Z</time>
      </trkpt>
      <trkpt lat="43.56298" lon="3.31269">
        <ele>279.76309</ele>
        <time>2022-02-24T15:08:38.000Z</time>
      </trkpt>
      <trkpt lat="43.563" lon="3.3127">
        <ele>279.831467</ele>
        <time>2022-02-24T15:08:39.000Z</time>
      </trkpt>
      <trkpt lat="43.56302" lon="3.31272">
        <ele>279.911603</ele>
        <time>2022-02-24T15:08:40.000Z</time>
      </trkpt>
      <trkpt lat="43.56305" lon="3.31273">
        <ele>279.987876</ele>
        <time>2022-02-24T15:08:42.000Z</time>
      </trkpt>
      <trkpt lat="43.56307" lon="3.31274">
        <ele>280.064353</ele>
        <time>2022-02-24T15:08:43.000Z</time>
      </trkpt>
      <trkpt lat="43.5631" lon="3.31275">
        <ele>280.153911</ele>
        <time>2022-02-24T15:08:45.000Z</time>
      </trkpt>
      <trkpt lat="43.56312" lon="3.31275">
        <ele>280.242489</ele>
        <time>2022-02-24T15:08:46.000Z</time>
      </trkpt>
      <trkpt lat="43.56315" lon="3.31276">
        <ele>280.318966</ele>
        <time>2022-02-24T15:08:47.000Z</time>
      </trkpt>
      <trkpt lat="43.56318" lon="3.31278">
        <ele>280.433366</ele>
        <time>2022-02-24T15:08:49.000Z</time>
      </trkpt>
      <trkpt lat="43.56321" lon="3.31279">
        <ele>280.551637</ele>
        <time>2022-02-24T15:08:51.000Z</time>
      </trkpt>
      <trkpt lat="43.56328" lon="3.31284">
        <ele>280.790443</ele>
        <time>2022-02-24T15:08:53.000Z</time>
      </trkpt>
      <trkpt lat="43.56332" lon="3.31288">
        <ele>280.94039</ele>
        <time>2022-02-24T15:08:54.000Z</time>
      </trkpt>
      <trkpt lat="43.56336" lon="3.31292">
        <ele>281.109005</ele>
        <time>2022-02-24T15:08:56.000Z</time>
      </trkpt>
      <trkpt lat="43.5634" lon="3.31297">
        <ele>281.280444</ele>
        <time>2022-02-24T15:08:57.000Z</time>
      </trkpt>
      <trkpt lat="43.56344" lon="3.31302">
        <ele>281.052324</ele>
        <time>2022-02-24T15:08:58.000Z</time>
      </trkpt>
      <trkpt lat="43.56348" lon="3.31306">
        <ele>280.807466</ele>
        <time>2022-02-24T15:08:59.000Z</time>
      </trkpt>
      <trkpt lat="43.56352" lon="3.31309">
        <ele>280.591789</ele>
        <time>2022-02-24T15:09:00.000Z</time>
      </trkpt>
      <trkpt lat="43.56356" lon="3.31312">
        <ele>280.381636</ele>
        <time>2022-02-24T15:09:01.000Z</time>
      </trkpt>
      <trkpt lat="43.5636" lon="3.31316">
        <ele>280.171402</ele>
        <time>2022-02-24T15:09:02.000Z</time>
      </trkpt>
      <trkpt lat="43.56363" lon="3.3132">
        <ele>279.962688</ele>
        <time>2022-02-24T15:09:03.000Z</time>
      </trkpt>
      <trkpt lat="43.56366" lon="3.31324">
        <ele>279.764658</ele>
        <time>2022-02-24T15:09:04.000Z</time>
      </trkpt>
      <trkpt lat="43.5637" lon="3.31328">
        <ele>279.536947</ele>
        <time>2022-02-24T15:09:05.000Z</time>
      </trkpt>
      <trkpt lat="43.56373" lon="3.31332">
        <ele>279.32603</ele>
        <time>2022-02-24T15:09:07.000Z</time>
      </trkpt>
      <trkpt lat="43.56377" lon="3.31336">
        <ele>279.098319</ele>
        <time>2022-02-24T15:09:08.000Z</time>
      </trkpt>
      <trkpt lat="43.56381" lon="3.3134">
        <ele>278.868485</ele>
        <time>2022-02-24T15:09:09.000Z</time>
      </trkpt>
      <trkpt lat="43.56385" lon="3.31345">
        <ele>278.640774</ele>
        <time>2022-02-24T15:09:11.000Z</time>
      </trkpt>
      <trkpt lat="43.56389" lon="3.31348">
        <ele>278.424809</ele>
        <time>2022-02-24T15:09:12.000Z</time>
      </trkpt>
      <trkpt lat="43.56392" lon="3.31351">
        <ele>278.221448</ele>
        <time>2022-02-24T15:09:13.000Z</time>
      </trkpt>
      <trkpt lat="43.56396" lon="3.31353">
        <ele>278.028207</ele>
        <time>2022-02-24T15:09:14.000Z</time>
      </trkpt>
      <trkpt lat="43.564" lon="3.31355">
        <ele>277.836211</ele>
        <time>2022-02-24T15:09:15.000Z</time>
      </trkpt>
      <trkpt lat="43.56404" lon="3.31356">
        <ele>277.647628</ele>
        <time>2022-02-24T15:09:16.000Z</time>
      </trkpt>
      <trkpt lat="43.56408" lon="3.31358">
        <ele>277.461041</ele>
        <time>2022-02-24T15:09:17.000Z</time>
      </trkpt>
      <trkpt lat="43.56411" lon="3.31359">
        <ele>277.269911</ele>
        <time>2022-02-24T15:09:18.000Z</time>
      </trkpt>
      <trkpt lat="43.56416" lon="3.31361">
        <ele>277.072051</ele>
        <time>2022-02-24T15:09:19.000Z</time>
      </trkpt>
      <trkpt lat="43.5642" lon="3.31362">
        <ele>276.86957</ele>
        <time>2022-02-24T15:09:20.000Z</time>
      </trkpt>
      <trkpt lat="43.56424" lon="3.31363">
        <ele>276.667089</ele>
        <time>2022-02-24T15:09:21.000Z</time>
      </trkpt>
      <trkpt lat="43.56429" lon="3.31364">
        <ele>276.446084</ele>
        <time>2022-02-24T15:09:22.000Z</time>
      </trkpt>
      <trkpt lat="43.56434" lon="3.31366">
        <ele>276.172146</ele>
        <time>2022-02-24T15:09:24.000Z</time>
      </trkpt>
      <trkpt lat="43.5644" lon="3.31367">
        <ele>275.89292</ele>
        <time>2022-02-24T15:09:25.000Z</time>
      </trkpt>
      <trkpt lat="43.56446" lon="3.31369">
        <ele>275.620718</ele>
        <time>2022-02-24T15:09:26.000Z</time>
      </trkpt>
      <trkpt lat="43.56451" lon="3.3137">
        <ele>275.366591</ele>
        <time>2022-02-24T15:09:27.000Z</time>
      </trkpt>
      <trkpt lat="43.56456" lon="3.31371">
        <ele>275.107815</ele>
        <time>2022-02-24T15:09:28.000Z</time>
      </trkpt>
      <trkpt lat="43.56462" lon="3.31373">
        <ele>274.852402</ele>
        <time>2022-02-24T15:09:29.000Z</time>
      </trkpt>
      <trkpt lat="43.56467" lon="3.31374">
        <ele>274.596989</ele>
        <time>2022-02-24T15:09:30.000Z</time>
      </trkpt>
      <trkpt lat="43.56471" lon="3.31375">
        <ele>274.394509</ele>
        <time>2022-02-24T15:09:32.000Z</time>
      </trkpt>
      <trkpt lat="43.56488" lon="3.3138">
        <ele>273.566086</ele>
        <time>2022-02-24T15:09:34.000Z</time>
      </trkpt>
      <trkpt lat="43.56515" lon="3.31385">
        <ele>273.281347</ele>
        <time>2022-02-24T15:09:36.000Z</time>
      </trkpt>
      <trkpt lat="43.56522" lon="3.31386">
        <ele>273.603374</ele>
        <time>2022-02-24T15:09:38.000Z</time>
      </trkpt>
      <trkpt lat="43.56523" lon="3.31386">
        <ele>273.673567</ele>
        <time>2022-02-24T15:09:40.000Z</time>
      </trkpt>
      <trkpt lat="43.56535" lon="3.31388">
        <ele>274.229126</ele>
        <time>2022-02-24T15:09:42.000Z</time>
      </trkpt>
      <trkpt lat="43.56548" lon="3.31391">
        <ele>274.843049</ele>
        <time>2022-02-24T15:09:44.000Z</time>
      </trkpt>
      <trkpt lat="43.5656" lon="3.31395">
        <ele>275.403182</ele>
        <time>2022-02-24T15:09:46.000Z</time>
      </trkpt>
      <trkpt lat="43.56577" lon="3.31398">
        <ele>276.196688</ele>
        <time>2022-02-24T15:09:48.000Z</time>
      </trkpt>
      <trkpt lat="43.56583" lon="3.314">
        <ele>276.503111</ele>
        <time>2022-02-24T15:09:50.000Z</time>
      </trkpt>
      <trkpt lat="43.56585" lon="3.314">
        <ele>276.573708</ele>
        <time>2022-02-24T15:09:52.000Z</time>
      </trkpt>
      <trkpt lat="43.56597" lon="3.31402">
        <ele>277.146365</ele>
        <time>2022-02-24T15:09:54.000Z</time>
      </trkpt>
      <trkpt lat="43.56598" lon="3.31402">
        <ele>277.20236</ele>
        <time>2022-02-24T15:09:56.000Z</time>
      </trkpt>
      <trkpt lat="43.56604" lon="3.31403">
        <ele>277.487767</ele>
        <time>2022-02-24T15:09:58.000Z</time>
      </trkpt>
      <trkpt lat="43.56612" lon="3.31408">
        <ele>277.916581</ele>
        <time>2022-02-24T15:10:00.000Z</time>
      </trkpt>
      <trkpt lat="43.56611" lon="3.31409">
        <ele>277.980195</ele>
        <time>2022-02-24T15:10:02.000Z</time>
      </trkpt>
      <trkpt lat="43.56612" lon="3.31409">
        <ele>277.998826</ele>
        <time>2022-02-24T15:10:03.000Z</time>
      </trkpt>
      <trkpt lat="43.56613" lon="3.31409">
        <ele>278.069019</ele>
        <time>2022-02-24T15:10:05.000Z</time>
      </trkpt>
      <trkpt lat="43.56615" lon="3.31409">
        <ele>278.162236</ele>
        <time>2022-02-24T15:10:06.000Z</time>
      </trkpt>
      <trkpt lat="43.56618" lon="3.3141">
        <ele>278.285622</ele>
        <time>2022-02-24T15:10:07.000Z</time>
      </trkpt>
      <trkpt lat="43.56621" lon="3.3141">
        <ele>278.431428</ele>
        <time>2022-02-24T15:10:09.000Z</time>
      </trkpt>
      <trkpt lat="43.56624" lon="3.3141">
        <ele>278.571162</ele>
        <time>2022-02-24T15:10:10.000Z</time>
      </trkpt>
      <trkpt lat="43.56627" lon="3.3141">
        <ele>278.715909</ele>
        <time>2022-02-24T15:10:11.000Z</time>
      </trkpt>
      <trkpt lat="43.5663" lon="3.3141">
        <ele>278.84329</ele>
        <time>2022-02-24T15:10:12.000Z</time>
      </trkpt>
      <trkpt lat="43.56632" lon="3.31409">
        <ele>278.966075</ele>
        <time>2022-02-24T15:10:13.000Z</time>
      </trkpt>
      <trkpt lat="43.56635" lon="3.31408">
        <ele>279.076554</ele>
        <time>2022-02-24T15:10:14.000Z</time>
      </trkpt>
      <trkpt lat="43.56637" lon="3.31407">
        <ele>279.205932</ele>
        <time>2022-02-24T15:10:15.000Z</time>
      </trkpt>
      <trkpt lat="43.5664" lon="3.31406">
        <ele>279.348929</ele>
        <time>2022-02-24T15:10:17.000Z</time>
      </trkpt>
      <trkpt lat="43.56643" lon="3.31405">
        <ele>279.480055</ele>
        <time>2022-02-24T15:10:18.000Z</time>
      </trkpt>
      <trkpt lat="43.56645" lon="3.31404">
        <ele>279.594585</ele>
        <time>2022-02-24T15:10:19.000Z</time>
      </trkpt>
      <trkpt lat="43.56648" lon="3.31403">
        <ele>279.726706</ele>
        <time>2022-02-24T15:10:20.000Z</time>
      </trkpt>
      <trkpt lat="43.5665" lon="3.31402">
        <ele>279.839026</ele>
        <time>2022-02-24T15:10:21.000Z</time>
      </trkpt>
      <trkpt lat="43.56652" lon="3.31401">
        <ele>279.945905</ele>
        <time>2022-02-24T15:10:22.000Z</time>
      </trkpt>
      <trkpt lat="43.56655" lon="3.314">
        <ele>280.056385</ele>
        <time>2022-02-24T15:10:23.000Z</time>
      </trkpt>
      <trkpt lat="43.56657" lon="3.314">
        <ele>280.164362</ele>
        <time>2022-02-24T15:10:24.000Z</time>
      </trkpt>
      <trkpt lat="43.56659" lon="3.314">
        <ele>280.271545</ele>
        <time>2022-02-24T15:10:25.000Z</time>
      </trkpt>
      <trkpt lat="43.56662" lon="3.314">
        <ele>280.397351</ele>
        <time>2022-02-24T15:10:27.000Z</time>
      </trkpt>
      <trkpt lat="43.56667" lon="3.314">
        <ele>280.625684</ele>
        <time>2022-02-24T15:10:29.000Z</time>
      </trkpt>
      <trkpt lat="43.5667" lon="3.314">
        <ele>280.752168</ele>
        <time>2022-02-24T15:10:30.000Z</time>
      </trkpt>
      <trkpt lat="43.56672" lon="3.31401">
        <ele>280.87811</ele>
        <time>2022-02-24T15:10:32.000Z</time>
      </trkpt>
      <trkpt lat="43.56675" lon="3.314">
        <ele>281.018211</ele>
        <time>2022-02-24T15:10:33.000Z</time>
      </trkpt>
      <trkpt lat="43.56678" lon="3.314">
        <ele>281.163233</ele>
        <time>2022-02-24T15:10:34.000Z</time>
      </trkpt>
      <trkpt lat="43.56681" lon="3.314">
        <ele>281.308925</ele>
        <time>2022-02-24T15:10:35.000Z</time>
      </trkpt>
      <trkpt lat="43.56684" lon="3.31399">
        <ele>281.451763</ele>
        <time>2022-02-24T15:10:36.000Z</time>
      </trkpt>
      <trkpt lat="43.56687" lon="3.31399">
        <ele>281.644032</ele>
        <time>2022-02-24T15:10:38.000Z</time>
      </trkpt>
      <trkpt lat="43.56691" lon="3.31398">
        <ele>281.830845</ele>
        <time>2022-02-24T15:10:39.000Z</time>
      </trkpt>
      <trkpt lat="43.56694" lon="3.31398">
        <ele>282.017659</ele>
        <time>2022-02-24T15:10:40.000Z</time>
      </trkpt>
      <trkpt lat="43.56698" lon="3.31398">
        <ele>282.225847</ele>
        <time>2022-02-24T15:10:41.000Z</time>
      </trkpt>
      <trkpt lat="43.56702" lon="3.31398">
        <ele>282.455817</ele>
        <time>2022-02-24T15:10:43.000Z</time>
      </trkpt>
      <trkpt lat="43.56706" lon="3.31398">
        <ele>282.685787</ele>
        <time>2022-02-24T15:10:44.000Z</time>
      </trkpt>
      <trkpt lat="43.5671" lon="3.31398">
        <ele>282.91586</ele>
        <time>2022-02-24T15:10:45.000Z</time>
      </trkpt>
      <trkpt lat="43.56714" lon="3.31398">
        <ele>283.124501</ele>
        <time>2022-02-24T15:10:47.000Z</time>
      </trkpt>
      <trkpt lat="43.56718" lon="3.31399">
        <ele>283.338344</ele>
        <time>2022-02-24T15:10:48.000Z</time>
      </trkpt>
      <trkpt lat="43.56722" lon="3.31399">
        <ele>283.563365</ele>
        <time>2022-02-24T15:10:49.000Z</time>
      </trkpt>
      <trkpt lat="43.56726" lon="3.314">
        <ele>283.777796</ele>
        <time>2022-02-24T15:10:50.000Z</time>
      </trkpt>
      <trkpt lat="43.5673" lon="3.314">
        <ele>283.986777</ele>
        <time>2022-02-24T15:10:51.000Z</time>
      </trkpt>
      <trkpt lat="43.56733" lon="3.31401">
        <ele>284.17359</ele>
        <time>2022-02-24T15:10:52.000Z</time>
      </trkpt>
      <trkpt lat="43.56737" lon="3.31401">
        <ele>284.382571</ele>
        <time>2022-02-24T15:10:54.000Z</time>
      </trkpt>
      <trkpt lat="43.56741" lon="3.31401">
        <ele>284.590759</ele>
        <time>2022-02-24T15:10:55.000Z</time>
      </trkpt>
      <trkpt lat="43.56744" lon="3.31401">
        <ele>284.782372</ele>
        <time>2022-02-24T15:10:56.000Z</time>
      </trkpt>
      <trkpt lat="43.56748" lon="3.31401">
        <ele>284.968553</ele>
        <time>2022-02-24T15:10:57.000Z</time>
      </trkpt>
      <trkpt lat="43.56751" lon="3.31401">
        <ele>285.154734</ele>
        <time>2022-02-24T15:10:58.000Z</time>
      </trkpt>
      <trkpt lat="43.56754" lon="3.31401">
        <ele>285.324865</ele>
        <time>2022-02-24T15:10:59.000Z</time>
      </trkpt>
      <trkpt lat="43.56758" lon="3.314">
        <ele>285.511383</ele>
        <time>2022-02-24T15:11:01.000Z</time>
      </trkpt>
      <trkpt lat="43.56761" lon="3.314">
        <ele>285.703652</ele>
        <time>2022-02-24T15:11:02.000Z</time>
      </trkpt>
      <trkpt lat="43.56764" lon="3.314">
        <ele>285.869085</ele>
        <time>2022-02-24T15:11:03.000Z</time>
      </trkpt>
      <trkpt lat="43.56767" lon="3.31399">
        <ele>286.042514</ele>
        <time>2022-02-24T15:11:04.000Z</time>
      </trkpt>
      <trkpt lat="43.5677" lon="3.31398">
        <ele>286.187538</ele>
        <time>2022-02-24T15:11:05.000Z</time>
      </trkpt>
      <trkpt lat="43.56772" lon="3.31397">
        <ele>286.317392</ele>
        <time>2022-02-24T15:11:06.000Z</time>
      </trkpt>
      <trkpt lat="43.56775" lon="3.31396">
        <ele>286.448273</ele>
        <time>2022-02-24T15:11:07.000Z</time>
      </trkpt>
      <trkpt lat="43.56776" lon="3.31395">
        <ele>286.558247</ele>
        <time>2022-02-24T15:11:08.000Z</time>
      </trkpt>
      <trkpt lat="43.56779" lon="3.31394">
        <ele>286.690265</ele>
        <time>2022-02-24T15:11:10.000Z</time>
      </trkpt>
      <trkpt lat="43.56781" lon="3.31393">
        <ele>286.800239</ele>
        <time>2022-02-24T15:11:11.000Z</time>
      </trkpt>
      <trkpt lat="43.56783" lon="3.31392">
        <ele>286.933502</ele>
        <time>2022-02-24T15:11:12.000Z</time>
      </trkpt>
      <trkpt lat="43.56785" lon="3.31391">
        <ele>287.068116</ele>
        <time>2022-02-24T15:11:13.000Z</time>
      </trkpt>
      <trkpt lat="43.56788" lon="3.3139">
        <ele>287.204184</ele>
        <time>2022-02-24T15:11:14.000Z</time>
      </trkpt>
      <trkpt lat="43.5679" lon="3.31388">
        <ele>287.341803</ele>
        <time>2022-02-24T15:11:15.000Z</time>
      </trkpt>
      <trkpt lat="43.56792" lon="3.31387">
        <ele>287.475066</ele>
        <time>2022-02-24T15:11:16.000Z</time>
      </trkpt>
      <trkpt lat="43.56794" lon="3.31386">
        <ele>287.604574</ele>
        <time>2022-02-24T15:11:17.000Z</time>
      </trkpt>
      <trkpt lat="43.56797" lon="3.31385">
        <ele>287.761127</ele>
        <time>2022-02-24T15:11:18.000Z</time>
      </trkpt>
      <trkpt lat="43.568" lon="3.31384">
        <ele>287.917679</ele>
        <time>2022-02-24T15:11:19.000Z</time>
      </trkpt>
      <trkpt lat="43.56802" lon="3.31382">
        <ele>288.074232</ele>
        <time>2022-02-24T15:11:21.000Z</time>
      </trkpt>
      <trkpt lat="43.56805" lon="3.31381">
        <ele>288.224321</ele>
        <time>2022-02-24T15:11:22.000Z</time>
      </trkpt>
      <trkpt lat="43.56808" lon="3.3138">
        <ele>288.396977</ele>
        <time>2022-02-24T15:11:23.000Z</time>
      </trkpt>
      <trkpt lat="43.56811" lon="3.3138">
        <ele>288.545005</ele>
        <time>2022-02-24T15:11:24.000Z</time>
      </trkpt>
      <trkpt lat="43.56814" lon="3.3138">
        <ele>288.709437</ele>
        <time>2022-02-24T15:11:26.000Z</time>
      </trkpt>
      <trkpt lat="43.56817" lon="3.3138">
        <ele>288.879336</ele>
        <time>2022-02-24T15:11:27.000Z</time>
      </trkpt>
      <trkpt lat="43.5682" lon="3.31381">
        <ele>289.043768</ele>
        <time>2022-02-24T15:11:28.000Z</time>
      </trkpt>
      <trkpt lat="43.56823" lon="3.31381">
        <ele>289.213667</ele>
        <time>2022-02-24T15:11:29.000Z</time>
      </trkpt>
      <trkpt lat="43.56826" lon="3.31381">
        <ele>289.377955</ele>
        <time>2022-02-24T15:11:31.000Z</time>
      </trkpt>
      <trkpt lat="43.56829" lon="3.31381">
        <ele>289.564474</ele>
        <time>2022-02-24T15:11:32.000Z</time>
      </trkpt>
      <trkpt lat="43.56834" lon="3.3138">
        <ele>289.796589</ele>
        <time>2022-02-24T15:11:33.000Z</time>
      </trkpt>
      <trkpt lat="43.56839" lon="3.31379">
        <ele>290.071727</ele>
        <time>2022-02-24T15:11:35.000Z</time>
      </trkpt>
      <trkpt lat="43.56843" lon="3.31378">
        <ele>290.325087</ele>
        <time>2022-02-24T15:11:36.000Z</time>
      </trkpt>
      <trkpt lat="43.56848" lon="3.31378">
        <ele>290.594779</ele>
        <time>2022-02-24T15:11:38.000Z</time>
      </trkpt>
      <trkpt lat="43.56853" lon="3.31377">
        <ele>290.86877</ele>
        <time>2022-02-24T15:11:39.000Z</time>
      </trkpt>
      <trkpt lat="43.56858" lon="3.31377">
        <ele>291.10333</ele>
        <time>2022-02-24T15:11:40.000Z</time>
      </trkpt>
      <trkpt lat="43.56863" lon="3.31377">
        <ele>291.267496</ele>
        <time>2022-02-24T15:11:41.000Z</time>
      </trkpt>
      <trkpt lat="43.56867" lon="3.31377">
        <ele>291.420719</ele>
        <time>2022-02-24T15:11:42.000Z</time>
      </trkpt>
      <trkpt lat="43.56871" lon="3.31377">
        <ele>291.574146</ele>
        <time>2022-02-24T15:11:43.000Z</time>
      </trkpt>
      <trkpt lat="43.56875" lon="3.31376">
        <ele>291.714006</ele>
        <time>2022-02-24T15:11:45.000Z</time>
      </trkpt>
      <trkpt lat="43.56879" lon="3.31375">
        <ele>291.858718</ele>
        <time>2022-02-24T15:11:46.000Z</time>
      </trkpt>
      <trkpt lat="43.56884" lon="3.31374">
        <ele>292.04075</ele>
        <time>2022-02-24T15:11:48.000Z</time>
      </trkpt>
      <trkpt lat="43.56889" lon="3.31372">
        <ele>292.243415</ele>
        <time>2022-02-24T15:11:49.000Z</time>
      </trkpt>
      <trkpt lat="43.56895" lon="3.3137">
        <ele>292.475556</ele>
        <time>2022-02-24T15:11:50.000Z</time>
      </trkpt>
      <trkpt lat="43.56902" lon="3.31366">
        <ele>292.725737</ele>
        <time>2022-02-24T15:11:52.000Z</time>
      </trkpt>
      <trkpt lat="43.56907" lon="3.31363">
        <ele>292.941184</ele>
        <time>2022-02-24T15:11:53.000Z</time>
      </trkpt>
      <trkpt lat="43.56912" lon="3.3136">
        <ele>293.137829</ele>
        <time>2022-02-24T15:11:54.000Z</time>
      </trkpt>
      <trkpt lat="43.56917" lon="3.31357">
        <ele>293.337796</ele>
        <time>2022-02-24T15:11:55.000Z</time>
      </trkpt>
      <trkpt lat="43.56922" lon="3.31353">
        <ele>293.544768</ele>
        <time>2022-02-24T15:11:56.000Z</time>
      </trkpt>
      <trkpt lat="43.56927" lon="3.31349">
        <ele>293.767725</ele>
        <time>2022-02-24T15:11:57.000Z</time>
      </trkpt>
      <trkpt lat="43.56934" lon="3.31344">
        <ele>294.046135</ele>
        <time>2022-02-24T15:11:58.000Z</time>
      </trkpt>
      <trkpt lat="43.56944" lon="3.31338">
        <ele>294.43777</ele>
        <time>2022-02-24T15:12:00.000Z</time>
      </trkpt>
      <trkpt lat="43.56948" lon="3.31334">
        <ele>294.630686</ele>
        <time>2022-02-24T15:12:02.000Z</time>
      </trkpt>
      <trkpt lat="43.56964" lon="3.31322">
        <ele>295.295004</ele>
        <time>2022-02-24T15:12:04.000Z</time>
      </trkpt>
      <trkpt lat="43.56976" lon="3.31311">
        <ele>295.810081</ele>
        <time>2022-02-24T15:12:05.000Z</time>
      </trkpt>
      <trkpt lat="43.56978" lon="3.31309">
        <ele>295.890631</ele>
        <time>2022-02-24T15:12:06.000Z</time>
      </trkpt>
      <trkpt lat="43.5698" lon="3.31307">
        <ele>296.004741</ele>
        <time>2022-02-24T15:12:08.000Z</time>
      </trkpt>
      <trkpt lat="43.56984" lon="3.31304">
        <ele>296.148512</ele>
        <time>2022-02-24T15:12:09.000Z</time>
      </trkpt>
      <trkpt lat="43.56988" lon="3.31302">
        <ele>296.311479</ele>
        <time>2022-02-24T15:12:11.000Z</time>
      </trkpt>
      <trkpt lat="43.56992" lon="3.313">
        <ele>296.487476</ele>
        <time>2022-02-24T15:12:12.000Z</time>
      </trkpt>
      <trkpt lat="43.56997" lon="3.31298">
        <ele>296.646428</ele>
        <time>2022-02-24T15:12:13.000Z</time>
      </trkpt>
      <trkpt lat="43.57" lon="3.31298">
        <ele>296.785962</ele>
        <time>2022-02-24T15:12:14.000Z</time>
      </trkpt>
      <trkpt lat="43.57005" lon="3.31298">
        <ele>296.939207</ele>
        <time>2022-02-24T15:12:15.000Z</time>
      </trkpt>
      <trkpt lat="43.57009" lon="3.31298">
        <ele>297.107043</ele>
        <time>2022-02-24T15:12:17.000Z</time>
      </trkpt>
      <trkpt lat="43.57014" lon="3.31297">
        <ele>297.275875</ele>
        <time>2022-02-24T15:12:18.000Z</time>
      </trkpt>
      <trkpt lat="43.57018" lon="3.31296">
        <ele>297.430933</ele>
        <time>2022-02-24T15:12:19.000Z</time>
      </trkpt>
      <trkpt lat="43.57022" lon="3.31295">
        <ele>297.57206</ele>
        <time>2022-02-24T15:12:20.000Z</time>
      </trkpt>
      <trkpt lat="43.57026" lon="3.31293">
        <ele>297.971154</ele>
        <time>2022-02-24T15:12:22.000Z</time>
      </trkpt>
      <trkpt lat="43.5703" lon="3.31292">
        <ele>298.398673</ele>
        <time>2022-02-24T15:12:23.000Z</time>
      </trkpt>
      <trkpt lat="43.57034" lon="3.3129">
        <ele>298.786997</ele>
        <time>2022-02-24T15:12:24.000Z</time>
      </trkpt>
      <trkpt lat="43.57037" lon="3.31288">
        <ele>299.1362</ele>
        <time>2022-02-24T15:12:25.000Z</time>
      </trkpt>
      <trkpt lat="43.57041" lon="3.31287">
        <ele>299.496894</ele>
        <time>2022-02-24T15:12:26.000Z</time>
      </trkpt>
      <trkpt lat="43.57045" lon="3.31285">
        <ele>299.881109</ele>
        <time>2022-02-24T15:12:27.000Z</time>
      </trkpt>
      <trkpt lat="43.57048" lon="3.31284">
        <ele>300.263447</ele>
        <time>2022-02-24T15:12:28.000Z</time>
      </trkpt>
      <trkpt lat="43.57052" lon="3.31282">
        <ele>300.606415</ele>
        <time>2022-02-24T15:12:29.000Z</time>
      </trkpt>
      <trkpt lat="43.57055" lon="3.31281">
        <ele>300.919399</ele>
        <time>2022-02-24T15:12:30.000Z</time>
      </trkpt>
      <trkpt lat="43.57058" lon="3.3128">
        <ele>301.215172</ele>
        <time>2022-02-24T15:12:31.000Z</time>
      </trkpt>
      <trkpt lat="43.57061" lon="3.31281">
        <ele>301.516857</ele>
        <time>2022-02-24T15:12:33.000Z</time>
      </trkpt>
      <trkpt lat="43.57064" lon="3.31281">
        <ele>301.780836</ele>
        <time>2022-02-24T15:12:34.000Z</time>
      </trkpt>
      <trkpt lat="43.57066" lon="3.31282">
        <ele>302.03979</ele>
        <time>2022-02-24T15:12:35.000Z</time>
      </trkpt>
      <trkpt lat="43.57068" lon="3.31284">
        <ele>302.267876</ele>
        <time>2022-02-24T15:12:37.000Z</time>
      </trkpt>
      <trkpt lat="43.5707" lon="3.31286">
        <ele>302.504501</ele>
        <time>2022-02-24T15:12:38.000Z</time>
      </trkpt>
      <trkpt lat="43.57072" lon="3.31288">
        <ele>302.719138</ele>
        <time>2022-02-24T15:12:39.000Z</time>
      </trkpt>
      <trkpt lat="43.57073" lon="3.3129">
        <ele>302.937093</ele>
        <time>2022-02-24T15:12:40.000Z</time>
      </trkpt>
      <trkpt lat="43.57075" lon="3.31292">
        <ele>303.149867</ele>
        <time>2022-02-24T15:12:41.000Z</time>
      </trkpt>
      <trkpt lat="43.57078" lon="3.31298">
        <ele>303.65495</ele>
        <time>2022-02-24T15:12:43.000Z</time>
      </trkpt>
      <trkpt lat="43.5708" lon="3.31301">
        <ele>303.911677</ele>
        <time>2022-02-24T15:12:44.000Z</time>
      </trkpt>
      <trkpt lat="43.57082" lon="3.31304">
        <ele>304.219708</ele>
        <time>2022-02-24T15:12:45.000Z</time>
      </trkpt>
      <trkpt lat="43.57084" lon="3.31308">
        <ele>304.522132</ele>
        <time>2022-02-24T15:12:46.000Z</time>
      </trkpt>
      <trkpt lat="43.57085" lon="3.31311">
        <ele>304.802776</ele>
        <time>2022-02-24T15:12:47.000Z</time>
      </trkpt>
      <trkpt lat="43.57087" lon="3.31313">
        <ele>305.067876</ele>
        <time>2022-02-24T15:12:48.000Z</time>
      </trkpt>
      <trkpt lat="43.57089" lon="3.31316">
        <ele>305.32306</ele>
        <time>2022-02-24T15:12:49.000Z</time>
      </trkpt>
      <trkpt lat="43.57092" lon="3.31319">
        <ele>305.616581</ele>
        <time>2022-02-24T15:12:51.000Z</time>
      </trkpt>
      <trkpt lat="43.57095" lon="3.31324">
        <ele>306.151856</ele>
        <time>2022-02-24T15:12:52.000Z</time>
      </trkpt>
      <trkpt lat="43.57097" lon="3.31327">
        <ele>306.40704</ele>
        <time>2022-02-24T15:12:54.000Z</time>
      </trkpt>
      <trkpt lat="43.571" lon="3.31329">
        <ele>306.687333</ele>
        <time>2022-02-24T15:12:55.000Z</time>
      </trkpt>
      <trkpt lat="43.57101" lon="3.31331">
        <ele>306.933009</ele>
        <time>2022-02-24T15:12:56.000Z</time>
      </trkpt>
      <trkpt lat="43.57104" lon="3.31334">
        <ele>307.209112</ele>
        <time>2022-02-24T15:12:58.000Z</time>
      </trkpt>
      <trkpt lat="43.57106" lon="3.31336">
        <ele>307.450202</ele>
        <time>2022-02-24T15:12:59.000Z</time>
      </trkpt>
      <trkpt lat="43.57108" lon="3.31338">
        <ele>307.686826</ele>
        <time>2022-02-24T15:13:00.000Z</time>
      </trkpt>
      <trkpt lat="43.57109" lon="3.3134">
        <ele>307.923451</ele>
        <time>2022-02-24T15:13:01.000Z</time>
      </trkpt>
      <trkpt lat="43.57111" lon="3.31342">
        <ele>308.169127</ele>
        <time>2022-02-24T15:13:02.000Z</time>
      </trkpt>
      <trkpt lat="43.57113" lon="3.31345">
        <ele>308.422192</ele>
        <time>2022-02-24T15:13:03.000Z</time>
      </trkpt>
      <trkpt lat="43.57115" lon="3.31347">
        <ele>308.658817</ele>
        <time>2022-02-24T15:13:04.000Z</time>
      </trkpt>
      <trkpt lat="43.57117" lon="3.31349">
        <ele>308.899906</ele>
        <time>2022-02-24T15:13:05.000Z</time>
      </trkpt>
      <trkpt lat="43.57119" lon="3.31351">
        <ele>309.140996</ele>
        <time>2022-02-24T15:13:06.000Z</time>
      </trkpt>
      <trkpt lat="43.57121" lon="3.31353">
        <ele>309.421289</ele>
        <time>2022-02-24T15:13:08.000Z</time>
      </trkpt>
      <trkpt lat="43.57124" lon="3.31356">
        <ele>309.705885</ele>
        <time>2022-02-24T15:13:10.000Z</time>
      </trkpt>
      <trkpt lat="43.57126" lon="3.31358">
        <ele>310.00235</ele>
        <time>2022-02-24T15:13:11.000Z</time>
      </trkpt>
      <trkpt lat="43.57129" lon="3.3136">
        <ele>310.290842</ele>
        <time>2022-02-24T15:13:12.000Z</time>
      </trkpt>
      <trkpt lat="43.57131" lon="3.31361">
        <ele>310.538132</ele>
        <time>2022-02-24T15:13:13.000Z</time>
      </trkpt>
      <trkpt lat="43.57134" lon="3.31363">
        <ele>310.788512</ele>
        <time>2022-02-24T15:13:14.000Z</time>
      </trkpt>
      <trkpt lat="43.57136" lon="3.31364">
        <ele>311.035802</ele>
        <time>2022-02-24T15:13:15.000Z</time>
      </trkpt>
      <trkpt lat="43.57138" lon="3.31366">
        <ele>311.27741</ele>
        <time>2022-02-24T15:13:16.000Z</time>
      </trkpt>
      <trkpt lat="43.5714" lon="3.31367">
        <ele>311.510051</ele>
        <time>2022-02-24T15:13:17.000Z</time>
      </trkpt>
      <trkpt lat="43.57143" lon="3.31368">
        <ele>311.754415</ele>
        <time>2022-02-24T15:13:18.000Z</time>
      </trkpt>
      <trkpt lat="43.57145" lon="3.3137">
        <ele>311.960566</ele>
        <time>2022-02-24T15:13:19.000Z</time>
      </trkpt>
      <trkpt lat="43.57146" lon="3.31371">
        <ele>312.173348</ele>
        <time>2022-02-24T15:13:20.000Z</time>
      </trkpt>
      <trkpt lat="43.57148" lon="3.31373">
        <ele>312.405452</ele>
        <time>2022-02-24T15:13:21.000Z</time>
      </trkpt>
      <trkpt lat="43.5715" lon="3.31375">
        <ele>312.618234</ele>
        <time>2022-02-24T15:13:22.000Z</time>
      </trkpt>
      <trkpt lat="43.57152" lon="3.31376">
        <ele>312.827608</ele>
        <time>2022-02-24T15:13:23.000Z</time>
      </trkpt>
      <trkpt lat="43.57154" lon="3.31377">
        <ele>313.036983</ele>
        <time>2022-02-24T15:13:25.000Z</time>
      </trkpt>
      <trkpt lat="43.57156" lon="3.31379">
        <ele>313.243133</ele>
        <time>2022-02-24T15:13:26.000Z</time>
      </trkpt>
      <trkpt lat="43.57158" lon="3.3138">
        <ele>313.449284</ele>
        <time>2022-02-24T15:13:27.000Z</time>
      </trkpt>
      <trkpt lat="43.57159" lon="3.31381">
        <ele>313.617825</ele>
        <time>2022-02-24T15:13:28.000Z</time>
      </trkpt>
      <trkpt lat="43.57161" lon="3.31382">
        <ele>313.786365</ele>
        <time>2022-02-24T15:13:29.000Z</time>
      </trkpt>
      <trkpt lat="43.57163" lon="3.31383">
        <ele>313.960131</ele>
        <time>2022-02-24T15:13:30.000Z</time>
      </trkpt>
      <trkpt lat="43.57164" lon="3.31384">
        <ele>314.155407</ele>
        <time>2022-02-24T15:13:31.000Z</time>
      </trkpt>
      <trkpt lat="43.57166" lon="3.31385">
        <ele>314.348513</ele>
        <time>2022-02-24T15:13:32.000Z</time>
      </trkpt>
      <trkpt lat="43.57168" lon="3.31386">
        <ele>314.546188</ele>
        <time>2022-02-24T15:13:33.000Z</time>
      </trkpt>
      <trkpt lat="43.5717" lon="3.31387">
        <ele>314.741464</ele>
        <time>2022-02-24T15:13:34.000Z</time>
      </trkpt>
      <trkpt lat="43.57172" lon="3.31388">
        <ele>314.934569</ele>
        <time>2022-02-24T15:13:35.000Z</time>
      </trkpt>
      <trkpt lat="43.57174" lon="3.31389">
        <ele>315.110519</ele>
        <time>2022-02-24T15:13:36.000Z</time>
      </trkpt>
      <trkpt lat="43.57176" lon="3.31389">
        <ele>315.241969</ele>
        <time>2022-02-24T15:13:37.000Z</time>
      </trkpt>
      <trkpt lat="43.57178" lon="3.3139">
        <ele>315.373418</ele>
        <time>2022-02-24T15:13:38.000Z</time>
      </trkpt>
      <trkpt lat="43.5718" lon="3.31391">
        <ele>315.558695</ele>
        <time>2022-02-24T15:13:39.000Z</time>
      </trkpt>
      <trkpt lat="43.57183" lon="3.31391">
        <ele>315.743971</ele>
        <time>2022-02-24T15:13:41.000Z</time>
      </trkpt>
      <trkpt lat="43.57186" lon="3.31392">
        <ele>315.923623</ele>
        <time>2022-02-24T15:13:42.000Z</time>
      </trkpt>
      <trkpt lat="43.57189" lon="3.31393">
        <ele>316.137266</ele>
        <time>2022-02-24T15:13:44.000Z</time>
      </trkpt>
      <trkpt lat="43.57192" lon="3.31394">
        <ele>316.344314</ele>
        <time>2022-02-24T15:13:45.000Z</time>
      </trkpt>
      <trkpt lat="43.57195" lon="3.31395">
        <ele>316.557005</ele>
        <time>2022-02-24T15:13:46.000Z</time>
      </trkpt>
      <trkpt lat="43.57198" lon="3.31395">
        <ele>316.789614</ele>
        <time>2022-02-24T15:13:47.000Z</time>
      </trkpt>
      <trkpt lat="43.57202" lon="3.31396">
        <ele>317.02692</ele>
        <time>2022-02-24T15:13:48.000Z</time>
      </trkpt>
      <trkpt lat="43.57205" lon="3.31396">
        <ele>317.256429</ele>
        <time>2022-02-24T15:13:49.000Z</time>
      </trkpt>
      <trkpt lat="43.57209" lon="3.31396">
        <ele>317.485782</ele>
        <time>2022-02-24T15:13:50.000Z</time>
      </trkpt>
      <trkpt lat="43.57212" lon="3.31396">
        <ele>317.694907</ele>
        <time>2022-02-24T15:13:51.000Z</time>
      </trkpt>
      <trkpt lat="43.57215" lon="3.31396">
        <ele>317.92426</ele>
        <time>2022-02-24T15:13:52.000Z</time>
      </trkpt>
      <trkpt lat="43.57219" lon="3.31396">
        <ele>318.180538</ele>
        <time>2022-02-24T15:13:54.000Z</time>
      </trkpt>
      <trkpt lat="43.57223" lon="3.31396">
        <ele>318.436861</ele>
        <time>2022-02-24T15:13:55.000Z</time>
      </trkpt>
      <trkpt lat="43.57227" lon="3.31396">
        <ele>318.699928</ele>
        <time>2022-02-24T15:13:57.000Z</time>
      </trkpt>
      <trkpt lat="43.5723" lon="3.31396">
        <ele>318.956206</ele>
        <time>2022-02-24T15:13:58.000Z</time>
      </trkpt>
      <trkpt lat="43.57235" lon="3.31396">
        <ele>319.259731</ele>
        <time>2022-02-24T15:13:59.000Z</time>
      </trkpt>
      <trkpt lat="43.5724" lon="3.31397">
        <ele>319.59708</ele>
        <time>2022-02-24T15:14:01.000Z</time>
      </trkpt>
      <trkpt lat="43.57246" lon="3.31397">
        <ele>319.983015</ele>
        <time>2022-02-24T15:14:02.000Z</time>
      </trkpt>
      <trkpt lat="43.57251" lon="3.31398">
        <ele>320.321952</ele>
        <time>2022-02-24T15:14:03.000Z</time>
      </trkpt>
      <trkpt lat="43.57255" lon="3.31399">
        <ele>320.634062</ele>
        <time>2022-02-24T15:14:04.000Z</time>
      </trkpt>
      <trkpt lat="43.57259" lon="3.31399">
        <ele>320.918368</ele>
        <time>2022-02-24T15:14:05.000Z</time>
      </trkpt>
      <trkpt lat="43.57263" lon="3.314">
        <ele>321.175389</ele>
        <time>2022-02-24T15:14:06.000Z</time>
      </trkpt>
      <trkpt lat="43.57267" lon="3.314">
        <ele>321.431713</ele>
        <time>2022-02-24T15:14:07.000Z</time>
      </trkpt>
      <trkpt lat="43.5727" lon="3.31399">
        <ele>321.663551</ele>
        <time>2022-02-24T15:14:08.000Z</time>
      </trkpt>
      <trkpt lat="43.57274" lon="3.31397">
        <ele>321.930102</ele>
        <time>2022-02-24T15:14:10.000Z</time>
      </trkpt>
      <trkpt lat="43.57278" lon="3.31396">
        <ele>322.203144</ele>
        <time>2022-02-24T15:14:11.000Z</time>
      </trkpt>
      <trkpt lat="43.57282" lon="3.31395">
        <ele>322.437593</ele>
        <time>2022-02-24T15:14:12.000Z</time>
      </trkpt>
      <trkpt lat="43.57285" lon="3.31394">
        <ele>322.697616</ele>
        <time>2022-02-24T15:14:13.000Z</time>
      </trkpt>
      <trkpt lat="43.57289" lon="3.31393">
        <ele>322.956166</ele>
        <time>2022-02-24T15:14:14.000Z</time>
      </trkpt>
      <trkpt lat="43.57293" lon="3.31393">
        <ele>323.186764</ele>
        <time>2022-02-24T15:14:15.000Z</time>
      </trkpt>
      <trkpt lat="43.57296" lon="3.31393">
        <ele>323.450194</ele>
        <time>2022-02-24T15:14:16.000Z</time>
      </trkpt>
      <trkpt lat="43.573" lon="3.31392">
        <ele>323.679547</ele>
        <time>2022-02-24T15:14:17.000Z</time>
      </trkpt>
      <trkpt lat="43.57304" lon="3.31393">
        <ele>323.935871</ele>
        <time>2022-02-24T15:14:18.000Z</time>
      </trkpt>
      <trkpt lat="43.57307" lon="3.31393">
        <ele>324.166003</ele>
        <time>2022-02-24T15:14:19.000Z</time>
      </trkpt>
      <trkpt lat="43.57311" lon="3.31393">
        <ele>324.402503</ele>
        <time>2022-02-24T15:14:20.000Z</time>
      </trkpt>
      <trkpt lat="43.57314" lon="3.31393">
        <ele>324.632011</ele>
        <time>2022-02-24T15:14:21.000Z</time>
      </trkpt>
      <trkpt lat="43.57317" lon="3.31394">
        <ele>324.86152</ele>
        <time>2022-02-24T15:14:22.000Z</time>
      </trkpt>
      <trkpt lat="43.57321" lon="3.31394">
        <ele>325.124587</ele>
        <time>2022-02-24T15:14:24.000Z</time>
      </trkpt>
      <trkpt lat="43.57325" lon="3.31394">
        <ele>325.380911</ele>
        <time>2022-02-24T15:14:26.000Z</time>
      </trkpt>
      <trkpt lat="43.57332" lon="3.31394">
        <ele>325.819961</ele>
        <time>2022-02-24T15:14:27.000Z</time>
      </trkpt>
      <trkpt lat="43.57335" lon="3.31394">
        <ele>326.049729</ele>
        <time>2022-02-24T15:14:29.000Z</time>
      </trkpt>
      <trkpt lat="43.57338" lon="3.31395">
        <ele>326.279862</ele>
        <time>2022-02-24T15:14:31.000Z</time>
      </trkpt>
      <trkpt lat="43.57342" lon="3.31395">
        <ele>326.51772</ele>
        <time>2022-02-24T15:14:32.000Z</time>
      </trkpt>
      <trkpt lat="43.57345" lon="3.31396">
        <ele>326.722157</ele>
        <time>2022-02-24T15:14:33.000Z</time>
      </trkpt>
      <trkpt lat="43.57348" lon="3.31397">
        <ele>326.952756</ele>
        <time>2022-02-24T15:14:35.000Z</time>
      </trkpt>
      <trkpt lat="43.57351" lon="3.31397">
        <ele>327.164603</ele>
        <time>2022-02-24T15:14:36.000Z</time>
      </trkpt>
      <trkpt lat="43.57354" lon="3.31398">
        <ele>327.392822</ele>
        <time>2022-02-24T15:14:37.000Z</time>
      </trkpt>
      <trkpt lat="43.57357" lon="3.31399">
        <ele>327.60352</ele>
        <time>2022-02-24T15:14:38.000Z</time>
      </trkpt>
      <trkpt lat="43.57359" lon="3.314">
        <ele>327.792049</ele>
        <time>2022-02-24T15:14:39.000Z</time>
      </trkpt>
      <trkpt lat="43.57362" lon="3.31402">
        <ele>327.982728</ele>
        <time>2022-02-24T15:14:40.000Z</time>
      </trkpt>
      <trkpt lat="43.57364" lon="3.31403">
        <ele>328.180636</ele>
        <time>2022-02-24T15:14:41.000Z</time>
      </trkpt>
      <trkpt lat="43.57365" lon="3.31406">
        <ele>328.346661</ele>
        <time>2022-02-24T15:14:43.000Z</time>
      </trkpt>
      <trkpt lat="43.57367" lon="3.31408">
        <ele>328.520854</ele>
        <time>2022-02-24T15:14:44.000Z</time>
      </trkpt>
      <trkpt lat="43.57371" lon="3.31411">
        <ele>328.872306</ele>
        <time>2022-02-24T15:16:18.000Z</time>
      </trkpt>
      <trkpt lat="43.57372" lon="3.31414">
        <ele>329.058343</ele>
        <time>2022-02-24T15:16:20.000Z</time>
      </trkpt>
      <trkpt lat="43.57375" lon="3.31424">
        <ele>329.649983</ele>
        <time>2022-02-24T15:16:22.000Z</time>
      </trkpt>
      <trkpt lat="43.57375" lon="3.31426">
        <ele>329.752702</ele>
        <time>2022-02-24T15:16:23.000Z</time>
      </trkpt>
      <trkpt lat="43.57376" lon="3.31426">
        <ele>329.827639</ele>
        <time>2022-02-24T15:16:24.000Z</time>
      </trkpt>
      <trkpt lat="43.57377" lon="3.31429">
        <ele>329.970052</ele>
        <time>2022-02-24T15:16:25.000Z</time>
      </trkpt>
      <trkpt lat="43.57378" lon="3.31431">
        <ele>330.14413</ele>
        <time>2022-02-24T15:16:26.000Z</time>
      </trkpt>
      <trkpt lat="43.5738" lon="3.31434">
        <ele>330.35359</ele>
        <time>2022-02-24T15:16:28.000Z</time>
      </trkpt>
      <trkpt lat="43.57382" lon="3.31439">
        <ele>330.654185</ele>
        <time>2022-02-24T15:16:30.000Z</time>
      </trkpt>
      <trkpt lat="43.57384" lon="3.31444">
        <ele>330.935686</ele>
        <time>2022-02-24T15:16:31.000Z</time>
      </trkpt>
      <trkpt lat="43.57385" lon="3.31448">
        <ele>331.197965</ele>
        <time>2022-02-24T15:16:32.000Z</time>
      </trkpt>
      <trkpt lat="43.57386" lon="3.31453">
        <ele>331.466653</ele>
        <time>2022-02-24T15:16:34.000Z</time>
      </trkpt>
      <trkpt lat="43.57388" lon="3.31457">
        <ele>331.717263</ele>
        <time>2022-02-24T15:16:35.000Z</time>
      </trkpt>
      <trkpt lat="43.57388" lon="3.31461">
        <ele>331.961243</ele>
        <time>2022-02-24T15:16:36.000Z</time>
      </trkpt>
      <trkpt lat="43.57389" lon="3.31466">
        <ele>332.22657</ele>
        <time>2022-02-24T15:16:38.000Z</time>
      </trkpt>
      <trkpt lat="43.5739" lon="3.3147">
        <ele>332.484885</ele>
        <time>2022-02-24T15:16:40.000Z</time>
      </trkpt>
      <trkpt lat="43.5739" lon="3.31473">
        <ele>332.636338</ele>
        <time>2022-02-24T15:16:42.000Z</time>
      </trkpt>
      <trkpt lat="43.57391" lon="3.31486">
        <ele>333.355625</ele>
        <time>2022-02-24T15:16:43.000Z</time>
      </trkpt>
      <trkpt lat="43.57392" lon="3.31491">
        <ele>333.610238</ele>
        <time>2022-02-24T15:16:45.000Z</time>
      </trkpt>
      <trkpt lat="43.57392" lon="3.31494">
        <ele>333.777875</ele>
        <time>2022-02-24T15:16:46.000Z</time>
      </trkpt>
      <trkpt lat="43.57393" lon="3.31496">
        <ele>333.897205</ele>
        <time>2022-02-24T15:16:48.000Z</time>
      </trkpt>
      <trkpt lat="43.57394" lon="3.31506">
        <ele>334.460038</ele>
        <time>2022-02-24T15:16:50.000Z</time>
      </trkpt>
      <trkpt lat="43.57395" lon="3.31509">
        <ele>334.666978</ele>
        <time>2022-02-24T15:16:51.000Z</time>
      </trkpt>
      <trkpt lat="43.57395" lon="3.31512">
        <ele>334.798873</ele>
        <time>2022-02-24T15:16:52.000Z</time>
      </trkpt>
      <trkpt lat="43.57395" lon="3.31514">
        <ele>334.928863</ele>
        <time>2022-02-24T15:16:53.000Z</time>
      </trkpt>
      <trkpt lat="43.57394" lon="3.31516">
        <ele>335.053516</ele>
        <time>2022-02-24T15:16:54.000Z</time>
      </trkpt>
      <trkpt lat="43.57394" lon="3.31519">
        <ele>335.199588</ele>
        <time>2022-02-24T15:16:55.000Z</time>
      </trkpt>
      <trkpt lat="43.57393" lon="3.31521">
        <ele>335.352021</ele>
        <time>2022-02-24T15:16:57.000Z</time>
      </trkpt>
      <trkpt lat="43.57393" lon="3.31524">
        <ele>335.512333</ele>
        <time>2022-02-24T15:16:58.000Z</time>
      </trkpt>
      <trkpt lat="43.57391" lon="3.31527">
        <ele>335.691118</ele>
        <time>2022-02-24T15:16:59.000Z</time>
      </trkpt>
      <trkpt lat="43.5739" lon="3.3153">
        <ele>335.875899</ele>
        <time>2022-02-24T15:17:00.000Z</time>
      </trkpt>
      <trkpt lat="43.57389" lon="3.31533">
        <ele>336.0656</ele>
        <time>2022-02-24T15:17:01.000Z</time>
      </trkpt>
      <trkpt lat="43.57388" lon="3.31537">
        <ele>336.302405</ele>
        <time>2022-02-24T15:17:03.000Z</time>
      </trkpt>
      <trkpt lat="43.57386" lon="3.3154">
        <ele>336.535414</ele>
        <time>2022-02-24T15:17:04.000Z</time>
      </trkpt>
      <trkpt lat="43.57385" lon="3.31544">
        <ele>336.763643</ele>
        <time>2022-02-24T15:17:05.000Z</time>
      </trkpt>
      <trkpt lat="43.57383" lon="3.31548">
        <ele>336.981421</ele>
        <time>2022-02-24T15:17:06.000Z</time>
      </trkpt>
      <trkpt lat="43.57382" lon="3.31551">
        <ele>337.219241</ele>
        <time>2022-02-24T15:17:07.000Z</time>
      </trkpt>
      <trkpt lat="43.57381" lon="3.31555">
        <ele>337.428907</ele>
        <time>2022-02-24T15:17:08.000Z</time>
      </trkpt>
      <trkpt lat="43.57379" lon="3.31559">
        <ele>337.661011</ele>
        <time>2022-02-24T15:17:09.000Z</time>
      </trkpt>
      <trkpt lat="43.57378" lon="3.31562">
        <ele>337.879781</ele>
        <time>2022-02-24T15:17:10.000Z</time>
      </trkpt>
      <trkpt lat="43.57377" lon="3.31565">
        <ele>338.079411</ele>
        <time>2022-02-24T15:17:11.000Z</time>
      </trkpt>
      <trkpt lat="43.57375" lon="3.31568">
        <ele>338.277433</ele>
        <time>2022-02-24T15:17:12.000Z</time>
      </trkpt>
      <trkpt lat="43.57374" lon="3.31572">
        <ele>338.505662</ele>
        <time>2022-02-24T15:17:13.000Z</time>
      </trkpt>
      <trkpt lat="43.57373" lon="3.31575">
        <ele>338.671074</ele>
        <time>2022-02-24T15:17:16.000Z</time>
      </trkpt>
      <trkpt lat="43.57369" lon="3.3159">
        <ele>339.588747</ele>
        <time>2022-02-24T15:17:18.000Z</time>
      </trkpt>
      <trkpt lat="43.57367" lon="3.31596">
        <ele>339.945276</ele>
        <time>2022-02-24T15:17:19.000Z</time>
      </trkpt>
      <trkpt lat="43.57366" lon="3.31601">
        <ele>340.206277</ele>
        <time>2022-02-24T15:17:21.000Z</time>
      </trkpt>
      <trkpt lat="43.57365" lon="3.31605">
        <ele>340.417304</ele>
        <time>2022-02-24T15:17:22.000Z</time>
      </trkpt>
      <trkpt lat="43.57365" lon="3.31609">
        <ele>340.642626</ele>
        <time>2022-02-24T15:17:23.000Z</time>
      </trkpt>
      <trkpt lat="43.57366" lon="3.31613">
        <ele>340.792374</ele>
        <time>2022-02-24T15:17:25.000Z</time>
      </trkpt>
      <trkpt lat="43.57367" lon="3.31618">
        <ele>340.565773</ele>
        <time>2022-02-24T15:17:26.000Z</time>
      </trkpt>
      <trkpt lat="43.57368" lon="3.31622">
        <ele>340.337512</ele>
        <time>2022-02-24T15:17:27.000Z</time>
      </trkpt>
      <trkpt lat="43.57369" lon="3.31626">
        <ele>340.098192</ele>
        <time>2022-02-24T15:17:29.000Z</time>
      </trkpt>
      <trkpt lat="43.5737" lon="3.31631">
        <ele>339.851646</ele>
        <time>2022-02-24T15:17:30.000Z</time>
      </trkpt>
      <trkpt lat="43.57372" lon="3.31635">
        <ele>339.601622</ele>
        <time>2022-02-24T15:17:31.000Z</time>
      </trkpt>
      <trkpt lat="43.57373" lon="3.31639">
        <ele>339.365464</ele>
        <time>2022-02-24T15:17:32.000Z</time>
      </trkpt>
      <trkpt lat="43.57375" lon="3.31644">
        <ele>339.126023</ele>
        <time>2022-02-24T15:17:33.000Z</time>
      </trkpt>
      <trkpt lat="43.57376" lon="3.31648">
        <ele>338.885264</ele>
        <time>2022-02-24T15:17:34.000Z</time>
      </trkpt>
      <trkpt lat="43.57378" lon="3.31652">
        <ele>338.644505</ele>
        <time>2022-02-24T15:17:35.000Z</time>
      </trkpt>
      <trkpt lat="43.57379" lon="3.31656">
        <ele>338.399124</ele>
        <time>2022-02-24T15:17:36.000Z</time>
      </trkpt>
      <trkpt lat="43.5738" lon="3.31661">
        <ele>338.147746</ele>
        <time>2022-02-24T15:17:38.000Z</time>
      </trkpt>
      <trkpt lat="43.57381" lon="3.31664">
        <ele>337.985697</ele>
        <time>2022-02-24T15:17:40.000Z</time>
      </trkpt>
      <trkpt lat="43.57384" lon="3.31678">
        <ele>337.213316</ele>
        <time>2022-02-24T15:17:41.000Z</time>
      </trkpt>
      <trkpt lat="43.57385" lon="3.31684">
        <ele>336.918875</ele>
        <time>2022-02-24T15:17:42.000Z</time>
      </trkpt>
      <trkpt lat="43.57385" lon="3.31688">
        <ele>336.692646</ele>
        <time>2022-02-24T15:17:43.000Z</time>
      </trkpt>
      <trkpt lat="43.57385" lon="3.31692">
        <ele>336.481842</ele>
        <time>2022-02-24T15:17:45.000Z</time>
      </trkpt>
      <trkpt lat="43.57384" lon="3.31697">
        <ele>336.264038</ele>
        <time>2022-02-24T15:17:46.000Z</time>
      </trkpt>
      <trkpt lat="43.57384" lon="3.31701">
        <ele>336.032668</ele>
        <time>2022-02-24T15:17:47.000Z</time>
      </trkpt>
      <trkpt lat="43.57384" lon="3.31706">
        <ele>335.794458</ele>
        <time>2022-02-24T15:17:48.000Z</time>
      </trkpt>
      <trkpt lat="43.57384" lon="3.31711">
        <ele>335.547663</ele>
        <time>2022-02-24T15:17:50.000Z</time>
      </trkpt>
      <trkpt lat="43.57383" lon="3.31716">
        <ele>335.268571</ele>
        <time>2022-02-24T15:17:51.000Z</time>
      </trkpt>
      <trkpt lat="43.57383" lon="3.31722">
        <ele>334.975502</ele>
        <time>2022-02-24T15:17:52.000Z</time>
      </trkpt>
      <trkpt lat="43.57383" lon="3.31727">
        <ele>334.677291</ele>
        <time>2022-02-24T15:17:53.000Z</time>
      </trkpt>
      <trkpt lat="43.57384" lon="3.31733">
        <ele>334.368671</ele>
        <time>2022-02-24T15:17:54.000Z</time>
      </trkpt>
      <trkpt lat="43.57385" lon="3.31739">
        <ele>334.045466</ele>
        <time>2022-02-24T15:17:55.000Z</time>
      </trkpt>
      <trkpt lat="43.57387" lon="3.31745">
        <ele>333.716739</ele>
        <time>2022-02-24T15:17:56.000Z</time>
      </trkpt>
      <trkpt lat="43.57389" lon="3.31752">
        <ele>333.340179</ele>
        <time>2022-02-24T15:17:57.000Z</time>
      </trkpt>
      <trkpt lat="43.57392" lon="3.31758">
        <ele>332.967393</ele>
        <time>2022-02-24T15:18:00.000Z</time>
      </trkpt>
      <trkpt lat="43.57404" lon="3.31785">
        <ele>331.351246</ele>
        <time>2022-02-24T15:18:02.000Z</time>
      </trkpt>
      <trkpt lat="43.57413" lon="3.31808">
        <ele>330.016715</ele>
        <time>2022-02-24T15:18:04.000Z</time>
      </trkpt>
      <trkpt lat="43.57419" lon="3.31824">
        <ele>329.06429</ele>
        <time>2022-02-24T15:18:05.000Z</time>
      </trkpt>
      <trkpt lat="43.5742" lon="3.31825">
        <ele>328.976052</ele>
        <time>2022-02-24T15:18:06.000Z</time>
      </trkpt>
      <trkpt lat="43.57422" lon="3.31828">
        <ele>328.81319</ele>
        <time>2022-02-24T15:18:08.000Z</time>
      </trkpt>
      <trkpt lat="43.57427" lon="3.3184">
        <ele>328.052106</ele>
        <time>2022-02-24T15:18:10.000Z</time>
      </trkpt>
      <trkpt lat="43.57428" lon="3.31847">
        <ele>327.240836</ele>
        <time>2022-02-24T15:18:12.000Z</time>
      </trkpt>
      <trkpt lat="43.57428" lon="3.31849">
        <ele>326.903382</ele>
        <time>2022-02-24T15:18:13.000Z</time>
      </trkpt>
      <trkpt lat="43.57429" lon="3.31853">
        <ele>326.527976</ele>
        <time>2022-02-24T15:18:14.000Z</time>
      </trkpt>
      <trkpt lat="43.5743" lon="3.31856">
        <ele>326.146849</ele>
        <time>2022-02-24T15:18:15.000Z</time>
      </trkpt>
      <trkpt lat="43.57431" lon="3.31859">
        <ele>325.73531</ele>
        <time>2022-02-24T15:18:16.000Z</time>
      </trkpt>
      <trkpt lat="43.57432" lon="3.31861">
        <ele>325.310145</ele>
        <time>2022-02-24T15:18:17.000Z</time>
      </trkpt>
      <trkpt lat="43.57434" lon="3.31864">
        <ele>324.91389</ele>
        <time>2022-02-24T15:18:18.000Z</time>
      </trkpt>
      <trkpt lat="43.57435" lon="3.31866">
        <ele>324.535995</ele>
        <time>2022-02-24T15:18:19.000Z</time>
      </trkpt>
      <trkpt lat="43.57436" lon="3.31869">
        <ele>324.188333</ele>
        <time>2022-02-24T15:18:20.000Z</time>
      </trkpt>
      <trkpt lat="43.57438" lon="3.31871">
        <ele>323.82937</ele>
        <time>2022-02-24T15:18:21.000Z</time>
      </trkpt>
      <trkpt lat="43.57439" lon="3.31874">
        <ele>323.460063</ele>
        <time>2022-02-24T15:18:22.000Z</time>
      </trkpt>
      <trkpt lat="43.5744" lon="3.31877">
        <ele>323.025475</ele>
        <time>2022-02-24T15:18:23.000Z</time>
      </trkpt>
      <trkpt lat="43.57442" lon="3.3188">
        <ele>322.619825</ele>
        <time>2022-02-24T15:18:24.000Z</time>
      </trkpt>
      <trkpt lat="43.57443" lon="3.31883">
        <ele>322.175384</ele>
        <time>2022-02-24T15:18:25.000Z</time>
      </trkpt>
      <trkpt lat="43.57445" lon="3.31886">
        <ele>321.671857</ele>
        <time>2022-02-24T15:18:26.000Z</time>
      </trkpt>
      <trkpt lat="43.57446" lon="3.3189">
        <ele>321.13487</ele>
        <time>2022-02-24T15:18:27.000Z</time>
      </trkpt>
      <trkpt lat="43.57448" lon="3.31896">
        <ele>320.408417</ele>
        <time>2022-02-24T15:18:29.000Z</time>
      </trkpt>
      <trkpt lat="43.5745" lon="3.31902">
        <ele>319.685408</ele>
        <time>2022-02-24T15:18:30.000Z</time>
      </trkpt>
      <trkpt lat="43.57452" lon="3.31909">
        <ele>318.805359</ele>
        <time>2022-02-24T15:18:31.000Z</time>
      </trkpt>
      <trkpt lat="43.57454" lon="3.31916">
        <ele>317.867219</ele>
        <time>2022-02-24T15:18:33.000Z</time>
      </trkpt>
      <trkpt lat="43.57456" lon="3.31922">
        <ele>316.983296</ele>
        <time>2022-02-24T15:18:34.000Z</time>
      </trkpt>
      <trkpt lat="43.57459" lon="3.31929">
        <ele>316.077768</ele>
        <time>2022-02-24T15:18:35.000Z</time>
      </trkpt>
      <trkpt lat="43.57461" lon="3.31936">
        <ele>315.183058</ele>
        <time>2022-02-24T15:18:36.000Z</time>
      </trkpt>
      <trkpt lat="43.57463" lon="3.31943">
        <ele>314.299136</ele>
        <time>2022-02-24T15:18:38.000Z</time>
      </trkpt>
      <trkpt lat="43.57465" lon="3.3195">
        <ele>313.404426</ele>
        <time>2022-02-24T15:18:39.000Z</time>
      </trkpt>
      <trkpt lat="43.57468" lon="3.31956">
        <ele>312.602697</ele>
        <time>2022-02-24T15:18:40.000Z</time>
      </trkpt>
      <trkpt lat="43.5747" lon="3.31962">
        <ele>311.803922</ele>
        <time>2022-02-24T15:18:41.000Z</time>
      </trkpt>
      <trkpt lat="43.57472" lon="3.31967">
        <ele>311.077472</ele>
        <time>2022-02-24T15:18:42.000Z</time>
      </trkpt>
      <trkpt lat="43.57474" lon="3.31973">
        <ele>310.351022</ele>
        <time>2022-02-24T15:18:44.000Z</time>
      </trkpt>
      <trkpt lat="43.57475" lon="3.31978">
        <ele>309.644414</ele>
        <time>2022-02-24T15:18:45.000Z</time>
      </trkpt>
      <trkpt lat="43.57477" lon="3.31983">
        <ele>308.977126</ele>
        <time>2022-02-24T15:18:46.000Z</time>
      </trkpt>
      <trkpt lat="43.57478" lon="3.31988">
        <ele>308.34293</ele>
        <time>2022-02-24T15:18:47.000Z</time>
      </trkpt>
      <trkpt lat="43.5748" lon="3.31993">
        <ele>307.686704</ele>
        <time>2022-02-24T15:18:48.000Z</time>
      </trkpt>
      <trkpt lat="43.57482" lon="3.31999">
        <ele>306.953021</ele>
        <time>2022-02-24T15:18:49.000Z</time>
      </trkpt>
      <trkpt lat="43.57484" lon="3.32004">
        <ele>306.204979</ele>
        <time>2022-02-24T15:18:51.000Z</time>
      </trkpt>
      <trkpt lat="43.57486" lon="3.3201">
        <ele>305.47853</ele>
        <time>2022-02-24T15:18:52.000Z</time>
      </trkpt>
      <trkpt lat="43.57488" lon="3.32016">
        <ele>304.719642</ele>
        <time>2022-02-24T15:18:53.000Z</time>
      </trkpt>
      <trkpt lat="43.5749" lon="3.32021">
        <ele>303.962526</ele>
        <time>2022-02-24T15:18:54.000Z</time>
      </trkpt>
      <trkpt lat="43.57492" lon="3.32026">
        <ele>303.268192</ele>
        <time>2022-02-24T15:18:55.000Z</time>
      </trkpt>
      <trkpt lat="43.57494" lon="3.32031">
        <ele>302.616083</ele>
        <time>2022-02-24T15:18:56.000Z</time>
      </trkpt>
      <trkpt lat="43.57496" lon="3.32036">
        <ele>301.995124</ele>
        <time>2022-02-24T15:18:57.000Z</time>
      </trkpt>
      <trkpt lat="43.57497" lon="3.3204">
        <ele>301.404792</ele>
        <time>2022-02-24T15:18:58.000Z</time>
      </trkpt>
      <trkpt lat="43.575" lon="3.32045">
        <ele>300.718687</ele>
        <time>2022-02-24T15:18:59.000Z</time>
      </trkpt>
      <trkpt lat="43.57502" lon="3.32049">
        <ele>300.097729</ele>
        <time>2022-02-24T15:19:00.000Z</time>
      </trkpt>
      <trkpt lat="43.57504" lon="3.32054">
        <ele>299.445621</ele>
        <time>2022-02-24T15:19:01.000Z</time>
      </trkpt>
      <trkpt lat="43.57505" lon="3.32059">
        <ele>298.80395</ele>
        <time>2022-02-24T15:19:02.000Z</time>
      </trkpt>
      <trkpt lat="43.57508" lon="3.32065">
        <ele>298.168036</ele>
        <time>2022-02-24T15:19:03.000Z</time>
      </trkpt>
      <trkpt lat="43.5751" lon="3.3207">
        <ele>297.729581</ele>
        <time>2022-02-24T15:19:05.000Z</time>
      </trkpt>
      <trkpt lat="43.57512" lon="3.32074">
        <ele>297.430711</ele>
        <time>2022-02-24T15:19:06.000Z</time>
      </trkpt>
      <trkpt lat="43.57513" lon="3.32076">
        <ele>297.22078</ele>
        <time>2022-02-24T15:19:07.000Z</time>
      </trkpt>
      <trkpt lat="43.57513" lon="3.32079">
        <ele>297.03459</ele>
        <time>2022-02-24T15:19:08.000Z</time>
      </trkpt>
      <trkpt lat="43.57514" lon="3.32081">
        <ele>296.837906</ele>
        <time>2022-02-24T15:19:09.000Z</time>
      </trkpt>
      <trkpt lat="43.57515" lon="3.32084">
        <ele>296.638292</ele>
        <time>2022-02-24T15:19:10.000Z</time>
      </trkpt>
      <trkpt lat="43.57516" lon="3.32087">
        <ele>296.387861</ele>
        <time>2022-02-24T15:19:12.000Z</time>
      </trkpt>
      <trkpt lat="43.57523" lon="3.32106">
        <ele>294.857339</ele>
        <time>2022-02-24T15:20:02.000Z</time>
      </trkpt>
      <trkpt lat="43.57523" lon="3.32116">
        <ele>294.116091</ele>
        <time>2022-02-24T15:20:04.000Z</time>
      </trkpt>
      <trkpt lat="43.57523" lon="3.32115">
        <ele>294.080108</ele>
        <time>2022-02-24T15:20:05.000Z</time>
      </trkpt>
      <trkpt lat="43.57524" lon="3.32115">
        <ele>294.039727</ele>
        <time>2022-02-24T15:20:06.000Z</time>
      </trkpt>
      <trkpt lat="43.57524" lon="3.32116">
        <ele>293.986122</ele>
        <time>2022-02-24T15:20:07.000Z</time>
      </trkpt>
      <trkpt lat="43.57525" lon="3.32117">
        <ele>293.910136</ele>
        <time>2022-02-24T15:20:08.000Z</time>
      </trkpt>
      <trkpt lat="43.57525" lon="3.32118">
        <ele>293.827929</ele>
        <time>2022-02-24T15:20:09.000Z</time>
      </trkpt>
      <trkpt lat="43.57525" lon="3.32119">
        <ele>293.736573</ele>
        <time>2022-02-24T15:20:10.000Z</time>
      </trkpt>
      <trkpt lat="43.57526" lon="3.3212">
        <ele>293.608252</ele>
        <time>2022-02-24T15:20:11.000Z</time>
      </trkpt>
      <trkpt lat="43.57526" lon="3.32122">
        <ele>293.486444</ele>
        <time>2022-02-24T15:20:12.000Z</time>
      </trkpt>
      <trkpt lat="43.57527" lon="3.32124">
        <ele>293.337128</ele>
        <time>2022-02-24T15:20:14.000Z</time>
      </trkpt>
      <trkpt lat="43.57527" lon="3.32126">
        <ele>293.208496</ele>
        <time>2022-02-24T15:20:16.000Z</time>
      </trkpt>
      <trkpt lat="43.57529" lon="3.32133">
        <ele>292.620764</ele>
        <time>2022-02-24T15:20:17.000Z</time>
      </trkpt>
      <trkpt lat="43.57529" lon="3.32137">
        <ele>292.338592</ele>
        <time>2022-02-24T15:20:18.000Z</time>
      </trkpt>
      <trkpt lat="43.5753" lon="3.3214">
        <ele>292.115274</ele>
        <time>2022-02-24T15:20:19.000Z</time>
      </trkpt>
      <trkpt lat="43.57531" lon="3.32143">
        <ele>291.91859</ele>
        <time>2022-02-24T15:20:20.000Z</time>
      </trkpt>
      <trkpt lat="43.57531" lon="3.32145">
        <ele>291.778645</ele>
        <time>2022-02-24T15:20:22.000Z</time>
      </trkpt>
      <trkpt lat="43.57533" lon="3.32153">
        <ele>291.176607</ele>
        <time>2022-02-24T15:20:23.000Z</time>
      </trkpt>
      <trkpt lat="43.57533" lon="3.32157">
        <ele>290.881548</ele>
        <time>2022-02-24T15:20:24.000Z</time>
      </trkpt>
      <trkpt lat="43.57533" lon="3.3216">
        <ele>290.651257</ele>
        <time>2022-02-24T15:20:25.000Z</time>
      </trkpt>
      <trkpt lat="43.57532" lon="3.32163">
        <ele>290.459974</ele>
        <time>2022-02-24T15:20:26.000Z</time>
      </trkpt>
      <trkpt lat="43.57532" lon="3.32165">
        <ele>290.272863</ele>
        <time>2022-02-24T15:20:27.000Z</time>
      </trkpt>
      <trkpt lat="43.57532" lon="3.32167">
        <ele>290.109629</ele>
        <time>2022-02-24T15:20:29.000Z</time>
      </trkpt>
      <trkpt lat="43.57531" lon="3.32179">
        <ele>289.307788</ele>
        <time>2022-02-24T15:20:31.000Z</time>
      </trkpt>
      <trkpt lat="43.57531" lon="3.32183">
        <ele>288.967223</ele>
        <time>2022-02-24T15:20:32.000Z</time>
      </trkpt>
      <trkpt lat="43.5753" lon="3.32187">
        <ele>288.668592</ele>
        <time>2022-02-24T15:20:33.000Z</time>
      </trkpt>
      <trkpt lat="43.57529" lon="3.3219">
        <ele>288.434899</ele>
        <time>2022-02-24T15:20:34.000Z</time>
      </trkpt>
      <trkpt lat="43.57529" lon="3.32193">
        <ele>288.23832</ele>
        <time>2022-02-24T15:20:35.000Z</time>
      </trkpt>
      <trkpt lat="43.57529" lon="3.32195">
        <ele>288.082055</ele>
        <time>2022-02-24T15:20:36.000Z</time>
      </trkpt>
      <trkpt lat="43.57528" lon="3.32197">
        <ele>287.953423</ele>
        <time>2022-02-24T15:20:38.000Z</time>
      </trkpt>
      <trkpt lat="43.57527" lon="3.32199">
        <ele>287.755087</ele>
        <time>2022-02-24T15:20:39.000Z</time>
      </trkpt>
      <trkpt lat="43.57526" lon="3.32202">
        <ele>287.545228</ele>
        <time>2022-02-24T15:20:40.000Z</time>
      </trkpt>
      <trkpt lat="43.57525" lon="3.32204">
        <ele>287.361618</ele>
        <time>2022-02-24T15:20:41.000Z</time>
      </trkpt>
      <trkpt lat="43.57525" lon="3.32207">
        <ele>287.160114</ele>
        <time>2022-02-24T15:20:42.000Z</time>
      </trkpt>
      <trkpt lat="43.57527" lon="3.32207">
        <ele>286.993384</ele>
        <time>2022-02-24T15:20:44.000Z</time>
      </trkpt>
      <trkpt lat="43.57529" lon="3.32206">
        <ele>286.772295</ele>
        <time>2022-02-24T15:20:45.000Z</time>
      </trkpt>
      <trkpt lat="43.57532" lon="3.32202">
        <ele>286.347833</ele>
        <time>2022-02-24T15:20:46.000Z</time>
      </trkpt>
      <trkpt lat="43.57534" lon="3.32198">
        <ele>286.018289</ele>
        <time>2022-02-24T15:20:48.000Z</time>
      </trkpt>
      <trkpt lat="43.5755" lon="3.32175">
        <ele>283.681682</ele>
        <time>2022-02-24T15:20:50.000Z</time>
      </trkpt>
      <trkpt lat="43.57554" lon="3.32171">
        <ele>283.194334</ele>
        <time>2022-02-24T15:20:52.000Z</time>
      </trkpt>
      <trkpt lat="43.57562" lon="3.3217">
        <ele>282.395715</ele>
        <time>2022-02-24T15:20:54.000Z</time>
      </trkpt>
      <trkpt lat="43.57564" lon="3.32172">
        <ele>282.150385</ele>
        <time>2022-02-24T15:20:55.000Z</time>
      </trkpt>
      <trkpt lat="43.57567" lon="3.32176">
        <ele>281.758257</ele>
        <time>2022-02-24T15:20:57.000Z</time>
      </trkpt>
      <trkpt lat="43.57568" lon="3.32177">
        <ele>281.606726</ele>
        <time>2022-02-24T15:21:00.000Z</time>
      </trkpt>
      <trkpt lat="43.57589" lon="3.32195">
        <ele>279.643158</ele>
        <time>2022-02-24T15:21:02.000Z</time>
      </trkpt>
      <trkpt lat="43.57593" lon="3.32194">
        <ele>279.41204</ele>
        <time>2022-02-24T15:21:04.000Z</time>
      </trkpt>
      <trkpt lat="43.57603" lon="3.3219">
        <ele>278.702075</ele>
        <time>2022-02-24T15:21:06.000Z</time>
      </trkpt>
      <trkpt lat="43.5762" lon="3.32182">
        <ele>277.54796</ele>
        <time>2022-02-24T15:21:08.000Z</time>
      </trkpt>
      <trkpt lat="43.57623" lon="3.3218">
        <ele>277.300214</ele>
        <time>2022-02-24T15:21:10.000Z</time>
      </trkpt>
      <trkpt lat="43.57639" lon="3.32169">
        <ele>276.144455</ele>
        <time>2022-02-24T15:21:12.000Z</time>
      </trkpt>
      <trkpt lat="43.57645" lon="3.32163">
        <ele>275.646371</ele>
        <time>2022-02-24T15:21:14.000Z</time>
      </trkpt>
      <trkpt lat="43.57647" lon="3.32162">
        <ele>275.482395</ele>
        <time>2022-02-24T15:21:16.000Z</time>
      </trkpt>
      <trkpt lat="43.5766" lon="3.32155">
        <ele>274.568518</ele>
        <time>2022-02-24T15:21:18.000Z</time>
      </trkpt>
      <trkpt lat="43.57682" lon="3.32145">
        <ele>273.029554</ele>
        <time>2022-02-24T15:21:20.000Z</time>
      </trkpt>
      <trkpt lat="43.57684" lon="3.32144">
        <ele>272.898495</ele>
        <time>2022-02-24T15:21:22.000Z</time>
      </trkpt>
      <trkpt lat="43.57707" lon="3.32135">
        <ele>271.322231</ele>
        <time>2022-02-24T15:21:24.000Z</time>
      </trkpt>
      <trkpt lat="43.5771" lon="3.32134">
        <ele>271.158255</ele>
        <time>2022-02-24T15:21:26.000Z</time>
      </trkpt>
      <trkpt lat="43.57722" lon="3.32124">
        <ele>270.20406</ele>
        <time>2022-02-24T15:21:28.000Z</time>
      </trkpt>
      <trkpt lat="43.57734" lon="3.32111">
        <ele>269.210945</ele>
        <time>2022-02-24T15:21:30.000Z</time>
      </trkpt>
      <trkpt lat="43.57744" lon="3.32098">
        <ele>268.524441</ele>
        <time>2022-02-24T15:21:32.000Z</time>
      </trkpt>
      <trkpt lat="43.57747" lon="3.32097">
        <ele>268.398063</ele>
        <time>2022-02-24T15:21:34.000Z</time>
      </trkpt>
      <trkpt lat="43.57748" lon="3.32098">
        <ele>268.369053</ele>
        <time>2022-02-24T15:21:36.000Z</time>
      </trkpt>
      <trkpt lat="43.57749" lon="3.32103">
        <ele>268.229858</ele>
        <time>2022-02-24T15:21:38.000Z</time>
      </trkpt>
      <trkpt lat="43.57748" lon="3.3211">
        <ele>268.06421</ele>
        <time>2022-02-24T15:21:39.000Z</time>
      </trkpt>
      <trkpt lat="43.57748" lon="3.32112">
        <ele>268.002997</ele>
        <time>2022-02-24T15:21:40.000Z</time>
      </trkpt>
      <trkpt lat="43.57748" lon="3.32114">
        <ele>267.942481</ele>
        <time>2022-02-24T15:21:41.000Z</time>
      </trkpt>
      <trkpt lat="43.57745" lon="3.32117">
        <ele>267.838838</ele>
        <time>2022-02-24T15:21:42.000Z</time>
      </trkpt>
      <trkpt lat="43.57742" lon="3.32122">
        <ele>267.654877</ele>
        <time>2022-02-24T15:21:44.000Z</time>
      </trkpt>
      <trkpt lat="43.57738" lon="3.32126">
        <ele>267.494239</ele>
        <time>2022-02-24T15:21:46.000Z</time>
      </trkpt>
      <trkpt lat="43.57723" lon="3.32143">
        <ele>266.802143</ele>
        <time>2022-02-24T15:21:48.000Z</time>
      </trkpt>
      <trkpt lat="43.57702" lon="3.32169">
        <ele>265.795483</ele>
        <time>2022-02-24T15:21:50.000Z</time>
      </trkpt>
      <trkpt lat="43.57694" lon="3.32179">
        <ele>265.422283</ele>
        <time>2022-02-24T15:21:52.000Z</time>
      </trkpt>
      <trkpt lat="43.57692" lon="3.32182">
        <ele>265.335272</ele>
        <time>2022-02-24T15:21:54.000Z</time>
      </trkpt>
      <trkpt lat="43.57687" lon="3.32202">
        <ele>264.796582</ele>
        <time>2022-02-24T15:21:56.000Z</time>
      </trkpt>
      <trkpt lat="43.57689" lon="3.32203">
        <ele>264.695906</ele>
        <time>2022-02-24T15:21:58.000Z</time>
      </trkpt>
      <trkpt lat="43.5769" lon="3.32202">
        <ele>264.655857</ele>
        <time>2022-02-24T15:22:00.000Z</time>
      </trkpt>
      <trkpt lat="43.57696" lon="3.32199">
        <ele>264.436216</ele>
        <time>2022-02-24T15:22:02.000Z</time>
      </trkpt>
      <trkpt lat="43.57705" lon="3.32193">
        <ele>264.100852</ele>
        <time>2022-02-24T15:22:04.000Z</time>
      </trkpt>
      <trkpt lat="43.57708" lon="3.32189">
        <ele>263.935647</ele>
        <time>2022-02-24T15:22:06.000Z</time>
      </trkpt>
      <trkpt lat="43.5771" lon="3.32188">
        <ele>263.884931</ele>
        <time>2022-02-24T15:22:08.000Z</time>
      </trkpt>
      <trkpt lat="43.57718" lon="3.32182">
        <ele>263.565594</ele>
        <time>2022-02-24T15:22:10.000Z</time>
      </trkpt>
      <trkpt lat="43.57734" lon="3.32171">
        <ele>262.933988</ele>
        <time>2022-02-24T15:22:12.000Z</time>
      </trkpt>
      <trkpt lat="43.5774" lon="3.32166">
        <ele>262.661953</ele>
        <time>2022-02-24T15:22:14.000Z</time>
      </trkpt>
      <trkpt lat="43.57742" lon="3.32164">
        <ele>262.584892</ele>
        <time>2022-02-24T15:22:16.000Z</time>
      </trkpt>
      <trkpt lat="43.57755" lon="3.32156">
        <ele>263.476903</ele>
        <time>2022-02-24T15:22:18.000Z</time>
      </trkpt>
      <trkpt lat="43.57772" lon="3.32146">
        <ele>265.549005</ele>
        <time>2022-02-24T15:22:20.000Z</time>
      </trkpt>
      <trkpt lat="43.57773" lon="3.32146">
        <ele>265.680983</ele>
        <time>2022-02-24T15:22:22.000Z</time>
      </trkpt>
      <trkpt lat="43.57781" lon="3.32143">
        <ele>266.669774</ele>
        <time>2022-02-24T15:22:24.000Z</time>
      </trkpt>
      <trkpt lat="43.57785" lon="3.32142">
        <ele>267.110624</ele>
        <time>2022-02-24T15:22:26.000Z</time>
      </trkpt>
      <trkpt lat="43.57786" lon="3.32141">
        <ele>267.253471</ele>
        <time>2022-02-24T15:22:28.000Z</time>
      </trkpt>
      <trkpt lat="43.57792" lon="3.32138">
        <ele>267.909447</ele>
        <time>2022-02-24T15:22:30.000Z</time>
      </trkpt>
      <trkpt lat="43.57797" lon="3.32134">
        <ele>268.572205</ele>
        <time>2022-02-24T15:22:32.000Z</time>
      </trkpt>
      <trkpt lat="43.57799" lon="3.3213">
        <ele>268.991877</ele>
        <time>2022-02-24T15:22:34.000Z</time>
      </trkpt>
      <trkpt lat="43.57802" lon="3.32125">
        <ele>269.567186</ele>
        <time>2022-02-24T15:22:36.000Z</time>
      </trkpt>
      <trkpt lat="43.57803" lon="3.32122">
        <ele>269.837435</ele>
        <time>2022-02-24T15:22:38.000Z</time>
      </trkpt>
      <trkpt lat="43.57804" lon="3.32121">
        <ele>269.904752</ele>
        <time>2022-02-24T15:22:40.000Z</time>
      </trkpt>
      <trkpt lat="43.57806" lon="3.32117">
        <ele>270.393521</ele>
        <time>2022-02-24T15:22:42.000Z</time>
      </trkpt>
      <trkpt lat="43.57809" lon="3.32109">
        <ele>271.079239</ele>
        <time>2022-02-24T15:22:44.000Z</time>
      </trkpt>
      <trkpt lat="43.5781" lon="3.32109">
        <ele>271.152843</ele>
        <time>2022-02-24T15:22:46.000Z</time>
      </trkpt>
      <trkpt lat="43.57812" lon="3.32105">
        <ele>271.554658</ele>
        <time>2022-02-24T15:22:48.000Z</time>
      </trkpt>
      <trkpt lat="43.57815" lon="3.32099">
        <ele>272.169814</ele>
        <time>2022-02-24T15:22:50.000Z</time>
      </trkpt>
      <trkpt lat="43.57815" lon="3.32098">
        <ele>272.23131</ele>
        <time>2022-02-24T15:22:52.000Z</time>
      </trkpt>
      <trkpt lat="43.57818" lon="3.32095">
        <ele>272.597188</ele>
        <time>2022-02-24T15:22:54.000Z</time>
      </trkpt>
      <trkpt lat="43.57821" lon="3.32093">
        <ele>272.972354</ele>
        <time>2022-02-24T15:22:56.000Z</time>
      </trkpt>
      <trkpt lat="43.57824" lon="3.3209">
        <ele>273.44858</ele>
        <time>2022-02-24T15:22:58.000Z</time>
      </trkpt>
      <trkpt lat="43.57825" lon="3.32089">
        <ele>273.57726</ele>
        <time>2022-02-24T15:23:15.000Z</time>
      </trkpt>
      <trkpt lat="43.57826" lon="3.32089">
        <ele>273.644577</ele>
        <time>2022-02-24T15:23:16.000Z</time>
      </trkpt>
      <trkpt lat="43.57826" lon="3.32088">
        <ele>273.692109</ele>
        <time>2022-02-24T15:23:17.000Z</time>
      </trkpt>
      <trkpt lat="43.57827" lon="3.32088">
        <ele>273.783278</ele>
        <time>2022-02-24T15:23:18.000Z</time>
      </trkpt>
      <trkpt lat="43.57827" lon="3.32088">
        <ele>273.828862</ele>
        <time>2022-02-24T15:23:20.000Z</time>
      </trkpt>
      <trkpt lat="43.57831" lon="3.32088">
        <ele>274.307782</ele>
        <time>2022-02-24T15:23:25.000Z</time>
      </trkpt>
      <trkpt lat="43.57832" lon="3.32088">
        <ele>274.391311</ele>
        <time>2022-02-24T15:23:26.000Z</time>
      </trkpt>
      <trkpt lat="43.57833" lon="3.32087">
        <ele>274.495067</ele>
        <time>2022-02-24T15:23:27.000Z</time>
      </trkpt>
      <trkpt lat="43.57834" lon="3.32086">
        <ele>274.659226</ele>
        <time>2022-02-24T15:23:28.000Z</time>
      </trkpt>
      <trkpt lat="43.57835" lon="3.32085">
        <ele>274.799662</ele>
        <time>2022-02-24T15:23:29.000Z</time>
      </trkpt>
      <trkpt lat="43.57835" lon="3.32083">
        <ele>274.974002</ele>
        <time>2022-02-24T15:23:30.000Z</time>
      </trkpt>
      <trkpt lat="43.57836" lon="3.32081">
        <ele>275.157376</ele>
        <time>2022-02-24T15:23:31.000Z</time>
      </trkpt>
      <trkpt lat="43.57837" lon="3.32078">
        <ele>275.404963</ele>
        <time>2022-02-24T15:23:33.000Z</time>
      </trkpt>
      <trkpt lat="43.57838" lon="3.32075">
        <ele>275.689941</ele>
        <time>2022-02-24T15:23:34.000Z</time>
      </trkpt>
      <trkpt lat="43.5784" lon="3.32071">
        <ele>276.059957</ele>
        <time>2022-02-24T15:23:36.000Z</time>
      </trkpt>
      <trkpt lat="43.57842" lon="3.32067">
        <ele>276.453964</ele>
        <time>2022-02-24T15:23:37.000Z</time>
      </trkpt>
      <trkpt lat="43.57843" lon="3.32063">
        <ele>276.855426</ele>
        <time>2022-02-24T15:23:38.000Z</time>
      </trkpt>
      <trkpt lat="43.57845" lon="3.32058">
        <ele>277.306995</ele>
        <time>2022-02-24T15:23:39.000Z</time>
      </trkpt>
      <trkpt lat="43.57847" lon="3.32053">
        <ele>277.809981</ele>
        <time>2022-02-24T15:23:41.000Z</time>
      </trkpt>
      <trkpt lat="43.5785" lon="3.32048">
        <ele>278.30594</ele>
        <time>2022-02-24T15:23:42.000Z</time>
      </trkpt>
      <trkpt lat="43.57852" lon="3.32042">
        <ele>278.808926</ele>
        <time>2022-02-24T15:23:44.000Z</time>
      </trkpt>
      <trkpt lat="43.57857" lon="3.32033">
        <ele>279.805385</ele>
        <time>2022-02-24T15:23:46.000Z</time>
      </trkpt>
      <trkpt lat="43.57859" lon="3.32029">
        <ele>280.214186</ele>
        <time>2022-02-24T15:23:47.000Z</time>
      </trkpt>
      <trkpt lat="43.57861" lon="3.32026">
        <ele>280.555763</ele>
        <time>2022-02-24T15:23:48.000Z</time>
      </trkpt>
      <trkpt lat="43.57863" lon="3.32023">
        <ele>280.878567</ele>
        <time>2022-02-24T15:23:49.000Z</time>
      </trkpt>
      <trkpt lat="43.57865" lon="3.3202">
        <ele>281.189322</ele>
        <time>2022-02-24T15:23:50.000Z</time>
      </trkpt>
      <trkpt lat="43.57867" lon="3.32018">
        <ele>281.488455</ele>
        <time>2022-02-24T15:23:51.000Z</time>
      </trkpt>
      <trkpt lat="43.5787" lon="3.32015">
        <ele>281.86362</ele>
        <time>2022-02-24T15:23:53.000Z</time>
      </trkpt>
      <trkpt lat="43.57872" lon="3.32013">
        <ele>282.177877</ele>
        <time>2022-02-24T15:23:54.000Z</time>
      </trkpt>
      <trkpt lat="43.57874" lon="3.32011">
        <ele>282.455258</ele>
        <time>2022-02-24T15:23:55.000Z</time>
      </trkpt>
      <trkpt lat="43.57876" lon="3.32009">
        <ele>282.778917</ele>
        <time>2022-02-24T15:23:57.000Z</time>
      </trkpt>
      <trkpt lat="43.57878" lon="3.32007">
        <ele>283.061481</ele>
        <time>2022-02-24T15:23:58.000Z</time>
      </trkpt>
      <trkpt lat="43.5788" lon="3.32005">
        <ele>283.338528</ele>
        <time>2022-02-24T15:23:59.000Z</time>
      </trkpt>
      <trkpt lat="43.57882" lon="3.32003">
        <ele>283.625946</ele>
        <time>2022-02-24T15:24:01.000Z</time>
      </trkpt>
      <trkpt lat="43.57884" lon="3.32001">
        <ele>283.898062</ele>
        <time>2022-02-24T15:24:02.000Z</time>
      </trkpt>
      <trkpt lat="43.57886" lon="3.31999">
        <ele>284.156525</ele>
        <time>2022-02-24T15:24:03.000Z</time>
      </trkpt>
      <trkpt lat="43.57888" lon="3.31998">
        <ele>284.414987</ele>
        <time>2022-02-24T15:24:04.000Z</time>
      </trkpt>
      <trkpt lat="43.57889" lon="3.31996">
        <ele>284.634221</ele>
        <time>2022-02-24T15:24:05.000Z</time>
      </trkpt>
      <trkpt lat="43.57891" lon="3.31995">
        <ele>284.884631</ele>
        <time>2022-02-24T15:24:06.000Z</time>
      </trkpt>
      <trkpt lat="43.57893" lon="3.31994">
        <ele>285.13504</ele>
        <time>2022-02-24T15:24:07.000Z</time>
      </trkpt>
      <trkpt lat="43.57895" lon="3.31993">
        <ele>285.378335</ele>
        <time>2022-02-24T15:24:08.000Z</time>
      </trkpt>
      <trkpt lat="43.57897" lon="3.31992">
        <ele>285.62163</ele>
        <time>2022-02-24T15:24:09.000Z</time>
      </trkpt>
      <trkpt lat="43.57898" lon="3.31991">
        <ele>285.8222</ele>
        <time>2022-02-24T15:24:10.000Z</time>
      </trkpt>
      <trkpt lat="43.579" lon="3.3199">
        <ele>286.018902</ele>
        <time>2022-02-24T15:24:11.000Z</time>
      </trkpt>
      <trkpt lat="43.57901" lon="3.31989">
        <ele>286.222922</ele>
        <time>2022-02-24T15:24:12.000Z</time>
      </trkpt>
      <trkpt lat="43.57903" lon="3.31988">
        <ele>286.41281</ele>
        <time>2022-02-24T15:24:13.000Z</time>
      </trkpt>
      <trkpt lat="43.57904" lon="3.31987">
        <ele>286.599785</ele>
        <time>2022-02-24T15:24:14.000Z</time>
      </trkpt>
      <trkpt lat="43.57906" lon="3.31986">
        <ele>286.797983</ele>
        <time>2022-02-24T15:24:16.000Z</time>
      </trkpt>
      <trkpt lat="43.57907" lon="3.31986">
        <ele>286.941014</ele>
        <time>2022-02-24T15:24:17.000Z</time>
      </trkpt>
      <trkpt lat="43.57908" lon="3.31985">
        <ele>287.096545</ele>
        <time>2022-02-24T15:24:18.000Z</time>
      </trkpt>
      <trkpt lat="43.57909" lon="3.31984">
        <ele>287.271522</ele>
        <time>2022-02-24T15:24:19.000Z</time>
      </trkpt>
      <trkpt lat="43.57911" lon="3.31982">
        <ele>287.4482</ele>
        <time>2022-02-24T15:24:21.000Z</time>
      </trkpt>
      <trkpt lat="43.57911" lon="3.31981">
        <ele>287.607539</ele>
        <time>2022-02-24T15:24:22.000Z</time>
      </trkpt>
      <trkpt lat="43.57912" lon="3.31979">
        <ele>287.773844</ele>
        <time>2022-02-24T15:24:23.000Z</time>
      </trkpt>
      <trkpt lat="43.57913" lon="3.31977">
        <ele>287.933737</ele>
        <time>2022-02-24T15:24:24.000Z</time>
      </trkpt>
      <trkpt lat="43.57914" lon="3.31976">
        <ele>288.149367</ele>
        <time>2022-02-24T15:24:26.000Z</time>
      </trkpt>
      <trkpt lat="43.57915" lon="3.31974">
        <ele>288.357427</ele>
        <time>2022-02-24T15:24:27.000Z</time>
      </trkpt>
      <trkpt lat="43.57916" lon="3.31971">
        <ele>288.586096</ele>
        <time>2022-02-24T15:24:29.000Z</time>
      </trkpt>
      <trkpt lat="43.57917" lon="3.31969">
        <ele>288.821674</ele>
        <time>2022-02-24T15:24:30.000Z</time>
      </trkpt>
      <trkpt lat="43.57919" lon="3.31967">
        <ele>289.050344</ele>
        <time>2022-02-24T15:24:31.000Z</time>
      </trkpt>
      <trkpt lat="43.5792" lon="3.31964">
        <ele>289.348743</ele>
        <time>2022-02-24T15:24:33.000Z</time>
      </trkpt>
      <trkpt lat="43.57922" lon="3.31962">
        <ele>289.646643</ele>
        <time>2022-02-24T15:24:34.000Z</time>
      </trkpt>
      <trkpt lat="43.57923" lon="3.31959">
        <ele>289.917796</ele>
        <time>2022-02-24T15:24:35.000Z</time>
      </trkpt>
      <trkpt lat="43.57924" lon="3.31957">
        <ele>290.133425</ele>
        <time>2022-02-24T15:24:36.000Z</time>
      </trkpt>
      <trkpt lat="43.57925" lon="3.31955">
        <ele>290.341485</ele>
        <time>2022-02-24T15:24:38.000Z</time>
      </trkpt>
      <trkpt lat="43.57926" lon="3.31954">
        <ele>290.49402</ele>
        <time>2022-02-24T15:24:39.000Z</time>
      </trkpt>
      <trkpt lat="43.57927" lon="3.31953">
        <ele>290.625815</ele>
        <time>2022-02-24T15:24:41.000Z</time>
      </trkpt>
      <trkpt lat="43.57928" lon="3.31951">
        <ele>290.771729</ele>
        <time>2022-02-24T15:24:42.000Z</time>
      </trkpt>
      <trkpt lat="43.57929" lon="3.3195">
        <ele>290.911234</ele>
        <time>2022-02-24T15:24:43.000Z</time>
      </trkpt>
      <trkpt lat="43.5793" lon="3.31949">
        <ele>291.082228</ele>
        <time>2022-02-24T15:24:44.000Z</time>
      </trkpt>
      <trkpt lat="43.57931" lon="3.31947">
        <ele>291.264812</ele>
        <time>2022-02-24T15:24:46.000Z</time>
      </trkpt>
      <trkpt lat="43.57932" lon="3.31946">
        <ele>291.467857</ele>
        <time>2022-02-24T15:24:48.000Z</time>
      </trkpt>
      <trkpt lat="43.57933" lon="3.31944">
        <ele>291.681672</ele>
        <time>2022-02-24T15:24:49.000Z</time>
      </trkpt>
      <trkpt lat="43.57935" lon="3.31943">
        <ele>291.886394</ele>
        <time>2022-02-24T15:24:50.000Z</time>
      </trkpt>
      <trkpt lat="43.57937" lon="3.31942">
        <ele>292.090414</ele>
        <time>2022-02-24T15:24:51.000Z</time>
      </trkpt>
      <trkpt lat="43.57938" lon="3.31941">
        <ele>292.280302</ele>
        <time>2022-02-24T15:24:52.000Z</time>
      </trkpt>
      <trkpt lat="43.5794" lon="3.31941">
        <ele>292.470189</ele>
        <time>2022-02-24T15:24:53.000Z</time>
      </trkpt>
      <trkpt lat="43.57941" lon="3.3194">
        <ele>292.660077</ele>
        <time>2022-02-24T15:24:54.000Z</time>
      </trkpt>
      <trkpt lat="43.57943" lon="3.31939">
        <ele>292.861025</ele>
        <time>2022-02-24T15:24:55.000Z</time>
      </trkpt>
      <trkpt lat="43.57944" lon="3.31938">
        <ele>293.000691</ele>
        <time>2022-02-24T15:24:56.000Z</time>
      </trkpt>
      <trkpt lat="43.57945" lon="3.31938">
        <ele>293.190578</ele>
        <time>2022-02-24T15:24:58.000Z</time>
      </trkpt>
      <trkpt lat="43.57947" lon="3.31937">
        <ele>293.388776</ele>
        <time>2022-02-24T15:24:59.000Z</time>
      </trkpt>
      <trkpt lat="43.57948" lon="3.31936">
        <ele>293.531807</ele>
        <time>2022-02-24T15:25:00.000Z</time>
      </trkpt>
      <trkpt lat="43.57949" lon="3.31936">
        <ele>293.685642</ele>
        <time>2022-02-24T15:25:01.000Z</time>
      </trkpt>
      <trkpt lat="43.5795" lon="3.31935">
        <ele>293.825308</ele>
        <time>2022-02-24T15:25:02.000Z</time>
      </trkpt>
      <trkpt lat="43.57951" lon="3.31934">
        <ele>293.968339</ele>
        <time>2022-02-24T15:25:03.000Z</time>
      </trkpt>
      <trkpt lat="43.57953" lon="3.31934">
        <ele>294.164122</ele>
        <time>2022-02-24T15:25:04.000Z</time>
      </trkpt>
      <trkpt lat="43.57954" lon="3.31933">
        <ele>294.357257</ele>
        <time>2022-02-24T15:25:05.000Z</time>
      </trkpt>
      <trkpt lat="43.57956" lon="3.31932">
        <ele>294.59446</ele>
        <time>2022-02-24T15:25:07.000Z</time>
      </trkpt>
      <trkpt lat="43.57958" lon="3.31931">
        <ele>294.787595</ele>
        <time>2022-02-24T15:25:08.000Z</time>
      </trkpt>
      <trkpt lat="43.57959" lon="3.3193">
        <ele>294.935612</ele>
        <time>2022-02-24T15:25:09.000Z</time>
      </trkpt>
      <trkpt lat="43.57961" lon="3.31929">
        <ele>295.229092</ele>
        <time>2022-02-24T15:25:11.000Z</time>
      </trkpt>
      <trkpt lat="43.57962" lon="3.31928">
        <ele>295.372123</ele>
        <time>2022-02-24T15:25:13.000Z</time>
      </trkpt>
      <trkpt lat="43.57964" lon="3.31928">
        <ele>295.522833</ele>
        <time>2022-02-24T15:25:14.000Z</time>
      </trkpt>
      <trkpt lat="43.57965" lon="3.31927">
        <ele>295.665864</ele>
        <time>2022-02-24T15:25:15.000Z</time>
      </trkpt>
      <trkpt lat="43.57966" lon="3.31926">
        <ele>295.808895</ele>
        <time>2022-02-24T15:25:16.000Z</time>
      </trkpt>
      <trkpt lat="43.57967" lon="3.31926">
        <ele>296.009843</ele>
        <time>2022-02-24T15:25:18.000Z</time>
      </trkpt>
      <trkpt lat="43.57968" lon="3.31925">
        <ele>296.099304</ele>
        <time>2022-02-24T15:25:20.000Z</time>
      </trkpt>
      <trkpt lat="43.57973" lon="3.31922">
        <ele>296.696461</ele>
        <time>2022-02-24T15:25:21.000Z</time>
      </trkpt>
      <trkpt lat="43.57974" lon="3.31922">
        <ele>296.886349</ele>
        <time>2022-02-24T15:25:22.000Z</time>
      </trkpt>
      <trkpt lat="43.57976" lon="3.31921">
        <ele>297.084546</ele>
        <time>2022-02-24T15:25:24.000Z</time>
      </trkpt>
      <trkpt lat="43.57977" lon="3.3192">
        <ele>297.266764</ele>
        <time>2022-02-24T15:25:25.000Z</time>
      </trkpt>
      <trkpt lat="43.57978" lon="3.3192">
        <ele>297.399168</ele>
        <time>2022-02-24T15:25:26.000Z</time>
      </trkpt>
      <trkpt lat="43.5798" lon="3.3192">
        <ele>297.588298</ele>
        <time>2022-02-24T15:25:28.000Z</time>
      </trkpt>
      <trkpt lat="43.57982" lon="3.3192">
        <ele>297.848084</ele>
        <time>2022-02-24T15:25:29.000Z</time>
      </trkpt>
      <trkpt lat="43.57985" lon="3.3192">
        <ele>298.120889</ele>
        <time>2022-02-24T15:25:30.000Z</time>
      </trkpt>
      <trkpt lat="43.57987" lon="3.31919">
        <ele>298.395831</ele>
        <time>2022-02-24T15:25:32.000Z</time>
      </trkpt>
      <trkpt lat="43.57989" lon="3.31918">
        <ele>298.673949</ele>
        <time>2022-02-24T15:25:33.000Z</time>
      </trkpt>
      <trkpt lat="43.57991" lon="3.31918">
        <ele>298.908515</ele>
        <time>2022-02-24T15:25:34.000Z</time>
      </trkpt>
      <trkpt lat="43.57993" lon="3.31917">
        <ele>299.143081</ele>
        <time>2022-02-24T15:25:35.000Z</time>
      </trkpt>
      <trkpt lat="43.57995" lon="3.31916">
        <ele>299.375295</ele>
        <time>2022-02-24T15:25:37.000Z</time>
      </trkpt>
      <trkpt lat="43.57997" lon="3.31915">
        <ele>299.609861</ele>
        <time>2022-02-24T15:25:38.000Z</time>
      </trkpt>
      <trkpt lat="43.57998" lon="3.31915">
        <ele>299.808058</ele>
        <time>2022-02-24T15:25:39.000Z</time>
      </trkpt>
      <trkpt lat="43.58" lon="3.31914">
        <ele>299.98601</ele>
        <time>2022-02-24T15:25:40.000Z</time>
      </trkpt>
      <trkpt lat="43.58001" lon="3.31915">
        <ele>300.120334</ele>
        <time>2022-02-24T15:25:41.000Z</time>
      </trkpt>
      <trkpt lat="43.58002" lon="3.31916">
        <ele>300.277696</ele>
        <time>2022-02-24T15:25:42.000Z</time>
      </trkpt>
      <trkpt lat="43.58003" lon="3.31917">
        <ele>300.414427</ele>
        <time>2022-02-24T15:25:43.000Z</time>
      </trkpt>
      <trkpt lat="43.58003" lon="3.31919">
        <ele>300.559848</ele>
        <time>2022-02-24T15:25:45.000Z</time>
      </trkpt>
      <trkpt lat="43.58002" lon="3.31921">
        <ele>300.737333</ele>
        <time>2022-02-24T15:25:46.000Z</time>
      </trkpt>
      <trkpt lat="43.58002" lon="3.31923">
        <ele>300.906587</ele>
        <time>2022-02-24T15:25:47.000Z</time>
      </trkpt>
      <trkpt lat="43.58001" lon="3.31925">
        <ele>301.067645</ele>
        <time>2022-02-24T15:25:48.000Z</time>
      </trkpt>
      <trkpt lat="43.58001" lon="3.31927">
        <ele>301.253389</ele>
        <time>2022-02-24T15:25:49.000Z</time>
      </trkpt>
      <trkpt lat="43.58001" lon="3.31928">
        <ele>301.3701</ele>
        <time>2022-02-24T15:25:52.000Z</time>
      </trkpt>
      <trkpt lat="43.57999" lon="3.31935">
        <ele>302.013786</ele>
        <time>2022-02-24T15:25:53.000Z</time>
      </trkpt>
      <trkpt lat="43.57998" lon="3.31937">
        <ele>302.235103</ele>
        <time>2022-02-24T15:25:54.000Z</time>
      </trkpt>
      <trkpt lat="43.57997" lon="3.31939">
        <ele>302.415749</ele>
        <time>2022-02-24T15:25:56.000Z</time>
      </trkpt>
      <trkpt lat="43.57997" lon="3.31941">
        <ele>302.560537</ele>
        <time>2022-02-24T15:25:57.000Z</time>
      </trkpt>
      <trkpt lat="43.57996" lon="3.31942">
        <ele>302.693651</ele>
        <time>2022-02-24T15:25:58.000Z</time>
      </trkpt>
      <trkpt lat="43.57996" lon="3.31944">
        <ele>302.830382</ele>
        <time>2022-02-24T15:25:59.000Z</time>
      </trkpt>
      <trkpt lat="43.57996" lon="3.31945">
        <ele>302.97517</ele>
        <time>2022-02-24T15:26:00.000Z</time>
      </trkpt>
      <trkpt lat="43.57995" lon="3.31947">
        <ele>303.128071</ele>
        <time>2022-02-24T15:26:01.000Z</time>
      </trkpt>
      <trkpt lat="43.57995" lon="3.31949">
        <ele>303.289129</ele>
        <time>2022-02-24T15:26:03.000Z</time>
      </trkpt>
      <trkpt lat="43.57995" lon="3.31951">
        <ele>303.472227</ele>
        <time>2022-02-24T15:26:04.000Z</time>
      </trkpt>
      <trkpt lat="43.57994" lon="3.31953">
        <ele>303.657972</ele>
        <time>2022-02-24T15:26:05.000Z</time>
      </trkpt>
      <trkpt lat="43.57994" lon="3.31955">
        <ele>303.835457</ele>
        <time>2022-02-24T15:26:06.000Z</time>
      </trkpt>
      <trkpt lat="43.57993" lon="3.31958">
        <ele>304.100907</ele>
        <time>2022-02-24T15:26:07.000Z</time>
      </trkpt>
      <trkpt lat="43.57993" lon="3.3196">
        <ele>304.28348</ele>
        <time>2022-02-24T15:26:08.000Z</time>
      </trkpt>
      <trkpt lat="43.57993" lon="3.31962">
        <ele>304.475582</ele>
        <time>2022-02-24T15:26:09.000Z</time>
      </trkpt>
      <trkpt lat="43.57993" lon="3.31964">
        <ele>304.634274</ele>
        <time>2022-02-24T15:26:10.000Z</time>
      </trkpt>
      <trkpt lat="43.57993" lon="3.31966">
        <ele>304.801319</ele>
        <time>2022-02-24T15:26:11.000Z</time>
      </trkpt>
      <trkpt lat="43.57993" lon="3.31968">
        <ele>304.926602</ele>
        <time>2022-02-24T15:26:12.000Z</time>
      </trkpt>
      <trkpt lat="43.57993" lon="3.31969">
        <ele>305.051885</ele>
        <time>2022-02-24T15:26:14.000Z</time>
      </trkpt>
      <trkpt lat="43.57993" lon="3.31971">
        <ele>305.185521</ele>
        <time>2022-02-24T15:26:15.000Z</time>
      </trkpt>
      <trkpt lat="43.57993" lon="3.31972">
        <ele>305.319157</ele>
        <time>2022-02-24T15:26:16.000Z</time>
      </trkpt>
      <trkpt lat="43.57993" lon="3.31974">
        <ele>305.452793</ele>
        <time>2022-02-24T15:26:17.000Z</time>
      </trkpt>
      <trkpt lat="43.57993" lon="3.31976">
        <ele>305.626087</ele>
        <time>2022-02-24T15:26:18.000Z</time>
      </trkpt>
      <trkpt lat="43.57993" lon="3.31978">
        <ele>305.823646</ele>
        <time>2022-02-24T15:26:19.000Z</time>
      </trkpt>
      <trkpt lat="43.57994" lon="3.31981">
        <ele>306.045647</ele>
        <time>2022-02-24T15:26:21.000Z</time>
      </trkpt>
      <trkpt lat="43.57994" lon="3.31984">
        <ele>306.262805</ele>
        <time>2022-02-24T15:26:22.000Z</time>
      </trkpt>
      <trkpt lat="43.57994" lon="3.31986">
        <ele>306.501172</ele>
        <time>2022-02-24T15:26:23.000Z</time>
      </trkpt>
      <trkpt lat="43.57995" lon="3.31989">
        <ele>306.723173</ele>
        <time>2022-02-24T15:26:24.000Z</time>
      </trkpt>
      <trkpt lat="43.57995" lon="3.31992">
        <ele>306.943068</ele>
        <time>2022-02-24T15:26:25.000Z</time>
      </trkpt>
      <trkpt lat="43.57995" lon="3.31994">
        <ele>307.173246</ele>
        <time>2022-02-24T15:26:26.000Z</time>
      </trkpt>
      <trkpt lat="43.57996" lon="3.31997">
        <ele>307.428022</ele>
        <time>2022-02-24T15:26:27.000Z</time>
      </trkpt>
      <trkpt lat="43.57996" lon="3.32001">
        <ele>307.72035</ele>
        <time>2022-02-24T15:26:29.000Z</time>
      </trkpt>
      <trkpt lat="43.57996" lon="3.32004">
        <ele>307.999805</ele>
        <time>2022-02-24T15:26:30.000Z</time>
      </trkpt>
      <trkpt lat="43.57996" lon="3.32007">
        <ele>308.258724</ele>
        <time>2022-02-24T15:26:32.000Z</time>
      </trkpt>
      <trkpt lat="43.57996" lon="3.3201">
        <ele>308.484234</ele>
        <time>2022-02-24T15:26:33.000Z</time>
      </trkpt>
      <trkpt lat="43.57996" lon="3.32012">
        <ele>308.69304</ele>
        <time>2022-02-24T15:26:34.000Z</time>
      </trkpt>
      <trkpt lat="43.57996" lon="3.32015">
        <ele>308.893493</ele>
        <time>2022-02-24T15:26:35.000Z</time>
      </trkpt>
      <trkpt lat="43.57996" lon="3.32017">
        <ele>309.099183</ele>
        <time>2022-02-24T15:26:36.000Z</time>
      </trkpt>
      <trkpt lat="43.57995" lon="3.3202">
        <ele>309.321184</ele>
        <time>2022-02-24T15:26:38.000Z</time>
      </trkpt>
      <trkpt lat="43.57995" lon="3.32022">
        <ele>309.552855</ele>
        <time>2022-02-24T15:26:39.000Z</time>
      </trkpt>
      <trkpt lat="43.57994" lon="3.32025">
        <ele>309.78879</ele>
        <time>2022-02-24T15:26:40.000Z</time>
      </trkpt>
      <trkpt lat="43.57993" lon="3.32027">
        <ele>310.017061</ele>
        <time>2022-02-24T15:26:41.000Z</time>
      </trkpt>
      <trkpt lat="43.57992" lon="3.3203">
        <ele>310.248731</ele>
        <time>2022-02-24T15:26:42.000Z</time>
      </trkpt>
      <trkpt lat="43.57991" lon="3.32033">
        <ele>310.492376</ele>
        <time>2022-02-24T15:26:43.000Z</time>
      </trkpt>
      <trkpt lat="43.57991" lon="3.32036">
        <ele>310.743771</ele>
        <time>2022-02-24T15:26:44.000Z</time>
      </trkpt>
      <trkpt lat="43.5799" lon="3.32038">
        <ele>310.971918</ele>
        <time>2022-02-24T15:26:45.000Z</time>
      </trkpt>
      <trkpt lat="43.5799" lon="3.3204">
        <ele>311.155667</ele>
        <time>2022-02-24T15:26:46.000Z</time>
      </trkpt>
      <trkpt lat="43.57991" lon="3.32042">
        <ele>311.253837</ele>
        <time>2022-02-24T15:26:47.000Z</time>
      </trkpt>
      <trkpt lat="43.57991" lon="3.32042">
        <ele>311.306323</ele>
        <time>2022-02-24T15:26:48.000Z</time>
      </trkpt>
      <trkpt lat="43.57991" lon="3.32041">
        <ele>311.374428</ele>
        <time>2022-02-24T15:26:50.000Z</time>
      </trkpt>
      <trkpt lat="43.57993" lon="3.32041">
        <ele>311.514081</ele>
        <time>2022-02-24T15:26:52.000Z</time>
      </trkpt>
      <trkpt lat="43.57994" lon="3.32039">
        <ele>311.720168</ele>
        <time>2022-02-24T15:26:53.000Z</time>
      </trkpt>
      <trkpt lat="43.57996" lon="3.32038">
        <ele>311.916002</ele>
        <time>2022-02-24T15:26:54.000Z</time>
      </trkpt>
      <trkpt lat="43.57997" lon="3.32037">
        <ele>312.111835</ele>
        <time>2022-02-24T15:26:56.000Z</time>
      </trkpt>
      <trkpt lat="43.57998" lon="3.32036">
        <ele>312.277917</ele>
        <time>2022-02-24T15:26:57.000Z</time>
      </trkpt>
      <trkpt lat="43.58" lon="3.32035">
        <ele>312.477805</ele>
        <time>2022-02-24T15:26:58.000Z</time>
      </trkpt>
      <trkpt lat="43.58001" lon="3.32033">
        <ele>312.696365</ele>
        <time>2022-02-24T15:27:00.000Z</time>
      </trkpt>
      <trkpt lat="43.58003" lon="3.32031">
        <ele>312.966868</ele>
        <time>2022-02-24T15:27:01.000Z</time>
      </trkpt>
      <trkpt lat="43.58005" lon="3.32029">
        <ele>313.247497</ele>
        <time>2022-02-24T15:27:02.000Z</time>
      </trkpt>
      <trkpt lat="43.58007" lon="3.32027">
        <ele>313.565436</ele>
        <time>2022-02-24T15:27:04.000Z</time>
      </trkpt>
      <trkpt lat="43.58011" lon="3.32023">
        <ele>314.106442</ele>
        <time>2022-02-24T15:27:06.000Z</time>
      </trkpt>
      <trkpt lat="43.58013" lon="3.32021">
        <ele>314.381928</ele>
        <time>2022-02-24T15:27:07.000Z</time>
      </trkpt>
      <trkpt lat="43.58015" lon="3.3202">
        <ele>314.625267</ele>
        <time>2022-02-24T15:27:08.000Z</time>
      </trkpt>
      <trkpt lat="43.58017" lon="3.32018">
        <ele>314.900753</ele>
        <time>2022-02-24T15:27:10.000Z</time>
      </trkpt>
      <trkpt lat="43.58018" lon="3.32016">
        <ele>315.05736</ele>
        <time>2022-02-24T15:27:12.000Z</time>
      </trkpt>
      <trkpt lat="43.58023" lon="3.32012">
        <ele>315.793383</ele>
        <time>2022-02-24T15:27:14.000Z</time>
      </trkpt>
      <trkpt lat="43.58026" lon="3.3201">
        <ele>316.140696</ele>
        <time>2022-02-24T15:27:15.000Z</time>
      </trkpt>
      <trkpt lat="43.58028" lon="3.32008">
        <ele>316.389013</ele>
        <time>2022-02-24T15:27:16.000Z</time>
      </trkpt>
      <trkpt lat="43.5803" lon="3.32006">
        <ele>316.654702</ele>
        <time>2022-02-24T15:27:18.000Z</time>
      </trkpt>
      <trkpt lat="43.58031" lon="3.32005">
        <ele>316.868758</ele>
        <time>2022-02-24T15:27:19.000Z</time>
      </trkpt>
      <trkpt lat="43.58033" lon="3.32004">
        <ele>317.068646</ele>
        <time>2022-02-24T15:27:20.000Z</time>
      </trkpt>
      <trkpt lat="43.58034" lon="3.32003">
        <ele>317.260703</ele>
        <time>2022-02-24T15:27:21.000Z</time>
      </trkpt>
      <trkpt lat="43.58036" lon="3.32002">
        <ele>317.443262</ele>
        <time>2022-02-24T15:27:22.000Z</time>
      </trkpt>
      <trkpt lat="43.58038" lon="3.32001">
        <ele>317.683341</ele>
        <time>2022-02-24T15:27:24.000Z</time>
      </trkpt>
      <trkpt lat="43.5804" lon="3.32001">
        <ele>317.910072</ele>
        <time>2022-02-24T15:27:25.000Z</time>
      </trkpt>
      <trkpt lat="43.58042" lon="3.32">
        <ele>318.179947</ele>
        <time>2022-02-24T15:27:26.000Z</time>
      </trkpt>
      <trkpt lat="43.58044" lon="3.32">
        <ele>318.401543</ele>
        <time>2022-02-24T15:27:27.000Z</time>
      </trkpt>
      <trkpt lat="43.58046" lon="3.32">
        <ele>318.621243</ele>
        <time>2022-02-24T15:27:28.000Z</time>
      </trkpt>
      <trkpt lat="43.58047" lon="3.32">
        <ele>318.794187</ele>
        <time>2022-02-24T15:27:29.000Z</time>
      </trkpt>
      <trkpt lat="43.58049" lon="3.32">
        <ele>319.06055</ele>
        <time>2022-02-24T15:27:31.000Z</time>
      </trkpt>
      <trkpt lat="43.58051" lon="3.32">
        <ele>319.282146</ele>
        <time>2022-02-24T15:27:32.000Z</time>
      </trkpt>
      <trkpt lat="43.58054" lon="3.32001">
        <ele>319.550596</ele>
        <time>2022-02-24T15:27:33.000Z</time>
      </trkpt>
      <trkpt lat="43.58056" lon="3.32001">
        <ele>319.854527</ele>
        <time>2022-02-24T15:27:35.000Z</time>
      </trkpt>
      <trkpt lat="43.58059" lon="3.32002">
        <ele>320.126077</ele>
        <time>2022-02-24T15:27:36.000Z</time>
      </trkpt>
      <trkpt lat="43.58061" lon="3.32003">
        <ele>320.399548</ele>
        <time>2022-02-24T15:27:37.000Z</time>
      </trkpt>
      <trkpt lat="43.58063" lon="3.32004">
        <ele>320.673018</ele>
        <time>2022-02-24T15:27:38.000Z</time>
      </trkpt>
      <trkpt lat="43.58066" lon="3.32005">
        <ele>320.993265</ele>
        <time>2022-02-24T15:27:39.000Z</time>
      </trkpt>
      <trkpt lat="43.58069" lon="3.32005">
        <ele>321.311656</ele>
        <time>2022-02-24T15:27:40.000Z</time>
      </trkpt>
      <trkpt lat="43.5807" lon="3.32006">
        <ele>321.491714</ele>
        <time>2022-02-24T15:27:42.000Z</time>
      </trkpt>
      <trkpt lat="43.58078" lon="3.32009">
        <ele>322.492092</ele>
        <time>2022-02-24T15:27:43.000Z</time>
      </trkpt>
      <trkpt lat="43.58081" lon="3.3201">
        <ele>322.854623</ele>
        <time>2022-02-24T15:27:44.000Z</time>
      </trkpt>
      <trkpt lat="43.58084" lon="3.32011">
        <ele>323.179197</ele>
        <time>2022-02-24T15:27:46.000Z</time>
      </trkpt>
      <trkpt lat="43.58087" lon="3.32012">
        <ele>323.497588</ele>
        <time>2022-02-24T15:27:47.000Z</time>
      </trkpt>
      <trkpt lat="43.58089" lon="3.32013">
        <ele>323.771058</ele>
        <time>2022-02-24T15:27:48.000Z</time>
      </trkpt>
      <trkpt lat="43.58091" lon="3.32013">
        <ele>324.028125</ele>
        <time>2022-02-24T15:27:49.000Z</time>
      </trkpt>
      <trkpt lat="43.58094" lon="3.32014">
        <ele>324.295403</ele>
        <time>2022-02-24T15:27:50.000Z</time>
      </trkpt>
      <trkpt lat="43.58096" lon="3.32014">
        <ele>324.561766</ele>
        <time>2022-02-24T15:27:51.000Z</time>
      </trkpt>
      <trkpt lat="43.58098" lon="3.32014">
        <ele>324.828129</ele>
        <time>2022-02-24T15:27:52.000Z</time>
      </trkpt>
      <trkpt lat="43.581" lon="3.32014">
        <ele>324.957893</ele>
        <time>2022-02-24T15:27:54.000Z</time>
      </trkpt>
      <trkpt lat="43.58107" lon="3.32015">
        <ele>325.444075</ele>
        <time>2022-02-24T15:27:55.000Z</time>
      </trkpt>
      <trkpt lat="43.5811" lon="3.32014">
        <ele>325.662552</ele>
        <time>2022-02-24T15:27:56.000Z</time>
      </trkpt>
      <trkpt lat="43.58111" lon="3.32014">
        <ele>325.769341</ele>
        <time>2022-02-24T15:27:58.000Z</time>
      </trkpt>
      <trkpt lat="43.58119" lon="3.32013">
        <ele>326.307244</ele>
        <time>2022-02-24T15:28:00.000Z</time>
      </trkpt>
      <trkpt lat="43.58122" lon="3.32013">
        <ele>326.548748</ele>
        <time>2022-02-24T15:28:02.000Z</time>
      </trkpt>
      <trkpt lat="43.58125" lon="3.32012">
        <ele>326.742308</ele>
        <time>2022-02-24T15:28:03.000Z</time>
      </trkpt>
      <trkpt lat="43.58127" lon="3.32011">
        <ele>326.878588</ele>
        <time>2022-02-24T15:28:06.000Z</time>
      </trkpt>
      <trkpt lat="43.58134" lon="3.32009">
        <ele>327.411067</ele>
        <time>2022-02-24T15:28:07.000Z</time>
      </trkpt>
      <trkpt lat="43.58137" lon="3.32007">
        <ele>327.634189</ele>
        <time>2022-02-24T15:28:09.000Z</time>
      </trkpt>
      <trkpt lat="43.58139" lon="3.32006">
        <ele>327.774147</ele>
        <time>2022-02-24T15:28:10.000Z</time>
      </trkpt>
      <trkpt lat="43.58141" lon="3.32007">
        <ele>327.886994</ele>
        <time>2022-02-24T15:28:11.000Z</time>
      </trkpt>
      <trkpt lat="43.58142" lon="3.32008">
        <ele>328.009144</ele>
        <time>2022-02-24T15:28:13.000Z</time>
      </trkpt>
      <trkpt lat="43.58143" lon="3.32009">
        <ele>328.108948</ele>
        <time>2022-02-24T15:28:14.000Z</time>
      </trkpt>
      <trkpt lat="43.58143" lon="3.32011">
        <ele>328.198252</ele>
        <time>2022-02-24T15:28:15.000Z</time>
      </trkpt>
      <trkpt lat="43.58142" lon="3.32013">
        <ele>328.293322</ele>
        <time>2022-02-24T15:28:16.000Z</time>
      </trkpt>
      <trkpt lat="43.5814" lon="3.32014">
        <ele>328.420896</ele>
        <time>2022-02-24T15:28:17.000Z</time>
      </trkpt>
      <trkpt lat="43.58138" lon="3.32015">
        <ele>328.56811</ele>
        <time>2022-02-24T15:28:19.000Z</time>
      </trkpt>
      <trkpt lat="43.58136" lon="3.32016">
        <ele>328.766456</ele>
        <time>2022-02-24T15:28:20.000Z</time>
      </trkpt>
      <trkpt lat="43.58133" lon="3.32018">
        <ele>328.969668</ele>
        <time>2022-02-24T15:28:21.000Z</time>
      </trkpt>
      <trkpt lat="43.58129" lon="3.3202">
        <ele>329.259998</ele>
        <time>2022-02-24T15:28:23.000Z</time>
      </trkpt>
      <trkpt lat="43.58126" lon="3.32022">
        <ele>329.529054</ele>
        <time>2022-02-24T15:28:24.000Z</time>
      </trkpt>
      <trkpt lat="43.58122" lon="3.32025">
        <ele>329.804402</ele>
        <time>2022-02-24T15:28:26.000Z</time>
      </trkpt>
      <trkpt lat="43.58119" lon="3.32027">
        <ele>330.071173</ele>
        <time>2022-02-24T15:28:27.000Z</time>
      </trkpt>
      <trkpt lat="43.58115" lon="3.32029">
        <ele>330.340229</ele>
        <time>2022-02-24T15:28:28.000Z</time>
      </trkpt>
      <trkpt lat="43.58112" lon="3.32032">
        <ele>330.613345</ele>
        <time>2022-02-24T15:28:29.000Z</time>
      </trkpt>
      <trkpt lat="43.58108" lon="3.32034">
        <ele>330.905687</ele>
        <time>2022-02-24T15:28:31.000Z</time>
      </trkpt>
      <trkpt lat="43.58104" lon="3.32036">
        <ele>331.196017</ele>
        <time>2022-02-24T15:28:32.000Z</time>
      </trkpt>
      <trkpt lat="43.58101" lon="3.32038">
        <ele>331.482554</ele>
        <time>2022-02-24T15:28:33.000Z</time>
      </trkpt>
      <trkpt lat="43.58098" lon="3.3204">
        <ele>331.657663</ele>
        <time>2022-02-24T15:28:36.000Z</time>
      </trkpt>
      <trkpt lat="43.58086" lon="3.32046">
        <ele>332.543665</ele>
        <time>2022-02-24T15:28:37.000Z</time>
      </trkpt>
      <trkpt lat="43.58081" lon="3.32048">
        <ele>332.943367</ele>
        <time>2022-02-24T15:28:38.000Z</time>
      </trkpt>
      <trkpt lat="43.58077" lon="3.3205">
        <ele>333.231762</ele>
        <time>2022-02-24T15:28:39.000Z</time>
      </trkpt>
      <trkpt lat="43.58073" lon="3.32052">
        <ele>333.520157</ele>
        <time>2022-02-24T15:28:41.000Z</time>
      </trkpt>
      <trkpt lat="43.5807" lon="3.32054">
        <ele>333.786928</ele>
        <time>2022-02-24T15:28:42.000Z</time>
      </trkpt>
      <trkpt lat="43.58067" lon="3.32057">
        <ele>334.064585</ele>
        <time>2022-02-24T15:28:43.000Z</time>
      </trkpt>
      <trkpt lat="43.58064" lon="3.3206">
        <ele>334.319735</ele>
        <time>2022-02-24T15:28:44.000Z</time>
      </trkpt>
      <trkpt lat="43.5806" lon="3.32063">
        <ele>334.586478</ele>
        <time>2022-02-24T15:28:46.000Z</time>
      </trkpt>
      <trkpt lat="43.58057" lon="3.32066">
        <ele>334.859959</ele>
        <time>2022-02-24T15:28:47.000Z</time>
      </trkpt>
      <trkpt lat="43.58054" lon="3.3207">
        <ele>335.142126</ele>
        <time>2022-02-24T15:28:48.000Z</time>
      </trkpt>
      <trkpt lat="43.58052" lon="3.32073">
        <ele>335.39446</ele>
        <time>2022-02-24T15:28:49.000Z</time>
      </trkpt>
      <trkpt lat="43.58047" lon="3.3208">
        <ele>335.87684</ele>
        <time>2022-02-24T15:28:51.000Z</time>
      </trkpt>
      <trkpt lat="43.58043" lon="3.32088">
        <ele>336.368798</ele>
        <time>2022-02-24T15:28:53.000Z</time>
      </trkpt>
      <trkpt lat="43.58041" lon="3.32092">
        <ele>336.633471</ele>
        <time>2022-02-24T15:28:54.000Z</time>
      </trkpt>
      <trkpt lat="43.58038" lon="3.32096">
        <ele>336.910409</ele>
        <time>2022-02-24T15:28:55.000Z</time>
      </trkpt>
      <trkpt lat="43.58036" lon="3.32101">
        <ele>337.212588</ele>
        <time>2022-02-24T15:28:57.000Z</time>
      </trkpt>
      <trkpt lat="43.58033" lon="3.32105">
        <ele>337.485464</ele>
        <time>2022-02-24T15:28:58.000Z</time>
      </trkpt>
      <trkpt lat="43.58031" lon="3.3211">
        <ele>337.721275</ele>
        <time>2022-02-24T15:28:59.000Z</time>
      </trkpt>
      <trkpt lat="43.58029" lon="3.32114">
        <ele>337.92053</ele>
        <time>2022-02-24T15:29:00.000Z</time>
      </trkpt>
      <trkpt lat="43.58027" lon="3.32119">
        <ele>338.123136</ele>
        <time>2022-02-24T15:29:01.000Z</time>
      </trkpt>
      <trkpt lat="43.58025" lon="3.32124">
        <ele>338.339326</ele>
        <time>2022-02-24T15:29:03.000Z</time>
      </trkpt>
      <trkpt lat="43.58024" lon="3.32129">
        <ele>338.559089</ele>
        <time>2022-02-24T15:29:04.000Z</time>
      </trkpt>
      <trkpt lat="43.58022" lon="3.32135">
        <ele>338.828135</ele>
        <time>2022-02-24T15:29:06.000Z</time>
      </trkpt>
      <trkpt lat="43.5802" lon="3.32142">
        <ele>339.100784</ele>
        <time>2022-02-24T15:29:07.000Z</time>
      </trkpt>
      <trkpt lat="43.58018" lon="3.32148">
        <ele>339.380662</ele>
        <time>2022-02-24T15:29:08.000Z</time>
      </trkpt>
      <trkpt lat="43.58016" lon="3.32155">
        <ele>339.642526</ele>
        <time>2022-02-24T15:29:09.000Z</time>
      </trkpt>
      <trkpt lat="43.58015" lon="3.3216">
        <ele>339.874773</ele>
        <time>2022-02-24T15:29:10.000Z</time>
      </trkpt>
      <trkpt lat="43.58013" lon="3.32165">
        <ele>340.087397</ele>
        <time>2022-02-24T15:29:11.000Z</time>
      </trkpt>
      <trkpt lat="43.58012" lon="3.3217">
        <ele>340.290662</ele>
        <time>2022-02-24T15:29:12.000Z</time>
      </trkpt>
      <trkpt lat="43.58011" lon="3.32175">
        <ele>340.48279</ele>
        <time>2022-02-24T15:29:13.000Z</time>
      </trkpt>
      <trkpt lat="43.5801" lon="3.3218">
        <ele>340.674382</ele>
        <time>2022-02-24T15:29:14.000Z</time>
      </trkpt>
      <trkpt lat="43.58009" lon="3.32185">
        <ele>340.877363</ele>
        <time>2022-02-24T15:29:15.000Z</time>
      </trkpt>
      <trkpt lat="43.58009" lon="3.3219">
        <ele>341.075455</ele>
        <time>2022-02-24T15:29:16.000Z</time>
      </trkpt>
      <trkpt lat="43.58008" lon="3.32195">
        <ele>341.293668</ele>
        <time>2022-02-24T15:29:18.000Z</time>
      </trkpt>
      <trkpt lat="43.58007" lon="3.32201">
        <ele>341.515696</ele>
        <time>2022-02-24T15:29:19.000Z</time>
      </trkpt>
      <trkpt lat="43.58006" lon="3.32206">
        <ele>341.721432</ele>
        <time>2022-02-24T15:29:20.000Z</time>
      </trkpt>
      <trkpt lat="43.58006" lon="3.32212">
        <ele>341.94346</ele>
        <time>2022-02-24T15:29:22.000Z</time>
      </trkpt>
      <trkpt lat="43.58004" lon="3.32222">
        <ele>342.359763</ele>
        <time>2022-02-24T15:29:24.000Z</time>
      </trkpt>
      <trkpt lat="43.58004" lon="3.32226">
        <ele>342.497592</ele>
        <time>2022-02-24T15:29:26.000Z</time>
      </trkpt>
      <trkpt lat="43.58001" lon="3.32243">
        <ele>343.201199</ele>
        <time>2022-02-24T15:29:27.000Z</time>
      </trkpt>
      <trkpt lat="43.58" lon="3.3225">
        <ele>343.464517</ele>
        <time>2022-02-24T15:29:28.000Z</time>
      </trkpt>
      <trkpt lat="43.57999" lon="3.32255">
        <ele>343.659902</ele>
        <time>2022-02-24T15:29:29.000Z</time>
      </trkpt>
      <trkpt lat="43.57999" lon="3.32259">
        <ele>343.821318</ele>
        <time>2022-02-24T15:29:30.000Z</time>
      </trkpt>
      <trkpt lat="43.57998" lon="3.32264">
        <ele>344.020864</ele>
        <time>2022-02-24T15:29:32.000Z</time>
      </trkpt>
      <trkpt lat="43.57997" lon="3.32267">
        <ele>344.145216</ele>
        <time>2022-02-24T15:29:34.000Z</time>
      </trkpt>
      <trkpt lat="43.57993" lon="3.32283">
        <ele>344.789113</ele>
        <time>2022-02-24T15:29:35.000Z</time>
      </trkpt>
      <trkpt lat="43.57991" lon="3.32289">
        <ele>345.036014</ele>
        <time>2022-02-24T15:29:36.000Z</time>
      </trkpt>
      <trkpt lat="43.5799" lon="3.32294">
        <ele>345.250125</ele>
        <time>2022-02-24T15:29:38.000Z</time>
      </trkpt>
      <trkpt lat="43.57989" lon="3.32298">
        <ele>345.433008</ele>
        <time>2022-02-24T15:29:39.000Z</time>
      </trkpt>
      <trkpt lat="43.57988" lon="3.32303">
        <ele>345.628842</ele>
        <time>2022-02-24T15:29:41.000Z</time>
      </trkpt>
      <trkpt lat="43.57986" lon="3.32308">
        <ele>345.830043</ele>
        <time>2022-02-24T15:29:42.000Z</time>
      </trkpt>
      <trkpt lat="43.57985" lon="3.32313">
        <ele>346.037034</ele>
        <time>2022-02-24T15:29:43.000Z</time>
      </trkpt>
      <trkpt lat="43.57984" lon="3.32318">
        <ele>346.251492</ele>
        <time>2022-02-24T15:29:45.000Z</time>
      </trkpt>
      <trkpt lat="43.57983" lon="3.32324">
        <ele>346.465894</ele>
        <time>2022-02-24T15:29:46.000Z</time>
      </trkpt>
      <trkpt lat="43.57983" lon="3.32329">
        <ele>346.668876</ele>
        <time>2022-02-24T15:29:47.000Z</time>
      </trkpt>
      <trkpt lat="43.57982" lon="3.32333">
        <ele>346.847911</ele>
        <time>2022-02-24T15:29:48.000Z</time>
      </trkpt>
      <trkpt lat="43.57981" lon="3.32337">
        <ele>347.016839</ele>
        <time>2022-02-24T15:29:49.000Z</time>
      </trkpt>
      <trkpt lat="43.5798" lon="3.32342">
        <ele>347.216021</ele>
        <time>2022-02-24T15:29:51.000Z</time>
      </trkpt>
      <trkpt lat="43.5798" lon="3.32352">
        <ele>347.382453</ele>
        <time>2022-02-24T15:29:53.000Z</time>
      </trkpt>
      <trkpt lat="43.57979" lon="3.32358">
        <ele>347.472446</ele>
        <time>2022-02-24T15:29:54.000Z</time>
      </trkpt>
      <trkpt lat="43.57979" lon="3.32363">
        <ele>347.55758</ele>
        <time>2022-02-24T15:29:55.000Z</time>
      </trkpt>
      <trkpt lat="43.57979" lon="3.32368">
        <ele>347.640611</ele>
        <time>2022-02-24T15:29:56.000Z</time>
      </trkpt>
      <trkpt lat="43.57978" lon="3.32374">
        <ele>347.727365</ele>
        <time>2022-02-24T15:29:57.000Z</time>
      </trkpt>
      <trkpt lat="43.57978" lon="3.32379">
        <ele>347.822218</ele>
        <time>2022-02-24T15:29:59.000Z</time>
      </trkpt>
      <trkpt lat="43.57978" lon="3.32385">
        <ele>347.915262</ele>
        <time>2022-02-24T15:30:00.000Z</time>
      </trkpt>
      <trkpt lat="43.57977" lon="3.32391">
        <ele>348.011385</ele>
        <time>2022-02-24T15:30:01.000Z</time>
      </trkpt>
      <trkpt lat="43.57976" lon="3.32396">
        <ele>348.104312</ele>
        <time>2022-02-24T15:30:03.000Z</time>
      </trkpt>
      <trkpt lat="43.57975" lon="3.32402">
        <ele>348.197204</ele>
        <time>2022-02-24T15:30:04.000Z</time>
      </trkpt>
      <trkpt lat="43.57974" lon="3.32407">
        <ele>348.283837</ele>
        <time>2022-02-24T15:30:05.000Z</time>
      </trkpt>
      <trkpt lat="43.57973" lon="3.32412">
        <ele>348.361906</ele>
        <time>2022-02-24T15:30:06.000Z</time>
      </trkpt>
      <trkpt lat="43.57971" lon="3.32416">
        <ele>348.444033</ele>
        <time>2022-02-24T15:30:07.000Z</time>
      </trkpt>
      <trkpt lat="43.5797" lon="3.32421">
        <ele>348.526703</ele>
        <time>2022-02-24T15:30:08.000Z</time>
      </trkpt>
      <trkpt lat="43.57969" lon="3.32426">
        <ele>348.607115</ele>
        <time>2022-02-24T15:30:10.000Z</time>
      </trkpt>
      <trkpt lat="43.57968" lon="3.3243">
        <ele>348.684134</ele>
        <time>2022-02-24T15:30:11.000Z</time>
      </trkpt>
      <trkpt lat="43.57968" lon="3.32435">
        <ele>348.754715</ele>
        <time>2022-02-24T15:30:12.000Z</time>
      </trkpt>
      <trkpt lat="43.57967" lon="3.32439">
        <ele>348.834774</ele>
        <time>2022-02-24T15:30:14.000Z</time>
      </trkpt>
      <trkpt lat="43.57967" lon="3.32442">
        <ele>348.877103</ele>
        <time>2022-02-24T15:30:16.000Z</time>
      </trkpt>
      <trkpt lat="43.57967" lon="3.32451">
        <ele>349.024727</ele>
        <time>2022-02-24T15:30:18.000Z</time>
      </trkpt>
      <trkpt lat="43.57964" lon="3.32461">
        <ele>349.190892</ele>
        <time>2022-02-24T15:30:20.000Z</time>
      </trkpt>
      <trkpt lat="43.57963" lon="3.32462">
        <ele>349.223436</ele>
        <time>2022-02-24T15:30:22.000Z</time>
      </trkpt>
      <trkpt lat="43.5796" lon="3.32465">
        <ele>349.306694</ele>
        <time>2022-02-24T15:30:24.000Z</time>
      </trkpt>
      <trkpt lat="43.57959" lon="3.32465">
        <ele>349.331628</ele>
        <time>2022-02-24T15:30:26.000Z</time>
      </trkpt>
      <trkpt lat="43.57956" lon="3.32467">
        <ele>349.406008</ele>
        <time>2022-02-24T15:30:28.000Z</time>
      </trkpt>
      <trkpt lat="43.57955" lon="3.32467">
        <ele>349.426432</ele>
        <time>2022-02-24T15:30:30.000Z</time>
      </trkpt>
      <trkpt lat="43.57952" lon="3.32471">
        <ele>349.512461</ele>
        <time>2022-02-24T15:30:32.000Z</time>
      </trkpt>
      <trkpt lat="43.57951" lon="3.32471">
        <ele>349.540404</ele>
        <time>2022-02-24T15:30:33.000Z</time>
      </trkpt>
      <trkpt lat="43.5795" lon="3.32472">
        <ele>349.569681</ele>
        <time>2022-02-24T15:30:34.000Z</time>
      </trkpt>
      <trkpt lat="43.57949" lon="3.32473">
        <ele>349.589107</ele>
        <time>2022-02-24T15:30:36.000Z</time>
      </trkpt>
      <trkpt lat="43.57945" lon="3.32477">
        <ele>349.699279</ele>
        <time>2022-02-24T15:30:38.000Z</time>
      </trkpt>
      <trkpt lat="43.57943" lon="3.32479">
        <ele>349.755013</ele>
        <time>2022-02-24T15:30:39.000Z</time>
      </trkpt>
      <trkpt lat="43.57942" lon="3.32481">
        <ele>349.790925</ele>
        <time>2022-02-24T15:30:40.000Z</time>
      </trkpt>
      <trkpt lat="43.5794" lon="3.32482">
        <ele>349.841811</ele>
        <time>2022-02-24T15:30:42.000Z</time>
      </trkpt>
      <trkpt lat="43.57938" lon="3.32484">
        <ele>349.89183</ele>
        <time>2022-02-24T15:30:43.000Z</time>
      </trkpt>
      <trkpt lat="43.57937" lon="3.32486">
        <ele>349.943619</ele>
        <time>2022-02-24T15:30:44.000Z</time>
      </trkpt>
      <trkpt lat="43.57935" lon="3.32488">
        <ele>349.99832</ele>
        <time>2022-02-24T15:30:46.000Z</time>
      </trkpt>
      <trkpt lat="43.5793" lon="3.32492">
        <ele>350.119642</ele>
        <time>2022-02-24T15:30:47.000Z</time>
      </trkpt>
      <trkpt lat="43.57927" lon="3.32494">
        <ele>350.189291</ele>
        <time>2022-02-24T15:30:49.000Z</time>
      </trkpt>
      <trkpt lat="43.57925" lon="3.32496">
        <ele>350.258155</ele>
        <time>2022-02-24T15:30:50.000Z</time>
      </trkpt>
      <trkpt lat="43.57922" lon="3.32498">
        <ele>350.335278</ele>
        <time>2022-02-24T15:30:51.000Z</time>
      </trkpt>
      <trkpt lat="43.57919" lon="3.325">
        <ele>350.413615</ele>
        <time>2022-02-24T15:30:52.000Z</time>
      </trkpt>
      <trkpt lat="43.57915" lon="3.32503">
        <ele>350.506865</ele>
        <time>2022-02-24T15:30:54.000Z</time>
      </trkpt>
      <trkpt lat="43.57911" lon="3.32505">
        <ele>350.609023</ele>
        <time>2022-02-24T15:30:55.000Z</time>
      </trkpt>
      <trkpt lat="43.57907" lon="3.32507">
        <ele>350.701014</ele>
        <time>2022-02-24T15:30:56.000Z</time>
      </trkpt>
      <trkpt lat="43.57902" lon="3.32509">
        <ele>350.809401</ele>
        <time>2022-02-24T15:30:57.000Z</time>
      </trkpt>
      <trkpt lat="43.57898" lon="3.32511">
        <ele>350.908236</ele>
        <time>2022-02-24T15:30:59.000Z</time>
      </trkpt>
      <trkpt lat="43.57894" lon="3.32513">
        <ele>351.007071</ele>
        <time>2022-02-24T15:31:00.000Z</time>
      </trkpt>
      <trkpt lat="43.5789" lon="3.32514">
        <ele>351.105436</ele>
        <time>2022-02-24T15:31:01.000Z</time>
      </trkpt>
      <trkpt lat="43.57885" lon="3.32516">
        <ele>351.20076</ele>
        <time>2022-02-24T15:31:02.000Z</time>
      </trkpt>
      <trkpt lat="43.57882" lon="3.32517">
        <ele>351.250469</ele>
        <time>2022-02-24T15:31:03.000Z</time>
      </trkpt>
      <trkpt lat="43.57878" lon="3.32519">
        <ele>351.210551</ele>
        <time>2022-02-24T15:31:04.000Z</time>
      </trkpt>
      <trkpt lat="43.57874" lon="3.32521">
        <ele>351.170414</ele>
        <time>2022-02-24T15:31:05.000Z</time>
      </trkpt>
      <trkpt lat="43.5787" lon="3.32523">
        <ele>351.129805</ele>
        <time>2022-02-24T15:31:06.000Z</time>
      </trkpt>
      <trkpt lat="43.57867" lon="3.32524">
        <ele>351.093216</ele>
        <time>2022-02-24T15:31:07.000Z</time>
      </trkpt>
      <trkpt lat="43.57863" lon="3.32527">
        <ele>351.04808</ele>
        <time>2022-02-24T15:31:09.000Z</time>
      </trkpt>
      <trkpt lat="43.57859" lon="3.32529">
        <ele>351.006277</ele>
        <time>2022-02-24T15:31:10.000Z</time>
      </trkpt>
      <trkpt lat="43.57854" lon="3.32531">
        <ele>350.958994</ele>
        <time>2022-02-24T15:31:12.000Z</time>
      </trkpt>
      <trkpt lat="43.5785" lon="3.32532">
        <ele>350.910953</ele>
        <time>2022-02-24T15:31:13.000Z</time>
      </trkpt>
      <trkpt lat="43.57845" lon="3.32534">
        <ele>350.866544</ele>
        <time>2022-02-24T15:31:14.000Z</time>
      </trkpt>
      <trkpt lat="43.57841" lon="3.32536">
        <ele>350.822135</ele>
        <time>2022-02-24T15:31:15.000Z</time>
      </trkpt>
      <trkpt lat="43.57837" lon="3.32538">
        <ele>350.777251</ele>
        <time>2022-02-24T15:31:16.000Z</time>
      </trkpt>
      <trkpt lat="43.57833" lon="3.3254">
        <ele>350.736388</ele>
        <time>2022-02-24T15:31:17.000Z</time>
      </trkpt>
      <trkpt lat="43.57829" lon="3.32542">
        <ele>350.695525</ele>
        <time>2022-02-24T15:31:18.000Z</time>
      </trkpt>
      <trkpt lat="43.57825" lon="3.32545">
        <ele>350.649852</ele>
        <time>2022-02-24T15:31:20.000Z</time>
      </trkpt>
      <trkpt lat="43.57821" lon="3.32547">
        <ele>350.607864</ele>
        <time>2022-02-24T15:31:21.000Z</time>
      </trkpt>
      <trkpt lat="43.57818" lon="3.32549">
        <ele>350.57284</ele>
        <time>2022-02-24T15:31:22.000Z</time>
      </trkpt>
      <trkpt lat="43.57816" lon="3.32551">
        <ele>350.542052</ele>
        <time>2022-02-24T15:31:23.000Z</time>
      </trkpt>
      <trkpt lat="43.57813" lon="3.32553">
        <ele>350.516356</ele>
        <time>2022-02-24T15:31:24.000Z</time>
      </trkpt>
      <trkpt lat="43.57812" lon="3.32554">
        <ele>350.498996</ele>
        <time>2022-02-24T15:31:26.000Z</time>
      </trkpt>
      <trkpt lat="43.57802" lon="3.3256">
        <ele>350.393411</ele>
        <time>2022-02-24T15:31:32.000Z</time>
      </trkpt>
      <trkpt lat="43.57803" lon="3.32561">
        <ele>350.384862</ele>
        <time>2022-02-24T15:31:34.000Z</time>
      </trkpt>
      <trkpt lat="43.57803" lon="3.32561">
        <ele>350.379439</ele>
        <time>2022-02-24T15:31:35.000Z</time>
      </trkpt>
      <trkpt lat="43.57802" lon="3.32562">
        <ele>350.36907</ele>
        <time>2022-02-24T15:31:36.000Z</time>
      </trkpt>
      <trkpt lat="43.57801" lon="3.32563">
        <ele>350.35452</ele>
        <time>2022-02-24T15:31:37.000Z</time>
      </trkpt>
      <trkpt lat="43.578" lon="3.32565">
        <ele>350.338254</ele>
        <time>2022-02-24T15:31:38.000Z</time>
      </trkpt>
      <trkpt lat="43.57798" lon="3.32567">
        <ele>350.318283</ele>
        <time>2022-02-24T15:31:39.000Z</time>
      </trkpt>
      <trkpt lat="43.57797" lon="3.32569">
        <ele>350.295757</ele>
        <time>2022-02-24T15:31:40.000Z</time>
      </trkpt>
      <trkpt lat="43.57795" lon="3.32571">
        <ele>350.269879</ele>
        <time>2022-02-24T15:31:41.000Z</time>
      </trkpt>
      <trkpt lat="43.57793" lon="3.32574">
        <ele>350.242997</ele>
        <time>2022-02-24T15:31:42.000Z</time>
      </trkpt>
      <trkpt lat="43.5779" lon="3.32577">
        <ele>350.209665</ele>
        <time>2022-02-24T15:31:43.000Z</time>
      </trkpt>
      <trkpt lat="43.57788" lon="3.3258">
        <ele>350.176853</ele>
        <time>2022-02-24T15:31:44.000Z</time>
      </trkpt>
      <trkpt lat="43.57786" lon="3.32584">
        <ele>350.140248</ele>
        <time>2022-02-24T15:31:45.000Z</time>
      </trkpt>
      <trkpt lat="43.57783" lon="3.32589">
        <ele>350.098827</ele>
        <time>2022-02-24T15:31:46.000Z</time>
      </trkpt>
      <trkpt lat="43.5778" lon="3.32594">
        <ele>350.053434</ele>
        <time>2022-02-24T15:31:47.000Z</time>
      </trkpt>
      <trkpt lat="43.57777" lon="3.326">
        <ele>349.995664</ele>
        <time>2022-02-24T15:31:48.000Z</time>
      </trkpt>
      <trkpt lat="43.57772" lon="3.3261">
        <ele>349.909587</ele>
        <time>2022-02-24T15:31:50.000Z</time>
      </trkpt>
      <trkpt lat="43.57764" lon="3.32624">
        <ele>349.780477</ele>
        <time>2022-02-24T15:31:52.000Z</time>
      </trkpt>
      <trkpt lat="43.57752" lon="3.32646">
        <ele>349.572754</ele>
        <time>2022-02-24T15:31:54.000Z</time>
      </trkpt>
      <trkpt lat="43.5775" lon="3.32649">
        <ele>349.543077</ele>
        <time>2022-02-24T15:31:56.000Z</time>
      </trkpt>
      <trkpt lat="43.57737" lon="3.32665">
        <ele>348.578532</ele>
        <time>2022-02-24T15:31:58.000Z</time>
      </trkpt>
      <trkpt lat="43.57715" lon="3.32685">
        <ele>345.899595</ele>
        <time>2022-02-24T15:32:00.000Z</time>
      </trkpt>
      <trkpt lat="43.57712" lon="3.32687">
        <ele>345.612962</ele>
        <time>2022-02-24T15:32:02.000Z</time>
      </trkpt>
      <trkpt lat="43.57689" lon="3.32697">
        <ele>343.087819</ele>
        <time>2022-02-24T15:32:04.000Z</time>
      </trkpt>
      <trkpt lat="43.57686" lon="3.32699">
        <ele>342.763267</ele>
        <time>2022-02-24T15:32:06.000Z</time>
      </trkpt>
      <trkpt lat="43.57672" lon="3.32707">
        <ele>341.223152</ele>
        <time>2022-02-24T15:32:08.000Z</time>
      </trkpt>
      <trkpt lat="43.57649" lon="3.32721">
        <ele>338.644714</ele>
        <time>2022-02-24T15:32:10.000Z</time>
      </trkpt>
      <trkpt lat="43.57645" lon="3.32723">
        <ele>338.299706</ele>
        <time>2022-02-24T15:32:12.000Z</time>
      </trkpt>
      <trkpt lat="43.57632" lon="3.32731">
        <ele>336.835534</ele>
        <time>2022-02-24T15:32:14.000Z</time>
      </trkpt>
      <trkpt lat="43.57618" lon="3.32739">
        <ele>335.238853</ele>
        <time>2022-02-24T15:32:16.000Z</time>
      </trkpt>
      <trkpt lat="43.57613" lon="3.32741">
        <ele>334.791525</ele>
        <time>2022-02-24T15:32:18.000Z</time>
      </trkpt>
      <trkpt lat="43.57612" lon="3.32741">
        <ele>334.626131</ele>
        <time>2022-02-24T15:32:20.000Z</time>
      </trkpt>
      <trkpt lat="43.57604" lon="3.32745">
        <ele>333.770246</ele>
        <time>2022-02-24T15:32:22.000Z</time>
      </trkpt>
      <trkpt lat="43.57599" lon="3.32748">
        <ele>333.190337</ele>
        <time>2022-02-24T15:32:23.000Z</time>
      </trkpt>
      <trkpt lat="43.57598" lon="3.32748">
        <ele>333.140095</ele>
        <time>2022-02-24T15:32:24.000Z</time>
      </trkpt>
      <trkpt lat="43.57598" lon="3.32749">
        <ele>333.117988</ele>
        <time>2022-02-24T15:32:25.000Z</time>
      </trkpt>
      <trkpt lat="43.57598" lon="3.32749">
        <ele>333.071683</ele>
        <time>2022-02-24T15:32:26.000Z</time>
      </trkpt>
      <trkpt lat="43.57597" lon="3.3275">
        <ele>332.948477</ele>
        <time>2022-02-24T15:32:28.000Z</time>
      </trkpt>
      <trkpt lat="43.57595" lon="3.32751">
        <ele>332.709828</ele>
        <time>2022-02-24T15:32:29.000Z</time>
      </trkpt>
      <trkpt lat="43.57591" lon="3.32756">
        <ele>332.219235</ele>
        <time>2022-02-24T15:32:32.000Z</time>
      </trkpt>
      <trkpt lat="43.57574" lon="3.32773">
        <ele>330.011334</ele>
        <time>2022-02-24T15:32:34.000Z</time>
      </trkpt>
      <trkpt lat="43.57545" lon="3.32804">
        <ele>326.060655</ele>
        <time>2022-02-24T15:32:36.000Z</time>
      </trkpt>
      <trkpt lat="43.57535" lon="3.32816">
        <ele>324.630578</ele>
        <time>2022-02-24T15:32:38.000Z</time>
      </trkpt>
      <trkpt lat="43.57532" lon="3.32819">
        <ele>324.204627</ele>
        <time>2022-02-24T15:32:40.000Z</time>
      </trkpt>
      <trkpt lat="43.57507" lon="3.32846">
        <ele>320.854948</ele>
        <time>2022-02-24T15:32:42.000Z</time>
      </trkpt>
      <trkpt lat="43.57505" lon="3.32848">
        <ele>320.553915</ele>
        <time>2022-02-24T15:32:44.000Z</time>
      </trkpt>
      <trkpt lat="43.57488" lon="3.32867">
        <ele>318.202118</ele>
        <time>2022-02-24T15:32:46.000Z</time>
      </trkpt>
      <trkpt lat="43.57481" lon="3.32875">
        <ele>317.28065</ele>
        <time>2022-02-24T15:32:48.000Z</time>
      </trkpt>
      <trkpt lat="43.57479" lon="3.32878">
        <ele>316.934825</ele>
        <time>2022-02-24T15:32:49.000Z</time>
      </trkpt>
      <trkpt lat="43.57478" lon="3.3288">
        <ele>316.756769</ele>
        <time>2022-02-24T15:32:50.000Z</time>
      </trkpt>
      <trkpt lat="43.57476" lon="3.32882">
        <ele>316.431957</ele>
        <time>2022-02-24T15:32:52.000Z</time>
      </trkpt>
      <trkpt lat="43.57463" lon="3.32896">
        <ele>314.637307</ele>
        <time>2022-02-24T15:32:54.000Z</time>
      </trkpt>
      <trkpt lat="43.5744" lon="3.32924">
        <ele>311.09816</ele>
        <time>2022-02-24T15:32:56.000Z</time>
      </trkpt>
      <trkpt lat="43.57438" lon="3.32927">
        <ele>310.606084</ele>
        <time>2022-02-24T15:32:58.000Z</time>
      </trkpt>
      <trkpt lat="43.57431" lon="3.32943">
        <ele>308.293103</ele>
        <time>2022-02-24T15:33:00.000Z</time>
      </trkpt>
      <trkpt lat="43.57425" lon="3.32955">
        <ele>306.509003</ele>
        <time>2022-02-24T15:33:02.000Z</time>
      </trkpt>
      <trkpt lat="43.5742" lon="3.32972">
        <ele>304.255287</ele>
        <time>2022-02-24T15:33:04.000Z</time>
      </trkpt>
      <trkpt lat="43.57418" lon="3.32976">
        <ele>303.665344</ele>
        <time>2022-02-24T15:33:06.000Z</time>
      </trkpt>
      <trkpt lat="43.57417" lon="3.32975">
        <ele>303.515505</ele>
        <time>2022-02-24T15:33:07.000Z</time>
      </trkpt>
      <trkpt lat="43.57417" lon="3.32975">
        <ele>303.447256</ele>
        <time>2022-02-24T15:33:08.000Z</time>
      </trkpt>
      <trkpt lat="43.57416" lon="3.32977">
        <ele>303.236412</ele>
        <time>2022-02-24T15:33:09.000Z</time>
      </trkpt>
      <trkpt lat="43.57415" lon="3.32979">
        <ele>302.950667</ele>
        <time>2022-02-24T15:33:10.000Z</time>
      </trkpt>
      <trkpt lat="43.57415" lon="3.32982">
        <ele>302.590078</ele>
        <time>2022-02-24T15:33:12.000Z</time>
      </trkpt>
      <trkpt lat="43.57414" lon="3.32985">
        <ele>302.174449</ele>
        <time>2022-02-24T15:33:13.000Z</time>
      </trkpt>
      <trkpt lat="43.57412" lon="3.32988">
        <ele>301.695801</ele>
        <time>2022-02-24T15:33:15.000Z</time>
      </trkpt>
      <trkpt lat="43.5741" lon="3.32996">
        <ele>300.631876</ele>
        <time>2022-02-24T15:33:17.000Z</time>
      </trkpt>
      <trkpt lat="43.57409" lon="3.33001">
        <ele>300.019564</ele>
        <time>2022-02-24T15:33:18.000Z</time>
      </trkpt>
      <trkpt lat="43.57407" lon="3.33005">
        <ele>299.407252</ele>
        <time>2022-02-24T15:33:19.000Z</time>
      </trkpt>
      <trkpt lat="43.57406" lon="3.3301">
        <ele>298.783688</ele>
        <time>2022-02-24T15:33:20.000Z</time>
      </trkpt>
      <trkpt lat="43.57404" lon="3.33014">
        <ele>298.150505</ele>
        <time>2022-02-24T15:33:21.000Z</time>
      </trkpt>
      <trkpt lat="43.57402" lon="3.33018">
        <ele>297.552962</ele>
        <time>2022-02-24T15:33:22.000Z</time>
      </trkpt>
      <trkpt lat="43.57401" lon="3.33023">
        <ele>296.97413</ele>
        <time>2022-02-24T15:33:23.000Z</time>
      </trkpt>
      <trkpt lat="43.57399" lon="3.33027">
        <ele>296.395299</ele>
        <time>2022-02-24T15:33:24.000Z</time>
      </trkpt>
      <trkpt lat="43.57398" lon="3.33031">
        <ele>295.86013</ele>
        <time>2022-02-24T15:33:25.000Z</time>
      </trkpt>
      <trkpt lat="43.57397" lon="3.33034">
        <ele>295.388527</ele>
        <time>2022-02-24T15:33:26.000Z</time>
      </trkpt>
      <trkpt lat="43.57396" lon="3.33038">
        <ele>294.853358</ele>
        <time>2022-02-24T15:33:28.000Z</time>
      </trkpt>
      <trkpt lat="43.57394" lon="3.33043">
        <ele>294.277987</ele>
        <time>2022-02-24T15:33:29.000Z</time>
      </trkpt>
      <trkpt lat="43.57393" lon="3.33047">
        <ele>293.749111</ele>
        <time>2022-02-24T15:33:30.000Z</time>
      </trkpt>
      <trkpt lat="43.57392" lon="3.33051">
        <ele>293.129471</ele>
        <time>2022-02-24T15:33:31.000Z</time>
      </trkpt>
      <trkpt lat="43.5739" lon="3.33056">
        <ele>292.494614</ele>
        <time>2022-02-24T15:33:33.000Z</time>
      </trkpt>
      <trkpt lat="43.57389" lon="3.33061">
        <ele>291.814215</ele>
        <time>2022-02-24T15:33:34.000Z</time>
      </trkpt>
      <trkpt lat="43.57387" lon="3.33066">
        <ele>291.122346</ele>
        <time>2022-02-24T15:33:35.000Z</time>
      </trkpt>
      <trkpt lat="43.57386" lon="3.33072">
        <ele>290.41231</ele>
        <time>2022-02-24T15:33:36.000Z</time>
      </trkpt>
      <trkpt lat="43.57385" lon="3.33077">
        <ele>289.718912</ele>
        <time>2022-02-24T15:33:37.000Z</time>
      </trkpt>
      <trkpt lat="43.57384" lon="3.33082">
        <ele>289.091234</ele>
        <time>2022-02-24T15:33:38.000Z</time>
      </trkpt>
      <trkpt lat="43.57383" lon="3.33086">
        <ele>288.515862</ele>
        <time>2022-02-24T15:33:40.000Z</time>
      </trkpt>
      <trkpt lat="43.57376" lon="3.33111">
        <ele>285.255019</ele>
        <time>2022-02-24T15:33:48.000Z</time>
      </trkpt>
      <trkpt lat="43.57375" lon="3.33112">
        <ele>285.014708</ele>
        <time>2022-02-24T15:33:49.000Z</time>
      </trkpt>
      <trkpt lat="43.57374" lon="3.33114">
        <ele>284.79415</ele>
        <time>2022-02-24T15:33:50.000Z</time>
      </trkpt>
      <trkpt lat="43.57374" lon="3.33115">
        <ele>284.642008</ele>
        <time>2022-02-24T15:33:51.000Z</time>
      </trkpt>
      <trkpt lat="43.57373" lon="3.33116">
        <ele>284.440426</ele>
        <time>2022-02-24T15:33:52.000Z</time>
      </trkpt>
      <trkpt lat="43.57372" lon="3.33117">
        <ele>284.259445</ele>
        <time>2022-02-24T15:33:53.000Z</time>
      </trkpt>
      <trkpt lat="43.5736" lon="3.33127">
        <ele>281.838478</ele>
        <time>2022-02-24T15:34:35.000Z</time>
      </trkpt>
      <trkpt lat="43.5736" lon="3.33128">
        <ele>281.801394</ele>
        <time>2022-02-24T15:34:36.000Z</time>
      </trkpt>
      <trkpt lat="43.5736" lon="3.33129">
        <ele>281.626803</ele>
        <time>2022-02-24T15:34:37.000Z</time>
      </trkpt>
      <trkpt lat="43.57359" lon="3.33131">
        <ele>281.3058</ele>
        <time>2022-02-24T15:34:38.000Z</time>
      </trkpt>
      <trkpt lat="43.57357" lon="3.33133">
        <ele>281.025909</ele>
        <time>2022-02-24T15:34:39.000Z</time>
      </trkpt>
      <trkpt lat="43.57356" lon="3.33135">
        <ele>280.674834</ele>
        <time>2022-02-24T15:34:42.000Z</time>
      </trkpt>
      <trkpt lat="43.57345" lon="3.33152">
        <ele>278.205539</ele>
        <time>2022-02-24T15:34:43.000Z</time>
      </trkpt>
      <trkpt lat="43.57341" lon="3.33158">
        <ele>277.347578</ele>
        <time>2022-02-24T15:34:44.000Z</time>
      </trkpt>
      <trkpt lat="43.57338" lon="3.33163">
        <ele>276.505784</ele>
        <time>2022-02-24T15:34:46.000Z</time>
      </trkpt>
      <trkpt lat="43.57328" lon="3.33177">
        <ele>274.338301</ele>
        <time>2022-02-24T15:34:48.000Z</time>
      </trkpt>
      <trkpt lat="43.57319" lon="3.33192">
        <ele>272.188245</ele>
        <time>2022-02-24T15:34:49.000Z</time>
      </trkpt>
      <trkpt lat="43.57317" lon="3.33197">
        <ele>271.569182</ele>
        <time>2022-02-24T15:34:50.000Z</time>
      </trkpt>
      <trkpt lat="43.57314" lon="3.33202">
        <ele>270.894366</ele>
        <time>2022-02-24T15:34:52.000Z</time>
      </trkpt>
      <trkpt lat="43.57309" lon="3.33217">
        <ele>269.018266</ele>
        <time>2022-02-24T15:34:54.000Z</time>
      </trkpt>
      <trkpt lat="43.57302" lon="3.33231">
        <ele>267.115234</ele>
        <time>2022-02-24T15:34:56.000Z</time>
      </trkpt>
      <trkpt lat="43.57299" lon="3.33235">
        <ele>266.501541</ele>
        <time>2022-02-24T15:34:57.000Z</time>
      </trkpt>
      <trkpt lat="43.57298" lon="3.33239">
        <ele>266.022225</ele>
        <time>2022-02-24T15:34:58.000Z</time>
      </trkpt>
      <trkpt lat="43.57297" lon="3.33243">
        <ele>265.573271</ele>
        <time>2022-02-24T15:34:59.000Z</time>
      </trkpt>
      <trkpt lat="43.57296" lon="3.3325">
        <ele>264.801539</ele>
        <time>2022-02-24T15:35:02.000Z</time>
      </trkpt>
      <trkpt lat="43.57288" lon="3.33283">
        <ele>260.91565</ele>
        <time>2022-02-24T15:35:04.000Z</time>
      </trkpt>
      <trkpt lat="43.57278" lon="3.33305">
        <ele>258.107364</ele>
        <time>2022-02-24T15:35:06.000Z</time>
      </trkpt>
      <trkpt lat="43.57275" lon="3.3331">
        <ele>257.389723</ele>
        <time>2022-02-24T15:35:08.000Z</time>
      </trkpt>
      <trkpt lat="43.57273" lon="3.33314">
        <ele>256.832726</ele>
        <time>2022-02-24T15:35:09.000Z</time>
      </trkpt>
      <trkpt lat="43.57271" lon="3.33317">
        <ele>256.325532</ele>
        <time>2022-02-24T15:35:10.000Z</time>
      </trkpt>
      <trkpt lat="43.57269" lon="3.33321">
        <ele>255.802147</ele>
        <time>2022-02-24T15:35:12.000Z</time>
      </trkpt>
      <trkpt lat="43.57266" lon="3.33325">
        <ele>255.253696</ele>
        <time>2022-02-24T15:35:13.000Z</time>
      </trkpt>
      <trkpt lat="43.57264" lon="3.33329">
        <ele>254.688065</ele>
        <time>2022-02-24T15:35:14.000Z</time>
      </trkpt>
      <trkpt lat="43.57261" lon="3.33333">
        <ele>254.010722</ele>
        <time>2022-02-24T15:35:15.000Z</time>
      </trkpt>
      <trkpt lat="43.57258" lon="3.33338">
        <ele>253.416001</ele>
        <time>2022-02-24T15:35:16.000Z</time>
      </trkpt>
      <trkpt lat="43.57254" lon="3.33343">
        <ele>252.96578</ele>
        <time>2022-02-24T15:35:17.000Z</time>
      </trkpt>
      <trkpt lat="43.5725" lon="3.33348">
        <ele>252.567898</ele>
        <time>2022-02-24T15:35:18.000Z</time>
      </trkpt>
      <trkpt lat="43.57241" lon="3.33362">
        <ele>251.394273</ele>
        <time>2022-02-24T15:37:04.000Z</time>
      </trkpt>
      <trkpt lat="43.57238" lon="3.33367">
        <ele>250.972425</ele>
        <time>2022-02-24T15:37:06.000Z</time>
      </trkpt>
      <trkpt lat="43.57236" lon="3.33375">
        <ele>250.451564</ele>
        <time>2022-02-24T15:37:08.000Z</time>
      </trkpt>
      <trkpt lat="43.57236" lon="3.33377">
        <ele>250.317264</ele>
        <time>2022-02-24T15:37:09.000Z</time>
      </trkpt>
      <trkpt lat="43.57235" lon="3.33382">
        <ele>250.036682</ele>
        <time>2022-02-24T15:37:10.000Z</time>
      </trkpt>
      <trkpt lat="43.57234" lon="3.33389">
        <ele>249.605742</ele>
        <time>2022-02-24T15:37:12.000Z</time>
      </trkpt>
      <trkpt lat="43.57233" lon="3.33391">
        <ele>249.429226</ele>
        <time>2022-02-24T15:37:14.000Z</time>
      </trkpt>
      <trkpt lat="43.57229" lon="3.33425">
        <ele>247.302112</ele>
        <time>2022-02-24T15:37:16.000Z</time>
      </trkpt>
      <trkpt lat="43.57228" lon="3.33438">
        <ele>246.514338</ele>
        <time>2022-02-24T15:37:18.000Z</time>
      </trkpt>
      <trkpt lat="43.57228" lon="3.33441">
        <ele>246.316416</ele>
        <time>2022-02-24T15:37:20.000Z</time>
      </trkpt>
      <trkpt lat="43.57225" lon="3.33483">
        <ele>243.680629</ele>
        <time>2022-02-24T15:37:22.000Z</time>
      </trkpt>
      <trkpt lat="43.57224" lon="3.33489">
        <ele>243.328696</ele>
        <time>2022-02-24T15:37:24.000Z</time>
      </trkpt>
      <trkpt lat="43.57205" lon="3.3353">
        <ele>240.355477</ele>
        <time>2022-02-24T15:37:26.000Z</time>
      </trkpt>
      <trkpt lat="43.57203" lon="3.33534">
        <ele>240.029846</ele>
        <time>2022-02-24T15:37:28.000Z</time>
      </trkpt>
      <trkpt lat="43.57192" lon="3.33556">
        <ele>238.336729</ele>
        <time>2022-02-24T15:37:30.000Z</time>
      </trkpt>
      <trkpt lat="43.57178" lon="3.33598">
        <ele>235.699785</ele>
        <time>2022-02-24T15:37:32.000Z</time>
      </trkpt>
      <trkpt lat="43.57178" lon="3.33602">
        <ele>235.469355</ele>
        <time>2022-02-24T15:37:34.000Z</time>
      </trkpt>
      <trkpt lat="43.57187" lon="3.33646">
        <ele>232.875523</ele>
        <time>2022-02-24T15:37:36.000Z</time>
      </trkpt>
      <trkpt lat="43.57192" lon="3.33663">
        <ele>231.81853</ele>
        <time>2022-02-24T15:37:38.000Z</time>
      </trkpt>
      <trkpt lat="43.57196" lon="3.33683">
        <ele>230.624521</ele>
        <time>2022-02-24T15:37:40.000Z</time>
      </trkpt>
      <trkpt lat="43.57198" lon="3.33688">
        <ele>230.341848</ele>
        <time>2022-02-24T15:37:42.000Z</time>
      </trkpt>
      <trkpt lat="43.57211" lon="3.33721">
        <ele>228.208308</ele>
        <time>2022-02-24T15:37:44.000Z</time>
      </trkpt>
      <trkpt lat="43.57235" lon="3.33774">
        <ele>224.627118</ele>
        <time>2022-02-24T15:37:46.000Z</time>
      </trkpt>
      <trkpt lat="43.57237" lon="3.33778">
        <ele>224.325854</ele>
        <time>2022-02-24T15:37:48.000Z</time>
      </trkpt>
      <trkpt lat="43.57259" lon="3.33827">
        <ele>221.891881</ele>
        <time>2022-02-24T15:37:50.000Z</time>
      </trkpt>
      <trkpt lat="43.5726" lon="3.33831">
        <ele>221.723365</ele>
        <time>2022-02-24T15:37:52.000Z</time>
      </trkpt>
      <trkpt lat="43.57266" lon="3.33853">
        <ele>220.737206</ele>
        <time>2022-02-24T15:37:54.000Z</time>
      </trkpt>
      <trkpt lat="43.57262" lon="3.33893">
        <ele>219.089307</ele>
        <time>2022-02-24T15:37:56.000Z</time>
      </trkpt>
      <trkpt lat="43.5726" lon="3.33894">
        <ele>218.975619</ele>
        <time>2022-02-24T15:37:58.000Z</time>
      </trkpt>
      <trkpt lat="43.57239" lon="3.33904">
        <ele>217.695279</ele>
        <time>2022-02-24T15:38:00.000Z</time>
      </trkpt>
      <trkpt lat="43.57237" lon="3.33904">
        <ele>217.584646</ele>
        <time>2022-02-24T15:38:02.000Z</time>
      </trkpt>
      <trkpt lat="43.57224" lon="3.3391">
        <ele>216.810479</ele>
        <time>2022-02-24T15:38:04.000Z</time>
      </trkpt>
      <trkpt lat="43.57202" lon="3.33918">
        <ele>215.495999</ele>
        <time>2022-02-24T15:38:06.000Z</time>
      </trkpt>
      <trkpt lat="43.572" lon="3.33919">
        <ele>215.378932</ele>
        <time>2022-02-24T15:38:08.000Z</time>
      </trkpt>
      <trkpt lat="43.5718" lon="3.33926">
        <ele>214.229881</ele>
        <time>2022-02-24T15:38:10.000Z</time>
      </trkpt>
      <trkpt lat="43.57179" lon="3.33927">
        <ele>214.136328</ele>
        <time>2022-02-24T15:38:12.000Z</time>
      </trkpt>
      <trkpt lat="43.5717" lon="3.33933">
        <ele>213.922281</ele>
        <time>2022-02-24T15:38:14.000Z</time>
      </trkpt>
      <trkpt lat="43.57157" lon="3.33944">
        <ele>214.294086</ele>
        <time>2022-02-24T15:38:16.000Z</time>
      </trkpt>
      <trkpt lat="43.57156" lon="3.33944">
        <ele>214.322032</ele>
        <time>2022-02-24T15:38:18.000Z</time>
      </trkpt>
      <trkpt lat="43.57138" lon="3.33944">
        <ele>214.760697</ele>
        <time>2022-02-24T15:38:20.000Z</time>
      </trkpt>
      <trkpt lat="43.57132" lon="3.33942">
        <ele>214.927077</ele>
        <time>2022-02-24T15:38:22.000Z</time>
      </trkpt>
      <trkpt lat="43.57127" lon="3.3394">
        <ele>215.053</ele>
        <time>2022-02-24T15:38:24.000Z</time>
      </trkpt>
      <trkpt lat="43.57126" lon="3.3394">
        <ele>215.082962</ele>
        <time>2022-02-24T15:38:26.000Z</time>
      </trkpt>
      <trkpt lat="43.57109" lon="3.33941">
        <ele>215.500312</ele>
        <time>2022-02-24T15:38:28.000Z</time>
      </trkpt>
      <trkpt lat="43.57102" lon="3.33944">
        <ele>215.679561</ele>
        <time>2022-02-24T15:38:30.000Z</time>
      </trkpt>
      <trkpt lat="43.57101" lon="3.33945">
        <ele>215.71964</ele>
        <time>2022-02-24T15:38:32.000Z</time>
      </trkpt>
      <trkpt lat="43.57091" lon="3.3395">
        <ele>215.985343</ele>
        <time>2022-02-24T15:38:34.000Z</time>
      </trkpt>
      <trkpt lat="43.57076" lon="3.33958">
        <ele>216.380831</ele>
        <time>2022-02-24T15:38:36.000Z</time>
      </trkpt>
      <trkpt lat="43.57075" lon="3.33959">
        <ele>216.412072</ele>
        <time>2022-02-24T15:38:38.000Z</time>
      </trkpt>
      <trkpt lat="43.57064" lon="3.33966">
        <ele>216.708756</ele>
        <time>2022-02-24T15:38:40.000Z</time>
      </trkpt>
      <trkpt lat="43.5706" lon="3.33969">
        <ele>216.82527</ele>
        <time>2022-02-24T15:38:42.000Z</time>
      </trkpt>
      <trkpt lat="43.57059" lon="3.3397">
        <ele>216.859308</ele>
        <time>2022-02-24T15:38:44.000Z</time>
      </trkpt>
      <trkpt lat="43.5705" lon="3.33977">
        <ele>217.102935</ele>
        <time>2022-02-24T15:38:46.000Z</time>
      </trkpt>
      <trkpt lat="43.57033" lon="3.33991">
        <ele>217.613519</ele>
        <time>2022-02-24T15:38:48.000Z</time>
      </trkpt>
      <trkpt lat="43.57032" lon="3.33993">
        <ele>217.659034</ele>
        <time>2022-02-24T15:38:50.000Z</time>
      </trkpt>
      <trkpt lat="43.57019" lon="3.34016">
        <ele>218.175408</ele>
        <time>2022-02-24T15:38:52.000Z</time>
      </trkpt>
      <trkpt lat="43.57018" lon="3.34018">
        <ele>218.215516</ele>
        <time>2022-02-24T15:38:54.000Z</time>
      </trkpt>
      <trkpt lat="43.57014" lon="3.3403">
        <ele>218.123396</ele>
        <time>2022-02-24T15:38:56.000Z</time>
      </trkpt>
      <trkpt lat="43.57008" lon="3.34043">
        <ele>217.838605</ele>
        <time>2022-02-24T15:38:58.000Z</time>
      </trkpt>
      <trkpt lat="43.57004" lon="3.34059">
        <ele>217.522778</ele>
        <time>2022-02-24T15:39:00.000Z</time>
      </trkpt>
      <trkpt lat="43.57004" lon="3.34061">
        <ele>217.490697</ele>
        <time>2022-02-24T15:39:02.000Z</time>
      </trkpt>
      <trkpt lat="43.57004" lon="3.3408">
        <ele>217.131994</ele>
        <time>2022-02-24T15:39:04.000Z</time>
      </trkpt>
      <trkpt lat="43.57004" lon="3.34083">
        <ele>217.066992</ele>
        <time>2022-02-24T15:39:06.000Z</time>
      </trkpt>
      <trkpt lat="43.57005" lon="3.34086">
        <ele>217.021032</ele>
        <time>2022-02-24T15:39:07.000Z</time>
      </trkpt>
      <trkpt lat="43.57005" lon="3.34089">
        <ele>216.954984</ele>
        <time>2022-02-24T15:39:09.000Z</time>
      </trkpt>
      <trkpt lat="43.57004" lon="3.34093">
        <ele>216.882849</ele>
        <time>2022-02-24T15:39:10.000Z</time>
      </trkpt>
      <trkpt lat="43.57003" lon="3.34097">
        <ele>216.800897</ele>
        <time>2022-02-24T15:39:11.000Z</time>
      </trkpt>
      <trkpt lat="43.57003" lon="3.34102">
        <ele>216.713458</ele>
        <time>2022-02-24T15:39:12.000Z</time>
      </trkpt>
      <trkpt lat="43.57002" lon="3.34107">
        <ele>216.615503</ele>
        <time>2022-02-24T15:39:13.000Z</time>
      </trkpt>
      <trkpt lat="43.57001" lon="3.34113">
        <ele>216.500375</ele>
        <time>2022-02-24T15:39:14.000Z</time>
      </trkpt>
      <trkpt lat="43.57" lon="3.34119">
        <ele>216.377816</ele>
        <time>2022-02-24T15:39:15.000Z</time>
      </trkpt>
      <trkpt lat="43.57" lon="3.34126">
        <ele>216.246335</ele>
        <time>2022-02-24T15:39:16.000Z</time>
      </trkpt>
      <trkpt lat="43.56999" lon="3.34133">
        <ele>216.118192</ele>
        <time>2022-02-24T15:39:17.000Z</time>
      </trkpt>
      <trkpt lat="43.56998" lon="3.3414">
        <ele>215.986711</ele>
        <time>2022-02-24T15:39:18.000Z</time>
      </trkpt>
      <trkpt lat="43.56998" lon="3.34148">
        <ele>215.818435</ele>
        <time>2022-02-24T15:39:20.000Z</time>
      </trkpt>
      <trkpt lat="43.56997" lon="3.34155">
        <ele>215.700971</ele>
        <time>2022-02-24T15:39:22.000Z</time>
      </trkpt>
      <trkpt lat="43.56991" lon="3.34201">
        <ele>214.811052</ele>
        <time>2022-02-24T15:39:24.000Z</time>
      </trkpt>
      <trkpt lat="43.5699" lon="3.34205">
        <ele>214.732744</ele>
        <time>2022-02-24T15:39:26.000Z</time>
      </trkpt>
      <trkpt lat="43.56985" lon="3.34235">
        <ele>214.150022</ele>
        <time>2022-02-24T15:39:28.000Z</time>
      </trkpt>
      <trkpt lat="43.56985" lon="3.34239">
        <ele>214.083156</ele>
        <time>2022-02-24T15:39:30.000Z</time>
      </trkpt>
      <trkpt lat="43.56983" lon="3.34256">
        <ele>213.741756</ele>
        <time>2022-02-24T15:39:32.000Z</time>
      </trkpt>
      <trkpt lat="43.56976" lon="3.34288">
        <ele>214.321084</ele>
        <time>2022-02-24T15:39:34.000Z</time>
      </trkpt>
      <trkpt lat="43.56976" lon="3.34292">
        <ele>214.420663</ele>
        <time>2022-02-24T15:39:36.000Z</time>
      </trkpt>
      <trkpt lat="43.56976" lon="3.34306">
        <ele>214.8174</ele>
        <time>2022-02-24T15:39:38.000Z</time>
      </trkpt>
      <trkpt lat="43.56977" lon="3.3432">
        <ele>215.210313</ele>
        <time>2022-02-24T15:39:40.000Z</time>
      </trkpt>
      <trkpt lat="43.56977" lon="3.34319">
        <ele>215.243123</ele>
        <time>2022-02-24T15:40:02.000Z</time>
      </trkpt>
      <trkpt lat="43.56978" lon="3.34321">
        <ele>215.311776</ele>
        <time>2022-02-24T15:40:04.000Z</time>
      </trkpt>
      <trkpt lat="43.56982" lon="3.34325">
        <ele>215.487657</ele>
        <time>2022-02-24T15:40:06.000Z</time>
      </trkpt>
      <trkpt lat="43.56987" lon="3.34333">
        <ele>215.776749</ele>
        <time>2022-02-24T15:40:08.000Z</time>
      </trkpt>
      <trkpt lat="43.56988" lon="3.34334">
        <ele>215.821335</ele>
        <time>2022-02-24T15:40:10.000Z</time>
      </trkpt>
      <trkpt lat="43.56991" lon="3.34344">
        <ele>216.109697</ele>
        <time>2022-02-24T15:40:12.000Z</time>
      </trkpt>
      <trkpt lat="43.56994" lon="3.34362">
        <ele>216.626198</ele>
        <time>2022-02-24T15:40:14.000Z</time>
      </trkpt>
      <trkpt lat="43.56994" lon="3.34364">
        <ele>216.672678</ele>
        <time>2022-02-24T15:40:16.000Z</time>
      </trkpt>
      <trkpt lat="43.56992" lon="3.3438">
        <ele>217.124685</ele>
        <time>2022-02-24T15:40:18.000Z</time>
      </trkpt>
      <trkpt lat="43.56992" lon="3.34382">
        <ele>217.164602</ele>
        <time>2022-02-24T15:40:20.000Z</time>
      </trkpt>
      <trkpt lat="43.56988" lon="3.34395">
        <ele>217.556628</ele>
        <time>2022-02-24T15:40:22.000Z</time>
      </trkpt>
      <trkpt lat="43.56988" lon="3.34397">
        <ele>217.596545</ele>
        <time>2022-02-24T15:40:24.000Z</time>
      </trkpt>
      <trkpt lat="43.56986" lon="3.34403">
        <ele>217.782103</ele>
        <time>2022-02-24T15:40:26.000Z</time>
      </trkpt>
      <trkpt lat="43.56982" lon="3.34412">
        <ele>218.059615</ele>
        <time>2022-02-24T15:40:28.000Z</time>
      </trkpt>
      <trkpt lat="43.56982" lon="3.34412">
        <ele>218.08399</ele>
        <time>2022-02-24T15:40:30.000Z</time>
      </trkpt>
      <trkpt lat="43.56976" lon="3.34419">
        <ele>218.381612</ele>
        <time>2022-02-24T15:40:32.000Z</time>
      </trkpt>
      <trkpt lat="43.56976" lon="3.3442">
        <ele>218.400252</ele>
        <time>2022-02-24T15:40:34.000Z</time>
      </trkpt>
      <trkpt lat="43.56969" lon="3.34423">
        <ele>218.668035</ele>
        <time>2022-02-24T15:40:36.000Z</time>
      </trkpt>
      <trkpt lat="43.56968" lon="3.34423">
        <ele>218.698715</ele>
        <time>2022-02-24T15:40:38.000Z</time>
      </trkpt>
      <trkpt lat="43.56961" lon="3.34424">
        <ele>218.946563</ele>
        <time>2022-02-24T15:40:40.000Z</time>
      </trkpt>
      <trkpt lat="43.56959" lon="3.34424">
        <ele>219.044716</ele>
        <time>2022-02-24T15:40:42.000Z</time>
      </trkpt>
      <trkpt lat="43.56958" lon="3.34424">
        <ele>219.075029</ele>
        <time>2022-02-24T15:40:44.000Z</time>
      </trkpt>
      <trkpt lat="43.56953" lon="3.34425">
        <ele>219.251689</ele>
        <time>2022-02-24T15:40:46.000Z</time>
      </trkpt>
      <trkpt lat="43.5695" lon="3.34427">
        <ele>219.407192</ele>
        <time>2022-02-24T15:40:48.000Z</time>
      </trkpt>
      <trkpt lat="43.56947" lon="3.34431">
        <ele>219.548859</ele>
        <time>2022-02-24T15:40:50.000Z</time>
      </trkpt>
      <trkpt lat="43.56944" lon="3.34439">
        <ele>219.785492</ele>
        <time>2022-02-24T15:40:52.000Z</time>
      </trkpt>
      <trkpt lat="43.56944" lon="3.3444">
        <ele>219.815567</ele>
        <time>2022-02-24T15:40:54.000Z</time>
      </trkpt>
      <trkpt lat="43.56943" lon="3.34451">
        <ele>220.114307</ele>
        <time>2022-02-24T15:40:56.000Z</time>
      </trkpt>
      <trkpt lat="43.56943" lon="3.34452">
        <ele>220.149851</ele>
        <time>2022-02-24T15:40:58.000Z</time>
      </trkpt>
      <trkpt lat="43.56942" lon="3.34466">
        <ele>220.085509</ele>
        <time>2022-02-24T15:41:00.000Z</time>
      </trkpt>
      <trkpt lat="43.56942" lon="3.34467">
        <ele>219.98652</ele>
        <time>2022-02-24T15:41:02.000Z</time>
      </trkpt>
      <trkpt lat="43.5694" lon="3.34475">
        <ele>219.449337</ele>
        <time>2022-02-24T15:41:04.000Z</time>
      </trkpt>
      <trkpt lat="43.56937" lon="3.34482">
        <ele>218.910221</ele>
        <time>2022-02-24T15:41:06.000Z</time>
      </trkpt>
      <trkpt lat="43.56935" lon="3.34488">
        <ele>218.440035</ele>
        <time>2022-02-24T15:41:08.000Z</time>
      </trkpt>
      <trkpt lat="43.56931" lon="3.34499">
        <ele>217.707484</ele>
        <time>2022-02-24T15:41:10.000Z</time>
      </trkpt>
      <trkpt lat="43.56931" lon="3.345">
        <ele>217.614583</ele>
        <time>2022-02-24T15:41:12.000Z</time>
      </trkpt>
      <trkpt lat="43.56929" lon="3.34512">
        <ele>216.804466</ele>
        <time>2022-02-24T15:41:14.000Z</time>
      </trkpt>
      <trkpt lat="43.56928" lon="3.34514">
        <ele>216.642479</ele>
        <time>2022-02-24T15:41:15.000Z</time>
      </trkpt>
      <trkpt lat="43.56928" lon="3.34516">
        <ele>216.501688</ele>
        <time>2022-02-24T15:41:16.000Z</time>
      </trkpt>
      <trkpt lat="43.56928" lon="3.34519">
        <ele>216.333284</ele>
        <time>2022-02-24T15:41:18.000Z</time>
      </trkpt>
      <trkpt lat="43.56927" lon="3.34522">
        <ele>216.13264</ele>
        <time>2022-02-24T15:41:19.000Z</time>
      </trkpt>
      <trkpt lat="43.56926" lon="3.34526">
        <ele>215.866027</ele>
        <time>2022-02-24T15:41:20.000Z</time>
      </trkpt>
      <trkpt lat="43.56926" lon="3.3453">
        <ele>215.576135</ele>
        <time>2022-02-24T15:41:22.000Z</time>
      </trkpt>
      <trkpt lat="43.56921" lon="3.34552">
        <ele>214.086011</ele>
        <time>2022-02-24T15:41:23.000Z</time>
      </trkpt>
      <trkpt lat="43.5692" lon="3.34557">
        <ele>213.693294</ele>
        <time>2022-02-24T15:41:24.000Z</time>
      </trkpt>
      <trkpt lat="43.56921" lon="3.3456">
        <ele>213.51202</ele>
        <time>2022-02-24T15:41:26.000Z</time>
      </trkpt>
      <trkpt lat="43.56923" lon="3.34561">
        <ele>213.36603</ele>
        <time>2022-02-24T15:41:27.000Z</time>
      </trkpt>
      <trkpt lat="43.56924" lon="3.34561">
        <ele>213.193039</ele>
        <time>2022-02-24T15:41:28.000Z</time>
      </trkpt>
      <trkpt lat="43.56933" lon="3.3456">
        <ele>212.393895</ele>
        <time>2022-02-24T15:41:40.000Z</time>
      </trkpt>
      <trkpt lat="43.56934" lon="3.34561">
        <ele>212.314168</ele>
        <time>2022-02-24T15:41:41.000Z</time>
      </trkpt>
      <trkpt lat="43.56935" lon="3.34561">
        <ele>212.25028</ele>
        <time>2022-02-24T15:41:43.000Z</time>
      </trkpt>
      <trkpt lat="43.56936" lon="3.34561">
        <ele>212.141339</ele>
        <time>2022-02-24T15:41:44.000Z</time>
      </trkpt>
      <trkpt lat="43.56937" lon="3.34561">
        <ele>212.005162</ele>
        <time>2022-02-24T15:41:45.000Z</time>
      </trkpt>
      <trkpt lat="43.56939" lon="3.34561">
        <ele>211.832672</ele>
        <time>2022-02-24T15:41:46.000Z</time>
      </trkpt>
      <trkpt lat="43.56942" lon="3.34561">
        <ele>211.623869</ele>
        <time>2022-02-24T15:41:47.000Z</time>
      </trkpt>
      <trkpt lat="43.56945" lon="3.34561">
        <ele>211.278826</ele>
        <time>2022-02-24T15:41:48.000Z</time>
      </trkpt>
      <trkpt lat="43.56949" lon="3.34561">
        <ele>210.997318</ele>
        <time>2022-02-24T15:41:50.000Z</time>
      </trkpt>
      <trkpt lat="43.56961" lon="3.34559">
        <ele>209.85702</ele>
        <time>2022-02-24T15:41:51.000Z</time>
      </trkpt>
      <trkpt lat="43.56964" lon="3.34558">
        <ele>209.595176</ele>
        <time>2022-02-24T15:41:53.000Z</time>
      </trkpt>
      <trkpt lat="43.56966" lon="3.34557">
        <ele>209.416646</ele>
        <time>2022-02-24T15:41:54.000Z</time>
      </trkpt>
      <trkpt lat="43.56968" lon="3.34557">
        <ele>209.207739</ele>
        <time>2022-02-24T15:41:55.000Z</time>
      </trkpt>
      <trkpt lat="43.56971" lon="3.34558">
        <ele>208.925617</ele>
        <time>2022-02-24T15:41:56.000Z</time>
      </trkpt>
      <trkpt lat="43.56975" lon="3.34558">
        <ele>208.577578</ele>
        <time>2022-02-24T15:41:58.000Z</time>
      </trkpt>
      <trkpt lat="43.56988" lon="3.34562">
        <ele>207.377589</ele>
        <time>2022-02-24T15:41:59.000Z</time>
      </trkpt>
      <trkpt lat="43.56991" lon="3.34563">
        <ele>207.05899</ele>
        <time>2022-02-24T15:42:00.000Z</time>
      </trkpt>
      <trkpt lat="43.56994" lon="3.34564">
        <ele>206.797146</ele>
        <time>2022-02-24T15:42:02.000Z</time>
      </trkpt>
      <trkpt lat="43.56997" lon="3.34566">
        <ele>206.458982</ele>
        <time>2022-02-24T15:42:04.000Z</time>
      </trkpt>
      <trkpt lat="43.57002" lon="3.34568">
        <ele>206.05344</ele>
        <time>2022-02-24T15:42:05.000Z</time>
      </trkpt>
      <trkpt lat="43.57006" lon="3.3457">
        <ele>205.65009</ele>
        <time>2022-02-24T15:42:06.000Z</time>
      </trkpt>
      <trkpt lat="43.5701" lon="3.34572">
        <ele>205.283171</ele>
        <time>2022-02-24T15:42:07.000Z</time>
      </trkpt>
      <trkpt lat="43.57014" lon="3.34575">
        <ele>204.856826</ele>
        <time>2022-02-24T15:42:09.000Z</time>
      </trkpt>
      <trkpt lat="43.57017" lon="3.34578">
        <ele>204.503949</ele>
        <time>2022-02-24T15:42:10.000Z</time>
      </trkpt>
      <trkpt lat="43.5702" lon="3.34581">
        <ele>204.197352</ele>
        <time>2022-02-24T15:42:11.000Z</time>
      </trkpt>
      <trkpt lat="43.57022" lon="3.34583">
        <ele>203.868413</ele>
        <time>2022-02-24T15:42:12.000Z</time>
      </trkpt>
      <trkpt lat="43.57024" lon="3.34586">
        <ele>203.446546</ele>
        <time>2022-02-24T15:42:13.000Z</time>
      </trkpt>
      <trkpt lat="43.57026" lon="3.34588">
        <ele>203.048064</ele>
        <time>2022-02-24T15:42:14.000Z</time>
      </trkpt>
      <trkpt lat="43.57028" lon="3.3459">
        <ele>202.61944</ele>
        <time>2022-02-24T15:42:15.000Z</time>
      </trkpt>
      <trkpt lat="43.5703" lon="3.34592">
        <ele>202.202547</ele>
        <time>2022-02-24T15:42:16.000Z</time>
      </trkpt>
      <trkpt lat="43.57033" lon="3.34594">
        <ele>201.734621</ele>
        <time>2022-02-24T15:42:17.000Z</time>
      </trkpt>
      <trkpt lat="43.57035" lon="3.34595">
        <ele>201.285766</ele>
        <time>2022-02-24T15:42:18.000Z</time>
      </trkpt>
      <trkpt lat="43.57038" lon="3.34597">
        <ele>200.834885</ele>
        <time>2022-02-24T15:42:19.000Z</time>
      </trkpt>
      <trkpt lat="43.57041" lon="3.34598">
        <ele>200.371584</ele>
        <time>2022-02-24T15:42:21.000Z</time>
      </trkpt>
      <trkpt lat="43.57044" lon="3.346">
        <ele>199.872254</ele>
        <time>2022-02-24T15:42:22.000Z</time>
      </trkpt>
      <trkpt lat="43.57047" lon="3.34601">
        <ele>199.367569</ele>
        <time>2022-02-24T15:42:23.000Z</time>
      </trkpt>
      <trkpt lat="43.5705" lon="3.34602">
        <ele>198.923689</ele>
        <time>2022-02-24T15:42:24.000Z</time>
      </trkpt>
      <trkpt lat="43.57053" lon="3.34603">
        <ele>198.4279</ele>
        <time>2022-02-24T15:42:25.000Z</time>
      </trkpt>
      <trkpt lat="43.57056" lon="3.34605">
        <ele>197.906052</ele>
        <time>2022-02-24T15:42:26.000Z</time>
      </trkpt>
      <trkpt lat="43.57059" lon="3.34606">
        <ele>197.331875</ele>
        <time>2022-02-24T15:42:27.000Z</time>
      </trkpt>
      <trkpt lat="43.57062" lon="3.34608">
        <ele>196.82877</ele>
        <time>2022-02-24T15:42:28.000Z</time>
      </trkpt>
      <trkpt lat="43.57066" lon="3.3461">
        <ele>196.243736</ele>
        <time>2022-02-24T15:42:29.000Z</time>
      </trkpt>
      <trkpt lat="43.57069" lon="3.34611">
        <ele>195.677339</ele>
        <time>2022-02-24T15:42:30.000Z</time>
      </trkpt>
      <trkpt lat="43.57072" lon="3.34613">
        <ele>195.155491</ele>
        <time>2022-02-24T15:42:31.000Z</time>
      </trkpt>
      <trkpt lat="43.57075" lon="3.34614">
        <ele>194.715445</ele>
        <time>2022-02-24T15:42:32.000Z</time>
      </trkpt>
      <trkpt lat="43.57077" lon="3.34616">
        <ele>194.323564</ele>
        <time>2022-02-24T15:42:34.000Z</time>
      </trkpt>
      <trkpt lat="43.57079" lon="3.34617">
        <ele>193.922466</ele>
        <time>2022-02-24T15:42:35.000Z</time>
      </trkpt>
      <trkpt lat="43.57082" lon="3.34619">
        <ele>193.449685</ele>
        <time>2022-02-24T15:42:37.000Z</time>
      </trkpt>
      <trkpt lat="43.57085" lon="3.34621">
        <ele>192.985817</ele>
        <time>2022-02-24T15:42:38.000Z</time>
      </trkpt>
      <trkpt lat="43.57088" lon="3.34623">
        <ele>192.441328</ele>
        <time>2022-02-24T15:42:39.000Z</time>
      </trkpt>
      <trkpt lat="43.5709" lon="3.34623">
        <ele>192.139793</ele>
        <time>2022-02-24T15:42:41.000Z</time>
      </trkpt>
      <trkpt lat="43.57091" lon="3.34624">
        <ele>191.918716</ele>
        <time>2022-02-24T15:42:42.000Z</time>
      </trkpt>
      <trkpt lat="43.57092" lon="3.34627">
        <ele>191.616919</ele>
        <time>2022-02-24T15:42:44.000Z</time>
      </trkpt>
      <trkpt lat="43.57093" lon="3.3463">
        <ele>191.215403</ele>
        <time>2022-02-24T15:42:46.000Z</time>
      </trkpt>
      <trkpt lat="43.57098" lon="3.34649">
        <ele>188.878895</ele>
        <time>2022-02-24T15:42:47.000Z</time>
      </trkpt>
      <trkpt lat="43.57099" lon="3.34655">
        <ele>188.125708</ele>
        <time>2022-02-24T15:42:48.000Z</time>
      </trkpt>
      <trkpt lat="43.57099" lon="3.34659">
        <ele>187.680178</ele>
        <time>2022-02-24T15:42:50.000Z</time>
      </trkpt>
      <trkpt lat="43.571" lon="3.34664">
        <ele>187.126799</ele>
        <time>2022-02-24T15:42:51.000Z</time>
      </trkpt>
      <trkpt lat="43.57101" lon="3.34668">
        <ele>186.638037</ele>
        <time>2022-02-24T15:42:52.000Z</time>
      </trkpt>
      <trkpt lat="43.57103" lon="3.34672">
        <ele>186.065398</ele>
        <time>2022-02-24T15:42:53.000Z</time>
      </trkpt>
      <trkpt lat="43.57105" lon="3.34678">
        <ele>185.379616</ele>
        <time>2022-02-24T15:42:54.000Z</time>
      </trkpt>
      <trkpt lat="43.57107" lon="3.34684">
        <ele>184.594046</ele>
        <time>2022-02-24T15:42:55.000Z</time>
      </trkpt>
      <trkpt lat="43.5711" lon="3.3469">
        <ele>183.723245</ele>
        <time>2022-02-24T15:42:56.000Z</time>
      </trkpt>
      <trkpt lat="43.57113" lon="3.34697">
        <ele>182.843781</ele>
        <time>2022-02-24T15:42:58.000Z</time>
      </trkpt>
      <trkpt lat="43.57116" lon="3.34703">
        <ele>182.035285</ele>
        <time>2022-02-24T15:42:59.000Z</time>
      </trkpt>
      <trkpt lat="43.57119" lon="3.34709">
        <ele>181.174721</ele>
        <time>2022-02-24T15:43:00.000Z</time>
      </trkpt>
      <trkpt lat="43.57122" lon="3.34715">
        <ele>180.303922</ele>
        <time>2022-02-24T15:43:01.000Z</time>
      </trkpt>
      <trkpt lat="43.57124" lon="3.34722">
        <ele>179.467738</ele>
        <time>2022-02-24T15:43:02.000Z</time>
      </trkpt>
      <trkpt lat="43.57127" lon="3.34728">
        <ele>178.651615</ele>
        <time>2022-02-24T15:43:03.000Z</time>
      </trkpt>
      <trkpt lat="43.57129" lon="3.34735">
        <ele>177.794317</ele>
        <time>2022-02-24T15:43:05.000Z</time>
      </trkpt>
      <trkpt lat="43.57131" lon="3.34741">
        <ele>176.993616</ele>
        <time>2022-02-24T15:43:06.000Z</time>
      </trkpt>
      <trkpt lat="43.57132" lon="3.34748">
        <ele>176.257723</ele>
        <time>2022-02-24T15:43:07.000Z</time>
      </trkpt>
      <trkpt lat="43.57134" lon="3.34754">
        <ele>175.556131</ele>
        <time>2022-02-24T15:43:08.000Z</time>
      </trkpt>
      <trkpt lat="43.57135" lon="3.3476">
        <ele>174.877361</ele>
        <time>2022-02-24T15:43:09.000Z</time>
      </trkpt>
      <trkpt lat="43.57136" lon="3.34766">
        <ele>174.223433</ele>
        <time>2022-02-24T15:43:11.000Z</time>
      </trkpt>
      <trkpt lat="43.57137" lon="3.34773">
        <ele>173.578014</ele>
        <time>2022-02-24T15:43:12.000Z</time>
      </trkpt>
      <trkpt lat="43.57138" lon="3.34779">
        <ele>172.902758</ele>
        <time>2022-02-24T15:43:13.000Z</time>
      </trkpt>
      <trkpt lat="43.57139" lon="3.3479">
        <ele>171.773267</ele>
        <time>2022-02-24T15:43:16.000Z</time>
      </trkpt>
      <trkpt lat="43.5714" lon="3.34795">
        <ele>171.276253</ele>
        <time>2022-02-24T15:43:17.000Z</time>
      </trkpt>
      <trkpt lat="43.57141" lon="3.348">
        <ele>170.811814</ele>
        <time>2022-02-24T15:43:19.000Z</time>
      </trkpt>
      <trkpt lat="43.57142" lon="3.34804">
        <ele>170.393081</ele>
        <time>2022-02-24T15:43:20.000Z</time>
      </trkpt>
      <trkpt lat="43.57147" lon="3.34823">
        <ele>168.26188</ele>
        <time>2022-02-24T15:45:08.000Z</time>
      </trkpt>
      <trkpt lat="43.57149" lon="3.34828">
        <ele>167.701066</ele>
        <time>2022-02-24T15:45:10.000Z</time>
      </trkpt>
      <trkpt lat="43.57151" lon="3.3483">
        <ele>167.3857</ele>
        <time>2022-02-24T15:45:11.000Z</time>
      </trkpt>
      <trkpt lat="43.57152" lon="3.34829">
        <ele>167.235375</ele>
        <time>2022-02-24T15:45:12.000Z</time>
      </trkpt>
      <trkpt lat="43.57154" lon="3.34833">
        <ele>166.72007</ele>
        <time>2022-02-24T15:45:14.000Z</time>
      </trkpt>
      <trkpt lat="43.57167" lon="3.34855">
        <ele>163.856269</ele>
        <time>2022-02-24T15:45:16.000Z</time>
      </trkpt>
      <trkpt lat="43.57171" lon="3.34861">
        <ele>163.063144</ele>
        <time>2022-02-24T15:45:18.000Z</time>
      </trkpt>
      <trkpt lat="43.57175" lon="3.34873">
        <ele>161.681893</ele>
        <time>2022-02-24T15:45:19.000Z</time>
      </trkpt>
      <trkpt lat="43.57175" lon="3.34876">
        <ele>161.383001</ele>
        <time>2022-02-24T15:45:21.000Z</time>
      </trkpt>
      <trkpt lat="43.57177" lon="3.34878">
        <ele>161.043984</ele>
        <time>2022-02-24T15:45:22.000Z</time>
      </trkpt>
      <trkpt lat="43.57181" lon="3.34881">
        <ele>160.431709</ele>
        <time>2022-02-24T15:45:24.000Z</time>
      </trkpt>
      <trkpt lat="43.57203" lon="3.34904">
        <ele>156.588844</ele>
        <time>2022-02-24T15:45:26.000Z</time>
      </trkpt>
      <trkpt lat="43.57208" lon="3.34911">
        <ele>155.656083</ele>
        <time>2022-02-24T15:45:28.000Z</time>
      </trkpt>
      <trkpt lat="43.57216" lon="3.34929">
        <ele>153.470051</ele>
        <time>2022-02-24T15:45:30.000Z</time>
      </trkpt>
      <trkpt lat="43.57223" lon="3.34946">
        <ele>151.483013</ele>
        <time>2022-02-24T15:45:31.000Z</time>
      </trkpt>
      <trkpt lat="43.57225" lon="3.3495">
        <ele>151.020949</ele>
        <time>2022-02-24T15:45:33.000Z</time>
      </trkpt>
      <trkpt lat="43.57226" lon="3.34952">
        <ele>150.762601</ele>
        <time>2022-02-24T15:45:34.000Z</time>
      </trkpt>
      <trkpt lat="43.57224" lon="3.34955">
        <ele>150.601023</ele>
        <time>2022-02-24T15:45:35.000Z</time>
      </trkpt>
      <trkpt lat="43.57221" lon="3.34958">
        <ele>150.503396</ele>
        <time>2022-02-24T15:45:36.000Z</time>
      </trkpt>
      <trkpt lat="43.57217" lon="3.3496">
        <ele>150.37854</ele>
        <time>2022-02-24T15:45:37.000Z</time>
      </trkpt>
      <trkpt lat="43.57212" lon="3.34962">
        <ele>150.248065</ele>
        <time>2022-02-24T15:45:38.000Z</time>
      </trkpt>
      <trkpt lat="43.57208" lon="3.34964">
        <ele>150.125369</ele>
        <time>2022-02-24T15:45:40.000Z</time>
      </trkpt>
      <trkpt lat="43.57204" lon="3.34966">
        <ele>150.003336</ele>
        <time>2022-02-24T15:45:41.000Z</time>
      </trkpt>
      <trkpt lat="43.572" lon="3.34968">
        <ele>149.889738</ele>
        <time>2022-02-24T15:45:42.000Z</time>
      </trkpt>
      <trkpt lat="43.57196" lon="3.3497">
        <ele>149.778727</ele>
        <time>2022-02-24T15:45:44.000Z</time>
      </trkpt>
      <trkpt lat="43.57193" lon="3.34972">
        <ele>149.675587</ele>
        <time>2022-02-24T15:45:45.000Z</time>
      </trkpt>
      <trkpt lat="43.5719" lon="3.34975">
        <ele>149.57796</ele>
        <time>2022-02-24T15:45:46.000Z</time>
      </trkpt>
      <trkpt lat="43.57187" lon="3.34977">
        <ele>149.479589</ele>
        <time>2022-02-24T15:45:47.000Z</time>
      </trkpt>
      <trkpt lat="43.57183" lon="3.34981">
        <ele>149.373263</ele>
        <time>2022-02-24T15:45:49.000Z</time>
      </trkpt>
      <trkpt lat="43.57181" lon="3.34984">
        <ele>149.27069</ele>
        <time>2022-02-24T15:45:50.000Z</time>
      </trkpt>
      <trkpt lat="43.57179" lon="3.34989">
        <ele>149.168758</ele>
        <time>2022-02-24T15:45:52.000Z</time>
      </trkpt>
      <trkpt lat="43.57179" lon="3.34993">
        <ele>149.082485</ele>
        <time>2022-02-24T15:45:53.000Z</time>
      </trkpt>
      <trkpt lat="43.57179" lon="3.34997">
        <ele>149.000159</ele>
        <time>2022-02-24T15:45:54.000Z</time>
      </trkpt>
      <trkpt lat="43.5718" lon="3.35001">
        <ele>148.915017</ele>
        <time>2022-02-24T15:45:55.000Z</time>
      </trkpt>
      <trkpt lat="43.57182" lon="3.35005">
        <ele>148.830644</ele>
        <time>2022-02-24T15:45:56.000Z</time>
      </trkpt>
      <trkpt lat="43.57183" lon="3.35008">
        <ele>148.742011</ele>
        <time>2022-02-24T15:45:57.000Z</time>
      </trkpt>
      <trkpt lat="43.57186" lon="3.35012">
        <ele>148.646496</ele>
        <time>2022-02-24T15:45:58.000Z</time>
      </trkpt>
      <trkpt lat="43.57188" lon="3.35015">
        <ele>148.553928</ele>
        <time>2022-02-24T15:45:59.000Z</time>
      </trkpt>
      <trkpt lat="43.5719" lon="3.35019">
        <ele>148.462805</ele>
        <time>2022-02-24T15:46:00.000Z</time>
      </trkpt>
      <trkpt lat="43.57193" lon="3.35022">
        <ele>148.373105</ele>
        <time>2022-02-24T15:46:01.000Z</time>
      </trkpt>
      <trkpt lat="43.57195" lon="3.35025">
        <ele>148.284807</ele>
        <time>2022-02-24T15:46:02.000Z</time>
      </trkpt>
      <trkpt lat="43.57197" lon="3.35028">
        <ele>148.199242</ele>
        <time>2022-02-24T15:46:03.000Z</time>
      </trkpt>
      <trkpt lat="43.572" lon="3.35031">
        <ele>148.109542</ele>
        <time>2022-02-24T15:46:05.000Z</time>
      </trkpt>
      <trkpt lat="43.57202" lon="3.35034">
        <ele>148.015173</ele>
        <time>2022-02-24T15:46:06.000Z</time>
      </trkpt>
      <trkpt lat="43.57204" lon="3.35037">
        <ele>147.926875</ele>
        <time>2022-02-24T15:46:07.000Z</time>
      </trkpt>
      <trkpt lat="43.57206" lon="3.35039">
        <ele>147.858756</ele>
        <time>2022-02-24T15:46:09.000Z</time>
      </trkpt>
      <trkpt lat="43.57219" lon="3.35051">
        <ele>147.448431</ele>
        <time>2022-02-24T15:46:12.000Z</time>
      </trkpt>
      <trkpt lat="43.57235" lon="3.35067">
        <ele>146.912662</ele>
        <time>2022-02-24T15:46:14.000Z</time>
      </trkpt>
      <trkpt lat="43.57257" lon="3.35092">
        <ele>146.126562</ele>
        <time>2022-02-24T15:46:16.000Z</time>
      </trkpt>
      <trkpt lat="43.57259" lon="3.35095">
        <ele>146.03793</ele>
        <time>2022-02-24T15:46:18.000Z</time>
      </trkpt>
      <trkpt lat="43.57269" lon="3.35116">
        <ele>145.465714</ele>
        <time>2022-02-24T15:46:20.000Z</time>
      </trkpt>
      <trkpt lat="43.57286" lon="3.35153">
        <ele>144.271481</ele>
        <time>2022-02-24T15:46:22.000Z</time>
      </trkpt>
      <trkpt lat="43.57287" lon="3.35157">
        <ele>144.143416</ele>
        <time>2022-02-24T15:46:24.000Z</time>
      </trkpt>
      <trkpt lat="43.57295" lon="3.3518">
        <ele>143.471666</ele>
        <time>2022-02-24T15:46:26.000Z</time>
      </trkpt>
      <trkpt lat="43.57306" lon="3.35216">
        <ele>142.387972</ele>
        <time>2022-02-24T15:46:28.000Z</time>
      </trkpt>
      <trkpt lat="43.57307" lon="3.35219">
        <ele>142.303337</ele>
        <time>2022-02-24T15:46:30.000Z</time>
      </trkpt>
      <trkpt lat="43.57325" lon="3.35244">
        <ele>141.34133</ele>
        <time>2022-02-24T15:46:32.000Z</time>
      </trkpt>
      <trkpt lat="43.57327" lon="3.35246">
        <ele>141.252554</ele>
        <time>2022-02-24T15:46:34.000Z</time>
      </trkpt>
      <trkpt lat="43.57342" lon="3.35275">
        <ele>140.269206</ele>
        <time>2022-02-24T15:46:36.000Z</time>
      </trkpt>
      <trkpt lat="43.57346" lon="3.35287">
        <ele>139.91699</ele>
        <time>2022-02-24T15:46:38.000Z</time>
      </trkpt>
      <trkpt lat="43.57351" lon="3.35299">
        <ele>139.540138</ele>
        <time>2022-02-24T15:46:40.000Z</time>
      </trkpt>
      <trkpt lat="43.57356" lon="3.35311">
        <ele>139.161545</ele>
        <time>2022-02-24T15:46:42.000Z</time>
      </trkpt>
      <trkpt lat="43.57361" lon="3.35323">
        <ele>138.720313</ele>
        <time>2022-02-24T15:46:44.000Z</time>
      </trkpt>
      <trkpt lat="43.57362" lon="3.35326">
        <ele>138.601438</ele>
        <time>2022-02-24T15:46:46.000Z</time>
      </trkpt>
      <trkpt lat="43.57381" lon="3.35358">
        <ele>137.175326</ele>
        <time>2022-02-24T15:46:48.000Z</time>
      </trkpt>
      <trkpt lat="43.57382" lon="3.3536">
        <ele>137.077403</ele>
        <time>2022-02-24T15:46:50.000Z</time>
      </trkpt>
      <trkpt lat="43.57391" lon="3.35372">
        <ele>136.487289</ele>
        <time>2022-02-24T15:46:52.000Z</time>
      </trkpt>
      <trkpt lat="43.57404" lon="3.35395">
        <ele>135.485255</ele>
        <time>2022-02-24T15:46:54.000Z</time>
      </trkpt>
      <trkpt lat="43.57405" lon="3.35398">
        <ele>135.374262</ele>
        <time>2022-02-24T15:46:56.000Z</time>
      </trkpt>
      <trkpt lat="43.57415" lon="3.35428">
        <ele>134.214265</ele>
        <time>2022-02-24T15:46:58.000Z</time>
      </trkpt>
      <trkpt lat="43.57416" lon="3.35431">
        <ele>134.106132</ele>
        <time>2022-02-24T15:47:00.000Z</time>
      </trkpt>
      <trkpt lat="43.57425" lon="3.35462">
        <ele>132.933223</ele>
        <time>2022-02-24T15:47:02.000Z</time>
      </trkpt>
      <trkpt lat="43.57426" lon="3.35464">
        <ele>132.847445</ele>
        <time>2022-02-24T15:47:04.000Z</time>
      </trkpt>
      <trkpt lat="43.57438" lon="3.35488">
        <ele>131.85613</ele>
        <time>2022-02-24T15:47:06.000Z</time>
      </trkpt>
      <trkpt lat="43.57443" lon="3.35496">
        <ele>131.454672</ele>
        <time>2022-02-24T15:47:08.000Z</time>
      </trkpt>
      <trkpt lat="43.57444" lon="3.35499">
        <ele>131.355905</ele>
        <time>2022-02-24T15:47:10.000Z</time>
      </trkpt>
      <trkpt lat="43.57462" lon="3.35529">
        <ele>130.057787</ele>
        <time>2022-02-24T15:47:12.000Z</time>
      </trkpt>
      <trkpt lat="43.57468" lon="3.35539">
        <ele>129.686558</ele>
        <time>2022-02-24T15:47:14.000Z</time>
      </trkpt>
      <trkpt lat="43.5747" lon="3.35541">
        <ele>129.61898</ele>
        <time>2022-02-24T15:47:16.000Z</time>
      </trkpt>
      <trkpt lat="43.57479" lon="3.35552">
        <ele>129.141089</ele>
        <time>2022-02-24T15:47:18.000Z</time>
      </trkpt>
      <trkpt lat="43.57491" lon="3.35564">
        <ele>128.549213</ele>
        <time>2022-02-24T15:47:20.000Z</time>
      </trkpt>
      <trkpt lat="43.57496" lon="3.35572">
        <ele>128.272096</ele>
        <time>2022-02-24T15:47:22.000Z</time>
      </trkpt>
      <trkpt lat="43.57501" lon="3.35583">
        <ele>127.918676</ele>
        <time>2022-02-24T15:47:24.000Z</time>
      </trkpt>
      <trkpt lat="43.57501" lon="3.35586">
        <ele>127.83938</ele>
        <time>2022-02-24T15:47:26.000Z</time>
      </trkpt>
      <trkpt lat="43.57504" lon="3.35605">
        <ele>127.279464</ele>
        <time>2022-02-24T15:47:28.000Z</time>
      </trkpt>
      <trkpt lat="43.57509" lon="3.35635">
        <ele>126.423095</ele>
        <time>2022-02-24T15:47:30.000Z</time>
      </trkpt>
      <trkpt lat="43.57513" lon="3.35643">
        <ele>126.164083</ele>
        <time>2022-02-24T15:47:32.000Z</time>
      </trkpt>
      <trkpt lat="43.57515" lon="3.35644">
        <ele>126.098135</ele>
        <time>2022-02-24T15:47:34.000Z</time>
      </trkpt>
      <trkpt lat="43.57531" lon="3.35664">
        <ele>125.270275</ele>
        <time>2022-02-24T15:47:36.000Z</time>
      </trkpt>
      <trkpt lat="43.57539" lon="3.35669">
        <ele>124.932315</ele>
        <time>2022-02-24T15:47:38.000Z</time>
      </trkpt>
      <trkpt lat="43.57541" lon="3.35671">
        <ele>124.849713</ele>
        <time>2022-02-24T15:47:40.000Z</time>
      </trkpt>
      <trkpt lat="43.57558" lon="3.35695">
        <ele>123.915667</ele>
        <time>2022-02-24T15:47:42.000Z</time>
      </trkpt>
      <trkpt lat="43.57558" lon="3.35697">
        <ele>123.843782</ele>
        <time>2022-02-24T15:47:44.000Z</time>
      </trkpt>
      <trkpt lat="43.57564" lon="3.35711">
        <ele>123.407995</ele>
        <time>2022-02-24T15:47:46.000Z</time>
      </trkpt>
      <trkpt lat="43.57574" lon="3.35733">
        <ele>123.538909</ele>
        <time>2022-02-24T15:47:48.000Z</time>
      </trkpt>
      <trkpt lat="43.57578" lon="3.35741">
        <ele>123.599021</ele>
        <time>2022-02-24T15:47:50.000Z</time>
      </trkpt>
      <trkpt lat="43.57582" lon="3.35751">
        <ele>123.664957</ele>
        <time>2022-02-24T15:47:52.000Z</time>
      </trkpt>
      <trkpt lat="43.57583" lon="3.35753">
        <ele>123.680713</ele>
        <time>2022-02-24T15:47:54.000Z</time>
      </trkpt>
      <trkpt lat="43.5759" lon="3.35773">
        <ele>123.817452</ele>
        <time>2022-02-24T15:47:56.000Z</time>
      </trkpt>
      <trkpt lat="43.57592" lon="3.35779">
        <ele>123.86157</ele>
        <time>2022-02-24T15:47:58.000Z</time>
      </trkpt>
      <trkpt lat="43.57593" lon="3.35781">
        <ele>123.872608</ele>
        <time>2022-02-24T15:48:00.000Z</time>
      </trkpt>
      <trkpt lat="43.57597" lon="3.35807">
        <ele>124.038316</ele>
        <time>2022-02-24T15:48:02.000Z</time>
      </trkpt>
      <trkpt lat="43.57598" lon="3.35817">
        <ele>124.102816</ele>
        <time>2022-02-24T15:48:04.000Z</time>
      </trkpt>
      <trkpt lat="43.57598" lon="3.35829">
        <ele>124.173298</ele>
        <time>2022-02-24T15:48:06.000Z</time>
      </trkpt>
      <trkpt lat="43.57598" lon="3.35831">
        <ele>124.188736</ele>
        <time>2022-02-24T15:48:08.000Z</time>
      </trkpt>
      <trkpt lat="43.57599" lon="3.35846">
        <ele>124.280386</ele>
        <time>2022-02-24T15:48:10.000Z</time>
      </trkpt>
      <trkpt lat="43.57598" lon="3.35854">
        <ele>124.329628</ele>
        <time>2022-02-24T15:48:12.000Z</time>
      </trkpt>
      <trkpt lat="43.57595" lon="3.35858">
        <ele>124.360683</ele>
        <time>2022-02-24T15:48:14.000Z</time>
      </trkpt>
      <trkpt lat="43.57597" lon="3.35867">
        <ele>124.421543</ele>
        <time>2022-02-24T15:48:16.000Z</time>
      </trkpt>
      <trkpt lat="43.57602" lon="3.35892">
        <ele>124.578436</ele>
        <time>2022-02-24T15:48:18.000Z</time>
      </trkpt>
      <trkpt lat="43.57605" lon="3.35911">
        <ele>124.700698</ele>
        <time>2022-02-24T15:48:20.000Z</time>
      </trkpt>
      <trkpt lat="43.57607" lon="3.35926">
        <ele>124.794734</ele>
        <time>2022-02-24T15:48:21.000Z</time>
      </trkpt>
      <trkpt lat="43.57607" lon="3.35927">
        <ele>124.805745</ele>
        <time>2022-02-24T15:48:22.000Z</time>
      </trkpt>
      <trkpt lat="43.57606" lon="3.35928">
        <ele>124.812675</ele>
        <time>2022-02-24T15:48:23.000Z</time>
      </trkpt>
      <trkpt lat="43.57606" lon="3.3593">
        <ele>124.827496</ele>
        <time>2022-02-24T15:48:24.000Z</time>
      </trkpt>
      <trkpt lat="43.57606" lon="3.35934">
        <ele>124.849987</ele>
        <time>2022-02-24T15:48:25.000Z</time>
      </trkpt>
      <trkpt lat="43.57607" lon="3.35939">
        <ele>124.886643</ele>
        <time>2022-02-24T15:48:26.000Z</time>
      </trkpt>
      <trkpt lat="43.5761" lon="3.35948">
        <ele>124.882306</ele>
        <time>2022-02-24T15:48:28.000Z</time>
      </trkpt>
      <trkpt lat="43.57613" lon="3.35959">
        <ele>124.7994</ele>
        <time>2022-02-24T15:48:30.000Z</time>
      </trkpt>
      <trkpt lat="43.57615" lon="3.35965">
        <ele>124.756323</ele>
        <time>2022-02-24T15:48:32.000Z</time>
      </trkpt>
      <trkpt lat="43.57626" lon="3.35994">
        <ele>124.535562</ele>
        <time>2022-02-24T15:48:34.000Z</time>
      </trkpt>
      <trkpt lat="43.57631" lon="3.36006">
        <ele>124.451422</ele>
        <time>2022-02-24T15:48:36.000Z</time>
      </trkpt>
      <trkpt lat="43.57632" lon="3.36011">
        <ele>124.41137</ele>
        <time>2022-02-24T15:48:38.000Z</time>
      </trkpt>
      <trkpt lat="43.57644" lon="3.36039">
        <ele>124.196667</ele>
        <time>2022-02-24T15:48:40.000Z</time>
      </trkpt>
      <trkpt lat="43.57644" lon="3.36041">
        <ele>124.183696</ele>
        <time>2022-02-24T15:48:42.000Z</time>
      </trkpt>
      <trkpt lat="43.5765" lon="3.36055">
        <ele>124.075937</ele>
        <time>2022-02-24T15:48:44.000Z</time>
      </trkpt>
      <trkpt lat="43.57651" lon="3.36059">
        <ele>124.046768</ele>
        <time>2022-02-24T15:48:46.000Z</time>
      </trkpt>
      <trkpt lat="43.57655" lon="3.36074">
        <ele>123.940101</ele>
        <time>2022-02-24T15:48:48.000Z</time>
      </trkpt>
      <trkpt lat="43.57657" lon="3.3608">
        <ele>123.900559</ele>
        <time>2022-02-24T15:48:49.000Z</time>
      </trkpt>
      <trkpt lat="43.57658" lon="3.36086">
        <ele>123.856316</ele>
        <time>2022-02-24T15:48:50.000Z</time>
      </trkpt>
      <trkpt lat="43.57659" lon="3.3609">
        <ele>123.829633</ele>
        <time>2022-02-24T15:48:52.000Z</time>
      </trkpt>
      <trkpt lat="43.57665" lon="3.36109">
        <ele>123.692223</ele>
        <time>2022-02-24T15:48:54.000Z</time>
      </trkpt>
      <trkpt lat="43.57666" lon="3.36115">
        <ele>123.649147</ele>
        <time>2022-02-24T15:48:55.000Z</time>
      </trkpt>
      <trkpt lat="43.57668" lon="3.3612">
        <ele>123.615559</ele>
        <time>2022-02-24T15:48:56.000Z</time>
      </trkpt>
      <trkpt lat="43.57668" lon="3.36124">
        <ele>123.582698</ele>
        <time>2022-02-24T15:48:57.000Z</time>
      </trkpt>
      <trkpt lat="43.57669" lon="3.36129">
        <ele>123.550488</ele>
        <time>2022-02-24T15:48:58.000Z</time>
      </trkpt>
      <trkpt lat="43.57669" lon="3.36133">
        <ele>123.526974</ele>
        <time>2022-02-24T15:49:00.000Z</time>
      </trkpt>
      <trkpt lat="43.57671" lon="3.36146">
        <ele>123.434569</ele>
        <time>2022-02-24T15:49:02.000Z</time>
      </trkpt>
      <trkpt lat="43.57673" lon="3.36165">
        <ele>123.309777</ele>
        <time>2022-02-24T15:49:04.000Z</time>
      </trkpt>
      <trkpt lat="43.57674" lon="3.3617">
        <ele>123.274975</ele>
        <time>2022-02-24T15:49:05.000Z</time>
      </trkpt>
      <trkpt lat="43.57674" lon="3.36173">
        <ele>123.235065</ele>
        <time>2022-02-24T15:49:06.000Z</time>
      </trkpt>
      <trkpt lat="43.57674" lon="3.36176">
        <ele>123.129441</ele>
        <time>2022-02-24T15:49:08.000Z</time>
      </trkpt>
      <trkpt lat="43.57674" lon="3.36178">
        <ele>123.043289</ele>
        <time>2022-02-24T15:49:09.000Z</time>
      </trkpt>
      <trkpt lat="43.57673" lon="3.36181">
        <ele>122.94291</ele>
        <time>2022-02-24T15:49:10.000Z</time>
      </trkpt>
      <trkpt lat="43.5767" lon="3.36183">
        <ele>122.795728</ele>
        <time>2022-02-24T15:49:11.000Z</time>
      </trkpt>
      <trkpt lat="43.57668" lon="3.36186">
        <ele>122.650771</ele>
        <time>2022-02-24T15:49:12.000Z</time>
      </trkpt>
      <trkpt lat="43.57665" lon="3.36188">
        <ele>122.487316</ele>
        <time>2022-02-24T15:49:14.000Z</time>
      </trkpt>
      <trkpt lat="43.57649" lon="3.36204">
        <ele>121.45691</ele>
        <time>2022-02-24T15:49:16.000Z</time>
      </trkpt>
      <trkpt lat="43.57644" lon="3.3621">
        <ele>121.144347</ele>
        <time>2022-02-24T15:49:18.000Z</time>
      </trkpt>
      <trkpt lat="43.57625" lon="3.3623">
        <ele>119.955005</ele>
        <time>2022-02-24T15:49:20.000Z</time>
      </trkpt>
      <trkpt lat="43.57623" lon="3.36232">
        <ele>119.832632</ele>
        <time>2022-02-24T15:49:22.000Z</time>
      </trkpt>
      <trkpt lat="43.57608" lon="3.3625">
        <ele>118.825063</ele>
        <time>2022-02-24T15:49:24.000Z</time>
      </trkpt>
      <trkpt lat="43.57607" lon="3.36252">
        <ele>118.71765</ele>
        <time>2022-02-24T15:49:26.000Z</time>
      </trkpt>
      <trkpt lat="43.57597" lon="3.36266">
        <ele>118.026916</ele>
        <time>2022-02-24T15:49:28.000Z</time>
      </trkpt>
      <trkpt lat="43.57587" lon="3.36281">
        <ele>117.295184</ele>
        <time>2022-02-24T15:49:30.000Z</time>
      </trkpt>
      <trkpt lat="43.57581" lon="3.36296">
        <ele>116.664806</ele>
        <time>2022-02-24T15:49:32.000Z</time>
      </trkpt>
      <trkpt lat="43.57581" lon="3.36297">
        <ele>116.632025</ele>
        <time>2022-02-24T15:49:34.000Z</time>
      </trkpt>
      <trkpt lat="43.57581" lon="3.36304">
        <ele>116.372983</ele>
        <time>2022-02-24T15:49:36.000Z</time>
      </trkpt>
      <trkpt lat="43.57581" lon="3.36305">
        <ele>116.343845</ele>
        <time>2022-02-24T15:49:38.000Z</time>
      </trkpt>
      <trkpt lat="43.57582" lon="3.36312">
        <ele>116.086514</ele>
        <time>2022-02-24T15:49:40.000Z</time>
      </trkpt>
      <trkpt lat="43.57582" lon="3.36312">
        <ele>116.05111</ele>
        <time>2022-02-24T15:49:41.000Z</time>
      </trkpt>
      <trkpt lat="43.57583" lon="3.36313">
        <ele>116.026277</ele>
        <time>2022-02-24T15:49:42.000Z</time>
      </trkpt>
      <trkpt lat="43.57583" lon="3.36313">
        <ele>115.990338</ele>
        <time>2022-02-24T15:49:44.000Z</time>
      </trkpt>
      <trkpt lat="43.57584" lon="3.36312">
        <ele>115.957865</ele>
        <time>2022-02-24T15:49:45.000Z</time>
      </trkpt>
      <trkpt lat="43.57583" lon="3.36311">
        <ele>115.922461</ele>
        <time>2022-02-24T15:49:46.000Z</time>
      </trkpt>
      <trkpt lat="43.57583" lon="3.3631">
        <ele>115.860503</ele>
        <time>2022-02-24T15:49:47.000Z</time>
      </trkpt>
      <trkpt lat="43.57581" lon="3.36306">
        <ele>115.686289</ele>
        <time>2022-02-24T15:49:48.000Z</time>
      </trkpt>
      <trkpt lat="43.57577" lon="3.36299">
        <ele>115.397122</ele>
        <time>2022-02-24T15:49:50.000Z</time>
      </trkpt>
      <trkpt lat="43.5757" lon="3.36285">
        <ele>114.774746</ele>
        <time>2022-02-24T15:49:52.000Z</time>
      </trkpt>
      <trkpt lat="43.57568" lon="3.36281">
        <ele>114.572318</ele>
        <time>2022-02-24T15:49:54.000Z</time>
      </trkpt>
      <trkpt lat="43.57563" lon="3.36258">
        <ele>113.944561</ele>
        <time>2022-02-24T15:49:55.000Z</time>
      </trkpt>
      <trkpt lat="43.57562" lon="3.36252">
        <ele>113.820688</ele>
        <time>2022-02-24T15:49:57.000Z</time>
      </trkpt>
      <trkpt lat="43.57562" lon="3.36248">
        <ele>113.741921</ele>
        <time>2022-02-24T15:49:58.000Z</time>
      </trkpt>
      <trkpt lat="43.57562" lon="3.36244">
        <ele>113.667489</ele>
        <time>2022-02-24T15:49:59.000Z</time>
      </trkpt>
      <trkpt lat="43.57562" lon="3.3624">
        <ele>113.596151</ele>
        <time>2022-02-24T15:50:01.000Z</time>
      </trkpt>
      <trkpt lat="43.57561" lon="3.36237">
        <ele>113.526748</ele>
        <time>2022-02-24T15:50:02.000Z</time>
      </trkpt>
      <trkpt lat="43.57561" lon="3.36234">
        <ele>113.465072</ele>
        <time>2022-02-24T15:50:03.000Z</time>
      </trkpt>
      <trkpt lat="43.5756" lon="3.36231">
        <ele>113.403396</ele>
        <time>2022-02-24T15:50:04.000Z</time>
      </trkpt>
      <trkpt lat="43.5756" lon="3.36228">
        <ele>113.346016</ele>
        <time>2022-02-24T15:50:05.000Z</time>
      </trkpt>
      <trkpt lat="43.5756" lon="3.36225">
        <ele>113.282411</ele>
        <time>2022-02-24T15:50:06.000Z</time>
      </trkpt>
      <trkpt lat="43.57559" lon="3.36221">
        <ele>113.21425</ele>
        <time>2022-02-24T15:50:07.000Z</time>
      </trkpt>
      <trkpt lat="43.57558" lon="3.36218">
        <ele>113.141315</ele>
        <time>2022-02-24T15:50:08.000Z</time>
      </trkpt>
      <trkpt lat="43.57556" lon="3.36214">
        <ele>113.055648</ele>
        <time>2022-02-24T15:50:09.000Z</time>
      </trkpt>
      <trkpt lat="43.57554" lon="3.36211">
        <ele>112.963091</ele>
        <time>2022-02-24T15:50:11.000Z</time>
      </trkpt>
      <trkpt lat="43.57551" lon="3.36208">
        <ele>112.864278</ele>
        <time>2022-02-24T15:50:12.000Z</time>
      </trkpt>
      <trkpt lat="43.57548" lon="3.36204">
        <ele>112.760563</ele>
        <time>2022-02-24T15:50:13.000Z</time>
      </trkpt>
      <trkpt lat="43.57544" lon="3.36201">
        <ele>112.645965</ele>
        <time>2022-02-24T15:50:14.000Z</time>
      </trkpt>
      <trkpt lat="43.57541" lon="3.36198">
        <ele>112.546942</ele>
        <time>2022-02-24T15:50:15.000Z</time>
      </trkpt>
      <trkpt lat="43.57538" lon="3.36195">
        <ele>112.436573</ele>
        <time>2022-02-24T15:50:16.000Z</time>
      </trkpt>
      <trkpt lat="43.57535" lon="3.36193">
        <ele>112.341827</ele>
        <time>2022-02-24T15:50:17.000Z</time>
      </trkpt>
      <trkpt lat="43.57532" lon="3.3619">
        <ele>112.243754</ele>
        <time>2022-02-24T15:50:19.000Z</time>
      </trkpt>
      <trkpt lat="43.57528" lon="3.36187">
        <ele>112.137701</ele>
        <time>2022-02-24T15:50:20.000Z</time>
      </trkpt>
      <trkpt lat="43.57525" lon="3.36184">
        <ele>112.026441</ele>
        <time>2022-02-24T15:50:21.000Z</time>
      </trkpt>
      <trkpt lat="43.57522" lon="3.36181">
        <ele>111.925191</ele>
        <time>2022-02-24T15:50:23.000Z</time>
      </trkpt>
      <trkpt lat="43.57509" lon="3.36171">
        <ele>111.53223</ele>
        <time>2022-02-24T15:50:25.000Z</time>
      </trkpt>
      <trkpt lat="43.57504" lon="3.36169">
        <ele>111.382596</ele>
        <time>2022-02-24T15:50:26.000Z</time>
      </trkpt>
      <trkpt lat="43.575" lon="3.36169">
        <ele>111.287947</ele>
        <time>2022-02-24T15:50:27.000Z</time>
      </trkpt>
      <trkpt lat="43.57498" lon="3.36171">
        <ele>111.212492</ele>
        <time>2022-02-24T15:50:28.000Z</time>
      </trkpt>
      <trkpt lat="43.57496" lon="3.36173">
        <ele>111.145441</ele>
        <time>2022-02-24T15:50:29.000Z</time>
      </trkpt>
      <trkpt lat="43.57494" lon="3.36177">
        <ele>111.041723</ele>
        <time>2022-02-24T15:50:30.000Z</time>
      </trkpt>
      <trkpt lat="43.57492" lon="3.36186">
        <ele>110.875383</ele>
        <time>2022-02-24T15:50:32.000Z</time>
      </trkpt>
      <trkpt lat="43.5749" lon="3.36203">
        <ele>110.527007</ele>
        <time>2022-02-24T15:50:34.000Z</time>
      </trkpt>
      <trkpt lat="43.57489" lon="3.36211">
        <ele>110.375201</ele>
        <time>2022-02-24T15:50:36.000Z</time>
      </trkpt>
      <trkpt lat="43.57482" lon="3.36257">
        <ele>109.453148</ele>
        <time>2022-02-24T15:50:38.000Z</time>
      </trkpt>
      <trkpt lat="43.57482" lon="3.36259">
        <ele>109.400262</ele>
        <time>2022-02-24T15:50:40.000Z</time>
      </trkpt>
      <trkpt lat="43.57486" lon="3.36274">
        <ele>109.351637</ele>
        <time>2022-02-24T15:50:42.000Z</time>
      </trkpt>
      <trkpt lat="43.57493" lon="3.36291">
        <ele>109.351637</ele>
        <time>2022-02-24T15:50:44.000Z</time>
      </trkpt>
      <trkpt lat="43.57496" lon="3.36296">
        <ele>109.351637</ele>
        <time>2022-02-24T15:50:46.000Z</time>
      </trkpt>
      <trkpt lat="43.57499" lon="3.36302">
        <ele>109.351637</ele>
        <time>2022-02-24T15:50:48.000Z</time>
      </trkpt>
      <trkpt lat="43.575" lon="3.36306">
        <ele>109.351637</ele>
        <time>2022-02-24T15:50:50.000Z</time>
      </trkpt>
      <trkpt lat="43.57502" lon="3.3631">
        <ele>109.351637</ele>
        <time>2022-02-24T15:50:51.000Z</time>
      </trkpt>
      <trkpt lat="43.57504" lon="3.36315">
        <ele>109.351637</ele>
        <time>2022-02-24T15:50:52.000Z</time>
      </trkpt>
      <trkpt lat="43.57505" lon="3.36321">
        <ele>109.351637</ele>
        <time>2022-02-24T15:50:54.000Z</time>
      </trkpt>
      <trkpt lat="43.57507" lon="3.36328">
        <ele>109.351637</ele>
        <time>2022-02-24T15:50:56.000Z</time>
      </trkpt>
      <trkpt lat="43.57507" lon="3.36333">
        <ele>109.351637</ele>
        <time>2022-02-24T15:50:58.000Z</time>
      </trkpt>
      <trkpt lat="43.57507" lon="3.36336">
        <ele>109.351637</ele>
        <time>2022-02-24T15:51:00.000Z</time>
      </trkpt>
      <trkpt lat="43.57502" lon="3.36346">
        <ele>109.351637</ele>
        <time>2022-02-24T15:51:02.000Z</time>
      </trkpt>
      <trkpt lat="43.57491" lon="3.36352">
        <ele>109.351637</ele>
        <time>2022-02-24T15:51:04.000Z</time>
      </trkpt>
      <trkpt lat="43.57481" lon="3.36354">
        <ele>109.351637</ele>
        <time>2022-02-24T15:51:06.000Z</time>
      </trkpt>
      <trkpt lat="43.57471" lon="3.36353">
        <ele>109.351637</ele>
        <time>2022-02-24T15:51:08.000Z</time>
      </trkpt>
      <trkpt lat="43.57467" lon="3.36353">
        <ele>109.351637</ele>
        <time>2022-02-24T15:51:09.000Z</time>
      </trkpt>
      <trkpt lat="43.57462" lon="3.36352">
        <ele>109.351637</ele>
        <time>2022-02-24T15:51:12.000Z</time>
      </trkpt>
      <trkpt lat="43.57443" lon="3.3635">
        <ele>109.351637</ele>
        <time>2022-02-24T15:51:14.000Z</time>
      </trkpt>
      <trkpt lat="43.57439" lon="3.3635">
        <ele>109.351637</ele>
        <time>2022-02-24T15:51:16.000Z</time>
      </trkpt>
      <trkpt lat="43.57421" lon="3.36352">
        <ele>109.351637</ele>
        <time>2022-02-24T15:51:18.000Z</time>
      </trkpt>
      <trkpt lat="43.57419" lon="3.36352">
        <ele>109.351637</ele>
        <time>2022-02-24T15:51:20.000Z</time>
      </trkpt>
      <trkpt lat="43.57409" lon="3.36355">
        <ele>109.351637</ele>
        <time>2022-02-24T15:51:22.000Z</time>
      </trkpt>
      <trkpt lat="43.57391" lon="3.36362">
        <ele>109.351637</ele>
        <time>2022-02-24T15:51:24.000Z</time>
      </trkpt>
      <trkpt lat="43.57385" lon="3.36364">
        <ele>109.351637</ele>
        <time>2022-02-24T15:51:26.000Z</time>
      </trkpt>
      <trkpt lat="43.57383" lon="3.36364">
        <ele>109.351637</ele>
        <time>2022-02-24T15:51:28.000Z</time>
      </trkpt>
      <trkpt lat="43.57372" lon="3.36367">
        <ele>109.351637</ele>
        <time>2022-02-24T15:51:30.000Z</time>
      </trkpt>
      <trkpt lat="43.57354" lon="3.36367">
        <ele>109.351637</ele>
        <time>2022-02-24T15:51:32.000Z</time>
      </trkpt>
      <trkpt lat="43.57352" lon="3.36366">
        <ele>109.351637</ele>
        <time>2022-02-24T15:51:34.000Z</time>
      </trkpt>
      <trkpt lat="43.57343" lon="3.36363">
        <ele>109.351637</ele>
        <time>2022-02-24T15:51:36.000Z</time>
      </trkpt>
      <trkpt lat="43.57329" lon="3.36359">
        <ele>109.351637</ele>
        <time>2022-02-24T15:51:38.000Z</time>
      </trkpt>
      <trkpt lat="43.57324" lon="3.36357">
        <ele>109.351637</ele>
        <time>2022-02-24T15:51:40.000Z</time>
      </trkpt>
      <trkpt lat="43.57323" lon="3.36357">
        <ele>109.351637</ele>
        <time>2022-02-24T15:51:42.000Z</time>
      </trkpt>
      <trkpt lat="43.57312" lon="3.36354">
        <ele>109.351637</ele>
        <time>2022-02-24T15:51:44.000Z</time>
      </trkpt>
      <trkpt lat="43.57312" lon="3.36354">
        <ele>109.351637</ele>
        <time>2022-02-24T15:51:45.000Z</time>
      </trkpt>
      <trkpt lat="43.57313" lon="3.36354">
        <ele>109.351637</ele>
        <time>2022-02-24T15:51:46.000Z</time>
      </trkpt>
      <trkpt lat="43.57312" lon="3.36355">
        <ele>109.351637</ele>
        <time>2022-02-24T15:51:47.000Z</time>
      </trkpt>
      <trkpt lat="43.57312" lon="3.36355">
        <ele>109.351637</ele>
        <time>2022-02-24T15:51:48.000Z</time>
      </trkpt>
    </trkseg>
  </trk>
</gpx>